<?xml version="1.0" encoding="UTF-8" standalone="no" ?>
<gpx xmlns="http://www.topografix.com/GPX/1/1" xmlns:xsi="http://www.w3.org/2001/XMLSchema-instance" xsi:schemaLocation="http://www.topografix.com/GPX/1/1 http://www.topografix.com/GPX/1/1/gpx.xsd" version="1.1" creator="VisuGPX - https://www.visugpx.com">
  <metadata>
    <name>Tour du Mont Blanc</name>
    <desc><![CDATA[Tour du Mont Blanc Cyclo du 21 juillet 2018]]></desc>
  </metadata>
  <trk>
    <name><![CDATA[20180506193749-jThs6]]></name>
    <trkseg>
      <trkpt lat="45.75788" lon="6.53756">
        <ele>1649</ele>
        <time>2018-05-05T17:49:45Z</time>
      </trkpt>
      <trkpt lat="45.7579" lon="6.53751">
        <ele>1649</ele>
        <time>2018-05-05T17:50:45Z</time>
      </trkpt>
      <trkpt lat="45.75794" lon="6.53736">
        <ele>1649</ele>
        <time>2018-05-05T17:51:45Z</time>
      </trkpt>
      <trkpt lat="45.75799" lon="6.53717">
        <ele>1649</ele>
        <time>2018-05-05T17:52:45Z</time>
      </trkpt>
      <trkpt lat="45.75802" lon="6.53703">
        <ele>1649</ele>
        <time>2018-05-05T17:53:45Z</time>
      </trkpt>
      <trkpt lat="45.75804" lon="6.53696">
        <ele>1649</ele>
        <time>2018-05-05T17:54:45Z</time>
      </trkpt>
      <trkpt lat="45.75808" lon="6.53682">
        <ele>1650</ele>
        <time>2018-05-05T17:55:45Z</time>
      </trkpt>
      <trkpt lat="45.75812" lon="6.53672">
        <ele>1650</ele>
        <time>2018-05-05T17:56:45Z</time>
      </trkpt>
      <trkpt lat="45.75815" lon="6.53664">
        <ele>1650</ele>
        <time>2018-05-05T17:57:45Z</time>
      </trkpt>
      <trkpt lat="45.75818" lon="6.53657">
        <ele>1650</ele>
        <time>2018-05-05T17:58:45Z</time>
      </trkpt>
      <trkpt lat="45.75821" lon="6.53651">
        <ele>1650</ele>
        <time>2018-05-05T17:59:45Z</time>
      </trkpt>
      <trkpt lat="45.75829" lon="6.53632">
        <ele>1649</ele>
        <time>2018-05-05T18:00:45Z</time>
      </trkpt>
      <trkpt lat="45.75837" lon="6.53613">
        <ele>1655</ele>
        <time>2018-05-05T18:01:45Z</time>
      </trkpt>
      <trkpt lat="45.75844" lon="6.53598">
        <ele>1655</ele>
        <time>2018-05-05T18:02:45Z</time>
      </trkpt>
      <trkpt lat="45.7585" lon="6.53588">
        <ele>1655</ele>
        <time>2018-05-05T18:03:45Z</time>
      </trkpt>
      <trkpt lat="45.75863" lon="6.53573">
        <ele>1654</ele>
        <time>2018-05-05T18:04:45Z</time>
      </trkpt>
      <trkpt lat="45.75879" lon="6.53556">
        <ele>1655</ele>
        <time>2018-05-05T18:05:45Z</time>
      </trkpt>
      <trkpt lat="45.75881" lon="6.53554">
        <ele>1655</ele>
        <time>2018-05-05T18:06:45Z</time>
      </trkpt>
      <trkpt lat="45.75886" lon="6.53546">
        <ele>1655</ele>
        <time>2018-05-05T18:07:45Z</time>
      </trkpt>
      <trkpt lat="45.75894" lon="6.53534">
        <ele>1656</ele>
        <time>2018-05-05T18:08:45Z</time>
      </trkpt>
      <trkpt lat="45.75908" lon="6.53513">
        <ele>1657</ele>
        <time>2018-05-05T18:09:45Z</time>
      </trkpt>
      <trkpt lat="45.75916" lon="6.53496">
        <ele>1657</ele>
        <time>2018-05-05T18:10:45Z</time>
      </trkpt>
      <trkpt lat="45.75923" lon="6.53479">
        <ele>1659</ele>
        <time>2018-05-05T18:11:45Z</time>
      </trkpt>
      <trkpt lat="45.75933" lon="6.53453">
        <ele>1659</ele>
        <time>2018-05-05T18:12:45Z</time>
      </trkpt>
      <trkpt lat="45.75938" lon="6.53444">
        <ele>1659</ele>
        <time>2018-05-05T18:13:45Z</time>
      </trkpt>
      <trkpt lat="45.75943" lon="6.53433">
        <ele>1659</ele>
        <time>2018-05-05T18:14:45Z</time>
      </trkpt>
      <trkpt lat="45.75945" lon="6.53435">
        <ele>1659</ele>
        <time>2018-05-05T18:15:45Z</time>
      </trkpt>
      <trkpt lat="45.75947" lon="6.53436">
        <ele>1659</ele>
        <time>2018-05-05T18:16:45Z</time>
      </trkpt>
      <trkpt lat="45.75949" lon="6.53437">
        <ele>1659</ele>
        <time>2018-05-05T18:17:45Z</time>
      </trkpt>
      <trkpt lat="45.75951" lon="6.53436">
        <ele>1659</ele>
        <time>2018-05-05T18:18:45Z</time>
      </trkpt>
      <trkpt lat="45.75953" lon="6.53435">
        <ele>1659</ele>
        <time>2018-05-05T18:19:45Z</time>
      </trkpt>
      <trkpt lat="45.75954" lon="6.53434">
        <ele>1659</ele>
        <time>2018-05-05T18:20:45Z</time>
      </trkpt>
      <trkpt lat="45.75955" lon="6.53432">
        <ele>1659</ele>
        <time>2018-05-05T18:21:45Z</time>
      </trkpt>
      <trkpt lat="45.75956" lon="6.53431">
        <ele>1659</ele>
        <time>2018-05-05T18:22:45Z</time>
      </trkpt>
      <trkpt lat="45.75956" lon="6.53429">
        <ele>1659</ele>
        <time>2018-05-05T18:23:45Z</time>
      </trkpt>
      <trkpt lat="45.75957" lon="6.53426">
        <ele>1659</ele>
        <time>2018-05-05T18:24:45Z</time>
      </trkpt>
      <trkpt lat="45.75957" lon="6.53424">
        <ele>1659</ele>
        <time>2018-05-05T18:25:45Z</time>
      </trkpt>
      <trkpt lat="45.75956" lon="6.53422">
        <ele>1659</ele>
        <time>2018-05-05T18:26:45Z</time>
      </trkpt>
      <trkpt lat="45.75963" lon="6.53412">
        <ele>1658</ele>
        <time>2018-05-05T18:27:45Z</time>
      </trkpt>
      <trkpt lat="45.75977" lon="6.53398">
        <ele>1658</ele>
        <time>2018-05-05T18:28:45Z</time>
      </trkpt>
      <trkpt lat="45.7599" lon="6.53385">
        <ele>1658</ele>
        <time>2018-05-05T18:29:45Z</time>
      </trkpt>
      <trkpt lat="45.76002" lon="6.53376">
        <ele>1660</ele>
        <time>2018-05-05T18:30:45Z</time>
      </trkpt>
      <trkpt lat="45.76018" lon="6.53366">
        <ele>1660</ele>
        <time>2018-05-05T18:31:45Z</time>
      </trkpt>
      <trkpt lat="45.76034" lon="6.53358">
        <ele>1660</ele>
        <time>2018-05-05T18:32:45Z</time>
      </trkpt>
      <trkpt lat="45.7605" lon="6.53354">
        <ele>1660</ele>
        <time>2018-05-05T18:33:45Z</time>
      </trkpt>
      <trkpt lat="45.76068" lon="6.5335">
        <ele>1660</ele>
        <time>2018-05-05T18:34:45Z</time>
      </trkpt>
      <trkpt lat="45.76086" lon="6.53347">
        <ele>1660</ele>
        <time>2018-05-05T18:35:45Z</time>
      </trkpt>
      <trkpt lat="45.76104" lon="6.53343">
        <ele>1660</ele>
        <time>2018-05-05T18:36:45Z</time>
      </trkpt>
      <trkpt lat="45.76119" lon="6.53341">
        <ele>1660</ele>
        <time>2018-05-05T18:37:45Z</time>
      </trkpt>
      <trkpt lat="45.76139" lon="6.53337">
        <ele>1660</ele>
        <time>2018-05-05T18:38:45Z</time>
      </trkpt>
      <trkpt lat="45.76157" lon="6.53335">
        <ele>1658</ele>
        <time>2018-05-05T18:39:45Z</time>
      </trkpt>
      <trkpt lat="45.76179" lon="6.53335">
        <ele>1658</ele>
        <time>2018-05-05T18:40:45Z</time>
      </trkpt>
      <trkpt lat="45.76196" lon="6.53335">
        <ele>1659</ele>
        <time>2018-05-05T18:41:45Z</time>
      </trkpt>
      <trkpt lat="45.76214" lon="6.53336">
        <ele>1659</ele>
        <time>2018-05-05T18:42:45Z</time>
      </trkpt>
      <trkpt lat="45.76232" lon="6.53337">
        <ele>1658</ele>
        <time>2018-05-05T18:43:45Z</time>
      </trkpt>
      <trkpt lat="45.76249" lon="6.53339">
        <ele>1657</ele>
        <time>2018-05-05T18:44:45Z</time>
      </trkpt>
      <trkpt lat="45.76256" lon="6.53341">
        <ele>1657</ele>
        <time>2018-05-05T18:45:45Z</time>
      </trkpt>
      <trkpt lat="45.76266" lon="6.53343">
        <ele>1657</ele>
        <time>2018-05-05T18:46:45Z</time>
      </trkpt>
      <trkpt lat="45.76281" lon="6.5335">
        <ele>1658</ele>
        <time>2018-05-05T18:47:45Z</time>
      </trkpt>
      <trkpt lat="45.76294" lon="6.53358">
        <ele>1658</ele>
        <time>2018-05-05T18:48:45Z</time>
      </trkpt>
      <trkpt lat="45.76306" lon="6.53366">
        <ele>1658</ele>
        <time>2018-05-05T18:49:45Z</time>
      </trkpt>
      <trkpt lat="45.76314" lon="6.53371">
        <ele>1658</ele>
        <time>2018-05-05T18:50:45Z</time>
      </trkpt>
      <trkpt lat="45.76316" lon="6.53372">
        <ele>1658</ele>
        <time>2018-05-05T18:51:45Z</time>
      </trkpt>
      <trkpt lat="45.76315" lon="6.5338">
        <ele>1659</ele>
        <time>2018-05-05T18:52:45Z</time>
      </trkpt>
      <trkpt lat="45.76315" lon="6.53385">
        <ele>1659</ele>
        <time>2018-05-05T18:53:45Z</time>
      </trkpt>
      <trkpt lat="45.76318" lon="6.5339">
        <ele>1659</ele>
        <time>2018-05-05T18:54:45Z</time>
      </trkpt>
      <trkpt lat="45.76321" lon="6.53393">
        <ele>1659</ele>
        <time>2018-05-05T18:55:45Z</time>
      </trkpt>
      <trkpt lat="45.76324" lon="6.53394">
        <ele>1659</ele>
        <time>2018-05-05T18:56:45Z</time>
      </trkpt>
      <trkpt lat="45.76327" lon="6.53395">
        <ele>1659</ele>
        <time>2018-05-05T18:57:45Z</time>
      </trkpt>
      <trkpt lat="45.7633" lon="6.53393">
        <ele>1659</ele>
        <time>2018-05-05T18:58:45Z</time>
      </trkpt>
      <trkpt lat="45.76334" lon="6.53391">
        <ele>1658</ele>
        <time>2018-05-05T18:59:45Z</time>
      </trkpt>
      <trkpt lat="45.76336" lon="6.53386">
        <ele>1658</ele>
        <time>2018-05-05T19:00:45Z</time>
      </trkpt>
      <trkpt lat="45.7634" lon="6.53388">
        <ele>1658</ele>
        <time>2018-05-05T19:01:45Z</time>
      </trkpt>
      <trkpt lat="45.76347" lon="6.5339">
        <ele>1658</ele>
        <time>2018-05-05T19:02:45Z</time>
      </trkpt>
      <trkpt lat="45.76355" lon="6.53392">
        <ele>1658</ele>
        <time>2018-05-05T19:03:45Z</time>
      </trkpt>
      <trkpt lat="45.76361" lon="6.53392">
        <ele>1658</ele>
        <time>2018-05-05T19:04:45Z</time>
      </trkpt>
      <trkpt lat="45.76369" lon="6.53392">
        <ele>1658</ele>
        <time>2018-05-05T19:05:45Z</time>
      </trkpt>
      <trkpt lat="45.76377" lon="6.53391">
        <ele>1658</ele>
        <time>2018-05-05T19:06:45Z</time>
      </trkpt>
      <trkpt lat="45.76385" lon="6.53389">
        <ele>1658</ele>
        <time>2018-05-05T19:07:45Z</time>
      </trkpt>
      <trkpt lat="45.76394" lon="6.53386">
        <ele>1657</ele>
        <time>2018-05-05T19:08:45Z</time>
      </trkpt>
      <trkpt lat="45.76458" lon="6.53363">
        <ele>1655</ele>
        <time>2018-05-05T19:09:45Z</time>
      </trkpt>
      <trkpt lat="45.76478" lon="6.53356">
        <ele>1654</ele>
        <time>2018-05-05T19:10:45Z</time>
      </trkpt>
      <trkpt lat="45.76493" lon="6.5335">
        <ele>1652</ele>
        <time>2018-05-05T19:11:45Z</time>
      </trkpt>
      <trkpt lat="45.76508" lon="6.53344">
        <ele>1652</ele>
        <time>2018-05-05T19:12:45Z</time>
      </trkpt>
      <trkpt lat="45.7652" lon="6.53338">
        <ele>1654</ele>
        <time>2018-05-05T19:13:45Z</time>
      </trkpt>
      <trkpt lat="45.7653" lon="6.53331">
        <ele>1647</ele>
        <time>2018-05-05T19:14:45Z</time>
      </trkpt>
      <trkpt lat="45.76544" lon="6.53321">
        <ele>1647</ele>
        <time>2018-05-05T19:15:45Z</time>
      </trkpt>
      <trkpt lat="45.76554" lon="6.53313">
        <ele>1647</ele>
        <time>2018-05-05T19:16:45Z</time>
      </trkpt>
      <trkpt lat="45.76601" lon="6.53273">
        <ele>1646</ele>
        <time>2018-05-05T19:17:45Z</time>
      </trkpt>
      <trkpt lat="45.7661" lon="6.53267">
        <ele>1646</ele>
        <time>2018-05-05T19:18:45Z</time>
      </trkpt>
      <trkpt lat="45.76619" lon="6.53261">
        <ele>1646</ele>
        <time>2018-05-05T19:19:45Z</time>
      </trkpt>
      <trkpt lat="45.76628" lon="6.53256">
        <ele>1646</ele>
        <time>2018-05-05T19:20:45Z</time>
      </trkpt>
      <trkpt lat="45.76665" lon="6.53239">
        <ele>1639</ele>
        <time>2018-05-05T19:21:45Z</time>
      </trkpt>
      <trkpt lat="45.7668" lon="6.53232">
        <ele>1639</ele>
        <time>2018-05-05T19:22:45Z</time>
      </trkpt>
      <trkpt lat="45.76691" lon="6.53227">
        <ele>1638</ele>
        <time>2018-05-05T19:23:45Z</time>
      </trkpt>
      <trkpt lat="45.76697" lon="6.53225">
        <ele>1638</ele>
        <time>2018-05-05T19:24:45Z</time>
      </trkpt>
      <trkpt lat="45.76705" lon="6.53222">
        <ele>1638</ele>
        <time>2018-05-05T19:25:45Z</time>
      </trkpt>
      <trkpt lat="45.76721" lon="6.53217">
        <ele>1638</ele>
        <time>2018-05-05T19:26:45Z</time>
      </trkpt>
      <trkpt lat="45.76754" lon="6.53206">
        <ele>1637</ele>
        <time>2018-05-05T19:27:45Z</time>
      </trkpt>
      <trkpt lat="45.76789" lon="6.53196">
        <ele>1635</ele>
        <time>2018-05-05T19:28:45Z</time>
      </trkpt>
      <trkpt lat="45.76829" lon="6.53185">
        <ele>1631</ele>
        <time>2018-05-05T19:29:45Z</time>
      </trkpt>
      <trkpt lat="45.76836" lon="6.53183">
        <ele>1627</ele>
        <time>2018-05-05T19:30:45Z</time>
      </trkpt>
      <trkpt lat="45.76845" lon="6.53183">
        <ele>1627</ele>
        <time>2018-05-05T19:31:45Z</time>
      </trkpt>
      <trkpt lat="45.76852" lon="6.53184">
        <ele>1628</ele>
        <time>2018-05-05T19:32:45Z</time>
      </trkpt>
      <trkpt lat="45.7686" lon="6.53185">
        <ele>1628</ele>
        <time>2018-05-05T19:33:45Z</time>
      </trkpt>
      <trkpt lat="45.76873" lon="6.53188">
        <ele>1628</ele>
        <time>2018-05-05T19:34:45Z</time>
      </trkpt>
      <trkpt lat="45.76892" lon="6.53197">
        <ele>1627</ele>
        <time>2018-05-05T19:35:45Z</time>
      </trkpt>
      <trkpt lat="45.76917" lon="6.5321">
        <ele>1620</ele>
        <time>2018-05-05T19:36:45Z</time>
      </trkpt>
      <trkpt lat="45.76931" lon="6.5322">
        <ele>1621</ele>
        <time>2018-05-05T19:37:45Z</time>
      </trkpt>
      <trkpt lat="45.76943" lon="6.53229">
        <ele>1621</ele>
        <time>2018-05-05T19:38:45Z</time>
      </trkpt>
      <trkpt lat="45.76966" lon="6.53254">
        <ele>1630</ele>
        <time>2018-05-05T19:39:45Z</time>
      </trkpt>
      <trkpt lat="45.7698" lon="6.53267">
        <ele>1628</ele>
        <time>2018-05-05T19:40:45Z</time>
      </trkpt>
      <trkpt lat="45.76989" lon="6.53276">
        <ele>1628</ele>
        <time>2018-05-05T19:41:45Z</time>
      </trkpt>
      <trkpt lat="45.76996" lon="6.53282">
        <ele>1629</ele>
        <time>2018-05-05T19:42:45Z</time>
      </trkpt>
      <trkpt lat="45.77009" lon="6.53292">
        <ele>1612</ele>
        <time>2018-05-05T19:43:45Z</time>
      </trkpt>
      <trkpt lat="45.77016" lon="6.53297">
        <ele>1611</ele>
        <time>2018-05-05T19:44:45Z</time>
      </trkpt>
      <trkpt lat="45.77017" lon="6.53298">
        <ele>1611</ele>
        <time>2018-05-05T19:45:45Z</time>
      </trkpt>
      <trkpt lat="45.77022" lon="6.53302">
        <ele>1611</ele>
        <time>2018-05-05T19:46:45Z</time>
      </trkpt>
      <trkpt lat="45.7703" lon="6.53311">
        <ele>1611</ele>
        <time>2018-05-05T19:47:45Z</time>
      </trkpt>
      <trkpt lat="45.77035" lon="6.53318">
        <ele>1610</ele>
        <time>2018-05-05T19:48:45Z</time>
      </trkpt>
      <trkpt lat="45.77038" lon="6.53322">
        <ele>1609</ele>
        <time>2018-05-05T19:49:45Z</time>
      </trkpt>
      <trkpt lat="45.77039" lon="6.53324">
        <ele>1609</ele>
        <time>2018-05-05T19:50:45Z</time>
      </trkpt>
      <trkpt lat="45.77043" lon="6.5333">
        <ele>1608</ele>
        <time>2018-05-05T19:51:45Z</time>
      </trkpt>
      <trkpt lat="45.77046" lon="6.53336">
        <ele>1615</ele>
        <time>2018-05-05T19:52:45Z</time>
      </trkpt>
      <trkpt lat="45.77053" lon="6.53349">
        <ele>1614</ele>
        <time>2018-05-05T19:53:45Z</time>
      </trkpt>
      <trkpt lat="45.77061" lon="6.53366">
        <ele>1614</ele>
        <time>2018-05-05T19:54:45Z</time>
      </trkpt>
      <trkpt lat="45.7707" lon="6.53385">
        <ele>1614</ele>
        <time>2018-05-05T19:55:45Z</time>
      </trkpt>
      <trkpt lat="45.77085" lon="6.53421">
        <ele>1604</ele>
        <time>2018-05-05T19:56:45Z</time>
      </trkpt>
      <trkpt lat="45.77093" lon="6.5344">
        <ele>1604</ele>
        <time>2018-05-05T19:57:45Z</time>
      </trkpt>
      <trkpt lat="45.77102" lon="6.53454">
        <ele>1604</ele>
        <time>2018-05-05T19:58:45Z</time>
      </trkpt>
      <trkpt lat="45.77109" lon="6.53467">
        <ele>1604</ele>
        <time>2018-05-05T19:59:45Z</time>
      </trkpt>
      <trkpt lat="45.7712" lon="6.53483">
        <ele>1604</ele>
        <time>2018-05-05T20:00:45Z</time>
      </trkpt>
      <trkpt lat="45.77132" lon="6.53497">
        <ele>1602</ele>
        <time>2018-05-05T20:01:45Z</time>
      </trkpt>
      <trkpt lat="45.77144" lon="6.53511">
        <ele>1605</ele>
        <time>2018-05-05T20:02:45Z</time>
      </trkpt>
      <trkpt lat="45.77149" lon="6.53519">
        <ele>1605</ele>
        <time>2018-05-05T20:03:45Z</time>
      </trkpt>
      <trkpt lat="45.77157" lon="6.53529">
        <ele>1605</ele>
        <time>2018-05-05T20:04:45Z</time>
      </trkpt>
      <trkpt lat="45.77166" lon="6.53541">
        <ele>1606</ele>
        <time>2018-05-05T20:05:45Z</time>
      </trkpt>
      <trkpt lat="45.77177" lon="6.53559">
        <ele>1599</ele>
        <time>2018-05-05T20:06:45Z</time>
      </trkpt>
      <trkpt lat="45.77188" lon="6.53579">
        <ele>1600</ele>
        <time>2018-05-05T20:07:45Z</time>
      </trkpt>
      <trkpt lat="45.77204" lon="6.5361">
        <ele>1603</ele>
        <time>2018-05-05T20:08:45Z</time>
      </trkpt>
      <trkpt lat="45.77207" lon="6.53615">
        <ele>1603</ele>
        <time>2018-05-05T20:09:45Z</time>
      </trkpt>
      <trkpt lat="45.77216" lon="6.53628">
        <ele>1604</ele>
        <time>2018-05-05T20:10:45Z</time>
      </trkpt>
      <trkpt lat="45.77221" lon="6.53634">
        <ele>1604</ele>
        <time>2018-05-05T20:11:45Z</time>
      </trkpt>
      <trkpt lat="45.77226" lon="6.53639">
        <ele>1604</ele>
        <time>2018-05-05T20:12:45Z</time>
      </trkpt>
      <trkpt lat="45.77232" lon="6.53643">
        <ele>1604</ele>
        <time>2018-05-05T20:13:45Z</time>
      </trkpt>
      <trkpt lat="45.77237" lon="6.53645">
        <ele>1604</ele>
        <time>2018-05-05T20:14:45Z</time>
      </trkpt>
      <trkpt lat="45.77241" lon="6.53646">
        <ele>1604</ele>
        <time>2018-05-05T20:15:45Z</time>
      </trkpt>
      <trkpt lat="45.77244" lon="6.53646">
        <ele>1604</ele>
        <time>2018-05-05T20:16:45Z</time>
      </trkpt>
      <trkpt lat="45.77247" lon="6.53647">
        <ele>1604</ele>
        <time>2018-05-05T20:17:45Z</time>
      </trkpt>
      <trkpt lat="45.77254" lon="6.53645">
        <ele>1607</ele>
        <time>2018-05-05T20:18:45Z</time>
      </trkpt>
      <trkpt lat="45.77259" lon="6.53643">
        <ele>1607</ele>
        <time>2018-05-05T20:19:45Z</time>
      </trkpt>
      <trkpt lat="45.77266" lon="6.53641">
        <ele>1607</ele>
        <time>2018-05-05T20:20:45Z</time>
      </trkpt>
      <trkpt lat="45.7727" lon="6.5364">
        <ele>1608</ele>
        <time>2018-05-05T20:21:45Z</time>
      </trkpt>
      <trkpt lat="45.77276" lon="6.53639">
        <ele>1608</ele>
        <time>2018-05-05T20:22:45Z</time>
      </trkpt>
      <trkpt lat="45.77282" lon="6.53638">
        <ele>1608</ele>
        <time>2018-05-05T20:23:45Z</time>
      </trkpt>
      <trkpt lat="45.77283" lon="6.53638">
        <ele>1608</ele>
        <time>2018-05-05T20:24:45Z</time>
      </trkpt>
      <trkpt lat="45.77291" lon="6.53637">
        <ele>1609</ele>
        <time>2018-05-05T20:25:45Z</time>
      </trkpt>
      <trkpt lat="45.77301" lon="6.53636">
        <ele>1610</ele>
        <time>2018-05-05T20:26:45Z</time>
      </trkpt>
      <trkpt lat="45.77308" lon="6.53635">
        <ele>1610</ele>
        <time>2018-05-05T20:27:45Z</time>
      </trkpt>
      <trkpt lat="45.77315" lon="6.53634">
        <ele>1611</ele>
        <time>2018-05-05T20:28:45Z</time>
      </trkpt>
      <trkpt lat="45.7732" lon="6.53632">
        <ele>1611</ele>
        <time>2018-05-05T20:29:45Z</time>
      </trkpt>
      <trkpt lat="45.77327" lon="6.53629">
        <ele>1611</ele>
        <time>2018-05-05T20:30:45Z</time>
      </trkpt>
      <trkpt lat="45.77333" lon="6.53625">
        <ele>1610</ele>
        <time>2018-05-05T20:31:45Z</time>
      </trkpt>
      <trkpt lat="45.77339" lon="6.53621">
        <ele>1619</ele>
        <time>2018-05-05T20:32:45Z</time>
      </trkpt>
      <trkpt lat="45.77346" lon="6.53616">
        <ele>1619</ele>
        <time>2018-05-05T20:33:45Z</time>
      </trkpt>
      <trkpt lat="45.77352" lon="6.5361">
        <ele>1618</ele>
        <time>2018-05-05T20:34:45Z</time>
      </trkpt>
      <trkpt lat="45.77359" lon="6.53604">
        <ele>1618</ele>
        <time>2018-05-05T20:35:45Z</time>
      </trkpt>
      <trkpt lat="45.77366" lon="6.53596">
        <ele>1618</ele>
        <time>2018-05-05T20:36:45Z</time>
      </trkpt>
      <trkpt lat="45.77374" lon="6.53586">
        <ele>1619</ele>
        <time>2018-05-05T20:37:45Z</time>
      </trkpt>
      <trkpt lat="45.7738" lon="6.53577">
        <ele>1607</ele>
        <time>2018-05-05T20:38:45Z</time>
      </trkpt>
      <trkpt lat="45.77383" lon="6.53572">
        <ele>1607</ele>
        <time>2018-05-05T20:39:45Z</time>
      </trkpt>
      <trkpt lat="45.77386" lon="6.53569">
        <ele>1607</ele>
        <time>2018-05-05T20:40:45Z</time>
      </trkpt>
      <trkpt lat="45.7739" lon="6.53565">
        <ele>1607</ele>
        <time>2018-05-05T20:41:45Z</time>
      </trkpt>
      <trkpt lat="45.77399" lon="6.53558">
        <ele>1607</ele>
        <time>2018-05-05T20:42:45Z</time>
      </trkpt>
      <trkpt lat="45.77403" lon="6.53556">
        <ele>1607</ele>
        <time>2018-05-05T20:43:45Z</time>
      </trkpt>
      <trkpt lat="45.77407" lon="6.53554">
        <ele>1607</ele>
        <time>2018-05-05T20:44:45Z</time>
      </trkpt>
      <trkpt lat="45.77416" lon="6.53553">
        <ele>1607</ele>
        <time>2018-05-05T20:45:45Z</time>
      </trkpt>
      <trkpt lat="45.77432" lon="6.53552">
        <ele>1607</ele>
        <time>2018-05-05T20:46:45Z</time>
      </trkpt>
      <trkpt lat="45.77468" lon="6.53552">
        <ele>1606</ele>
        <time>2018-05-05T20:47:45Z</time>
      </trkpt>
      <trkpt lat="45.77487" lon="6.53552">
        <ele>1606</ele>
        <time>2018-05-05T20:48:45Z</time>
      </trkpt>
      <trkpt lat="45.77499" lon="6.53554">
        <ele>1607</ele>
        <time>2018-05-05T20:49:45Z</time>
      </trkpt>
      <trkpt lat="45.77512" lon="6.53556">
        <ele>1601</ele>
        <time>2018-05-05T20:50:45Z</time>
      </trkpt>
      <trkpt lat="45.7752" lon="6.53559">
        <ele>1601</ele>
        <time>2018-05-05T20:51:45Z</time>
      </trkpt>
      <trkpt lat="45.77525" lon="6.5356">
        <ele>1600</ele>
        <time>2018-05-05T20:52:45Z</time>
      </trkpt>
      <trkpt lat="45.77542" lon="6.53567">
        <ele>1599</ele>
        <time>2018-05-05T20:53:45Z</time>
      </trkpt>
      <trkpt lat="45.77557" lon="6.53575">
        <ele>1598</ele>
        <time>2018-05-05T20:54:45Z</time>
      </trkpt>
      <trkpt lat="45.77572" lon="6.53584">
        <ele>1608</ele>
        <time>2018-05-05T20:55:45Z</time>
      </trkpt>
      <trkpt lat="45.77582" lon="6.53591">
        <ele>1606</ele>
        <time>2018-05-05T20:56:45Z</time>
      </trkpt>
      <trkpt lat="45.77592" lon="6.53599">
        <ele>1602</ele>
        <time>2018-05-05T20:57:45Z</time>
      </trkpt>
      <trkpt lat="45.77603" lon="6.53609">
        <ele>1603</ele>
        <time>2018-05-05T20:58:45Z</time>
      </trkpt>
      <trkpt lat="45.77612" lon="6.53618">
        <ele>1604</ele>
        <time>2018-05-05T20:59:45Z</time>
      </trkpt>
      <trkpt lat="45.77623" lon="6.53629">
        <ele>1604</ele>
        <time>2018-05-05T21:00:45Z</time>
      </trkpt>
      <trkpt lat="45.77628" lon="6.53635">
        <ele>1604</ele>
        <time>2018-05-05T21:01:45Z</time>
      </trkpt>
      <trkpt lat="45.77632" lon="6.53639">
        <ele>1604</ele>
        <time>2018-05-05T21:02:45Z</time>
      </trkpt>
      <trkpt lat="45.77644" lon="6.53646">
        <ele>1604</ele>
        <time>2018-05-05T21:03:45Z</time>
      </trkpt>
      <trkpt lat="45.77658" lon="6.53654">
        <ele>1604</ele>
        <time>2018-05-05T21:04:45Z</time>
      </trkpt>
      <trkpt lat="45.77676" lon="6.53661">
        <ele>1597</ele>
        <time>2018-05-05T21:05:45Z</time>
      </trkpt>
      <trkpt lat="45.77692" lon="6.53665">
        <ele>1592</ele>
        <time>2018-05-05T21:06:45Z</time>
      </trkpt>
      <trkpt lat="45.7772" lon="6.53671">
        <ele>1602</ele>
        <time>2018-05-05T21:07:45Z</time>
      </trkpt>
      <trkpt lat="45.77744" lon="6.53678">
        <ele>1595</ele>
        <time>2018-05-05T21:08:45Z</time>
      </trkpt>
      <trkpt lat="45.77762" lon="6.53684">
        <ele>1587</ele>
        <time>2018-05-05T21:09:45Z</time>
      </trkpt>
      <trkpt lat="45.77779" lon="6.53691">
        <ele>1587</ele>
        <time>2018-05-05T21:10:45Z</time>
      </trkpt>
      <trkpt lat="45.77788" lon="6.53695">
        <ele>1586</ele>
        <time>2018-05-05T21:11:45Z</time>
      </trkpt>
      <trkpt lat="45.77798" lon="6.537">
        <ele>1585</ele>
        <time>2018-05-05T21:12:45Z</time>
      </trkpt>
      <trkpt lat="45.77806" lon="6.53705">
        <ele>1585</ele>
        <time>2018-05-05T21:13:45Z</time>
      </trkpt>
      <trkpt lat="45.77816" lon="6.53712">
        <ele>1585</ele>
        <time>2018-05-05T21:14:45Z</time>
      </trkpt>
      <trkpt lat="45.77828" lon="6.53721">
        <ele>1585</ele>
        <time>2018-05-05T21:15:45Z</time>
      </trkpt>
      <trkpt lat="45.77847" lon="6.53736">
        <ele>1572</ele>
        <time>2018-05-05T21:16:45Z</time>
      </trkpt>
      <trkpt lat="45.77866" lon="6.53749">
        <ele>1567</ele>
        <time>2018-05-05T21:17:45Z</time>
      </trkpt>
      <trkpt lat="45.77881" lon="6.5376">
        <ele>1577</ele>
        <time>2018-05-05T21:18:45Z</time>
      </trkpt>
      <trkpt lat="45.7789" lon="6.53767">
        <ele>1575</ele>
        <time>2018-05-05T21:19:45Z</time>
      </trkpt>
      <trkpt lat="45.77895" lon="6.53771">
        <ele>1574</ele>
        <time>2018-05-05T21:20:45Z</time>
      </trkpt>
      <trkpt lat="45.77901" lon="6.53776">
        <ele>1574</ele>
        <time>2018-05-05T21:21:45Z</time>
      </trkpt>
      <trkpt lat="45.77908" lon="6.53784">
        <ele>1575</ele>
        <time>2018-05-05T21:22:45Z</time>
      </trkpt>
      <trkpt lat="45.77915" lon="6.53794">
        <ele>1576</ele>
        <time>2018-05-05T21:23:45Z</time>
      </trkpt>
      <trkpt lat="45.77923" lon="6.53806">
        <ele>1558</ele>
        <time>2018-05-05T21:24:45Z</time>
      </trkpt>
      <trkpt lat="45.77931" lon="6.53819">
        <ele>1560</ele>
        <time>2018-05-05T21:25:45Z</time>
      </trkpt>
      <trkpt lat="45.77938" lon="6.53833">
        <ele>1559</ele>
        <time>2018-05-05T21:26:45Z</time>
      </trkpt>
      <trkpt lat="45.77946" lon="6.53848">
        <ele>1562</ele>
        <time>2018-05-05T21:27:45Z</time>
      </trkpt>
      <trkpt lat="45.77954" lon="6.53865">
        <ele>1560</ele>
        <time>2018-05-05T21:28:45Z</time>
      </trkpt>
      <trkpt lat="45.77961" lon="6.53881">
        <ele>1559</ele>
        <time>2018-05-05T21:29:45Z</time>
      </trkpt>
      <trkpt lat="45.77969" lon="6.53898">
        <ele>1557</ele>
        <time>2018-05-05T21:30:45Z</time>
      </trkpt>
      <trkpt lat="45.77977" lon="6.53918">
        <ele>1558</ele>
        <time>2018-05-05T21:31:45Z</time>
      </trkpt>
      <trkpt lat="45.77999" lon="6.53978">
        <ele>1557</ele>
        <time>2018-05-05T21:32:45Z</time>
      </trkpt>
      <trkpt lat="45.78013" lon="6.54017">
        <ele>1541</ele>
        <time>2018-05-05T21:33:45Z</time>
      </trkpt>
      <trkpt lat="45.78023" lon="6.54043">
        <ele>1540</ele>
        <time>2018-05-05T21:34:45Z</time>
      </trkpt>
      <trkpt lat="45.78029" lon="6.54062">
        <ele>1540</ele>
        <time>2018-05-05T21:35:45Z</time>
      </trkpt>
      <trkpt lat="45.78035" lon="6.54081">
        <ele>1540</ele>
        <time>2018-05-05T21:36:45Z</time>
      </trkpt>
      <trkpt lat="45.78044" lon="6.54113">
        <ele>1542</ele>
        <time>2018-05-05T21:37:45Z</time>
      </trkpt>
      <trkpt lat="45.7805" lon="6.54133">
        <ele>1541</ele>
        <time>2018-05-05T21:38:45Z</time>
      </trkpt>
      <trkpt lat="45.78056" lon="6.54156">
        <ele>1539</ele>
        <time>2018-05-05T21:39:45Z</time>
      </trkpt>
      <trkpt lat="45.78061" lon="6.54179">
        <ele>1539</ele>
        <time>2018-05-05T21:40:45Z</time>
      </trkpt>
      <trkpt lat="45.78064" lon="6.54203">
        <ele>1541</ele>
        <time>2018-05-05T21:41:45Z</time>
      </trkpt>
      <trkpt lat="45.78065" lon="6.54216">
        <ele>1540</ele>
        <time>2018-05-05T21:42:45Z</time>
      </trkpt>
      <trkpt lat="45.78064" lon="6.54231">
        <ele>1539</ele>
        <time>2018-05-05T21:43:45Z</time>
      </trkpt>
      <trkpt lat="45.78062" lon="6.54245">
        <ele>1538</ele>
        <time>2018-05-05T21:44:45Z</time>
      </trkpt>
      <trkpt lat="45.78057" lon="6.54263">
        <ele>1540</ele>
        <time>2018-05-05T21:45:45Z</time>
      </trkpt>
      <trkpt lat="45.78053" lon="6.54274">
        <ele>1542</ele>
        <time>2018-05-05T21:46:45Z</time>
      </trkpt>
      <trkpt lat="45.7805" lon="6.54287">
        <ele>1543</ele>
        <time>2018-05-05T21:47:45Z</time>
      </trkpt>
      <trkpt lat="45.78049" lon="6.54298">
        <ele>1544</ele>
        <time>2018-05-05T21:48:45Z</time>
      </trkpt>
      <trkpt lat="45.78049" lon="6.54309">
        <ele>1543</ele>
        <time>2018-05-05T21:49:45Z</time>
      </trkpt>
      <trkpt lat="45.7805" lon="6.54322">
        <ele>1543</ele>
        <time>2018-05-05T21:50:45Z</time>
      </trkpt>
      <trkpt lat="45.78053" lon="6.54332">
        <ele>1541</ele>
        <time>2018-05-05T21:51:45Z</time>
      </trkpt>
      <trkpt lat="45.78058" lon="6.5434">
        <ele>1542</ele>
        <time>2018-05-05T21:52:45Z</time>
      </trkpt>
      <trkpt lat="45.78066" lon="6.54346">
        <ele>1540</ele>
        <time>2018-05-05T21:53:45Z</time>
      </trkpt>
      <trkpt lat="45.78075" lon="6.54349">
        <ele>1538</ele>
        <time>2018-05-05T21:54:45Z</time>
      </trkpt>
      <trkpt lat="45.78098" lon="6.54361">
        <ele>1526</ele>
        <time>2018-05-05T21:55:45Z</time>
      </trkpt>
      <trkpt lat="45.78123" lon="6.54377">
        <ele>1524</ele>
        <time>2018-05-05T21:56:45Z</time>
      </trkpt>
      <trkpt lat="45.78137" lon="6.54389">
        <ele>1523</ele>
        <time>2018-05-05T21:57:45Z</time>
      </trkpt>
      <trkpt lat="45.7815" lon="6.54407">
        <ele>1522</ele>
        <time>2018-05-05T21:58:45Z</time>
      </trkpt>
      <trkpt lat="45.7816" lon="6.54425">
        <ele>1523</ele>
        <time>2018-05-05T21:59:45Z</time>
      </trkpt>
      <trkpt lat="45.78167" lon="6.54444">
        <ele>1513</ele>
        <time>2018-05-05T22:00:45Z</time>
      </trkpt>
      <trkpt lat="45.78171" lon="6.54455">
        <ele>1513</ele>
        <time>2018-05-05T22:01:45Z</time>
      </trkpt>
      <trkpt lat="45.78173" lon="6.54477">
        <ele>1515</ele>
        <time>2018-05-05T22:02:45Z</time>
      </trkpt>
      <trkpt lat="45.78175" lon="6.54534">
        <ele>1513</ele>
        <time>2018-05-05T22:03:45Z</time>
      </trkpt>
      <trkpt lat="45.78178" lon="6.5459">
        <ele>1512</ele>
        <time>2018-05-05T22:04:45Z</time>
      </trkpt>
      <trkpt lat="45.7818" lon="6.54627">
        <ele>1508</ele>
        <time>2018-05-05T22:05:45Z</time>
      </trkpt>
      <trkpt lat="45.78181" lon="6.54654">
        <ele>1508</ele>
        <time>2018-05-05T22:06:45Z</time>
      </trkpt>
      <trkpt lat="45.7818" lon="6.54677">
        <ele>1505</ele>
        <time>2018-05-05T22:07:45Z</time>
      </trkpt>
      <trkpt lat="45.78178" lon="6.54692">
        <ele>1503</ele>
        <time>2018-05-05T22:08:45Z</time>
      </trkpt>
      <trkpt lat="45.78175" lon="6.54711">
        <ele>1501</ele>
        <time>2018-05-05T22:09:45Z</time>
      </trkpt>
      <trkpt lat="45.78164" lon="6.54754">
        <ele>1507</ele>
        <time>2018-05-05T22:10:45Z</time>
      </trkpt>
      <trkpt lat="45.78155" lon="6.5478">
        <ele>1511</ele>
        <time>2018-05-05T22:11:45Z</time>
      </trkpt>
      <trkpt lat="45.78152" lon="6.54787">
        <ele>1511</ele>
        <time>2018-05-05T22:12:45Z</time>
      </trkpt>
      <trkpt lat="45.78147" lon="6.54801">
        <ele>1510</ele>
        <time>2018-05-05T22:13:45Z</time>
      </trkpt>
      <trkpt lat="45.78144" lon="6.54807">
        <ele>1509</ele>
        <time>2018-05-05T22:14:45Z</time>
      </trkpt>
      <trkpt lat="45.78141" lon="6.54812">
        <ele>1509</ele>
        <time>2018-05-05T22:15:45Z</time>
      </trkpt>
      <trkpt lat="45.78135" lon="6.54821">
        <ele>1510</ele>
        <time>2018-05-05T22:16:45Z</time>
      </trkpt>
      <trkpt lat="45.7813" lon="6.5483">
        <ele>1510</ele>
        <time>2018-05-05T22:17:45Z</time>
      </trkpt>
      <trkpt lat="45.78124" lon="6.54838">
        <ele>1496</ele>
        <time>2018-05-05T22:18:45Z</time>
      </trkpt>
      <trkpt lat="45.78109" lon="6.5486">
        <ele>1496</ele>
        <time>2018-05-05T22:19:45Z</time>
      </trkpt>
      <trkpt lat="45.78093" lon="6.54883">
        <ele>1492</ele>
        <time>2018-05-05T22:20:45Z</time>
      </trkpt>
      <trkpt lat="45.78076" lon="6.54907">
        <ele>1493</ele>
        <time>2018-05-05T22:21:45Z</time>
      </trkpt>
      <trkpt lat="45.7806" lon="6.54929">
        <ele>1487</ele>
        <time>2018-05-05T22:22:45Z</time>
      </trkpt>
      <trkpt lat="45.78054" lon="6.54937">
        <ele>1488</ele>
        <time>2018-05-05T22:23:45Z</time>
      </trkpt>
      <trkpt lat="45.78048" lon="6.54945">
        <ele>1488</ele>
        <time>2018-05-05T22:24:45Z</time>
      </trkpt>
      <trkpt lat="45.78041" lon="6.54951">
        <ele>1489</ele>
        <time>2018-05-05T22:25:45Z</time>
      </trkpt>
      <trkpt lat="45.78036" lon="6.54956">
        <ele>1489</ele>
        <time>2018-05-05T22:26:45Z</time>
      </trkpt>
      <trkpt lat="45.78031" lon="6.54961">
        <ele>1490</ele>
        <time>2018-05-05T22:27:45Z</time>
      </trkpt>
      <trkpt lat="45.78029" lon="6.54963">
        <ele>1490</ele>
        <time>2018-05-05T22:28:45Z</time>
      </trkpt>
      <trkpt lat="45.78027" lon="6.54965">
        <ele>1490</ele>
        <time>2018-05-05T22:29:45Z</time>
      </trkpt>
      <trkpt lat="45.78019" lon="6.54981">
        <ele>1491</ele>
        <time>2018-05-05T22:30:45Z</time>
      </trkpt>
      <trkpt lat="45.78016" lon="6.54988">
        <ele>1492</ele>
        <time>2018-05-05T22:31:45Z</time>
      </trkpt>
      <trkpt lat="45.78013" lon="6.55">
        <ele>1493</ele>
        <time>2018-05-05T22:32:45Z</time>
      </trkpt>
      <trkpt lat="45.7801" lon="6.55013">
        <ele>1491</ele>
        <time>2018-05-05T22:33:45Z</time>
      </trkpt>
      <trkpt lat="45.78009" lon="6.55025">
        <ele>1489</ele>
        <time>2018-05-05T22:34:45Z</time>
      </trkpt>
      <trkpt lat="45.78009" lon="6.55033">
        <ele>1488</ele>
        <time>2018-05-05T22:35:45Z</time>
      </trkpt>
      <trkpt lat="45.7801" lon="6.55038">
        <ele>1488</ele>
        <time>2018-05-05T22:36:45Z</time>
      </trkpt>
      <trkpt lat="45.78011" lon="6.55046">
        <ele>1488</ele>
        <time>2018-05-05T22:37:45Z</time>
      </trkpt>
      <trkpt lat="45.78012" lon="6.55052">
        <ele>1489</ele>
        <time>2018-05-05T22:38:45Z</time>
      </trkpt>
      <trkpt lat="45.78015" lon="6.5506">
        <ele>1489</ele>
        <time>2018-05-05T22:39:45Z</time>
      </trkpt>
      <trkpt lat="45.78017" lon="6.55068">
        <ele>1490</ele>
        <time>2018-05-05T22:40:45Z</time>
      </trkpt>
      <trkpt lat="45.7802" lon="6.55074">
        <ele>1490</ele>
        <time>2018-05-05T22:41:45Z</time>
      </trkpt>
      <trkpt lat="45.78022" lon="6.5508">
        <ele>1489</ele>
        <time>2018-05-05T22:42:45Z</time>
      </trkpt>
      <trkpt lat="45.78024" lon="6.55086">
        <ele>1487</ele>
        <time>2018-05-05T22:43:45Z</time>
      </trkpt>
      <trkpt lat="45.78025" lon="6.55092">
        <ele>1486</ele>
        <time>2018-05-05T22:44:45Z</time>
      </trkpt>
      <trkpt lat="45.78026" lon="6.55098">
        <ele>1486</ele>
        <time>2018-05-05T22:45:45Z</time>
      </trkpt>
      <trkpt lat="45.78027" lon="6.55104">
        <ele>1485</ele>
        <time>2018-05-05T22:46:45Z</time>
      </trkpt>
      <trkpt lat="45.78028" lon="6.5511">
        <ele>1484</ele>
        <time>2018-05-05T22:47:45Z</time>
      </trkpt>
      <trkpt lat="45.78027" lon="6.55116">
        <ele>1484</ele>
        <time>2018-05-05T22:48:45Z</time>
      </trkpt>
      <trkpt lat="45.78026" lon="6.55126">
        <ele>1483</ele>
        <time>2018-05-05T22:49:45Z</time>
      </trkpt>
      <trkpt lat="45.78023" lon="6.55138">
        <ele>1484</ele>
        <time>2018-05-05T22:50:45Z</time>
      </trkpt>
      <trkpt lat="45.78018" lon="6.55168">
        <ele>1483</ele>
        <time>2018-05-05T22:51:45Z</time>
      </trkpt>
      <trkpt lat="45.78008" lon="6.55206">
        <ele>1479</ele>
        <time>2018-05-05T22:52:45Z</time>
      </trkpt>
      <trkpt lat="45.78" lon="6.55242">
        <ele>1483</ele>
        <time>2018-05-05T22:53:45Z</time>
      </trkpt>
      <trkpt lat="45.77994" lon="6.55263">
        <ele>1493</ele>
        <time>2018-05-05T22:54:45Z</time>
      </trkpt>
      <trkpt lat="45.77991" lon="6.55274">
        <ele>1495</ele>
        <time>2018-05-05T22:55:45Z</time>
      </trkpt>
      <trkpt lat="45.77989" lon="6.55283">
        <ele>1495</ele>
        <time>2018-05-05T22:56:45Z</time>
      </trkpt>
      <trkpt lat="45.77987" lon="6.55294">
        <ele>1495</ele>
        <time>2018-05-05T22:57:45Z</time>
      </trkpt>
      <trkpt lat="45.77986" lon="6.55302">
        <ele>1493</ele>
        <time>2018-05-05T22:58:45Z</time>
      </trkpt>
      <trkpt lat="45.77986" lon="6.55311">
        <ele>1491</ele>
        <time>2018-05-05T22:59:45Z</time>
      </trkpt>
      <trkpt lat="45.77986" lon="6.55319">
        <ele>1488</ele>
        <time>2018-05-05T23:00:45Z</time>
      </trkpt>
      <trkpt lat="45.77987" lon="6.55328">
        <ele>1485</ele>
        <time>2018-05-05T23:01:45Z</time>
      </trkpt>
      <trkpt lat="45.77989" lon="6.5534">
        <ele>1480</ele>
        <time>2018-05-05T23:02:45Z</time>
      </trkpt>
      <trkpt lat="45.77991" lon="6.55361">
        <ele>1483</ele>
        <time>2018-05-05T23:03:45Z</time>
      </trkpt>
      <trkpt lat="45.77992" lon="6.55371">
        <ele>1483</ele>
        <time>2018-05-05T23:04:45Z</time>
      </trkpt>
      <trkpt lat="45.77992" lon="6.55381">
        <ele>1482</ele>
        <time>2018-05-05T23:05:45Z</time>
      </trkpt>
      <trkpt lat="45.77992" lon="6.55391">
        <ele>1481</ele>
        <time>2018-05-05T23:06:45Z</time>
      </trkpt>
      <trkpt lat="45.77991" lon="6.55403">
        <ele>1478</ele>
        <time>2018-05-05T23:07:45Z</time>
      </trkpt>
      <trkpt lat="45.77989" lon="6.55417">
        <ele>1473</ele>
        <time>2018-05-05T23:08:45Z</time>
      </trkpt>
      <trkpt lat="45.77988" lon="6.55429">
        <ele>1474</ele>
        <time>2018-05-05T23:09:45Z</time>
      </trkpt>
      <trkpt lat="45.77986" lon="6.55441">
        <ele>1476</ele>
        <time>2018-05-05T23:10:45Z</time>
      </trkpt>
      <trkpt lat="45.77984" lon="6.55451">
        <ele>1476</ele>
        <time>2018-05-05T23:11:45Z</time>
      </trkpt>
      <trkpt lat="45.77982" lon="6.55463">
        <ele>1475</ele>
        <time>2018-05-05T23:12:45Z</time>
      </trkpt>
      <trkpt lat="45.7798" lon="6.55473">
        <ele>1474</ele>
        <time>2018-05-05T23:13:45Z</time>
      </trkpt>
      <trkpt lat="45.77979" lon="6.55487">
        <ele>1473</ele>
        <time>2018-05-05T23:14:45Z</time>
      </trkpt>
      <trkpt lat="45.77978" lon="6.555">
        <ele>1472</ele>
        <time>2018-05-05T23:15:45Z</time>
      </trkpt>
      <trkpt lat="45.77976" lon="6.5552">
        <ele>1464</ele>
        <time>2018-05-05T23:16:45Z</time>
      </trkpt>
      <trkpt lat="45.77973" lon="6.55537">
        <ele>1463</ele>
        <time>2018-05-05T23:17:45Z</time>
      </trkpt>
      <trkpt lat="45.77972" lon="6.55545">
        <ele>1462</ele>
        <time>2018-05-05T23:18:45Z</time>
      </trkpt>
      <trkpt lat="45.77969" lon="6.55555">
        <ele>1461</ele>
        <time>2018-05-05T23:19:45Z</time>
      </trkpt>
      <trkpt lat="45.77967" lon="6.55564">
        <ele>1460</ele>
        <time>2018-05-05T23:20:45Z</time>
      </trkpt>
      <trkpt lat="45.77963" lon="6.55574">
        <ele>1460</ele>
        <time>2018-05-05T23:21:45Z</time>
      </trkpt>
      <trkpt lat="45.77955" lon="6.5559">
        <ele>1451</ele>
        <time>2018-05-05T23:22:45Z</time>
      </trkpt>
      <trkpt lat="45.77929" lon="6.55641">
        <ele>1449</ele>
        <time>2018-05-05T23:23:45Z</time>
      </trkpt>
      <trkpt lat="45.77898" lon="6.55702">
        <ele>1455</ele>
        <time>2018-05-05T23:24:45Z</time>
      </trkpt>
      <trkpt lat="45.77879" lon="6.55739">
        <ele>1456</ele>
        <time>2018-05-05T23:25:45Z</time>
      </trkpt>
      <trkpt lat="45.77875" lon="6.55748">
        <ele>1457</ele>
        <time>2018-05-05T23:26:45Z</time>
      </trkpt>
      <trkpt lat="45.77872" lon="6.55754">
        <ele>1449</ele>
        <time>2018-05-05T23:27:45Z</time>
      </trkpt>
      <trkpt lat="45.77871" lon="6.55756">
        <ele>1449</ele>
        <time>2018-05-05T23:28:45Z</time>
      </trkpt>
      <trkpt lat="45.77869" lon="6.55761">
        <ele>1449</ele>
        <time>2018-05-05T23:29:45Z</time>
      </trkpt>
      <trkpt lat="45.77866" lon="6.55768">
        <ele>1450</ele>
        <time>2018-05-05T23:30:45Z</time>
      </trkpt>
      <trkpt lat="45.77863" lon="6.55778">
        <ele>1449</ele>
        <time>2018-05-05T23:31:45Z</time>
      </trkpt>
      <trkpt lat="45.7786" lon="6.5579">
        <ele>1448</ele>
        <time>2018-05-05T23:32:45Z</time>
      </trkpt>
      <trkpt lat="45.77852" lon="6.55828">
        <ele>1448</ele>
        <time>2018-05-05T23:33:45Z</time>
      </trkpt>
      <trkpt lat="45.77846" lon="6.55851">
        <ele>1442</ele>
        <time>2018-05-05T23:34:45Z</time>
      </trkpt>
      <trkpt lat="45.77844" lon="6.55857">
        <ele>1441</ele>
        <time>2018-05-05T23:35:45Z</time>
      </trkpt>
      <trkpt lat="45.77844" lon="6.55859">
        <ele>1440</ele>
        <time>2018-05-05T23:36:45Z</time>
      </trkpt>
      <trkpt lat="45.77842" lon="6.55865">
        <ele>1439</ele>
        <time>2018-05-05T23:37:45Z</time>
      </trkpt>
      <trkpt lat="45.77841" lon="6.55873">
        <ele>1438</ele>
        <time>2018-05-05T23:38:45Z</time>
      </trkpt>
      <trkpt lat="45.77838" lon="6.55878">
        <ele>1437</ele>
        <time>2018-05-05T23:39:45Z</time>
      </trkpt>
      <trkpt lat="45.77835" lon="6.55886">
        <ele>1436</ele>
        <time>2018-05-05T23:40:45Z</time>
      </trkpt>
      <trkpt lat="45.77831" lon="6.55894">
        <ele>1448</ele>
        <time>2018-05-05T23:41:45Z</time>
      </trkpt>
      <trkpt lat="45.77828" lon="6.559">
        <ele>1446</ele>
        <time>2018-05-05T23:42:45Z</time>
      </trkpt>
      <trkpt lat="45.77826" lon="6.55905">
        <ele>1444</ele>
        <time>2018-05-05T23:43:45Z</time>
      </trkpt>
      <trkpt lat="45.77823" lon="6.5591">
        <ele>1443</ele>
        <time>2018-05-05T23:44:45Z</time>
      </trkpt>
      <trkpt lat="45.77821" lon="6.55914">
        <ele>1444</ele>
        <time>2018-05-05T23:45:45Z</time>
      </trkpt>
      <trkpt lat="45.7782" lon="6.55917">
        <ele>1438</ele>
        <time>2018-05-05T23:46:45Z</time>
      </trkpt>
      <trkpt lat="45.7782" lon="6.55919">
        <ele>1438</ele>
        <time>2018-05-05T23:47:45Z</time>
      </trkpt>
      <trkpt lat="45.77819" lon="6.55924">
        <ele>1439</ele>
        <time>2018-05-05T23:48:45Z</time>
      </trkpt>
      <trkpt lat="45.77818" lon="6.55929">
        <ele>1440</ele>
        <time>2018-05-05T23:49:45Z</time>
      </trkpt>
      <trkpt lat="45.77818" lon="6.55935">
        <ele>1440</ele>
        <time>2018-05-05T23:50:45Z</time>
      </trkpt>
      <trkpt lat="45.77819" lon="6.55943">
        <ele>1441</ele>
        <time>2018-05-05T23:51:45Z</time>
      </trkpt>
      <trkpt lat="45.7782" lon="6.55947">
        <ele>1441</ele>
        <time>2018-05-05T23:52:45Z</time>
      </trkpt>
      <trkpt lat="45.77822" lon="6.55951">
        <ele>1441</ele>
        <time>2018-05-05T23:53:45Z</time>
      </trkpt>
      <trkpt lat="45.77823" lon="6.55956">
        <ele>1441</ele>
        <time>2018-05-05T23:54:45Z</time>
      </trkpt>
      <trkpt lat="45.77826" lon="6.55961">
        <ele>1441</ele>
        <time>2018-05-05T23:55:45Z</time>
      </trkpt>
      <trkpt lat="45.77829" lon="6.55966">
        <ele>1440</ele>
        <time>2018-05-05T23:56:45Z</time>
      </trkpt>
      <trkpt lat="45.77832" lon="6.55971">
        <ele>1440</ele>
        <time>2018-05-05T23:57:45Z</time>
      </trkpt>
      <trkpt lat="45.77835" lon="6.55975">
        <ele>1436</ele>
        <time>2018-05-05T23:58:45Z</time>
      </trkpt>
      <trkpt lat="45.77839" lon="6.55979">
        <ele>1436</ele>
        <time>2018-05-05T23:59:45Z</time>
      </trkpt>
      <trkpt lat="45.77844" lon="6.55983">
        <ele>1437</ele>
        <time>2018-05-06T00:00:45Z</time>
      </trkpt>
      <trkpt lat="45.77845" lon="6.55984">
        <ele>1437</ele>
        <time>2018-05-06T00:01:45Z</time>
      </trkpt>
      <trkpt lat="45.77852" lon="6.55989">
        <ele>1437</ele>
        <time>2018-05-06T00:02:45Z</time>
      </trkpt>
      <trkpt lat="45.77857" lon="6.55991">
        <ele>1437</ele>
        <time>2018-05-06T00:03:45Z</time>
      </trkpt>
      <trkpt lat="45.77862" lon="6.55994">
        <ele>1437</ele>
        <time>2018-05-06T00:04:45Z</time>
      </trkpt>
      <trkpt lat="45.77868" lon="6.55996">
        <ele>1438</ele>
        <time>2018-05-06T00:05:45Z</time>
      </trkpt>
      <trkpt lat="45.77874" lon="6.55996">
        <ele>1438</ele>
        <time>2018-05-06T00:06:45Z</time>
      </trkpt>
      <trkpt lat="45.7788" lon="6.55996">
        <ele>1439</ele>
        <time>2018-05-06T00:07:45Z</time>
      </trkpt>
      <trkpt lat="45.77887" lon="6.55994">
        <ele>1440</ele>
        <time>2018-05-06T00:08:45Z</time>
      </trkpt>
      <trkpt lat="45.77897" lon="6.55989">
        <ele>1441</ele>
        <time>2018-05-06T00:09:45Z</time>
      </trkpt>
      <trkpt lat="45.77908" lon="6.55985">
        <ele>1442</ele>
        <time>2018-05-06T00:10:45Z</time>
      </trkpt>
      <trkpt lat="45.77932" lon="6.55973">
        <ele>1445</ele>
        <time>2018-05-06T00:11:45Z</time>
      </trkpt>
      <trkpt lat="45.7794" lon="6.55969">
        <ele>1445</ele>
        <time>2018-05-06T00:12:45Z</time>
      </trkpt>
      <trkpt lat="45.77948" lon="6.55963">
        <ele>1445</ele>
        <time>2018-05-06T00:13:45Z</time>
      </trkpt>
      <trkpt lat="45.77956" lon="6.55956">
        <ele>1445</ele>
        <time>2018-05-06T00:14:45Z</time>
      </trkpt>
      <trkpt lat="45.77963" lon="6.55949">
        <ele>1445</ele>
        <time>2018-05-06T00:15:45Z</time>
      </trkpt>
      <trkpt lat="45.77973" lon="6.55938">
        <ele>1444</ele>
        <time>2018-05-06T00:16:45Z</time>
      </trkpt>
      <trkpt lat="45.77992" lon="6.55913">
        <ele>1438</ele>
        <time>2018-05-06T00:17:45Z</time>
      </trkpt>
      <trkpt lat="45.78001" lon="6.55902">
        <ele>1442</ele>
        <time>2018-05-06T00:18:45Z</time>
      </trkpt>
      <trkpt lat="45.78008" lon="6.55892">
        <ele>1443</ele>
        <time>2018-05-06T00:19:45Z</time>
      </trkpt>
      <trkpt lat="45.78014" lon="6.55882">
        <ele>1443</ele>
        <time>2018-05-06T00:20:45Z</time>
      </trkpt>
      <trkpt lat="45.78019" lon="6.55871">
        <ele>1442</ele>
        <time>2018-05-06T00:21:45Z</time>
      </trkpt>
      <trkpt lat="45.7802" lon="6.55869">
        <ele>1442</ele>
        <time>2018-05-06T00:22:45Z</time>
      </trkpt>
      <trkpt lat="45.78028" lon="6.55853">
        <ele>1441</ele>
        <time>2018-05-06T00:23:45Z</time>
      </trkpt>
      <trkpt lat="45.78037" lon="6.55839">
        <ele>1442</ele>
        <time>2018-05-06T00:24:45Z</time>
      </trkpt>
      <trkpt lat="45.78041" lon="6.55833">
        <ele>1436</ele>
        <time>2018-05-06T00:25:45Z</time>
      </trkpt>
      <trkpt lat="45.78045" lon="6.55826">
        <ele>1437</ele>
        <time>2018-05-06T00:26:45Z</time>
      </trkpt>
      <trkpt lat="45.78051" lon="6.55818">
        <ele>1437</ele>
        <time>2018-05-06T00:27:45Z</time>
      </trkpt>
      <trkpt lat="45.78057" lon="6.55812">
        <ele>1437</ele>
        <time>2018-05-06T00:28:45Z</time>
      </trkpt>
      <trkpt lat="45.78064" lon="6.55805">
        <ele>1437</ele>
        <time>2018-05-06T00:29:45Z</time>
      </trkpt>
      <trkpt lat="45.78073" lon="6.55798">
        <ele>1437</ele>
        <time>2018-05-06T00:30:45Z</time>
      </trkpt>
      <trkpt lat="45.78083" lon="6.55791">
        <ele>1437</ele>
        <time>2018-05-06T00:31:45Z</time>
      </trkpt>
      <trkpt lat="45.7809" lon="6.55787">
        <ele>1448</ele>
        <time>2018-05-06T00:32:45Z</time>
      </trkpt>
      <trkpt lat="45.78097" lon="6.55783">
        <ele>1448</ele>
        <time>2018-05-06T00:33:45Z</time>
      </trkpt>
      <trkpt lat="45.78103" lon="6.55779">
        <ele>1448</ele>
        <time>2018-05-06T00:34:45Z</time>
      </trkpt>
      <trkpt lat="45.78108" lon="6.55777">
        <ele>1449</ele>
        <time>2018-05-06T00:35:45Z</time>
      </trkpt>
      <trkpt lat="45.78113" lon="6.55773">
        <ele>1449</ele>
        <time>2018-05-06T00:36:45Z</time>
      </trkpt>
      <trkpt lat="45.78117" lon="6.5577">
        <ele>1449</ele>
        <time>2018-05-06T00:37:45Z</time>
      </trkpt>
      <trkpt lat="45.78118" lon="6.5577">
        <ele>1449</ele>
        <time>2018-05-06T00:38:45Z</time>
      </trkpt>
      <trkpt lat="45.78122" lon="6.55765">
        <ele>1450</ele>
        <time>2018-05-06T00:39:45Z</time>
      </trkpt>
      <trkpt lat="45.78126" lon="6.5576">
        <ele>1450</ele>
        <time>2018-05-06T00:40:45Z</time>
      </trkpt>
      <trkpt lat="45.78128" lon="6.55756">
        <ele>1450</ele>
        <time>2018-05-06T00:41:45Z</time>
      </trkpt>
      <trkpt lat="45.78131" lon="6.55748">
        <ele>1444</ele>
        <time>2018-05-06T00:42:45Z</time>
      </trkpt>
      <trkpt lat="45.78133" lon="6.55741">
        <ele>1444</ele>
        <time>2018-05-06T00:43:45Z</time>
      </trkpt>
      <trkpt lat="45.78135" lon="6.55734">
        <ele>1444</ele>
        <time>2018-05-06T00:44:45Z</time>
      </trkpt>
      <trkpt lat="45.78138" lon="6.55725">
        <ele>1444</ele>
        <time>2018-05-06T00:45:45Z</time>
      </trkpt>
      <trkpt lat="45.78145" lon="6.55705">
        <ele>1443</ele>
        <time>2018-05-06T00:46:45Z</time>
      </trkpt>
      <trkpt lat="45.7815" lon="6.55695">
        <ele>1443</ele>
        <time>2018-05-06T00:47:45Z</time>
      </trkpt>
      <trkpt lat="45.78154" lon="6.55683">
        <ele>1443</ele>
        <time>2018-05-06T00:48:45Z</time>
      </trkpt>
      <trkpt lat="45.78159" lon="6.55673">
        <ele>1443</ele>
        <time>2018-05-06T00:49:45Z</time>
      </trkpt>
      <trkpt lat="45.78165" lon="6.55662">
        <ele>1442</ele>
        <time>2018-05-06T00:50:45Z</time>
      </trkpt>
      <trkpt lat="45.78176" lon="6.55643">
        <ele>1453</ele>
        <time>2018-05-06T00:51:45Z</time>
      </trkpt>
      <trkpt lat="45.78187" lon="6.55624">
        <ele>1454</ele>
        <time>2018-05-06T00:52:45Z</time>
      </trkpt>
      <trkpt lat="45.78192" lon="6.55615">
        <ele>1454</ele>
        <time>2018-05-06T00:53:45Z</time>
      </trkpt>
      <trkpt lat="45.78198" lon="6.55605">
        <ele>1455</ele>
        <time>2018-05-06T00:54:45Z</time>
      </trkpt>
      <trkpt lat="45.78202" lon="6.55594">
        <ele>1455</ele>
        <time>2018-05-06T00:55:45Z</time>
      </trkpt>
      <trkpt lat="45.78209" lon="6.55574">
        <ele>1450</ele>
        <time>2018-05-06T00:56:45Z</time>
      </trkpt>
      <trkpt lat="45.78222" lon="6.55536">
        <ele>1450</ele>
        <time>2018-05-06T00:57:45Z</time>
      </trkpt>
      <trkpt lat="45.78234" lon="6.55501">
        <ele>1453</ele>
        <time>2018-05-06T00:58:45Z</time>
      </trkpt>
      <trkpt lat="45.7824" lon="6.55485">
        <ele>1448</ele>
        <time>2018-05-06T00:59:45Z</time>
      </trkpt>
      <trkpt lat="45.78248" lon="6.55467">
        <ele>1444</ele>
        <time>2018-05-06T01:00:45Z</time>
      </trkpt>
      <trkpt lat="45.78257" lon="6.55447">
        <ele>1462</ele>
        <time>2018-05-06T01:01:45Z</time>
      </trkpt>
      <trkpt lat="45.78264" lon="6.55431">
        <ele>1459</ele>
        <time>2018-05-06T01:02:45Z</time>
      </trkpt>
      <trkpt lat="45.78271" lon="6.55419">
        <ele>1460</ele>
        <time>2018-05-06T01:03:45Z</time>
      </trkpt>
      <trkpt lat="45.7828" lon="6.55404">
        <ele>1454</ele>
        <time>2018-05-06T01:04:45Z</time>
      </trkpt>
      <trkpt lat="45.78296" lon="6.55381">
        <ele>1457</ele>
        <time>2018-05-06T01:05:45Z</time>
      </trkpt>
      <trkpt lat="45.78309" lon="6.55363">
        <ele>1457</ele>
        <time>2018-05-06T01:06:45Z</time>
      </trkpt>
      <trkpt lat="45.78319" lon="6.55347">
        <ele>1457</ele>
        <time>2018-05-06T01:07:45Z</time>
      </trkpt>
      <trkpt lat="45.78328" lon="6.55332">
        <ele>1454</ele>
        <time>2018-05-06T01:08:45Z</time>
      </trkpt>
      <trkpt lat="45.78341" lon="6.55306">
        <ele>1464</ele>
        <time>2018-05-06T01:09:45Z</time>
      </trkpt>
      <trkpt lat="45.78361" lon="6.55271">
        <ele>1463</ele>
        <time>2018-05-06T01:10:45Z</time>
      </trkpt>
      <trkpt lat="45.78384" lon="6.55233">
        <ele>1451</ele>
        <time>2018-05-06T01:11:45Z</time>
      </trkpt>
      <trkpt lat="45.78407" lon="6.55198">
        <ele>1448</ele>
        <time>2018-05-06T01:12:45Z</time>
      </trkpt>
      <trkpt lat="45.78418" lon="6.55184">
        <ele>1462</ele>
        <time>2018-05-06T01:13:45Z</time>
      </trkpt>
      <trkpt lat="45.78423" lon="6.55177">
        <ele>1459</ele>
        <time>2018-05-06T01:14:45Z</time>
      </trkpt>
      <trkpt lat="45.7843" lon="6.55171">
        <ele>1460</ele>
        <time>2018-05-06T01:15:45Z</time>
      </trkpt>
      <trkpt lat="45.78436" lon="6.55163">
        <ele>1451</ele>
        <time>2018-05-06T01:16:45Z</time>
      </trkpt>
      <trkpt lat="45.78443" lon="6.55155">
        <ele>1453</ele>
        <time>2018-05-06T01:17:45Z</time>
      </trkpt>
      <trkpt lat="45.78453" lon="6.55141">
        <ele>1454</ele>
        <time>2018-05-06T01:18:45Z</time>
      </trkpt>
      <trkpt lat="45.78463" lon="6.55127">
        <ele>1454</ele>
        <time>2018-05-06T01:19:45Z</time>
      </trkpt>
      <trkpt lat="45.78469" lon="6.5512">
        <ele>1455</ele>
        <time>2018-05-06T01:20:45Z</time>
      </trkpt>
      <trkpt lat="45.78476" lon="6.55111">
        <ele>1455</ele>
        <time>2018-05-06T01:21:45Z</time>
      </trkpt>
      <trkpt lat="45.78484" lon="6.55104">
        <ele>1456</ele>
        <time>2018-05-06T01:22:45Z</time>
      </trkpt>
      <trkpt lat="45.78494" lon="6.55094">
        <ele>1459</ele>
        <time>2018-05-06T01:23:45Z</time>
      </trkpt>
      <trkpt lat="45.78503" lon="6.55083">
        <ele>1463</ele>
        <time>2018-05-06T01:24:45Z</time>
      </trkpt>
      <trkpt lat="45.7851" lon="6.55075">
        <ele>1466</ele>
        <time>2018-05-06T01:25:45Z</time>
      </trkpt>
      <trkpt lat="45.78516" lon="6.55066">
        <ele>1468</ele>
        <time>2018-05-06T01:26:45Z</time>
      </trkpt>
      <trkpt lat="45.78521" lon="6.55056">
        <ele>1469</ele>
        <time>2018-05-06T01:27:45Z</time>
      </trkpt>
      <trkpt lat="45.78523" lon="6.55051">
        <ele>1469</ele>
        <time>2018-05-06T01:28:45Z</time>
      </trkpt>
      <trkpt lat="45.78528" lon="6.55041">
        <ele>1469</ele>
        <time>2018-05-06T01:29:45Z</time>
      </trkpt>
      <trkpt lat="45.78536" lon="6.55022">
        <ele>1469</ele>
        <time>2018-05-06T01:30:45Z</time>
      </trkpt>
      <trkpt lat="45.78553" lon="6.54978">
        <ele>1461</ele>
        <time>2018-05-06T01:31:45Z</time>
      </trkpt>
      <trkpt lat="45.78565" lon="6.54943">
        <ele>1460</ele>
        <time>2018-05-06T01:32:45Z</time>
      </trkpt>
      <trkpt lat="45.78575" lon="6.54913">
        <ele>1459</ele>
        <time>2018-05-06T01:33:45Z</time>
      </trkpt>
      <trkpt lat="45.7858" lon="6.54896">
        <ele>1451</ele>
        <time>2018-05-06T01:34:45Z</time>
      </trkpt>
      <trkpt lat="45.78581" lon="6.5489">
        <ele>1449</ele>
        <time>2018-05-06T01:35:45Z</time>
      </trkpt>
      <trkpt lat="45.78584" lon="6.54882">
        <ele>1472</ele>
        <time>2018-05-06T01:36:45Z</time>
      </trkpt>
      <trkpt lat="45.78587" lon="6.54876">
        <ele>1472</ele>
        <time>2018-05-06T01:37:45Z</time>
      </trkpt>
      <trkpt lat="45.7859" lon="6.54867">
        <ele>1470</ele>
        <time>2018-05-06T01:38:45Z</time>
      </trkpt>
      <trkpt lat="45.78595" lon="6.54859">
        <ele>1468</ele>
        <time>2018-05-06T01:39:45Z</time>
      </trkpt>
      <trkpt lat="45.78605" lon="6.54843">
        <ele>1467</ele>
        <time>2018-05-06T01:40:45Z</time>
      </trkpt>
      <trkpt lat="45.78619" lon="6.54817">
        <ele>1458</ele>
        <time>2018-05-06T01:41:45Z</time>
      </trkpt>
      <trkpt lat="45.78628" lon="6.548">
        <ele>1458</ele>
        <time>2018-05-06T01:42:45Z</time>
      </trkpt>
      <trkpt lat="45.78632" lon="6.54792">
        <ele>1458</ele>
        <time>2018-05-06T01:43:45Z</time>
      </trkpt>
      <trkpt lat="45.78632" lon="6.54791">
        <ele>1458</ele>
        <time>2018-05-06T01:44:45Z</time>
      </trkpt>
      <trkpt lat="45.78642" lon="6.54772">
        <ele>1458</ele>
        <time>2018-05-06T01:45:45Z</time>
      </trkpt>
      <trkpt lat="45.78649" lon="6.54759">
        <ele>1460</ele>
        <time>2018-05-06T01:46:45Z</time>
      </trkpt>
      <trkpt lat="45.78656" lon="6.54748">
        <ele>1455</ele>
        <time>2018-05-06T01:47:45Z</time>
      </trkpt>
      <trkpt lat="45.7866" lon="6.5474">
        <ele>1455</ele>
        <time>2018-05-06T01:48:45Z</time>
      </trkpt>
      <trkpt lat="45.78663" lon="6.54735">
        <ele>1453</ele>
        <time>2018-05-06T01:49:45Z</time>
      </trkpt>
      <trkpt lat="45.78667" lon="6.5473">
        <ele>1463</ele>
        <time>2018-05-06T01:50:45Z</time>
      </trkpt>
      <trkpt lat="45.78672" lon="6.54724">
        <ele>1463</ele>
        <time>2018-05-06T01:51:45Z</time>
      </trkpt>
      <trkpt lat="45.78679" lon="6.54719">
        <ele>1463</ele>
        <time>2018-05-06T01:52:45Z</time>
      </trkpt>
      <trkpt lat="45.78687" lon="6.54714">
        <ele>1463</ele>
        <time>2018-05-06T01:53:45Z</time>
      </trkpt>
      <trkpt lat="45.787" lon="6.54708">
        <ele>1463</ele>
        <time>2018-05-06T01:54:45Z</time>
      </trkpt>
      <trkpt lat="45.78715" lon="6.54703">
        <ele>1464</ele>
        <time>2018-05-06T01:55:45Z</time>
      </trkpt>
      <trkpt lat="45.78727" lon="6.54699">
        <ele>1464</ele>
        <time>2018-05-06T01:56:45Z</time>
      </trkpt>
      <trkpt lat="45.78736" lon="6.54697">
        <ele>1465</ele>
        <time>2018-05-06T01:57:45Z</time>
      </trkpt>
      <trkpt lat="45.78746" lon="6.54697">
        <ele>1465</ele>
        <time>2018-05-06T01:58:45Z</time>
      </trkpt>
      <trkpt lat="45.78765" lon="6.54697">
        <ele>1468</ele>
        <time>2018-05-06T01:59:45Z</time>
      </trkpt>
      <trkpt lat="45.7879" lon="6.54696">
        <ele>1468</ele>
        <time>2018-05-06T02:00:45Z</time>
      </trkpt>
      <trkpt lat="45.78805" lon="6.54695">
        <ele>1468</ele>
        <time>2018-05-06T02:01:45Z</time>
      </trkpt>
      <trkpt lat="45.78828" lon="6.54694">
        <ele>1467</ele>
        <time>2018-05-06T02:02:45Z</time>
      </trkpt>
      <trkpt lat="45.78843" lon="6.54694">
        <ele>1467</ele>
        <time>2018-05-06T02:03:45Z</time>
      </trkpt>
      <trkpt lat="45.78851" lon="6.54694">
        <ele>1467</ele>
        <time>2018-05-06T02:04:45Z</time>
      </trkpt>
      <trkpt lat="45.78861" lon="6.54694">
        <ele>1468</ele>
        <time>2018-05-06T02:05:45Z</time>
      </trkpt>
      <trkpt lat="45.78868" lon="6.54693">
        <ele>1468</ele>
        <time>2018-05-06T02:06:45Z</time>
      </trkpt>
      <trkpt lat="45.78876" lon="6.5469">
        <ele>1468</ele>
        <time>2018-05-06T02:07:45Z</time>
      </trkpt>
      <trkpt lat="45.78886" lon="6.54687">
        <ele>1467</ele>
        <time>2018-05-06T02:08:45Z</time>
      </trkpt>
      <trkpt lat="45.789" lon="6.54681">
        <ele>1466</ele>
        <time>2018-05-06T02:09:45Z</time>
      </trkpt>
      <trkpt lat="45.78912" lon="6.54673">
        <ele>1464</ele>
        <time>2018-05-06T02:10:45Z</time>
      </trkpt>
      <trkpt lat="45.78922" lon="6.54666">
        <ele>1462</ele>
        <time>2018-05-06T02:11:45Z</time>
      </trkpt>
      <trkpt lat="45.78927" lon="6.54659">
        <ele>1463</ele>
        <time>2018-05-06T02:12:45Z</time>
      </trkpt>
      <trkpt lat="45.78932" lon="6.54652">
        <ele>1463</ele>
        <time>2018-05-06T02:13:45Z</time>
      </trkpt>
      <trkpt lat="45.78938" lon="6.54641">
        <ele>1463</ele>
        <time>2018-05-06T02:14:45Z</time>
      </trkpt>
      <trkpt lat="45.7894" lon="6.54636">
        <ele>1463</ele>
        <time>2018-05-06T02:15:45Z</time>
      </trkpt>
      <trkpt lat="45.78945" lon="6.54625">
        <ele>1462</ele>
        <time>2018-05-06T02:16:45Z</time>
      </trkpt>
      <trkpt lat="45.78956" lon="6.54605">
        <ele>1462</ele>
        <time>2018-05-06T02:17:45Z</time>
      </trkpt>
      <trkpt lat="45.78969" lon="6.54577">
        <ele>1455</ele>
        <time>2018-05-06T02:18:45Z</time>
      </trkpt>
      <trkpt lat="45.78973" lon="6.5457">
        <ele>1455</ele>
        <time>2018-05-06T02:19:45Z</time>
      </trkpt>
      <trkpt lat="45.78978" lon="6.54559">
        <ele>1455</ele>
        <time>2018-05-06T02:20:45Z</time>
      </trkpt>
      <trkpt lat="45.78984" lon="6.54548">
        <ele>1454</ele>
        <time>2018-05-06T02:21:45Z</time>
      </trkpt>
      <trkpt lat="45.78989" lon="6.54542">
        <ele>1453</ele>
        <time>2018-05-06T02:22:45Z</time>
      </trkpt>
      <trkpt lat="45.78997" lon="6.54531">
        <ele>1453</ele>
        <time>2018-05-06T02:23:45Z</time>
      </trkpt>
      <trkpt lat="45.7901" lon="6.54517">
        <ele>1456</ele>
        <time>2018-05-06T02:24:45Z</time>
      </trkpt>
      <trkpt lat="45.79017" lon="6.5451">
        <ele>1456</ele>
        <time>2018-05-06T02:25:45Z</time>
      </trkpt>
      <trkpt lat="45.79032" lon="6.54496">
        <ele>1448</ele>
        <time>2018-05-06T02:26:45Z</time>
      </trkpt>
      <trkpt lat="45.79037" lon="6.54491">
        <ele>1448</ele>
        <time>2018-05-06T02:27:45Z</time>
      </trkpt>
      <trkpt lat="45.79043" lon="6.54487">
        <ele>1448</ele>
        <time>2018-05-06T02:28:45Z</time>
      </trkpt>
      <trkpt lat="45.79049" lon="6.54484">
        <ele>1448</ele>
        <time>2018-05-06T02:29:45Z</time>
      </trkpt>
      <trkpt lat="45.79056" lon="6.54482">
        <ele>1448</ele>
        <time>2018-05-06T02:30:45Z</time>
      </trkpt>
      <trkpt lat="45.79064" lon="6.54479">
        <ele>1449</ele>
        <time>2018-05-06T02:31:45Z</time>
      </trkpt>
      <trkpt lat="45.79086" lon="6.54472">
        <ele>1450</ele>
        <time>2018-05-06T02:32:45Z</time>
      </trkpt>
      <trkpt lat="45.79108" lon="6.54465">
        <ele>1449</ele>
        <time>2018-05-06T02:33:45Z</time>
      </trkpt>
      <trkpt lat="45.7912" lon="6.54461">
        <ele>1449</ele>
        <time>2018-05-06T02:34:45Z</time>
      </trkpt>
      <trkpt lat="45.79137" lon="6.54454">
        <ele>1448</ele>
        <time>2018-05-06T02:35:45Z</time>
      </trkpt>
      <trkpt lat="45.79153" lon="6.54448">
        <ele>1447</ele>
        <time>2018-05-06T02:36:45Z</time>
      </trkpt>
      <trkpt lat="45.7916" lon="6.54444">
        <ele>1446</ele>
        <time>2018-05-06T02:37:45Z</time>
      </trkpt>
      <trkpt lat="45.7917" lon="6.54439">
        <ele>1448</ele>
        <time>2018-05-06T02:38:45Z</time>
      </trkpt>
      <trkpt lat="45.79202" lon="6.54415">
        <ele>1436</ele>
        <time>2018-05-06T02:39:45Z</time>
      </trkpt>
      <trkpt lat="45.79214" lon="6.54406">
        <ele>1435</ele>
        <time>2018-05-06T02:40:45Z</time>
      </trkpt>
      <trkpt lat="45.79229" lon="6.54392">
        <ele>1435</ele>
        <time>2018-05-06T02:41:45Z</time>
      </trkpt>
      <trkpt lat="45.79243" lon="6.54376">
        <ele>1433</ele>
        <time>2018-05-06T02:42:45Z</time>
      </trkpt>
      <trkpt lat="45.79258" lon="6.54358">
        <ele>1433</ele>
        <time>2018-05-06T02:43:45Z</time>
      </trkpt>
      <trkpt lat="45.79268" lon="6.54345">
        <ele>1432</ele>
        <time>2018-05-06T02:44:45Z</time>
      </trkpt>
      <trkpt lat="45.79274" lon="6.5434">
        <ele>1433</ele>
        <time>2018-05-06T02:45:45Z</time>
      </trkpt>
      <trkpt lat="45.79279" lon="6.54336">
        <ele>1433</ele>
        <time>2018-05-06T02:46:45Z</time>
      </trkpt>
      <trkpt lat="45.79288" lon="6.54329">
        <ele>1424</ele>
        <time>2018-05-06T02:47:45Z</time>
      </trkpt>
      <trkpt lat="45.79299" lon="6.54325">
        <ele>1425</ele>
        <time>2018-05-06T02:48:45Z</time>
      </trkpt>
      <trkpt lat="45.79314" lon="6.54318">
        <ele>1426</ele>
        <time>2018-05-06T02:49:45Z</time>
      </trkpt>
      <trkpt lat="45.79329" lon="6.54313">
        <ele>1427</ele>
        <time>2018-05-06T02:50:45Z</time>
      </trkpt>
      <trkpt lat="45.79342" lon="6.54306">
        <ele>1430</ele>
        <time>2018-05-06T02:51:45Z</time>
      </trkpt>
      <trkpt lat="45.7935" lon="6.54299">
        <ele>1430</ele>
        <time>2018-05-06T02:52:45Z</time>
      </trkpt>
      <trkpt lat="45.79359" lon="6.54288">
        <ele>1429</ele>
        <time>2018-05-06T02:53:45Z</time>
      </trkpt>
      <trkpt lat="45.79366" lon="6.5428">
        <ele>1428</ele>
        <time>2018-05-06T02:54:45Z</time>
      </trkpt>
      <trkpt lat="45.7937" lon="6.54275">
        <ele>1428</ele>
        <time>2018-05-06T02:55:45Z</time>
      </trkpt>
      <trkpt lat="45.79374" lon="6.54271">
        <ele>1428</ele>
        <time>2018-05-06T02:56:45Z</time>
      </trkpt>
      <trkpt lat="45.79385" lon="6.54262">
        <ele>1428</ele>
        <time>2018-05-06T02:57:45Z</time>
      </trkpt>
      <trkpt lat="45.79396" lon="6.5426">
        <ele>1427</ele>
        <time>2018-05-06T02:58:45Z</time>
      </trkpt>
      <trkpt lat="45.79406" lon="6.54254">
        <ele>1426</ele>
        <time>2018-05-06T02:59:45Z</time>
      </trkpt>
      <trkpt lat="45.79421" lon="6.54247">
        <ele>1422</ele>
        <time>2018-05-06T03:00:45Z</time>
      </trkpt>
      <trkpt lat="45.79428" lon="6.5424">
        <ele>1419</ele>
        <time>2018-05-06T03:01:45Z</time>
      </trkpt>
      <trkpt lat="45.79436" lon="6.54234">
        <ele>1417</ele>
        <time>2018-05-06T03:02:45Z</time>
      </trkpt>
      <trkpt lat="45.79443" lon="6.54225">
        <ele>1416</ele>
        <time>2018-05-06T03:03:45Z</time>
      </trkpt>
      <trkpt lat="45.7945" lon="6.54218">
        <ele>1415</ele>
        <time>2018-05-06T03:04:45Z</time>
      </trkpt>
      <trkpt lat="45.79463" lon="6.54208">
        <ele>1413</ele>
        <time>2018-05-06T03:05:45Z</time>
      </trkpt>
      <trkpt lat="45.79475" lon="6.54201">
        <ele>1412</ele>
        <time>2018-05-06T03:06:45Z</time>
      </trkpt>
      <trkpt lat="45.79486" lon="6.54194">
        <ele>1411</ele>
        <time>2018-05-06T03:07:45Z</time>
      </trkpt>
      <trkpt lat="45.79501" lon="6.54186">
        <ele>1409</ele>
        <time>2018-05-06T03:08:45Z</time>
      </trkpt>
      <trkpt lat="45.79514" lon="6.54178">
        <ele>1409</ele>
        <time>2018-05-06T03:09:45Z</time>
      </trkpt>
      <trkpt lat="45.79529" lon="6.5417">
        <ele>1410</ele>
        <time>2018-05-06T03:10:45Z</time>
      </trkpt>
      <trkpt lat="45.79539" lon="6.5416">
        <ele>1403</ele>
        <time>2018-05-06T03:11:45Z</time>
      </trkpt>
      <trkpt lat="45.79544" lon="6.54154">
        <ele>1402</ele>
        <time>2018-05-06T03:12:45Z</time>
      </trkpt>
      <trkpt lat="45.79554" lon="6.54139">
        <ele>1402</ele>
        <time>2018-05-06T03:13:45Z</time>
      </trkpt>
      <trkpt lat="45.79558" lon="6.54134">
        <ele>1402</ele>
        <time>2018-05-06T03:14:45Z</time>
      </trkpt>
      <trkpt lat="45.79566" lon="6.54123">
        <ele>1401</ele>
        <time>2018-05-06T03:15:45Z</time>
      </trkpt>
      <trkpt lat="45.79577" lon="6.54109">
        <ele>1401</ele>
        <time>2018-05-06T03:16:45Z</time>
      </trkpt>
      <trkpt lat="45.79584" lon="6.54103">
        <ele>1401</ele>
        <time>2018-05-06T03:17:45Z</time>
      </trkpt>
      <trkpt lat="45.79591" lon="6.54098">
        <ele>1401</ele>
        <time>2018-05-06T03:18:45Z</time>
      </trkpt>
      <trkpt lat="45.79595" lon="6.54095">
        <ele>1401</ele>
        <time>2018-05-06T03:19:45Z</time>
      </trkpt>
      <trkpt lat="45.79601" lon="6.54092">
        <ele>1401</ele>
        <time>2018-05-06T03:20:45Z</time>
      </trkpt>
      <trkpt lat="45.79608" lon="6.5409">
        <ele>1401</ele>
        <time>2018-05-06T03:21:45Z</time>
      </trkpt>
      <trkpt lat="45.7962" lon="6.54088">
        <ele>1401</ele>
        <time>2018-05-06T03:22:45Z</time>
      </trkpt>
      <trkpt lat="45.79631" lon="6.54087">
        <ele>1401</ele>
        <time>2018-05-06T03:23:45Z</time>
      </trkpt>
      <trkpt lat="45.79642" lon="6.54088">
        <ele>1401</ele>
        <time>2018-05-06T03:24:45Z</time>
      </trkpt>
      <trkpt lat="45.79643" lon="6.54089">
        <ele>1401</ele>
        <time>2018-05-06T03:25:45Z</time>
      </trkpt>
      <trkpt lat="45.79651" lon="6.54089">
        <ele>1400</ele>
        <time>2018-05-06T03:26:45Z</time>
      </trkpt>
      <trkpt lat="45.79659" lon="6.54091">
        <ele>1400</ele>
        <time>2018-05-06T03:27:45Z</time>
      </trkpt>
      <trkpt lat="45.79666" lon="6.54093">
        <ele>1400</ele>
        <time>2018-05-06T03:28:45Z</time>
      </trkpt>
      <trkpt lat="45.79671" lon="6.54094">
        <ele>1397</ele>
        <time>2018-05-06T03:29:45Z</time>
      </trkpt>
      <trkpt lat="45.79678" lon="6.54097">
        <ele>1396</ele>
        <time>2018-05-06T03:30:45Z</time>
      </trkpt>
      <trkpt lat="45.79693" lon="6.54108">
        <ele>1394</ele>
        <time>2018-05-06T03:31:45Z</time>
      </trkpt>
      <trkpt lat="45.79708" lon="6.5412">
        <ele>1392</ele>
        <time>2018-05-06T03:32:45Z</time>
      </trkpt>
      <trkpt lat="45.79732" lon="6.54139">
        <ele>1391</ele>
        <time>2018-05-06T03:33:45Z</time>
      </trkpt>
      <trkpt lat="45.79743" lon="6.54149">
        <ele>1390</ele>
        <time>2018-05-06T03:34:45Z</time>
      </trkpt>
      <trkpt lat="45.7975" lon="6.54159">
        <ele>1389</ele>
        <time>2018-05-06T03:35:45Z</time>
      </trkpt>
      <trkpt lat="45.79757" lon="6.5417">
        <ele>1385</ele>
        <time>2018-05-06T03:36:45Z</time>
      </trkpt>
      <trkpt lat="45.79761" lon="6.54182">
        <ele>1383</ele>
        <time>2018-05-06T03:37:45Z</time>
      </trkpt>
      <trkpt lat="45.79765" lon="6.54194">
        <ele>1382</ele>
        <time>2018-05-06T03:38:45Z</time>
      </trkpt>
      <trkpt lat="45.79783" lon="6.54237">
        <ele>1380</ele>
        <time>2018-05-06T03:39:45Z</time>
      </trkpt>
      <trkpt lat="45.798" lon="6.54254">
        <ele>1381</ele>
        <time>2018-05-06T03:40:45Z</time>
      </trkpt>
      <trkpt lat="45.79817" lon="6.54271">
        <ele>1379</ele>
        <time>2018-05-06T03:41:45Z</time>
      </trkpt>
      <trkpt lat="45.79834" lon="6.54286">
        <ele>1368</ele>
        <time>2018-05-06T03:42:45Z</time>
      </trkpt>
      <trkpt lat="45.79853" lon="6.54308">
        <ele>1368</ele>
        <time>2018-05-06T03:43:45Z</time>
      </trkpt>
      <trkpt lat="45.79872" lon="6.54332">
        <ele>1367</ele>
        <time>2018-05-06T03:44:45Z</time>
      </trkpt>
      <trkpt lat="45.79897" lon="6.5436">
        <ele>1370</ele>
        <time>2018-05-06T03:45:45Z</time>
      </trkpt>
      <trkpt lat="45.79903" lon="6.54366">
        <ele>1370</ele>
        <time>2018-05-06T03:46:45Z</time>
      </trkpt>
      <trkpt lat="45.7992" lon="6.54385">
        <ele>1358</ele>
        <time>2018-05-06T03:47:45Z</time>
      </trkpt>
      <trkpt lat="45.79941" lon="6.54412">
        <ele>1358</ele>
        <time>2018-05-06T03:48:45Z</time>
      </trkpt>
      <trkpt lat="45.79965" lon="6.5444">
        <ele>1360</ele>
        <time>2018-05-06T03:49:45Z</time>
      </trkpt>
      <trkpt lat="45.79984" lon="6.5446">
        <ele>1359</ele>
        <time>2018-05-06T03:50:45Z</time>
      </trkpt>
      <trkpt lat="45.79991" lon="6.54469">
        <ele>1359</ele>
        <time>2018-05-06T03:51:45Z</time>
      </trkpt>
      <trkpt lat="45.80009" lon="6.54494">
        <ele>1349</ele>
        <time>2018-05-06T03:52:45Z</time>
      </trkpt>
      <trkpt lat="45.80043" lon="6.54544">
        <ele>1349</ele>
        <time>2018-05-06T03:53:45Z</time>
      </trkpt>
      <trkpt lat="45.80066" lon="6.54576">
        <ele>1346</ele>
        <time>2018-05-06T03:54:45Z</time>
      </trkpt>
      <trkpt lat="45.80073" lon="6.54589">
        <ele>1348</ele>
        <time>2018-05-06T03:55:45Z</time>
      </trkpt>
      <trkpt lat="45.80078" lon="6.54599">
        <ele>1350</ele>
        <time>2018-05-06T03:56:45Z</time>
      </trkpt>
      <trkpt lat="45.80084" lon="6.54611">
        <ele>1339</ele>
        <time>2018-05-06T03:57:45Z</time>
      </trkpt>
      <trkpt lat="45.80089" lon="6.54624">
        <ele>1339</ele>
        <time>2018-05-06T03:58:45Z</time>
      </trkpt>
      <trkpt lat="45.80094" lon="6.54633">
        <ele>1339</ele>
        <time>2018-05-06T03:59:45Z</time>
      </trkpt>
      <trkpt lat="45.80098" lon="6.54641">
        <ele>1340</ele>
        <time>2018-05-06T04:00:45Z</time>
      </trkpt>
      <trkpt lat="45.80104" lon="6.5465">
        <ele>1340</ele>
        <time>2018-05-06T04:01:45Z</time>
      </trkpt>
      <trkpt lat="45.8011" lon="6.54658">
        <ele>1340</ele>
        <time>2018-05-06T04:02:45Z</time>
      </trkpt>
      <trkpt lat="45.80118" lon="6.5467">
        <ele>1343</ele>
        <time>2018-05-06T04:03:45Z</time>
      </trkpt>
      <trkpt lat="45.80137" lon="6.54689">
        <ele>1340</ele>
        <time>2018-05-06T04:04:45Z</time>
      </trkpt>
      <trkpt lat="45.80166" lon="6.54718">
        <ele>1340</ele>
        <time>2018-05-06T04:05:45Z</time>
      </trkpt>
      <trkpt lat="45.80181" lon="6.54733">
        <ele>1330</ele>
        <time>2018-05-06T04:06:45Z</time>
      </trkpt>
      <trkpt lat="45.8019" lon="6.54742">
        <ele>1329</ele>
        <time>2018-05-06T04:07:45Z</time>
      </trkpt>
      <trkpt lat="45.80198" lon="6.54754">
        <ele>1333</ele>
        <time>2018-05-06T04:08:45Z</time>
      </trkpt>
      <trkpt lat="45.80211" lon="6.54772">
        <ele>1331</ele>
        <time>2018-05-06T04:09:45Z</time>
      </trkpt>
      <trkpt lat="45.80225" lon="6.5479">
        <ele>1330</ele>
        <time>2018-05-06T04:10:45Z</time>
      </trkpt>
      <trkpt lat="45.80242" lon="6.54808">
        <ele>1329</ele>
        <time>2018-05-06T04:11:45Z</time>
      </trkpt>
      <trkpt lat="45.80257" lon="6.54823">
        <ele>1322</ele>
        <time>2018-05-06T04:12:45Z</time>
      </trkpt>
      <trkpt lat="45.80279" lon="6.54842">
        <ele>1323</ele>
        <time>2018-05-06T04:13:45Z</time>
      </trkpt>
      <trkpt lat="45.803" lon="6.54862">
        <ele>1322</ele>
        <time>2018-05-06T04:14:45Z</time>
      </trkpt>
      <trkpt lat="45.80318" lon="6.54883">
        <ele>1321</ele>
        <time>2018-05-06T04:15:45Z</time>
      </trkpt>
      <trkpt lat="45.80322" lon="6.54887">
        <ele>1321</ele>
        <time>2018-05-06T04:16:45Z</time>
      </trkpt>
      <trkpt lat="45.80324" lon="6.5489">
        <ele>1321</ele>
        <time>2018-05-06T04:17:45Z</time>
      </trkpt>
      <trkpt lat="45.80335" lon="6.54902">
        <ele>1316</ele>
        <time>2018-05-06T04:18:45Z</time>
      </trkpt>
      <trkpt lat="45.80345" lon="6.54915">
        <ele>1316</ele>
        <time>2018-05-06T04:19:45Z</time>
      </trkpt>
      <trkpt lat="45.80354" lon="6.54926">
        <ele>1317</ele>
        <time>2018-05-06T04:20:45Z</time>
      </trkpt>
      <trkpt lat="45.80359" lon="6.54936">
        <ele>1316</ele>
        <time>2018-05-06T04:21:45Z</time>
      </trkpt>
      <trkpt lat="45.80364" lon="6.54945">
        <ele>1316</ele>
        <time>2018-05-06T04:22:45Z</time>
      </trkpt>
      <trkpt lat="45.80367" lon="6.54953">
        <ele>1316</ele>
        <time>2018-05-06T04:23:45Z</time>
      </trkpt>
      <trkpt lat="45.80371" lon="6.54964">
        <ele>1316</ele>
        <time>2018-05-06T04:24:45Z</time>
      </trkpt>
      <trkpt lat="45.80374" lon="6.54973">
        <ele>1316</ele>
        <time>2018-05-06T04:25:45Z</time>
      </trkpt>
      <trkpt lat="45.80376" lon="6.5498">
        <ele>1316</ele>
        <time>2018-05-06T04:26:45Z</time>
      </trkpt>
      <trkpt lat="45.80378" lon="6.54989">
        <ele>1316</ele>
        <time>2018-05-06T04:27:45Z</time>
      </trkpt>
      <trkpt lat="45.8038" lon="6.54999">
        <ele>1315</ele>
        <time>2018-05-06T04:28:45Z</time>
      </trkpt>
      <trkpt lat="45.8038" lon="6.55008">
        <ele>1318</ele>
        <time>2018-05-06T04:29:45Z</time>
      </trkpt>
      <trkpt lat="45.80381" lon="6.55018">
        <ele>1318</ele>
        <time>2018-05-06T04:30:45Z</time>
      </trkpt>
      <trkpt lat="45.80382" lon="6.55024">
        <ele>1318</ele>
        <time>2018-05-06T04:31:45Z</time>
      </trkpt>
      <trkpt lat="45.80385" lon="6.5503">
        <ele>1318</ele>
        <time>2018-05-06T04:32:45Z</time>
      </trkpt>
      <trkpt lat="45.80389" lon="6.55037">
        <ele>1318</ele>
        <time>2018-05-06T04:33:45Z</time>
      </trkpt>
      <trkpt lat="45.80393" lon="6.55041">
        <ele>1318</ele>
        <time>2018-05-06T04:34:45Z</time>
      </trkpt>
      <trkpt lat="45.80396" lon="6.55043">
        <ele>1317</ele>
        <time>2018-05-06T04:35:45Z</time>
      </trkpt>
      <trkpt lat="45.80397" lon="6.55044">
        <ele>1317</ele>
        <time>2018-05-06T04:36:45Z</time>
      </trkpt>
      <trkpt lat="45.80401" lon="6.55045">
        <ele>1317</ele>
        <time>2018-05-06T04:37:45Z</time>
      </trkpt>
      <trkpt lat="45.80406" lon="6.55046">
        <ele>1317</ele>
        <time>2018-05-06T04:38:45Z</time>
      </trkpt>
      <trkpt lat="45.8041" lon="6.55046">
        <ele>1317</ele>
        <time>2018-05-06T04:39:45Z</time>
      </trkpt>
      <trkpt lat="45.80417" lon="6.55046">
        <ele>1314</ele>
        <time>2018-05-06T04:40:45Z</time>
      </trkpt>
      <trkpt lat="45.80421" lon="6.55044">
        <ele>1314</ele>
        <time>2018-05-06T04:41:45Z</time>
      </trkpt>
      <trkpt lat="45.80426" lon="6.55041">
        <ele>1314</ele>
        <time>2018-05-06T04:42:45Z</time>
      </trkpt>
      <trkpt lat="45.80428" lon="6.55039">
        <ele>1314</ele>
        <time>2018-05-06T04:43:45Z</time>
      </trkpt>
      <trkpt lat="45.80432" lon="6.55034">
        <ele>1314</ele>
        <time>2018-05-06T04:44:45Z</time>
      </trkpt>
      <trkpt lat="45.80435" lon="6.55028">
        <ele>1314</ele>
        <time>2018-05-06T04:45:45Z</time>
      </trkpt>
      <trkpt lat="45.80437" lon="6.55024">
        <ele>1314</ele>
        <time>2018-05-06T04:46:45Z</time>
      </trkpt>
      <trkpt lat="45.80439" lon="6.55019">
        <ele>1314</ele>
        <time>2018-05-06T04:47:45Z</time>
      </trkpt>
      <trkpt lat="45.8044" lon="6.55015">
        <ele>1314</ele>
        <time>2018-05-06T04:48:45Z</time>
      </trkpt>
      <trkpt lat="45.80441" lon="6.5501">
        <ele>1314</ele>
        <time>2018-05-06T04:49:45Z</time>
      </trkpt>
      <trkpt lat="45.80441" lon="6.55004">
        <ele>1314</ele>
        <time>2018-05-06T04:50:45Z</time>
      </trkpt>
      <trkpt lat="45.80441" lon="6.54999">
        <ele>1313</ele>
        <time>2018-05-06T04:51:45Z</time>
      </trkpt>
      <trkpt lat="45.80441" lon="6.54993">
        <ele>1313</ele>
        <time>2018-05-06T04:52:45Z</time>
      </trkpt>
      <trkpt lat="45.8044" lon="6.54986">
        <ele>1313</ele>
        <time>2018-05-06T04:53:45Z</time>
      </trkpt>
      <trkpt lat="45.8044" lon="6.54979">
        <ele>1313</ele>
        <time>2018-05-06T04:54:45Z</time>
      </trkpt>
      <trkpt lat="45.80439" lon="6.54972">
        <ele>1313</ele>
        <time>2018-05-06T04:55:45Z</time>
      </trkpt>
      <trkpt lat="45.80438" lon="6.54962">
        <ele>1313</ele>
        <time>2018-05-06T04:56:45Z</time>
      </trkpt>
      <trkpt lat="45.80436" lon="6.54953">
        <ele>1313</ele>
        <time>2018-05-06T04:57:45Z</time>
      </trkpt>
      <trkpt lat="45.80436" lon="6.54945">
        <ele>1312</ele>
        <time>2018-05-06T04:58:45Z</time>
      </trkpt>
      <trkpt lat="45.80436" lon="6.54937">
        <ele>1312</ele>
        <time>2018-05-06T04:59:45Z</time>
      </trkpt>
      <trkpt lat="45.80437" lon="6.54929">
        <ele>1312</ele>
        <time>2018-05-06T05:00:45Z</time>
      </trkpt>
      <trkpt lat="45.80437" lon="6.54921">
        <ele>1311</ele>
        <time>2018-05-06T05:01:45Z</time>
      </trkpt>
      <trkpt lat="45.80439" lon="6.54913">
        <ele>1309</ele>
        <time>2018-05-06T05:02:45Z</time>
      </trkpt>
      <trkpt lat="45.80441" lon="6.54908">
        <ele>1309</ele>
        <time>2018-05-06T05:03:45Z</time>
      </trkpt>
      <trkpt lat="45.80444" lon="6.54901">
        <ele>1309</ele>
        <time>2018-05-06T05:04:45Z</time>
      </trkpt>
      <trkpt lat="45.80446" lon="6.54897">
        <ele>1309</ele>
        <time>2018-05-06T05:05:45Z</time>
      </trkpt>
      <trkpt lat="45.80449" lon="6.54892">
        <ele>1309</ele>
        <time>2018-05-06T05:06:45Z</time>
      </trkpt>
      <trkpt lat="45.80452" lon="6.54886">
        <ele>1308</ele>
        <time>2018-05-06T05:07:45Z</time>
      </trkpt>
      <trkpt lat="45.80455" lon="6.5488">
        <ele>1308</ele>
        <time>2018-05-06T05:08:45Z</time>
      </trkpt>
      <trkpt lat="45.80458" lon="6.54876">
        <ele>1308</ele>
        <time>2018-05-06T05:09:45Z</time>
      </trkpt>
      <trkpt lat="45.80461" lon="6.5487">
        <ele>1308</ele>
        <time>2018-05-06T05:10:45Z</time>
      </trkpt>
      <trkpt lat="45.80464" lon="6.54864">
        <ele>1308</ele>
        <time>2018-05-06T05:11:45Z</time>
      </trkpt>
      <trkpt lat="45.80467" lon="6.54858">
        <ele>1308</ele>
        <time>2018-05-06T05:12:45Z</time>
      </trkpt>
      <trkpt lat="45.80469" lon="6.54852">
        <ele>1308</ele>
        <time>2018-05-06T05:13:45Z</time>
      </trkpt>
      <trkpt lat="45.8047" lon="6.54847">
        <ele>1307</ele>
        <time>2018-05-06T05:14:45Z</time>
      </trkpt>
      <trkpt lat="45.80471" lon="6.54841">
        <ele>1307</ele>
        <time>2018-05-06T05:15:45Z</time>
      </trkpt>
      <trkpt lat="45.80472" lon="6.54834">
        <ele>1307</ele>
        <time>2018-05-06T05:16:45Z</time>
      </trkpt>
      <trkpt lat="45.80473" lon="6.54828">
        <ele>1303</ele>
        <time>2018-05-06T05:17:45Z</time>
      </trkpt>
      <trkpt lat="45.80473" lon="6.5482">
        <ele>1302</ele>
        <time>2018-05-06T05:18:45Z</time>
      </trkpt>
      <trkpt lat="45.80473" lon="6.54812">
        <ele>1302</ele>
        <time>2018-05-06T05:19:45Z</time>
      </trkpt>
      <trkpt lat="45.80474" lon="6.54805">
        <ele>1302</ele>
        <time>2018-05-06T05:20:45Z</time>
      </trkpt>
      <trkpt lat="45.80474" lon="6.54797">
        <ele>1301</ele>
        <time>2018-05-06T05:21:45Z</time>
      </trkpt>
      <trkpt lat="45.80475" lon="6.5479">
        <ele>1301</ele>
        <time>2018-05-06T05:22:45Z</time>
      </trkpt>
      <trkpt lat="45.80476" lon="6.54784">
        <ele>1301</ele>
        <time>2018-05-06T05:23:45Z</time>
      </trkpt>
      <trkpt lat="45.80479" lon="6.54777">
        <ele>1300</ele>
        <time>2018-05-06T05:24:45Z</time>
      </trkpt>
      <trkpt lat="45.80482" lon="6.54771">
        <ele>1300</ele>
        <time>2018-05-06T05:25:45Z</time>
      </trkpt>
      <trkpt lat="45.80485" lon="6.54767">
        <ele>1300</ele>
        <time>2018-05-06T05:26:45Z</time>
      </trkpt>
      <trkpt lat="45.80488" lon="6.54762">
        <ele>1299</ele>
        <time>2018-05-06T05:27:45Z</time>
      </trkpt>
      <trkpt lat="45.80493" lon="6.54758">
        <ele>1299</ele>
        <time>2018-05-06T05:28:45Z</time>
      </trkpt>
      <trkpt lat="45.80497" lon="6.54755">
        <ele>1299</ele>
        <time>2018-05-06T05:29:45Z</time>
      </trkpt>
      <trkpt lat="45.80502" lon="6.54752">
        <ele>1299</ele>
        <time>2018-05-06T05:30:45Z</time>
      </trkpt>
      <trkpt lat="45.80507" lon="6.54749">
        <ele>1299</ele>
        <time>2018-05-06T05:31:45Z</time>
      </trkpt>
      <trkpt lat="45.80513" lon="6.54745">
        <ele>1300</ele>
        <time>2018-05-06T05:32:45Z</time>
      </trkpt>
      <trkpt lat="45.80517" lon="6.54742">
        <ele>1300</ele>
        <time>2018-05-06T05:33:45Z</time>
      </trkpt>
      <trkpt lat="45.80521" lon="6.54738">
        <ele>1301</ele>
        <time>2018-05-06T05:34:45Z</time>
      </trkpt>
      <trkpt lat="45.80525" lon="6.54734">
        <ele>1301</ele>
        <time>2018-05-06T05:35:45Z</time>
      </trkpt>
      <trkpt lat="45.80529" lon="6.54729">
        <ele>1302</ele>
        <time>2018-05-06T05:36:45Z</time>
      </trkpt>
      <trkpt lat="45.80532" lon="6.54725">
        <ele>1302</ele>
        <time>2018-05-06T05:37:45Z</time>
      </trkpt>
      <trkpt lat="45.80534" lon="6.54719">
        <ele>1302</ele>
        <time>2018-05-06T05:38:45Z</time>
      </trkpt>
      <trkpt lat="45.80535" lon="6.54713">
        <ele>1302</ele>
        <time>2018-05-06T05:39:45Z</time>
      </trkpt>
      <trkpt lat="45.80537" lon="6.54706">
        <ele>1302</ele>
        <time>2018-05-06T05:40:45Z</time>
      </trkpt>
      <trkpt lat="45.80538" lon="6.54701">
        <ele>1302</ele>
        <time>2018-05-06T05:41:45Z</time>
      </trkpt>
      <trkpt lat="45.80539" lon="6.54691">
        <ele>1302</ele>
        <time>2018-05-06T05:42:45Z</time>
      </trkpt>
      <trkpt lat="45.8054" lon="6.54681">
        <ele>1302</ele>
        <time>2018-05-06T05:43:45Z</time>
      </trkpt>
      <trkpt lat="45.8054" lon="6.54672">
        <ele>1302</ele>
        <time>2018-05-06T05:44:45Z</time>
      </trkpt>
      <trkpt lat="45.8054" lon="6.54661">
        <ele>1304</ele>
        <time>2018-05-06T05:45:45Z</time>
      </trkpt>
      <trkpt lat="45.8054" lon="6.54649">
        <ele>1304</ele>
        <time>2018-05-06T05:46:45Z</time>
      </trkpt>
      <trkpt lat="45.8054" lon="6.54639">
        <ele>1305</ele>
        <time>2018-05-06T05:47:45Z</time>
      </trkpt>
      <trkpt lat="45.80539" lon="6.54628">
        <ele>1305</ele>
        <time>2018-05-06T05:48:45Z</time>
      </trkpt>
      <trkpt lat="45.80538" lon="6.54619">
        <ele>1305</ele>
        <time>2018-05-06T05:49:45Z</time>
      </trkpt>
      <trkpt lat="45.80536" lon="6.54609">
        <ele>1305</ele>
        <time>2018-05-06T05:50:45Z</time>
      </trkpt>
      <trkpt lat="45.80534" lon="6.54599">
        <ele>1305</ele>
        <time>2018-05-06T05:51:45Z</time>
      </trkpt>
      <trkpt lat="45.80531" lon="6.5459">
        <ele>1304</ele>
        <time>2018-05-06T05:52:45Z</time>
      </trkpt>
      <trkpt lat="45.80528" lon="6.54582">
        <ele>1306</ele>
        <time>2018-05-06T05:53:45Z</time>
      </trkpt>
      <trkpt lat="45.80525" lon="6.54575">
        <ele>1306</ele>
        <time>2018-05-06T05:54:45Z</time>
      </trkpt>
      <trkpt lat="45.80522" lon="6.54568">
        <ele>1306</ele>
        <time>2018-05-06T05:55:45Z</time>
      </trkpt>
      <trkpt lat="45.80518" lon="6.54562">
        <ele>1305</ele>
        <time>2018-05-06T05:56:45Z</time>
      </trkpt>
      <trkpt lat="45.80516" lon="6.54557">
        <ele>1306</ele>
        <time>2018-05-06T05:57:45Z</time>
      </trkpt>
      <trkpt lat="45.80514" lon="6.54551">
        <ele>1306</ele>
        <time>2018-05-06T05:58:45Z</time>
      </trkpt>
      <trkpt lat="45.80513" lon="6.54547">
        <ele>1306</ele>
        <time>2018-05-06T05:59:45Z</time>
      </trkpt>
      <trkpt lat="45.80512" lon="6.54542">
        <ele>1306</ele>
        <time>2018-05-06T06:00:45Z</time>
      </trkpt>
      <trkpt lat="45.80511" lon="6.54537">
        <ele>1306</ele>
        <time>2018-05-06T06:01:45Z</time>
      </trkpt>
      <trkpt lat="45.8051" lon="6.54532">
        <ele>1306</ele>
        <time>2018-05-06T06:02:45Z</time>
      </trkpt>
      <trkpt lat="45.80509" lon="6.54525">
        <ele>1305</ele>
        <time>2018-05-06T06:03:45Z</time>
      </trkpt>
      <trkpt lat="45.80508" lon="6.54519">
        <ele>1304</ele>
        <time>2018-05-06T06:04:45Z</time>
      </trkpt>
      <trkpt lat="45.80508" lon="6.54513">
        <ele>1304</ele>
        <time>2018-05-06T06:05:45Z</time>
      </trkpt>
      <trkpt lat="45.80507" lon="6.54503">
        <ele>1301</ele>
        <time>2018-05-06T06:06:45Z</time>
      </trkpt>
      <trkpt lat="45.80505" lon="6.54483">
        <ele>1307</ele>
        <time>2018-05-06T06:07:45Z</time>
      </trkpt>
      <trkpt lat="45.805" lon="6.54423">
        <ele>1301</ele>
        <time>2018-05-06T06:08:45Z</time>
      </trkpt>
      <trkpt lat="45.80496" lon="6.54398">
        <ele>1299</ele>
        <time>2018-05-06T06:09:45Z</time>
      </trkpt>
      <trkpt lat="45.80494" lon="6.54374">
        <ele>1298</ele>
        <time>2018-05-06T06:10:45Z</time>
      </trkpt>
      <trkpt lat="45.80493" lon="6.5436">
        <ele>1299</ele>
        <time>2018-05-06T06:11:45Z</time>
      </trkpt>
      <trkpt lat="45.80491" lon="6.54345">
        <ele>1301</ele>
        <time>2018-05-06T06:12:45Z</time>
      </trkpt>
      <trkpt lat="45.80489" lon="6.54332">
        <ele>1303</ele>
        <time>2018-05-06T06:13:45Z</time>
      </trkpt>
      <trkpt lat="45.80486" lon="6.54318">
        <ele>1302</ele>
        <time>2018-05-06T06:14:45Z</time>
      </trkpt>
      <trkpt lat="45.80484" lon="6.54306">
        <ele>1301</ele>
        <time>2018-05-06T06:15:45Z</time>
      </trkpt>
      <trkpt lat="45.80481" lon="6.54293">
        <ele>1300</ele>
        <time>2018-05-06T06:16:45Z</time>
      </trkpt>
      <trkpt lat="45.8048" lon="6.54286">
        <ele>1300</ele>
        <time>2018-05-06T06:17:45Z</time>
      </trkpt>
      <trkpt lat="45.80479" lon="6.54281">
        <ele>1300</ele>
        <time>2018-05-06T06:18:45Z</time>
      </trkpt>
      <trkpt lat="45.80473" lon="6.54256">
        <ele>1301</ele>
        <time>2018-05-06T06:19:45Z</time>
      </trkpt>
      <trkpt lat="45.80467" lon="6.54229">
        <ele>1302</ele>
        <time>2018-05-06T06:20:45Z</time>
      </trkpt>
      <trkpt lat="45.80465" lon="6.5422">
        <ele>1301</ele>
        <time>2018-05-06T06:21:45Z</time>
      </trkpt>
      <trkpt lat="45.80455" lon="6.54179">
        <ele>1300</ele>
        <time>2018-05-06T06:22:45Z</time>
      </trkpt>
      <trkpt lat="45.80452" lon="6.54163">
        <ele>1301</ele>
        <time>2018-05-06T06:23:45Z</time>
      </trkpt>
      <trkpt lat="45.80442" lon="6.54109">
        <ele>1299</ele>
        <time>2018-05-06T06:24:45Z</time>
      </trkpt>
      <trkpt lat="45.8044" lon="6.54093">
        <ele>1298</ele>
        <time>2018-05-06T06:25:45Z</time>
      </trkpt>
      <trkpt lat="45.8044" lon="6.54091">
        <ele>1298</ele>
        <time>2018-05-06T06:26:45Z</time>
      </trkpt>
      <trkpt lat="45.80439" lon="6.54082">
        <ele>1295</ele>
        <time>2018-05-06T06:27:45Z</time>
      </trkpt>
      <trkpt lat="45.80438" lon="6.54071">
        <ele>1295</ele>
        <time>2018-05-06T06:28:45Z</time>
      </trkpt>
      <trkpt lat="45.80438" lon="6.54057">
        <ele>1295</ele>
        <time>2018-05-06T06:29:45Z</time>
      </trkpt>
      <trkpt lat="45.8044" lon="6.54044">
        <ele>1295</ele>
        <time>2018-05-06T06:30:45Z</time>
      </trkpt>
      <trkpt lat="45.80441" lon="6.54031">
        <ele>1294</ele>
        <time>2018-05-06T06:31:45Z</time>
      </trkpt>
      <trkpt lat="45.80445" lon="6.54008">
        <ele>1293</ele>
        <time>2018-05-06T06:32:45Z</time>
      </trkpt>
      <trkpt lat="45.80461" lon="6.5393">
        <ele>1287</ele>
        <time>2018-05-06T06:33:45Z</time>
      </trkpt>
      <trkpt lat="45.80462" lon="6.53922">
        <ele>1287</ele>
        <time>2018-05-06T06:34:45Z</time>
      </trkpt>
      <trkpt lat="45.80465" lon="6.53913">
        <ele>1280</ele>
        <time>2018-05-06T06:35:45Z</time>
      </trkpt>
      <trkpt lat="45.80469" lon="6.53904">
        <ele>1281</ele>
        <time>2018-05-06T06:36:45Z</time>
      </trkpt>
      <trkpt lat="45.80472" lon="6.53895">
        <ele>1281</ele>
        <time>2018-05-06T06:37:45Z</time>
      </trkpt>
      <trkpt lat="45.80477" lon="6.53886">
        <ele>1281</ele>
        <time>2018-05-06T06:38:45Z</time>
      </trkpt>
      <trkpt lat="45.80481" lon="6.53877">
        <ele>1281</ele>
        <time>2018-05-06T06:39:45Z</time>
      </trkpt>
      <trkpt lat="45.805" lon="6.53848">
        <ele>1283</ele>
        <time>2018-05-06T06:40:45Z</time>
      </trkpt>
      <trkpt lat="45.80504" lon="6.53838">
        <ele>1294</ele>
        <time>2018-05-06T06:41:45Z</time>
      </trkpt>
      <trkpt lat="45.80508" lon="6.5383">
        <ele>1294</ele>
        <time>2018-05-06T06:42:45Z</time>
      </trkpt>
      <trkpt lat="45.80509" lon="6.53823">
        <ele>1297</ele>
        <time>2018-05-06T06:43:45Z</time>
      </trkpt>
      <trkpt lat="45.8051" lon="6.53817">
        <ele>1299</ele>
        <time>2018-05-06T06:44:45Z</time>
      </trkpt>
      <trkpt lat="45.80509" lon="6.53808">
        <ele>1301</ele>
        <time>2018-05-06T06:45:45Z</time>
      </trkpt>
      <trkpt lat="45.80507" lon="6.53799">
        <ele>1302</ele>
        <time>2018-05-06T06:46:45Z</time>
      </trkpt>
      <trkpt lat="45.80505" lon="6.53789">
        <ele>1301</ele>
        <time>2018-05-06T06:47:45Z</time>
      </trkpt>
      <trkpt lat="45.80503" lon="6.53777">
        <ele>1299</ele>
        <time>2018-05-06T06:48:45Z</time>
      </trkpt>
      <trkpt lat="45.80502" lon="6.53767">
        <ele>1296</ele>
        <time>2018-05-06T06:49:45Z</time>
      </trkpt>
      <trkpt lat="45.80502" lon="6.53756">
        <ele>1289</ele>
        <time>2018-05-06T06:50:45Z</time>
      </trkpt>
      <trkpt lat="45.80504" lon="6.53746">
        <ele>1288</ele>
        <time>2018-05-06T06:51:45Z</time>
      </trkpt>
      <trkpt lat="45.80505" lon="6.53743">
        <ele>1290</ele>
        <time>2018-05-06T06:52:45Z</time>
      </trkpt>
      <trkpt lat="45.80507" lon="6.53734">
        <ele>1294</ele>
        <time>2018-05-06T06:53:45Z</time>
      </trkpt>
      <trkpt lat="45.80508" lon="6.53724">
        <ele>1297</ele>
        <time>2018-05-06T06:54:45Z</time>
      </trkpt>
      <trkpt lat="45.80508" lon="6.53714">
        <ele>1298</ele>
        <time>2018-05-06T06:55:45Z</time>
      </trkpt>
      <trkpt lat="45.80507" lon="6.53705">
        <ele>1297</ele>
        <time>2018-05-06T06:56:45Z</time>
      </trkpt>
      <trkpt lat="45.80503" lon="6.53696">
        <ele>1296</ele>
        <time>2018-05-06T06:57:45Z</time>
      </trkpt>
      <trkpt lat="45.805" lon="6.53688">
        <ele>1272</ele>
        <time>2018-05-06T06:58:45Z</time>
      </trkpt>
      <trkpt lat="45.80494" lon="6.53679">
        <ele>1273</ele>
        <time>2018-05-06T06:59:45Z</time>
      </trkpt>
      <trkpt lat="45.80489" lon="6.53671">
        <ele>1274</ele>
        <time>2018-05-06T07:00:45Z</time>
      </trkpt>
      <trkpt lat="45.80485" lon="6.53662">
        <ele>1273</ele>
        <time>2018-05-06T07:01:45Z</time>
      </trkpt>
      <trkpt lat="45.80481" lon="6.53655">
        <ele>1271</ele>
        <time>2018-05-06T07:02:45Z</time>
      </trkpt>
      <trkpt lat="45.80479" lon="6.53644">
        <ele>1269</ele>
        <time>2018-05-06T07:03:45Z</time>
      </trkpt>
      <trkpt lat="45.80479" lon="6.53633">
        <ele>1269</ele>
        <time>2018-05-06T07:04:45Z</time>
      </trkpt>
      <trkpt lat="45.80478" lon="6.53622">
        <ele>1269</ele>
        <time>2018-05-06T07:05:45Z</time>
      </trkpt>
      <trkpt lat="45.80477" lon="6.5361">
        <ele>1270</ele>
        <time>2018-05-06T07:06:45Z</time>
      </trkpt>
      <trkpt lat="45.80475" lon="6.53599">
        <ele>1270</ele>
        <time>2018-05-06T07:07:45Z</time>
      </trkpt>
      <trkpt lat="45.80471" lon="6.53587">
        <ele>1270</ele>
        <time>2018-05-06T07:08:45Z</time>
      </trkpt>
      <trkpt lat="45.80468" lon="6.53576">
        <ele>1272</ele>
        <time>2018-05-06T07:09:45Z</time>
      </trkpt>
      <trkpt lat="45.80464" lon="6.53566">
        <ele>1271</ele>
        <time>2018-05-06T07:10:45Z</time>
      </trkpt>
      <trkpt lat="45.80459" lon="6.53558">
        <ele>1270</ele>
        <time>2018-05-06T07:11:45Z</time>
      </trkpt>
      <trkpt lat="45.80454" lon="6.53551">
        <ele>1269</ele>
        <time>2018-05-06T07:12:45Z</time>
      </trkpt>
      <trkpt lat="45.80449" lon="6.53542">
        <ele>1269</ele>
        <time>2018-05-06T07:13:45Z</time>
      </trkpt>
      <trkpt lat="45.80445" lon="6.53533">
        <ele>1269</ele>
        <time>2018-05-06T07:14:45Z</time>
      </trkpt>
      <trkpt lat="45.80442" lon="6.53524">
        <ele>1268</ele>
        <time>2018-05-06T07:15:45Z</time>
      </trkpt>
      <trkpt lat="45.8044" lon="6.53514">
        <ele>1268</ele>
        <time>2018-05-06T07:16:45Z</time>
      </trkpt>
      <trkpt lat="45.8044" lon="6.53503">
        <ele>1268</ele>
        <time>2018-05-06T07:17:45Z</time>
      </trkpt>
      <trkpt lat="45.80441" lon="6.53488">
        <ele>1269</ele>
        <time>2018-05-06T07:18:45Z</time>
      </trkpt>
      <trkpt lat="45.80442" lon="6.53476">
        <ele>1270</ele>
        <time>2018-05-06T07:19:45Z</time>
      </trkpt>
      <trkpt lat="45.80443" lon="6.53463">
        <ele>1270</ele>
        <time>2018-05-06T07:20:45Z</time>
      </trkpt>
      <trkpt lat="45.80443" lon="6.53448">
        <ele>1270</ele>
        <time>2018-05-06T07:21:45Z</time>
      </trkpt>
      <trkpt lat="45.80443" lon="6.53436">
        <ele>1269</ele>
        <time>2018-05-06T07:22:45Z</time>
      </trkpt>
      <trkpt lat="45.80443" lon="6.53419">
        <ele>1268</ele>
        <time>2018-05-06T07:23:45Z</time>
      </trkpt>
      <trkpt lat="45.80444" lon="6.53401">
        <ele>1266</ele>
        <time>2018-05-06T07:24:45Z</time>
      </trkpt>
      <trkpt lat="45.80446" lon="6.53384">
        <ele>1267</ele>
        <time>2018-05-06T07:25:45Z</time>
      </trkpt>
      <trkpt lat="45.80449" lon="6.53359">
        <ele>1266</ele>
        <time>2018-05-06T07:26:45Z</time>
      </trkpt>
      <trkpt lat="45.80455" lon="6.53323">
        <ele>1263</ele>
        <time>2018-05-06T07:27:45Z</time>
      </trkpt>
      <trkpt lat="45.80461" lon="6.53282">
        <ele>1263</ele>
        <time>2018-05-06T07:28:45Z</time>
      </trkpt>
      <trkpt lat="45.80465" lon="6.53254">
        <ele>1263</ele>
        <time>2018-05-06T07:29:45Z</time>
      </trkpt>
      <trkpt lat="45.80466" lon="6.53236">
        <ele>1258</ele>
        <time>2018-05-06T07:30:45Z</time>
      </trkpt>
      <trkpt lat="45.80466" lon="6.53223">
        <ele>1258</ele>
        <time>2018-05-06T07:31:45Z</time>
      </trkpt>
      <trkpt lat="45.80466" lon="6.5321">
        <ele>1257</ele>
        <time>2018-05-06T07:32:45Z</time>
      </trkpt>
      <trkpt lat="45.80465" lon="6.53195">
        <ele>1256</ele>
        <time>2018-05-06T07:33:45Z</time>
      </trkpt>
      <trkpt lat="45.80465" lon="6.5318">
        <ele>1256</ele>
        <time>2018-05-06T07:34:45Z</time>
      </trkpt>
      <trkpt lat="45.80464" lon="6.53168">
        <ele>1256</ele>
        <time>2018-05-06T07:35:45Z</time>
      </trkpt>
      <trkpt lat="45.80462" lon="6.53153">
        <ele>1251</ele>
        <time>2018-05-06T07:36:45Z</time>
      </trkpt>
      <trkpt lat="45.80462" lon="6.53151">
        <ele>1251</ele>
        <time>2018-05-06T07:37:45Z</time>
      </trkpt>
      <trkpt lat="45.80461" lon="6.53136">
        <ele>1251</ele>
        <time>2018-05-06T07:38:45Z</time>
      </trkpt>
      <trkpt lat="45.80459" lon="6.53113">
        <ele>1250</ele>
        <time>2018-05-06T07:39:45Z</time>
      </trkpt>
      <trkpt lat="45.80458" lon="6.53103">
        <ele>1250</ele>
        <time>2018-05-06T07:40:45Z</time>
      </trkpt>
      <trkpt lat="45.80457" lon="6.53094">
        <ele>1249</ele>
        <time>2018-05-06T07:41:45Z</time>
      </trkpt>
      <trkpt lat="45.80458" lon="6.53084">
        <ele>1249</ele>
        <time>2018-05-06T07:42:45Z</time>
      </trkpt>
      <trkpt lat="45.80462" lon="6.53075">
        <ele>1245</ele>
        <time>2018-05-06T07:43:45Z</time>
      </trkpt>
      <trkpt lat="45.80465" lon="6.5307">
        <ele>1245</ele>
        <time>2018-05-06T07:44:45Z</time>
      </trkpt>
      <trkpt lat="45.80465" lon="6.53068">
        <ele>1245</ele>
        <time>2018-05-06T07:45:45Z</time>
      </trkpt>
      <trkpt lat="45.80471" lon="6.53061">
        <ele>1245</ele>
        <time>2018-05-06T07:46:45Z</time>
      </trkpt>
      <trkpt lat="45.80477" lon="6.53055">
        <ele>1245</ele>
        <time>2018-05-06T07:47:45Z</time>
      </trkpt>
      <trkpt lat="45.80484" lon="6.5305">
        <ele>1245</ele>
        <time>2018-05-06T07:48:45Z</time>
      </trkpt>
      <trkpt lat="45.8049" lon="6.53045">
        <ele>1245</ele>
        <time>2018-05-06T07:49:45Z</time>
      </trkpt>
      <trkpt lat="45.80498" lon="6.53039">
        <ele>1245</ele>
        <time>2018-05-06T07:50:45Z</time>
      </trkpt>
      <trkpt lat="45.80504" lon="6.53034">
        <ele>1249</ele>
        <time>2018-05-06T07:51:45Z</time>
      </trkpt>
      <trkpt lat="45.8051" lon="6.53027">
        <ele>1249</ele>
        <time>2018-05-06T07:52:45Z</time>
      </trkpt>
      <trkpt lat="45.80512" lon="6.53023">
        <ele>1248</ele>
        <time>2018-05-06T07:53:45Z</time>
      </trkpt>
      <trkpt lat="45.80517" lon="6.53016">
        <ele>1248</ele>
        <time>2018-05-06T07:54:45Z</time>
      </trkpt>
      <trkpt lat="45.80532" lon="6.52992">
        <ele>1240</ele>
        <time>2018-05-06T07:55:45Z</time>
      </trkpt>
      <trkpt lat="45.80555" lon="6.52952">
        <ele>1238</ele>
        <time>2018-05-06T07:56:45Z</time>
      </trkpt>
      <trkpt lat="45.80555" lon="6.52951">
        <ele>1238</ele>
        <time>2018-05-06T07:57:45Z</time>
      </trkpt>
      <trkpt lat="45.80556" lon="6.52949">
        <ele>1238</ele>
        <time>2018-05-06T07:58:45Z</time>
      </trkpt>
      <trkpt lat="45.80561" lon="6.52937">
        <ele>1238</ele>
        <time>2018-05-06T07:59:45Z</time>
      </trkpt>
      <trkpt lat="45.80565" lon="6.5293">
        <ele>1237</ele>
        <time>2018-05-06T08:00:45Z</time>
      </trkpt>
      <trkpt lat="45.8057" lon="6.52919">
        <ele>1237</ele>
        <time>2018-05-06T08:01:45Z</time>
      </trkpt>
      <trkpt lat="45.80574" lon="6.52908">
        <ele>1232</ele>
        <time>2018-05-06T08:02:45Z</time>
      </trkpt>
      <trkpt lat="45.80578" lon="6.52897">
        <ele>1230</ele>
        <time>2018-05-06T08:03:45Z</time>
      </trkpt>
      <trkpt lat="45.80581" lon="6.52888">
        <ele>1228</ele>
        <time>2018-05-06T08:04:45Z</time>
      </trkpt>
      <trkpt lat="45.80584" lon="6.52876">
        <ele>1239</ele>
        <time>2018-05-06T08:05:45Z</time>
      </trkpt>
      <trkpt lat="45.80586" lon="6.52865">
        <ele>1237</ele>
        <time>2018-05-06T08:06:45Z</time>
      </trkpt>
      <trkpt lat="45.80591" lon="6.52852">
        <ele>1235</ele>
        <time>2018-05-06T08:07:45Z</time>
      </trkpt>
      <trkpt lat="45.80595" lon="6.52845">
        <ele>1233</ele>
        <time>2018-05-06T08:08:45Z</time>
      </trkpt>
      <trkpt lat="45.80598" lon="6.5284">
        <ele>1233</ele>
        <time>2018-05-06T08:09:45Z</time>
      </trkpt>
      <trkpt lat="45.80601" lon="6.52835">
        <ele>1234</ele>
        <time>2018-05-06T08:10:45Z</time>
      </trkpt>
      <trkpt lat="45.80606" lon="6.52828">
        <ele>1228</ele>
        <time>2018-05-06T08:11:45Z</time>
      </trkpt>
      <trkpt lat="45.80611" lon="6.5282">
        <ele>1229</ele>
        <time>2018-05-06T08:12:45Z</time>
      </trkpt>
      <trkpt lat="45.80618" lon="6.52809">
        <ele>1230</ele>
        <time>2018-05-06T08:13:45Z</time>
      </trkpt>
      <trkpt lat="45.80624" lon="6.52799">
        <ele>1230</ele>
        <time>2018-05-06T08:14:45Z</time>
      </trkpt>
      <trkpt lat="45.80629" lon="6.5279">
        <ele>1230</ele>
        <time>2018-05-06T08:15:45Z</time>
      </trkpt>
      <trkpt lat="45.80641" lon="6.52764">
        <ele>1230</ele>
        <time>2018-05-06T08:16:45Z</time>
      </trkpt>
      <trkpt lat="45.8065" lon="6.52743">
        <ele>1223</ele>
        <time>2018-05-06T08:17:45Z</time>
      </trkpt>
      <trkpt lat="45.80657" lon="6.52726">
        <ele>1221</ele>
        <time>2018-05-06T08:18:45Z</time>
      </trkpt>
      <trkpt lat="45.8066" lon="6.52719">
        <ele>1219</ele>
        <time>2018-05-06T08:19:45Z</time>
      </trkpt>
      <trkpt lat="45.80663" lon="6.52709">
        <ele>1218</ele>
        <time>2018-05-06T08:20:45Z</time>
      </trkpt>
      <trkpt lat="45.80666" lon="6.52698">
        <ele>1216</ele>
        <time>2018-05-06T08:21:45Z</time>
      </trkpt>
      <trkpt lat="45.80683" lon="6.52638">
        <ele>1222</ele>
        <time>2018-05-06T08:22:45Z</time>
      </trkpt>
      <trkpt lat="45.80686" lon="6.52626">
        <ele>1221</ele>
        <time>2018-05-06T08:23:45Z</time>
      </trkpt>
      <trkpt lat="45.80691" lon="6.52613">
        <ele>1220</ele>
        <time>2018-05-06T08:24:45Z</time>
      </trkpt>
      <trkpt lat="45.80697" lon="6.52593">
        <ele>1218</ele>
        <time>2018-05-06T08:25:45Z</time>
      </trkpt>
      <trkpt lat="45.80701" lon="6.52577">
        <ele>1207</ele>
        <time>2018-05-06T08:26:45Z</time>
      </trkpt>
      <trkpt lat="45.80705" lon="6.52564">
        <ele>1207</ele>
        <time>2018-05-06T08:27:45Z</time>
      </trkpt>
      <trkpt lat="45.80708" lon="6.52554">
        <ele>1206</ele>
        <time>2018-05-06T08:28:45Z</time>
      </trkpt>
      <trkpt lat="45.80713" lon="6.52546">
        <ele>1206</ele>
        <time>2018-05-06T08:29:45Z</time>
      </trkpt>
      <trkpt lat="45.80717" lon="6.52538">
        <ele>1206</ele>
        <time>2018-05-06T08:30:45Z</time>
      </trkpt>
      <trkpt lat="45.80723" lon="6.52531">
        <ele>1206</ele>
        <time>2018-05-06T08:31:45Z</time>
      </trkpt>
      <trkpt lat="45.80728" lon="6.52524">
        <ele>1206</ele>
        <time>2018-05-06T08:32:45Z</time>
      </trkpt>
      <trkpt lat="45.80736" lon="6.52514">
        <ele>1206</ele>
        <time>2018-05-06T08:33:45Z</time>
      </trkpt>
      <trkpt lat="45.80743" lon="6.52504">
        <ele>1206</ele>
        <time>2018-05-06T08:34:45Z</time>
      </trkpt>
      <trkpt lat="45.80755" lon="6.52488">
        <ele>1204</ele>
        <time>2018-05-06T08:35:45Z</time>
      </trkpt>
      <trkpt lat="45.8077" lon="6.52474">
        <ele>1202</ele>
        <time>2018-05-06T08:36:45Z</time>
      </trkpt>
      <trkpt lat="45.80783" lon="6.52465">
        <ele>1201</ele>
        <time>2018-05-06T08:37:45Z</time>
      </trkpt>
      <trkpt lat="45.80791" lon="6.52459">
        <ele>1201</ele>
        <time>2018-05-06T08:38:45Z</time>
      </trkpt>
      <trkpt lat="45.808" lon="6.52453">
        <ele>1201</ele>
        <time>2018-05-06T08:39:45Z</time>
      </trkpt>
      <trkpt lat="45.8081" lon="6.52444">
        <ele>1200</ele>
        <time>2018-05-06T08:40:45Z</time>
      </trkpt>
      <trkpt lat="45.80823" lon="6.5243">
        <ele>1197</ele>
        <time>2018-05-06T08:41:45Z</time>
      </trkpt>
      <trkpt lat="45.8083" lon="6.52422">
        <ele>1196</ele>
        <time>2018-05-06T08:42:45Z</time>
      </trkpt>
      <trkpt lat="45.80838" lon="6.52412">
        <ele>1194</ele>
        <time>2018-05-06T08:43:45Z</time>
      </trkpt>
      <trkpt lat="45.80844" lon="6.52403">
        <ele>1193</ele>
        <time>2018-05-06T08:44:45Z</time>
      </trkpt>
      <trkpt lat="45.80852" lon="6.5239">
        <ele>1193</ele>
        <time>2018-05-06T08:45:45Z</time>
      </trkpt>
      <trkpt lat="45.80864" lon="6.5237">
        <ele>1192</ele>
        <time>2018-05-06T08:46:45Z</time>
      </trkpt>
      <trkpt lat="45.80871" lon="6.52356">
        <ele>1191</ele>
        <time>2018-05-06T08:47:45Z</time>
      </trkpt>
      <trkpt lat="45.80873" lon="6.52352">
        <ele>1191</ele>
        <time>2018-05-06T08:48:45Z</time>
      </trkpt>
      <trkpt lat="45.80878" lon="6.52341">
        <ele>1191</ele>
        <time>2018-05-06T08:49:45Z</time>
      </trkpt>
      <trkpt lat="45.80882" lon="6.52329">
        <ele>1183</ele>
        <time>2018-05-06T08:50:45Z</time>
      </trkpt>
      <trkpt lat="45.80888" lon="6.52314">
        <ele>1183</ele>
        <time>2018-05-06T08:51:45Z</time>
      </trkpt>
      <trkpt lat="45.80893" lon="6.52298">
        <ele>1183</ele>
        <time>2018-05-06T08:52:45Z</time>
      </trkpt>
      <trkpt lat="45.80898" lon="6.52278">
        <ele>1182</ele>
        <time>2018-05-06T08:53:45Z</time>
      </trkpt>
      <trkpt lat="45.80903" lon="6.52243">
        <ele>1177</ele>
        <time>2018-05-06T08:54:45Z</time>
      </trkpt>
      <trkpt lat="45.80904" lon="6.52239">
        <ele>1177</ele>
        <time>2018-05-06T08:55:45Z</time>
      </trkpt>
      <trkpt lat="45.80908" lon="6.5221">
        <ele>1175</ele>
        <time>2018-05-06T08:56:45Z</time>
      </trkpt>
      <trkpt lat="45.80913" lon="6.5219">
        <ele>1174</ele>
        <time>2018-05-06T08:57:45Z</time>
      </trkpt>
      <trkpt lat="45.80914" lon="6.52183">
        <ele>1174</ele>
        <time>2018-05-06T08:58:45Z</time>
      </trkpt>
      <trkpt lat="45.80918" lon="6.52177">
        <ele>1174</ele>
        <time>2018-05-06T08:59:45Z</time>
      </trkpt>
      <trkpt lat="45.80922" lon="6.52172">
        <ele>1174</ele>
        <time>2018-05-06T09:00:45Z</time>
      </trkpt>
      <trkpt lat="45.80926" lon="6.52168">
        <ele>1174</ele>
        <time>2018-05-06T09:01:45Z</time>
      </trkpt>
      <trkpt lat="45.80932" lon="6.52167">
        <ele>1174</ele>
        <time>2018-05-06T09:02:45Z</time>
      </trkpt>
      <trkpt lat="45.8094" lon="6.52165">
        <ele>1168</ele>
        <time>2018-05-06T09:03:45Z</time>
      </trkpt>
      <trkpt lat="45.80946" lon="6.52164">
        <ele>1167</ele>
        <time>2018-05-06T09:04:45Z</time>
      </trkpt>
      <trkpt lat="45.80949" lon="6.52161">
        <ele>1167</ele>
        <time>2018-05-06T09:05:45Z</time>
      </trkpt>
      <trkpt lat="45.8095" lon="6.52161">
        <ele>1167</ele>
        <time>2018-05-06T09:06:45Z</time>
      </trkpt>
      <trkpt lat="45.80953" lon="6.52156">
        <ele>1166</ele>
        <time>2018-05-06T09:07:45Z</time>
      </trkpt>
      <trkpt lat="45.80954" lon="6.52149">
        <ele>1166</ele>
        <time>2018-05-06T09:08:45Z</time>
      </trkpt>
      <trkpt lat="45.80954" lon="6.52143">
        <ele>1166</ele>
        <time>2018-05-06T09:09:45Z</time>
      </trkpt>
      <trkpt lat="45.80952" lon="6.52136">
        <ele>1165</ele>
        <time>2018-05-06T09:10:45Z</time>
      </trkpt>
      <trkpt lat="45.80949" lon="6.52132">
        <ele>1165</ele>
        <time>2018-05-06T09:11:45Z</time>
      </trkpt>
      <trkpt lat="45.8094" lon="6.52122">
        <ele>1165</ele>
        <time>2018-05-06T09:12:45Z</time>
      </trkpt>
      <trkpt lat="45.80913" lon="6.52097">
        <ele>1163</ele>
        <time>2018-05-06T09:13:45Z</time>
      </trkpt>
      <trkpt lat="45.8089" lon="6.52077">
        <ele>1157</ele>
        <time>2018-05-06T09:14:45Z</time>
      </trkpt>
      <trkpt lat="45.80882" lon="6.52071">
        <ele>1156</ele>
        <time>2018-05-06T09:15:45Z</time>
      </trkpt>
      <trkpt lat="45.80874" lon="6.52067">
        <ele>1155</ele>
        <time>2018-05-06T09:16:45Z</time>
      </trkpt>
      <trkpt lat="45.80867" lon="6.52066">
        <ele>1155</ele>
        <time>2018-05-06T09:17:45Z</time>
      </trkpt>
      <trkpt lat="45.80856" lon="6.52067">
        <ele>1156</ele>
        <time>2018-05-06T09:18:45Z</time>
      </trkpt>
      <trkpt lat="45.80844" lon="6.5207">
        <ele>1156</ele>
        <time>2018-05-06T09:19:45Z</time>
      </trkpt>
      <trkpt lat="45.80838" lon="6.52072">
        <ele>1157</ele>
        <time>2018-05-06T09:20:45Z</time>
      </trkpt>
      <trkpt lat="45.80835" lon="6.52072">
        <ele>1157</ele>
        <time>2018-05-06T09:21:45Z</time>
      </trkpt>
      <trkpt lat="45.80832" lon="6.52072">
        <ele>1153</ele>
        <time>2018-05-06T09:22:45Z</time>
      </trkpt>
      <trkpt lat="45.80826" lon="6.52069">
        <ele>1151</ele>
        <time>2018-05-06T09:23:45Z</time>
      </trkpt>
      <trkpt lat="45.80823" lon="6.52065">
        <ele>1150</ele>
        <time>2018-05-06T09:24:45Z</time>
      </trkpt>
      <trkpt lat="45.80821" lon="6.52059">
        <ele>1148</ele>
        <time>2018-05-06T09:25:45Z</time>
      </trkpt>
      <trkpt lat="45.80821" lon="6.52051">
        <ele>1147</ele>
        <time>2018-05-06T09:26:45Z</time>
      </trkpt>
      <trkpt lat="45.80826" lon="6.52044">
        <ele>1147</ele>
        <time>2018-05-06T09:27:45Z</time>
      </trkpt>
      <trkpt lat="45.80831" lon="6.5204">
        <ele>1147</ele>
        <time>2018-05-06T09:28:45Z</time>
      </trkpt>
      <trkpt lat="45.80838" lon="6.52035">
        <ele>1153</ele>
        <time>2018-05-06T09:29:45Z</time>
      </trkpt>
      <trkpt lat="45.80844" lon="6.52029">
        <ele>1152</ele>
        <time>2018-05-06T09:30:45Z</time>
      </trkpt>
      <trkpt lat="45.8085" lon="6.52023">
        <ele>1152</ele>
        <time>2018-05-06T09:31:45Z</time>
      </trkpt>
      <trkpt lat="45.80856" lon="6.52017">
        <ele>1152</ele>
        <time>2018-05-06T09:32:45Z</time>
      </trkpt>
      <trkpt lat="45.80862" lon="6.5201">
        <ele>1152</ele>
        <time>2018-05-06T09:33:45Z</time>
      </trkpt>
      <trkpt lat="45.80871" lon="6.52004">
        <ele>1151</ele>
        <time>2018-05-06T09:34:45Z</time>
      </trkpt>
      <trkpt lat="45.80877" lon="6.52">
        <ele>1144</ele>
        <time>2018-05-06T09:35:45Z</time>
      </trkpt>
      <trkpt lat="45.80883" lon="6.51997">
        <ele>1144</ele>
        <time>2018-05-06T09:36:45Z</time>
      </trkpt>
      <trkpt lat="45.80891" lon="6.51994">
        <ele>1144</ele>
        <time>2018-05-06T09:37:45Z</time>
      </trkpt>
      <trkpt lat="45.80899" lon="6.51993">
        <ele>1144</ele>
        <time>2018-05-06T09:38:45Z</time>
      </trkpt>
      <trkpt lat="45.80907" lon="6.51994">
        <ele>1145</ele>
        <time>2018-05-06T09:39:45Z</time>
      </trkpt>
      <trkpt lat="45.80917" lon="6.51996">
        <ele>1146</ele>
        <time>2018-05-06T09:40:45Z</time>
      </trkpt>
      <trkpt lat="45.80939" lon="6.52005">
        <ele>1150</ele>
        <time>2018-05-06T09:41:45Z</time>
      </trkpt>
      <trkpt lat="45.80953" lon="6.52009">
        <ele>1151</ele>
        <time>2018-05-06T09:42:45Z</time>
      </trkpt>
      <trkpt lat="45.8096" lon="6.5201">
        <ele>1151</ele>
        <time>2018-05-06T09:43:45Z</time>
      </trkpt>
      <trkpt lat="45.80967" lon="6.52009">
        <ele>1151</ele>
        <time>2018-05-06T09:44:45Z</time>
      </trkpt>
      <trkpt lat="45.80973" lon="6.52004">
        <ele>1151</ele>
        <time>2018-05-06T09:45:45Z</time>
      </trkpt>
      <trkpt lat="45.80977" lon="6.51998">
        <ele>1146</ele>
        <time>2018-05-06T09:46:45Z</time>
      </trkpt>
      <trkpt lat="45.80978" lon="6.51993">
        <ele>1146</ele>
        <time>2018-05-06T09:47:45Z</time>
      </trkpt>
      <trkpt lat="45.80978" lon="6.5199">
        <ele>1145</ele>
        <time>2018-05-06T09:48:45Z</time>
      </trkpt>
      <trkpt lat="45.80977" lon="6.51982">
        <ele>1145</ele>
        <time>2018-05-06T09:49:45Z</time>
      </trkpt>
      <trkpt lat="45.80975" lon="6.51976">
        <ele>1145</ele>
        <time>2018-05-06T09:50:45Z</time>
      </trkpt>
      <trkpt lat="45.8097" lon="6.51968">
        <ele>1144</ele>
        <time>2018-05-06T09:51:45Z</time>
      </trkpt>
      <trkpt lat="45.80965" lon="6.5196">
        <ele>1144</ele>
        <time>2018-05-06T09:52:45Z</time>
      </trkpt>
      <trkpt lat="45.8095" lon="6.51939">
        <ele>1142</ele>
        <time>2018-05-06T09:53:45Z</time>
      </trkpt>
      <trkpt lat="45.80924" lon="6.51904">
        <ele>1137</ele>
        <time>2018-05-06T09:54:45Z</time>
      </trkpt>
      <trkpt lat="45.80906" lon="6.51878">
        <ele>1135</ele>
        <time>2018-05-06T09:55:45Z</time>
      </trkpt>
      <trkpt lat="45.80865" lon="6.51819">
        <ele>1131</ele>
        <time>2018-05-06T09:56:45Z</time>
      </trkpt>
      <trkpt lat="45.80856" lon="6.51804">
        <ele>1131</ele>
        <time>2018-05-06T09:57:45Z</time>
      </trkpt>
      <trkpt lat="45.80856" lon="6.51804">
        <ele>1131</ele>
        <time>2018-05-06T09:58:45Z</time>
      </trkpt>
      <trkpt lat="45.80846" lon="6.51791">
        <ele>1131</ele>
        <time>2018-05-06T09:59:45Z</time>
      </trkpt>
      <trkpt lat="45.80842" lon="6.51785">
        <ele>1131</ele>
        <time>2018-05-06T10:00:45Z</time>
      </trkpt>
      <trkpt lat="45.80835" lon="6.51776">
        <ele>1130</ele>
        <time>2018-05-06T10:01:45Z</time>
      </trkpt>
      <trkpt lat="45.80828" lon="6.51768">
        <ele>1128</ele>
        <time>2018-05-06T10:02:45Z</time>
      </trkpt>
      <trkpt lat="45.8081" lon="6.51742">
        <ele>1126</ele>
        <time>2018-05-06T10:03:45Z</time>
      </trkpt>
      <trkpt lat="45.80806" lon="6.51737">
        <ele>1125</ele>
        <time>2018-05-06T10:04:45Z</time>
      </trkpt>
      <trkpt lat="45.80801" lon="6.51728">
        <ele>1124</ele>
        <time>2018-05-06T10:05:45Z</time>
      </trkpt>
      <trkpt lat="45.80799" lon="6.51723">
        <ele>1124</ele>
        <time>2018-05-06T10:06:45Z</time>
      </trkpt>
      <trkpt lat="45.80798" lon="6.51719">
        <ele>1124</ele>
        <time>2018-05-06T10:07:45Z</time>
      </trkpt>
      <trkpt lat="45.80797" lon="6.51706">
        <ele>1124</ele>
        <time>2018-05-06T10:08:45Z</time>
      </trkpt>
      <trkpt lat="45.80798" lon="6.51698">
        <ele>1123</ele>
        <time>2018-05-06T10:09:45Z</time>
      </trkpt>
      <trkpt lat="45.808" lon="6.5169">
        <ele>1123</ele>
        <time>2018-05-06T10:10:45Z</time>
      </trkpt>
      <trkpt lat="45.80806" lon="6.51682">
        <ele>1123</ele>
        <time>2018-05-06T10:11:45Z</time>
      </trkpt>
      <trkpt lat="45.80813" lon="6.51674">
        <ele>1123</ele>
        <time>2018-05-06T10:12:45Z</time>
      </trkpt>
      <trkpt lat="45.80826" lon="6.51663">
        <ele>1122</ele>
        <time>2018-05-06T10:13:45Z</time>
      </trkpt>
      <trkpt lat="45.80845" lon="6.5165">
        <ele>1121</ele>
        <time>2018-05-06T10:14:45Z</time>
      </trkpt>
      <trkpt lat="45.80852" lon="6.51645">
        <ele>1121</ele>
        <time>2018-05-06T10:15:45Z</time>
      </trkpt>
      <trkpt lat="45.80878" lon="6.51625">
        <ele>1120</ele>
        <time>2018-05-06T10:16:45Z</time>
      </trkpt>
      <trkpt lat="45.80887" lon="6.51618">
        <ele>1119</ele>
        <time>2018-05-06T10:17:45Z</time>
      </trkpt>
      <trkpt lat="45.809" lon="6.51608">
        <ele>1119</ele>
        <time>2018-05-06T10:18:45Z</time>
      </trkpt>
      <trkpt lat="45.80911" lon="6.51597">
        <ele>1118</ele>
        <time>2018-05-06T10:19:45Z</time>
      </trkpt>
      <trkpt lat="45.8092" lon="6.5159">
        <ele>1116</ele>
        <time>2018-05-06T10:20:45Z</time>
      </trkpt>
      <trkpt lat="45.80927" lon="6.51586">
        <ele>1116</ele>
        <time>2018-05-06T10:21:45Z</time>
      </trkpt>
      <trkpt lat="45.80936" lon="6.51585">
        <ele>1117</ele>
        <time>2018-05-06T10:22:45Z</time>
      </trkpt>
      <trkpt lat="45.80941" lon="6.51587">
        <ele>1117</ele>
        <time>2018-05-06T10:23:45Z</time>
      </trkpt>
      <trkpt lat="45.80949" lon="6.5159">
        <ele>1116</ele>
        <time>2018-05-06T10:24:45Z</time>
      </trkpt>
      <trkpt lat="45.80956" lon="6.51593">
        <ele>1116</ele>
        <time>2018-05-06T10:25:45Z</time>
      </trkpt>
      <trkpt lat="45.80964" lon="6.51596">
        <ele>1116</ele>
        <time>2018-05-06T10:26:45Z</time>
      </trkpt>
      <trkpt lat="45.80972" lon="6.51599">
        <ele>1116</ele>
        <time>2018-05-06T10:27:45Z</time>
      </trkpt>
      <trkpt lat="45.80979" lon="6.516">
        <ele>1115</ele>
        <time>2018-05-06T10:28:45Z</time>
      </trkpt>
      <trkpt lat="45.80989" lon="6.516">
        <ele>1114</ele>
        <time>2018-05-06T10:29:45Z</time>
      </trkpt>
      <trkpt lat="45.80998" lon="6.51598">
        <ele>1114</ele>
        <time>2018-05-06T10:30:45Z</time>
      </trkpt>
      <trkpt lat="45.81006" lon="6.51595">
        <ele>1112</ele>
        <time>2018-05-06T10:31:45Z</time>
      </trkpt>
      <trkpt lat="45.81015" lon="6.51589">
        <ele>1112</ele>
        <time>2018-05-06T10:32:45Z</time>
      </trkpt>
      <trkpt lat="45.81022" lon="6.51582">
        <ele>1107</ele>
        <time>2018-05-06T10:33:45Z</time>
      </trkpt>
      <trkpt lat="45.8103" lon="6.51573">
        <ele>1106</ele>
        <time>2018-05-06T10:34:45Z</time>
      </trkpt>
      <trkpt lat="45.81038" lon="6.51565">
        <ele>1105</ele>
        <time>2018-05-06T10:35:45Z</time>
      </trkpt>
      <trkpt lat="45.81044" lon="6.51559">
        <ele>1105</ele>
        <time>2018-05-06T10:36:45Z</time>
      </trkpt>
      <trkpt lat="45.81046" lon="6.51557">
        <ele>1105</ele>
        <time>2018-05-06T10:37:45Z</time>
      </trkpt>
      <trkpt lat="45.81053" lon="6.51551">
        <ele>1105</ele>
        <time>2018-05-06T10:38:45Z</time>
      </trkpt>
      <trkpt lat="45.81061" lon="6.51547">
        <ele>1104</ele>
        <time>2018-05-06T10:39:45Z</time>
      </trkpt>
      <trkpt lat="45.81069" lon="6.51544">
        <ele>1104</ele>
        <time>2018-05-06T10:40:45Z</time>
      </trkpt>
      <trkpt lat="45.81076" lon="6.51543">
        <ele>1104</ele>
        <time>2018-05-06T10:41:45Z</time>
      </trkpt>
      <trkpt lat="45.81085" lon="6.51544">
        <ele>1100</ele>
        <time>2018-05-06T10:42:45Z</time>
      </trkpt>
      <trkpt lat="45.81095" lon="6.51545">
        <ele>1100</ele>
        <time>2018-05-06T10:43:45Z</time>
      </trkpt>
      <trkpt lat="45.81102" lon="6.51547">
        <ele>1100</ele>
        <time>2018-05-06T10:44:45Z</time>
      </trkpt>
      <trkpt lat="45.81115" lon="6.51553">
        <ele>1099</ele>
        <time>2018-05-06T10:45:45Z</time>
      </trkpt>
      <trkpt lat="45.81125" lon="6.51557">
        <ele>1099</ele>
        <time>2018-05-06T10:46:45Z</time>
      </trkpt>
      <trkpt lat="45.81137" lon="6.51561">
        <ele>1098</ele>
        <time>2018-05-06T10:47:45Z</time>
      </trkpt>
      <trkpt lat="45.8115" lon="6.51567">
        <ele>1098</ele>
        <time>2018-05-06T10:48:45Z</time>
      </trkpt>
      <trkpt lat="45.81166" lon="6.51576">
        <ele>1099</ele>
        <time>2018-05-06T10:49:45Z</time>
      </trkpt>
      <trkpt lat="45.81187" lon="6.51591">
        <ele>1099</ele>
        <time>2018-05-06T10:50:45Z</time>
      </trkpt>
      <trkpt lat="45.81224" lon="6.51616">
        <ele>1097</ele>
        <time>2018-05-06T10:51:45Z</time>
      </trkpt>
      <trkpt lat="45.81232" lon="6.51622">
        <ele>1098</ele>
        <time>2018-05-06T10:52:45Z</time>
      </trkpt>
      <trkpt lat="45.81259" lon="6.51643">
        <ele>1088</ele>
        <time>2018-05-06T10:53:45Z</time>
      </trkpt>
      <trkpt lat="45.81275" lon="6.51654">
        <ele>1087</ele>
        <time>2018-05-06T10:54:45Z</time>
      </trkpt>
      <trkpt lat="45.81282" lon="6.51659">
        <ele>1086</ele>
        <time>2018-05-06T10:55:45Z</time>
      </trkpt>
      <trkpt lat="45.81288" lon="6.51664">
        <ele>1084</ele>
        <time>2018-05-06T10:56:45Z</time>
      </trkpt>
      <trkpt lat="45.81294" lon="6.51669">
        <ele>1095</ele>
        <time>2018-05-06T10:57:45Z</time>
      </trkpt>
      <trkpt lat="45.813" lon="6.51675">
        <ele>1093</ele>
        <time>2018-05-06T10:58:45Z</time>
      </trkpt>
      <trkpt lat="45.81305" lon="6.51679">
        <ele>1093</ele>
        <time>2018-05-06T10:59:45Z</time>
      </trkpt>
      <trkpt lat="45.81309" lon="6.51684">
        <ele>1092</ele>
        <time>2018-05-06T11:00:45Z</time>
      </trkpt>
      <trkpt lat="45.81315" lon="6.51691">
        <ele>1092</ele>
        <time>2018-05-06T11:01:45Z</time>
      </trkpt>
      <trkpt lat="45.8132" lon="6.517">
        <ele>1093</ele>
        <time>2018-05-06T11:02:45Z</time>
      </trkpt>
      <trkpt lat="45.81328" lon="6.51711">
        <ele>1094</ele>
        <time>2018-05-06T11:03:45Z</time>
      </trkpt>
      <trkpt lat="45.81334" lon="6.5172">
        <ele>1080</ele>
        <time>2018-05-06T11:04:45Z</time>
      </trkpt>
      <trkpt lat="45.81341" lon="6.51729">
        <ele>1082</ele>
        <time>2018-05-06T11:05:45Z</time>
      </trkpt>
      <trkpt lat="45.81347" lon="6.51737">
        <ele>1083</ele>
        <time>2018-05-06T11:06:45Z</time>
      </trkpt>
      <trkpt lat="45.81353" lon="6.51744">
        <ele>1082</ele>
        <time>2018-05-06T11:07:45Z</time>
      </trkpt>
      <trkpt lat="45.81359" lon="6.51751">
        <ele>1090</ele>
        <time>2018-05-06T11:08:45Z</time>
      </trkpt>
      <trkpt lat="45.81363" lon="6.51755">
        <ele>1090</ele>
        <time>2018-05-06T11:09:45Z</time>
      </trkpt>
      <trkpt lat="45.8137" lon="6.51763">
        <ele>1088</ele>
        <time>2018-05-06T11:10:45Z</time>
      </trkpt>
      <trkpt lat="45.81375" lon="6.51768">
        <ele>1088</ele>
        <time>2018-05-06T11:11:45Z</time>
      </trkpt>
      <trkpt lat="45.81382" lon="6.51775">
        <ele>1087</ele>
        <time>2018-05-06T11:12:45Z</time>
      </trkpt>
      <trkpt lat="45.81386" lon="6.51779">
        <ele>1086</ele>
        <time>2018-05-06T11:13:45Z</time>
      </trkpt>
      <trkpt lat="45.81408" lon="6.51802">
        <ele>1086</ele>
        <time>2018-05-06T11:14:45Z</time>
      </trkpt>
      <trkpt lat="45.81413" lon="6.51809">
        <ele>1086</ele>
        <time>2018-05-06T11:15:45Z</time>
      </trkpt>
      <trkpt lat="45.81417" lon="6.51815">
        <ele>1072</ele>
        <time>2018-05-06T11:16:45Z</time>
      </trkpt>
      <trkpt lat="45.81421" lon="6.51822">
        <ele>1074</ele>
        <time>2018-05-06T11:17:45Z</time>
      </trkpt>
      <trkpt lat="45.81426" lon="6.51832">
        <ele>1076</ele>
        <time>2018-05-06T11:18:45Z</time>
      </trkpt>
      <trkpt lat="45.81434" lon="6.51847">
        <ele>1080</ele>
        <time>2018-05-06T11:19:45Z</time>
      </trkpt>
      <trkpt lat="45.81441" lon="6.5186">
        <ele>1080</ele>
        <time>2018-05-06T11:20:45Z</time>
      </trkpt>
      <trkpt lat="45.81446" lon="6.5187">
        <ele>1080</ele>
        <time>2018-05-06T11:21:45Z</time>
      </trkpt>
      <trkpt lat="45.81453" lon="6.51882">
        <ele>1080</ele>
        <time>2018-05-06T11:22:45Z</time>
      </trkpt>
      <trkpt lat="45.8146" lon="6.51894">
        <ele>1080</ele>
        <time>2018-05-06T11:23:45Z</time>
      </trkpt>
      <trkpt lat="45.8147" lon="6.51911">
        <ele>1080</ele>
        <time>2018-05-06T11:24:45Z</time>
      </trkpt>
      <trkpt lat="45.81489" lon="6.51949">
        <ele>1090</ele>
        <time>2018-05-06T11:25:45Z</time>
      </trkpt>
      <trkpt lat="45.81524" lon="6.52012">
        <ele>1080</ele>
        <time>2018-05-06T11:26:45Z</time>
      </trkpt>
      <trkpt lat="45.81554" lon="6.52064">
        <ele>1075</ele>
        <time>2018-05-06T11:27:45Z</time>
      </trkpt>
      <trkpt lat="45.8156" lon="6.52074">
        <ele>1073</ele>
        <time>2018-05-06T11:28:45Z</time>
      </trkpt>
      <trkpt lat="45.81586" lon="6.52124">
        <ele>1057</ele>
        <time>2018-05-06T11:29:45Z</time>
      </trkpt>
      <trkpt lat="45.81595" lon="6.52143">
        <ele>1059</ele>
        <time>2018-05-06T11:30:45Z</time>
      </trkpt>
      <trkpt lat="45.81605" lon="6.52162">
        <ele>1060</ele>
        <time>2018-05-06T11:31:45Z</time>
      </trkpt>
      <trkpt lat="45.81611" lon="6.52176">
        <ele>1064</ele>
        <time>2018-05-06T11:32:45Z</time>
      </trkpt>
      <trkpt lat="45.81617" lon="6.52188">
        <ele>1062</ele>
        <time>2018-05-06T11:33:45Z</time>
      </trkpt>
      <trkpt lat="45.81621" lon="6.52197">
        <ele>1061</ele>
        <time>2018-05-06T11:34:45Z</time>
      </trkpt>
      <trkpt lat="45.81624" lon="6.52207">
        <ele>1061</ele>
        <time>2018-05-06T11:35:45Z</time>
      </trkpt>
      <trkpt lat="45.81628" lon="6.52217">
        <ele>1061</ele>
        <time>2018-05-06T11:36:45Z</time>
      </trkpt>
      <trkpt lat="45.81632" lon="6.52227">
        <ele>1061</ele>
        <time>2018-05-06T11:37:45Z</time>
      </trkpt>
      <trkpt lat="45.81634" lon="6.52233">
        <ele>1061</ele>
        <time>2018-05-06T11:38:45Z</time>
      </trkpt>
      <trkpt lat="45.81639" lon="6.52249">
        <ele>1060</ele>
        <time>2018-05-06T11:39:45Z</time>
      </trkpt>
      <trkpt lat="45.81642" lon="6.52262">
        <ele>1063</ele>
        <time>2018-05-06T11:40:45Z</time>
      </trkpt>
      <trkpt lat="45.81644" lon="6.52269">
        <ele>1063</ele>
        <time>2018-05-06T11:41:45Z</time>
      </trkpt>
      <trkpt lat="45.81646" lon="6.5228">
        <ele>1063</ele>
        <time>2018-05-06T11:42:45Z</time>
      </trkpt>
      <trkpt lat="45.8165" lon="6.52304">
        <ele>1063</ele>
        <time>2018-05-06T11:43:45Z</time>
      </trkpt>
      <trkpt lat="45.81657" lon="6.52347">
        <ele>1062</ele>
        <time>2018-05-06T11:44:45Z</time>
      </trkpt>
      <trkpt lat="45.81657" lon="6.52347">
        <ele>1062</ele>
        <time>2018-05-06T11:45:45Z</time>
      </trkpt>
      <trkpt lat="45.81663" lon="6.52379">
        <ele>1064</ele>
        <time>2018-05-06T11:46:45Z</time>
      </trkpt>
      <trkpt lat="45.81669" lon="6.52417">
        <ele>1056</ele>
        <time>2018-05-06T11:47:45Z</time>
      </trkpt>
      <trkpt lat="45.81673" lon="6.52439">
        <ele>1049</ele>
        <time>2018-05-06T11:48:45Z</time>
      </trkpt>
      <trkpt lat="45.81676" lon="6.52453">
        <ele>1048</ele>
        <time>2018-05-06T11:49:45Z</time>
      </trkpt>
      <trkpt lat="45.81678" lon="6.52465">
        <ele>1048</ele>
        <time>2018-05-06T11:50:45Z</time>
      </trkpt>
      <trkpt lat="45.81679" lon="6.52474">
        <ele>1048</ele>
        <time>2018-05-06T11:51:45Z</time>
      </trkpt>
      <trkpt lat="45.81681" lon="6.52484">
        <ele>1049</ele>
        <time>2018-05-06T11:52:45Z</time>
      </trkpt>
      <trkpt lat="45.81683" lon="6.52494">
        <ele>1050</ele>
        <time>2018-05-06T11:53:45Z</time>
      </trkpt>
      <trkpt lat="45.81685" lon="6.52503">
        <ele>1051</ele>
        <time>2018-05-06T11:54:45Z</time>
      </trkpt>
      <trkpt lat="45.81686" lon="6.52508">
        <ele>1050</ele>
        <time>2018-05-06T11:55:45Z</time>
      </trkpt>
      <trkpt lat="45.81689" lon="6.52517">
        <ele>1049</ele>
        <time>2018-05-06T11:56:45Z</time>
      </trkpt>
      <trkpt lat="45.81691" lon="6.52527">
        <ele>1048</ele>
        <time>2018-05-06T11:57:45Z</time>
      </trkpt>
      <trkpt lat="45.81693" lon="6.52535">
        <ele>1048</ele>
        <time>2018-05-06T11:58:45Z</time>
      </trkpt>
      <trkpt lat="45.81695" lon="6.52544">
        <ele>1047</ele>
        <time>2018-05-06T11:59:45Z</time>
      </trkpt>
      <trkpt lat="45.81696" lon="6.52551">
        <ele>1047</ele>
        <time>2018-05-06T12:00:45Z</time>
      </trkpt>
      <trkpt lat="45.81698" lon="6.52558">
        <ele>1047</ele>
        <time>2018-05-06T12:01:45Z</time>
      </trkpt>
      <trkpt lat="45.817" lon="6.52566">
        <ele>1047</ele>
        <time>2018-05-06T12:02:45Z</time>
      </trkpt>
      <trkpt lat="45.81702" lon="6.52572">
        <ele>1047</ele>
        <time>2018-05-06T12:03:45Z</time>
      </trkpt>
      <trkpt lat="45.81703" lon="6.52573">
        <ele>1047</ele>
        <time>2018-05-06T12:04:45Z</time>
      </trkpt>
      <trkpt lat="45.81705" lon="6.52579">
        <ele>1046</ele>
        <time>2018-05-06T12:05:45Z</time>
      </trkpt>
      <trkpt lat="45.81709" lon="6.52586">
        <ele>1045</ele>
        <time>2018-05-06T12:06:45Z</time>
      </trkpt>
      <trkpt lat="45.81712" lon="6.52593">
        <ele>1045</ele>
        <time>2018-05-06T12:07:45Z</time>
      </trkpt>
      <trkpt lat="45.81715" lon="6.526">
        <ele>1044</ele>
        <time>2018-05-06T12:08:45Z</time>
      </trkpt>
      <trkpt lat="45.81718" lon="6.52606">
        <ele>1043</ele>
        <time>2018-05-06T12:09:45Z</time>
      </trkpt>
      <trkpt lat="45.81722" lon="6.52614">
        <ele>1043</ele>
        <time>2018-05-06T12:10:45Z</time>
      </trkpt>
      <trkpt lat="45.81724" lon="6.52621">
        <ele>1043</ele>
        <time>2018-05-06T12:11:45Z</time>
      </trkpt>
      <trkpt lat="45.81726" lon="6.52626">
        <ele>1042</ele>
        <time>2018-05-06T12:12:45Z</time>
      </trkpt>
      <trkpt lat="45.8173" lon="6.52635">
        <ele>1041</ele>
        <time>2018-05-06T12:13:45Z</time>
      </trkpt>
      <trkpt lat="45.81732" lon="6.52643">
        <ele>1040</ele>
        <time>2018-05-06T12:14:45Z</time>
      </trkpt>
      <trkpt lat="45.81739" lon="6.52666">
        <ele>1034</ele>
        <time>2018-05-06T12:15:45Z</time>
      </trkpt>
      <trkpt lat="45.81751" lon="6.52709">
        <ele>1023</ele>
        <time>2018-05-06T12:16:45Z</time>
      </trkpt>
      <trkpt lat="45.8176" lon="6.52742">
        <ele>1027</ele>
        <time>2018-05-06T12:17:45Z</time>
      </trkpt>
      <trkpt lat="45.81764" lon="6.52752">
        <ele>1028</ele>
        <time>2018-05-06T12:18:45Z</time>
      </trkpt>
      <trkpt lat="45.81766" lon="6.5276">
        <ele>1027</ele>
        <time>2018-05-06T12:19:45Z</time>
      </trkpt>
      <trkpt lat="45.81768" lon="6.52768">
        <ele>1026</ele>
        <time>2018-05-06T12:20:45Z</time>
      </trkpt>
      <trkpt lat="45.81771" lon="6.52774">
        <ele>1025</ele>
        <time>2018-05-06T12:21:45Z</time>
      </trkpt>
      <trkpt lat="45.81773" lon="6.52781">
        <ele>1024</ele>
        <time>2018-05-06T12:22:45Z</time>
      </trkpt>
      <trkpt lat="45.81776" lon="6.52786">
        <ele>1024</ele>
        <time>2018-05-06T12:23:45Z</time>
      </trkpt>
      <trkpt lat="45.8178" lon="6.52792">
        <ele>1024</ele>
        <time>2018-05-06T12:24:45Z</time>
      </trkpt>
      <trkpt lat="45.81783" lon="6.52797">
        <ele>1023</ele>
        <time>2018-05-06T12:25:45Z</time>
      </trkpt>
      <trkpt lat="45.81793" lon="6.52807">
        <ele>1022</ele>
        <time>2018-05-06T12:26:45Z</time>
      </trkpt>
      <trkpt lat="45.81798" lon="6.52812">
        <ele>1021</ele>
        <time>2018-05-06T12:27:45Z</time>
      </trkpt>
      <trkpt lat="45.81803" lon="6.52818">
        <ele>1020</ele>
        <time>2018-05-06T12:28:45Z</time>
      </trkpt>
      <trkpt lat="45.8181" lon="6.52825">
        <ele>1018</ele>
        <time>2018-05-06T12:29:45Z</time>
      </trkpt>
      <trkpt lat="45.81821" lon="6.52833">
        <ele>1015</ele>
        <time>2018-05-06T12:30:45Z</time>
      </trkpt>
      <trkpt lat="45.81825" lon="6.52838">
        <ele>1016</ele>
        <time>2018-05-06T12:31:45Z</time>
      </trkpt>
      <trkpt lat="45.81829" lon="6.52842">
        <ele>1015</ele>
        <time>2018-05-06T12:32:45Z</time>
      </trkpt>
      <trkpt lat="45.81834" lon="6.52848">
        <ele>1007</ele>
        <time>2018-05-06T12:33:45Z</time>
      </trkpt>
      <trkpt lat="45.81838" lon="6.52855">
        <ele>1006</ele>
        <time>2018-05-06T12:34:45Z</time>
      </trkpt>
      <trkpt lat="45.81843" lon="6.52862">
        <ele>1005</ele>
        <time>2018-05-06T12:35:45Z</time>
      </trkpt>
      <trkpt lat="45.81847" lon="6.5287">
        <ele>1004</ele>
        <time>2018-05-06T12:36:45Z</time>
      </trkpt>
      <trkpt lat="45.81852" lon="6.52882">
        <ele>1004</ele>
        <time>2018-05-06T12:37:45Z</time>
      </trkpt>
      <trkpt lat="45.81861" lon="6.52901">
        <ele>1004</ele>
        <time>2018-05-06T12:38:45Z</time>
      </trkpt>
      <trkpt lat="45.81884" lon="6.52959">
        <ele>1006</ele>
        <time>2018-05-06T12:39:45Z</time>
      </trkpt>
      <trkpt lat="45.81898" lon="6.52994">
        <ele>1004</ele>
        <time>2018-05-06T12:40:45Z</time>
      </trkpt>
      <trkpt lat="45.819" lon="6.52998">
        <ele>1003</ele>
        <time>2018-05-06T12:41:45Z</time>
      </trkpt>
      <trkpt lat="45.81902" lon="6.53002">
        <ele>1006</ele>
        <time>2018-05-06T12:42:45Z</time>
      </trkpt>
      <trkpt lat="45.81906" lon="6.53007">
        <ele>1005</ele>
        <time>2018-05-06T12:43:45Z</time>
      </trkpt>
      <trkpt lat="45.81908" lon="6.53009">
        <ele>1005</ele>
        <time>2018-05-06T12:44:45Z</time>
      </trkpt>
      <trkpt lat="45.81911" lon="6.5301">
        <ele>1004</ele>
        <time>2018-05-06T12:45:45Z</time>
      </trkpt>
      <trkpt lat="45.81915" lon="6.5301">
        <ele>1004</ele>
        <time>2018-05-06T12:46:45Z</time>
      </trkpt>
      <trkpt lat="45.81918" lon="6.5301">
        <ele>998</ele>
        <time>2018-05-06T12:47:45Z</time>
      </trkpt>
      <trkpt lat="45.8192" lon="6.5301">
        <ele>997</ele>
        <time>2018-05-06T12:48:45Z</time>
      </trkpt>
      <trkpt lat="45.81923" lon="6.53009">
        <ele>997</ele>
        <time>2018-05-06T12:49:45Z</time>
      </trkpt>
      <trkpt lat="45.81927" lon="6.53008">
        <ele>997</ele>
        <time>2018-05-06T12:50:45Z</time>
      </trkpt>
      <trkpt lat="45.81929" lon="6.53006">
        <ele>997</ele>
        <time>2018-05-06T12:51:45Z</time>
      </trkpt>
      <trkpt lat="45.81931" lon="6.53004">
        <ele>997</ele>
        <time>2018-05-06T12:52:45Z</time>
      </trkpt>
      <trkpt lat="45.81933" lon="6.53">
        <ele>996</ele>
        <time>2018-05-06T12:53:45Z</time>
      </trkpt>
      <trkpt lat="45.81936" lon="6.52996">
        <ele>994</ele>
        <time>2018-05-06T12:54:45Z</time>
      </trkpt>
      <trkpt lat="45.81937" lon="6.52992">
        <ele>993</ele>
        <time>2018-05-06T12:55:45Z</time>
      </trkpt>
      <trkpt lat="45.81938" lon="6.52988">
        <ele>993</ele>
        <time>2018-05-06T12:56:45Z</time>
      </trkpt>
      <trkpt lat="45.81939" lon="6.52983">
        <ele>992</ele>
        <time>2018-05-06T12:57:45Z</time>
      </trkpt>
      <trkpt lat="45.81939" lon="6.52977">
        <ele>992</ele>
        <time>2018-05-06T12:58:45Z</time>
      </trkpt>
      <trkpt lat="45.81939" lon="6.52972">
        <ele>992</ele>
        <time>2018-05-06T12:59:45Z</time>
      </trkpt>
      <trkpt lat="45.81939" lon="6.52964">
        <ele>991</ele>
        <time>2018-05-06T13:00:45Z</time>
      </trkpt>
      <trkpt lat="45.81939" lon="6.52957">
        <ele>991</ele>
        <time>2018-05-06T13:01:45Z</time>
      </trkpt>
      <trkpt lat="45.81938" lon="6.52948">
        <ele>991</ele>
        <time>2018-05-06T13:02:45Z</time>
      </trkpt>
      <trkpt lat="45.81938" lon="6.52939">
        <ele>991</ele>
        <time>2018-05-06T13:03:45Z</time>
      </trkpt>
      <trkpt lat="45.81937" lon="6.5293">
        <ele>991</ele>
        <time>2018-05-06T13:04:45Z</time>
      </trkpt>
      <trkpt lat="45.81935" lon="6.52914">
        <ele>989</ele>
        <time>2018-05-06T13:05:45Z</time>
      </trkpt>
      <trkpt lat="45.81935" lon="6.52895">
        <ele>988</ele>
        <time>2018-05-06T13:06:45Z</time>
      </trkpt>
      <trkpt lat="45.81935" lon="6.52885">
        <ele>987</ele>
        <time>2018-05-06T13:07:45Z</time>
      </trkpt>
      <trkpt lat="45.81935" lon="6.52878">
        <ele>987</ele>
        <time>2018-05-06T13:08:45Z</time>
      </trkpt>
      <trkpt lat="45.81936" lon="6.52868">
        <ele>986</ele>
        <time>2018-05-06T13:09:45Z</time>
      </trkpt>
      <trkpt lat="45.81937" lon="6.52853">
        <ele>986</ele>
        <time>2018-05-06T13:10:45Z</time>
      </trkpt>
      <trkpt lat="45.81938" lon="6.52832">
        <ele>985</ele>
        <time>2018-05-06T13:11:45Z</time>
      </trkpt>
      <trkpt lat="45.81938" lon="6.52822">
        <ele>985</ele>
        <time>2018-05-06T13:12:45Z</time>
      </trkpt>
      <trkpt lat="45.81939" lon="6.52814">
        <ele>984</ele>
        <time>2018-05-06T13:13:45Z</time>
      </trkpt>
      <trkpt lat="45.81939" lon="6.52808">
        <ele>984</ele>
        <time>2018-05-06T13:14:45Z</time>
      </trkpt>
      <trkpt lat="45.8194" lon="6.52801">
        <ele>984</ele>
        <time>2018-05-06T13:15:45Z</time>
      </trkpt>
      <trkpt lat="45.81942" lon="6.52794">
        <ele>984</ele>
        <time>2018-05-06T13:16:45Z</time>
      </trkpt>
      <trkpt lat="45.81944" lon="6.52786">
        <ele>983</ele>
        <time>2018-05-06T13:17:45Z</time>
      </trkpt>
      <trkpt lat="45.81946" lon="6.52782">
        <ele>983</ele>
        <time>2018-05-06T13:18:45Z</time>
      </trkpt>
      <trkpt lat="45.81949" lon="6.52779">
        <ele>983</ele>
        <time>2018-05-06T13:19:45Z</time>
      </trkpt>
      <trkpt lat="45.81952" lon="6.52778">
        <ele>983</ele>
        <time>2018-05-06T13:20:45Z</time>
      </trkpt>
      <trkpt lat="45.81955" lon="6.52776">
        <ele>983</ele>
        <time>2018-05-06T13:21:45Z</time>
      </trkpt>
      <trkpt lat="45.81958" lon="6.52775">
        <ele>983</ele>
        <time>2018-05-06T13:22:45Z</time>
      </trkpt>
      <trkpt lat="45.8196" lon="6.52775">
        <ele>983</ele>
        <time>2018-05-06T13:23:45Z</time>
      </trkpt>
      <trkpt lat="45.81964" lon="6.52775">
        <ele>982</ele>
        <time>2018-05-06T13:24:45Z</time>
      </trkpt>
      <trkpt lat="45.81966" lon="6.52776">
        <ele>982</ele>
        <time>2018-05-06T13:25:45Z</time>
      </trkpt>
      <trkpt lat="45.8197" lon="6.52778">
        <ele>982</ele>
        <time>2018-05-06T13:26:45Z</time>
      </trkpt>
      <trkpt lat="45.81973" lon="6.5278">
        <ele>982</ele>
        <time>2018-05-06T13:27:45Z</time>
      </trkpt>
      <trkpt lat="45.81984" lon="6.52792">
        <ele>982</ele>
        <time>2018-05-06T13:28:45Z</time>
      </trkpt>
      <trkpt lat="45.82012" lon="6.52826">
        <ele>977</ele>
        <time>2018-05-06T13:29:45Z</time>
      </trkpt>
      <trkpt lat="45.82043" lon="6.52867">
        <ele>976</ele>
        <time>2018-05-06T13:30:45Z</time>
      </trkpt>
      <trkpt lat="45.82056" lon="6.52884">
        <ele>975</ele>
        <time>2018-05-06T13:31:45Z</time>
      </trkpt>
      <trkpt lat="45.82062" lon="6.52894">
        <ele>974</ele>
        <time>2018-05-06T13:32:45Z</time>
      </trkpt>
      <trkpt lat="45.82067" lon="6.52902">
        <ele>973</ele>
        <time>2018-05-06T13:33:45Z</time>
      </trkpt>
      <trkpt lat="45.82072" lon="6.52911">
        <ele>972</ele>
        <time>2018-05-06T13:34:45Z</time>
      </trkpt>
      <trkpt lat="45.82077" lon="6.52923">
        <ele>971</ele>
        <time>2018-05-06T13:35:45Z</time>
      </trkpt>
      <trkpt lat="45.82091" lon="6.52962">
        <ele>966</ele>
        <time>2018-05-06T13:36:45Z</time>
      </trkpt>
      <trkpt lat="45.82109" lon="6.53015">
        <ele>966</ele>
        <time>2018-05-06T13:37:45Z</time>
      </trkpt>
      <trkpt lat="45.8212" lon="6.53056">
        <ele>966</ele>
        <time>2018-05-06T13:38:45Z</time>
      </trkpt>
      <trkpt lat="45.82121" lon="6.53068">
        <ele>966</ele>
        <time>2018-05-06T13:39:45Z</time>
      </trkpt>
      <trkpt lat="45.82121" lon="6.53073">
        <ele>966</ele>
        <time>2018-05-06T13:40:45Z</time>
      </trkpt>
      <trkpt lat="45.82121" lon="6.53082">
        <ele>966</ele>
        <time>2018-05-06T13:41:45Z</time>
      </trkpt>
      <trkpt lat="45.82121" lon="6.53089">
        <ele>966</ele>
        <time>2018-05-06T13:42:45Z</time>
      </trkpt>
      <trkpt lat="45.8212" lon="6.53099">
        <ele>966</ele>
        <time>2018-05-06T13:43:45Z</time>
      </trkpt>
      <trkpt lat="45.8212" lon="6.53099">
        <ele>966</ele>
        <time>2018-05-06T13:44:45Z</time>
      </trkpt>
      <trkpt lat="45.8212" lon="6.53103">
        <ele>966</ele>
        <time>2018-05-06T13:45:45Z</time>
      </trkpt>
      <trkpt lat="45.82121" lon="6.53109">
        <ele>965</ele>
        <time>2018-05-06T13:46:45Z</time>
      </trkpt>
      <trkpt lat="45.82121" lon="6.53111">
        <ele>965</ele>
        <time>2018-05-06T13:47:45Z</time>
      </trkpt>
      <trkpt lat="45.82122" lon="6.53114">
        <ele>965</ele>
        <time>2018-05-06T13:48:45Z</time>
      </trkpt>
      <trkpt lat="45.82123" lon="6.53116">
        <ele>965</ele>
        <time>2018-05-06T13:49:45Z</time>
      </trkpt>
      <trkpt lat="45.82124" lon="6.53118">
        <ele>965</ele>
        <time>2018-05-06T13:50:45Z</time>
      </trkpt>
      <trkpt lat="45.82125" lon="6.53119">
        <ele>965</ele>
        <time>2018-05-06T13:51:45Z</time>
      </trkpt>
      <trkpt lat="45.82126" lon="6.53119">
        <ele>965</ele>
        <time>2018-05-06T13:52:45Z</time>
      </trkpt>
      <trkpt lat="45.82127" lon="6.53119">
        <ele>965</ele>
        <time>2018-05-06T13:53:45Z</time>
      </trkpt>
      <trkpt lat="45.82129" lon="6.53119">
        <ele>965</ele>
        <time>2018-05-06T13:54:45Z</time>
      </trkpt>
      <trkpt lat="45.82132" lon="6.53118">
        <ele>965</ele>
        <time>2018-05-06T13:55:45Z</time>
      </trkpt>
      <trkpt lat="45.82133" lon="6.53116">
        <ele>965</ele>
        <time>2018-05-06T13:56:45Z</time>
      </trkpt>
      <trkpt lat="45.82133" lon="6.53115">
        <ele>965</ele>
        <time>2018-05-06T13:57:45Z</time>
      </trkpt>
      <trkpt lat="45.82134" lon="6.53113">
        <ele>965</ele>
        <time>2018-05-06T13:58:45Z</time>
      </trkpt>
      <trkpt lat="45.82135" lon="6.5311">
        <ele>965</ele>
        <time>2018-05-06T13:59:45Z</time>
      </trkpt>
      <trkpt lat="45.82135" lon="6.53107">
        <ele>965</ele>
        <time>2018-05-06T14:00:45Z</time>
      </trkpt>
      <trkpt lat="45.82134" lon="6.53106">
        <ele>965</ele>
        <time>2018-05-06T14:01:45Z</time>
      </trkpt>
      <trkpt lat="45.82141" lon="6.53107">
        <ele>965</ele>
        <time>2018-05-06T14:02:45Z</time>
      </trkpt>
      <trkpt lat="45.82141" lon="6.53107">
        <ele>965</ele>
        <time>2018-05-06T14:03:45Z</time>
      </trkpt>
      <trkpt lat="45.82145" lon="6.53128">
        <ele>964</ele>
        <time>2018-05-06T14:04:45Z</time>
      </trkpt>
      <trkpt lat="45.82149" lon="6.53135">
        <ele>964</ele>
        <time>2018-05-06T14:05:45Z</time>
      </trkpt>
      <trkpt lat="45.82152" lon="6.53142">
        <ele>963</ele>
        <time>2018-05-06T14:06:45Z</time>
      </trkpt>
      <trkpt lat="45.82158" lon="6.53151">
        <ele>962</ele>
        <time>2018-05-06T14:07:45Z</time>
      </trkpt>
      <trkpt lat="45.82175" lon="6.53178">
        <ele>963</ele>
        <time>2018-05-06T14:08:45Z</time>
      </trkpt>
      <trkpt lat="45.82182" lon="6.53191">
        <ele>965</ele>
        <time>2018-05-06T14:09:45Z</time>
      </trkpt>
      <trkpt lat="45.82187" lon="6.532">
        <ele>965</ele>
        <time>2018-05-06T14:10:45Z</time>
      </trkpt>
      <trkpt lat="45.82191" lon="6.53209">
        <ele>966</ele>
        <time>2018-05-06T14:11:45Z</time>
      </trkpt>
      <trkpt lat="45.82195" lon="6.5322">
        <ele>965</ele>
        <time>2018-05-06T14:12:45Z</time>
      </trkpt>
      <trkpt lat="45.82198" lon="6.53229">
        <ele>965</ele>
        <time>2018-05-06T14:13:45Z</time>
      </trkpt>
      <trkpt lat="45.82201" lon="6.53237">
        <ele>965</ele>
        <time>2018-05-06T14:14:45Z</time>
      </trkpt>
      <trkpt lat="45.82203" lon="6.53243">
        <ele>965</ele>
        <time>2018-05-06T14:15:45Z</time>
      </trkpt>
      <trkpt lat="45.82206" lon="6.5325">
        <ele>966</ele>
        <time>2018-05-06T14:16:45Z</time>
      </trkpt>
      <trkpt lat="45.82208" lon="6.53255">
        <ele>962</ele>
        <time>2018-05-06T14:17:45Z</time>
      </trkpt>
      <trkpt lat="45.8221" lon="6.53259">
        <ele>962</ele>
        <time>2018-05-06T14:18:45Z</time>
      </trkpt>
      <trkpt lat="45.82213" lon="6.53264">
        <ele>962</ele>
        <time>2018-05-06T14:19:45Z</time>
      </trkpt>
      <trkpt lat="45.82216" lon="6.53269">
        <ele>962</ele>
        <time>2018-05-06T14:20:45Z</time>
      </trkpt>
      <trkpt lat="45.82219" lon="6.53273">
        <ele>962</ele>
        <time>2018-05-06T14:21:45Z</time>
      </trkpt>
      <trkpt lat="45.82222" lon="6.53277">
        <ele>962</ele>
        <time>2018-05-06T14:22:45Z</time>
      </trkpt>
      <trkpt lat="45.82226" lon="6.53281">
        <ele>963</ele>
        <time>2018-05-06T14:23:45Z</time>
      </trkpt>
      <trkpt lat="45.82231" lon="6.53286">
        <ele>963</ele>
        <time>2018-05-06T14:24:45Z</time>
      </trkpt>
      <trkpt lat="45.82239" lon="6.53292">
        <ele>963</ele>
        <time>2018-05-06T14:25:45Z</time>
      </trkpt>
      <trkpt lat="45.8225" lon="6.53302">
        <ele>962</ele>
        <time>2018-05-06T14:26:45Z</time>
      </trkpt>
      <trkpt lat="45.82262" lon="6.53311">
        <ele>971</ele>
        <time>2018-05-06T14:27:45Z</time>
      </trkpt>
      <trkpt lat="45.82273" lon="6.5332">
        <ele>972</ele>
        <time>2018-05-06T14:28:45Z</time>
      </trkpt>
      <trkpt lat="45.82284" lon="6.53331">
        <ele>973</ele>
        <time>2018-05-06T14:29:45Z</time>
      </trkpt>
      <trkpt lat="45.82296" lon="6.53346">
        <ele>971</ele>
        <time>2018-05-06T14:30:45Z</time>
      </trkpt>
      <trkpt lat="45.82307" lon="6.53361">
        <ele>972</ele>
        <time>2018-05-06T14:31:45Z</time>
      </trkpt>
      <trkpt lat="45.82316" lon="6.53374">
        <ele>972</ele>
        <time>2018-05-06T14:32:45Z</time>
      </trkpt>
      <trkpt lat="45.82322" lon="6.53383">
        <ele>972</ele>
        <time>2018-05-06T14:33:45Z</time>
      </trkpt>
      <trkpt lat="45.82324" lon="6.53388">
        <ele>972</ele>
        <time>2018-05-06T14:34:45Z</time>
      </trkpt>
      <trkpt lat="45.82327" lon="6.53394">
        <ele>972</ele>
        <time>2018-05-06T14:35:45Z</time>
      </trkpt>
      <trkpt lat="45.82329" lon="6.53399">
        <ele>972</ele>
        <time>2018-05-06T14:36:45Z</time>
      </trkpt>
      <trkpt lat="45.82331" lon="6.53405">
        <ele>972</ele>
        <time>2018-05-06T14:37:45Z</time>
      </trkpt>
      <trkpt lat="45.82333" lon="6.53411">
        <ele>973</ele>
        <time>2018-05-06T14:38:45Z</time>
      </trkpt>
      <trkpt lat="45.82334" lon="6.53419">
        <ele>975</ele>
        <time>2018-05-06T14:39:45Z</time>
      </trkpt>
      <trkpt lat="45.82336" lon="6.53426">
        <ele>977</ele>
        <time>2018-05-06T14:40:45Z</time>
      </trkpt>
      <trkpt lat="45.82338" lon="6.53434">
        <ele>978</ele>
        <time>2018-05-06T14:41:45Z</time>
      </trkpt>
      <trkpt lat="45.8234" lon="6.53442">
        <ele>979</ele>
        <time>2018-05-06T14:42:45Z</time>
      </trkpt>
      <trkpt lat="45.82342" lon="6.53449">
        <ele>980</ele>
        <time>2018-05-06T14:43:45Z</time>
      </trkpt>
      <trkpt lat="45.82344" lon="6.53455">
        <ele>980</ele>
        <time>2018-05-06T14:44:45Z</time>
      </trkpt>
      <trkpt lat="45.82347" lon="6.53461">
        <ele>980</ele>
        <time>2018-05-06T14:45:45Z</time>
      </trkpt>
      <trkpt lat="45.82349" lon="6.53466">
        <ele>979</ele>
        <time>2018-05-06T14:46:45Z</time>
      </trkpt>
      <trkpt lat="45.82352" lon="6.53473">
        <ele>979</ele>
        <time>2018-05-06T14:47:45Z</time>
      </trkpt>
      <trkpt lat="45.82356" lon="6.53478">
        <ele>979</ele>
        <time>2018-05-06T14:48:45Z</time>
      </trkpt>
      <trkpt lat="45.8236" lon="6.53484">
        <ele>979</ele>
        <time>2018-05-06T14:49:45Z</time>
      </trkpt>
      <trkpt lat="45.82363" lon="6.5349">
        <ele>980</ele>
        <time>2018-05-06T14:50:45Z</time>
      </trkpt>
      <trkpt lat="45.82368" lon="6.53496">
        <ele>981</ele>
        <time>2018-05-06T14:51:45Z</time>
      </trkpt>
      <trkpt lat="45.82377" lon="6.53504">
        <ele>977</ele>
        <time>2018-05-06T14:52:45Z</time>
      </trkpt>
      <trkpt lat="45.82388" lon="6.53515">
        <ele>979</ele>
        <time>2018-05-06T14:53:45Z</time>
      </trkpt>
      <trkpt lat="45.82395" lon="6.53522">
        <ele>979</ele>
        <time>2018-05-06T14:54:45Z</time>
      </trkpt>
      <trkpt lat="45.82402" lon="6.5353">
        <ele>979</ele>
        <time>2018-05-06T14:55:45Z</time>
      </trkpt>
      <trkpt lat="45.82407" lon="6.53535">
        <ele>979</ele>
        <time>2018-05-06T14:56:45Z</time>
      </trkpt>
      <trkpt lat="45.82412" lon="6.53542">
        <ele>979</ele>
        <time>2018-05-06T14:57:45Z</time>
      </trkpt>
      <trkpt lat="45.82419" lon="6.53554">
        <ele>991</ele>
        <time>2018-05-06T14:58:45Z</time>
      </trkpt>
      <trkpt lat="45.8243" lon="6.53572">
        <ele>988</ele>
        <time>2018-05-06T14:59:45Z</time>
      </trkpt>
      <trkpt lat="45.82442" lon="6.53593">
        <ele>986</ele>
        <time>2018-05-06T15:00:45Z</time>
      </trkpt>
      <trkpt lat="45.82456" lon="6.53614">
        <ele>989</ele>
        <time>2018-05-06T15:01:45Z</time>
      </trkpt>
      <trkpt lat="45.82465" lon="6.53632">
        <ele>990</ele>
        <time>2018-05-06T15:02:45Z</time>
      </trkpt>
      <trkpt lat="45.82469" lon="6.53645">
        <ele>990</ele>
        <time>2018-05-06T15:03:45Z</time>
      </trkpt>
      <trkpt lat="45.82471" lon="6.53655">
        <ele>991</ele>
        <time>2018-05-06T15:04:45Z</time>
      </trkpt>
      <trkpt lat="45.8247" lon="6.53672">
        <ele>990</ele>
        <time>2018-05-06T15:05:45Z</time>
      </trkpt>
      <trkpt lat="45.82469" lon="6.53688">
        <ele>990</ele>
        <time>2018-05-06T15:06:45Z</time>
      </trkpt>
      <trkpt lat="45.82464" lon="6.53709">
        <ele>989</ele>
        <time>2018-05-06T15:07:45Z</time>
      </trkpt>
      <trkpt lat="45.82464" lon="6.53724">
        <ele>989</ele>
        <time>2018-05-06T15:08:45Z</time>
      </trkpt>
      <trkpt lat="45.82462" lon="6.53733">
        <ele>989</ele>
        <time>2018-05-06T15:09:45Z</time>
      </trkpt>
      <trkpt lat="45.82462" lon="6.53745">
        <ele>989</ele>
        <time>2018-05-06T15:10:45Z</time>
      </trkpt>
      <trkpt lat="45.82462" lon="6.53758">
        <ele>989</ele>
        <time>2018-05-06T15:11:45Z</time>
      </trkpt>
      <trkpt lat="45.82463" lon="6.53774">
        <ele>989</ele>
        <time>2018-05-06T15:12:45Z</time>
      </trkpt>
      <trkpt lat="45.82466" lon="6.53789">
        <ele>989</ele>
        <time>2018-05-06T15:13:45Z</time>
      </trkpt>
      <trkpt lat="45.82469" lon="6.53808">
        <ele>990</ele>
        <time>2018-05-06T15:14:45Z</time>
      </trkpt>
      <trkpt lat="45.82473" lon="6.53827">
        <ele>991</ele>
        <time>2018-05-06T15:15:45Z</time>
      </trkpt>
      <trkpt lat="45.82478" lon="6.53845">
        <ele>991</ele>
        <time>2018-05-06T15:16:45Z</time>
      </trkpt>
      <trkpt lat="45.82481" lon="6.53853">
        <ele>991</ele>
        <time>2018-05-06T15:17:45Z</time>
      </trkpt>
      <trkpt lat="45.82484" lon="6.53861">
        <ele>991</ele>
        <time>2018-05-06T15:18:45Z</time>
      </trkpt>
      <trkpt lat="45.82488" lon="6.5387">
        <ele>991</ele>
        <time>2018-05-06T15:19:45Z</time>
      </trkpt>
      <trkpt lat="45.82493" lon="6.53879">
        <ele>991</ele>
        <time>2018-05-06T15:20:45Z</time>
      </trkpt>
      <trkpt lat="45.82499" lon="6.5389">
        <ele>991</ele>
        <time>2018-05-06T15:21:45Z</time>
      </trkpt>
      <trkpt lat="45.8251" lon="6.53908">
        <ele>1000</ele>
        <time>2018-05-06T15:22:45Z</time>
      </trkpt>
      <trkpt lat="45.82534" lon="6.53945">
        <ele>1000</ele>
        <time>2018-05-06T15:23:45Z</time>
      </trkpt>
      <trkpt lat="45.82551" lon="6.53972">
        <ele>1001</ele>
        <time>2018-05-06T15:24:45Z</time>
      </trkpt>
      <trkpt lat="45.8256" lon="6.53984">
        <ele>1002</ele>
        <time>2018-05-06T15:25:45Z</time>
      </trkpt>
      <trkpt lat="45.82568" lon="6.53995">
        <ele>1003</ele>
        <time>2018-05-06T15:26:45Z</time>
      </trkpt>
      <trkpt lat="45.82575" lon="6.54003">
        <ele>1002</ele>
        <time>2018-05-06T15:27:45Z</time>
      </trkpt>
      <trkpt lat="45.82582" lon="6.54011">
        <ele>1001</ele>
        <time>2018-05-06T15:28:45Z</time>
      </trkpt>
      <trkpt lat="45.82588" lon="6.54016">
        <ele>1008</ele>
        <time>2018-05-06T15:29:45Z</time>
      </trkpt>
      <trkpt lat="45.82591" lon="6.54019">
        <ele>1008</ele>
        <time>2018-05-06T15:30:45Z</time>
      </trkpt>
      <trkpt lat="45.82594" lon="6.54021">
        <ele>1009</ele>
        <time>2018-05-06T15:31:45Z</time>
      </trkpt>
      <trkpt lat="45.82606" lon="6.54032">
        <ele>1010</ele>
        <time>2018-05-06T15:32:45Z</time>
      </trkpt>
      <trkpt lat="45.82609" lon="6.54035">
        <ele>1010</ele>
        <time>2018-05-06T15:33:45Z</time>
      </trkpt>
      <trkpt lat="45.82617" lon="6.54042">
        <ele>1010</ele>
        <time>2018-05-06T15:34:45Z</time>
      </trkpt>
      <trkpt lat="45.82625" lon="6.5405">
        <ele>1011</ele>
        <time>2018-05-06T15:35:45Z</time>
      </trkpt>
      <trkpt lat="45.82631" lon="6.54057">
        <ele>1011</ele>
        <time>2018-05-06T15:36:45Z</time>
      </trkpt>
      <trkpt lat="45.82635" lon="6.54064">
        <ele>1012</ele>
        <time>2018-05-06T15:37:45Z</time>
      </trkpt>
      <trkpt lat="45.82639" lon="6.54069">
        <ele>1012</ele>
        <time>2018-05-06T15:38:45Z</time>
      </trkpt>
      <trkpt lat="45.82643" lon="6.54076">
        <ele>1013</ele>
        <time>2018-05-06T15:39:45Z</time>
      </trkpt>
      <trkpt lat="45.82649" lon="6.54089">
        <ele>1009</ele>
        <time>2018-05-06T15:40:45Z</time>
      </trkpt>
      <trkpt lat="45.82666" lon="6.54132">
        <ele>1007</ele>
        <time>2018-05-06T15:41:45Z</time>
      </trkpt>
      <trkpt lat="45.82686" lon="6.54182">
        <ele>1016</ele>
        <time>2018-05-06T15:42:45Z</time>
      </trkpt>
      <trkpt lat="45.82705" lon="6.54234">
        <ele>1018</ele>
        <time>2018-05-06T15:43:45Z</time>
      </trkpt>
      <trkpt lat="45.82717" lon="6.54274">
        <ele>1015</ele>
        <time>2018-05-06T15:44:45Z</time>
      </trkpt>
      <trkpt lat="45.82724" lon="6.54296">
        <ele>1015</ele>
        <time>2018-05-06T15:45:45Z</time>
      </trkpt>
      <trkpt lat="45.82726" lon="6.54305">
        <ele>1015</ele>
        <time>2018-05-06T15:46:45Z</time>
      </trkpt>
      <trkpt lat="45.82727" lon="6.54311">
        <ele>1015</ele>
        <time>2018-05-06T15:47:45Z</time>
      </trkpt>
      <trkpt lat="45.82728" lon="6.54317">
        <ele>1015</ele>
        <time>2018-05-06T15:48:45Z</time>
      </trkpt>
      <trkpt lat="45.82729" lon="6.54323">
        <ele>1016</ele>
        <time>2018-05-06T15:49:45Z</time>
      </trkpt>
      <trkpt lat="45.8273" lon="6.54329">
        <ele>1016</ele>
        <time>2018-05-06T15:50:45Z</time>
      </trkpt>
      <trkpt lat="45.8273" lon="6.54336">
        <ele>1014</ele>
        <time>2018-05-06T15:51:45Z</time>
      </trkpt>
      <trkpt lat="45.82731" lon="6.54342">
        <ele>1014</ele>
        <time>2018-05-06T15:52:45Z</time>
      </trkpt>
      <trkpt lat="45.82731" lon="6.54348">
        <ele>1014</ele>
        <time>2018-05-06T15:53:45Z</time>
      </trkpt>
      <trkpt lat="45.82731" lon="6.54355">
        <ele>1013</ele>
        <time>2018-05-06T15:54:45Z</time>
      </trkpt>
      <trkpt lat="45.82731" lon="6.5436">
        <ele>1013</ele>
        <time>2018-05-06T15:55:45Z</time>
      </trkpt>
      <trkpt lat="45.8273" lon="6.54367">
        <ele>1012</ele>
        <time>2018-05-06T15:56:45Z</time>
      </trkpt>
      <trkpt lat="45.8273" lon="6.54373">
        <ele>1012</ele>
        <time>2018-05-06T15:57:45Z</time>
      </trkpt>
      <trkpt lat="45.82729" lon="6.54379">
        <ele>1012</ele>
        <time>2018-05-06T15:58:45Z</time>
      </trkpt>
      <trkpt lat="45.82729" lon="6.54386">
        <ele>1012</ele>
        <time>2018-05-06T15:59:45Z</time>
      </trkpt>
      <trkpt lat="45.82729" lon="6.54391">
        <ele>1012</ele>
        <time>2018-05-06T16:00:45Z</time>
      </trkpt>
      <trkpt lat="45.82728" lon="6.54398">
        <ele>1012</ele>
        <time>2018-05-06T16:01:45Z</time>
      </trkpt>
      <trkpt lat="45.82728" lon="6.544">
        <ele>1013</ele>
        <time>2018-05-06T16:02:45Z</time>
      </trkpt>
      <trkpt lat="45.82727" lon="6.54405">
        <ele>1013</ele>
        <time>2018-05-06T16:03:45Z</time>
      </trkpt>
      <trkpt lat="45.82726" lon="6.5441">
        <ele>1013</ele>
        <time>2018-05-06T16:04:45Z</time>
      </trkpt>
      <trkpt lat="45.82725" lon="6.54414">
        <ele>1013</ele>
        <time>2018-05-06T16:05:45Z</time>
      </trkpt>
      <trkpt lat="45.82724" lon="6.5442">
        <ele>1012</ele>
        <time>2018-05-06T16:06:45Z</time>
      </trkpt>
      <trkpt lat="45.82726" lon="6.54428">
        <ele>1012</ele>
        <time>2018-05-06T16:07:45Z</time>
      </trkpt>
      <trkpt lat="45.82727" lon="6.54437">
        <ele>1012</ele>
        <time>2018-05-06T16:08:45Z</time>
      </trkpt>
      <trkpt lat="45.82728" lon="6.54446">
        <ele>1012</ele>
        <time>2018-05-06T16:09:45Z</time>
      </trkpt>
      <trkpt lat="45.8273" lon="6.54455">
        <ele>1012</ele>
        <time>2018-05-06T16:10:45Z</time>
      </trkpt>
      <trkpt lat="45.82731" lon="6.54465">
        <ele>1012</ele>
        <time>2018-05-06T16:11:45Z</time>
      </trkpt>
      <trkpt lat="45.82733" lon="6.54475">
        <ele>1012</ele>
        <time>2018-05-06T16:12:45Z</time>
      </trkpt>
      <trkpt lat="45.82736" lon="6.54485">
        <ele>1014</ele>
        <time>2018-05-06T16:13:45Z</time>
      </trkpt>
      <trkpt lat="45.82738" lon="6.54494">
        <ele>1015</ele>
        <time>2018-05-06T16:14:45Z</time>
      </trkpt>
      <trkpt lat="45.82739" lon="6.545">
        <ele>1016</ele>
        <time>2018-05-06T16:15:45Z</time>
      </trkpt>
      <trkpt lat="45.82739" lon="6.545">
        <ele>1016</ele>
        <time>2018-05-06T16:16:45Z</time>
      </trkpt>
      <trkpt lat="45.82748" lon="6.54496">
        <ele>1018</ele>
        <time>2018-05-06T16:17:45Z</time>
      </trkpt>
      <trkpt lat="45.82754" lon="6.54495">
        <ele>1022</ele>
        <time>2018-05-06T16:18:45Z</time>
      </trkpt>
      <trkpt lat="45.82758" lon="6.54497">
        <ele>1023</ele>
        <time>2018-05-06T16:19:45Z</time>
      </trkpt>
      <trkpt lat="45.82762" lon="6.54501">
        <ele>1023</ele>
        <time>2018-05-06T16:20:45Z</time>
      </trkpt>
      <trkpt lat="45.82766" lon="6.54508">
        <ele>1023</ele>
        <time>2018-05-06T16:21:45Z</time>
      </trkpt>
      <trkpt lat="45.82769" lon="6.54511">
        <ele>1024</ele>
        <time>2018-05-06T16:22:45Z</time>
      </trkpt>
      <trkpt lat="45.82776" lon="6.54517">
        <ele>1025</ele>
        <time>2018-05-06T16:23:45Z</time>
      </trkpt>
      <trkpt lat="45.8278" lon="6.54522">
        <ele>1026</ele>
        <time>2018-05-06T16:24:45Z</time>
      </trkpt>
      <trkpt lat="45.82783" lon="6.54524">
        <ele>1026</ele>
        <time>2018-05-06T16:25:45Z</time>
      </trkpt>
      <trkpt lat="45.82786" lon="6.54527">
        <ele>1026</ele>
        <time>2018-05-06T16:26:45Z</time>
      </trkpt>
      <trkpt lat="45.82788" lon="6.54528">
        <ele>1026</ele>
        <time>2018-05-06T16:27:45Z</time>
      </trkpt>
      <trkpt lat="45.8279" lon="6.5453">
        <ele>1027</ele>
        <time>2018-05-06T16:28:45Z</time>
      </trkpt>
      <trkpt lat="45.82792" lon="6.5453">
        <ele>1027</ele>
        <time>2018-05-06T16:29:45Z</time>
      </trkpt>
      <trkpt lat="45.82793" lon="6.5453">
        <ele>1027</ele>
        <time>2018-05-06T16:30:45Z</time>
      </trkpt>
      <trkpt lat="45.82795" lon="6.54529">
        <ele>1027</ele>
        <time>2018-05-06T16:31:45Z</time>
      </trkpt>
      <trkpt lat="45.82797" lon="6.54527">
        <ele>1028</ele>
        <time>2018-05-06T16:32:45Z</time>
      </trkpt>
      <trkpt lat="45.82798" lon="6.54524">
        <ele>1028</ele>
        <time>2018-05-06T16:33:45Z</time>
      </trkpt>
      <trkpt lat="45.82798" lon="6.54524">
        <ele>1028</ele>
        <time>2018-05-06T16:34:45Z</time>
      </trkpt>
      <trkpt lat="45.82803" lon="6.54533">
        <ele>1028</ele>
        <time>2018-05-06T16:35:45Z</time>
      </trkpt>
      <trkpt lat="45.82806" lon="6.54539">
        <ele>1028</ele>
        <time>2018-05-06T16:36:45Z</time>
      </trkpt>
      <trkpt lat="45.82808" lon="6.54546">
        <ele>1028</ele>
        <time>2018-05-06T16:37:45Z</time>
      </trkpt>
      <trkpt lat="45.8281" lon="6.54552">
        <ele>1029</ele>
        <time>2018-05-06T16:38:45Z</time>
      </trkpt>
      <trkpt lat="45.82812" lon="6.54557">
        <ele>1029</ele>
        <time>2018-05-06T16:39:45Z</time>
      </trkpt>
      <trkpt lat="45.82815" lon="6.54563">
        <ele>1030</ele>
        <time>2018-05-06T16:40:45Z</time>
      </trkpt>
      <trkpt lat="45.82817" lon="6.54569">
        <ele>1030</ele>
        <time>2018-05-06T16:41:45Z</time>
      </trkpt>
      <trkpt lat="45.8282" lon="6.54574">
        <ele>1031</ele>
        <time>2018-05-06T16:42:45Z</time>
      </trkpt>
      <trkpt lat="45.82822" lon="6.54578">
        <ele>1032</ele>
        <time>2018-05-06T16:43:45Z</time>
      </trkpt>
      <trkpt lat="45.82825" lon="6.54583">
        <ele>1033</ele>
        <time>2018-05-06T16:44:45Z</time>
      </trkpt>
      <trkpt lat="45.82828" lon="6.54587">
        <ele>1031</ele>
        <time>2018-05-06T16:45:45Z</time>
      </trkpt>
      <trkpt lat="45.82832" lon="6.54592">
        <ele>1030</ele>
        <time>2018-05-06T16:46:45Z</time>
      </trkpt>
      <trkpt lat="45.82836" lon="6.54595">
        <ele>1037</ele>
        <time>2018-05-06T16:47:45Z</time>
      </trkpt>
      <trkpt lat="45.8284" lon="6.54599">
        <ele>1037</ele>
        <time>2018-05-06T16:48:45Z</time>
      </trkpt>
      <trkpt lat="45.82843" lon="6.54601">
        <ele>1038</ele>
        <time>2018-05-06T16:49:45Z</time>
      </trkpt>
      <trkpt lat="45.82847" lon="6.54602">
        <ele>1038</ele>
        <time>2018-05-06T16:50:45Z</time>
      </trkpt>
      <trkpt lat="45.82849" lon="6.54602">
        <ele>1038</ele>
        <time>2018-05-06T16:51:45Z</time>
      </trkpt>
      <trkpt lat="45.82851" lon="6.546">
        <ele>1038</ele>
        <time>2018-05-06T16:52:45Z</time>
      </trkpt>
      <trkpt lat="45.82851" lon="6.54599">
        <ele>1038</ele>
        <time>2018-05-06T16:53:45Z</time>
      </trkpt>
      <trkpt lat="45.82852" lon="6.54595">
        <ele>1038</ele>
        <time>2018-05-06T16:54:45Z</time>
      </trkpt>
      <trkpt lat="45.82851" lon="6.54591">
        <ele>1038</ele>
        <time>2018-05-06T16:55:45Z</time>
      </trkpt>
      <trkpt lat="45.82849" lon="6.54586">
        <ele>1038</ele>
        <time>2018-05-06T16:56:45Z</time>
      </trkpt>
      <trkpt lat="45.82848" lon="6.54581">
        <ele>1041</ele>
        <time>2018-05-06T16:57:45Z</time>
      </trkpt>
      <trkpt lat="45.82846" lon="6.54575">
        <ele>1041</ele>
        <time>2018-05-06T16:58:45Z</time>
      </trkpt>
      <trkpt lat="45.82845" lon="6.54569">
        <ele>1042</ele>
        <time>2018-05-06T16:59:45Z</time>
      </trkpt>
      <trkpt lat="45.82844" lon="6.54564">
        <ele>1042</ele>
        <time>2018-05-06T17:00:45Z</time>
      </trkpt>
      <trkpt lat="45.82844" lon="6.54559">
        <ele>1043</ele>
        <time>2018-05-06T17:01:45Z</time>
      </trkpt>
      <trkpt lat="45.82844" lon="6.54553">
        <ele>1044</ele>
        <time>2018-05-06T17:02:45Z</time>
      </trkpt>
      <trkpt lat="45.82844" lon="6.54548">
        <ele>1044</ele>
        <time>2018-05-06T17:03:45Z</time>
      </trkpt>
      <trkpt lat="45.82845" lon="6.54542">
        <ele>1044</ele>
        <time>2018-05-06T17:04:45Z</time>
      </trkpt>
      <trkpt lat="45.82846" lon="6.54537">
        <ele>1045</ele>
        <time>2018-05-06T17:05:45Z</time>
      </trkpt>
      <trkpt lat="45.82847" lon="6.54531">
        <ele>1045</ele>
        <time>2018-05-06T17:06:45Z</time>
      </trkpt>
      <trkpt lat="45.82848" lon="6.54523">
        <ele>1044</ele>
        <time>2018-05-06T17:07:45Z</time>
      </trkpt>
      <trkpt lat="45.82848" lon="6.54516">
        <ele>1044</ele>
        <time>2018-05-06T17:08:45Z</time>
      </trkpt>
      <trkpt lat="45.82847" lon="6.54512">
        <ele>1044</ele>
        <time>2018-05-06T17:09:45Z</time>
      </trkpt>
      <trkpt lat="45.82847" lon="6.54504">
        <ele>1043</ele>
        <time>2018-05-06T17:10:45Z</time>
      </trkpt>
      <trkpt lat="45.82845" lon="6.54497">
        <ele>1044</ele>
        <time>2018-05-06T17:11:45Z</time>
      </trkpt>
      <trkpt lat="45.82844" lon="6.54491">
        <ele>1045</ele>
        <time>2018-05-06T17:12:45Z</time>
      </trkpt>
      <trkpt lat="45.82842" lon="6.54484">
        <ele>1046</ele>
        <time>2018-05-06T17:13:45Z</time>
      </trkpt>
      <trkpt lat="45.8284" lon="6.54477">
        <ele>1047</ele>
        <time>2018-05-06T17:14:45Z</time>
      </trkpt>
      <trkpt lat="45.82838" lon="6.54469">
        <ele>1048</ele>
        <time>2018-05-06T17:15:45Z</time>
      </trkpt>
      <trkpt lat="45.82836" lon="6.54461">
        <ele>1048</ele>
        <time>2018-05-06T17:16:45Z</time>
      </trkpt>
      <trkpt lat="45.82833" lon="6.54453">
        <ele>1035</ele>
        <time>2018-05-06T17:17:45Z</time>
      </trkpt>
      <trkpt lat="45.8283" lon="6.54442">
        <ele>1036</ele>
        <time>2018-05-06T17:18:45Z</time>
      </trkpt>
      <trkpt lat="45.82827" lon="6.54433">
        <ele>1038</ele>
        <time>2018-05-06T17:19:45Z</time>
      </trkpt>
      <trkpt lat="45.82824" lon="6.54422">
        <ele>1039</ele>
        <time>2018-05-06T17:20:45Z</time>
      </trkpt>
      <trkpt lat="45.82821" lon="6.54415">
        <ele>1040</ele>
        <time>2018-05-06T17:21:45Z</time>
      </trkpt>
      <trkpt lat="45.82819" lon="6.54411">
        <ele>1039</ele>
        <time>2018-05-06T17:22:45Z</time>
      </trkpt>
      <trkpt lat="45.82817" lon="6.5441">
        <ele>1038</ele>
        <time>2018-05-06T17:23:45Z</time>
      </trkpt>
      <trkpt lat="45.82813" lon="6.54408">
        <ele>1037</ele>
        <time>2018-05-06T17:24:45Z</time>
      </trkpt>
      <trkpt lat="45.82813" lon="6.54408">
        <ele>1037</ele>
        <time>2018-05-06T17:25:45Z</time>
      </trkpt>
      <trkpt lat="45.8281" lon="6.54427">
        <ele>1035</ele>
        <time>2018-05-06T17:26:45Z</time>
      </trkpt>
      <trkpt lat="45.82808" lon="6.54437">
        <ele>1034</ele>
        <time>2018-05-06T17:27:45Z</time>
      </trkpt>
      <trkpt lat="45.82806" lon="6.5445">
        <ele>1033</ele>
        <time>2018-05-06T17:28:45Z</time>
      </trkpt>
      <trkpt lat="45.82804" lon="6.5446">
        <ele>1032</ele>
        <time>2018-05-06T17:29:45Z</time>
      </trkpt>
      <trkpt lat="45.82803" lon="6.54471">
        <ele>1032</ele>
        <time>2018-05-06T17:30:45Z</time>
      </trkpt>
      <trkpt lat="45.82802" lon="6.54481">
        <ele>1032</ele>
        <time>2018-05-06T17:31:45Z</time>
      </trkpt>
      <trkpt lat="45.82801" lon="6.54495">
        <ele>1032</ele>
        <time>2018-05-06T17:32:45Z</time>
      </trkpt>
      <trkpt lat="45.828" lon="6.54509">
        <ele>1029</ele>
        <time>2018-05-06T17:33:45Z</time>
      </trkpt>
      <trkpt lat="45.82799" lon="6.54518">
        <ele>1028</ele>
        <time>2018-05-06T17:34:45Z</time>
      </trkpt>
      <trkpt lat="45.82798" lon="6.54522">
        <ele>1028</ele>
        <time>2018-05-06T17:35:45Z</time>
      </trkpt>
      <trkpt lat="45.82798" lon="6.54524">
        <ele>1028</ele>
        <time>2018-05-06T17:36:45Z</time>
      </trkpt>
      <trkpt lat="45.82798" lon="6.54524">
        <ele>1028</ele>
        <time>2018-05-06T17:37:45Z</time>
      </trkpt>
      <trkpt lat="45.82797" lon="6.54527">
        <ele>1028</ele>
        <time>2018-05-06T17:38:45Z</time>
      </trkpt>
      <trkpt lat="45.82795" lon="6.54529">
        <ele>1027</ele>
        <time>2018-05-06T17:39:45Z</time>
      </trkpt>
      <trkpt lat="45.82793" lon="6.5453">
        <ele>1027</ele>
        <time>2018-05-06T17:40:45Z</time>
      </trkpt>
      <trkpt lat="45.82792" lon="6.5453">
        <ele>1027</ele>
        <time>2018-05-06T17:41:45Z</time>
      </trkpt>
      <trkpt lat="45.8279" lon="6.5453">
        <ele>1027</ele>
        <time>2018-05-06T17:42:45Z</time>
      </trkpt>
      <trkpt lat="45.82788" lon="6.54528">
        <ele>1026</ele>
        <time>2018-05-06T17:43:45Z</time>
      </trkpt>
      <trkpt lat="45.82786" lon="6.54527">
        <ele>1026</ele>
        <time>2018-05-06T17:44:45Z</time>
      </trkpt>
      <trkpt lat="45.82783" lon="6.54524">
        <ele>1026</ele>
        <time>2018-05-06T17:45:45Z</time>
      </trkpt>
      <trkpt lat="45.8278" lon="6.54522">
        <ele>1026</ele>
        <time>2018-05-06T17:46:45Z</time>
      </trkpt>
      <trkpt lat="45.82776" lon="6.54517">
        <ele>1025</ele>
        <time>2018-05-06T17:47:45Z</time>
      </trkpt>
      <trkpt lat="45.82769" lon="6.54511">
        <ele>1024</ele>
        <time>2018-05-06T17:48:45Z</time>
      </trkpt>
      <trkpt lat="45.82766" lon="6.54508">
        <ele>1023</ele>
        <time>2018-05-06T17:49:45Z</time>
      </trkpt>
      <trkpt lat="45.82762" lon="6.54501">
        <ele>1023</ele>
        <time>2018-05-06T17:50:45Z</time>
      </trkpt>
      <trkpt lat="45.82758" lon="6.54497">
        <ele>1023</ele>
        <time>2018-05-06T17:51:45Z</time>
      </trkpt>
      <trkpt lat="45.82754" lon="6.54495">
        <ele>1022</ele>
        <time>2018-05-06T17:52:45Z</time>
      </trkpt>
      <trkpt lat="45.82748" lon="6.54496">
        <ele>1018</ele>
        <time>2018-05-06T17:53:45Z</time>
      </trkpt>
      <trkpt lat="45.82739" lon="6.545">
        <ele>1016</ele>
        <time>2018-05-06T17:54:45Z</time>
      </trkpt>
      <trkpt lat="45.82739" lon="6.545">
        <ele>1016</ele>
        <time>2018-05-06T17:55:45Z</time>
      </trkpt>
      <trkpt lat="45.82744" lon="6.54515">
        <ele>1013</ele>
        <time>2018-05-06T17:56:45Z</time>
      </trkpt>
      <trkpt lat="45.8275" lon="6.54534">
        <ele>1023</ele>
        <time>2018-05-06T17:57:45Z</time>
      </trkpt>
      <trkpt lat="45.82753" lon="6.54545">
        <ele>1022</ele>
        <time>2018-05-06T17:58:45Z</time>
      </trkpt>
      <trkpt lat="45.82756" lon="6.54552">
        <ele>1022</ele>
        <time>2018-05-06T17:59:45Z</time>
      </trkpt>
      <trkpt lat="45.82758" lon="6.54558">
        <ele>1021</ele>
        <time>2018-05-06T18:00:45Z</time>
      </trkpt>
      <trkpt lat="45.82761" lon="6.54565">
        <ele>1020</ele>
        <time>2018-05-06T18:01:45Z</time>
      </trkpt>
      <trkpt lat="45.82763" lon="6.54572">
        <ele>1019</ele>
        <time>2018-05-06T18:02:45Z</time>
      </trkpt>
      <trkpt lat="45.82764" lon="6.54576">
        <ele>1018</ele>
        <time>2018-05-06T18:03:45Z</time>
      </trkpt>
      <trkpt lat="45.82768" lon="6.54584">
        <ele>1014</ele>
        <time>2018-05-06T18:04:45Z</time>
      </trkpt>
      <trkpt lat="45.82771" lon="6.54591">
        <ele>1015</ele>
        <time>2018-05-06T18:05:45Z</time>
      </trkpt>
      <trkpt lat="45.8278" lon="6.54607">
        <ele>1016</ele>
        <time>2018-05-06T18:06:45Z</time>
      </trkpt>
      <trkpt lat="45.82785" lon="6.54615">
        <ele>1016</ele>
        <time>2018-05-06T18:07:45Z</time>
      </trkpt>
      <trkpt lat="45.8279" lon="6.54617">
        <ele>1016</ele>
        <time>2018-05-06T18:08:45Z</time>
      </trkpt>
      <trkpt lat="45.82793" lon="6.54621">
        <ele>1017</ele>
        <time>2018-05-06T18:09:45Z</time>
      </trkpt>
      <trkpt lat="45.82805" lon="6.54636">
        <ele>1017</ele>
        <time>2018-05-06T18:10:45Z</time>
      </trkpt>
      <trkpt lat="45.82811" lon="6.54643">
        <ele>1018</ele>
        <time>2018-05-06T18:11:45Z</time>
      </trkpt>
      <trkpt lat="45.82817" lon="6.54652">
        <ele>1019</ele>
        <time>2018-05-06T18:12:45Z</time>
      </trkpt>
      <trkpt lat="45.82821" lon="6.54659">
        <ele>1020</ele>
        <time>2018-05-06T18:13:45Z</time>
      </trkpt>
      <trkpt lat="45.82826" lon="6.54666">
        <ele>1021</ele>
        <time>2018-05-06T18:14:45Z</time>
      </trkpt>
      <trkpt lat="45.82831" lon="6.54675">
        <ele>1017</ele>
        <time>2018-05-06T18:15:45Z</time>
      </trkpt>
      <trkpt lat="45.82835" lon="6.54683">
        <ele>1025</ele>
        <time>2018-05-06T18:16:45Z</time>
      </trkpt>
      <trkpt lat="45.82837" lon="6.54689">
        <ele>1026</ele>
        <time>2018-05-06T18:17:45Z</time>
      </trkpt>
      <trkpt lat="45.82849" lon="6.54712">
        <ele>1025</ele>
        <time>2018-05-06T18:18:45Z</time>
      </trkpt>
      <trkpt lat="45.8286" lon="6.54737">
        <ele>1024</ele>
        <time>2018-05-06T18:19:45Z</time>
      </trkpt>
      <trkpt lat="45.8287" lon="6.54759">
        <ele>1020</ele>
        <time>2018-05-06T18:20:45Z</time>
      </trkpt>
      <trkpt lat="45.82876" lon="6.54773">
        <ele>1021</ele>
        <time>2018-05-06T18:21:45Z</time>
      </trkpt>
      <trkpt lat="45.8288" lon="6.54783">
        <ele>1021</ele>
        <time>2018-05-06T18:22:45Z</time>
      </trkpt>
      <trkpt lat="45.82882" lon="6.54791">
        <ele>1020</ele>
        <time>2018-05-06T18:23:45Z</time>
      </trkpt>
      <trkpt lat="45.82885" lon="6.54798">
        <ele>1021</ele>
        <time>2018-05-06T18:24:45Z</time>
      </trkpt>
      <trkpt lat="45.82886" lon="6.54803">
        <ele>1020</ele>
        <time>2018-05-06T18:25:45Z</time>
      </trkpt>
      <trkpt lat="45.82886" lon="6.54806">
        <ele>1020</ele>
        <time>2018-05-06T18:26:45Z</time>
      </trkpt>
      <trkpt lat="45.82887" lon="6.54815">
        <ele>1020</ele>
        <time>2018-05-06T18:27:45Z</time>
      </trkpt>
      <trkpt lat="45.82888" lon="6.54824">
        <ele>1021</ele>
        <time>2018-05-06T18:28:45Z</time>
      </trkpt>
      <trkpt lat="45.82888" lon="6.54832">
        <ele>1021</ele>
        <time>2018-05-06T18:29:45Z</time>
      </trkpt>
      <trkpt lat="45.82888" lon="6.54842">
        <ele>1014</ele>
        <time>2018-05-06T18:30:45Z</time>
      </trkpt>
      <trkpt lat="45.82888" lon="6.54851">
        <ele>1013</ele>
        <time>2018-05-06T18:31:45Z</time>
      </trkpt>
      <trkpt lat="45.82887" lon="6.54863">
        <ele>1012</ele>
        <time>2018-05-06T18:32:45Z</time>
      </trkpt>
      <trkpt lat="45.82887" lon="6.54871">
        <ele>1011</ele>
        <time>2018-05-06T18:33:45Z</time>
      </trkpt>
      <trkpt lat="45.82887" lon="6.5488">
        <ele>1010</ele>
        <time>2018-05-06T18:34:45Z</time>
      </trkpt>
      <trkpt lat="45.82886" lon="6.54888">
        <ele>1010</ele>
        <time>2018-05-06T18:35:45Z</time>
      </trkpt>
      <trkpt lat="45.82886" lon="6.54896">
        <ele>1010</ele>
        <time>2018-05-06T18:36:45Z</time>
      </trkpt>
      <trkpt lat="45.82887" lon="6.54903">
        <ele>1010</ele>
        <time>2018-05-06T18:37:45Z</time>
      </trkpt>
      <trkpt lat="45.82887" lon="6.54912">
        <ele>1010</ele>
        <time>2018-05-06T18:38:45Z</time>
      </trkpt>
      <trkpt lat="45.82888" lon="6.54919">
        <ele>1006</ele>
        <time>2018-05-06T18:39:45Z</time>
      </trkpt>
      <trkpt lat="45.82888" lon="6.54927">
        <ele>1006</ele>
        <time>2018-05-06T18:40:45Z</time>
      </trkpt>
      <trkpt lat="45.8289" lon="6.54936">
        <ele>1006</ele>
        <time>2018-05-06T18:41:45Z</time>
      </trkpt>
      <trkpt lat="45.82891" lon="6.54943">
        <ele>1005</ele>
        <time>2018-05-06T18:42:45Z</time>
      </trkpt>
      <trkpt lat="45.82894" lon="6.54952">
        <ele>1005</ele>
        <time>2018-05-06T18:43:45Z</time>
      </trkpt>
      <trkpt lat="45.82896" lon="6.5496">
        <ele>1005</ele>
        <time>2018-05-06T18:44:45Z</time>
      </trkpt>
      <trkpt lat="45.82899" lon="6.54968">
        <ele>1005</ele>
        <time>2018-05-06T18:45:45Z</time>
      </trkpt>
      <trkpt lat="45.82902" lon="6.54979">
        <ele>1005</ele>
        <time>2018-05-06T18:46:45Z</time>
      </trkpt>
      <trkpt lat="45.82909" lon="6.54993">
        <ele>1007</ele>
        <time>2018-05-06T18:47:45Z</time>
      </trkpt>
      <trkpt lat="45.82916" lon="6.55009">
        <ele>1007</ele>
        <time>2018-05-06T18:48:45Z</time>
      </trkpt>
      <trkpt lat="45.82931" lon="6.55038">
        <ele>1013</ele>
        <time>2018-05-06T18:49:45Z</time>
      </trkpt>
      <trkpt lat="45.82946" lon="6.55065">
        <ele>1013</ele>
        <time>2018-05-06T18:50:45Z</time>
      </trkpt>
      <trkpt lat="45.82949" lon="6.55072">
        <ele>1013</ele>
        <time>2018-05-06T18:51:45Z</time>
      </trkpt>
      <trkpt lat="45.82954" lon="6.5508">
        <ele>1014</ele>
        <time>2018-05-06T18:52:45Z</time>
      </trkpt>
      <trkpt lat="45.82958" lon="6.55087">
        <ele>1006</ele>
        <time>2018-05-06T18:53:45Z</time>
      </trkpt>
      <trkpt lat="45.82963" lon="6.55093">
        <ele>1007</ele>
        <time>2018-05-06T18:54:45Z</time>
      </trkpt>
      <trkpt lat="45.82968" lon="6.55099">
        <ele>1008</ele>
        <time>2018-05-06T18:55:45Z</time>
      </trkpt>
      <trkpt lat="45.82974" lon="6.55105">
        <ele>1008</ele>
        <time>2018-05-06T18:56:45Z</time>
      </trkpt>
      <trkpt lat="45.82981" lon="6.55111">
        <ele>1008</ele>
        <time>2018-05-06T18:57:45Z</time>
      </trkpt>
      <trkpt lat="45.82989" lon="6.55117">
        <ele>1008</ele>
        <time>2018-05-06T18:58:45Z</time>
      </trkpt>
      <trkpt lat="45.82995" lon="6.5512">
        <ele>1008</ele>
        <time>2018-05-06T18:59:45Z</time>
      </trkpt>
      <trkpt lat="45.83003" lon="6.55126">
        <ele>1016</ele>
        <time>2018-05-06T19:00:45Z</time>
      </trkpt>
      <trkpt lat="45.83012" lon="6.55134">
        <ele>1014</ele>
        <time>2018-05-06T19:01:45Z</time>
      </trkpt>
      <trkpt lat="45.83021" lon="6.55144">
        <ele>1013</ele>
        <time>2018-05-06T19:02:45Z</time>
      </trkpt>
      <trkpt lat="45.83028" lon="6.5515">
        <ele>1013</ele>
        <time>2018-05-06T19:03:45Z</time>
      </trkpt>
      <trkpt lat="45.83036" lon="6.5516">
        <ele>1014</ele>
        <time>2018-05-06T19:04:45Z</time>
      </trkpt>
      <trkpt lat="45.83042" lon="6.55167">
        <ele>1004</ele>
        <time>2018-05-06T19:05:45Z</time>
      </trkpt>
      <trkpt lat="45.83048" lon="6.55176">
        <ele>1005</ele>
        <time>2018-05-06T19:06:45Z</time>
      </trkpt>
      <trkpt lat="45.83053" lon="6.55185">
        <ele>1005</ele>
        <time>2018-05-06T19:07:45Z</time>
      </trkpt>
      <trkpt lat="45.83058" lon="6.55194">
        <ele>1005</ele>
        <time>2018-05-06T19:08:45Z</time>
      </trkpt>
      <trkpt lat="45.83062" lon="6.55202">
        <ele>1004</ele>
        <time>2018-05-06T19:09:45Z</time>
      </trkpt>
      <trkpt lat="45.83066" lon="6.55211">
        <ele>1003</ele>
        <time>2018-05-06T19:10:45Z</time>
      </trkpt>
      <trkpt lat="45.83071" lon="6.55219">
        <ele>1003</ele>
        <time>2018-05-06T19:11:45Z</time>
      </trkpt>
      <trkpt lat="45.83074" lon="6.55226">
        <ele>1002</ele>
        <time>2018-05-06T19:12:45Z</time>
      </trkpt>
      <trkpt lat="45.83076" lon="6.55229">
        <ele>1002</ele>
        <time>2018-05-06T19:13:45Z</time>
      </trkpt>
      <trkpt lat="45.83078" lon="6.55233">
        <ele>1001</ele>
        <time>2018-05-06T19:14:45Z</time>
      </trkpt>
      <trkpt lat="45.83082" lon="6.55238">
        <ele>1001</ele>
        <time>2018-05-06T19:15:45Z</time>
      </trkpt>
      <trkpt lat="45.83087" lon="6.55244">
        <ele>1002</ele>
        <time>2018-05-06T19:16:45Z</time>
      </trkpt>
      <trkpt lat="45.83092" lon="6.55248">
        <ele>1003</ele>
        <time>2018-05-06T19:17:45Z</time>
      </trkpt>
      <trkpt lat="45.83098" lon="6.55252">
        <ele>1000</ele>
        <time>2018-05-06T19:18:45Z</time>
      </trkpt>
      <trkpt lat="45.83106" lon="6.55257">
        <ele>1000</ele>
        <time>2018-05-06T19:19:45Z</time>
      </trkpt>
      <trkpt lat="45.83116" lon="6.55263">
        <ele>1001</ele>
        <time>2018-05-06T19:20:45Z</time>
      </trkpt>
      <trkpt lat="45.83124" lon="6.55269">
        <ele>1001</ele>
        <time>2018-05-06T19:21:45Z</time>
      </trkpt>
      <trkpt lat="45.83133" lon="6.55274">
        <ele>1002</ele>
        <time>2018-05-06T19:22:45Z</time>
      </trkpt>
      <trkpt lat="45.83139" lon="6.5528">
        <ele>1002</ele>
        <time>2018-05-06T19:23:45Z</time>
      </trkpt>
      <trkpt lat="45.83145" lon="6.55284">
        <ele>1002</ele>
        <time>2018-05-06T19:24:45Z</time>
      </trkpt>
      <trkpt lat="45.83152" lon="6.55291">
        <ele>1002</ele>
        <time>2018-05-06T19:25:45Z</time>
      </trkpt>
      <trkpt lat="45.83159" lon="6.55298">
        <ele>1001</ele>
        <time>2018-05-06T19:26:45Z</time>
      </trkpt>
      <trkpt lat="45.83165" lon="6.55306">
        <ele>1001</ele>
        <time>2018-05-06T19:27:45Z</time>
      </trkpt>
      <trkpt lat="45.83171" lon="6.55313">
        <ele>1005</ele>
        <time>2018-05-06T19:28:45Z</time>
      </trkpt>
      <trkpt lat="45.83177" lon="6.5532">
        <ele>1004</ele>
        <time>2018-05-06T19:29:45Z</time>
      </trkpt>
      <trkpt lat="45.83188" lon="6.55337">
        <ele>1004</ele>
        <time>2018-05-06T19:30:45Z</time>
      </trkpt>
      <trkpt lat="45.83195" lon="6.5535">
        <ele>1005</ele>
        <time>2018-05-06T19:31:45Z</time>
      </trkpt>
      <trkpt lat="45.83205" lon="6.5538">
        <ele>1006</ele>
        <time>2018-05-06T19:32:45Z</time>
      </trkpt>
      <trkpt lat="45.83211" lon="6.55402">
        <ele>1007</ele>
        <time>2018-05-06T19:33:45Z</time>
      </trkpt>
      <trkpt lat="45.83213" lon="6.55414">
        <ele>1007</ele>
        <time>2018-05-06T19:34:45Z</time>
      </trkpt>
      <trkpt lat="45.83218" lon="6.55438">
        <ele>1006</ele>
        <time>2018-05-06T19:35:45Z</time>
      </trkpt>
      <trkpt lat="45.83226" lon="6.55478">
        <ele>1005</ele>
        <time>2018-05-06T19:36:45Z</time>
      </trkpt>
      <trkpt lat="45.83232" lon="6.55508">
        <ele>1004</ele>
        <time>2018-05-06T19:37:45Z</time>
      </trkpt>
      <trkpt lat="45.83237" lon="6.55536">
        <ele>1003</ele>
        <time>2018-05-06T19:38:45Z</time>
      </trkpt>
      <trkpt lat="45.83241" lon="6.55556">
        <ele>1003</ele>
        <time>2018-05-06T19:39:45Z</time>
      </trkpt>
      <trkpt lat="45.83243" lon="6.55569">
        <ele>1003</ele>
        <time>2018-05-06T19:40:45Z</time>
      </trkpt>
      <trkpt lat="45.83246" lon="6.55583">
        <ele>1003</ele>
        <time>2018-05-06T19:41:45Z</time>
      </trkpt>
      <trkpt lat="45.83248" lon="6.55589">
        <ele>1003</ele>
        <time>2018-05-06T19:42:45Z</time>
      </trkpt>
      <trkpt lat="45.83249" lon="6.55596">
        <ele>1002</ele>
        <time>2018-05-06T19:43:45Z</time>
      </trkpt>
      <trkpt lat="45.83255" lon="6.55624">
        <ele>1005</ele>
        <time>2018-05-06T19:44:45Z</time>
      </trkpt>
      <trkpt lat="45.83265" lon="6.55673">
        <ele>1002</ele>
        <time>2018-05-06T19:45:45Z</time>
      </trkpt>
      <trkpt lat="45.83266" lon="6.55678">
        <ele>1003</ele>
        <time>2018-05-06T19:46:45Z</time>
      </trkpt>
      <trkpt lat="45.83269" lon="6.55696">
        <ele>1004</ele>
        <time>2018-05-06T19:47:45Z</time>
      </trkpt>
      <trkpt lat="45.83272" lon="6.55713">
        <ele>1004</ele>
        <time>2018-05-06T19:48:45Z</time>
      </trkpt>
      <trkpt lat="45.83272" lon="6.55727">
        <ele>1004</ele>
        <time>2018-05-06T19:49:45Z</time>
      </trkpt>
      <trkpt lat="45.83273" lon="6.55743">
        <ele>1004</ele>
        <time>2018-05-06T19:50:45Z</time>
      </trkpt>
      <trkpt lat="45.83273" lon="6.55746">
        <ele>1004</ele>
        <time>2018-05-06T19:51:45Z</time>
      </trkpt>
      <trkpt lat="45.83273" lon="6.55752">
        <ele>1005</ele>
        <time>2018-05-06T19:52:45Z</time>
      </trkpt>
      <trkpt lat="45.83272" lon="6.55757">
        <ele>1005</ele>
        <time>2018-05-06T19:53:45Z</time>
      </trkpt>
      <trkpt lat="45.83272" lon="6.55766">
        <ele>1005</ele>
        <time>2018-05-06T19:54:45Z</time>
      </trkpt>
      <trkpt lat="45.83271" lon="6.55804">
        <ele>1006</ele>
        <time>2018-05-06T19:55:45Z</time>
      </trkpt>
      <trkpt lat="45.83269" lon="6.55834">
        <ele>1005</ele>
        <time>2018-05-06T19:56:45Z</time>
      </trkpt>
      <trkpt lat="45.83268" lon="6.55863">
        <ele>1006</ele>
        <time>2018-05-06T19:57:45Z</time>
      </trkpt>
      <trkpt lat="45.83266" lon="6.55907">
        <ele>1004</ele>
        <time>2018-05-06T19:58:45Z</time>
      </trkpt>
      <trkpt lat="45.83266" lon="6.55924">
        <ele>1003</ele>
        <time>2018-05-06T19:59:45Z</time>
      </trkpt>
      <trkpt lat="45.83267" lon="6.55938">
        <ele>1004</ele>
        <time>2018-05-06T20:00:45Z</time>
      </trkpt>
      <trkpt lat="45.8327" lon="6.55949">
        <ele>1004</ele>
        <time>2018-05-06T20:01:45Z</time>
      </trkpt>
      <trkpt lat="45.83273" lon="6.55961">
        <ele>1004</ele>
        <time>2018-05-06T20:02:45Z</time>
      </trkpt>
      <trkpt lat="45.83277" lon="6.55971">
        <ele>1004</ele>
        <time>2018-05-06T20:03:45Z</time>
      </trkpt>
      <trkpt lat="45.83283" lon="6.55985">
        <ele>1004</ele>
        <time>2018-05-06T20:04:45Z</time>
      </trkpt>
      <trkpt lat="45.83292" lon="6.56">
        <ele>1005</ele>
        <time>2018-05-06T20:05:45Z</time>
      </trkpt>
      <trkpt lat="45.83312" lon="6.56029">
        <ele>1005</ele>
        <time>2018-05-06T20:06:45Z</time>
      </trkpt>
      <trkpt lat="45.83345" lon="6.5608">
        <ele>1010</ele>
        <time>2018-05-06T20:07:45Z</time>
      </trkpt>
      <trkpt lat="45.83366" lon="6.56113">
        <ele>1011</ele>
        <time>2018-05-06T20:08:45Z</time>
      </trkpt>
      <trkpt lat="45.83377" lon="6.56133">
        <ele>1012</ele>
        <time>2018-05-06T20:09:45Z</time>
      </trkpt>
      <trkpt lat="45.83388" lon="6.56156">
        <ele>1013</ele>
        <time>2018-05-06T20:10:45Z</time>
      </trkpt>
      <trkpt lat="45.83395" lon="6.5617">
        <ele>1012</ele>
        <time>2018-05-06T20:11:45Z</time>
      </trkpt>
      <trkpt lat="45.83401" lon="6.56186">
        <ele>1011</ele>
        <time>2018-05-06T20:12:45Z</time>
      </trkpt>
      <trkpt lat="45.83408" lon="6.5621">
        <ele>1010</ele>
        <time>2018-05-06T20:13:45Z</time>
      </trkpt>
      <trkpt lat="45.83416" lon="6.56239">
        <ele>1011</ele>
        <time>2018-05-06T20:14:45Z</time>
      </trkpt>
      <trkpt lat="45.83428" lon="6.56285">
        <ele>1016</ele>
        <time>2018-05-06T20:15:45Z</time>
      </trkpt>
      <trkpt lat="45.83438" lon="6.56324">
        <ele>1014</ele>
        <time>2018-05-06T20:16:45Z</time>
      </trkpt>
      <trkpt lat="45.83446" lon="6.56353">
        <ele>1012</ele>
        <time>2018-05-06T20:17:45Z</time>
      </trkpt>
      <trkpt lat="45.83453" lon="6.56377">
        <ele>1012</ele>
        <time>2018-05-06T20:18:45Z</time>
      </trkpt>
      <trkpt lat="45.83457" lon="6.56388">
        <ele>1012</ele>
        <time>2018-05-06T20:19:45Z</time>
      </trkpt>
      <trkpt lat="45.83461" lon="6.56397">
        <ele>1012</ele>
        <time>2018-05-06T20:20:45Z</time>
      </trkpt>
      <trkpt lat="45.83471" lon="6.56418">
        <ele>1011</ele>
        <time>2018-05-06T20:21:45Z</time>
      </trkpt>
      <trkpt lat="45.83476" lon="6.56429">
        <ele>1011</ele>
        <time>2018-05-06T20:22:45Z</time>
      </trkpt>
      <trkpt lat="45.83482" lon="6.56443">
        <ele>1011</ele>
        <time>2018-05-06T20:23:45Z</time>
      </trkpt>
      <trkpt lat="45.8349" lon="6.56462">
        <ele>1010</ele>
        <time>2018-05-06T20:24:45Z</time>
      </trkpt>
      <trkpt lat="45.83493" lon="6.56471">
        <ele>1010</ele>
        <time>2018-05-06T20:25:45Z</time>
      </trkpt>
      <trkpt lat="45.83516" lon="6.5652">
        <ele>1013</ele>
        <time>2018-05-06T20:26:45Z</time>
      </trkpt>
      <trkpt lat="45.83535" lon="6.56559">
        <ele>1013</ele>
        <time>2018-05-06T20:27:45Z</time>
      </trkpt>
      <trkpt lat="45.83538" lon="6.56567">
        <ele>1013</ele>
        <time>2018-05-06T20:28:45Z</time>
      </trkpt>
      <trkpt lat="45.83551" lon="6.56596">
        <ele>1012</ele>
        <time>2018-05-06T20:29:45Z</time>
      </trkpt>
      <trkpt lat="45.83569" lon="6.56634">
        <ele>1012</ele>
        <time>2018-05-06T20:30:45Z</time>
      </trkpt>
      <trkpt lat="45.83582" lon="6.56664">
        <ele>1012</ele>
        <time>2018-05-06T20:31:45Z</time>
      </trkpt>
      <trkpt lat="45.83592" lon="6.56685">
        <ele>1014</ele>
        <time>2018-05-06T20:32:45Z</time>
      </trkpt>
      <trkpt lat="45.83597" lon="6.56696">
        <ele>1015</ele>
        <time>2018-05-06T20:33:45Z</time>
      </trkpt>
      <trkpt lat="45.83604" lon="6.56713">
        <ele>1015</ele>
        <time>2018-05-06T20:34:45Z</time>
      </trkpt>
      <trkpt lat="45.83605" lon="6.56715">
        <ele>1015</ele>
        <time>2018-05-06T20:35:45Z</time>
      </trkpt>
      <trkpt lat="45.83621" lon="6.5675">
        <ele>1016</ele>
        <time>2018-05-06T20:36:45Z</time>
      </trkpt>
      <trkpt lat="45.83628" lon="6.56764">
        <ele>1017</ele>
        <time>2018-05-06T20:37:45Z</time>
      </trkpt>
      <trkpt lat="45.83634" lon="6.56777">
        <ele>1018</ele>
        <time>2018-05-06T20:38:45Z</time>
      </trkpt>
      <trkpt lat="45.83656" lon="6.56825">
        <ele>1020</ele>
        <time>2018-05-06T20:39:45Z</time>
      </trkpt>
      <trkpt lat="45.83679" lon="6.56873">
        <ele>1023</ele>
        <time>2018-05-06T20:40:45Z</time>
      </trkpt>
      <trkpt lat="45.83692" lon="6.56901">
        <ele>1023</ele>
        <time>2018-05-06T20:41:45Z</time>
      </trkpt>
      <trkpt lat="45.83701" lon="6.56918">
        <ele>1024</ele>
        <time>2018-05-06T20:42:45Z</time>
      </trkpt>
      <trkpt lat="45.83702" lon="6.5692">
        <ele>1024</ele>
        <time>2018-05-06T20:43:45Z</time>
      </trkpt>
      <trkpt lat="45.83705" lon="6.56928">
        <ele>1024</ele>
        <time>2018-05-06T20:44:45Z</time>
      </trkpt>
      <trkpt lat="45.83718" lon="6.56956">
        <ele>1025</ele>
        <time>2018-05-06T20:45:45Z</time>
      </trkpt>
      <trkpt lat="45.83728" lon="6.56979">
        <ele>1025</ele>
        <time>2018-05-06T20:46:45Z</time>
      </trkpt>
      <trkpt lat="45.83742" lon="6.5701">
        <ele>1027</ele>
        <time>2018-05-06T20:47:45Z</time>
      </trkpt>
      <trkpt lat="45.83746" lon="6.57019">
        <ele>1027</ele>
        <time>2018-05-06T20:48:45Z</time>
      </trkpt>
      <trkpt lat="45.83762" lon="6.57053">
        <ele>1031</ele>
        <time>2018-05-06T20:49:45Z</time>
      </trkpt>
      <trkpt lat="45.83765" lon="6.57058">
        <ele>1031</ele>
        <time>2018-05-06T20:50:45Z</time>
      </trkpt>
      <trkpt lat="45.83777" lon="6.57084">
        <ele>1031</ele>
        <time>2018-05-06T20:51:45Z</time>
      </trkpt>
      <trkpt lat="45.83779" lon="6.5709">
        <ele>1031</ele>
        <time>2018-05-06T20:52:45Z</time>
      </trkpt>
      <trkpt lat="45.83783" lon="6.57099">
        <ele>1031</ele>
        <time>2018-05-06T20:53:45Z</time>
      </trkpt>
      <trkpt lat="45.83783" lon="6.57109">
        <ele>1031</ele>
        <time>2018-05-06T20:54:45Z</time>
      </trkpt>
      <trkpt lat="45.83791" lon="6.57128">
        <ele>1031</ele>
        <time>2018-05-06T20:55:45Z</time>
      </trkpt>
      <trkpt lat="45.83795" lon="6.57141">
        <ele>1031</ele>
        <time>2018-05-06T20:56:45Z</time>
      </trkpt>
      <trkpt lat="45.83796" lon="6.57144">
        <ele>1031</ele>
        <time>2018-05-06T20:57:45Z</time>
      </trkpt>
      <trkpt lat="45.83801" lon="6.57162">
        <ele>1031</ele>
        <time>2018-05-06T20:58:45Z</time>
      </trkpt>
      <trkpt lat="45.83804" lon="6.57175">
        <ele>1031</ele>
        <time>2018-05-06T20:59:45Z</time>
      </trkpt>
      <trkpt lat="45.83807" lon="6.57191">
        <ele>1031</ele>
        <time>2018-05-06T21:00:45Z</time>
      </trkpt>
      <trkpt lat="45.83807" lon="6.57192">
        <ele>1031</ele>
        <time>2018-05-06T21:01:45Z</time>
      </trkpt>
      <trkpt lat="45.83809" lon="6.57203">
        <ele>1031</ele>
        <time>2018-05-06T21:02:45Z</time>
      </trkpt>
      <trkpt lat="45.83813" lon="6.57222">
        <ele>1031</ele>
        <time>2018-05-06T21:03:45Z</time>
      </trkpt>
      <trkpt lat="45.83816" lon="6.57229">
        <ele>1031</ele>
        <time>2018-05-06T21:04:45Z</time>
      </trkpt>
      <trkpt lat="45.83817" lon="6.57235">
        <ele>1031</ele>
        <time>2018-05-06T21:05:45Z</time>
      </trkpt>
      <trkpt lat="45.8382" lon="6.57249">
        <ele>1032</ele>
        <time>2018-05-06T21:06:45Z</time>
      </trkpt>
      <trkpt lat="45.83824" lon="6.57269">
        <ele>1030</ele>
        <time>2018-05-06T21:07:45Z</time>
      </trkpt>
      <trkpt lat="45.83829" lon="6.57287">
        <ele>1029</ele>
        <time>2018-05-06T21:08:45Z</time>
      </trkpt>
      <trkpt lat="45.8383" lon="6.57293">
        <ele>1029</ele>
        <time>2018-05-06T21:09:45Z</time>
      </trkpt>
      <trkpt lat="45.83839" lon="6.5733">
        <ele>1030</ele>
        <time>2018-05-06T21:10:45Z</time>
      </trkpt>
      <trkpt lat="45.8384" lon="6.57336">
        <ele>1030</ele>
        <time>2018-05-06T21:11:45Z</time>
      </trkpt>
      <trkpt lat="45.83848" lon="6.57365">
        <ele>1030</ele>
        <time>2018-05-06T21:12:45Z</time>
      </trkpt>
      <trkpt lat="45.8386" lon="6.57414">
        <ele>1029</ele>
        <time>2018-05-06T21:13:45Z</time>
      </trkpt>
      <trkpt lat="45.83873" lon="6.57465">
        <ele>1026</ele>
        <time>2018-05-06T21:14:45Z</time>
      </trkpt>
      <trkpt lat="45.83881" lon="6.57496">
        <ele>1026</ele>
        <time>2018-05-06T21:15:45Z</time>
      </trkpt>
      <trkpt lat="45.83885" lon="6.57512">
        <ele>1023</ele>
        <time>2018-05-06T21:16:45Z</time>
      </trkpt>
      <trkpt lat="45.83898" lon="6.57561">
        <ele>1022</ele>
        <time>2018-05-06T21:17:45Z</time>
      </trkpt>
      <trkpt lat="45.8391" lon="6.57611">
        <ele>1021</ele>
        <time>2018-05-06T21:18:45Z</time>
      </trkpt>
      <trkpt lat="45.83922" lon="6.57657">
        <ele>1024</ele>
        <time>2018-05-06T21:19:45Z</time>
      </trkpt>
      <trkpt lat="45.83927" lon="6.57676">
        <ele>1024</ele>
        <time>2018-05-06T21:20:45Z</time>
      </trkpt>
      <trkpt lat="45.83929" lon="6.57701">
        <ele>1025</ele>
        <time>2018-05-06T21:21:45Z</time>
      </trkpt>
      <trkpt lat="45.83928" lon="6.57705">
        <ele>1025</ele>
        <time>2018-05-06T21:22:45Z</time>
      </trkpt>
      <trkpt lat="45.83927" lon="6.57711">
        <ele>1025</ele>
        <time>2018-05-06T21:23:45Z</time>
      </trkpt>
      <trkpt lat="45.83927" lon="6.57715">
        <ele>1025</ele>
        <time>2018-05-06T21:24:45Z</time>
      </trkpt>
      <trkpt lat="45.83928" lon="6.5772">
        <ele>1025</ele>
        <time>2018-05-06T21:25:45Z</time>
      </trkpt>
      <trkpt lat="45.83929" lon="6.57723">
        <ele>1025</ele>
        <time>2018-05-06T21:26:45Z</time>
      </trkpt>
      <trkpt lat="45.8393" lon="6.57725">
        <ele>1025</ele>
        <time>2018-05-06T21:27:45Z</time>
      </trkpt>
      <trkpt lat="45.83932" lon="6.57726">
        <ele>1025</ele>
        <time>2018-05-06T21:28:45Z</time>
      </trkpt>
      <trkpt lat="45.83934" lon="6.57726">
        <ele>1025</ele>
        <time>2018-05-06T21:29:45Z</time>
      </trkpt>
      <trkpt lat="45.83937" lon="6.57734">
        <ele>1025</ele>
        <time>2018-05-06T21:30:45Z</time>
      </trkpt>
      <trkpt lat="45.83945" lon="6.57748">
        <ele>1025</ele>
        <time>2018-05-06T21:31:45Z</time>
      </trkpt>
      <trkpt lat="45.8395" lon="6.57768">
        <ele>1025</ele>
        <time>2018-05-06T21:32:45Z</time>
      </trkpt>
      <trkpt lat="45.8396" lon="6.57807">
        <ele>1026</ele>
        <time>2018-05-06T21:33:45Z</time>
      </trkpt>
      <trkpt lat="45.83961" lon="6.57811">
        <ele>1026</ele>
        <time>2018-05-06T21:34:45Z</time>
      </trkpt>
      <trkpt lat="45.83964" lon="6.57821">
        <ele>1026</ele>
        <time>2018-05-06T21:35:45Z</time>
      </trkpt>
      <trkpt lat="45.83968" lon="6.57837">
        <ele>1027</ele>
        <time>2018-05-06T21:36:45Z</time>
      </trkpt>
      <trkpt lat="45.8398" lon="6.57886">
        <ele>1027</ele>
        <time>2018-05-06T21:37:45Z</time>
      </trkpt>
      <trkpt lat="45.83993" lon="6.57939">
        <ele>1028</ele>
        <time>2018-05-06T21:38:45Z</time>
      </trkpt>
      <trkpt lat="45.84002" lon="6.57976">
        <ele>1039</ele>
        <time>2018-05-06T21:39:45Z</time>
      </trkpt>
      <trkpt lat="45.84005" lon="6.57987">
        <ele>1036</ele>
        <time>2018-05-06T21:40:45Z</time>
      </trkpt>
      <trkpt lat="45.84012" lon="6.58012">
        <ele>1034</ele>
        <time>2018-05-06T21:41:45Z</time>
      </trkpt>
      <trkpt lat="45.84022" lon="6.58051">
        <ele>1038</ele>
        <time>2018-05-06T21:42:45Z</time>
      </trkpt>
      <trkpt lat="45.84023" lon="6.58056">
        <ele>1038</ele>
        <time>2018-05-06T21:43:45Z</time>
      </trkpt>
      <trkpt lat="45.84033" lon="6.58089">
        <ele>1034</ele>
        <time>2018-05-06T21:44:45Z</time>
      </trkpt>
      <trkpt lat="45.8404" lon="6.58116">
        <ele>1035</ele>
        <time>2018-05-06T21:45:45Z</time>
      </trkpt>
      <trkpt lat="45.84043" lon="6.58127">
        <ele>1035</ele>
        <time>2018-05-06T21:46:45Z</time>
      </trkpt>
      <trkpt lat="45.84045" lon="6.58132">
        <ele>1035</ele>
        <time>2018-05-06T21:47:45Z</time>
      </trkpt>
      <trkpt lat="45.84049" lon="6.58149">
        <ele>1035</ele>
        <time>2018-05-06T21:48:45Z</time>
      </trkpt>
      <trkpt lat="45.84061" lon="6.58185">
        <ele>1032</ele>
        <time>2018-05-06T21:49:45Z</time>
      </trkpt>
      <trkpt lat="45.84069" lon="6.58212">
        <ele>1030</ele>
        <time>2018-05-06T21:50:45Z</time>
      </trkpt>
      <trkpt lat="45.84067" lon="6.58214">
        <ele>1030</ele>
        <time>2018-05-06T21:51:45Z</time>
      </trkpt>
      <trkpt lat="45.84065" lon="6.58216">
        <ele>1030</ele>
        <time>2018-05-06T21:52:45Z</time>
      </trkpt>
      <trkpt lat="45.84064" lon="6.5822">
        <ele>1029</ele>
        <time>2018-05-06T21:53:45Z</time>
      </trkpt>
      <trkpt lat="45.84063" lon="6.58223">
        <ele>1029</ele>
        <time>2018-05-06T21:54:45Z</time>
      </trkpt>
      <trkpt lat="45.84063" lon="6.58227">
        <ele>1029</ele>
        <time>2018-05-06T21:55:45Z</time>
      </trkpt>
      <trkpt lat="45.84064" lon="6.58231">
        <ele>1029</ele>
        <time>2018-05-06T21:56:45Z</time>
      </trkpt>
      <trkpt lat="45.84065" lon="6.58235">
        <ele>1029</ele>
        <time>2018-05-06T21:57:45Z</time>
      </trkpt>
      <trkpt lat="45.84066" lon="6.58238">
        <ele>1029</ele>
        <time>2018-05-06T21:58:45Z</time>
      </trkpt>
      <trkpt lat="45.84068" lon="6.5824">
        <ele>1029</ele>
        <time>2018-05-06T21:59:45Z</time>
      </trkpt>
      <trkpt lat="45.8407" lon="6.58242">
        <ele>1028</ele>
        <time>2018-05-06T22:00:45Z</time>
      </trkpt>
      <trkpt lat="45.84073" lon="6.58244">
        <ele>1028</ele>
        <time>2018-05-06T22:01:45Z</time>
      </trkpt>
      <trkpt lat="45.84076" lon="6.58244">
        <ele>1028</ele>
        <time>2018-05-06T22:02:45Z</time>
      </trkpt>
      <trkpt lat="45.84078" lon="6.58243">
        <ele>1028</ele>
        <time>2018-05-06T22:03:45Z</time>
      </trkpt>
      <trkpt lat="45.84087" lon="6.58269">
        <ele>1032</ele>
        <time>2018-05-06T22:04:45Z</time>
      </trkpt>
      <trkpt lat="45.8409" lon="6.58277">
        <ele>1033</ele>
        <time>2018-05-06T22:05:45Z</time>
      </trkpt>
      <trkpt lat="45.84104" lon="6.5832">
        <ele>1031</ele>
        <time>2018-05-06T22:06:45Z</time>
      </trkpt>
      <trkpt lat="45.84116" lon="6.58356">
        <ele>1028</ele>
        <time>2018-05-06T22:07:45Z</time>
      </trkpt>
      <trkpt lat="45.84125" lon="6.58384">
        <ele>1028</ele>
        <time>2018-05-06T22:08:45Z</time>
      </trkpt>
      <trkpt lat="45.84138" lon="6.58425">
        <ele>1028</ele>
        <time>2018-05-06T22:09:45Z</time>
      </trkpt>
      <trkpt lat="45.8414" lon="6.58443">
        <ele>1028</ele>
        <time>2018-05-06T22:10:45Z</time>
      </trkpt>
      <trkpt lat="45.84149" lon="6.5847">
        <ele>1028</ele>
        <time>2018-05-06T22:11:45Z</time>
      </trkpt>
      <trkpt lat="45.84154" lon="6.58486">
        <ele>1029</ele>
        <time>2018-05-06T22:12:45Z</time>
      </trkpt>
      <trkpt lat="45.84156" lon="6.5849">
        <ele>1029</ele>
        <time>2018-05-06T22:13:45Z</time>
      </trkpt>
      <trkpt lat="45.84162" lon="6.5851">
        <ele>1030</ele>
        <time>2018-05-06T22:14:45Z</time>
      </trkpt>
      <trkpt lat="45.84172" lon="6.58542">
        <ele>1034</ele>
        <time>2018-05-06T22:15:45Z</time>
      </trkpt>
      <trkpt lat="45.84179" lon="6.58564">
        <ele>1034</ele>
        <time>2018-05-06T22:16:45Z</time>
      </trkpt>
      <trkpt lat="45.842" lon="6.58628">
        <ele>1036</ele>
        <time>2018-05-06T22:17:45Z</time>
      </trkpt>
      <trkpt lat="45.84209" lon="6.58656">
        <ele>1036</ele>
        <time>2018-05-06T22:18:45Z</time>
      </trkpt>
      <trkpt lat="45.84216" lon="6.58669">
        <ele>1036</ele>
        <time>2018-05-06T22:19:45Z</time>
      </trkpt>
      <trkpt lat="45.84226" lon="6.5869">
        <ele>1037</ele>
        <time>2018-05-06T22:20:45Z</time>
      </trkpt>
      <trkpt lat="45.8423" lon="6.587">
        <ele>1037</ele>
        <time>2018-05-06T22:21:45Z</time>
      </trkpt>
      <trkpt lat="45.84237" lon="6.58718">
        <ele>1037</ele>
        <time>2018-05-06T22:22:45Z</time>
      </trkpt>
      <trkpt lat="45.8424" lon="6.58729">
        <ele>1037</ele>
        <time>2018-05-06T22:23:45Z</time>
      </trkpt>
      <trkpt lat="45.84247" lon="6.58757">
        <ele>1039</ele>
        <time>2018-05-06T22:24:45Z</time>
      </trkpt>
      <trkpt lat="45.84255" lon="6.58793">
        <ele>1046</ele>
        <time>2018-05-06T22:25:45Z</time>
      </trkpt>
      <trkpt lat="45.8426" lon="6.58823">
        <ele>1043</ele>
        <time>2018-05-06T22:26:45Z</time>
      </trkpt>
      <trkpt lat="45.84264" lon="6.58853">
        <ele>1044</ele>
        <time>2018-05-06T22:27:45Z</time>
      </trkpt>
      <trkpt lat="45.84266" lon="6.58876">
        <ele>1045</ele>
        <time>2018-05-06T22:28:45Z</time>
      </trkpt>
      <trkpt lat="45.84267" lon="6.58907">
        <ele>1043</ele>
        <time>2018-05-06T22:29:45Z</time>
      </trkpt>
      <trkpt lat="45.84268" lon="6.58926">
        <ele>1042</ele>
        <time>2018-05-06T22:30:45Z</time>
      </trkpt>
      <trkpt lat="45.8427" lon="6.58939">
        <ele>1042</ele>
        <time>2018-05-06T22:31:45Z</time>
      </trkpt>
      <trkpt lat="45.84272" lon="6.5895">
        <ele>1042</ele>
        <time>2018-05-06T22:32:45Z</time>
      </trkpt>
      <trkpt lat="45.84276" lon="6.58962">
        <ele>1042</ele>
        <time>2018-05-06T22:33:45Z</time>
      </trkpt>
      <trkpt lat="45.84281" lon="6.58974">
        <ele>1042</ele>
        <time>2018-05-06T22:34:45Z</time>
      </trkpt>
      <trkpt lat="45.84287" lon="6.58983">
        <ele>1042</ele>
        <time>2018-05-06T22:35:45Z</time>
      </trkpt>
      <trkpt lat="45.84293" lon="6.58993">
        <ele>1043</ele>
        <time>2018-05-06T22:36:45Z</time>
      </trkpt>
      <trkpt lat="45.843" lon="6.59001">
        <ele>1041</ele>
        <time>2018-05-06T22:37:45Z</time>
      </trkpt>
      <trkpt lat="45.84307" lon="6.59007">
        <ele>1041</ele>
        <time>2018-05-06T22:38:45Z</time>
      </trkpt>
      <trkpt lat="45.84326" lon="6.59024">
        <ele>1041</ele>
        <time>2018-05-06T22:39:45Z</time>
      </trkpt>
      <trkpt lat="45.84339" lon="6.59038">
        <ele>1045</ele>
        <time>2018-05-06T22:40:45Z</time>
      </trkpt>
      <trkpt lat="45.84357" lon="6.59054">
        <ele>1045</ele>
        <time>2018-05-06T22:41:45Z</time>
      </trkpt>
      <trkpt lat="45.84377" lon="6.59072">
        <ele>1046</ele>
        <time>2018-05-06T22:42:45Z</time>
      </trkpt>
      <trkpt lat="45.84384" lon="6.59078">
        <ele>1046</ele>
        <time>2018-05-06T22:43:45Z</time>
      </trkpt>
      <trkpt lat="45.84389" lon="6.59081">
        <ele>1046</ele>
        <time>2018-05-06T22:44:45Z</time>
      </trkpt>
      <trkpt lat="45.84395" lon="6.59088">
        <ele>1043</ele>
        <time>2018-05-06T22:45:45Z</time>
      </trkpt>
      <trkpt lat="45.84405" lon="6.591">
        <ele>1043</ele>
        <time>2018-05-06T22:46:45Z</time>
      </trkpt>
      <trkpt lat="45.84415" lon="6.59115">
        <ele>1042</ele>
        <time>2018-05-06T22:47:45Z</time>
      </trkpt>
      <trkpt lat="45.8443" lon="6.5914">
        <ele>1048</ele>
        <time>2018-05-06T22:48:45Z</time>
      </trkpt>
      <trkpt lat="45.84442" lon="6.5916">
        <ele>1047</ele>
        <time>2018-05-06T22:49:45Z</time>
      </trkpt>
      <trkpt lat="45.84471" lon="6.59206">
        <ele>1046</ele>
        <time>2018-05-06T22:50:45Z</time>
      </trkpt>
      <trkpt lat="45.84491" lon="6.5924">
        <ele>1047</ele>
        <time>2018-05-06T22:51:45Z</time>
      </trkpt>
      <trkpt lat="45.845" lon="6.59254">
        <ele>1047</ele>
        <time>2018-05-06T22:52:45Z</time>
      </trkpt>
      <trkpt lat="45.84506" lon="6.59263">
        <ele>1049</ele>
        <time>2018-05-06T22:53:45Z</time>
      </trkpt>
      <trkpt lat="45.84508" lon="6.59265">
        <ele>1049</ele>
        <time>2018-05-06T22:54:45Z</time>
      </trkpt>
      <trkpt lat="45.84513" lon="6.5927">
        <ele>1049</ele>
        <time>2018-05-06T22:55:45Z</time>
      </trkpt>
      <trkpt lat="45.84519" lon="6.59277">
        <ele>1049</ele>
        <time>2018-05-06T22:56:45Z</time>
      </trkpt>
      <trkpt lat="45.84526" lon="6.59283">
        <ele>1049</ele>
        <time>2018-05-06T22:57:45Z</time>
      </trkpt>
      <trkpt lat="45.8454" lon="6.59293">
        <ele>1050</ele>
        <time>2018-05-06T22:58:45Z</time>
      </trkpt>
      <trkpt lat="45.84558" lon="6.59306">
        <ele>1050</ele>
        <time>2018-05-06T22:59:45Z</time>
      </trkpt>
      <trkpt lat="45.84589" lon="6.59328">
        <ele>1051</ele>
        <time>2018-05-06T23:00:45Z</time>
      </trkpt>
      <trkpt lat="45.8462" lon="6.59349">
        <ele>1052</ele>
        <time>2018-05-06T23:01:45Z</time>
      </trkpt>
      <trkpt lat="45.8465" lon="6.5937">
        <ele>1053</ele>
        <time>2018-05-06T23:02:45Z</time>
      </trkpt>
      <trkpt lat="45.84675" lon="6.59387">
        <ele>1057</ele>
        <time>2018-05-06T23:03:45Z</time>
      </trkpt>
      <trkpt lat="45.84704" lon="6.59408">
        <ele>1058</ele>
        <time>2018-05-06T23:04:45Z</time>
      </trkpt>
      <trkpt lat="45.84716" lon="6.59418">
        <ele>1054</ele>
        <time>2018-05-06T23:05:45Z</time>
      </trkpt>
      <trkpt lat="45.84719" lon="6.59425">
        <ele>1054</ele>
        <time>2018-05-06T23:06:45Z</time>
      </trkpt>
      <trkpt lat="45.84729" lon="6.59435">
        <ele>1055</ele>
        <time>2018-05-06T23:07:45Z</time>
      </trkpt>
      <trkpt lat="45.8474" lon="6.59452">
        <ele>1055</ele>
        <time>2018-05-06T23:08:45Z</time>
      </trkpt>
      <trkpt lat="45.84746" lon="6.59466">
        <ele>1054</ele>
        <time>2018-05-06T23:09:45Z</time>
      </trkpt>
      <trkpt lat="45.84752" lon="6.59479">
        <ele>1060</ele>
        <time>2018-05-06T23:10:45Z</time>
      </trkpt>
      <trkpt lat="45.84755" lon="6.59489">
        <ele>1059</ele>
        <time>2018-05-06T23:11:45Z</time>
      </trkpt>
      <trkpt lat="45.84765" lon="6.5952">
        <ele>1058</ele>
        <time>2018-05-06T23:12:45Z</time>
      </trkpt>
      <trkpt lat="45.84787" lon="6.59583">
        <ele>1058</ele>
        <time>2018-05-06T23:13:45Z</time>
      </trkpt>
      <trkpt lat="45.84802" lon="6.5963">
        <ele>1056</ele>
        <time>2018-05-06T23:14:45Z</time>
      </trkpt>
      <trkpt lat="45.84813" lon="6.5966">
        <ele>1057</ele>
        <time>2018-05-06T23:15:45Z</time>
      </trkpt>
      <trkpt lat="45.8483" lon="6.59714">
        <ele>1056</ele>
        <time>2018-05-06T23:16:45Z</time>
      </trkpt>
      <trkpt lat="45.84835" lon="6.59723">
        <ele>1062</ele>
        <time>2018-05-06T23:17:45Z</time>
      </trkpt>
      <trkpt lat="45.84839" lon="6.59733">
        <ele>1062</ele>
        <time>2018-05-06T23:18:45Z</time>
      </trkpt>
      <trkpt lat="45.8484" lon="6.59738">
        <ele>1061</ele>
        <time>2018-05-06T23:19:45Z</time>
      </trkpt>
      <trkpt lat="45.84842" lon="6.59744">
        <ele>1061</ele>
        <time>2018-05-06T23:20:45Z</time>
      </trkpt>
      <trkpt lat="45.84844" lon="6.5975">
        <ele>1060</ele>
        <time>2018-05-06T23:21:45Z</time>
      </trkpt>
      <trkpt lat="45.84846" lon="6.59756">
        <ele>1060</ele>
        <time>2018-05-06T23:22:45Z</time>
      </trkpt>
      <trkpt lat="45.84857" lon="6.59786">
        <ele>1060</ele>
        <time>2018-05-06T23:23:45Z</time>
      </trkpt>
      <trkpt lat="45.84863" lon="6.59798">
        <ele>1060</ele>
        <time>2018-05-06T23:24:45Z</time>
      </trkpt>
      <trkpt lat="45.8487" lon="6.59812">
        <ele>1059</ele>
        <time>2018-05-06T23:25:45Z</time>
      </trkpt>
      <trkpt lat="45.84878" lon="6.59823">
        <ele>1059</ele>
        <time>2018-05-06T23:26:45Z</time>
      </trkpt>
      <trkpt lat="45.84894" lon="6.59841">
        <ele>1057</ele>
        <time>2018-05-06T23:27:45Z</time>
      </trkpt>
      <trkpt lat="45.84913" lon="6.59862">
        <ele>1056</ele>
        <time>2018-05-06T23:28:45Z</time>
      </trkpt>
      <trkpt lat="45.84921" lon="6.59873">
        <ele>1058</ele>
        <time>2018-05-06T23:29:45Z</time>
      </trkpt>
      <trkpt lat="45.84928" lon="6.59884">
        <ele>1058</ele>
        <time>2018-05-06T23:30:45Z</time>
      </trkpt>
      <trkpt lat="45.84935" lon="6.59899">
        <ele>1057</ele>
        <time>2018-05-06T23:31:45Z</time>
      </trkpt>
      <trkpt lat="45.8494" lon="6.59915">
        <ele>1057</ele>
        <time>2018-05-06T23:32:45Z</time>
      </trkpt>
      <trkpt lat="45.84943" lon="6.59936">
        <ele>1055</ele>
        <time>2018-05-06T23:33:45Z</time>
      </trkpt>
      <trkpt lat="45.84945" lon="6.59955">
        <ele>1055</ele>
        <time>2018-05-06T23:34:45Z</time>
      </trkpt>
      <trkpt lat="45.84948" lon="6.59992">
        <ele>1055</ele>
        <time>2018-05-06T23:35:45Z</time>
      </trkpt>
      <trkpt lat="45.84948" lon="6.6">
        <ele>1055</ele>
        <time>2018-05-06T23:36:45Z</time>
      </trkpt>
      <trkpt lat="45.8495" lon="6.60028">
        <ele>1056</ele>
        <time>2018-05-06T23:37:45Z</time>
      </trkpt>
      <trkpt lat="45.84949" lon="6.60037">
        <ele>1056</ele>
        <time>2018-05-06T23:38:45Z</time>
      </trkpt>
      <trkpt lat="45.84949" lon="6.60056">
        <ele>1056</ele>
        <time>2018-05-06T23:39:45Z</time>
      </trkpt>
      <trkpt lat="45.8495" lon="6.60084">
        <ele>1058</ele>
        <time>2018-05-06T23:40:45Z</time>
      </trkpt>
      <trkpt lat="45.84953" lon="6.60104">
        <ele>1059</ele>
        <time>2018-05-06T23:41:45Z</time>
      </trkpt>
      <trkpt lat="45.84957" lon="6.60117">
        <ele>1059</ele>
        <time>2018-05-06T23:42:45Z</time>
      </trkpt>
      <trkpt lat="45.84961" lon="6.60131">
        <ele>1060</ele>
        <time>2018-05-06T23:43:45Z</time>
      </trkpt>
      <trkpt lat="45.84967" lon="6.60141">
        <ele>1060</ele>
        <time>2018-05-06T23:44:45Z</time>
      </trkpt>
      <trkpt lat="45.84976" lon="6.60155">
        <ele>1061</ele>
        <time>2018-05-06T23:45:45Z</time>
      </trkpt>
      <trkpt lat="45.8498" lon="6.60162">
        <ele>1062</ele>
        <time>2018-05-06T23:46:45Z</time>
      </trkpt>
      <trkpt lat="45.84986" lon="6.6017">
        <ele>1064</ele>
        <time>2018-05-06T23:47:45Z</time>
      </trkpt>
      <trkpt lat="45.84997" lon="6.60184">
        <ele>1064</ele>
        <time>2018-05-06T23:48:45Z</time>
      </trkpt>
      <trkpt lat="45.85008" lon="6.60206">
        <ele>1066</ele>
        <time>2018-05-06T23:49:45Z</time>
      </trkpt>
      <trkpt lat="45.8502" lon="6.6023">
        <ele>1065</ele>
        <time>2018-05-06T23:50:45Z</time>
      </trkpt>
      <trkpt lat="45.85031" lon="6.60247">
        <ele>1065</ele>
        <time>2018-05-06T23:51:45Z</time>
      </trkpt>
      <trkpt lat="45.85037" lon="6.60254">
        <ele>1063</ele>
        <time>2018-05-06T23:52:45Z</time>
      </trkpt>
      <trkpt lat="45.85043" lon="6.60261">
        <ele>1064</ele>
        <time>2018-05-06T23:53:45Z</time>
      </trkpt>
      <trkpt lat="45.85051" lon="6.60269">
        <ele>1064</ele>
        <time>2018-05-06T23:54:45Z</time>
      </trkpt>
      <trkpt lat="45.85057" lon="6.60273">
        <ele>1064</ele>
        <time>2018-05-06T23:55:45Z</time>
      </trkpt>
      <trkpt lat="45.85063" lon="6.60276">
        <ele>1064</ele>
        <time>2018-05-06T23:56:45Z</time>
      </trkpt>
      <trkpt lat="45.85066" lon="6.60278">
        <ele>1064</ele>
        <time>2018-05-06T23:57:45Z</time>
      </trkpt>
      <trkpt lat="45.85071" lon="6.6028">
        <ele>1065</ele>
        <time>2018-05-06T23:58:45Z</time>
      </trkpt>
      <trkpt lat="45.85078" lon="6.60282">
        <ele>1065</ele>
        <time>2018-05-06T23:59:45Z</time>
      </trkpt>
      <trkpt lat="45.85084" lon="6.60287">
        <ele>1070</ele>
        <time>2018-05-07T00:00:45Z</time>
      </trkpt>
      <trkpt lat="45.85092" lon="6.60295">
        <ele>1071</ele>
        <time>2018-05-07T00:01:45Z</time>
      </trkpt>
      <trkpt lat="45.85099" lon="6.60306">
        <ele>1070</ele>
        <time>2018-05-07T00:02:45Z</time>
      </trkpt>
      <trkpt lat="45.85104" lon="6.60321">
        <ele>1070</ele>
        <time>2018-05-07T00:03:45Z</time>
      </trkpt>
      <trkpt lat="45.85107" lon="6.60334">
        <ele>1070</ele>
        <time>2018-05-07T00:04:45Z</time>
      </trkpt>
      <trkpt lat="45.85107" lon="6.60347">
        <ele>1071</ele>
        <time>2018-05-07T00:05:45Z</time>
      </trkpt>
      <trkpt lat="45.85106" lon="6.6036">
        <ele>1071</ele>
        <time>2018-05-07T00:06:45Z</time>
      </trkpt>
      <trkpt lat="45.85105" lon="6.60363">
        <ele>1071</ele>
        <time>2018-05-07T00:07:45Z</time>
      </trkpt>
      <trkpt lat="45.85104" lon="6.60372">
        <ele>1072</ele>
        <time>2018-05-07T00:08:45Z</time>
      </trkpt>
      <trkpt lat="45.85103" lon="6.60376">
        <ele>1072</ele>
        <time>2018-05-07T00:09:45Z</time>
      </trkpt>
      <trkpt lat="45.85096" lon="6.60398">
        <ele>1070</ele>
        <time>2018-05-07T00:10:45Z</time>
      </trkpt>
      <trkpt lat="45.85096" lon="6.604">
        <ele>1070</ele>
        <time>2018-05-07T00:11:45Z</time>
      </trkpt>
      <trkpt lat="45.85093" lon="6.60411">
        <ele>1069</ele>
        <time>2018-05-07T00:12:45Z</time>
      </trkpt>
      <trkpt lat="45.85092" lon="6.60423">
        <ele>1068</ele>
        <time>2018-05-07T00:13:45Z</time>
      </trkpt>
      <trkpt lat="45.85093" lon="6.60432">
        <ele>1069</ele>
        <time>2018-05-07T00:14:45Z</time>
      </trkpt>
      <trkpt lat="45.85094" lon="6.60442">
        <ele>1070</ele>
        <time>2018-05-07T00:15:45Z</time>
      </trkpt>
      <trkpt lat="45.85096" lon="6.60452">
        <ele>1070</ele>
        <time>2018-05-07T00:16:45Z</time>
      </trkpt>
      <trkpt lat="45.85101" lon="6.60463">
        <ele>1070</ele>
        <time>2018-05-07T00:17:45Z</time>
      </trkpt>
      <trkpt lat="45.85107" lon="6.60473">
        <ele>1070</ele>
        <time>2018-05-07T00:18:45Z</time>
      </trkpt>
      <trkpt lat="45.85115" lon="6.6048">
        <ele>1071</ele>
        <time>2018-05-07T00:19:45Z</time>
      </trkpt>
      <trkpt lat="45.85122" lon="6.60485">
        <ele>1071</ele>
        <time>2018-05-07T00:20:45Z</time>
      </trkpt>
      <trkpt lat="45.85134" lon="6.6049">
        <ele>1072</ele>
        <time>2018-05-07T00:21:45Z</time>
      </trkpt>
      <trkpt lat="45.85156" lon="6.60496">
        <ele>1073</ele>
        <time>2018-05-07T00:22:45Z</time>
      </trkpt>
      <trkpt lat="45.85167" lon="6.60499">
        <ele>1074</ele>
        <time>2018-05-07T00:23:45Z</time>
      </trkpt>
      <trkpt lat="45.8518" lon="6.60502">
        <ele>1073</ele>
        <time>2018-05-07T00:24:45Z</time>
      </trkpt>
      <trkpt lat="45.85209" lon="6.60509">
        <ele>1072</ele>
        <time>2018-05-07T00:25:45Z</time>
      </trkpt>
      <trkpt lat="45.85211" lon="6.6051">
        <ele>1072</ele>
        <time>2018-05-07T00:26:45Z</time>
      </trkpt>
      <trkpt lat="45.85219" lon="6.60511">
        <ele>1072</ele>
        <time>2018-05-07T00:27:45Z</time>
      </trkpt>
      <trkpt lat="45.85227" lon="6.60512">
        <ele>1072</ele>
        <time>2018-05-07T00:28:45Z</time>
      </trkpt>
      <trkpt lat="45.85238" lon="6.60512">
        <ele>1073</ele>
        <time>2018-05-07T00:29:45Z</time>
      </trkpt>
      <trkpt lat="45.85249" lon="6.6051">
        <ele>1073</ele>
        <time>2018-05-07T00:30:45Z</time>
      </trkpt>
      <trkpt lat="45.85262" lon="6.60504">
        <ele>1073</ele>
        <time>2018-05-07T00:31:45Z</time>
      </trkpt>
      <trkpt lat="45.85268" lon="6.605">
        <ele>1072</ele>
        <time>2018-05-07T00:32:45Z</time>
      </trkpt>
      <trkpt lat="45.85277" lon="6.60493">
        <ele>1075</ele>
        <time>2018-05-07T00:33:45Z</time>
      </trkpt>
      <trkpt lat="45.85295" lon="6.60478">
        <ele>1075</ele>
        <time>2018-05-07T00:34:45Z</time>
      </trkpt>
      <trkpt lat="45.85311" lon="6.60467">
        <ele>1075</ele>
        <time>2018-05-07T00:35:45Z</time>
      </trkpt>
      <trkpt lat="45.85315" lon="6.60465">
        <ele>1075</ele>
        <time>2018-05-07T00:36:45Z</time>
      </trkpt>
      <trkpt lat="45.85322" lon="6.60462">
        <ele>1075</ele>
        <time>2018-05-07T00:37:45Z</time>
      </trkpt>
      <trkpt lat="45.85332" lon="6.60461">
        <ele>1075</ele>
        <time>2018-05-07T00:38:45Z</time>
      </trkpt>
      <trkpt lat="45.85341" lon="6.60463">
        <ele>1076</ele>
        <time>2018-05-07T00:39:45Z</time>
      </trkpt>
      <trkpt lat="45.85351" lon="6.60467">
        <ele>1076</ele>
        <time>2018-05-07T00:40:45Z</time>
      </trkpt>
      <trkpt lat="45.85373" lon="6.60479">
        <ele>1076</ele>
        <time>2018-05-07T00:41:45Z</time>
      </trkpt>
      <trkpt lat="45.85381" lon="6.60485">
        <ele>1076</ele>
        <time>2018-05-07T00:42:45Z</time>
      </trkpt>
      <trkpt lat="45.85404" lon="6.605">
        <ele>1074</ele>
        <time>2018-05-07T00:43:45Z</time>
      </trkpt>
      <trkpt lat="45.85411" lon="6.60508">
        <ele>1074</ele>
        <time>2018-05-07T00:44:45Z</time>
      </trkpt>
      <trkpt lat="45.85417" lon="6.60518">
        <ele>1077</ele>
        <time>2018-05-07T00:45:45Z</time>
      </trkpt>
      <trkpt lat="45.85422" lon="6.60531">
        <ele>1077</ele>
        <time>2018-05-07T00:46:45Z</time>
      </trkpt>
      <trkpt lat="45.85423" lon="6.60534">
        <ele>1077</ele>
        <time>2018-05-07T00:47:45Z</time>
      </trkpt>
      <trkpt lat="45.85424" lon="6.60539">
        <ele>1077</ele>
        <time>2018-05-07T00:48:45Z</time>
      </trkpt>
      <trkpt lat="45.85426" lon="6.6055">
        <ele>1077</ele>
        <time>2018-05-07T00:49:45Z</time>
      </trkpt>
      <trkpt lat="45.85427" lon="6.60558">
        <ele>1076</ele>
        <time>2018-05-07T00:50:45Z</time>
      </trkpt>
      <trkpt lat="45.85427" lon="6.60578">
        <ele>1075</ele>
        <time>2018-05-07T00:51:45Z</time>
      </trkpt>
      <trkpt lat="45.85427" lon="6.60608">
        <ele>1075</ele>
        <time>2018-05-07T00:52:45Z</time>
      </trkpt>
      <trkpt lat="45.85427" lon="6.60612">
        <ele>1075</ele>
        <time>2018-05-07T00:53:45Z</time>
      </trkpt>
      <trkpt lat="45.85428" lon="6.60627">
        <ele>1075</ele>
        <time>2018-05-07T00:54:45Z</time>
      </trkpt>
      <trkpt lat="45.8543" lon="6.6064">
        <ele>1074</ele>
        <time>2018-05-07T00:55:45Z</time>
      </trkpt>
      <trkpt lat="45.85433" lon="6.60654">
        <ele>1073</ele>
        <time>2018-05-07T00:56:45Z</time>
      </trkpt>
      <trkpt lat="45.85438" lon="6.60669">
        <ele>1072</ele>
        <time>2018-05-07T00:57:45Z</time>
      </trkpt>
      <trkpt lat="45.85445" lon="6.60682">
        <ele>1072</ele>
        <time>2018-05-07T00:58:45Z</time>
      </trkpt>
      <trkpt lat="45.85451" lon="6.60692">
        <ele>1073</ele>
        <time>2018-05-07T00:59:45Z</time>
      </trkpt>
      <trkpt lat="45.85458" lon="6.60701">
        <ele>1073</ele>
        <time>2018-05-07T01:00:45Z</time>
      </trkpt>
      <trkpt lat="45.85466" lon="6.60709">
        <ele>1073</ele>
        <time>2018-05-07T01:01:45Z</time>
      </trkpt>
      <trkpt lat="45.85472" lon="6.60713">
        <ele>1073</ele>
        <time>2018-05-07T01:02:45Z</time>
      </trkpt>
      <trkpt lat="45.85475" lon="6.60715">
        <ele>1073</ele>
        <time>2018-05-07T01:03:45Z</time>
      </trkpt>
      <trkpt lat="45.85483" lon="6.6072">
        <ele>1073</ele>
        <time>2018-05-07T01:04:45Z</time>
      </trkpt>
      <trkpt lat="45.85491" lon="6.60723">
        <ele>1073</ele>
        <time>2018-05-07T01:05:45Z</time>
      </trkpt>
      <trkpt lat="45.85499" lon="6.60725">
        <ele>1073</ele>
        <time>2018-05-07T01:06:45Z</time>
      </trkpt>
      <trkpt lat="45.85506" lon="6.60726">
        <ele>1078</ele>
        <time>2018-05-07T01:07:45Z</time>
      </trkpt>
      <trkpt lat="45.85522" lon="6.60727">
        <ele>1078</ele>
        <time>2018-05-07T01:08:45Z</time>
      </trkpt>
      <trkpt lat="45.85567" lon="6.60728">
        <ele>1080</ele>
        <time>2018-05-07T01:09:45Z</time>
      </trkpt>
      <trkpt lat="45.85576" lon="6.60728">
        <ele>1080</ele>
        <time>2018-05-07T01:10:45Z</time>
      </trkpt>
      <trkpt lat="45.85595" lon="6.60729">
        <ele>1083</ele>
        <time>2018-05-07T01:11:45Z</time>
      </trkpt>
      <trkpt lat="45.85613" lon="6.60731">
        <ele>1084</ele>
        <time>2018-05-07T01:12:45Z</time>
      </trkpt>
      <trkpt lat="45.85624" lon="6.60733">
        <ele>1085</ele>
        <time>2018-05-07T01:13:45Z</time>
      </trkpt>
      <trkpt lat="45.85636" lon="6.60738">
        <ele>1085</ele>
        <time>2018-05-07T01:14:45Z</time>
      </trkpt>
      <trkpt lat="45.85646" lon="6.60744">
        <ele>1085</ele>
        <time>2018-05-07T01:15:45Z</time>
      </trkpt>
      <trkpt lat="45.85658" lon="6.60752">
        <ele>1083</ele>
        <time>2018-05-07T01:16:45Z</time>
      </trkpt>
      <trkpt lat="45.85666" lon="6.60761">
        <ele>1082</ele>
        <time>2018-05-07T01:17:45Z</time>
      </trkpt>
      <trkpt lat="45.85678" lon="6.60775">
        <ele>1086</ele>
        <time>2018-05-07T01:18:45Z</time>
      </trkpt>
      <trkpt lat="45.85681" lon="6.6078">
        <ele>1087</ele>
        <time>2018-05-07T01:19:45Z</time>
      </trkpt>
      <trkpt lat="45.857" lon="6.60805">
        <ele>1087</ele>
        <time>2018-05-07T01:20:45Z</time>
      </trkpt>
      <trkpt lat="45.85709" lon="6.60819">
        <ele>1087</ele>
        <time>2018-05-07T01:21:45Z</time>
      </trkpt>
      <trkpt lat="45.85711" lon="6.60821">
        <ele>1087</ele>
        <time>2018-05-07T01:22:45Z</time>
      </trkpt>
      <trkpt lat="45.85714" lon="6.60827">
        <ele>1087</ele>
        <time>2018-05-07T01:23:45Z</time>
      </trkpt>
      <trkpt lat="45.85722" lon="6.6085">
        <ele>1083</ele>
        <time>2018-05-07T01:24:45Z</time>
      </trkpt>
      <trkpt lat="45.85727" lon="6.60856">
        <ele>1083</ele>
        <time>2018-05-07T01:25:45Z</time>
      </trkpt>
      <trkpt lat="45.85737" lon="6.60872">
        <ele>1083</ele>
        <time>2018-05-07T01:26:45Z</time>
      </trkpt>
      <trkpt lat="45.8574" lon="6.60877">
        <ele>1082</ele>
        <time>2018-05-07T01:27:45Z</time>
      </trkpt>
      <trkpt lat="45.85742" lon="6.60882">
        <ele>1082</ele>
        <time>2018-05-07T01:28:45Z</time>
      </trkpt>
      <trkpt lat="45.85746" lon="6.60892">
        <ele>1082</ele>
        <time>2018-05-07T01:29:45Z</time>
      </trkpt>
      <trkpt lat="45.8575" lon="6.60904">
        <ele>1086</ele>
        <time>2018-05-07T01:30:45Z</time>
      </trkpt>
      <trkpt lat="45.85753" lon="6.60919">
        <ele>1082</ele>
        <time>2018-05-07T01:31:45Z</time>
      </trkpt>
      <trkpt lat="45.85756" lon="6.60928">
        <ele>1084</ele>
        <time>2018-05-07T01:32:45Z</time>
      </trkpt>
      <trkpt lat="45.85758" lon="6.60939">
        <ele>1085</ele>
        <time>2018-05-07T01:33:45Z</time>
      </trkpt>
      <trkpt lat="45.85763" lon="6.60972">
        <ele>1087</ele>
        <time>2018-05-07T01:34:45Z</time>
      </trkpt>
      <trkpt lat="45.85762" lon="6.60983">
        <ele>1086</ele>
        <time>2018-05-07T01:35:45Z</time>
      </trkpt>
      <trkpt lat="45.85763" lon="6.60991">
        <ele>1086</ele>
        <time>2018-05-07T01:36:45Z</time>
      </trkpt>
      <trkpt lat="45.85762" lon="6.60999">
        <ele>1086</ele>
        <time>2018-05-07T01:37:45Z</time>
      </trkpt>
      <trkpt lat="45.85761" lon="6.61005">
        <ele>1086</ele>
        <time>2018-05-07T01:38:45Z</time>
      </trkpt>
      <trkpt lat="45.85758" lon="6.61007">
        <ele>1086</ele>
        <time>2018-05-07T01:39:45Z</time>
      </trkpt>
      <trkpt lat="45.85756" lon="6.6101">
        <ele>1086</ele>
        <time>2018-05-07T01:40:45Z</time>
      </trkpt>
      <trkpt lat="45.85753" lon="6.61016">
        <ele>1086</ele>
        <time>2018-05-07T01:41:45Z</time>
      </trkpt>
      <trkpt lat="45.85753" lon="6.61022">
        <ele>1086</ele>
        <time>2018-05-07T01:42:45Z</time>
      </trkpt>
      <trkpt lat="45.85754" lon="6.61028">
        <ele>1087</ele>
        <time>2018-05-07T01:43:45Z</time>
      </trkpt>
      <trkpt lat="45.85754" lon="6.6103">
        <ele>1087</ele>
        <time>2018-05-07T01:44:45Z</time>
      </trkpt>
      <trkpt lat="45.85756" lon="6.61035">
        <ele>1087</ele>
        <time>2018-05-07T01:45:45Z</time>
      </trkpt>
      <trkpt lat="45.85758" lon="6.61036">
        <ele>1087</ele>
        <time>2018-05-07T01:46:45Z</time>
      </trkpt>
      <trkpt lat="45.85758" lon="6.61058">
        <ele>1088</ele>
        <time>2018-05-07T01:47:45Z</time>
      </trkpt>
      <trkpt lat="45.85758" lon="6.61075">
        <ele>1088</ele>
        <time>2018-05-07T01:48:45Z</time>
      </trkpt>
      <trkpt lat="45.85758" lon="6.61079">
        <ele>1088</ele>
        <time>2018-05-07T01:49:45Z</time>
      </trkpt>
      <trkpt lat="45.85759" lon="6.61087">
        <ele>1088</ele>
        <time>2018-05-07T01:50:45Z</time>
      </trkpt>
      <trkpt lat="45.85751" lon="6.61132">
        <ele>1088</ele>
        <time>2018-05-07T01:51:45Z</time>
      </trkpt>
      <trkpt lat="45.85744" lon="6.61179">
        <ele>1090</ele>
        <time>2018-05-07T01:52:45Z</time>
      </trkpt>
      <trkpt lat="45.85742" lon="6.61202">
        <ele>1092</ele>
        <time>2018-05-07T01:53:45Z</time>
      </trkpt>
      <trkpt lat="45.8574" lon="6.61226">
        <ele>1092</ele>
        <time>2018-05-07T01:54:45Z</time>
      </trkpt>
      <trkpt lat="45.85738" lon="6.61228">
        <ele>1092</ele>
        <time>2018-05-07T01:55:45Z</time>
      </trkpt>
      <trkpt lat="45.85738" lon="6.61229">
        <ele>1092</ele>
        <time>2018-05-07T01:56:45Z</time>
      </trkpt>
      <trkpt lat="45.85738" lon="6.61233">
        <ele>1092</ele>
        <time>2018-05-07T01:57:45Z</time>
      </trkpt>
      <trkpt lat="45.85738" lon="6.61235">
        <ele>1092</ele>
        <time>2018-05-07T01:58:45Z</time>
      </trkpt>
      <trkpt lat="45.85738" lon="6.6125">
        <ele>1091</ele>
        <time>2018-05-07T01:59:45Z</time>
      </trkpt>
      <trkpt lat="45.85738" lon="6.61266">
        <ele>1092</ele>
        <time>2018-05-07T02:00:45Z</time>
      </trkpt>
      <trkpt lat="45.85742" lon="6.61314">
        <ele>1092</ele>
        <time>2018-05-07T02:01:45Z</time>
      </trkpt>
      <trkpt lat="45.85744" lon="6.61317">
        <ele>1092</ele>
        <time>2018-05-07T02:02:45Z</time>
      </trkpt>
      <trkpt lat="45.85745" lon="6.61321">
        <ele>1092</ele>
        <time>2018-05-07T02:03:45Z</time>
      </trkpt>
      <trkpt lat="45.85748" lon="6.61334">
        <ele>1090</ele>
        <time>2018-05-07T02:04:45Z</time>
      </trkpt>
      <trkpt lat="45.85763" lon="6.61397">
        <ele>1091</ele>
        <time>2018-05-07T02:05:45Z</time>
      </trkpt>
      <trkpt lat="45.85773" lon="6.61431">
        <ele>1092</ele>
        <time>2018-05-07T02:06:45Z</time>
      </trkpt>
      <trkpt lat="45.85775" lon="6.61442">
        <ele>1092</ele>
        <time>2018-05-07T02:07:45Z</time>
      </trkpt>
      <trkpt lat="45.85778" lon="6.61453">
        <ele>1093</ele>
        <time>2018-05-07T02:08:45Z</time>
      </trkpt>
      <trkpt lat="45.85781" lon="6.61461">
        <ele>1093</ele>
        <time>2018-05-07T02:09:45Z</time>
      </trkpt>
      <trkpt lat="45.85783" lon="6.6147">
        <ele>1093</ele>
        <time>2018-05-07T02:10:45Z</time>
      </trkpt>
      <trkpt lat="45.85784" lon="6.61475">
        <ele>1093</ele>
        <time>2018-05-07T02:11:45Z</time>
      </trkpt>
      <trkpt lat="45.858" lon="6.61537">
        <ele>1095</ele>
        <time>2018-05-07T02:12:45Z</time>
      </trkpt>
      <trkpt lat="45.85805" lon="6.61556">
        <ele>1095</ele>
        <time>2018-05-07T02:13:45Z</time>
      </trkpt>
      <trkpt lat="45.8581" lon="6.61582">
        <ele>1096</ele>
        <time>2018-05-07T02:14:45Z</time>
      </trkpt>
      <trkpt lat="45.85813" lon="6.61599">
        <ele>1097</ele>
        <time>2018-05-07T02:15:45Z</time>
      </trkpt>
      <trkpt lat="45.85815" lon="6.61613">
        <ele>1097</ele>
        <time>2018-05-07T02:16:45Z</time>
      </trkpt>
      <trkpt lat="45.85813" lon="6.61616">
        <ele>1098</ele>
        <time>2018-05-07T02:17:45Z</time>
      </trkpt>
      <trkpt lat="45.85812" lon="6.6162">
        <ele>1098</ele>
        <time>2018-05-07T02:18:45Z</time>
      </trkpt>
      <trkpt lat="45.8581" lon="6.61624">
        <ele>1098</ele>
        <time>2018-05-07T02:19:45Z</time>
      </trkpt>
      <trkpt lat="45.85809" lon="6.61633">
        <ele>1098</ele>
        <time>2018-05-07T02:20:45Z</time>
      </trkpt>
      <trkpt lat="45.8581" lon="6.61645">
        <ele>1098</ele>
        <time>2018-05-07T02:21:45Z</time>
      </trkpt>
      <trkpt lat="45.8581" lon="6.61648">
        <ele>1098</ele>
        <time>2018-05-07T02:22:45Z</time>
      </trkpt>
      <trkpt lat="45.85811" lon="6.61652">
        <ele>1098</ele>
        <time>2018-05-07T02:23:45Z</time>
      </trkpt>
      <trkpt lat="45.85813" lon="6.6166">
        <ele>1098</ele>
        <time>2018-05-07T02:24:45Z</time>
      </trkpt>
      <trkpt lat="45.85816" lon="6.61665">
        <ele>1098</ele>
        <time>2018-05-07T02:25:45Z</time>
      </trkpt>
      <trkpt lat="45.85818" lon="6.61667">
        <ele>1100</ele>
        <time>2018-05-07T02:26:45Z</time>
      </trkpt>
      <trkpt lat="45.8582" lon="6.61668">
        <ele>1099</ele>
        <time>2018-05-07T02:27:45Z</time>
      </trkpt>
      <trkpt lat="45.85822" lon="6.61667">
        <ele>1099</ele>
        <time>2018-05-07T02:28:45Z</time>
      </trkpt>
      <trkpt lat="45.85825" lon="6.61667">
        <ele>1099</ele>
        <time>2018-05-07T02:29:45Z</time>
      </trkpt>
      <trkpt lat="45.85832" lon="6.61677">
        <ele>1099</ele>
        <time>2018-05-07T02:30:45Z</time>
      </trkpt>
      <trkpt lat="45.85837" lon="6.61686">
        <ele>1099</ele>
        <time>2018-05-07T02:31:45Z</time>
      </trkpt>
      <trkpt lat="45.85839" lon="6.61692">
        <ele>1099</ele>
        <time>2018-05-07T02:32:45Z</time>
      </trkpt>
      <trkpt lat="45.85843" lon="6.61704">
        <ele>1099</ele>
        <time>2018-05-07T02:33:45Z</time>
      </trkpt>
      <trkpt lat="45.85845" lon="6.61707">
        <ele>1099</ele>
        <time>2018-05-07T02:34:45Z</time>
      </trkpt>
      <trkpt lat="45.8585" lon="6.61724">
        <ele>1100</ele>
        <time>2018-05-07T02:35:45Z</time>
      </trkpt>
      <trkpt lat="45.85858" lon="6.61758">
        <ele>1100</ele>
        <time>2018-05-07T02:36:45Z</time>
      </trkpt>
      <trkpt lat="45.85862" lon="6.6177">
        <ele>1100</ele>
        <time>2018-05-07T02:37:45Z</time>
      </trkpt>
      <trkpt lat="45.8587" lon="6.61802">
        <ele>1100</ele>
        <time>2018-05-07T02:38:45Z</time>
      </trkpt>
      <trkpt lat="45.85876" lon="6.61822">
        <ele>1099</ele>
        <time>2018-05-07T02:39:45Z</time>
      </trkpt>
      <trkpt lat="45.85879" lon="6.61833">
        <ele>1099</ele>
        <time>2018-05-07T02:40:45Z</time>
      </trkpt>
      <trkpt lat="45.85884" lon="6.61853">
        <ele>1099</ele>
        <time>2018-05-07T02:41:45Z</time>
      </trkpt>
      <trkpt lat="45.85889" lon="6.61866">
        <ele>1099</ele>
        <time>2018-05-07T02:42:45Z</time>
      </trkpt>
      <trkpt lat="45.85892" lon="6.61872">
        <ele>1099</ele>
        <time>2018-05-07T02:43:45Z</time>
      </trkpt>
      <trkpt lat="45.85896" lon="6.6188">
        <ele>1099</ele>
        <time>2018-05-07T02:44:45Z</time>
      </trkpt>
      <trkpt lat="45.85904" lon="6.61894">
        <ele>1099</ele>
        <time>2018-05-07T02:45:45Z</time>
      </trkpt>
      <trkpt lat="45.85913" lon="6.61907">
        <ele>1098</ele>
        <time>2018-05-07T02:46:45Z</time>
      </trkpt>
      <trkpt lat="45.8592" lon="6.61916">
        <ele>1098</ele>
        <time>2018-05-07T02:47:45Z</time>
      </trkpt>
      <trkpt lat="45.85924" lon="6.61923">
        <ele>1098</ele>
        <time>2018-05-07T02:48:45Z</time>
      </trkpt>
      <trkpt lat="45.85928" lon="6.61929">
        <ele>1097</ele>
        <time>2018-05-07T02:49:45Z</time>
      </trkpt>
      <trkpt lat="45.8593" lon="6.61934">
        <ele>1097</ele>
        <time>2018-05-07T02:50:45Z</time>
      </trkpt>
      <trkpt lat="45.85932" lon="6.61941">
        <ele>1097</ele>
        <time>2018-05-07T02:51:45Z</time>
      </trkpt>
      <trkpt lat="45.85934" lon="6.61948">
        <ele>1097</ele>
        <time>2018-05-07T02:52:45Z</time>
      </trkpt>
      <trkpt lat="45.85936" lon="6.61964">
        <ele>1097</ele>
        <time>2018-05-07T02:53:45Z</time>
      </trkpt>
      <trkpt lat="45.85935" lon="6.61966">
        <ele>1097</ele>
        <time>2018-05-07T02:54:45Z</time>
      </trkpt>
      <trkpt lat="45.85934" lon="6.61969">
        <ele>1097</ele>
        <time>2018-05-07T02:55:45Z</time>
      </trkpt>
      <trkpt lat="45.85935" lon="6.61976">
        <ele>1097</ele>
        <time>2018-05-07T02:56:45Z</time>
      </trkpt>
      <trkpt lat="45.85938" lon="6.61983">
        <ele>1097</ele>
        <time>2018-05-07T02:57:45Z</time>
      </trkpt>
      <trkpt lat="45.85939" lon="6.61985">
        <ele>1097</ele>
        <time>2018-05-07T02:58:45Z</time>
      </trkpt>
      <trkpt lat="45.85943" lon="6.6199">
        <ele>1097</ele>
        <time>2018-05-07T02:59:45Z</time>
      </trkpt>
      <trkpt lat="45.85957" lon="6.62005">
        <ele>1098</ele>
        <time>2018-05-07T03:00:45Z</time>
      </trkpt>
      <trkpt lat="45.8596" lon="6.62016">
        <ele>1098</ele>
        <time>2018-05-07T03:01:45Z</time>
      </trkpt>
      <trkpt lat="45.85964" lon="6.62035">
        <ele>1099</ele>
        <time>2018-05-07T03:02:45Z</time>
      </trkpt>
      <trkpt lat="45.85969" lon="6.62056">
        <ele>1099</ele>
        <time>2018-05-07T03:03:45Z</time>
      </trkpt>
      <trkpt lat="45.85972" lon="6.62064">
        <ele>1099</ele>
        <time>2018-05-07T03:04:45Z</time>
      </trkpt>
      <trkpt lat="45.85979" lon="6.62081">
        <ele>1099</ele>
        <time>2018-05-07T03:05:45Z</time>
      </trkpt>
      <trkpt lat="45.85995" lon="6.62112">
        <ele>1101</ele>
        <time>2018-05-07T03:06:45Z</time>
      </trkpt>
      <trkpt lat="45.86027" lon="6.62172">
        <ele>1101</ele>
        <time>2018-05-07T03:07:45Z</time>
      </trkpt>
      <trkpt lat="45.86057" lon="6.62227">
        <ele>1101</ele>
        <time>2018-05-07T03:08:45Z</time>
      </trkpt>
      <trkpt lat="45.8608" lon="6.62269">
        <ele>1102</ele>
        <time>2018-05-07T03:09:45Z</time>
      </trkpt>
      <trkpt lat="45.86086" lon="6.62281">
        <ele>1101</ele>
        <time>2018-05-07T03:10:45Z</time>
      </trkpt>
      <trkpt lat="45.86101" lon="6.62306">
        <ele>1102</ele>
        <time>2018-05-07T03:11:45Z</time>
      </trkpt>
      <trkpt lat="45.86111" lon="6.62318">
        <ele>1102</ele>
        <time>2018-05-07T03:12:45Z</time>
      </trkpt>
      <trkpt lat="45.86121" lon="6.6233">
        <ele>1102</ele>
        <time>2018-05-07T03:13:45Z</time>
      </trkpt>
      <trkpt lat="45.86133" lon="6.62343">
        <ele>1105</ele>
        <time>2018-05-07T03:14:45Z</time>
      </trkpt>
      <trkpt lat="45.86135" lon="6.62345">
        <ele>1105</ele>
        <time>2018-05-07T03:15:45Z</time>
      </trkpt>
      <trkpt lat="45.86136" lon="6.62346">
        <ele>1105</ele>
        <time>2018-05-07T03:16:45Z</time>
      </trkpt>
      <trkpt lat="45.86149" lon="6.62357">
        <ele>1105</ele>
        <time>2018-05-07T03:17:45Z</time>
      </trkpt>
      <trkpt lat="45.86162" lon="6.62367">
        <ele>1105</ele>
        <time>2018-05-07T03:18:45Z</time>
      </trkpt>
      <trkpt lat="45.86164" lon="6.62368">
        <ele>1105</ele>
        <time>2018-05-07T03:19:45Z</time>
      </trkpt>
      <trkpt lat="45.86199" lon="6.62391">
        <ele>1105</ele>
        <time>2018-05-07T03:20:45Z</time>
      </trkpt>
      <trkpt lat="45.8622" lon="6.62405">
        <ele>1104</ele>
        <time>2018-05-07T03:21:45Z</time>
      </trkpt>
      <trkpt lat="45.86225" lon="6.62407">
        <ele>1104</ele>
        <time>2018-05-07T03:22:45Z</time>
      </trkpt>
      <trkpt lat="45.86257" lon="6.62427">
        <ele>1104</ele>
        <time>2018-05-07T03:23:45Z</time>
      </trkpt>
      <trkpt lat="45.86264" lon="6.62432">
        <ele>1104</ele>
        <time>2018-05-07T03:24:45Z</time>
      </trkpt>
      <trkpt lat="45.8627" lon="6.62435">
        <ele>1104</ele>
        <time>2018-05-07T03:25:45Z</time>
      </trkpt>
      <trkpt lat="45.86283" lon="6.62444">
        <ele>1104</ele>
        <time>2018-05-07T03:26:45Z</time>
      </trkpt>
      <trkpt lat="45.86289" lon="6.62448">
        <ele>1104</ele>
        <time>2018-05-07T03:27:45Z</time>
      </trkpt>
      <trkpt lat="45.86322" lon="6.6247">
        <ele>1104</ele>
        <time>2018-05-07T03:28:45Z</time>
      </trkpt>
      <trkpt lat="45.86354" lon="6.62491">
        <ele>1105</ele>
        <time>2018-05-07T03:29:45Z</time>
      </trkpt>
      <trkpt lat="45.86406" lon="6.62524">
        <ele>1107</ele>
        <time>2018-05-07T03:30:45Z</time>
      </trkpt>
      <trkpt lat="45.86438" lon="6.62546">
        <ele>1107</ele>
        <time>2018-05-07T03:31:45Z</time>
      </trkpt>
      <trkpt lat="45.8644" lon="6.62547">
        <ele>1107</ele>
        <time>2018-05-07T03:32:45Z</time>
      </trkpt>
      <trkpt lat="45.86486" lon="6.62576">
        <ele>1107</ele>
        <time>2018-05-07T03:33:45Z</time>
      </trkpt>
      <trkpt lat="45.8649" lon="6.62578">
        <ele>1107</ele>
        <time>2018-05-07T03:34:45Z</time>
      </trkpt>
      <trkpt lat="45.86496" lon="6.62582">
        <ele>1107</ele>
        <time>2018-05-07T03:35:45Z</time>
      </trkpt>
      <trkpt lat="45.86529" lon="6.62604">
        <ele>1109</ele>
        <time>2018-05-07T03:36:45Z</time>
      </trkpt>
      <trkpt lat="45.86553" lon="6.62618">
        <ele>1109</ele>
        <time>2018-05-07T03:37:45Z</time>
      </trkpt>
      <trkpt lat="45.86573" lon="6.62632">
        <ele>1110</ele>
        <time>2018-05-07T03:38:45Z</time>
      </trkpt>
      <trkpt lat="45.8658" lon="6.62636">
        <ele>1110</ele>
        <time>2018-05-07T03:39:45Z</time>
      </trkpt>
      <trkpt lat="45.86606" lon="6.62654">
        <ele>1110</ele>
        <time>2018-05-07T03:40:45Z</time>
      </trkpt>
      <trkpt lat="45.86627" lon="6.62669">
        <ele>1111</ele>
        <time>2018-05-07T03:41:45Z</time>
      </trkpt>
      <trkpt lat="45.86631" lon="6.62672">
        <ele>1111</ele>
        <time>2018-05-07T03:42:45Z</time>
      </trkpt>
      <trkpt lat="45.86631" lon="6.62673">
        <ele>1111</ele>
        <time>2018-05-07T03:43:45Z</time>
      </trkpt>
      <trkpt lat="45.86633" lon="6.62674">
        <ele>1111</ele>
        <time>2018-05-07T03:44:45Z</time>
      </trkpt>
      <trkpt lat="45.86646" lon="6.62683">
        <ele>1111</ele>
        <time>2018-05-07T03:45:45Z</time>
      </trkpt>
      <trkpt lat="45.8665" lon="6.62685">
        <ele>1111</ele>
        <time>2018-05-07T03:46:45Z</time>
      </trkpt>
      <trkpt lat="45.86677" lon="6.62702">
        <ele>1110</ele>
        <time>2018-05-07T03:47:45Z</time>
      </trkpt>
      <trkpt lat="45.86701" lon="6.62719">
        <ele>1110</ele>
        <time>2018-05-07T03:48:45Z</time>
      </trkpt>
      <trkpt lat="45.86725" lon="6.62734">
        <ele>1110</ele>
        <time>2018-05-07T03:49:45Z</time>
      </trkpt>
      <trkpt lat="45.86734" lon="6.6274">
        <ele>1110</ele>
        <time>2018-05-07T03:50:45Z</time>
      </trkpt>
      <trkpt lat="45.86772" lon="6.62765">
        <ele>1110</ele>
        <time>2018-05-07T03:51:45Z</time>
      </trkpt>
      <trkpt lat="45.86803" lon="6.62784">
        <ele>1110</ele>
        <time>2018-05-07T03:52:45Z</time>
      </trkpt>
      <trkpt lat="45.86832" lon="6.62805">
        <ele>1110</ele>
        <time>2018-05-07T03:53:45Z</time>
      </trkpt>
      <trkpt lat="45.86847" lon="6.62814">
        <ele>1111</ele>
        <time>2018-05-07T03:54:45Z</time>
      </trkpt>
      <trkpt lat="45.86854" lon="6.62818">
        <ele>1111</ele>
        <time>2018-05-07T03:55:45Z</time>
      </trkpt>
      <trkpt lat="45.86873" lon="6.6283">
        <ele>1112</ele>
        <time>2018-05-07T03:56:45Z</time>
      </trkpt>
      <trkpt lat="45.86886" lon="6.62838">
        <ele>1111</ele>
        <time>2018-05-07T03:57:45Z</time>
      </trkpt>
      <trkpt lat="45.86892" lon="6.62843">
        <ele>1111</ele>
        <time>2018-05-07T03:58:45Z</time>
      </trkpt>
      <trkpt lat="45.86918" lon="6.6286">
        <ele>1112</ele>
        <time>2018-05-07T03:59:45Z</time>
      </trkpt>
      <trkpt lat="45.8692" lon="6.62861">
        <ele>1112</ele>
        <time>2018-05-07T04:00:45Z</time>
      </trkpt>
      <trkpt lat="45.86938" lon="6.62875">
        <ele>1111</ele>
        <time>2018-05-07T04:01:45Z</time>
      </trkpt>
      <trkpt lat="45.86957" lon="6.62886">
        <ele>1111</ele>
        <time>2018-05-07T04:02:45Z</time>
      </trkpt>
      <trkpt lat="45.86962" lon="6.6289">
        <ele>1111</ele>
        <time>2018-05-07T04:03:45Z</time>
      </trkpt>
      <trkpt lat="45.8697" lon="6.62895">
        <ele>1111</ele>
        <time>2018-05-07T04:04:45Z</time>
      </trkpt>
      <trkpt lat="45.86976" lon="6.62899">
        <ele>1111</ele>
        <time>2018-05-07T04:05:45Z</time>
      </trkpt>
      <trkpt lat="45.87002" lon="6.62917">
        <ele>1109</ele>
        <time>2018-05-07T04:06:45Z</time>
      </trkpt>
      <trkpt lat="45.87029" lon="6.62934">
        <ele>1109</ele>
        <time>2018-05-07T04:07:45Z</time>
      </trkpt>
      <trkpt lat="45.87082" lon="6.62967">
        <ele>1107</ele>
        <time>2018-05-07T04:08:45Z</time>
      </trkpt>
      <trkpt lat="45.87105" lon="6.62981">
        <ele>1111</ele>
        <time>2018-05-07T04:09:45Z</time>
      </trkpt>
      <trkpt lat="45.87129" lon="6.62998">
        <ele>1112</ele>
        <time>2018-05-07T04:10:45Z</time>
      </trkpt>
      <trkpt lat="45.87136" lon="6.63012">
        <ele>1102</ele>
        <time>2018-05-07T04:11:45Z</time>
      </trkpt>
      <trkpt lat="45.87139" lon="6.63017">
        <ele>1102</ele>
        <time>2018-05-07T04:12:45Z</time>
      </trkpt>
      <trkpt lat="45.87139" lon="6.63022">
        <ele>1102</ele>
        <time>2018-05-07T04:13:45Z</time>
      </trkpt>
      <trkpt lat="45.8714" lon="6.63025">
        <ele>1102</ele>
        <time>2018-05-07T04:14:45Z</time>
      </trkpt>
      <trkpt lat="45.87141" lon="6.63027">
        <ele>1101</ele>
        <time>2018-05-07T04:15:45Z</time>
      </trkpt>
      <trkpt lat="45.87143" lon="6.6303">
        <ele>1101</ele>
        <time>2018-05-07T04:16:45Z</time>
      </trkpt>
      <trkpt lat="45.87145" lon="6.6303">
        <ele>1101</ele>
        <time>2018-05-07T04:17:45Z</time>
      </trkpt>
      <trkpt lat="45.87149" lon="6.63031">
        <ele>1102</ele>
        <time>2018-05-07T04:18:45Z</time>
      </trkpt>
      <trkpt lat="45.8715" lon="6.63031">
        <ele>1102</ele>
        <time>2018-05-07T04:19:45Z</time>
      </trkpt>
      <trkpt lat="45.87152" lon="6.6303">
        <ele>1102</ele>
        <time>2018-05-07T04:20:45Z</time>
      </trkpt>
      <trkpt lat="45.87155" lon="6.63028">
        <ele>1102</ele>
        <time>2018-05-07T04:21:45Z</time>
      </trkpt>
      <trkpt lat="45.87161" lon="6.63027">
        <ele>1102</ele>
        <time>2018-05-07T04:22:45Z</time>
      </trkpt>
      <trkpt lat="45.8717" lon="6.63029">
        <ele>1106</ele>
        <time>2018-05-07T04:23:45Z</time>
      </trkpt>
      <trkpt lat="45.87182" lon="6.63033">
        <ele>1106</ele>
        <time>2018-05-07T04:24:45Z</time>
      </trkpt>
      <trkpt lat="45.87201" lon="6.63044">
        <ele>1106</ele>
        <time>2018-05-07T04:25:45Z</time>
      </trkpt>
      <trkpt lat="45.87218" lon="6.63063">
        <ele>1105</ele>
        <time>2018-05-07T04:26:45Z</time>
      </trkpt>
      <trkpt lat="45.87229" lon="6.63082">
        <ele>1103</ele>
        <time>2018-05-07T04:27:45Z</time>
      </trkpt>
      <trkpt lat="45.87242" lon="6.63108">
        <ele>1097</ele>
        <time>2018-05-07T04:28:45Z</time>
      </trkpt>
      <trkpt lat="45.87256" lon="6.63138">
        <ele>1099</ele>
        <time>2018-05-07T04:29:45Z</time>
      </trkpt>
      <trkpt lat="45.87271" lon="6.63175">
        <ele>1094</ele>
        <time>2018-05-07T04:30:45Z</time>
      </trkpt>
      <trkpt lat="45.87282" lon="6.63196">
        <ele>1094</ele>
        <time>2018-05-07T04:31:45Z</time>
      </trkpt>
      <trkpt lat="45.87295" lon="6.63214">
        <ele>1094</ele>
        <time>2018-05-07T04:32:45Z</time>
      </trkpt>
      <trkpt lat="45.87312" lon="6.6323">
        <ele>1093</ele>
        <time>2018-05-07T04:33:45Z</time>
      </trkpt>
      <trkpt lat="45.87337" lon="6.63244">
        <ele>1092</ele>
        <time>2018-05-07T04:34:45Z</time>
      </trkpt>
      <trkpt lat="45.87371" lon="6.63262">
        <ele>1090</ele>
        <time>2018-05-07T04:35:45Z</time>
      </trkpt>
      <trkpt lat="45.87379" lon="6.63267">
        <ele>1090</ele>
        <time>2018-05-07T04:36:45Z</time>
      </trkpt>
      <trkpt lat="45.87418" lon="6.63286">
        <ele>1089</ele>
        <time>2018-05-07T04:37:45Z</time>
      </trkpt>
      <trkpt lat="45.87444" lon="6.63302">
        <ele>1089</ele>
        <time>2018-05-07T04:38:45Z</time>
      </trkpt>
      <trkpt lat="45.87464" lon="6.63313">
        <ele>1089</ele>
        <time>2018-05-07T04:39:45Z</time>
      </trkpt>
      <trkpt lat="45.87486" lon="6.63328">
        <ele>1087</ele>
        <time>2018-05-07T04:40:45Z</time>
      </trkpt>
      <trkpt lat="45.87493" lon="6.63336">
        <ele>1084</ele>
        <time>2018-05-07T04:41:45Z</time>
      </trkpt>
      <trkpt lat="45.87499" lon="6.63344">
        <ele>1084</ele>
        <time>2018-05-07T04:42:45Z</time>
      </trkpt>
      <trkpt lat="45.87505" lon="6.63359">
        <ele>1084</ele>
        <time>2018-05-07T04:43:45Z</time>
      </trkpt>
      <trkpt lat="45.87514" lon="6.63397">
        <ele>1083</ele>
        <time>2018-05-07T04:44:45Z</time>
      </trkpt>
      <trkpt lat="45.87517" lon="6.63409">
        <ele>1083</ele>
        <time>2018-05-07T04:45:45Z</time>
      </trkpt>
      <trkpt lat="45.87523" lon="6.63433">
        <ele>1082</ele>
        <time>2018-05-07T04:46:45Z</time>
      </trkpt>
      <trkpt lat="45.87525" lon="6.63439">
        <ele>1082</ele>
        <time>2018-05-07T04:47:45Z</time>
      </trkpt>
      <trkpt lat="45.87531" lon="6.63466">
        <ele>1081</ele>
        <time>2018-05-07T04:48:45Z</time>
      </trkpt>
      <trkpt lat="45.87537" lon="6.6348">
        <ele>1081</ele>
        <time>2018-05-07T04:49:45Z</time>
      </trkpt>
      <trkpt lat="45.87543" lon="6.63498">
        <ele>1081</ele>
        <time>2018-05-07T04:50:45Z</time>
      </trkpt>
      <trkpt lat="45.87545" lon="6.63502">
        <ele>1081</ele>
        <time>2018-05-07T04:51:45Z</time>
      </trkpt>
      <trkpt lat="45.87552" lon="6.63513">
        <ele>1081</ele>
        <time>2018-05-07T04:52:45Z</time>
      </trkpt>
      <trkpt lat="45.87565" lon="6.63531">
        <ele>1080</ele>
        <time>2018-05-07T04:53:45Z</time>
      </trkpt>
      <trkpt lat="45.87582" lon="6.63547">
        <ele>1080</ele>
        <time>2018-05-07T04:54:45Z</time>
      </trkpt>
      <trkpt lat="45.87603" lon="6.63562">
        <ele>1076</ele>
        <time>2018-05-07T04:55:45Z</time>
      </trkpt>
      <trkpt lat="45.87619" lon="6.63569">
        <ele>1075</ele>
        <time>2018-05-07T04:56:45Z</time>
      </trkpt>
      <trkpt lat="45.8763" lon="6.63569">
        <ele>1075</ele>
        <time>2018-05-07T04:57:45Z</time>
      </trkpt>
      <trkpt lat="45.87646" lon="6.63568">
        <ele>1074</ele>
        <time>2018-05-07T04:58:45Z</time>
      </trkpt>
      <trkpt lat="45.87664" lon="6.63563">
        <ele>1073</ele>
        <time>2018-05-07T04:59:45Z</time>
      </trkpt>
      <trkpt lat="45.87681" lon="6.6356">
        <ele>1072</ele>
        <time>2018-05-07T05:00:45Z</time>
      </trkpt>
      <trkpt lat="45.87696" lon="6.63563">
        <ele>1072</ele>
        <time>2018-05-07T05:01:45Z</time>
      </trkpt>
      <trkpt lat="45.87712" lon="6.63573">
        <ele>1072</ele>
        <time>2018-05-07T05:02:45Z</time>
      </trkpt>
      <trkpt lat="45.87724" lon="6.63585">
        <ele>1069</ele>
        <time>2018-05-07T05:03:45Z</time>
      </trkpt>
      <trkpt lat="45.87727" lon="6.6359">
        <ele>1069</ele>
        <time>2018-05-07T05:04:45Z</time>
      </trkpt>
      <trkpt lat="45.8774" lon="6.6361">
        <ele>1069</ele>
        <time>2018-05-07T05:05:45Z</time>
      </trkpt>
      <trkpt lat="45.87761" lon="6.63642">
        <ele>1068</ele>
        <time>2018-05-07T05:06:45Z</time>
      </trkpt>
      <trkpt lat="45.87789" lon="6.63686">
        <ele>1066</ele>
        <time>2018-05-07T05:07:45Z</time>
      </trkpt>
      <trkpt lat="45.87805" lon="6.63709">
        <ele>1065</ele>
        <time>2018-05-07T05:08:45Z</time>
      </trkpt>
      <trkpt lat="45.87822" lon="6.63728">
        <ele>1065</ele>
        <time>2018-05-07T05:09:45Z</time>
      </trkpt>
      <trkpt lat="45.87836" lon="6.63739">
        <ele>1065</ele>
        <time>2018-05-07T05:10:45Z</time>
      </trkpt>
      <trkpt lat="45.87843" lon="6.63746">
        <ele>1065</ele>
        <time>2018-05-07T05:11:45Z</time>
      </trkpt>
      <trkpt lat="45.87868" lon="6.63763">
        <ele>1063</ele>
        <time>2018-05-07T05:12:45Z</time>
      </trkpt>
      <trkpt lat="45.87907" lon="6.6379">
        <ele>1062</ele>
        <time>2018-05-07T05:13:45Z</time>
      </trkpt>
      <trkpt lat="45.87937" lon="6.63811">
        <ele>1062</ele>
        <time>2018-05-07T05:14:45Z</time>
      </trkpt>
      <trkpt lat="45.87957" lon="6.63829">
        <ele>1063</ele>
        <time>2018-05-07T05:15:45Z</time>
      </trkpt>
      <trkpt lat="45.87979" lon="6.63851">
        <ele>1060</ele>
        <time>2018-05-07T05:16:45Z</time>
      </trkpt>
      <trkpt lat="45.87998" lon="6.63874">
        <ele>1059</ele>
        <time>2018-05-07T05:17:45Z</time>
      </trkpt>
      <trkpt lat="45.88014" lon="6.63898">
        <ele>1060</ele>
        <time>2018-05-07T05:18:45Z</time>
      </trkpt>
      <trkpt lat="45.8802" lon="6.63909">
        <ele>1059</ele>
        <time>2018-05-07T05:19:45Z</time>
      </trkpt>
      <trkpt lat="45.88035" lon="6.63936">
        <ele>1057</ele>
        <time>2018-05-07T05:20:45Z</time>
      </trkpt>
      <trkpt lat="45.88041" lon="6.63947">
        <ele>1056</ele>
        <time>2018-05-07T05:21:45Z</time>
      </trkpt>
      <trkpt lat="45.88055" lon="6.6397">
        <ele>1056</ele>
        <time>2018-05-07T05:22:45Z</time>
      </trkpt>
      <trkpt lat="45.8807" lon="6.63992">
        <ele>1055</ele>
        <time>2018-05-07T05:23:45Z</time>
      </trkpt>
      <trkpt lat="45.88088" lon="6.64012">
        <ele>1053</ele>
        <time>2018-05-07T05:24:45Z</time>
      </trkpt>
      <trkpt lat="45.881" lon="6.64022">
        <ele>1053</ele>
        <time>2018-05-07T05:25:45Z</time>
      </trkpt>
      <trkpt lat="45.88108" lon="6.64029">
        <ele>1053</ele>
        <time>2018-05-07T05:26:45Z</time>
      </trkpt>
      <trkpt lat="45.8813" lon="6.64044">
        <ele>1052</ele>
        <time>2018-05-07T05:27:45Z</time>
      </trkpt>
      <trkpt lat="45.88161" lon="6.64065">
        <ele>1050</ele>
        <time>2018-05-07T05:28:45Z</time>
      </trkpt>
      <trkpt lat="45.88192" lon="6.64085">
        <ele>1048</ele>
        <time>2018-05-07T05:29:45Z</time>
      </trkpt>
      <trkpt lat="45.88216" lon="6.64101">
        <ele>1048</ele>
        <time>2018-05-07T05:30:45Z</time>
      </trkpt>
      <trkpt lat="45.88231" lon="6.64119">
        <ele>1048</ele>
        <time>2018-05-07T05:31:45Z</time>
      </trkpt>
      <trkpt lat="45.88237" lon="6.64129">
        <ele>1047</ele>
        <time>2018-05-07T05:32:45Z</time>
      </trkpt>
      <trkpt lat="45.8824" lon="6.6414">
        <ele>1047</ele>
        <time>2018-05-07T05:33:45Z</time>
      </trkpt>
      <trkpt lat="45.88241" lon="6.64148">
        <ele>1046</ele>
        <time>2018-05-07T05:34:45Z</time>
      </trkpt>
      <trkpt lat="45.8824" lon="6.64157">
        <ele>1046</ele>
        <time>2018-05-07T05:35:45Z</time>
      </trkpt>
      <trkpt lat="45.8824" lon="6.64157">
        <ele>1046</ele>
        <time>2018-05-07T05:36:45Z</time>
      </trkpt>
      <trkpt lat="45.88237" lon="6.64165">
        <ele>1046</ele>
        <time>2018-05-07T05:37:45Z</time>
      </trkpt>
      <trkpt lat="45.88235" lon="6.64172">
        <ele>1046</ele>
        <time>2018-05-07T05:38:45Z</time>
      </trkpt>
      <trkpt lat="45.88234" lon="6.64174">
        <ele>1046</ele>
        <time>2018-05-07T05:39:45Z</time>
      </trkpt>
      <trkpt lat="45.88234" lon="6.64185">
        <ele>1046</ele>
        <time>2018-05-07T05:40:45Z</time>
      </trkpt>
      <trkpt lat="45.88236" lon="6.64193">
        <ele>1046</ele>
        <time>2018-05-07T05:41:45Z</time>
      </trkpt>
      <trkpt lat="45.88236" lon="6.64195">
        <ele>1046</ele>
        <time>2018-05-07T05:42:45Z</time>
      </trkpt>
      <trkpt lat="45.8824" lon="6.642">
        <ele>1046</ele>
        <time>2018-05-07T05:43:45Z</time>
      </trkpt>
      <trkpt lat="45.88242" lon="6.64203">
        <ele>1046</ele>
        <time>2018-05-07T05:44:45Z</time>
      </trkpt>
      <trkpt lat="45.88244" lon="6.64214">
        <ele>1046</ele>
        <time>2018-05-07T05:45:45Z</time>
      </trkpt>
      <trkpt lat="45.88244" lon="6.64226">
        <ele>1045</ele>
        <time>2018-05-07T05:46:45Z</time>
      </trkpt>
      <trkpt lat="45.88244" lon="6.64236">
        <ele>1045</ele>
        <time>2018-05-07T05:47:45Z</time>
      </trkpt>
      <trkpt lat="45.88243" lon="6.6425">
        <ele>1045</ele>
        <time>2018-05-07T05:48:45Z</time>
      </trkpt>
      <trkpt lat="45.88244" lon="6.6426">
        <ele>1045</ele>
        <time>2018-05-07T05:49:45Z</time>
      </trkpt>
      <trkpt lat="45.88247" lon="6.64274">
        <ele>1046</ele>
        <time>2018-05-07T05:50:45Z</time>
      </trkpt>
      <trkpt lat="45.88256" lon="6.64292">
        <ele>1042</ele>
        <time>2018-05-07T05:51:45Z</time>
      </trkpt>
      <trkpt lat="45.88268" lon="6.64318">
        <ele>1042</ele>
        <time>2018-05-07T05:52:45Z</time>
      </trkpt>
      <trkpt lat="45.88276" lon="6.64343">
        <ele>1042</ele>
        <time>2018-05-07T05:53:45Z</time>
      </trkpt>
      <trkpt lat="45.88283" lon="6.64374">
        <ele>1042</ele>
        <time>2018-05-07T05:54:45Z</time>
      </trkpt>
      <trkpt lat="45.88288" lon="6.64412">
        <ele>1042</ele>
        <time>2018-05-07T05:55:45Z</time>
      </trkpt>
      <trkpt lat="45.8829" lon="6.64447">
        <ele>1043</ele>
        <time>2018-05-07T05:56:45Z</time>
      </trkpt>
      <trkpt lat="45.8829" lon="6.6445">
        <ele>1043</ele>
        <time>2018-05-07T05:57:45Z</time>
      </trkpt>
      <trkpt lat="45.88292" lon="6.64467">
        <ele>1043</ele>
        <time>2018-05-07T05:58:45Z</time>
      </trkpt>
      <trkpt lat="45.88294" lon="6.64479">
        <ele>1043</ele>
        <time>2018-05-07T05:59:45Z</time>
      </trkpt>
      <trkpt lat="45.883" lon="6.64494">
        <ele>1042</ele>
        <time>2018-05-07T06:00:45Z</time>
      </trkpt>
      <trkpt lat="45.88309" lon="6.64506">
        <ele>1043</ele>
        <time>2018-05-07T06:01:45Z</time>
      </trkpt>
      <trkpt lat="45.8831" lon="6.64508">
        <ele>1043</ele>
        <time>2018-05-07T06:02:45Z</time>
      </trkpt>
      <trkpt lat="45.88328" lon="6.64528">
        <ele>1043</ele>
        <time>2018-05-07T06:03:45Z</time>
      </trkpt>
      <trkpt lat="45.8836" lon="6.64561">
        <ele>1036</ele>
        <time>2018-05-07T06:04:45Z</time>
      </trkpt>
      <trkpt lat="45.88369" lon="6.64571">
        <ele>1035</ele>
        <time>2018-05-07T06:05:45Z</time>
      </trkpt>
      <trkpt lat="45.88392" lon="6.64597">
        <ele>1035</ele>
        <time>2018-05-07T06:06:45Z</time>
      </trkpt>
      <trkpt lat="45.88403" lon="6.64613">
        <ele>1035</ele>
        <time>2018-05-07T06:07:45Z</time>
      </trkpt>
      <trkpt lat="45.88411" lon="6.64629">
        <ele>1035</ele>
        <time>2018-05-07T06:08:45Z</time>
      </trkpt>
      <trkpt lat="45.88419" lon="6.64652">
        <ele>1029</ele>
        <time>2018-05-07T06:09:45Z</time>
      </trkpt>
      <trkpt lat="45.88427" lon="6.64677">
        <ele>1031</ele>
        <time>2018-05-07T06:10:45Z</time>
      </trkpt>
      <trkpt lat="45.88436" lon="6.64694">
        <ele>1031</ele>
        <time>2018-05-07T06:11:45Z</time>
      </trkpt>
      <trkpt lat="45.88443" lon="6.64704">
        <ele>1031</ele>
        <time>2018-05-07T06:12:45Z</time>
      </trkpt>
      <trkpt lat="45.88449" lon="6.64711">
        <ele>1031</ele>
        <time>2018-05-07T06:13:45Z</time>
      </trkpt>
      <trkpt lat="45.88466" lon="6.64732">
        <ele>1030</ele>
        <time>2018-05-07T06:14:45Z</time>
      </trkpt>
      <trkpt lat="45.88495" lon="6.6477">
        <ele>1032</ele>
        <time>2018-05-07T06:15:45Z</time>
      </trkpt>
      <trkpt lat="45.88514" lon="6.64793">
        <ele>1025</ele>
        <time>2018-05-07T06:16:45Z</time>
      </trkpt>
      <trkpt lat="45.88522" lon="6.64807">
        <ele>1025</ele>
        <time>2018-05-07T06:17:45Z</time>
      </trkpt>
      <trkpt lat="45.88529" lon="6.64824">
        <ele>1025</ele>
        <time>2018-05-07T06:18:45Z</time>
      </trkpt>
      <trkpt lat="45.88535" lon="6.64843">
        <ele>1028</ele>
        <time>2018-05-07T06:19:45Z</time>
      </trkpt>
      <trkpt lat="45.88545" lon="6.64879">
        <ele>1028</ele>
        <time>2018-05-07T06:20:45Z</time>
      </trkpt>
      <trkpt lat="45.88552" lon="6.64899">
        <ele>1027</ele>
        <time>2018-05-07T06:21:45Z</time>
      </trkpt>
      <trkpt lat="45.8856" lon="6.64916">
        <ele>1026</ele>
        <time>2018-05-07T06:22:45Z</time>
      </trkpt>
      <trkpt lat="45.88572" lon="6.64932">
        <ele>1028</ele>
        <time>2018-05-07T06:23:45Z</time>
      </trkpt>
      <trkpt lat="45.88588" lon="6.64948">
        <ele>1022</ele>
        <time>2018-05-07T06:24:45Z</time>
      </trkpt>
      <trkpt lat="45.88613" lon="6.64972">
        <ele>1022</ele>
        <time>2018-05-07T06:25:45Z</time>
      </trkpt>
      <trkpt lat="45.88656" lon="6.65012">
        <ele>1024</ele>
        <time>2018-05-07T06:26:45Z</time>
      </trkpt>
      <trkpt lat="45.88677" lon="6.6503">
        <ele>1023</ele>
        <time>2018-05-07T06:27:45Z</time>
      </trkpt>
      <trkpt lat="45.8869" lon="6.65038">
        <ele>1024</ele>
        <time>2018-05-07T06:28:45Z</time>
      </trkpt>
      <trkpt lat="45.88702" lon="6.65042">
        <ele>1024</ele>
        <time>2018-05-07T06:29:45Z</time>
      </trkpt>
      <trkpt lat="45.88717" lon="6.65042">
        <ele>1024</ele>
        <time>2018-05-07T06:30:45Z</time>
      </trkpt>
      <trkpt lat="45.88733" lon="6.65038">
        <ele>1024</ele>
        <time>2018-05-07T06:31:45Z</time>
      </trkpt>
      <trkpt lat="45.88748" lon="6.65026">
        <ele>1023</ele>
        <time>2018-05-07T06:32:45Z</time>
      </trkpt>
      <trkpt lat="45.88758" lon="6.65014">
        <ele>1023</ele>
        <time>2018-05-07T06:33:45Z</time>
      </trkpt>
      <trkpt lat="45.88766" lon="6.64998">
        <ele>1020</ele>
        <time>2018-05-07T06:34:45Z</time>
      </trkpt>
      <trkpt lat="45.88775" lon="6.64979">
        <ele>1019</ele>
        <time>2018-05-07T06:35:45Z</time>
      </trkpt>
      <trkpt lat="45.88789" lon="6.64941">
        <ele>1017</ele>
        <time>2018-05-07T06:36:45Z</time>
      </trkpt>
      <trkpt lat="45.88793" lon="6.64931">
        <ele>1017</ele>
        <time>2018-05-07T06:37:45Z</time>
      </trkpt>
      <trkpt lat="45.88798" lon="6.64922">
        <ele>1017</ele>
        <time>2018-05-07T06:38:45Z</time>
      </trkpt>
      <trkpt lat="45.888" lon="6.64916">
        <ele>1013</ele>
        <time>2018-05-07T06:39:45Z</time>
      </trkpt>
      <trkpt lat="45.8881" lon="6.64902">
        <ele>1013</ele>
        <time>2018-05-07T06:40:45Z</time>
      </trkpt>
      <trkpt lat="45.8882" lon="6.64896">
        <ele>1013</ele>
        <time>2018-05-07T06:41:45Z</time>
      </trkpt>
      <trkpt lat="45.88831" lon="6.64893">
        <ele>1013</ele>
        <time>2018-05-07T06:42:45Z</time>
      </trkpt>
      <trkpt lat="45.88842" lon="6.64895">
        <ele>1009</ele>
        <time>2018-05-07T06:43:45Z</time>
      </trkpt>
      <trkpt lat="45.88853" lon="6.64902">
        <ele>1008</ele>
        <time>2018-05-07T06:44:45Z</time>
      </trkpt>
      <trkpt lat="45.88861" lon="6.64913">
        <ele>1008</ele>
        <time>2018-05-07T06:45:45Z</time>
      </trkpt>
      <trkpt lat="45.88867" lon="6.64928">
        <ele>1009</ele>
        <time>2018-05-07T06:46:45Z</time>
      </trkpt>
      <trkpt lat="45.8887" lon="6.64944">
        <ele>1009</ele>
        <time>2018-05-07T06:47:45Z</time>
      </trkpt>
      <trkpt lat="45.88873" lon="6.64979">
        <ele>1011</ele>
        <time>2018-05-07T06:48:45Z</time>
      </trkpt>
      <trkpt lat="45.88876" lon="6.6501">
        <ele>1015</ele>
        <time>2018-05-07T06:49:45Z</time>
      </trkpt>
      <trkpt lat="45.8888" lon="6.65027">
        <ele>1015</ele>
        <time>2018-05-07T06:50:45Z</time>
      </trkpt>
      <trkpt lat="45.88889" lon="6.6505">
        <ele>1015</ele>
        <time>2018-05-07T06:51:45Z</time>
      </trkpt>
      <trkpt lat="45.88901" lon="6.65071">
        <ele>1015</ele>
        <time>2018-05-07T06:52:45Z</time>
      </trkpt>
      <trkpt lat="45.88913" lon="6.65088">
        <ele>1015</ele>
        <time>2018-05-07T06:53:45Z</time>
      </trkpt>
      <trkpt lat="45.88925" lon="6.65109">
        <ele>1008</ele>
        <time>2018-05-07T06:54:45Z</time>
      </trkpt>
      <trkpt lat="45.88937" lon="6.65134">
        <ele>1008</ele>
        <time>2018-05-07T06:55:45Z</time>
      </trkpt>
      <trkpt lat="45.88949" lon="6.6516">
        <ele>1008</ele>
        <time>2018-05-07T06:56:45Z</time>
      </trkpt>
      <trkpt lat="45.8896" lon="6.6519">
        <ele>1011</ele>
        <time>2018-05-07T06:57:45Z</time>
      </trkpt>
      <trkpt lat="45.88976" lon="6.65235">
        <ele>1010</ele>
        <time>2018-05-07T06:58:45Z</time>
      </trkpt>
      <trkpt lat="45.8899" lon="6.65274">
        <ele>1014</ele>
        <time>2018-05-07T06:59:45Z</time>
      </trkpt>
      <trkpt lat="45.88998" lon="6.65298">
        <ele>1016</ele>
        <time>2018-05-07T07:00:45Z</time>
      </trkpt>
      <trkpt lat="45.89004" lon="6.65311">
        <ele>1004</ele>
        <time>2018-05-07T07:01:45Z</time>
      </trkpt>
      <trkpt lat="45.89012" lon="6.65322">
        <ele>1005</ele>
        <time>2018-05-07T07:02:45Z</time>
      </trkpt>
      <trkpt lat="45.89024" lon="6.65333">
        <ele>1003</ele>
        <time>2018-05-07T07:03:45Z</time>
      </trkpt>
      <trkpt lat="45.89039" lon="6.65346">
        <ele>1007</ele>
        <time>2018-05-07T07:04:45Z</time>
      </trkpt>
      <trkpt lat="45.89054" lon="6.65363">
        <ele>1006</ele>
        <time>2018-05-07T07:05:45Z</time>
      </trkpt>
      <trkpt lat="45.89065" lon="6.6538">
        <ele>1007</ele>
        <time>2018-05-07T07:06:45Z</time>
      </trkpt>
      <trkpt lat="45.89076" lon="6.65405">
        <ele>1006</ele>
        <time>2018-05-07T07:07:45Z</time>
      </trkpt>
      <trkpt lat="45.89077" lon="6.65408">
        <ele>1006</ele>
        <time>2018-05-07T07:08:45Z</time>
      </trkpt>
      <trkpt lat="45.89085" lon="6.65426">
        <ele>1003</ele>
        <time>2018-05-07T07:09:45Z</time>
      </trkpt>
      <trkpt lat="45.89086" lon="6.65427">
        <ele>1003</ele>
        <time>2018-05-07T07:10:45Z</time>
      </trkpt>
      <trkpt lat="45.89095" lon="6.65439">
        <ele>1003</ele>
        <time>2018-05-07T07:11:45Z</time>
      </trkpt>
      <trkpt lat="45.89099" lon="6.65443">
        <ele>1003</ele>
        <time>2018-05-07T07:12:45Z</time>
      </trkpt>
      <trkpt lat="45.89115" lon="6.65457">
        <ele>1002</ele>
        <time>2018-05-07T07:13:45Z</time>
      </trkpt>
      <trkpt lat="45.89132" lon="6.65474">
        <ele>1001</ele>
        <time>2018-05-07T07:14:45Z</time>
      </trkpt>
      <trkpt lat="45.89149" lon="6.65495">
        <ele>1000</ele>
        <time>2018-05-07T07:15:45Z</time>
      </trkpt>
      <trkpt lat="45.89163" lon="6.65516">
        <ele>1005</ele>
        <time>2018-05-07T07:16:45Z</time>
      </trkpt>
      <trkpt lat="45.89176" lon="6.65543">
        <ele>997</ele>
        <time>2018-05-07T07:17:45Z</time>
      </trkpt>
      <trkpt lat="45.89189" lon="6.65573">
        <ele>1000</ele>
        <time>2018-05-07T07:18:45Z</time>
      </trkpt>
      <trkpt lat="45.89202" lon="6.656">
        <ele>1005</ele>
        <time>2018-05-07T07:19:45Z</time>
      </trkpt>
      <trkpt lat="45.89213" lon="6.65616">
        <ele>1004</ele>
        <time>2018-05-07T07:20:45Z</time>
      </trkpt>
      <trkpt lat="45.89228" lon="6.65633">
        <ele>1003</ele>
        <time>2018-05-07T07:21:45Z</time>
      </trkpt>
      <trkpt lat="45.89233" lon="6.65639">
        <ele>1003</ele>
        <time>2018-05-07T07:22:45Z</time>
      </trkpt>
      <trkpt lat="45.89247" lon="6.65653">
        <ele>1002</ele>
        <time>2018-05-07T07:23:45Z</time>
      </trkpt>
      <trkpt lat="45.89262" lon="6.65671">
        <ele>999</ele>
        <time>2018-05-07T07:24:45Z</time>
      </trkpt>
      <trkpt lat="45.89273" lon="6.6569">
        <ele>997</ele>
        <time>2018-05-07T07:25:45Z</time>
      </trkpt>
      <trkpt lat="45.89283" lon="6.65716">
        <ele>997</ele>
        <time>2018-05-07T07:26:45Z</time>
      </trkpt>
      <trkpt lat="45.89284" lon="6.65718">
        <ele>997</ele>
        <time>2018-05-07T07:27:45Z</time>
      </trkpt>
      <trkpt lat="45.89291" lon="6.65749">
        <ele>997</ele>
        <time>2018-05-07T07:28:45Z</time>
      </trkpt>
      <trkpt lat="45.89295" lon="6.65779">
        <ele>998</ele>
        <time>2018-05-07T07:29:45Z</time>
      </trkpt>
      <trkpt lat="45.89295" lon="6.65795">
        <ele>998</ele>
        <time>2018-05-07T07:30:45Z</time>
      </trkpt>
      <trkpt lat="45.89295" lon="6.65795">
        <ele>998</ele>
        <time>2018-05-07T07:31:45Z</time>
      </trkpt>
      <trkpt lat="45.89301" lon="6.65798">
        <ele>998</ele>
        <time>2018-05-07T07:32:45Z</time>
      </trkpt>
      <trkpt lat="45.89304" lon="6.65803">
        <ele>997</ele>
        <time>2018-05-07T07:33:45Z</time>
      </trkpt>
      <trkpt lat="45.89304" lon="6.65815">
        <ele>997</ele>
        <time>2018-05-07T07:34:45Z</time>
      </trkpt>
      <trkpt lat="45.89307" lon="6.65847">
        <ele>995</ele>
        <time>2018-05-07T07:35:45Z</time>
      </trkpt>
      <trkpt lat="45.8931" lon="6.65864">
        <ele>995</ele>
        <time>2018-05-07T07:36:45Z</time>
      </trkpt>
      <trkpt lat="45.89313" lon="6.65869">
        <ele>995</ele>
        <time>2018-05-07T07:37:45Z</time>
      </trkpt>
      <trkpt lat="45.89317" lon="6.65868">
        <ele>994</ele>
        <time>2018-05-07T07:38:45Z</time>
      </trkpt>
      <trkpt lat="45.89319" lon="6.65864">
        <ele>994</ele>
        <time>2018-05-07T07:39:45Z</time>
      </trkpt>
      <trkpt lat="45.89319" lon="6.6585">
        <ele>993</ele>
        <time>2018-05-07T07:40:45Z</time>
      </trkpt>
      <trkpt lat="45.89322" lon="6.6583">
        <ele>992</ele>
        <time>2018-05-07T07:41:45Z</time>
      </trkpt>
      <trkpt lat="45.89325" lon="6.65821">
        <ele>992</ele>
        <time>2018-05-07T07:42:45Z</time>
      </trkpt>
      <trkpt lat="45.89329" lon="6.65819">
        <ele>992</ele>
        <time>2018-05-07T07:43:45Z</time>
      </trkpt>
      <trkpt lat="45.89333" lon="6.65819">
        <ele>992</ele>
        <time>2018-05-07T07:44:45Z</time>
      </trkpt>
      <trkpt lat="45.89335" lon="6.65823">
        <ele>984</ele>
        <time>2018-05-07T07:45:45Z</time>
      </trkpt>
      <trkpt lat="45.89335" lon="6.65829">
        <ele>985</ele>
        <time>2018-05-07T07:46:45Z</time>
      </trkpt>
      <trkpt lat="45.89333" lon="6.65845">
        <ele>991</ele>
        <time>2018-05-07T07:47:45Z</time>
      </trkpt>
      <trkpt lat="45.89333" lon="6.65854">
        <ele>992</ele>
        <time>2018-05-07T07:48:45Z</time>
      </trkpt>
      <trkpt lat="45.89335" lon="6.6587">
        <ele>978</ele>
        <time>2018-05-07T07:49:45Z</time>
      </trkpt>
      <trkpt lat="45.89338" lon="6.65877">
        <ele>977</ele>
        <time>2018-05-07T07:50:45Z</time>
      </trkpt>
      <trkpt lat="45.89343" lon="6.65877">
        <ele>977</ele>
        <time>2018-05-07T07:51:45Z</time>
      </trkpt>
      <trkpt lat="45.89346" lon="6.65871">
        <ele>977</ele>
        <time>2018-05-07T07:52:45Z</time>
      </trkpt>
      <trkpt lat="45.89347" lon="6.65862">
        <ele>978</ele>
        <time>2018-05-07T07:53:45Z</time>
      </trkpt>
      <trkpt lat="45.89347" lon="6.65862">
        <ele>978</ele>
        <time>2018-05-07T07:54:45Z</time>
      </trkpt>
      <trkpt lat="45.89346" lon="6.65871">
        <ele>977</ele>
        <time>2018-05-07T07:55:45Z</time>
      </trkpt>
      <trkpt lat="45.89343" lon="6.65877">
        <ele>977</ele>
        <time>2018-05-07T07:56:45Z</time>
      </trkpt>
      <trkpt lat="45.89338" lon="6.65877">
        <ele>977</ele>
        <time>2018-05-07T07:57:45Z</time>
      </trkpt>
      <trkpt lat="45.89335" lon="6.6587">
        <ele>978</ele>
        <time>2018-05-07T07:58:45Z</time>
      </trkpt>
      <trkpt lat="45.89333" lon="6.65854">
        <ele>992</ele>
        <time>2018-05-07T07:59:45Z</time>
      </trkpt>
      <trkpt lat="45.89333" lon="6.65845">
        <ele>991</ele>
        <time>2018-05-07T08:00:45Z</time>
      </trkpt>
      <trkpt lat="45.89335" lon="6.65829">
        <ele>985</ele>
        <time>2018-05-07T08:01:45Z</time>
      </trkpt>
      <trkpt lat="45.89335" lon="6.65823">
        <ele>984</ele>
        <time>2018-05-07T08:02:45Z</time>
      </trkpt>
      <trkpt lat="45.89333" lon="6.65819">
        <ele>992</ele>
        <time>2018-05-07T08:03:45Z</time>
      </trkpt>
      <trkpt lat="45.89329" lon="6.65819">
        <ele>992</ele>
        <time>2018-05-07T08:04:45Z</time>
      </trkpt>
      <trkpt lat="45.89325" lon="6.65821">
        <ele>992</ele>
        <time>2018-05-07T08:05:45Z</time>
      </trkpt>
      <trkpt lat="45.89322" lon="6.6583">
        <ele>992</ele>
        <time>2018-05-07T08:06:45Z</time>
      </trkpt>
      <trkpt lat="45.89319" lon="6.6585">
        <ele>993</ele>
        <time>2018-05-07T08:07:45Z</time>
      </trkpt>
      <trkpt lat="45.89319" lon="6.65864">
        <ele>994</ele>
        <time>2018-05-07T08:08:45Z</time>
      </trkpt>
      <trkpt lat="45.89317" lon="6.65868">
        <ele>994</ele>
        <time>2018-05-07T08:09:45Z</time>
      </trkpt>
      <trkpt lat="45.89313" lon="6.65869">
        <ele>995</ele>
        <time>2018-05-07T08:10:45Z</time>
      </trkpt>
      <trkpt lat="45.8931" lon="6.65864">
        <ele>995</ele>
        <time>2018-05-07T08:11:45Z</time>
      </trkpt>
      <trkpt lat="45.89307" lon="6.65847">
        <ele>995</ele>
        <time>2018-05-07T08:12:45Z</time>
      </trkpt>
      <trkpt lat="45.89304" lon="6.65815">
        <ele>997</ele>
        <time>2018-05-07T08:13:45Z</time>
      </trkpt>
      <trkpt lat="45.89304" lon="6.65803">
        <ele>997</ele>
        <time>2018-05-07T08:14:45Z</time>
      </trkpt>
      <trkpt lat="45.89301" lon="6.65798">
        <ele>998</ele>
        <time>2018-05-07T08:15:45Z</time>
      </trkpt>
      <trkpt lat="45.89295" lon="6.65795">
        <ele>998</ele>
        <time>2018-05-07T08:16:45Z</time>
      </trkpt>
      <trkpt lat="45.89295" lon="6.65795">
        <ele>998</ele>
        <time>2018-05-07T08:17:45Z</time>
      </trkpt>
      <trkpt lat="45.89296" lon="6.65823">
        <ele>998</ele>
        <time>2018-05-07T08:18:45Z</time>
      </trkpt>
      <trkpt lat="45.89297" lon="6.65892">
        <ele>996</ele>
        <time>2018-05-07T08:19:45Z</time>
      </trkpt>
      <trkpt lat="45.89298" lon="6.65962">
        <ele>994</ele>
        <time>2018-05-07T08:20:45Z</time>
      </trkpt>
      <trkpt lat="45.89297" lon="6.66021">
        <ele>992</ele>
        <time>2018-05-07T08:21:45Z</time>
      </trkpt>
      <trkpt lat="45.89294" lon="6.6608">
        <ele>992</ele>
        <time>2018-05-07T08:22:45Z</time>
      </trkpt>
      <trkpt lat="45.89289" lon="6.66143">
        <ele>992</ele>
        <time>2018-05-07T08:23:45Z</time>
      </trkpt>
      <trkpt lat="45.89283" lon="6.66203">
        <ele>992</ele>
        <time>2018-05-07T08:24:45Z</time>
      </trkpt>
      <trkpt lat="45.89277" lon="6.6627">
        <ele>990</ele>
        <time>2018-05-07T08:25:45Z</time>
      </trkpt>
      <trkpt lat="45.89267" lon="6.66336">
        <ele>988</ele>
        <time>2018-05-07T08:26:45Z</time>
      </trkpt>
      <trkpt lat="45.89259" lon="6.6639">
        <ele>984</ele>
        <time>2018-05-07T08:27:45Z</time>
      </trkpt>
      <trkpt lat="45.89254" lon="6.66427">
        <ele>984</ele>
        <time>2018-05-07T08:28:45Z</time>
      </trkpt>
      <trkpt lat="45.8925" lon="6.66459">
        <ele>995</ele>
        <time>2018-05-07T08:29:45Z</time>
      </trkpt>
      <trkpt lat="45.89247" lon="6.66507">
        <ele>988</ele>
        <time>2018-05-07T08:30:45Z</time>
      </trkpt>
      <trkpt lat="45.89243" lon="6.66542">
        <ele>991</ele>
        <time>2018-05-07T08:31:45Z</time>
      </trkpt>
      <trkpt lat="45.89235" lon="6.66579">
        <ele>988</ele>
        <time>2018-05-07T08:32:45Z</time>
      </trkpt>
      <trkpt lat="45.89226" lon="6.66621">
        <ele>988</ele>
        <time>2018-05-07T08:33:45Z</time>
      </trkpt>
      <trkpt lat="45.89208" lon="6.66683">
        <ele>985</ele>
        <time>2018-05-07T08:34:45Z</time>
      </trkpt>
      <trkpt lat="45.8919" lon="6.66748">
        <ele>984</ele>
        <time>2018-05-07T08:35:45Z</time>
      </trkpt>
      <trkpt lat="45.89173" lon="6.66805">
        <ele>979</ele>
        <time>2018-05-07T08:36:45Z</time>
      </trkpt>
      <trkpt lat="45.89163" lon="6.66835">
        <ele>984</ele>
        <time>2018-05-07T08:37:45Z</time>
      </trkpt>
      <trkpt lat="45.89153" lon="6.6686">
        <ele>985</ele>
        <time>2018-05-07T08:38:45Z</time>
      </trkpt>
      <trkpt lat="45.89138" lon="6.66885">
        <ele>985</ele>
        <time>2018-05-07T08:39:45Z</time>
      </trkpt>
      <trkpt lat="45.89125" lon="6.66905">
        <ele>986</ele>
        <time>2018-05-07T08:40:45Z</time>
      </trkpt>
      <trkpt lat="45.89111" lon="6.66923">
        <ele>982</ele>
        <time>2018-05-07T08:41:45Z</time>
      </trkpt>
      <trkpt lat="45.89096" lon="6.66941">
        <ele>983</ele>
        <time>2018-05-07T08:42:45Z</time>
      </trkpt>
      <trkpt lat="45.89093" lon="6.66947">
        <ele>982</ele>
        <time>2018-05-07T08:43:45Z</time>
      </trkpt>
      <trkpt lat="45.8909" lon="6.66954">
        <ele>982</ele>
        <time>2018-05-07T08:44:45Z</time>
      </trkpt>
      <trkpt lat="45.89089" lon="6.66958">
        <ele>982</ele>
        <time>2018-05-07T08:45:45Z</time>
      </trkpt>
      <trkpt lat="45.89087" lon="6.66963">
        <ele>981</ele>
        <time>2018-05-07T08:46:45Z</time>
      </trkpt>
      <trkpt lat="45.89086" lon="6.66969">
        <ele>981</ele>
        <time>2018-05-07T08:47:45Z</time>
      </trkpt>
      <trkpt lat="45.89085" lon="6.66974">
        <ele>982</ele>
        <time>2018-05-07T08:48:45Z</time>
      </trkpt>
      <trkpt lat="45.89085" lon="6.66979">
        <ele>982</ele>
        <time>2018-05-07T08:49:45Z</time>
      </trkpt>
      <trkpt lat="45.89085" lon="6.66986">
        <ele>982</ele>
        <time>2018-05-07T08:50:45Z</time>
      </trkpt>
      <trkpt lat="45.89087" lon="6.67002">
        <ele>983</ele>
        <time>2018-05-07T08:51:45Z</time>
      </trkpt>
      <trkpt lat="45.89091" lon="6.6702">
        <ele>977</ele>
        <time>2018-05-07T08:52:45Z</time>
      </trkpt>
      <trkpt lat="45.89091" lon="6.67032">
        <ele>976</ele>
        <time>2018-05-07T08:53:45Z</time>
      </trkpt>
      <trkpt lat="45.89091" lon="6.67036">
        <ele>975</ele>
        <time>2018-05-07T08:54:45Z</time>
      </trkpt>
      <trkpt lat="45.89091" lon="6.67042">
        <ele>975</ele>
        <time>2018-05-07T08:55:45Z</time>
      </trkpt>
      <trkpt lat="45.89089" lon="6.67053">
        <ele>975</ele>
        <time>2018-05-07T08:56:45Z</time>
      </trkpt>
      <trkpt lat="45.89086" lon="6.67063">
        <ele>976</ele>
        <time>2018-05-07T08:57:45Z</time>
      </trkpt>
      <trkpt lat="45.8908" lon="6.67076">
        <ele>983</ele>
        <time>2018-05-07T08:58:45Z</time>
      </trkpt>
      <trkpt lat="45.89068" lon="6.67101">
        <ele>984</ele>
        <time>2018-05-07T08:59:45Z</time>
      </trkpt>
      <trkpt lat="45.89065" lon="6.67113">
        <ele>985</ele>
        <time>2018-05-07T09:00:45Z</time>
      </trkpt>
      <trkpt lat="45.89064" lon="6.67125">
        <ele>985</ele>
        <time>2018-05-07T09:01:45Z</time>
      </trkpt>
      <trkpt lat="45.89065" lon="6.67153">
        <ele>982</ele>
        <time>2018-05-07T09:02:45Z</time>
      </trkpt>
      <trkpt lat="45.89065" lon="6.67168">
        <ele>980</ele>
        <time>2018-05-07T09:03:45Z</time>
      </trkpt>
      <trkpt lat="45.89064" lon="6.6718">
        <ele>980</ele>
        <time>2018-05-07T09:04:45Z</time>
      </trkpt>
      <trkpt lat="45.89059" lon="6.672">
        <ele>981</ele>
        <time>2018-05-07T09:05:45Z</time>
      </trkpt>
      <trkpt lat="45.89053" lon="6.67228">
        <ele>981</ele>
        <time>2018-05-07T09:06:45Z</time>
      </trkpt>
      <trkpt lat="45.8905" lon="6.67242">
        <ele>981</ele>
        <time>2018-05-07T09:07:45Z</time>
      </trkpt>
      <trkpt lat="45.8905" lon="6.67249">
        <ele>981</ele>
        <time>2018-05-07T09:08:45Z</time>
      </trkpt>
      <trkpt lat="45.8905" lon="6.67255">
        <ele>978</ele>
        <time>2018-05-07T09:09:45Z</time>
      </trkpt>
      <trkpt lat="45.89052" lon="6.67266">
        <ele>978</ele>
        <time>2018-05-07T09:10:45Z</time>
      </trkpt>
      <trkpt lat="45.89054" lon="6.67278">
        <ele>978</ele>
        <time>2018-05-07T09:11:45Z</time>
      </trkpt>
      <trkpt lat="45.89056" lon="6.67285">
        <ele>977</ele>
        <time>2018-05-07T09:12:45Z</time>
      </trkpt>
      <trkpt lat="45.89058" lon="6.67294">
        <ele>977</ele>
        <time>2018-05-07T09:13:45Z</time>
      </trkpt>
      <trkpt lat="45.8906" lon="6.67301">
        <ele>976</ele>
        <time>2018-05-07T09:14:45Z</time>
      </trkpt>
      <trkpt lat="45.8906" lon="6.6731">
        <ele>976</ele>
        <time>2018-05-07T09:15:45Z</time>
      </trkpt>
      <trkpt lat="45.89058" lon="6.67323">
        <ele>975</ele>
        <time>2018-05-07T09:16:45Z</time>
      </trkpt>
      <trkpt lat="45.89057" lon="6.6733">
        <ele>975</ele>
        <time>2018-05-07T09:17:45Z</time>
      </trkpt>
      <trkpt lat="45.89054" lon="6.67341">
        <ele>973</ele>
        <time>2018-05-07T09:18:45Z</time>
      </trkpt>
      <trkpt lat="45.89053" lon="6.67349">
        <ele>973</ele>
        <time>2018-05-07T09:19:45Z</time>
      </trkpt>
      <trkpt lat="45.89052" lon="6.67358">
        <ele>974</ele>
        <time>2018-05-07T09:20:45Z</time>
      </trkpt>
      <trkpt lat="45.89052" lon="6.67368">
        <ele>974</ele>
        <time>2018-05-07T09:21:45Z</time>
      </trkpt>
      <trkpt lat="45.89053" lon="6.6738">
        <ele>973</ele>
        <time>2018-05-07T09:22:45Z</time>
      </trkpt>
      <trkpt lat="45.89057" lon="6.67393">
        <ele>973</ele>
        <time>2018-05-07T09:23:45Z</time>
      </trkpt>
      <trkpt lat="45.89059" lon="6.67402">
        <ele>972</ele>
        <time>2018-05-07T09:24:45Z</time>
      </trkpt>
      <trkpt lat="45.89059" lon="6.67412">
        <ele>971</ele>
        <time>2018-05-07T09:25:45Z</time>
      </trkpt>
      <trkpt lat="45.89059" lon="6.6742">
        <ele>970</ele>
        <time>2018-05-07T09:26:45Z</time>
      </trkpt>
      <trkpt lat="45.89058" lon="6.67427">
        <ele>971</ele>
        <time>2018-05-07T09:27:45Z</time>
      </trkpt>
      <trkpt lat="45.89057" lon="6.67437">
        <ele>971</ele>
        <time>2018-05-07T09:28:45Z</time>
      </trkpt>
      <trkpt lat="45.89054" lon="6.67455">
        <ele>972</ele>
        <time>2018-05-07T09:29:45Z</time>
      </trkpt>
      <trkpt lat="45.89052" lon="6.67465">
        <ele>972</ele>
        <time>2018-05-07T09:30:45Z</time>
      </trkpt>
      <trkpt lat="45.89051" lon="6.67475">
        <ele>972</ele>
        <time>2018-05-07T09:31:45Z</time>
      </trkpt>
      <trkpt lat="45.89049" lon="6.6749">
        <ele>972</ele>
        <time>2018-05-07T09:32:45Z</time>
      </trkpt>
      <trkpt lat="45.89048" lon="6.67505">
        <ele>970</ele>
        <time>2018-05-07T09:33:45Z</time>
      </trkpt>
      <trkpt lat="45.89048" lon="6.67524">
        <ele>969</ele>
        <time>2018-05-07T09:34:45Z</time>
      </trkpt>
      <trkpt lat="45.89049" lon="6.67535">
        <ele>969</ele>
        <time>2018-05-07T09:35:45Z</time>
      </trkpt>
      <trkpt lat="45.8905" lon="6.6755">
        <ele>968</ele>
        <time>2018-05-07T09:36:45Z</time>
      </trkpt>
      <trkpt lat="45.89055" lon="6.67601">
        <ele>963</ele>
        <time>2018-05-07T09:37:45Z</time>
      </trkpt>
      <trkpt lat="45.89059" lon="6.67641">
        <ele>961</ele>
        <time>2018-05-07T09:38:45Z</time>
      </trkpt>
      <trkpt lat="45.89062" lon="6.67666">
        <ele>958</ele>
        <time>2018-05-07T09:39:45Z</time>
      </trkpt>
      <trkpt lat="45.89065" lon="6.67681">
        <ele>957</ele>
        <time>2018-05-07T09:40:45Z</time>
      </trkpt>
      <trkpt lat="45.89071" lon="6.67702">
        <ele>958</ele>
        <time>2018-05-07T09:41:45Z</time>
      </trkpt>
      <trkpt lat="45.8908" lon="6.67732">
        <ele>957</ele>
        <time>2018-05-07T09:42:45Z</time>
      </trkpt>
      <trkpt lat="45.89082" lon="6.67738">
        <ele>956</ele>
        <time>2018-05-07T09:43:45Z</time>
      </trkpt>
      <trkpt lat="45.89086" lon="6.67754">
        <ele>950</ele>
        <time>2018-05-07T09:44:45Z</time>
      </trkpt>
      <trkpt lat="45.89089" lon="6.67776">
        <ele>945</ele>
        <time>2018-05-07T09:45:45Z</time>
      </trkpt>
      <trkpt lat="45.8909" lon="6.67786">
        <ele>944</ele>
        <time>2018-05-07T09:46:45Z</time>
      </trkpt>
      <trkpt lat="45.8909" lon="6.67797">
        <ele>944</ele>
        <time>2018-05-07T09:47:45Z</time>
      </trkpt>
      <trkpt lat="45.89089" lon="6.67807">
        <ele>945</ele>
        <time>2018-05-07T09:48:45Z</time>
      </trkpt>
      <trkpt lat="45.89087" lon="6.67817">
        <ele>947</ele>
        <time>2018-05-07T09:49:45Z</time>
      </trkpt>
      <trkpt lat="45.89083" lon="6.67833">
        <ele>953</ele>
        <time>2018-05-07T09:50:45Z</time>
      </trkpt>
      <trkpt lat="45.89081" lon="6.67844">
        <ele>956</ele>
        <time>2018-05-07T09:51:45Z</time>
      </trkpt>
      <trkpt lat="45.89079" lon="6.67858">
        <ele>957</ele>
        <time>2018-05-07T09:52:45Z</time>
      </trkpt>
      <trkpt lat="45.89077" lon="6.67873">
        <ele>958</ele>
        <time>2018-05-07T09:53:45Z</time>
      </trkpt>
      <trkpt lat="45.89075" lon="6.6789">
        <ele>956</ele>
        <time>2018-05-07T09:54:45Z</time>
      </trkpt>
      <trkpt lat="45.89073" lon="6.67905">
        <ele>954</ele>
        <time>2018-05-07T09:55:45Z</time>
      </trkpt>
      <trkpt lat="45.8907" lon="6.6794">
        <ele>954</ele>
        <time>2018-05-07T09:56:45Z</time>
      </trkpt>
      <trkpt lat="45.89066" lon="6.67984">
        <ele>952</ele>
        <time>2018-05-07T09:57:45Z</time>
      </trkpt>
      <trkpt lat="45.89062" lon="6.68009">
        <ele>949</ele>
        <time>2018-05-07T09:58:45Z</time>
      </trkpt>
      <trkpt lat="45.8906" lon="6.68026">
        <ele>950</ele>
        <time>2018-05-07T09:59:45Z</time>
      </trkpt>
      <trkpt lat="45.89057" lon="6.68038">
        <ele>950</ele>
        <time>2018-05-07T10:00:45Z</time>
      </trkpt>
      <trkpt lat="45.89053" lon="6.68053">
        <ele>950</ele>
        <time>2018-05-07T10:01:45Z</time>
      </trkpt>
      <trkpt lat="45.89047" lon="6.68068">
        <ele>951</ele>
        <time>2018-05-07T10:02:45Z</time>
      </trkpt>
      <trkpt lat="45.8904" lon="6.68082">
        <ele>953</ele>
        <time>2018-05-07T10:03:45Z</time>
      </trkpt>
      <trkpt lat="45.89031" lon="6.68101">
        <ele>950</ele>
        <time>2018-05-07T10:04:45Z</time>
      </trkpt>
      <trkpt lat="45.89027" lon="6.68112">
        <ele>950</ele>
        <time>2018-05-07T10:05:45Z</time>
      </trkpt>
      <trkpt lat="45.89024" lon="6.68121">
        <ele>949</ele>
        <time>2018-05-07T10:06:45Z</time>
      </trkpt>
      <trkpt lat="45.89022" lon="6.68132">
        <ele>949</ele>
        <time>2018-05-07T10:07:45Z</time>
      </trkpt>
      <trkpt lat="45.89022" lon="6.68145">
        <ele>949</ele>
        <time>2018-05-07T10:08:45Z</time>
      </trkpt>
      <trkpt lat="45.89024" lon="6.68161">
        <ele>949</ele>
        <time>2018-05-07T10:09:45Z</time>
      </trkpt>
      <trkpt lat="45.89027" lon="6.68172">
        <ele>945</ele>
        <time>2018-05-07T10:10:45Z</time>
      </trkpt>
      <trkpt lat="45.89029" lon="6.68179">
        <ele>944</ele>
        <time>2018-05-07T10:11:45Z</time>
      </trkpt>
      <trkpt lat="45.89037" lon="6.682">
        <ele>941</ele>
        <time>2018-05-07T10:12:45Z</time>
      </trkpt>
      <trkpt lat="45.89041" lon="6.68215">
        <ele>941</ele>
        <time>2018-05-07T10:13:45Z</time>
      </trkpt>
      <trkpt lat="45.89043" lon="6.68236">
        <ele>940</ele>
        <time>2018-05-07T10:14:45Z</time>
      </trkpt>
      <trkpt lat="45.89041" lon="6.68264">
        <ele>938</ele>
        <time>2018-05-07T10:15:45Z</time>
      </trkpt>
      <trkpt lat="45.89038" lon="6.68309">
        <ele>938</ele>
        <time>2018-05-07T10:16:45Z</time>
      </trkpt>
      <trkpt lat="45.89035" lon="6.68347">
        <ele>939</ele>
        <time>2018-05-07T10:17:45Z</time>
      </trkpt>
      <trkpt lat="45.89035" lon="6.68358">
        <ele>939</ele>
        <time>2018-05-07T10:18:45Z</time>
      </trkpt>
      <trkpt lat="45.89036" lon="6.68372">
        <ele>939</ele>
        <time>2018-05-07T10:19:45Z</time>
      </trkpt>
      <trkpt lat="45.89039" lon="6.68384">
        <ele>939</ele>
        <time>2018-05-07T10:20:45Z</time>
      </trkpt>
      <trkpt lat="45.89042" lon="6.68391">
        <ele>939</ele>
        <time>2018-05-07T10:21:45Z</time>
      </trkpt>
      <trkpt lat="45.89043" lon="6.68393">
        <ele>939</ele>
        <time>2018-05-07T10:22:45Z</time>
      </trkpt>
      <trkpt lat="45.89049" lon="6.68402">
        <ele>938</ele>
        <time>2018-05-07T10:23:45Z</time>
      </trkpt>
      <trkpt lat="45.89051" lon="6.68404">
        <ele>937</ele>
        <time>2018-05-07T10:24:45Z</time>
      </trkpt>
      <trkpt lat="45.8906" lon="6.68412">
        <ele>935</ele>
        <time>2018-05-07T10:25:45Z</time>
      </trkpt>
      <trkpt lat="45.89081" lon="6.68429">
        <ele>934</ele>
        <time>2018-05-07T10:26:45Z</time>
      </trkpt>
      <trkpt lat="45.89089" lon="6.68437">
        <ele>923</ele>
        <time>2018-05-07T10:27:45Z</time>
      </trkpt>
      <trkpt lat="45.89096" lon="6.68449">
        <ele>922</ele>
        <time>2018-05-07T10:28:45Z</time>
      </trkpt>
      <trkpt lat="45.89101" lon="6.68461">
        <ele>922</ele>
        <time>2018-05-07T10:29:45Z</time>
      </trkpt>
      <trkpt lat="45.89104" lon="6.68476">
        <ele>922</ele>
        <time>2018-05-07T10:30:45Z</time>
      </trkpt>
      <trkpt lat="45.89105" lon="6.68495">
        <ele>924</ele>
        <time>2018-05-07T10:31:45Z</time>
      </trkpt>
      <trkpt lat="45.89106" lon="6.68514">
        <ele>926</ele>
        <time>2018-05-07T10:32:45Z</time>
      </trkpt>
      <trkpt lat="45.89108" lon="6.68531">
        <ele>926</ele>
        <time>2018-05-07T10:33:45Z</time>
      </trkpt>
      <trkpt lat="45.89112" lon="6.68543">
        <ele>926</ele>
        <time>2018-05-07T10:34:45Z</time>
      </trkpt>
      <trkpt lat="45.89118" lon="6.68557">
        <ele>926</ele>
        <time>2018-05-07T10:35:45Z</time>
      </trkpt>
      <trkpt lat="45.89135" lon="6.68588">
        <ele>928</ele>
        <time>2018-05-07T10:36:45Z</time>
      </trkpt>
      <trkpt lat="45.89146" lon="6.68608">
        <ele>927</ele>
        <time>2018-05-07T10:37:45Z</time>
      </trkpt>
      <trkpt lat="45.89154" lon="6.68626">
        <ele>928</ele>
        <time>2018-05-07T10:38:45Z</time>
      </trkpt>
      <trkpt lat="45.89159" lon="6.68644">
        <ele>927</ele>
        <time>2018-05-07T10:39:45Z</time>
      </trkpt>
      <trkpt lat="45.89165" lon="6.68665">
        <ele>922</ele>
        <time>2018-05-07T10:40:45Z</time>
      </trkpt>
      <trkpt lat="45.89169" lon="6.68685">
        <ele>919</ele>
        <time>2018-05-07T10:41:45Z</time>
      </trkpt>
      <trkpt lat="45.89175" lon="6.68701">
        <ele>918</ele>
        <time>2018-05-07T10:42:45Z</time>
      </trkpt>
      <trkpt lat="45.89183" lon="6.68721">
        <ele>919</ele>
        <time>2018-05-07T10:43:45Z</time>
      </trkpt>
      <trkpt lat="45.89195" lon="6.68742">
        <ele>919</ele>
        <time>2018-05-07T10:44:45Z</time>
      </trkpt>
      <trkpt lat="45.89203" lon="6.68757">
        <ele>922</ele>
        <time>2018-05-07T10:45:45Z</time>
      </trkpt>
      <trkpt lat="45.8921" lon="6.68775">
        <ele>921</ele>
        <time>2018-05-07T10:46:45Z</time>
      </trkpt>
      <trkpt lat="45.89217" lon="6.68797">
        <ele>920</ele>
        <time>2018-05-07T10:47:45Z</time>
      </trkpt>
      <trkpt lat="45.89226" lon="6.68816">
        <ele>919</ele>
        <time>2018-05-07T10:48:45Z</time>
      </trkpt>
      <trkpt lat="45.89234" lon="6.6883">
        <ele>917</ele>
        <time>2018-05-07T10:49:45Z</time>
      </trkpt>
      <trkpt lat="45.89246" lon="6.68846">
        <ele>918</ele>
        <time>2018-05-07T10:50:45Z</time>
      </trkpt>
      <trkpt lat="45.89255" lon="6.68859">
        <ele>908</ele>
        <time>2018-05-07T10:51:45Z</time>
      </trkpt>
      <trkpt lat="45.89262" lon="6.68872">
        <ele>908</ele>
        <time>2018-05-07T10:52:45Z</time>
      </trkpt>
      <trkpt lat="45.89267" lon="6.68886">
        <ele>908</ele>
        <time>2018-05-07T10:53:45Z</time>
      </trkpt>
      <trkpt lat="45.89273" lon="6.6891">
        <ele>910</ele>
        <time>2018-05-07T10:54:45Z</time>
      </trkpt>
      <trkpt lat="45.89279" lon="6.68927">
        <ele>911</ele>
        <time>2018-05-07T10:55:45Z</time>
      </trkpt>
      <trkpt lat="45.89286" lon="6.68944">
        <ele>910</ele>
        <time>2018-05-07T10:56:45Z</time>
      </trkpt>
      <trkpt lat="45.89301" lon="6.68966">
        <ele>908</ele>
        <time>2018-05-07T10:57:45Z</time>
      </trkpt>
      <trkpt lat="45.89314" lon="6.68986">
        <ele>907</ele>
        <time>2018-05-07T10:58:45Z</time>
      </trkpt>
      <trkpt lat="45.8932" lon="6.68999">
        <ele>905</ele>
        <time>2018-05-07T10:59:45Z</time>
      </trkpt>
      <trkpt lat="45.89324" lon="6.69011">
        <ele>907</ele>
        <time>2018-05-07T11:00:45Z</time>
      </trkpt>
      <trkpt lat="45.89327" lon="6.69025">
        <ele>908</ele>
        <time>2018-05-07T11:01:45Z</time>
      </trkpt>
      <trkpt lat="45.89331" lon="6.69051">
        <ele>910</ele>
        <time>2018-05-07T11:02:45Z</time>
      </trkpt>
      <trkpt lat="45.89332" lon="6.69079">
        <ele>908</ele>
        <time>2018-05-07T11:03:45Z</time>
      </trkpt>
      <trkpt lat="45.89334" lon="6.69124">
        <ele>896</ele>
        <time>2018-05-07T11:04:45Z</time>
      </trkpt>
      <trkpt lat="45.89334" lon="6.69147">
        <ele>898</ele>
        <time>2018-05-07T11:05:45Z</time>
      </trkpt>
      <trkpt lat="45.89333" lon="6.69166">
        <ele>903</ele>
        <time>2018-05-07T11:06:45Z</time>
      </trkpt>
      <trkpt lat="45.89332" lon="6.69187">
        <ele>908</ele>
        <time>2018-05-07T11:07:45Z</time>
      </trkpt>
      <trkpt lat="45.8933" lon="6.69207">
        <ele>909</ele>
        <time>2018-05-07T11:08:45Z</time>
      </trkpt>
      <trkpt lat="45.89326" lon="6.69222">
        <ele>909</ele>
        <time>2018-05-07T11:09:45Z</time>
      </trkpt>
      <trkpt lat="45.89325" lon="6.6924">
        <ele>907</ele>
        <time>2018-05-07T11:10:45Z</time>
      </trkpt>
      <trkpt lat="45.89326" lon="6.69253">
        <ele>906</ele>
        <time>2018-05-07T11:11:45Z</time>
      </trkpt>
      <trkpt lat="45.8933" lon="6.69267">
        <ele>908</ele>
        <time>2018-05-07T11:12:45Z</time>
      </trkpt>
      <trkpt lat="45.89335" lon="6.69277">
        <ele>901</ele>
        <time>2018-05-07T11:13:45Z</time>
      </trkpt>
      <trkpt lat="45.89341" lon="6.69283">
        <ele>901</ele>
        <time>2018-05-07T11:14:45Z</time>
      </trkpt>
      <trkpt lat="45.8935" lon="6.69288">
        <ele>901</ele>
        <time>2018-05-07T11:15:45Z</time>
      </trkpt>
      <trkpt lat="45.89359" lon="6.69288">
        <ele>900</ele>
        <time>2018-05-07T11:16:45Z</time>
      </trkpt>
      <trkpt lat="45.89367" lon="6.69286">
        <ele>900</ele>
        <time>2018-05-07T11:17:45Z</time>
      </trkpt>
      <trkpt lat="45.89378" lon="6.69284">
        <ele>899</ele>
        <time>2018-05-07T11:18:45Z</time>
      </trkpt>
      <trkpt lat="45.89388" lon="6.69282">
        <ele>899</ele>
        <time>2018-05-07T11:19:45Z</time>
      </trkpt>
      <trkpt lat="45.89394" lon="6.69283">
        <ele>898</ele>
        <time>2018-05-07T11:20:45Z</time>
      </trkpt>
      <trkpt lat="45.89399" lon="6.69286">
        <ele>898</ele>
        <time>2018-05-07T11:21:45Z</time>
      </trkpt>
      <trkpt lat="45.89404" lon="6.69294">
        <ele>898</ele>
        <time>2018-05-07T11:22:45Z</time>
      </trkpt>
      <trkpt lat="45.8941" lon="6.69309">
        <ele>899</ele>
        <time>2018-05-07T11:23:45Z</time>
      </trkpt>
      <trkpt lat="45.89413" lon="6.69322">
        <ele>899</ele>
        <time>2018-05-07T11:24:45Z</time>
      </trkpt>
      <trkpt lat="45.89414" lon="6.6934">
        <ele>900</ele>
        <time>2018-05-07T11:25:45Z</time>
      </trkpt>
      <trkpt lat="45.89413" lon="6.69355">
        <ele>901</ele>
        <time>2018-05-07T11:26:45Z</time>
      </trkpt>
      <trkpt lat="45.89409" lon="6.6938">
        <ele>900</ele>
        <time>2018-05-07T11:27:45Z</time>
      </trkpt>
      <trkpt lat="45.89406" lon="6.69399">
        <ele>899</ele>
        <time>2018-05-07T11:28:45Z</time>
      </trkpt>
      <trkpt lat="45.89406" lon="6.69412">
        <ele>898</ele>
        <time>2018-05-07T11:29:45Z</time>
      </trkpt>
      <trkpt lat="45.89405" lon="6.69437">
        <ele>897</ele>
        <time>2018-05-07T11:30:45Z</time>
      </trkpt>
      <trkpt lat="45.89406" lon="6.69455">
        <ele>897</ele>
        <time>2018-05-07T11:31:45Z</time>
      </trkpt>
      <trkpt lat="45.89407" lon="6.69485">
        <ele>893</ele>
        <time>2018-05-07T11:32:45Z</time>
      </trkpt>
      <trkpt lat="45.89411" lon="6.69528">
        <ele>892</ele>
        <time>2018-05-07T11:33:45Z</time>
      </trkpt>
      <trkpt lat="45.89414" lon="6.69556">
        <ele>890</ele>
        <time>2018-05-07T11:34:45Z</time>
      </trkpt>
      <trkpt lat="45.89416" lon="6.6957">
        <ele>887</ele>
        <time>2018-05-07T11:35:45Z</time>
      </trkpt>
      <trkpt lat="45.89419" lon="6.69583">
        <ele>880</ele>
        <time>2018-05-07T11:36:45Z</time>
      </trkpt>
      <trkpt lat="45.89423" lon="6.69598">
        <ele>877</ele>
        <time>2018-05-07T11:37:45Z</time>
      </trkpt>
      <trkpt lat="45.89436" lon="6.69636">
        <ele>873</ele>
        <time>2018-05-07T11:38:45Z</time>
      </trkpt>
      <trkpt lat="45.89438" lon="6.69642">
        <ele>873</ele>
        <time>2018-05-07T11:39:45Z</time>
      </trkpt>
      <trkpt lat="45.8944" lon="6.69649">
        <ele>873</ele>
        <time>2018-05-07T11:40:45Z</time>
      </trkpt>
      <trkpt lat="45.89443" lon="6.69662">
        <ele>873</ele>
        <time>2018-05-07T11:41:45Z</time>
      </trkpt>
      <trkpt lat="45.89443" lon="6.69671">
        <ele>873</ele>
        <time>2018-05-07T11:42:45Z</time>
      </trkpt>
      <trkpt lat="45.89444" lon="6.69686">
        <ele>872</ele>
        <time>2018-05-07T11:43:45Z</time>
      </trkpt>
      <trkpt lat="45.89444" lon="6.69699">
        <ele>872</ele>
        <time>2018-05-07T11:44:45Z</time>
      </trkpt>
      <trkpt lat="45.89446" lon="6.69711">
        <ele>872</ele>
        <time>2018-05-07T11:45:45Z</time>
      </trkpt>
      <trkpt lat="45.89449" lon="6.69721">
        <ele>872</ele>
        <time>2018-05-07T11:46:45Z</time>
      </trkpt>
      <trkpt lat="45.89453" lon="6.69731">
        <ele>871</ele>
        <time>2018-05-07T11:47:45Z</time>
      </trkpt>
      <trkpt lat="45.89459" lon="6.69746">
        <ele>870</ele>
        <time>2018-05-07T11:48:45Z</time>
      </trkpt>
      <trkpt lat="45.89462" lon="6.69756">
        <ele>870</ele>
        <time>2018-05-07T11:49:45Z</time>
      </trkpt>
      <trkpt lat="45.89462" lon="6.69757">
        <ele>870</ele>
        <time>2018-05-07T11:50:45Z</time>
      </trkpt>
      <trkpt lat="45.89465" lon="6.6977">
        <ele>870</ele>
        <time>2018-05-07T11:51:45Z</time>
      </trkpt>
      <trkpt lat="45.89466" lon="6.69785">
        <ele>870</ele>
        <time>2018-05-07T11:52:45Z</time>
      </trkpt>
      <trkpt lat="45.89467" lon="6.698">
        <ele>869</ele>
        <time>2018-05-07T11:53:45Z</time>
      </trkpt>
      <trkpt lat="45.89467" lon="6.69812">
        <ele>869</ele>
        <time>2018-05-07T11:54:45Z</time>
      </trkpt>
      <trkpt lat="45.89466" lon="6.69829">
        <ele>869</ele>
        <time>2018-05-07T11:55:45Z</time>
      </trkpt>
      <trkpt lat="45.89461" lon="6.69855">
        <ele>868</ele>
        <time>2018-05-07T11:56:45Z</time>
      </trkpt>
      <trkpt lat="45.89456" lon="6.69889">
        <ele>868</ele>
        <time>2018-05-07T11:57:45Z</time>
      </trkpt>
      <trkpt lat="45.89456" lon="6.69895">
        <ele>868</ele>
        <time>2018-05-07T11:58:45Z</time>
      </trkpt>
      <trkpt lat="45.89452" lon="6.69916">
        <ele>868</ele>
        <time>2018-05-07T11:59:45Z</time>
      </trkpt>
      <trkpt lat="45.89445" lon="6.69946">
        <ele>863</ele>
        <time>2018-05-07T12:00:45Z</time>
      </trkpt>
      <trkpt lat="45.89443" lon="6.69957">
        <ele>863</ele>
        <time>2018-05-07T12:01:45Z</time>
      </trkpt>
      <trkpt lat="45.89442" lon="6.69972">
        <ele>862</ele>
        <time>2018-05-07T12:02:45Z</time>
      </trkpt>
      <trkpt lat="45.8944" lon="6.69992">
        <ele>863</ele>
        <time>2018-05-07T12:03:45Z</time>
      </trkpt>
      <trkpt lat="45.89437" lon="6.70009">
        <ele>860</ele>
        <time>2018-05-07T12:04:45Z</time>
      </trkpt>
      <trkpt lat="45.89433" lon="6.70033">
        <ele>858</ele>
        <time>2018-05-07T12:05:45Z</time>
      </trkpt>
      <trkpt lat="45.89432" lon="6.7005">
        <ele>857</ele>
        <time>2018-05-07T12:06:45Z</time>
      </trkpt>
      <trkpt lat="45.89432" lon="6.70059">
        <ele>858</ele>
        <time>2018-05-07T12:07:45Z</time>
      </trkpt>
      <trkpt lat="45.89433" lon="6.70067">
        <ele>858</ele>
        <time>2018-05-07T12:08:45Z</time>
      </trkpt>
      <trkpt lat="45.89436" lon="6.70076">
        <ele>858</ele>
        <time>2018-05-07T12:09:45Z</time>
      </trkpt>
      <trkpt lat="45.89439" lon="6.70087">
        <ele>854</ele>
        <time>2018-05-07T12:10:45Z</time>
      </trkpt>
      <trkpt lat="45.89441" lon="6.70096">
        <ele>852</ele>
        <time>2018-05-07T12:11:45Z</time>
      </trkpt>
      <trkpt lat="45.89442" lon="6.70105">
        <ele>851</ele>
        <time>2018-05-07T12:12:45Z</time>
      </trkpt>
      <trkpt lat="45.89441" lon="6.70113">
        <ele>850</ele>
        <time>2018-05-07T12:13:45Z</time>
      </trkpt>
      <trkpt lat="45.89439" lon="6.70125">
        <ele>849</ele>
        <time>2018-05-07T12:14:45Z</time>
      </trkpt>
      <trkpt lat="45.89437" lon="6.70134">
        <ele>849</ele>
        <time>2018-05-07T12:15:45Z</time>
      </trkpt>
      <trkpt lat="45.89434" lon="6.70144">
        <ele>849</ele>
        <time>2018-05-07T12:16:45Z</time>
      </trkpt>
      <trkpt lat="45.89428" lon="6.70154">
        <ele>850</ele>
        <time>2018-05-07T12:17:45Z</time>
      </trkpt>
      <trkpt lat="45.89419" lon="6.70171">
        <ele>850</ele>
        <time>2018-05-07T12:18:45Z</time>
      </trkpt>
      <trkpt lat="45.89411" lon="6.70183">
        <ele>853</ele>
        <time>2018-05-07T12:19:45Z</time>
      </trkpt>
      <trkpt lat="45.89403" lon="6.7019">
        <ele>853</ele>
        <time>2018-05-07T12:20:45Z</time>
      </trkpt>
      <trkpt lat="45.89381" lon="6.70205">
        <ele>854</ele>
        <time>2018-05-07T12:21:45Z</time>
      </trkpt>
      <trkpt lat="45.89355" lon="6.70222">
        <ele>855</ele>
        <time>2018-05-07T12:22:45Z</time>
      </trkpt>
      <trkpt lat="45.89344" lon="6.70231">
        <ele>856</ele>
        <time>2018-05-07T12:23:45Z</time>
      </trkpt>
      <trkpt lat="45.89339" lon="6.70237">
        <ele>856</ele>
        <time>2018-05-07T12:24:45Z</time>
      </trkpt>
      <trkpt lat="45.89336" lon="6.70245">
        <ele>856</ele>
        <time>2018-05-07T12:25:45Z</time>
      </trkpt>
      <trkpt lat="45.89335" lon="6.70252">
        <ele>855</ele>
        <time>2018-05-07T12:26:45Z</time>
      </trkpt>
      <trkpt lat="45.89335" lon="6.70263">
        <ele>847</ele>
        <time>2018-05-07T12:27:45Z</time>
      </trkpt>
      <trkpt lat="45.89336" lon="6.7028">
        <ele>841</ele>
        <time>2018-05-07T12:28:45Z</time>
      </trkpt>
      <trkpt lat="45.89337" lon="6.70299">
        <ele>837</ele>
        <time>2018-05-07T12:29:45Z</time>
      </trkpt>
      <trkpt lat="45.89337" lon="6.70313">
        <ele>836</ele>
        <time>2018-05-07T12:30:45Z</time>
      </trkpt>
      <trkpt lat="45.89336" lon="6.70326">
        <ele>837</ele>
        <time>2018-05-07T12:31:45Z</time>
      </trkpt>
      <trkpt lat="45.89332" lon="6.70338">
        <ele>840</ele>
        <time>2018-05-07T12:32:45Z</time>
      </trkpt>
      <trkpt lat="45.89324" lon="6.70358">
        <ele>840</ele>
        <time>2018-05-07T12:33:45Z</time>
      </trkpt>
      <trkpt lat="45.89309" lon="6.70389">
        <ele>839</ele>
        <time>2018-05-07T12:34:45Z</time>
      </trkpt>
      <trkpt lat="45.89309" lon="6.70389">
        <ele>839</ele>
        <time>2018-05-07T12:35:45Z</time>
      </trkpt>
      <trkpt lat="45.89307" lon="6.70394">
        <ele>839</ele>
        <time>2018-05-07T12:36:45Z</time>
      </trkpt>
      <trkpt lat="45.893" lon="6.70404">
        <ele>839</ele>
        <time>2018-05-07T12:37:45Z</time>
      </trkpt>
      <trkpt lat="45.89293" lon="6.70413">
        <ele>840</ele>
        <time>2018-05-07T12:38:45Z</time>
      </trkpt>
      <trkpt lat="45.89291" lon="6.70417">
        <ele>832</ele>
        <time>2018-05-07T12:39:45Z</time>
      </trkpt>
      <trkpt lat="45.89284" lon="6.70428">
        <ele>832</ele>
        <time>2018-05-07T12:40:45Z</time>
      </trkpt>
      <trkpt lat="45.8928" lon="6.70435">
        <ele>832</ele>
        <time>2018-05-07T12:41:45Z</time>
      </trkpt>
      <trkpt lat="45.89277" lon="6.70442">
        <ele>832</ele>
        <time>2018-05-07T12:42:45Z</time>
      </trkpt>
      <trkpt lat="45.89274" lon="6.70453">
        <ele>831</ele>
        <time>2018-05-07T12:43:45Z</time>
      </trkpt>
      <trkpt lat="45.8927" lon="6.7047">
        <ele>830</ele>
        <time>2018-05-07T12:44:45Z</time>
      </trkpt>
      <trkpt lat="45.89264" lon="6.70486">
        <ele>830</ele>
        <time>2018-05-07T12:45:45Z</time>
      </trkpt>
      <trkpt lat="45.89258" lon="6.705">
        <ele>830</ele>
        <time>2018-05-07T12:46:45Z</time>
      </trkpt>
      <trkpt lat="45.89251" lon="6.7051">
        <ele>826</ele>
        <time>2018-05-07T12:47:45Z</time>
      </trkpt>
      <trkpt lat="45.89242" lon="6.70519">
        <ele>828</ele>
        <time>2018-05-07T12:48:45Z</time>
      </trkpt>
      <trkpt lat="45.89232" lon="6.70525">
        <ele>826</ele>
        <time>2018-05-07T12:49:45Z</time>
      </trkpt>
      <trkpt lat="45.89227" lon="6.70527">
        <ele>826</ele>
        <time>2018-05-07T12:50:45Z</time>
      </trkpt>
      <trkpt lat="45.89219" lon="6.7053">
        <ele>825</ele>
        <time>2018-05-07T12:51:45Z</time>
      </trkpt>
      <trkpt lat="45.89212" lon="6.70531">
        <ele>825</ele>
        <time>2018-05-07T12:52:45Z</time>
      </trkpt>
      <trkpt lat="45.892" lon="6.70531">
        <ele>825</ele>
        <time>2018-05-07T12:53:45Z</time>
      </trkpt>
      <trkpt lat="45.89185" lon="6.70529">
        <ele>825</ele>
        <time>2018-05-07T12:54:45Z</time>
      </trkpt>
      <trkpt lat="45.89172" lon="6.70527">
        <ele>826</ele>
        <time>2018-05-07T12:55:45Z</time>
      </trkpt>
      <trkpt lat="45.8917" lon="6.70527">
        <ele>826</ele>
        <time>2018-05-07T12:56:45Z</time>
      </trkpt>
      <trkpt lat="45.89154" lon="6.70525">
        <ele>827</ele>
        <time>2018-05-07T12:57:45Z</time>
      </trkpt>
      <trkpt lat="45.89145" lon="6.70524">
        <ele>827</ele>
        <time>2018-05-07T12:58:45Z</time>
      </trkpt>
      <trkpt lat="45.89137" lon="6.70524">
        <ele>827</ele>
        <time>2018-05-07T12:59:45Z</time>
      </trkpt>
      <trkpt lat="45.89132" lon="6.70524">
        <ele>827</ele>
        <time>2018-05-07T13:00:45Z</time>
      </trkpt>
      <trkpt lat="45.89126" lon="6.70526">
        <ele>827</ele>
        <time>2018-05-07T13:01:45Z</time>
      </trkpt>
      <trkpt lat="45.8912" lon="6.70528">
        <ele>827</ele>
        <time>2018-05-07T13:02:45Z</time>
      </trkpt>
      <trkpt lat="45.89113" lon="6.70533">
        <ele>827</ele>
        <time>2018-05-07T13:03:45Z</time>
      </trkpt>
      <trkpt lat="45.89102" lon="6.70544">
        <ele>826</ele>
        <time>2018-05-07T13:04:45Z</time>
      </trkpt>
      <trkpt lat="45.891" lon="6.70546">
        <ele>825</ele>
        <time>2018-05-07T13:05:45Z</time>
      </trkpt>
      <trkpt lat="45.89082" lon="6.70566">
        <ele>825</ele>
        <time>2018-05-07T13:06:45Z</time>
      </trkpt>
      <trkpt lat="45.89065" lon="6.7058">
        <ele>825</ele>
        <time>2018-05-07T13:07:45Z</time>
      </trkpt>
      <trkpt lat="45.89063" lon="6.70581">
        <ele>826</ele>
        <time>2018-05-07T13:08:45Z</time>
      </trkpt>
      <trkpt lat="45.8904" lon="6.70599">
        <ele>818</ele>
        <time>2018-05-07T13:09:45Z</time>
      </trkpt>
      <trkpt lat="45.89013" lon="6.70619">
        <ele>818</ele>
        <time>2018-05-07T13:10:45Z</time>
      </trkpt>
      <trkpt lat="45.88996" lon="6.70628">
        <ele>824</ele>
        <time>2018-05-07T13:11:45Z</time>
      </trkpt>
      <trkpt lat="45.88989" lon="6.70632">
        <ele>824</ele>
        <time>2018-05-07T13:12:45Z</time>
      </trkpt>
      <trkpt lat="45.88958" lon="6.7065">
        <ele>824</ele>
        <time>2018-05-07T13:13:45Z</time>
      </trkpt>
      <trkpt lat="45.88949" lon="6.70658">
        <ele>825</ele>
        <time>2018-05-07T13:14:45Z</time>
      </trkpt>
      <trkpt lat="45.88948" lon="6.70659">
        <ele>825</ele>
        <time>2018-05-07T13:15:45Z</time>
      </trkpt>
      <trkpt lat="45.88942" lon="6.70666">
        <ele>825</ele>
        <time>2018-05-07T13:16:45Z</time>
      </trkpt>
      <trkpt lat="45.88936" lon="6.70674">
        <ele>820</ele>
        <time>2018-05-07T13:17:45Z</time>
      </trkpt>
      <trkpt lat="45.88931" lon="6.70682">
        <ele>820</ele>
        <time>2018-05-07T13:18:45Z</time>
      </trkpt>
      <trkpt lat="45.88926" lon="6.70692">
        <ele>820</ele>
        <time>2018-05-07T13:19:45Z</time>
      </trkpt>
      <trkpt lat="45.88921" lon="6.70706">
        <ele>819</ele>
        <time>2018-05-07T13:20:45Z</time>
      </trkpt>
      <trkpt lat="45.88917" lon="6.70722">
        <ele>818</ele>
        <time>2018-05-07T13:21:45Z</time>
      </trkpt>
      <trkpt lat="45.88914" lon="6.70737">
        <ele>825</ele>
        <time>2018-05-07T13:22:45Z</time>
      </trkpt>
      <trkpt lat="45.88913" lon="6.70749">
        <ele>821</ele>
        <time>2018-05-07T13:23:45Z</time>
      </trkpt>
      <trkpt lat="45.88912" lon="6.70783">
        <ele>825</ele>
        <time>2018-05-07T13:24:45Z</time>
      </trkpt>
      <trkpt lat="45.88908" lon="6.70869">
        <ele>820</ele>
        <time>2018-05-07T13:25:45Z</time>
      </trkpt>
      <trkpt lat="45.88908" lon="6.70884">
        <ele>819</ele>
        <time>2018-05-07T13:26:45Z</time>
      </trkpt>
      <trkpt lat="45.88905" lon="6.70953">
        <ele>817</ele>
        <time>2018-05-07T13:27:45Z</time>
      </trkpt>
      <trkpt lat="45.88904" lon="6.70977">
        <ele>818</ele>
        <time>2018-05-07T13:28:45Z</time>
      </trkpt>
      <trkpt lat="45.88903" lon="6.71008">
        <ele>818</ele>
        <time>2018-05-07T13:29:45Z</time>
      </trkpt>
      <trkpt lat="45.88899" lon="6.71117">
        <ele>819</ele>
        <time>2018-05-07T13:30:45Z</time>
      </trkpt>
      <trkpt lat="45.88896" lon="6.71207">
        <ele>813</ele>
        <time>2018-05-07T13:31:45Z</time>
      </trkpt>
      <trkpt lat="45.88895" lon="6.71264">
        <ele>812</ele>
        <time>2018-05-07T13:32:45Z</time>
      </trkpt>
      <trkpt lat="45.88895" lon="6.71289">
        <ele>814</ele>
        <time>2018-05-07T13:33:45Z</time>
      </trkpt>
      <trkpt lat="45.88901" lon="6.71297">
        <ele>814</ele>
        <time>2018-05-07T13:34:45Z</time>
      </trkpt>
      <trkpt lat="45.88905" lon="6.713">
        <ele>815</ele>
        <time>2018-05-07T13:35:45Z</time>
      </trkpt>
      <trkpt lat="45.88908" lon="6.71301">
        <ele>815</ele>
        <time>2018-05-07T13:36:45Z</time>
      </trkpt>
      <trkpt lat="45.88911" lon="6.71302">
        <ele>815</ele>
        <time>2018-05-07T13:37:45Z</time>
      </trkpt>
      <trkpt lat="45.88954" lon="6.7131">
        <ele>818</ele>
        <time>2018-05-07T13:38:45Z</time>
      </trkpt>
      <trkpt lat="45.88978" lon="6.71311">
        <ele>819</ele>
        <time>2018-05-07T13:39:45Z</time>
      </trkpt>
      <trkpt lat="45.88988" lon="6.71311">
        <ele>820</ele>
        <time>2018-05-07T13:40:45Z</time>
      </trkpt>
      <trkpt lat="45.88997" lon="6.7131">
        <ele>821</ele>
        <time>2018-05-07T13:41:45Z</time>
      </trkpt>
      <trkpt lat="45.89012" lon="6.71308">
        <ele>822</ele>
        <time>2018-05-07T13:42:45Z</time>
      </trkpt>
      <trkpt lat="45.89024" lon="6.71307">
        <ele>821</ele>
        <time>2018-05-07T13:43:45Z</time>
      </trkpt>
      <trkpt lat="45.89089" lon="6.71307">
        <ele>821</ele>
        <time>2018-05-07T13:44:45Z</time>
      </trkpt>
      <trkpt lat="45.89092" lon="6.71308">
        <ele>821</ele>
        <time>2018-05-07T13:45:45Z</time>
      </trkpt>
      <trkpt lat="45.89095" lon="6.71308">
        <ele>820</ele>
        <time>2018-05-07T13:46:45Z</time>
      </trkpt>
      <trkpt lat="45.89098" lon="6.71309">
        <ele>820</ele>
        <time>2018-05-07T13:47:45Z</time>
      </trkpt>
      <trkpt lat="45.89104" lon="6.71311">
        <ele>820</ele>
        <time>2018-05-07T13:48:45Z</time>
      </trkpt>
      <trkpt lat="45.89104" lon="6.71311">
        <ele>820</ele>
        <time>2018-05-07T13:49:45Z</time>
      </trkpt>
      <trkpt lat="45.89102" lon="6.71314">
        <ele>821</ele>
        <time>2018-05-07T13:50:45Z</time>
      </trkpt>
      <trkpt lat="45.89101" lon="6.71318">
        <ele>821</ele>
        <time>2018-05-07T13:51:45Z</time>
      </trkpt>
      <trkpt lat="45.89101" lon="6.7132">
        <ele>821</ele>
        <time>2018-05-07T13:52:45Z</time>
      </trkpt>
      <trkpt lat="45.89101" lon="6.71324">
        <ele>822</ele>
        <time>2018-05-07T13:53:45Z</time>
      </trkpt>
      <trkpt lat="45.89103" lon="6.71328">
        <ele>822</ele>
        <time>2018-05-07T13:54:45Z</time>
      </trkpt>
      <trkpt lat="45.89104" lon="6.71329">
        <ele>821</ele>
        <time>2018-05-07T13:55:45Z</time>
      </trkpt>
      <trkpt lat="45.89106" lon="6.7133">
        <ele>821</ele>
        <time>2018-05-07T13:56:45Z</time>
      </trkpt>
      <trkpt lat="45.89108" lon="6.71331">
        <ele>821</ele>
        <time>2018-05-07T13:57:45Z</time>
      </trkpt>
      <trkpt lat="45.8911" lon="6.71331">
        <ele>821</ele>
        <time>2018-05-07T13:58:45Z</time>
      </trkpt>
      <trkpt lat="45.89113" lon="6.7133">
        <ele>821</ele>
        <time>2018-05-07T13:59:45Z</time>
      </trkpt>
      <trkpt lat="45.89114" lon="6.71328">
        <ele>821</ele>
        <time>2018-05-07T14:00:45Z</time>
      </trkpt>
      <trkpt lat="45.89116" lon="6.71325">
        <ele>821</ele>
        <time>2018-05-07T14:01:45Z</time>
      </trkpt>
      <trkpt lat="45.89116" lon="6.71322">
        <ele>820</ele>
        <time>2018-05-07T14:02:45Z</time>
      </trkpt>
      <trkpt lat="45.89116" lon="6.71318">
        <ele>820</ele>
        <time>2018-05-07T14:03:45Z</time>
      </trkpt>
      <trkpt lat="45.89122" lon="6.71318">
        <ele>820</ele>
        <time>2018-05-07T14:04:45Z</time>
      </trkpt>
      <trkpt lat="45.89127" lon="6.7132">
        <ele>820</ele>
        <time>2018-05-07T14:05:45Z</time>
      </trkpt>
      <trkpt lat="45.89132" lon="6.71321">
        <ele>820</ele>
        <time>2018-05-07T14:06:45Z</time>
      </trkpt>
      <trkpt lat="45.89138" lon="6.71327">
        <ele>820</ele>
        <time>2018-05-07T14:07:45Z</time>
      </trkpt>
      <trkpt lat="45.89148" lon="6.71336">
        <ele>826</ele>
        <time>2018-05-07T14:08:45Z</time>
      </trkpt>
      <trkpt lat="45.89165" lon="6.71354">
        <ele>827</ele>
        <time>2018-05-07T14:09:45Z</time>
      </trkpt>
      <trkpt lat="45.89168" lon="6.71355">
        <ele>829</ele>
        <time>2018-05-07T14:10:45Z</time>
      </trkpt>
      <trkpt lat="45.89171" lon="6.71356">
        <ele>829</ele>
        <time>2018-05-07T14:11:45Z</time>
      </trkpt>
      <trkpt lat="45.89174" lon="6.71357">
        <ele>830</ele>
        <time>2018-05-07T14:12:45Z</time>
      </trkpt>
      <trkpt lat="45.89178" lon="6.71356">
        <ele>830</ele>
        <time>2018-05-07T14:13:45Z</time>
      </trkpt>
      <trkpt lat="45.89182" lon="6.71355">
        <ele>830</ele>
        <time>2018-05-07T14:14:45Z</time>
      </trkpt>
      <trkpt lat="45.89186" lon="6.71353">
        <ele>830</ele>
        <time>2018-05-07T14:15:45Z</time>
      </trkpt>
      <trkpt lat="45.8919" lon="6.7135">
        <ele>830</ele>
        <time>2018-05-07T14:16:45Z</time>
      </trkpt>
      <trkpt lat="45.89193" lon="6.71347">
        <ele>830</ele>
        <time>2018-05-07T14:17:45Z</time>
      </trkpt>
      <trkpt lat="45.89197" lon="6.7134">
        <ele>830</ele>
        <time>2018-05-07T14:18:45Z</time>
      </trkpt>
      <trkpt lat="45.89199" lon="6.71332">
        <ele>822</ele>
        <time>2018-05-07T14:19:45Z</time>
      </trkpt>
      <trkpt lat="45.892" lon="6.71324">
        <ele>822</ele>
        <time>2018-05-07T14:20:45Z</time>
      </trkpt>
      <trkpt lat="45.89202" lon="6.71305">
        <ele>821</ele>
        <time>2018-05-07T14:21:45Z</time>
      </trkpt>
      <trkpt lat="45.89205" lon="6.71285">
        <ele>820</ele>
        <time>2018-05-07T14:22:45Z</time>
      </trkpt>
      <trkpt lat="45.89212" lon="6.71245">
        <ele>815</ele>
        <time>2018-05-07T14:23:45Z</time>
      </trkpt>
      <trkpt lat="45.89214" lon="6.71234">
        <ele>815</ele>
        <time>2018-05-07T14:24:45Z</time>
      </trkpt>
      <trkpt lat="45.89215" lon="6.71223">
        <ele>815</ele>
        <time>2018-05-07T14:25:45Z</time>
      </trkpt>
      <trkpt lat="45.89216" lon="6.71216">
        <ele>815</ele>
        <time>2018-05-07T14:26:45Z</time>
      </trkpt>
      <trkpt lat="45.89219" lon="6.71209">
        <ele>815</ele>
        <time>2018-05-07T14:27:45Z</time>
      </trkpt>
      <trkpt lat="45.89222" lon="6.71203">
        <ele>815</ele>
        <time>2018-05-07T14:28:45Z</time>
      </trkpt>
      <trkpt lat="45.89224" lon="6.71198">
        <ele>814</ele>
        <time>2018-05-07T14:29:45Z</time>
      </trkpt>
      <trkpt lat="45.89226" lon="6.71197">
        <ele>815</ele>
        <time>2018-05-07T14:30:45Z</time>
      </trkpt>
      <trkpt lat="45.89234" lon="6.71194">
        <ele>815</ele>
        <time>2018-05-07T14:31:45Z</time>
      </trkpt>
      <trkpt lat="45.89246" lon="6.71186">
        <ele>815</ele>
        <time>2018-05-07T14:32:45Z</time>
      </trkpt>
      <trkpt lat="45.89262" lon="6.71178">
        <ele>817</ele>
        <time>2018-05-07T14:33:45Z</time>
      </trkpt>
      <trkpt lat="45.89271" lon="6.71174">
        <ele>818</ele>
        <time>2018-05-07T14:34:45Z</time>
      </trkpt>
      <trkpt lat="45.89281" lon="6.71167">
        <ele>818</ele>
        <time>2018-05-07T14:35:45Z</time>
      </trkpt>
      <trkpt lat="45.89288" lon="6.71165">
        <ele>813</ele>
        <time>2018-05-07T14:36:45Z</time>
      </trkpt>
      <trkpt lat="45.89296" lon="6.71163">
        <ele>813</ele>
        <time>2018-05-07T14:37:45Z</time>
      </trkpt>
      <trkpt lat="45.89318" lon="6.7116">
        <ele>813</ele>
        <time>2018-05-07T14:38:45Z</time>
      </trkpt>
      <trkpt lat="45.8933" lon="6.71159">
        <ele>814</ele>
        <time>2018-05-07T14:39:45Z</time>
      </trkpt>
      <trkpt lat="45.89371" lon="6.71154">
        <ele>813</ele>
        <time>2018-05-07T14:40:45Z</time>
      </trkpt>
      <trkpt lat="45.89371" lon="6.71154">
        <ele>813</ele>
        <time>2018-05-07T14:41:45Z</time>
      </trkpt>
      <trkpt lat="45.89368" lon="6.711">
        <ele>810</ele>
        <time>2018-05-07T14:42:45Z</time>
      </trkpt>
      <trkpt lat="45.89368" lon="6.711">
        <ele>810</ele>
        <time>2018-05-07T14:43:45Z</time>
      </trkpt>
      <trkpt lat="45.89389" lon="6.71094">
        <ele>809</ele>
        <time>2018-05-07T14:44:45Z</time>
      </trkpt>
      <trkpt lat="45.89401" lon="6.7109">
        <ele>809</ele>
        <time>2018-05-07T14:45:45Z</time>
      </trkpt>
      <trkpt lat="45.89439" lon="6.71078">
        <ele>803</ele>
        <time>2018-05-07T14:46:45Z</time>
      </trkpt>
      <trkpt lat="45.89443" lon="6.71077">
        <ele>802</ele>
        <time>2018-05-07T14:47:45Z</time>
      </trkpt>
      <trkpt lat="45.89443" lon="6.71078">
        <ele>802</ele>
        <time>2018-05-07T14:48:45Z</time>
      </trkpt>
      <trkpt lat="45.89444" lon="6.7108">
        <ele>802</ele>
        <time>2018-05-07T14:49:45Z</time>
      </trkpt>
      <trkpt lat="45.89444" lon="6.71081">
        <ele>802</ele>
        <time>2018-05-07T14:50:45Z</time>
      </trkpt>
      <trkpt lat="45.89444" lon="6.71082">
        <ele>802</ele>
        <time>2018-05-07T14:51:45Z</time>
      </trkpt>
      <trkpt lat="45.89445" lon="6.71083">
        <ele>802</ele>
        <time>2018-05-07T14:52:45Z</time>
      </trkpt>
      <trkpt lat="45.89445" lon="6.71084">
        <ele>811</ele>
        <time>2018-05-07T14:53:45Z</time>
      </trkpt>
      <trkpt lat="45.89446" lon="6.71085">
        <ele>811</ele>
        <time>2018-05-07T14:54:45Z</time>
      </trkpt>
      <trkpt lat="45.89446" lon="6.71086">
        <ele>811</ele>
        <time>2018-05-07T14:55:45Z</time>
      </trkpt>
      <trkpt lat="45.89447" lon="6.71086">
        <ele>811</ele>
        <time>2018-05-07T14:56:45Z</time>
      </trkpt>
      <trkpt lat="45.89447" lon="6.71087">
        <ele>811</ele>
        <time>2018-05-07T14:57:45Z</time>
      </trkpt>
      <trkpt lat="45.89448" lon="6.71088">
        <ele>811</ele>
        <time>2018-05-07T14:58:45Z</time>
      </trkpt>
      <trkpt lat="45.89449" lon="6.71089">
        <ele>811</ele>
        <time>2018-05-07T14:59:45Z</time>
      </trkpt>
      <trkpt lat="45.8945" lon="6.7109">
        <ele>811</ele>
        <time>2018-05-07T15:00:45Z</time>
      </trkpt>
      <trkpt lat="45.89451" lon="6.7109">
        <ele>811</ele>
        <time>2018-05-07T15:01:45Z</time>
      </trkpt>
      <trkpt lat="45.89452" lon="6.71091">
        <ele>811</ele>
        <time>2018-05-07T15:02:45Z</time>
      </trkpt>
      <trkpt lat="45.89453" lon="6.71091">
        <ele>811</ele>
        <time>2018-05-07T15:03:45Z</time>
      </trkpt>
      <trkpt lat="45.89454" lon="6.71091">
        <ele>811</ele>
        <time>2018-05-07T15:04:45Z</time>
      </trkpt>
      <trkpt lat="45.89455" lon="6.71092">
        <ele>811</ele>
        <time>2018-05-07T15:05:45Z</time>
      </trkpt>
      <trkpt lat="45.89456" lon="6.71092">
        <ele>811</ele>
        <time>2018-05-07T15:06:45Z</time>
      </trkpt>
      <trkpt lat="45.89457" lon="6.71092">
        <ele>811</ele>
        <time>2018-05-07T15:07:45Z</time>
      </trkpt>
      <trkpt lat="45.89458" lon="6.71091">
        <ele>811</ele>
        <time>2018-05-07T15:08:45Z</time>
      </trkpt>
      <trkpt lat="45.89459" lon="6.71091">
        <ele>811</ele>
        <time>2018-05-07T15:09:45Z</time>
      </trkpt>
      <trkpt lat="45.8946" lon="6.71091">
        <ele>811</ele>
        <time>2018-05-07T15:10:45Z</time>
      </trkpt>
      <trkpt lat="45.89461" lon="6.71091">
        <ele>811</ele>
        <time>2018-05-07T15:11:45Z</time>
      </trkpt>
      <trkpt lat="45.89461" lon="6.7109">
        <ele>811</ele>
        <time>2018-05-07T15:12:45Z</time>
      </trkpt>
      <trkpt lat="45.89462" lon="6.7109">
        <ele>811</ele>
        <time>2018-05-07T15:13:45Z</time>
      </trkpt>
      <trkpt lat="45.89463" lon="6.71089">
        <ele>811</ele>
        <time>2018-05-07T15:14:45Z</time>
      </trkpt>
      <trkpt lat="45.89464" lon="6.71089">
        <ele>811</ele>
        <time>2018-05-07T15:15:45Z</time>
      </trkpt>
      <trkpt lat="45.89464" lon="6.71088">
        <ele>811</ele>
        <time>2018-05-07T15:16:45Z</time>
      </trkpt>
      <trkpt lat="45.89465" lon="6.71087">
        <ele>811</ele>
        <time>2018-05-07T15:17:45Z</time>
      </trkpt>
      <trkpt lat="45.89466" lon="6.71086">
        <ele>811</ele>
        <time>2018-05-07T15:18:45Z</time>
      </trkpt>
      <trkpt lat="45.89466" lon="6.71085">
        <ele>811</ele>
        <time>2018-05-07T15:19:45Z</time>
      </trkpt>
      <trkpt lat="45.89467" lon="6.71085">
        <ele>811</ele>
        <time>2018-05-07T15:20:45Z</time>
      </trkpt>
      <trkpt lat="45.89467" lon="6.71084">
        <ele>811</ele>
        <time>2018-05-07T15:21:45Z</time>
      </trkpt>
      <trkpt lat="45.89468" lon="6.71083">
        <ele>803</ele>
        <time>2018-05-07T15:22:45Z</time>
      </trkpt>
      <trkpt lat="45.89468" lon="6.71082">
        <ele>803</ele>
        <time>2018-05-07T15:23:45Z</time>
      </trkpt>
      <trkpt lat="45.89468" lon="6.71081">
        <ele>803</ele>
        <time>2018-05-07T15:24:45Z</time>
      </trkpt>
      <trkpt lat="45.89469" lon="6.71079">
        <ele>803</ele>
        <time>2018-05-07T15:25:45Z</time>
      </trkpt>
      <trkpt lat="45.89469" lon="6.71078">
        <ele>803</ele>
        <time>2018-05-07T15:26:45Z</time>
      </trkpt>
      <trkpt lat="45.89469" lon="6.71077">
        <ele>803</ele>
        <time>2018-05-07T15:27:45Z</time>
      </trkpt>
      <trkpt lat="45.8947" lon="6.71076">
        <ele>803</ele>
        <time>2018-05-07T15:28:45Z</time>
      </trkpt>
      <trkpt lat="45.8947" lon="6.71075">
        <ele>803</ele>
        <time>2018-05-07T15:29:45Z</time>
      </trkpt>
      <trkpt lat="45.8947" lon="6.71074">
        <ele>803</ele>
        <time>2018-05-07T15:30:45Z</time>
      </trkpt>
      <trkpt lat="45.8947" lon="6.71073">
        <ele>803</ele>
        <time>2018-05-07T15:31:45Z</time>
      </trkpt>
      <trkpt lat="45.8947" lon="6.71072">
        <ele>803</ele>
        <time>2018-05-07T15:32:45Z</time>
      </trkpt>
      <trkpt lat="45.89479" lon="6.71072">
        <ele>803</ele>
        <time>2018-05-07T15:33:45Z</time>
      </trkpt>
      <trkpt lat="45.89511" lon="6.71065">
        <ele>807</ele>
        <time>2018-05-07T15:34:45Z</time>
      </trkpt>
      <trkpt lat="45.89595" lon="6.7104">
        <ele>806</ele>
        <time>2018-05-07T15:35:45Z</time>
      </trkpt>
      <trkpt lat="45.8961" lon="6.71035">
        <ele>805</ele>
        <time>2018-05-07T15:36:45Z</time>
      </trkpt>
      <trkpt lat="45.89619" lon="6.71031">
        <ele>805</ele>
        <time>2018-05-07T15:37:45Z</time>
      </trkpt>
      <trkpt lat="45.89637" lon="6.71022">
        <ele>803</ele>
        <time>2018-05-07T15:38:45Z</time>
      </trkpt>
      <trkpt lat="45.89637" lon="6.71022">
        <ele>803</ele>
        <time>2018-05-07T15:39:45Z</time>
      </trkpt>
      <trkpt lat="45.8964" lon="6.71026">
        <ele>804</ele>
        <time>2018-05-07T15:40:45Z</time>
      </trkpt>
      <trkpt lat="45.89643" lon="6.71027">
        <ele>804</ele>
        <time>2018-05-07T15:41:45Z</time>
      </trkpt>
      <trkpt lat="45.89646" lon="6.71026">
        <ele>803</ele>
        <time>2018-05-07T15:42:45Z</time>
      </trkpt>
      <trkpt lat="45.89657" lon="6.71023">
        <ele>802</ele>
        <time>2018-05-07T15:43:45Z</time>
      </trkpt>
      <trkpt lat="45.89725" lon="6.71">
        <ele>793</ele>
        <time>2018-05-07T15:44:45Z</time>
      </trkpt>
      <trkpt lat="45.89728" lon="6.71">
        <ele>793</ele>
        <time>2018-05-07T15:45:45Z</time>
      </trkpt>
      <trkpt lat="45.89733" lon="6.70999">
        <ele>793</ele>
        <time>2018-05-07T15:46:45Z</time>
      </trkpt>
      <trkpt lat="45.89733" lon="6.70999">
        <ele>793</ele>
        <time>2018-05-07T15:47:45Z</time>
      </trkpt>
      <trkpt lat="45.89737" lon="6.71008">
        <ele>796</ele>
        <time>2018-05-07T15:48:45Z</time>
      </trkpt>
      <trkpt lat="45.89742" lon="6.71017">
        <ele>797</ele>
        <time>2018-05-07T15:49:45Z</time>
      </trkpt>
      <trkpt lat="45.89761" lon="6.71046">
        <ele>795</ele>
        <time>2018-05-07T15:50:45Z</time>
      </trkpt>
      <trkpt lat="45.89781" lon="6.71074">
        <ele>796</ele>
        <time>2018-05-07T15:51:45Z</time>
      </trkpt>
      <trkpt lat="45.89786" lon="6.7108">
        <ele>796</ele>
        <time>2018-05-07T15:52:45Z</time>
      </trkpt>
      <trkpt lat="45.89789" lon="6.71082">
        <ele>796</ele>
        <time>2018-05-07T15:53:45Z</time>
      </trkpt>
      <trkpt lat="45.8979" lon="6.71083">
        <ele>796</ele>
        <time>2018-05-07T15:54:45Z</time>
      </trkpt>
      <trkpt lat="45.89792" lon="6.71083">
        <ele>795</ele>
        <time>2018-05-07T15:55:45Z</time>
      </trkpt>
      <trkpt lat="45.89794" lon="6.71084">
        <ele>799</ele>
        <time>2018-05-07T15:56:45Z</time>
      </trkpt>
      <trkpt lat="45.89798" lon="6.71085">
        <ele>799</ele>
        <time>2018-05-07T15:57:45Z</time>
      </trkpt>
      <trkpt lat="45.89805" lon="6.71086">
        <ele>799</ele>
        <time>2018-05-07T15:58:45Z</time>
      </trkpt>
      <trkpt lat="45.89808" lon="6.71088">
        <ele>799</ele>
        <time>2018-05-07T15:59:45Z</time>
      </trkpt>
      <trkpt lat="45.89809" lon="6.71089">
        <ele>799</ele>
        <time>2018-05-07T16:00:45Z</time>
      </trkpt>
      <trkpt lat="45.8981" lon="6.71091">
        <ele>799</ele>
        <time>2018-05-07T16:01:45Z</time>
      </trkpt>
      <trkpt lat="45.89811" lon="6.71092">
        <ele>799</ele>
        <time>2018-05-07T16:02:45Z</time>
      </trkpt>
      <trkpt lat="45.89812" lon="6.71093">
        <ele>799</ele>
        <time>2018-05-07T16:03:45Z</time>
      </trkpt>
      <trkpt lat="45.89813" lon="6.71096">
        <ele>799</ele>
        <time>2018-05-07T16:04:45Z</time>
      </trkpt>
      <trkpt lat="45.8982" lon="6.71115">
        <ele>800</ele>
        <time>2018-05-07T16:05:45Z</time>
      </trkpt>
      <trkpt lat="45.89822" lon="6.71119">
        <ele>800</ele>
        <time>2018-05-07T16:06:45Z</time>
      </trkpt>
      <trkpt lat="45.89824" lon="6.71124">
        <ele>800</ele>
        <time>2018-05-07T16:07:45Z</time>
      </trkpt>
      <trkpt lat="45.89829" lon="6.7113">
        <ele>801</ele>
        <time>2018-05-07T16:08:45Z</time>
      </trkpt>
      <trkpt lat="45.89831" lon="6.71135">
        <ele>801</ele>
        <time>2018-05-07T16:09:45Z</time>
      </trkpt>
      <trkpt lat="45.89833" lon="6.71138">
        <ele>801</ele>
        <time>2018-05-07T16:10:45Z</time>
      </trkpt>
      <trkpt lat="45.89834" lon="6.71143">
        <ele>800</ele>
        <time>2018-05-07T16:11:45Z</time>
      </trkpt>
      <trkpt lat="45.89834" lon="6.71143">
        <ele>800</ele>
        <time>2018-05-07T16:12:45Z</time>
      </trkpt>
      <trkpt lat="45.89839" lon="6.71151">
        <ele>800</ele>
        <time>2018-05-07T16:13:45Z</time>
      </trkpt>
      <trkpt lat="45.89841" lon="6.71155">
        <ele>801</ele>
        <time>2018-05-07T16:14:45Z</time>
      </trkpt>
      <trkpt lat="45.89847" lon="6.7116">
        <ele>801</ele>
        <time>2018-05-07T16:15:45Z</time>
      </trkpt>
      <trkpt lat="45.89852" lon="6.71163">
        <ele>800</ele>
        <time>2018-05-07T16:16:45Z</time>
      </trkpt>
      <trkpt lat="45.89859" lon="6.71165">
        <ele>799</ele>
        <time>2018-05-07T16:17:45Z</time>
      </trkpt>
      <trkpt lat="45.89864" lon="6.71167">
        <ele>806</ele>
        <time>2018-05-07T16:18:45Z</time>
      </trkpt>
      <trkpt lat="45.89864" lon="6.71167">
        <ele>806</ele>
        <time>2018-05-07T16:19:45Z</time>
      </trkpt>
      <trkpt lat="45.89867" lon="6.71165">
        <ele>798</ele>
        <time>2018-05-07T16:20:45Z</time>
      </trkpt>
      <trkpt lat="45.8988" lon="6.71152">
        <ele>797</ele>
        <time>2018-05-07T16:21:45Z</time>
      </trkpt>
      <trkpt lat="45.89882" lon="6.7115">
        <ele>797</ele>
        <time>2018-05-07T16:22:45Z</time>
      </trkpt>
      <trkpt lat="45.89887" lon="6.71145">
        <ele>797</ele>
        <time>2018-05-07T16:23:45Z</time>
      </trkpt>
      <trkpt lat="45.89899" lon="6.71137">
        <ele>796</ele>
        <time>2018-05-07T16:24:45Z</time>
      </trkpt>
      <trkpt lat="45.89906" lon="6.7113">
        <ele>795</ele>
        <time>2018-05-07T16:25:45Z</time>
      </trkpt>
      <trkpt lat="45.89913" lon="6.71119">
        <ele>795</ele>
        <time>2018-05-07T16:26:45Z</time>
      </trkpt>
      <trkpt lat="45.89924" lon="6.71101">
        <ele>789</ele>
        <time>2018-05-07T16:27:45Z</time>
      </trkpt>
      <trkpt lat="45.89928" lon="6.71097">
        <ele>788</ele>
        <time>2018-05-07T16:28:45Z</time>
      </trkpt>
      <trkpt lat="45.89931" lon="6.71095">
        <ele>788</ele>
        <time>2018-05-07T16:29:45Z</time>
      </trkpt>
      <trkpt lat="45.89937" lon="6.71095">
        <ele>788</ele>
        <time>2018-05-07T16:30:45Z</time>
      </trkpt>
      <trkpt lat="45.89947" lon="6.71098">
        <ele>787</ele>
        <time>2018-05-07T16:31:45Z</time>
      </trkpt>
      <trkpt lat="45.89969" lon="6.71105">
        <ele>786</ele>
        <time>2018-05-07T16:32:45Z</time>
      </trkpt>
      <trkpt lat="45.89973" lon="6.71106">
        <ele>786</ele>
        <time>2018-05-07T16:33:45Z</time>
      </trkpt>
      <trkpt lat="45.89977" lon="6.71105">
        <ele>785</ele>
        <time>2018-05-07T16:34:45Z</time>
      </trkpt>
      <trkpt lat="45.8998" lon="6.71104">
        <ele>785</ele>
        <time>2018-05-07T16:35:45Z</time>
      </trkpt>
      <trkpt lat="45.89982" lon="6.71103">
        <ele>785</ele>
        <time>2018-05-07T16:36:45Z</time>
      </trkpt>
      <trkpt lat="45.89985" lon="6.71101">
        <ele>784</ele>
        <time>2018-05-07T16:37:45Z</time>
      </trkpt>
      <trkpt lat="45.89991" lon="6.71095">
        <ele>783</ele>
        <time>2018-05-07T16:38:45Z</time>
      </trkpt>
      <trkpt lat="45.90022" lon="6.71066">
        <ele>774</ele>
        <time>2018-05-07T16:39:45Z</time>
      </trkpt>
      <trkpt lat="45.90022" lon="6.71066">
        <ele>774</ele>
        <time>2018-05-07T16:40:45Z</time>
      </trkpt>
      <trkpt lat="45.90022" lon="6.7106">
        <ele>773</ele>
        <time>2018-05-07T16:41:45Z</time>
      </trkpt>
      <trkpt lat="45.90022" lon="6.71057">
        <ele>773</ele>
        <time>2018-05-07T16:42:45Z</time>
      </trkpt>
      <trkpt lat="45.90021" lon="6.71053">
        <ele>773</ele>
        <time>2018-05-07T16:43:45Z</time>
      </trkpt>
      <trkpt lat="45.9002" lon="6.71048">
        <ele>773</ele>
        <time>2018-05-07T16:44:45Z</time>
      </trkpt>
      <trkpt lat="45.89997" lon="6.71002">
        <ele>771</ele>
        <time>2018-05-07T16:45:45Z</time>
      </trkpt>
      <trkpt lat="45.89997" lon="6.71002">
        <ele>771</ele>
        <time>2018-05-07T16:46:45Z</time>
      </trkpt>
      <trkpt lat="45.90008" lon="6.71007">
        <ele>770</ele>
        <time>2018-05-07T16:47:45Z</time>
      </trkpt>
      <trkpt lat="45.90018" lon="6.71009">
        <ele>770</ele>
        <time>2018-05-07T16:48:45Z</time>
      </trkpt>
      <trkpt lat="45.90039" lon="6.71011">
        <ele>770</ele>
        <time>2018-05-07T16:49:45Z</time>
      </trkpt>
      <trkpt lat="45.90051" lon="6.7101">
        <ele>769</ele>
        <time>2018-05-07T16:50:45Z</time>
      </trkpt>
      <trkpt lat="45.90061" lon="6.71008">
        <ele>767</ele>
        <time>2018-05-07T16:51:45Z</time>
      </trkpt>
      <trkpt lat="45.9008" lon="6.71003">
        <ele>763</ele>
        <time>2018-05-07T16:52:45Z</time>
      </trkpt>
      <trkpt lat="45.90086" lon="6.71002">
        <ele>761</ele>
        <time>2018-05-07T16:53:45Z</time>
      </trkpt>
      <trkpt lat="45.9009" lon="6.71002">
        <ele>761</ele>
        <time>2018-05-07T16:54:45Z</time>
      </trkpt>
      <trkpt lat="45.90092" lon="6.71002">
        <ele>761</ele>
        <time>2018-05-07T16:55:45Z</time>
      </trkpt>
      <trkpt lat="45.90098" lon="6.71003">
        <ele>761</ele>
        <time>2018-05-07T16:56:45Z</time>
      </trkpt>
      <trkpt lat="45.90109" lon="6.71006">
        <ele>761</ele>
        <time>2018-05-07T16:57:45Z</time>
      </trkpt>
      <trkpt lat="45.90118" lon="6.71009">
        <ele>760</ele>
        <time>2018-05-07T16:58:45Z</time>
      </trkpt>
      <trkpt lat="45.90132" lon="6.71016">
        <ele>760</ele>
        <time>2018-05-07T16:59:45Z</time>
      </trkpt>
      <trkpt lat="45.90143" lon="6.71026">
        <ele>759</ele>
        <time>2018-05-07T17:00:45Z</time>
      </trkpt>
      <trkpt lat="45.90146" lon="6.71031">
        <ele>760</ele>
        <time>2018-05-07T17:01:45Z</time>
      </trkpt>
      <trkpt lat="45.90148" lon="6.71035">
        <ele>760</ele>
        <time>2018-05-07T17:02:45Z</time>
      </trkpt>
      <trkpt lat="45.9015" lon="6.7104">
        <ele>760</ele>
        <time>2018-05-07T17:03:45Z</time>
      </trkpt>
      <trkpt lat="45.90154" lon="6.71058">
        <ele>762</ele>
        <time>2018-05-07T17:04:45Z</time>
      </trkpt>
      <trkpt lat="45.90156" lon="6.71066">
        <ele>763</ele>
        <time>2018-05-07T17:05:45Z</time>
      </trkpt>
      <trkpt lat="45.90158" lon="6.71072">
        <ele>763</ele>
        <time>2018-05-07T17:06:45Z</time>
      </trkpt>
      <trkpt lat="45.9016" lon="6.71076">
        <ele>763</ele>
        <time>2018-05-07T17:07:45Z</time>
      </trkpt>
      <trkpt lat="45.90164" lon="6.7108">
        <ele>764</ele>
        <time>2018-05-07T17:08:45Z</time>
      </trkpt>
      <trkpt lat="45.90169" lon="6.71085">
        <ele>763</ele>
        <time>2018-05-07T17:09:45Z</time>
      </trkpt>
      <trkpt lat="45.90176" lon="6.71091">
        <ele>761</ele>
        <time>2018-05-07T17:10:45Z</time>
      </trkpt>
      <trkpt lat="45.90182" lon="6.71095">
        <ele>760</ele>
        <time>2018-05-07T17:11:45Z</time>
      </trkpt>
      <trkpt lat="45.90192" lon="6.71099">
        <ele>758</ele>
        <time>2018-05-07T17:12:45Z</time>
      </trkpt>
      <trkpt lat="45.90225" lon="6.71112">
        <ele>753</ele>
        <time>2018-05-07T17:13:45Z</time>
      </trkpt>
      <trkpt lat="45.90228" lon="6.71112">
        <ele>752</ele>
        <time>2018-05-07T17:14:45Z</time>
      </trkpt>
      <trkpt lat="45.90232" lon="6.71114">
        <ele>752</ele>
        <time>2018-05-07T17:15:45Z</time>
      </trkpt>
      <trkpt lat="45.90237" lon="6.71117">
        <ele>751</ele>
        <time>2018-05-07T17:16:45Z</time>
      </trkpt>
      <trkpt lat="45.90239" lon="6.71121">
        <ele>752</ele>
        <time>2018-05-07T17:17:45Z</time>
      </trkpt>
      <trkpt lat="45.90241" lon="6.71124">
        <ele>752</ele>
        <time>2018-05-07T17:18:45Z</time>
      </trkpt>
      <trkpt lat="45.90243" lon="6.71129">
        <ele>752</ele>
        <time>2018-05-07T17:19:45Z</time>
      </trkpt>
      <trkpt lat="45.90245" lon="6.71133">
        <ele>751</ele>
        <time>2018-05-07T17:20:45Z</time>
      </trkpt>
      <trkpt lat="45.90246" lon="6.71137">
        <ele>751</ele>
        <time>2018-05-07T17:21:45Z</time>
      </trkpt>
      <trkpt lat="45.90246" lon="6.71141">
        <ele>751</ele>
        <time>2018-05-07T17:22:45Z</time>
      </trkpt>
      <trkpt lat="45.90246" lon="6.71149">
        <ele>750</ele>
        <time>2018-05-07T17:23:45Z</time>
      </trkpt>
      <trkpt lat="45.90245" lon="6.71155">
        <ele>749</ele>
        <time>2018-05-07T17:24:45Z</time>
      </trkpt>
      <trkpt lat="45.90243" lon="6.7116">
        <ele>748</ele>
        <time>2018-05-07T17:25:45Z</time>
      </trkpt>
      <trkpt lat="45.90242" lon="6.71164">
        <ele>748</ele>
        <time>2018-05-07T17:26:45Z</time>
      </trkpt>
      <trkpt lat="45.90238" lon="6.7117">
        <ele>751</ele>
        <time>2018-05-07T17:27:45Z</time>
      </trkpt>
      <trkpt lat="45.90233" lon="6.71181">
        <ele>754</ele>
        <time>2018-05-07T17:28:45Z</time>
      </trkpt>
      <trkpt lat="45.90229" lon="6.7119">
        <ele>756</ele>
        <time>2018-05-07T17:29:45Z</time>
      </trkpt>
      <trkpt lat="45.90222" lon="6.7122">
        <ele>758</ele>
        <time>2018-05-07T17:30:45Z</time>
      </trkpt>
      <trkpt lat="45.90216" lon="6.71253">
        <ele>757</ele>
        <time>2018-05-07T17:31:45Z</time>
      </trkpt>
      <trkpt lat="45.90216" lon="6.71268">
        <ele>758</ele>
        <time>2018-05-07T17:32:45Z</time>
      </trkpt>
      <trkpt lat="45.90217" lon="6.71276">
        <ele>758</ele>
        <time>2018-05-07T17:33:45Z</time>
      </trkpt>
      <trkpt lat="45.90218" lon="6.71284">
        <ele>758</ele>
        <time>2018-05-07T17:34:45Z</time>
      </trkpt>
      <trkpt lat="45.90219" lon="6.71287">
        <ele>758</ele>
        <time>2018-05-07T17:35:45Z</time>
      </trkpt>
      <trkpt lat="45.9022" lon="6.71289">
        <ele>758</ele>
        <time>2018-05-07T17:36:45Z</time>
      </trkpt>
      <trkpt lat="45.90221" lon="6.71291">
        <ele>757</ele>
        <time>2018-05-07T17:37:45Z</time>
      </trkpt>
      <trkpt lat="45.90222" lon="6.71292">
        <ele>757</ele>
        <time>2018-05-07T17:38:45Z</time>
      </trkpt>
      <trkpt lat="45.90225" lon="6.71294">
        <ele>757</ele>
        <time>2018-05-07T17:39:45Z</time>
      </trkpt>
      <trkpt lat="45.9023" lon="6.71298">
        <ele>756</ele>
        <time>2018-05-07T17:40:45Z</time>
      </trkpt>
      <trkpt lat="45.9024" lon="6.71306">
        <ele>755</ele>
        <time>2018-05-07T17:41:45Z</time>
      </trkpt>
      <trkpt lat="45.90248" lon="6.71314">
        <ele>754</ele>
        <time>2018-05-07T17:42:45Z</time>
      </trkpt>
      <trkpt lat="45.90265" lon="6.71328">
        <ele>744</ele>
        <time>2018-05-07T17:43:45Z</time>
      </trkpt>
      <trkpt lat="45.90273" lon="6.71335">
        <ele>752</ele>
        <time>2018-05-07T17:44:45Z</time>
      </trkpt>
      <trkpt lat="45.90288" lon="6.71345">
        <ele>751</ele>
        <time>2018-05-07T17:45:45Z</time>
      </trkpt>
      <trkpt lat="45.90298" lon="6.71353">
        <ele>751</ele>
        <time>2018-05-07T17:46:45Z</time>
      </trkpt>
      <trkpt lat="45.90302" lon="6.71355">
        <ele>750</ele>
        <time>2018-05-07T17:47:45Z</time>
      </trkpt>
      <trkpt lat="45.90307" lon="6.71358">
        <ele>750</ele>
        <time>2018-05-07T17:48:45Z</time>
      </trkpt>
      <trkpt lat="45.90312" lon="6.71358">
        <ele>749</ele>
        <time>2018-05-07T17:49:45Z</time>
      </trkpt>
      <trkpt lat="45.90316" lon="6.71358">
        <ele>749</ele>
        <time>2018-05-07T17:50:45Z</time>
      </trkpt>
      <trkpt lat="45.9032" lon="6.71356">
        <ele>748</ele>
        <time>2018-05-07T17:51:45Z</time>
      </trkpt>
      <trkpt lat="45.90327" lon="6.7135">
        <ele>745</ele>
        <time>2018-05-07T17:52:45Z</time>
      </trkpt>
      <trkpt lat="45.90333" lon="6.71345">
        <ele>742</ele>
        <time>2018-05-07T17:53:45Z</time>
      </trkpt>
      <trkpt lat="45.90336" lon="6.71343">
        <ele>740</ele>
        <time>2018-05-07T17:54:45Z</time>
      </trkpt>
      <trkpt lat="45.90338" lon="6.71341">
        <ele>740</ele>
        <time>2018-05-07T17:55:45Z</time>
      </trkpt>
      <trkpt lat="45.90342" lon="6.7134">
        <ele>740</ele>
        <time>2018-05-07T17:56:45Z</time>
      </trkpt>
      <trkpt lat="45.90346" lon="6.71339">
        <ele>741</ele>
        <time>2018-05-07T17:57:45Z</time>
      </trkpt>
      <trkpt lat="45.90349" lon="6.7134">
        <ele>742</ele>
        <time>2018-05-07T17:58:45Z</time>
      </trkpt>
      <trkpt lat="45.90367" lon="6.71343">
        <ele>745</ele>
        <time>2018-05-07T17:59:45Z</time>
      </trkpt>
      <trkpt lat="45.90375" lon="6.71344">
        <ele>746</ele>
        <time>2018-05-07T18:00:45Z</time>
      </trkpt>
      <trkpt lat="45.90381" lon="6.71344">
        <ele>746</ele>
        <time>2018-05-07T18:01:45Z</time>
      </trkpt>
      <trkpt lat="45.90399" lon="6.71339">
        <ele>743</ele>
        <time>2018-05-07T18:02:45Z</time>
      </trkpt>
      <trkpt lat="45.90506" lon="6.71304">
        <ele>712</ele>
        <time>2018-05-07T18:03:45Z</time>
      </trkpt>
      <trkpt lat="45.90519" lon="6.713">
        <ele>710</ele>
        <time>2018-05-07T18:04:45Z</time>
      </trkpt>
      <trkpt lat="45.90526" lon="6.71301">
        <ele>709</ele>
        <time>2018-05-07T18:05:45Z</time>
      </trkpt>
      <trkpt lat="45.90532" lon="6.71304">
        <ele>709</ele>
        <time>2018-05-07T18:06:45Z</time>
      </trkpt>
      <trkpt lat="45.90542" lon="6.71315">
        <ele>709</ele>
        <time>2018-05-07T18:07:45Z</time>
      </trkpt>
      <trkpt lat="45.90564" lon="6.71351">
        <ele>723</ele>
        <time>2018-05-07T18:08:45Z</time>
      </trkpt>
      <trkpt lat="45.90573" lon="6.71363">
        <ele>725</ele>
        <time>2018-05-07T18:09:45Z</time>
      </trkpt>
      <trkpt lat="45.90581" lon="6.7137">
        <ele>726</ele>
        <time>2018-05-07T18:10:45Z</time>
      </trkpt>
      <trkpt lat="45.90594" lon="6.71378">
        <ele>707</ele>
        <time>2018-05-07T18:11:45Z</time>
      </trkpt>
      <trkpt lat="45.90605" lon="6.71386">
        <ele>706</ele>
        <time>2018-05-07T18:12:45Z</time>
      </trkpt>
      <trkpt lat="45.90618" lon="6.71402">
        <ele>705</ele>
        <time>2018-05-07T18:13:45Z</time>
      </trkpt>
      <trkpt lat="45.90633" lon="6.71421">
        <ele>713</ele>
        <time>2018-05-07T18:14:45Z</time>
      </trkpt>
      <trkpt lat="45.90644" lon="6.71437">
        <ele>711</ele>
        <time>2018-05-07T18:15:45Z</time>
      </trkpt>
      <trkpt lat="45.90656" lon="6.71462">
        <ele>713</ele>
        <time>2018-05-07T18:16:45Z</time>
      </trkpt>
      <trkpt lat="45.9066" lon="6.71469">
        <ele>713</ele>
        <time>2018-05-07T18:17:45Z</time>
      </trkpt>
      <trkpt lat="45.90673" lon="6.71494">
        <ele>700</ele>
        <time>2018-05-07T18:18:45Z</time>
      </trkpt>
      <trkpt lat="45.90676" lon="6.715">
        <ele>700</ele>
        <time>2018-05-07T18:19:45Z</time>
      </trkpt>
      <trkpt lat="45.90686" lon="6.71515">
        <ele>703</ele>
        <time>2018-05-07T18:20:45Z</time>
      </trkpt>
      <trkpt lat="45.90699" lon="6.71531">
        <ele>702</ele>
        <time>2018-05-07T18:21:45Z</time>
      </trkpt>
      <trkpt lat="45.90717" lon="6.71547">
        <ele>700</ele>
        <time>2018-05-07T18:22:45Z</time>
      </trkpt>
      <trkpt lat="45.90734" lon="6.71563">
        <ele>698</ele>
        <time>2018-05-07T18:23:45Z</time>
      </trkpt>
      <trkpt lat="45.90735" lon="6.71564">
        <ele>698</ele>
        <time>2018-05-07T18:24:45Z</time>
      </trkpt>
      <trkpt lat="45.90738" lon="6.71568">
        <ele>698</ele>
        <time>2018-05-07T18:25:45Z</time>
      </trkpt>
      <trkpt lat="45.90739" lon="6.7157">
        <ele>697</ele>
        <time>2018-05-07T18:26:45Z</time>
      </trkpt>
      <trkpt lat="45.9074" lon="6.71571">
        <ele>697</ele>
        <time>2018-05-07T18:27:45Z</time>
      </trkpt>
      <trkpt lat="45.90742" lon="6.71578">
        <ele>696</ele>
        <time>2018-05-07T18:28:45Z</time>
      </trkpt>
      <trkpt lat="45.90747" lon="6.71595">
        <ele>702</ele>
        <time>2018-05-07T18:29:45Z</time>
      </trkpt>
      <trkpt lat="45.90751" lon="6.71613">
        <ele>693</ele>
        <time>2018-05-07T18:30:45Z</time>
      </trkpt>
      <trkpt lat="45.90752" lon="6.71614">
        <ele>693</ele>
        <time>2018-05-07T18:31:45Z</time>
      </trkpt>
      <trkpt lat="45.90753" lon="6.71616">
        <ele>693</ele>
        <time>2018-05-07T18:32:45Z</time>
      </trkpt>
      <trkpt lat="45.9076" lon="6.7163">
        <ele>694</ele>
        <time>2018-05-07T18:33:45Z</time>
      </trkpt>
      <trkpt lat="45.90775" lon="6.71655">
        <ele>695</ele>
        <time>2018-05-07T18:34:45Z</time>
      </trkpt>
      <trkpt lat="45.90786" lon="6.71669">
        <ele>702</ele>
        <time>2018-05-07T18:35:45Z</time>
      </trkpt>
      <trkpt lat="45.908" lon="6.71683">
        <ele>700</ele>
        <time>2018-05-07T18:36:45Z</time>
      </trkpt>
      <trkpt lat="45.90812" lon="6.71692">
        <ele>700</ele>
        <time>2018-05-07T18:37:45Z</time>
      </trkpt>
      <trkpt lat="45.90828" lon="6.717">
        <ele>699</ele>
        <time>2018-05-07T18:38:45Z</time>
      </trkpt>
      <trkpt lat="45.90835" lon="6.71707">
        <ele>689</ele>
        <time>2018-05-07T18:39:45Z</time>
      </trkpt>
      <trkpt lat="45.90839" lon="6.7172">
        <ele>690</ele>
        <time>2018-05-07T18:40:45Z</time>
      </trkpt>
      <trkpt lat="45.90843" lon="6.71735">
        <ele>692</ele>
        <time>2018-05-07T18:41:45Z</time>
      </trkpt>
      <trkpt lat="45.90846" lon="6.71745">
        <ele>693</ele>
        <time>2018-05-07T18:42:45Z</time>
      </trkpt>
      <trkpt lat="45.90847" lon="6.71748">
        <ele>693</ele>
        <time>2018-05-07T18:43:45Z</time>
      </trkpt>
      <trkpt lat="45.9085" lon="6.71751">
        <ele>697</ele>
        <time>2018-05-07T18:44:45Z</time>
      </trkpt>
      <trkpt lat="45.90852" lon="6.71755">
        <ele>697</ele>
        <time>2018-05-07T18:45:45Z</time>
      </trkpt>
      <trkpt lat="45.90853" lon="6.71757">
        <ele>697</ele>
        <time>2018-05-07T18:46:45Z</time>
      </trkpt>
      <trkpt lat="45.90863" lon="6.71762">
        <ele>697</ele>
        <time>2018-05-07T18:47:45Z</time>
      </trkpt>
      <trkpt lat="45.90869" lon="6.71763">
        <ele>696</ele>
        <time>2018-05-07T18:48:45Z</time>
      </trkpt>
      <trkpt lat="45.90876" lon="6.71762">
        <ele>696</ele>
        <time>2018-05-07T18:49:45Z</time>
      </trkpt>
      <trkpt lat="45.90892" lon="6.71758">
        <ele>693</ele>
        <time>2018-05-07T18:50:45Z</time>
      </trkpt>
      <trkpt lat="45.90909" lon="6.71752">
        <ele>688</ele>
        <time>2018-05-07T18:51:45Z</time>
      </trkpt>
      <trkpt lat="45.90911" lon="6.71752">
        <ele>688</ele>
        <time>2018-05-07T18:52:45Z</time>
      </trkpt>
      <trkpt lat="45.90923" lon="6.7175">
        <ele>685</ele>
        <time>2018-05-07T18:53:45Z</time>
      </trkpt>
      <trkpt lat="45.90931" lon="6.71752">
        <ele>684</ele>
        <time>2018-05-07T18:54:45Z</time>
      </trkpt>
      <trkpt lat="45.90937" lon="6.71756">
        <ele>684</ele>
        <time>2018-05-07T18:55:45Z</time>
      </trkpt>
      <trkpt lat="45.90943" lon="6.71766">
        <ele>684</ele>
        <time>2018-05-07T18:56:45Z</time>
      </trkpt>
      <trkpt lat="45.90952" lon="6.71782">
        <ele>684</ele>
        <time>2018-05-07T18:57:45Z</time>
      </trkpt>
      <trkpt lat="45.90961" lon="6.71798">
        <ele>684</ele>
        <time>2018-05-07T18:58:45Z</time>
      </trkpt>
      <trkpt lat="45.90974" lon="6.71819">
        <ele>684</ele>
        <time>2018-05-07T18:59:45Z</time>
      </trkpt>
      <trkpt lat="45.90991" lon="6.71845">
        <ele>686</ele>
        <time>2018-05-07T19:00:45Z</time>
      </trkpt>
      <trkpt lat="45.9101" lon="6.71871">
        <ele>682</ele>
        <time>2018-05-07T19:01:45Z</time>
      </trkpt>
      <trkpt lat="45.91026" lon="6.71895">
        <ele>683</ele>
        <time>2018-05-07T19:02:45Z</time>
      </trkpt>
      <trkpt lat="45.91027" lon="6.71896">
        <ele>683</ele>
        <time>2018-05-07T19:03:45Z</time>
      </trkpt>
      <trkpt lat="45.91032" lon="6.719">
        <ele>682</ele>
        <time>2018-05-07T19:04:45Z</time>
      </trkpt>
      <trkpt lat="45.91037" lon="6.71903">
        <ele>682</ele>
        <time>2018-05-07T19:05:45Z</time>
      </trkpt>
      <trkpt lat="45.91038" lon="6.71903">
        <ele>682</ele>
        <time>2018-05-07T19:06:45Z</time>
      </trkpt>
      <trkpt lat="45.91041" lon="6.71904">
        <ele>682</ele>
        <time>2018-05-07T19:07:45Z</time>
      </trkpt>
      <trkpt lat="45.91046" lon="6.71902">
        <ele>682</ele>
        <time>2018-05-07T19:08:45Z</time>
      </trkpt>
      <trkpt lat="45.9105" lon="6.71899">
        <ele>681</ele>
        <time>2018-05-07T19:09:45Z</time>
      </trkpt>
      <trkpt lat="45.9105" lon="6.71899">
        <ele>681</ele>
        <time>2018-05-07T19:10:45Z</time>
      </trkpt>
      <trkpt lat="45.91052" lon="6.71895">
        <ele>681</ele>
        <time>2018-05-07T19:11:45Z</time>
      </trkpt>
      <trkpt lat="45.91052" lon="6.71893">
        <ele>681</ele>
        <time>2018-05-07T19:12:45Z</time>
      </trkpt>
      <trkpt lat="45.91053" lon="6.71891">
        <ele>681</ele>
        <time>2018-05-07T19:13:45Z</time>
      </trkpt>
      <trkpt lat="45.91054" lon="6.71883">
        <ele>680</ele>
        <time>2018-05-07T19:14:45Z</time>
      </trkpt>
      <trkpt lat="45.91054" lon="6.71878">
        <ele>680</ele>
        <time>2018-05-07T19:15:45Z</time>
      </trkpt>
      <trkpt lat="45.91053" lon="6.71876">
        <ele>680</ele>
        <time>2018-05-07T19:16:45Z</time>
      </trkpt>
      <trkpt lat="45.9105" lon="6.71868">
        <ele>679</ele>
        <time>2018-05-07T19:17:45Z</time>
      </trkpt>
      <trkpt lat="45.91041" lon="6.71855">
        <ele>679</ele>
        <time>2018-05-07T19:18:45Z</time>
      </trkpt>
      <trkpt lat="45.91027" lon="6.71838">
        <ele>680</ele>
        <time>2018-05-07T19:19:45Z</time>
      </trkpt>
      <trkpt lat="45.91003" lon="6.71793">
        <ele>670</ele>
        <time>2018-05-07T19:20:45Z</time>
      </trkpt>
      <trkpt lat="45.90995" lon="6.71779">
        <ele>680</ele>
        <time>2018-05-07T19:21:45Z</time>
      </trkpt>
      <trkpt lat="45.90989" lon="6.71771">
        <ele>679</ele>
        <time>2018-05-07T19:22:45Z</time>
      </trkpt>
      <trkpt lat="45.90985" lon="6.71765">
        <ele>679</ele>
        <time>2018-05-07T19:23:45Z</time>
      </trkpt>
      <trkpt lat="45.90984" lon="6.71763">
        <ele>679</ele>
        <time>2018-05-07T19:24:45Z</time>
      </trkpt>
      <trkpt lat="45.90982" lon="6.71757">
        <ele>678</ele>
        <time>2018-05-07T19:25:45Z</time>
      </trkpt>
      <trkpt lat="45.90982" lon="6.71753">
        <ele>678</ele>
        <time>2018-05-07T19:26:45Z</time>
      </trkpt>
      <trkpt lat="45.90982" lon="6.7175">
        <ele>678</ele>
        <time>2018-05-07T19:27:45Z</time>
      </trkpt>
      <trkpt lat="45.90983" lon="6.71735">
        <ele>672</ele>
        <time>2018-05-07T19:28:45Z</time>
      </trkpt>
      <trkpt lat="45.90983" lon="6.71726">
        <ele>671</ele>
        <time>2018-05-07T19:29:45Z</time>
      </trkpt>
      <trkpt lat="45.90983" lon="6.71722">
        <ele>671</ele>
        <time>2018-05-07T19:30:45Z</time>
      </trkpt>
      <trkpt lat="45.90982" lon="6.71715">
        <ele>671</ele>
        <time>2018-05-07T19:31:45Z</time>
      </trkpt>
      <trkpt lat="45.9098" lon="6.71708">
        <ele>670</ele>
        <time>2018-05-07T19:32:45Z</time>
      </trkpt>
      <trkpt lat="45.90979" lon="6.71705">
        <ele>670</ele>
        <time>2018-05-07T19:33:45Z</time>
      </trkpt>
      <trkpt lat="45.90977" lon="6.71703">
        <ele>670</ele>
        <time>2018-05-07T19:34:45Z</time>
      </trkpt>
      <trkpt lat="45.9097" lon="6.71695">
        <ele>670</ele>
        <time>2018-05-07T19:35:45Z</time>
      </trkpt>
      <trkpt lat="45.90965" lon="6.71692">
        <ele>670</ele>
        <time>2018-05-07T19:36:45Z</time>
      </trkpt>
      <trkpt lat="45.90963" lon="6.71691">
        <ele>670</ele>
        <time>2018-05-07T19:37:45Z</time>
      </trkpt>
      <trkpt lat="45.90961" lon="6.71691">
        <ele>670</ele>
        <time>2018-05-07T19:38:45Z</time>
      </trkpt>
      <trkpt lat="45.90952" lon="6.71692">
        <ele>671</ele>
        <time>2018-05-07T19:39:45Z</time>
      </trkpt>
      <trkpt lat="45.90941" lon="6.71693">
        <ele>672</ele>
        <time>2018-05-07T19:40:45Z</time>
      </trkpt>
      <trkpt lat="45.90934" lon="6.71695">
        <ele>672</ele>
        <time>2018-05-07T19:41:45Z</time>
      </trkpt>
      <trkpt lat="45.90932" lon="6.71695">
        <ele>673</ele>
        <time>2018-05-07T19:42:45Z</time>
      </trkpt>
      <trkpt lat="45.90929" lon="6.71694">
        <ele>673</ele>
        <time>2018-05-07T19:43:45Z</time>
      </trkpt>
      <trkpt lat="45.90927" lon="6.71693">
        <ele>673</ele>
        <time>2018-05-07T19:44:45Z</time>
      </trkpt>
      <trkpt lat="45.90919" lon="6.71686">
        <ele>672</ele>
        <time>2018-05-07T19:45:45Z</time>
      </trkpt>
      <trkpt lat="45.90917" lon="6.71682">
        <ele>672</ele>
        <time>2018-05-07T19:46:45Z</time>
      </trkpt>
      <trkpt lat="45.90916" lon="6.7168">
        <ele>678</ele>
        <time>2018-05-07T19:47:45Z</time>
      </trkpt>
      <trkpt lat="45.90913" lon="6.71672">
        <ele>675</ele>
        <time>2018-05-07T19:48:45Z</time>
      </trkpt>
      <trkpt lat="45.90913" lon="6.7167">
        <ele>675</ele>
        <time>2018-05-07T19:49:45Z</time>
      </trkpt>
      <trkpt lat="45.90913" lon="6.71668">
        <ele>674</ele>
        <time>2018-05-07T19:50:45Z</time>
      </trkpt>
      <trkpt lat="45.90914" lon="6.71659">
        <ele>673</ele>
        <time>2018-05-07T19:51:45Z</time>
      </trkpt>
      <trkpt lat="45.90915" lon="6.71657">
        <ele>673</ele>
        <time>2018-05-07T19:52:45Z</time>
      </trkpt>
      <trkpt lat="45.90924" lon="6.71632">
        <ele>661</ele>
        <time>2018-05-07T19:53:45Z</time>
      </trkpt>
      <trkpt lat="45.90928" lon="6.7162">
        <ele>660</ele>
        <time>2018-05-07T19:54:45Z</time>
      </trkpt>
      <trkpt lat="45.90929" lon="6.7161">
        <ele>659</ele>
        <time>2018-05-07T19:55:45Z</time>
      </trkpt>
      <trkpt lat="45.90928" lon="6.71601">
        <ele>658</ele>
        <time>2018-05-07T19:56:45Z</time>
      </trkpt>
      <trkpt lat="45.90924" lon="6.7159">
        <ele>658</ele>
        <time>2018-05-07T19:57:45Z</time>
      </trkpt>
      <trkpt lat="45.90917" lon="6.71579">
        <ele>656</ele>
        <time>2018-05-07T19:58:45Z</time>
      </trkpt>
      <trkpt lat="45.90901" lon="6.71555">
        <ele>660</ele>
        <time>2018-05-07T19:59:45Z</time>
      </trkpt>
      <trkpt lat="45.9089" lon="6.71538">
        <ele>660</ele>
        <time>2018-05-07T20:00:45Z</time>
      </trkpt>
      <trkpt lat="45.90883" lon="6.71525">
        <ele>659</ele>
        <time>2018-05-07T20:01:45Z</time>
      </trkpt>
      <trkpt lat="45.90875" lon="6.71509">
        <ele>660</ele>
        <time>2018-05-07T20:02:45Z</time>
      </trkpt>
      <trkpt lat="45.90865" lon="6.71481">
        <ele>652</ele>
        <time>2018-05-07T20:03:45Z</time>
      </trkpt>
      <trkpt lat="45.90852" lon="6.71444">
        <ele>650</ele>
        <time>2018-05-07T20:04:45Z</time>
      </trkpt>
      <trkpt lat="45.90837" lon="6.71401">
        <ele>645</ele>
        <time>2018-05-07T20:05:45Z</time>
      </trkpt>
      <trkpt lat="45.90827" lon="6.71378">
        <ele>651</ele>
        <time>2018-05-07T20:06:45Z</time>
      </trkpt>
      <trkpt lat="45.90816" lon="6.71357">
        <ele>650</ele>
        <time>2018-05-07T20:07:45Z</time>
      </trkpt>
      <trkpt lat="45.90815" lon="6.71355">
        <ele>649</ele>
        <time>2018-05-07T20:08:45Z</time>
      </trkpt>
      <trkpt lat="45.90802" lon="6.71334">
        <ele>650</ele>
        <time>2018-05-07T20:09:45Z</time>
      </trkpt>
      <trkpt lat="45.90784" lon="6.7131">
        <ele>645</ele>
        <time>2018-05-07T20:10:45Z</time>
      </trkpt>
      <trkpt lat="45.90774" lon="6.71294">
        <ele>645</ele>
        <time>2018-05-07T20:11:45Z</time>
      </trkpt>
      <trkpt lat="45.90767" lon="6.71282">
        <ele>645</ele>
        <time>2018-05-07T20:12:45Z</time>
      </trkpt>
      <trkpt lat="45.90762" lon="6.71267">
        <ele>645</ele>
        <time>2018-05-07T20:13:45Z</time>
      </trkpt>
      <trkpt lat="45.90755" lon="6.71245">
        <ele>643</ele>
        <time>2018-05-07T20:14:45Z</time>
      </trkpt>
      <trkpt lat="45.90747" lon="6.71222">
        <ele>646</ele>
        <time>2018-05-07T20:15:45Z</time>
      </trkpt>
      <trkpt lat="45.90729" lon="6.71173">
        <ele>642</ele>
        <time>2018-05-07T20:16:45Z</time>
      </trkpt>
      <trkpt lat="45.90728" lon="6.7117">
        <ele>642</ele>
        <time>2018-05-07T20:17:45Z</time>
      </trkpt>
      <trkpt lat="45.90727" lon="6.71167">
        <ele>642</ele>
        <time>2018-05-07T20:18:45Z</time>
      </trkpt>
      <trkpt lat="45.90716" lon="6.71132">
        <ele>636</ele>
        <time>2018-05-07T20:19:45Z</time>
      </trkpt>
      <trkpt lat="45.90703" lon="6.71096">
        <ele>635</ele>
        <time>2018-05-07T20:20:45Z</time>
      </trkpt>
      <trkpt lat="45.90699" lon="6.71078">
        <ele>630</ele>
        <time>2018-05-07T20:21:45Z</time>
      </trkpt>
      <trkpt lat="45.90693" lon="6.71047">
        <ele>629</ele>
        <time>2018-05-07T20:22:45Z</time>
      </trkpt>
      <trkpt lat="45.90691" lon="6.71031">
        <ele>629</ele>
        <time>2018-05-07T20:23:45Z</time>
      </trkpt>
      <trkpt lat="45.9069" lon="6.71018">
        <ele>629</ele>
        <time>2018-05-07T20:24:45Z</time>
      </trkpt>
      <trkpt lat="45.90688" lon="6.71006">
        <ele>629</ele>
        <time>2018-05-07T20:25:45Z</time>
      </trkpt>
      <trkpt lat="45.90687" lon="6.71001">
        <ele>629</ele>
        <time>2018-05-07T20:26:45Z</time>
      </trkpt>
      <trkpt lat="45.90684" lon="6.70982">
        <ele>625</ele>
        <time>2018-05-07T20:27:45Z</time>
      </trkpt>
      <trkpt lat="45.90682" lon="6.70969">
        <ele>624</ele>
        <time>2018-05-07T20:28:45Z</time>
      </trkpt>
      <trkpt lat="45.90678" lon="6.7095">
        <ele>622</ele>
        <time>2018-05-07T20:29:45Z</time>
      </trkpt>
      <trkpt lat="45.90674" lon="6.70938">
        <ele>622</ele>
        <time>2018-05-07T20:30:45Z</time>
      </trkpt>
      <trkpt lat="45.90672" lon="6.70932">
        <ele>622</ele>
        <time>2018-05-07T20:31:45Z</time>
      </trkpt>
      <trkpt lat="45.90662" lon="6.7091">
        <ele>623</ele>
        <time>2018-05-07T20:32:45Z</time>
      </trkpt>
      <trkpt lat="45.90634" lon="6.70862">
        <ele>622</ele>
        <time>2018-05-07T20:33:45Z</time>
      </trkpt>
      <trkpt lat="45.90626" lon="6.70846">
        <ele>621</ele>
        <time>2018-05-07T20:34:45Z</time>
      </trkpt>
      <trkpt lat="45.90624" lon="6.70841">
        <ele>621</ele>
        <time>2018-05-07T20:35:45Z</time>
      </trkpt>
      <trkpt lat="45.90619" lon="6.70826">
        <ele>617</ele>
        <time>2018-05-07T20:36:45Z</time>
      </trkpt>
      <trkpt lat="45.90617" lon="6.70821">
        <ele>617</ele>
        <time>2018-05-07T20:37:45Z</time>
      </trkpt>
      <trkpt lat="45.90612" lon="6.70802">
        <ele>617</ele>
        <time>2018-05-07T20:38:45Z</time>
      </trkpt>
      <trkpt lat="45.90607" lon="6.70767">
        <ele>616</ele>
        <time>2018-05-07T20:39:45Z</time>
      </trkpt>
      <trkpt lat="45.90602" lon="6.70734">
        <ele>614</ele>
        <time>2018-05-07T20:40:45Z</time>
      </trkpt>
      <trkpt lat="45.90601" lon="6.70711">
        <ele>613</ele>
        <time>2018-05-07T20:41:45Z</time>
      </trkpt>
      <trkpt lat="45.906" lon="6.70703">
        <ele>613</ele>
        <time>2018-05-07T20:42:45Z</time>
      </trkpt>
      <trkpt lat="45.90596" lon="6.70653">
        <ele>611</ele>
        <time>2018-05-07T20:43:45Z</time>
      </trkpt>
      <trkpt lat="45.90598" lon="6.70649">
        <ele>610</ele>
        <time>2018-05-07T20:44:45Z</time>
      </trkpt>
      <trkpt lat="45.90599" lon="6.70641">
        <ele>609</ele>
        <time>2018-05-07T20:45:45Z</time>
      </trkpt>
      <trkpt lat="45.90596" lon="6.7062">
        <ele>608</ele>
        <time>2018-05-07T20:46:45Z</time>
      </trkpt>
      <trkpt lat="45.90594" lon="6.70605">
        <ele>608</ele>
        <time>2018-05-07T20:47:45Z</time>
      </trkpt>
      <trkpt lat="45.9059" lon="6.70585">
        <ele>608</ele>
        <time>2018-05-07T20:48:45Z</time>
      </trkpt>
      <trkpt lat="45.90588" lon="6.70569">
        <ele>606</ele>
        <time>2018-05-07T20:49:45Z</time>
      </trkpt>
      <trkpt lat="45.90586" lon="6.7056">
        <ele>605</ele>
        <time>2018-05-07T20:50:45Z</time>
      </trkpt>
      <trkpt lat="45.90582" lon="6.70554">
        <ele>608</ele>
        <time>2018-05-07T20:51:45Z</time>
      </trkpt>
      <trkpt lat="45.90581" lon="6.70548">
        <ele>608</ele>
        <time>2018-05-07T20:52:45Z</time>
      </trkpt>
      <trkpt lat="45.90572" lon="6.70515">
        <ele>607</ele>
        <time>2018-05-07T20:53:45Z</time>
      </trkpt>
      <trkpt lat="45.90567" lon="6.70494">
        <ele>604</ele>
        <time>2018-05-07T20:54:45Z</time>
      </trkpt>
      <trkpt lat="45.90565" lon="6.70484">
        <ele>604</ele>
        <time>2018-05-07T20:55:45Z</time>
      </trkpt>
      <trkpt lat="45.90559" lon="6.70458">
        <ele>603</ele>
        <time>2018-05-07T20:56:45Z</time>
      </trkpt>
      <trkpt lat="45.90554" lon="6.70443">
        <ele>603</ele>
        <time>2018-05-07T20:57:45Z</time>
      </trkpt>
      <trkpt lat="45.90553" lon="6.70438">
        <ele>603</ele>
        <time>2018-05-07T20:58:45Z</time>
      </trkpt>
      <trkpt lat="45.90548" lon="6.70428">
        <ele>603</ele>
        <time>2018-05-07T20:59:45Z</time>
      </trkpt>
      <trkpt lat="45.90539" lon="6.70411">
        <ele>599</ele>
        <time>2018-05-07T21:00:45Z</time>
      </trkpt>
      <trkpt lat="45.90537" lon="6.70407">
        <ele>599</ele>
        <time>2018-05-07T21:01:45Z</time>
      </trkpt>
      <trkpt lat="45.90523" lon="6.70383">
        <ele>598</ele>
        <time>2018-05-07T21:02:45Z</time>
      </trkpt>
      <trkpt lat="45.90516" lon="6.70361">
        <ele>597</ele>
        <time>2018-05-07T21:03:45Z</time>
      </trkpt>
      <trkpt lat="45.90516" lon="6.70361">
        <ele>597</ele>
        <time>2018-05-07T21:04:45Z</time>
      </trkpt>
      <trkpt lat="45.90517" lon="6.70358">
        <ele>597</ele>
        <time>2018-05-07T21:05:45Z</time>
      </trkpt>
      <trkpt lat="45.90517" lon="6.70354">
        <ele>597</ele>
        <time>2018-05-07T21:06:45Z</time>
      </trkpt>
      <trkpt lat="45.90517" lon="6.70352">
        <ele>597</ele>
        <time>2018-05-07T21:07:45Z</time>
      </trkpt>
      <trkpt lat="45.90517" lon="6.70349">
        <ele>596</ele>
        <time>2018-05-07T21:08:45Z</time>
      </trkpt>
      <trkpt lat="45.90524" lon="6.70346">
        <ele>596</ele>
        <time>2018-05-07T21:09:45Z</time>
      </trkpt>
      <trkpt lat="45.90534" lon="6.70344">
        <ele>596</ele>
        <time>2018-05-07T21:10:45Z</time>
      </trkpt>
      <trkpt lat="45.90547" lon="6.70345">
        <ele>596</ele>
        <time>2018-05-07T21:11:45Z</time>
      </trkpt>
      <trkpt lat="45.90566" lon="6.7035">
        <ele>596</ele>
        <time>2018-05-07T21:12:45Z</time>
      </trkpt>
      <trkpt lat="45.9058" lon="6.70356">
        <ele>596</ele>
        <time>2018-05-07T21:13:45Z</time>
      </trkpt>
      <trkpt lat="45.90585" lon="6.70354">
        <ele>594</ele>
        <time>2018-05-07T21:14:45Z</time>
      </trkpt>
      <trkpt lat="45.90619" lon="6.70374">
        <ele>594</ele>
        <time>2018-05-07T21:15:45Z</time>
      </trkpt>
      <trkpt lat="45.90629" lon="6.70381">
        <ele>594</ele>
        <time>2018-05-07T21:16:45Z</time>
      </trkpt>
      <trkpt lat="45.90668" lon="6.70408">
        <ele>594</ele>
        <time>2018-05-07T21:17:45Z</time>
      </trkpt>
      <trkpt lat="45.90688" lon="6.70422">
        <ele>594</ele>
        <time>2018-05-07T21:18:45Z</time>
      </trkpt>
      <trkpt lat="45.90698" lon="6.70428">
        <ele>594</ele>
        <time>2018-05-07T21:19:45Z</time>
      </trkpt>
      <trkpt lat="45.90724" lon="6.70444">
        <ele>592</ele>
        <time>2018-05-07T21:20:45Z</time>
      </trkpt>
      <trkpt lat="45.90735" lon="6.70451">
        <ele>592</ele>
        <time>2018-05-07T21:21:45Z</time>
      </trkpt>
      <trkpt lat="45.90786" lon="6.70481">
        <ele>587</ele>
        <time>2018-05-07T21:22:45Z</time>
      </trkpt>
      <trkpt lat="45.90846" lon="6.7052">
        <ele>585</ele>
        <time>2018-05-07T21:23:45Z</time>
      </trkpt>
      <trkpt lat="45.90896" lon="6.70555">
        <ele>583</ele>
        <time>2018-05-07T21:24:45Z</time>
      </trkpt>
      <trkpt lat="45.90898" lon="6.70556">
        <ele>583</ele>
        <time>2018-05-07T21:25:45Z</time>
      </trkpt>
      <trkpt lat="45.90969" lon="6.70602">
        <ele>583</ele>
        <time>2018-05-07T21:26:45Z</time>
      </trkpt>
      <trkpt lat="45.90987" lon="6.70614">
        <ele>583</ele>
        <time>2018-05-07T21:27:45Z</time>
      </trkpt>
      <trkpt lat="45.90998" lon="6.70628">
        <ele>583</ele>
        <time>2018-05-07T21:28:45Z</time>
      </trkpt>
      <trkpt lat="45.91001" lon="6.70633">
        <ele>583</ele>
        <time>2018-05-07T21:29:45Z</time>
      </trkpt>
      <trkpt lat="45.91007" lon="6.70637">
        <ele>583</ele>
        <time>2018-05-07T21:30:45Z</time>
      </trkpt>
      <trkpt lat="45.91008" lon="6.70638">
        <ele>583</ele>
        <time>2018-05-07T21:31:45Z</time>
      </trkpt>
      <trkpt lat="45.91009" lon="6.7064">
        <ele>583</ele>
        <time>2018-05-07T21:32:45Z</time>
      </trkpt>
      <trkpt lat="45.9101" lon="6.7064">
        <ele>583</ele>
        <time>2018-05-07T21:33:45Z</time>
      </trkpt>
      <trkpt lat="45.91013" lon="6.70644">
        <ele>583</ele>
        <time>2018-05-07T21:34:45Z</time>
      </trkpt>
      <trkpt lat="45.91019" lon="6.70652">
        <ele>583</ele>
        <time>2018-05-07T21:35:45Z</time>
      </trkpt>
      <trkpt lat="45.91026" lon="6.70656">
        <ele>583</ele>
        <time>2018-05-07T21:36:45Z</time>
      </trkpt>
      <trkpt lat="45.91038" lon="6.7066">
        <ele>583</ele>
        <time>2018-05-07T21:37:45Z</time>
      </trkpt>
      <trkpt lat="45.91045" lon="6.70662">
        <ele>582</ele>
        <time>2018-05-07T21:38:45Z</time>
      </trkpt>
      <trkpt lat="45.91045" lon="6.70662">
        <ele>582</ele>
        <time>2018-05-07T21:39:45Z</time>
      </trkpt>
      <trkpt lat="45.91052" lon="6.70667">
        <ele>582</ele>
        <time>2018-05-07T21:40:45Z</time>
      </trkpt>
      <trkpt lat="45.91057" lon="6.7067">
        <ele>582</ele>
        <time>2018-05-07T21:41:45Z</time>
      </trkpt>
      <trkpt lat="45.91073" lon="6.70677">
        <ele>582</ele>
        <time>2018-05-07T21:42:45Z</time>
      </trkpt>
      <trkpt lat="45.91076" lon="6.70676">
        <ele>582</ele>
        <time>2018-05-07T21:43:45Z</time>
      </trkpt>
      <trkpt lat="45.91084" lon="6.70681">
        <ele>581</ele>
        <time>2018-05-07T21:44:45Z</time>
      </trkpt>
      <trkpt lat="45.91093" lon="6.70687">
        <ele>581</ele>
        <time>2018-05-07T21:45:45Z</time>
      </trkpt>
      <trkpt lat="45.91101" lon="6.70692">
        <ele>580</ele>
        <time>2018-05-07T21:46:45Z</time>
      </trkpt>
      <trkpt lat="45.91107" lon="6.70696">
        <ele>580</ele>
        <time>2018-05-07T21:47:45Z</time>
      </trkpt>
      <trkpt lat="45.91119" lon="6.70704">
        <ele>580</ele>
        <time>2018-05-07T21:48:45Z</time>
      </trkpt>
      <trkpt lat="45.91138" lon="6.70717">
        <ele>580</ele>
        <time>2018-05-07T21:49:45Z</time>
      </trkpt>
      <trkpt lat="45.91143" lon="6.70721">
        <ele>580</ele>
        <time>2018-05-07T21:50:45Z</time>
      </trkpt>
      <trkpt lat="45.91182" lon="6.70748">
        <ele>580</ele>
        <time>2018-05-07T21:51:45Z</time>
      </trkpt>
      <trkpt lat="45.91216" lon="6.70773">
        <ele>580</ele>
        <time>2018-05-07T21:52:45Z</time>
      </trkpt>
      <trkpt lat="45.91252" lon="6.70794">
        <ele>580</ele>
        <time>2018-05-07T21:53:45Z</time>
      </trkpt>
      <trkpt lat="45.91267" lon="6.70802">
        <ele>580</ele>
        <time>2018-05-07T21:54:45Z</time>
      </trkpt>
      <trkpt lat="45.91287" lon="6.70816">
        <ele>580</ele>
        <time>2018-05-07T21:55:45Z</time>
      </trkpt>
      <trkpt lat="45.9129" lon="6.70818">
        <ele>580</ele>
        <time>2018-05-07T21:56:45Z</time>
      </trkpt>
      <trkpt lat="45.91299" lon="6.70824">
        <ele>580</ele>
        <time>2018-05-07T21:57:45Z</time>
      </trkpt>
      <trkpt lat="45.91313" lon="6.70832">
        <ele>580</ele>
        <time>2018-05-07T21:58:45Z</time>
      </trkpt>
      <trkpt lat="45.91322" lon="6.70838">
        <ele>580</ele>
        <time>2018-05-07T21:59:45Z</time>
      </trkpt>
      <trkpt lat="45.91332" lon="6.70844">
        <ele>580</ele>
        <time>2018-05-07T22:00:45Z</time>
      </trkpt>
      <trkpt lat="45.91335" lon="6.70846">
        <ele>580</ele>
        <time>2018-05-07T22:01:45Z</time>
      </trkpt>
      <trkpt lat="45.91339" lon="6.70849">
        <ele>581</ele>
        <time>2018-05-07T22:02:45Z</time>
      </trkpt>
      <trkpt lat="45.91398" lon="6.70889">
        <ele>582</ele>
        <time>2018-05-07T22:03:45Z</time>
      </trkpt>
      <trkpt lat="45.91458" lon="6.70928">
        <ele>584</ele>
        <time>2018-05-07T22:04:45Z</time>
      </trkpt>
      <trkpt lat="45.91521" lon="6.70971">
        <ele>583</ele>
        <time>2018-05-07T22:05:45Z</time>
      </trkpt>
      <trkpt lat="45.91573" lon="6.71006">
        <ele>583</ele>
        <time>2018-05-07T22:06:45Z</time>
      </trkpt>
      <trkpt lat="45.91618" lon="6.71036">
        <ele>584</ele>
        <time>2018-05-07T22:07:45Z</time>
      </trkpt>
      <trkpt lat="45.91638" lon="6.71048">
        <ele>584</ele>
        <time>2018-05-07T22:08:45Z</time>
      </trkpt>
      <trkpt lat="45.91703" lon="6.71091">
        <ele>585</ele>
        <time>2018-05-07T22:09:45Z</time>
      </trkpt>
      <trkpt lat="45.91717" lon="6.71101">
        <ele>585</ele>
        <time>2018-05-07T22:10:45Z</time>
      </trkpt>
      <trkpt lat="45.91743" lon="6.71118">
        <ele>585</ele>
        <time>2018-05-07T22:11:45Z</time>
      </trkpt>
      <trkpt lat="45.91771" lon="6.71137">
        <ele>585</ele>
        <time>2018-05-07T22:12:45Z</time>
      </trkpt>
      <trkpt lat="45.91785" lon="6.71146">
        <ele>585</ele>
        <time>2018-05-07T22:13:45Z</time>
      </trkpt>
      <trkpt lat="45.91807" lon="6.71161">
        <ele>585</ele>
        <time>2018-05-07T22:14:45Z</time>
      </trkpt>
      <trkpt lat="45.91852" lon="6.71192">
        <ele>586</ele>
        <time>2018-05-07T22:15:45Z</time>
      </trkpt>
      <trkpt lat="45.91857" lon="6.71196">
        <ele>586</ele>
        <time>2018-05-07T22:16:45Z</time>
      </trkpt>
      <trkpt lat="45.91859" lon="6.71197">
        <ele>586</ele>
        <time>2018-05-07T22:17:45Z</time>
      </trkpt>
      <trkpt lat="45.91919" lon="6.71237">
        <ele>588</ele>
        <time>2018-05-07T22:18:45Z</time>
      </trkpt>
      <trkpt lat="45.9194" lon="6.71251">
        <ele>589</ele>
        <time>2018-05-07T22:19:45Z</time>
      </trkpt>
      <trkpt lat="45.91985" lon="6.71281">
        <ele>589</ele>
        <time>2018-05-07T22:20:45Z</time>
      </trkpt>
      <trkpt lat="45.92059" lon="6.71328">
        <ele>590</ele>
        <time>2018-05-07T22:21:45Z</time>
      </trkpt>
      <trkpt lat="45.92092" lon="6.71347">
        <ele>590</ele>
        <time>2018-05-07T22:22:45Z</time>
      </trkpt>
      <trkpt lat="45.92099" lon="6.71352">
        <ele>590</ele>
        <time>2018-05-07T22:23:45Z</time>
      </trkpt>
      <trkpt lat="45.92108" lon="6.71363">
        <ele>590</ele>
        <time>2018-05-07T22:24:45Z</time>
      </trkpt>
      <trkpt lat="45.92115" lon="6.71368">
        <ele>589</ele>
        <time>2018-05-07T22:25:45Z</time>
      </trkpt>
      <trkpt lat="45.92124" lon="6.71374">
        <ele>590</ele>
        <time>2018-05-07T22:26:45Z</time>
      </trkpt>
      <trkpt lat="45.92125" lon="6.71376">
        <ele>589</ele>
        <time>2018-05-07T22:27:45Z</time>
      </trkpt>
      <trkpt lat="45.92127" lon="6.71378">
        <ele>589</ele>
        <time>2018-05-07T22:28:45Z</time>
      </trkpt>
      <trkpt lat="45.9213" lon="6.71381">
        <ele>590</ele>
        <time>2018-05-07T22:29:45Z</time>
      </trkpt>
      <trkpt lat="45.92135" lon="6.71383">
        <ele>590</ele>
        <time>2018-05-07T22:30:45Z</time>
      </trkpt>
      <trkpt lat="45.92139" lon="6.71384">
        <ele>590</ele>
        <time>2018-05-07T22:31:45Z</time>
      </trkpt>
      <trkpt lat="45.9214" lon="6.71383">
        <ele>590</ele>
        <time>2018-05-07T22:32:45Z</time>
      </trkpt>
      <trkpt lat="45.92142" lon="6.71383">
        <ele>590</ele>
        <time>2018-05-07T22:33:45Z</time>
      </trkpt>
      <trkpt lat="45.92143" lon="6.71382">
        <ele>590</ele>
        <time>2018-05-07T22:34:45Z</time>
      </trkpt>
      <trkpt lat="45.92145" lon="6.7138">
        <ele>590</ele>
        <time>2018-05-07T22:35:45Z</time>
      </trkpt>
      <trkpt lat="45.92146" lon="6.71379">
        <ele>590</ele>
        <time>2018-05-07T22:36:45Z</time>
      </trkpt>
      <trkpt lat="45.92147" lon="6.71378">
        <ele>590</ele>
        <time>2018-05-07T22:37:45Z</time>
      </trkpt>
      <trkpt lat="45.92147" lon="6.71375">
        <ele>590</ele>
        <time>2018-05-07T22:38:45Z</time>
      </trkpt>
      <trkpt lat="45.92147" lon="6.71373">
        <ele>590</ele>
        <time>2018-05-07T22:39:45Z</time>
      </trkpt>
      <trkpt lat="45.92152" lon="6.71372">
        <ele>590</ele>
        <time>2018-05-07T22:40:45Z</time>
      </trkpt>
      <trkpt lat="45.92156" lon="6.7137">
        <ele>590</ele>
        <time>2018-05-07T22:41:45Z</time>
      </trkpt>
      <trkpt lat="45.92159" lon="6.71367">
        <ele>590</ele>
        <time>2018-05-07T22:42:45Z</time>
      </trkpt>
      <trkpt lat="45.92167" lon="6.71359">
        <ele>590</ele>
        <time>2018-05-07T22:43:45Z</time>
      </trkpt>
      <trkpt lat="45.92192" lon="6.71342">
        <ele>590</ele>
        <time>2018-05-07T22:44:45Z</time>
      </trkpt>
      <trkpt lat="45.92198" lon="6.71337">
        <ele>589</ele>
        <time>2018-05-07T22:45:45Z</time>
      </trkpt>
      <trkpt lat="45.92228" lon="6.71315">
        <ele>589</ele>
        <time>2018-05-07T22:46:45Z</time>
      </trkpt>
      <trkpt lat="45.9226" lon="6.71294">
        <ele>589</ele>
        <time>2018-05-07T22:47:45Z</time>
      </trkpt>
      <trkpt lat="45.92284" lon="6.71279">
        <ele>589</ele>
        <time>2018-05-07T22:48:45Z</time>
      </trkpt>
      <trkpt lat="45.923" lon="6.7127">
        <ele>589</ele>
        <time>2018-05-07T22:49:45Z</time>
      </trkpt>
      <trkpt lat="45.92308" lon="6.71265">
        <ele>589</ele>
        <time>2018-05-07T22:50:45Z</time>
      </trkpt>
      <trkpt lat="45.92328" lon="6.71256">
        <ele>589</ele>
        <time>2018-05-07T22:51:45Z</time>
      </trkpt>
      <trkpt lat="45.92355" lon="6.71245">
        <ele>590</ele>
        <time>2018-05-07T22:52:45Z</time>
      </trkpt>
      <trkpt lat="45.92391" lon="6.71231">
        <ele>590</ele>
        <time>2018-05-07T22:53:45Z</time>
      </trkpt>
      <trkpt lat="45.92418" lon="6.71219">
        <ele>595</ele>
        <time>2018-05-07T22:54:45Z</time>
      </trkpt>
      <trkpt lat="45.9243" lon="6.71212">
        <ele>596</ele>
        <time>2018-05-07T22:55:45Z</time>
      </trkpt>
      <trkpt lat="45.92438" lon="6.71204">
        <ele>596</ele>
        <time>2018-05-07T22:56:45Z</time>
      </trkpt>
      <trkpt lat="45.92443" lon="6.71196">
        <ele>597</ele>
        <time>2018-05-07T22:57:45Z</time>
      </trkpt>
      <trkpt lat="45.92444" lon="6.71194">
        <ele>597</ele>
        <time>2018-05-07T22:58:45Z</time>
      </trkpt>
      <trkpt lat="45.92448" lon="6.71178">
        <ele>598</ele>
        <time>2018-05-07T22:59:45Z</time>
      </trkpt>
      <trkpt lat="45.92448" lon="6.7117">
        <ele>598</ele>
        <time>2018-05-07T23:00:45Z</time>
      </trkpt>
      <trkpt lat="45.92447" lon="6.71161">
        <ele>602</ele>
        <time>2018-05-07T23:01:45Z</time>
      </trkpt>
      <trkpt lat="45.92444" lon="6.71144">
        <ele>602</ele>
        <time>2018-05-07T23:02:45Z</time>
      </trkpt>
      <trkpt lat="45.92438" lon="6.7112">
        <ele>603</ele>
        <time>2018-05-07T23:03:45Z</time>
      </trkpt>
      <trkpt lat="45.92433" lon="6.71101">
        <ele>602</ele>
        <time>2018-05-07T23:04:45Z</time>
      </trkpt>
      <trkpt lat="45.92425" lon="6.71084">
        <ele>600</ele>
        <time>2018-05-07T23:05:45Z</time>
      </trkpt>
      <trkpt lat="45.9241" lon="6.7106">
        <ele>596</ele>
        <time>2018-05-07T23:06:45Z</time>
      </trkpt>
      <trkpt lat="45.92396" lon="6.71038">
        <ele>596</ele>
        <time>2018-05-07T23:07:45Z</time>
      </trkpt>
      <trkpt lat="45.92392" lon="6.71023">
        <ele>596</ele>
        <time>2018-05-07T23:08:45Z</time>
      </trkpt>
      <trkpt lat="45.92389" lon="6.71006">
        <ele>596</ele>
        <time>2018-05-07T23:09:45Z</time>
      </trkpt>
      <trkpt lat="45.92388" lon="6.70987">
        <ele>598</ele>
        <time>2018-05-07T23:10:45Z</time>
      </trkpt>
      <trkpt lat="45.92388" lon="6.70965">
        <ele>598</ele>
        <time>2018-05-07T23:11:45Z</time>
      </trkpt>
      <trkpt lat="45.92386" lon="6.70946">
        <ele>598</ele>
        <time>2018-05-07T23:12:45Z</time>
      </trkpt>
      <trkpt lat="45.92381" lon="6.70921">
        <ele>598</ele>
        <time>2018-05-07T23:13:45Z</time>
      </trkpt>
      <trkpt lat="45.92377" lon="6.70895">
        <ele>601</ele>
        <time>2018-05-07T23:14:45Z</time>
      </trkpt>
      <trkpt lat="45.92378" lon="6.70882">
        <ele>601</ele>
        <time>2018-05-07T23:15:45Z</time>
      </trkpt>
      <trkpt lat="45.92381" lon="6.7087">
        <ele>602</ele>
        <time>2018-05-07T23:16:45Z</time>
      </trkpt>
      <trkpt lat="45.92387" lon="6.7086">
        <ele>603</ele>
        <time>2018-05-07T23:17:45Z</time>
      </trkpt>
      <trkpt lat="45.92395" lon="6.70854">
        <ele>604</ele>
        <time>2018-05-07T23:18:45Z</time>
      </trkpt>
      <trkpt lat="45.92404" lon="6.70853">
        <ele>605</ele>
        <time>2018-05-07T23:19:45Z</time>
      </trkpt>
      <trkpt lat="45.92411" lon="6.70855">
        <ele>606</ele>
        <time>2018-05-07T23:20:45Z</time>
      </trkpt>
      <trkpt lat="45.92418" lon="6.70859">
        <ele>616</ele>
        <time>2018-05-07T23:21:45Z</time>
      </trkpt>
      <trkpt lat="45.92424" lon="6.70869">
        <ele>616</ele>
        <time>2018-05-07T23:22:45Z</time>
      </trkpt>
      <trkpt lat="45.9243" lon="6.70887">
        <ele>616</ele>
        <time>2018-05-07T23:23:45Z</time>
      </trkpt>
      <trkpt lat="45.92435" lon="6.70909">
        <ele>613</ele>
        <time>2018-05-07T23:24:45Z</time>
      </trkpt>
      <trkpt lat="45.92441" lon="6.70925">
        <ele>612</ele>
        <time>2018-05-07T23:25:45Z</time>
      </trkpt>
      <trkpt lat="45.9245" lon="6.70946">
        <ele>614</ele>
        <time>2018-05-07T23:26:45Z</time>
      </trkpt>
      <trkpt lat="45.92455" lon="6.70958">
        <ele>615</ele>
        <time>2018-05-07T23:27:45Z</time>
      </trkpt>
      <trkpt lat="45.9246" lon="6.70978">
        <ele>615</ele>
        <time>2018-05-07T23:28:45Z</time>
      </trkpt>
      <trkpt lat="45.92461" lon="6.70996">
        <ele>615</ele>
        <time>2018-05-07T23:29:45Z</time>
      </trkpt>
      <trkpt lat="45.92459" lon="6.71017">
        <ele>612</ele>
        <time>2018-05-07T23:30:45Z</time>
      </trkpt>
      <trkpt lat="45.92455" lon="6.71052">
        <ele>611</ele>
        <time>2018-05-07T23:31:45Z</time>
      </trkpt>
      <trkpt lat="45.92455" lon="6.71064">
        <ele>611</ele>
        <time>2018-05-07T23:32:45Z</time>
      </trkpt>
      <trkpt lat="45.92458" lon="6.71074">
        <ele>611</ele>
        <time>2018-05-07T23:33:45Z</time>
      </trkpt>
      <trkpt lat="45.92466" lon="6.71085">
        <ele>609</ele>
        <time>2018-05-07T23:34:45Z</time>
      </trkpt>
      <trkpt lat="45.92475" lon="6.71092">
        <ele>611</ele>
        <time>2018-05-07T23:35:45Z</time>
      </trkpt>
      <trkpt lat="45.92482" lon="6.71093">
        <ele>613</ele>
        <time>2018-05-07T23:36:45Z</time>
      </trkpt>
      <trkpt lat="45.9249" lon="6.71089">
        <ele>616</ele>
        <time>2018-05-07T23:37:45Z</time>
      </trkpt>
      <trkpt lat="45.92496" lon="6.71081">
        <ele>621</ele>
        <time>2018-05-07T23:38:45Z</time>
      </trkpt>
      <trkpt lat="45.925" lon="6.71071">
        <ele>619</ele>
        <time>2018-05-07T23:39:45Z</time>
      </trkpt>
      <trkpt lat="45.92501" lon="6.71059">
        <ele>632</ele>
        <time>2018-05-07T23:40:45Z</time>
      </trkpt>
      <trkpt lat="45.92501" lon="6.71034">
        <ele>633</ele>
        <time>2018-05-07T23:41:45Z</time>
      </trkpt>
      <trkpt lat="45.92501" lon="6.7102">
        <ele>632</ele>
        <time>2018-05-07T23:42:45Z</time>
      </trkpt>
      <trkpt lat="45.925" lon="6.71013">
        <ele>620</ele>
        <time>2018-05-07T23:43:45Z</time>
      </trkpt>
      <trkpt lat="45.92496" lon="6.7099">
        <ele>622</ele>
        <time>2018-05-07T23:44:45Z</time>
      </trkpt>
      <trkpt lat="45.9249" lon="6.70973">
        <ele>619</ele>
        <time>2018-05-07T23:45:45Z</time>
      </trkpt>
      <trkpt lat="45.92482" lon="6.70951">
        <ele>619</ele>
        <time>2018-05-07T23:46:45Z</time>
      </trkpt>
      <trkpt lat="45.92471" lon="6.70925">
        <ele>619</ele>
        <time>2018-05-07T23:47:45Z</time>
      </trkpt>
      <trkpt lat="45.92466" lon="6.70909">
        <ele>621</ele>
        <time>2018-05-07T23:48:45Z</time>
      </trkpt>
      <trkpt lat="45.92463" lon="6.70892">
        <ele>620</ele>
        <time>2018-05-07T23:49:45Z</time>
      </trkpt>
      <trkpt lat="45.92462" lon="6.70872">
        <ele>621</ele>
        <time>2018-05-07T23:50:45Z</time>
      </trkpt>
      <trkpt lat="45.92462" lon="6.70844">
        <ele>622</ele>
        <time>2018-05-07T23:51:45Z</time>
      </trkpt>
      <trkpt lat="45.92461" lon="6.7083">
        <ele>626</ele>
        <time>2018-05-07T23:52:45Z</time>
      </trkpt>
      <trkpt lat="45.92458" lon="6.70819">
        <ele>626</ele>
        <time>2018-05-07T23:53:45Z</time>
      </trkpt>
      <trkpt lat="45.9245" lon="6.70796">
        <ele>626</ele>
        <time>2018-05-07T23:54:45Z</time>
      </trkpt>
      <trkpt lat="45.92445" lon="6.7078">
        <ele>626</ele>
        <time>2018-05-07T23:55:45Z</time>
      </trkpt>
      <trkpt lat="45.9244" lon="6.70747">
        <ele>631</ele>
        <time>2018-05-07T23:56:45Z</time>
      </trkpt>
      <trkpt lat="45.92436" lon="6.70722">
        <ele>632</ele>
        <time>2018-05-07T23:57:45Z</time>
      </trkpt>
      <trkpt lat="45.92434" lon="6.70703">
        <ele>634</ele>
        <time>2018-05-07T23:58:45Z</time>
      </trkpt>
      <trkpt lat="45.92432" lon="6.70682">
        <ele>634</ele>
        <time>2018-05-07T23:59:45Z</time>
      </trkpt>
      <trkpt lat="45.92432" lon="6.70659">
        <ele>637</ele>
        <time>2018-05-08T00:00:45Z</time>
      </trkpt>
      <trkpt lat="45.92432" lon="6.70659">
        <ele>637</ele>
        <time>2018-05-08T00:01:45Z</time>
      </trkpt>
      <trkpt lat="45.92432" lon="6.70647">
        <ele>638</ele>
        <time>2018-05-08T00:02:45Z</time>
      </trkpt>
      <trkpt lat="45.92432" lon="6.70637">
        <ele>639</ele>
        <time>2018-05-08T00:03:45Z</time>
      </trkpt>
      <trkpt lat="45.92433" lon="6.70599">
        <ele>639</ele>
        <time>2018-05-08T00:04:45Z</time>
      </trkpt>
      <trkpt lat="45.92434" lon="6.7057">
        <ele>643</ele>
        <time>2018-05-08T00:05:45Z</time>
      </trkpt>
      <trkpt lat="45.92433" lon="6.70561">
        <ele>644</ele>
        <time>2018-05-08T00:06:45Z</time>
      </trkpt>
      <trkpt lat="45.92433" lon="6.70556">
        <ele>645</ele>
        <time>2018-05-08T00:07:45Z</time>
      </trkpt>
      <trkpt lat="45.92429" lon="6.70542">
        <ele>646</ele>
        <time>2018-05-08T00:08:45Z</time>
      </trkpt>
      <trkpt lat="45.92418" lon="6.70513">
        <ele>644</ele>
        <time>2018-05-08T00:09:45Z</time>
      </trkpt>
      <trkpt lat="45.92414" lon="6.70497">
        <ele>640</ele>
        <time>2018-05-08T00:10:45Z</time>
      </trkpt>
      <trkpt lat="45.92412" lon="6.70479">
        <ele>637</ele>
        <time>2018-05-08T00:11:45Z</time>
      </trkpt>
      <trkpt lat="45.92411" lon="6.70454">
        <ele>637</ele>
        <time>2018-05-08T00:12:45Z</time>
      </trkpt>
      <trkpt lat="45.9241" lon="6.7042">
        <ele>643</ele>
        <time>2018-05-08T00:13:45Z</time>
      </trkpt>
      <trkpt lat="45.92408" lon="6.70393">
        <ele>642</ele>
        <time>2018-05-08T00:14:45Z</time>
      </trkpt>
      <trkpt lat="45.92407" lon="6.70374">
        <ele>643</ele>
        <time>2018-05-08T00:15:45Z</time>
      </trkpt>
      <trkpt lat="45.92403" lon="6.70359">
        <ele>644</ele>
        <time>2018-05-08T00:16:45Z</time>
      </trkpt>
      <trkpt lat="45.9239" lon="6.7032">
        <ele>646</ele>
        <time>2018-05-08T00:17:45Z</time>
      </trkpt>
      <trkpt lat="45.92381" lon="6.70294">
        <ele>644</ele>
        <time>2018-05-08T00:18:45Z</time>
      </trkpt>
      <trkpt lat="45.92378" lon="6.70279">
        <ele>644</ele>
        <time>2018-05-08T00:19:45Z</time>
      </trkpt>
      <trkpt lat="45.92378" lon="6.70269">
        <ele>644</ele>
        <time>2018-05-08T00:20:45Z</time>
      </trkpt>
      <trkpt lat="45.92379" lon="6.70254">
        <ele>645</ele>
        <time>2018-05-08T00:21:45Z</time>
      </trkpt>
      <trkpt lat="45.92383" lon="6.70237">
        <ele>648</ele>
        <time>2018-05-08T00:22:45Z</time>
      </trkpt>
      <trkpt lat="45.92389" lon="6.70221">
        <ele>649</ele>
        <time>2018-05-08T00:23:45Z</time>
      </trkpt>
      <trkpt lat="45.92391" lon="6.70214">
        <ele>649</ele>
        <time>2018-05-08T00:24:45Z</time>
      </trkpt>
      <trkpt lat="45.92392" lon="6.70211">
        <ele>649</ele>
        <time>2018-05-08T00:25:45Z</time>
      </trkpt>
      <trkpt lat="45.92401" lon="6.70186">
        <ele>652</ele>
        <time>2018-05-08T00:26:45Z</time>
      </trkpt>
      <trkpt lat="45.92409" lon="6.70162">
        <ele>657</ele>
        <time>2018-05-08T00:27:45Z</time>
      </trkpt>
      <trkpt lat="45.92415" lon="6.70134">
        <ele>654</ele>
        <time>2018-05-08T00:28:45Z</time>
      </trkpt>
      <trkpt lat="45.92419" lon="6.70111">
        <ele>670</ele>
        <time>2018-05-08T00:29:45Z</time>
      </trkpt>
      <trkpt lat="45.92421" lon="6.70093">
        <ele>666</ele>
        <time>2018-05-08T00:30:45Z</time>
      </trkpt>
      <trkpt lat="45.92421" lon="6.70078">
        <ele>665</ele>
        <time>2018-05-08T00:31:45Z</time>
      </trkpt>
      <trkpt lat="45.9242" lon="6.70066">
        <ele>670</ele>
        <time>2018-05-08T00:32:45Z</time>
      </trkpt>
      <trkpt lat="45.92417" lon="6.70056">
        <ele>672</ele>
        <time>2018-05-08T00:33:45Z</time>
      </trkpt>
      <trkpt lat="45.92408" lon="6.70039">
        <ele>659</ele>
        <time>2018-05-08T00:34:45Z</time>
      </trkpt>
      <trkpt lat="45.92391" lon="6.70008">
        <ele>660</ele>
        <time>2018-05-08T00:35:45Z</time>
      </trkpt>
      <trkpt lat="45.92381" lon="6.69985">
        <ele>664</ele>
        <time>2018-05-08T00:36:45Z</time>
      </trkpt>
      <trkpt lat="45.92376" lon="6.6997">
        <ele>664</ele>
        <time>2018-05-08T00:37:45Z</time>
      </trkpt>
      <trkpt lat="45.92373" lon="6.69949">
        <ele>664</ele>
        <time>2018-05-08T00:38:45Z</time>
      </trkpt>
      <trkpt lat="45.92372" lon="6.69927">
        <ele>665</ele>
        <time>2018-05-08T00:39:45Z</time>
      </trkpt>
      <trkpt lat="45.92373" lon="6.69897">
        <ele>668</ele>
        <time>2018-05-08T00:40:45Z</time>
      </trkpt>
      <trkpt lat="45.92374" lon="6.69874">
        <ele>669</ele>
        <time>2018-05-08T00:41:45Z</time>
      </trkpt>
      <trkpt lat="45.92374" lon="6.69872">
        <ele>669</ele>
        <time>2018-05-08T00:42:45Z</time>
      </trkpt>
      <trkpt lat="45.92378" lon="6.69852">
        <ele>670</ele>
        <time>2018-05-08T00:43:45Z</time>
      </trkpt>
      <trkpt lat="45.92379" lon="6.69833">
        <ele>670</ele>
        <time>2018-05-08T00:44:45Z</time>
      </trkpt>
      <trkpt lat="45.92378" lon="6.69814">
        <ele>670</ele>
        <time>2018-05-08T00:45:45Z</time>
      </trkpt>
      <trkpt lat="45.92375" lon="6.6978">
        <ele>669</ele>
        <time>2018-05-08T00:46:45Z</time>
      </trkpt>
      <trkpt lat="45.92375" lon="6.69763">
        <ele>668</ele>
        <time>2018-05-08T00:47:45Z</time>
      </trkpt>
      <trkpt lat="45.92375" lon="6.69758">
        <ele>668</ele>
        <time>2018-05-08T00:48:45Z</time>
      </trkpt>
      <trkpt lat="45.92378" lon="6.69748">
        <ele>667</ele>
        <time>2018-05-08T00:49:45Z</time>
      </trkpt>
      <trkpt lat="45.92381" lon="6.69741">
        <ele>668</ele>
        <time>2018-05-08T00:50:45Z</time>
      </trkpt>
      <trkpt lat="45.92384" lon="6.69737">
        <ele>668</ele>
        <time>2018-05-08T00:51:45Z</time>
      </trkpt>
      <trkpt lat="45.92386" lon="6.69735">
        <ele>669</ele>
        <time>2018-05-08T00:52:45Z</time>
      </trkpt>
      <trkpt lat="45.9239" lon="6.69733">
        <ele>669</ele>
        <time>2018-05-08T00:53:45Z</time>
      </trkpt>
      <trkpt lat="45.92404" lon="6.69731">
        <ele>672</ele>
        <time>2018-05-08T00:54:45Z</time>
      </trkpt>
      <trkpt lat="45.92404" lon="6.69731">
        <ele>672</ele>
        <time>2018-05-08T00:55:45Z</time>
      </trkpt>
      <trkpt lat="45.92402" lon="6.69738">
        <ele>673</ele>
        <time>2018-05-08T00:56:45Z</time>
      </trkpt>
      <trkpt lat="45.924" lon="6.69755">
        <ele>674</ele>
        <time>2018-05-08T00:57:45Z</time>
      </trkpt>
      <trkpt lat="45.92399" lon="6.69775">
        <ele>673</ele>
        <time>2018-05-08T00:58:45Z</time>
      </trkpt>
      <trkpt lat="45.92402" lon="6.69799">
        <ele>672</ele>
        <time>2018-05-08T00:59:45Z</time>
      </trkpt>
      <trkpt lat="45.92405" lon="6.69814">
        <ele>674</ele>
        <time>2018-05-08T01:00:45Z</time>
      </trkpt>
      <trkpt lat="45.92411" lon="6.69838">
        <ele>678</ele>
        <time>2018-05-08T01:01:45Z</time>
      </trkpt>
      <trkpt lat="45.92418" lon="6.69862">
        <ele>686</ele>
        <time>2018-05-08T01:02:45Z</time>
      </trkpt>
      <trkpt lat="45.92424" lon="6.6988">
        <ele>687</ele>
        <time>2018-05-08T01:03:45Z</time>
      </trkpt>
      <trkpt lat="45.92429" lon="6.69894">
        <ele>686</ele>
        <time>2018-05-08T01:04:45Z</time>
      </trkpt>
      <trkpt lat="45.92438" lon="6.69905">
        <ele>686</ele>
        <time>2018-05-08T01:05:45Z</time>
      </trkpt>
      <trkpt lat="45.92461" lon="6.69928">
        <ele>686</ele>
        <time>2018-05-08T01:06:45Z</time>
      </trkpt>
      <trkpt lat="45.92486" lon="6.69951">
        <ele>688</ele>
        <time>2018-05-08T01:07:45Z</time>
      </trkpt>
      <trkpt lat="45.92498" lon="6.69964">
        <ele>688</ele>
        <time>2018-05-08T01:08:45Z</time>
      </trkpt>
      <trkpt lat="45.92505" lon="6.69977">
        <ele>704</ele>
        <time>2018-05-08T01:09:45Z</time>
      </trkpt>
      <trkpt lat="45.92508" lon="6.69991">
        <ele>700</ele>
        <time>2018-05-08T01:10:45Z</time>
      </trkpt>
      <trkpt lat="45.9251" lon="6.70008">
        <ele>699</ele>
        <time>2018-05-08T01:11:45Z</time>
      </trkpt>
      <trkpt lat="45.92508" lon="6.70029">
        <ele>703</ele>
        <time>2018-05-08T01:12:45Z</time>
      </trkpt>
      <trkpt lat="45.92507" lon="6.70053">
        <ele>703</ele>
        <time>2018-05-08T01:13:45Z</time>
      </trkpt>
      <trkpt lat="45.92508" lon="6.70082">
        <ele>697</ele>
        <time>2018-05-08T01:14:45Z</time>
      </trkpt>
      <trkpt lat="45.92512" lon="6.70119">
        <ele>703</ele>
        <time>2018-05-08T01:15:45Z</time>
      </trkpt>
      <trkpt lat="45.92516" lon="6.70147">
        <ele>702</ele>
        <time>2018-05-08T01:16:45Z</time>
      </trkpt>
      <trkpt lat="45.92521" lon="6.70166">
        <ele>702</ele>
        <time>2018-05-08T01:17:45Z</time>
      </trkpt>
      <trkpt lat="45.92523" lon="6.70172">
        <ele>700</ele>
        <time>2018-05-08T01:18:45Z</time>
      </trkpt>
      <trkpt lat="45.92533" lon="6.70202">
        <ele>702</ele>
        <time>2018-05-08T01:19:45Z</time>
      </trkpt>
      <trkpt lat="45.92537" lon="6.70219">
        <ele>702</ele>
        <time>2018-05-08T01:20:45Z</time>
      </trkpt>
      <trkpt lat="45.9254" lon="6.7024">
        <ele>701</ele>
        <time>2018-05-08T01:21:45Z</time>
      </trkpt>
      <trkpt lat="45.92544" lon="6.7026">
        <ele>698</ele>
        <time>2018-05-08T01:22:45Z</time>
      </trkpt>
      <trkpt lat="45.92551" lon="6.70282">
        <ele>698</ele>
        <time>2018-05-08T01:23:45Z</time>
      </trkpt>
      <trkpt lat="45.92553" lon="6.70296">
        <ele>698</ele>
        <time>2018-05-08T01:24:45Z</time>
      </trkpt>
      <trkpt lat="45.92555" lon="6.703">
        <ele>698</ele>
        <time>2018-05-08T01:25:45Z</time>
      </trkpt>
      <trkpt lat="45.92559" lon="6.70323">
        <ele>699</ele>
        <time>2018-05-08T01:26:45Z</time>
      </trkpt>
      <trkpt lat="45.92563" lon="6.70349">
        <ele>696</ele>
        <time>2018-05-08T01:27:45Z</time>
      </trkpt>
      <trkpt lat="45.92568" lon="6.70364">
        <ele>695</ele>
        <time>2018-05-08T01:28:45Z</time>
      </trkpt>
      <trkpt lat="45.92573" lon="6.70373">
        <ele>695</ele>
        <time>2018-05-08T01:29:45Z</time>
      </trkpt>
      <trkpt lat="45.92585" lon="6.7039">
        <ele>709</ele>
        <time>2018-05-08T01:30:45Z</time>
      </trkpt>
      <trkpt lat="45.92605" lon="6.70414">
        <ele>709</ele>
        <time>2018-05-08T01:31:45Z</time>
      </trkpt>
      <trkpt lat="45.92609" lon="6.70419">
        <ele>706</ele>
        <time>2018-05-08T01:32:45Z</time>
      </trkpt>
      <trkpt lat="45.92613" lon="6.70427">
        <ele>707</ele>
        <time>2018-05-08T01:33:45Z</time>
      </trkpt>
      <trkpt lat="45.92616" lon="6.70437">
        <ele>707</ele>
        <time>2018-05-08T01:34:45Z</time>
      </trkpt>
      <trkpt lat="45.92618" lon="6.7045">
        <ele>707</ele>
        <time>2018-05-08T01:35:45Z</time>
      </trkpt>
      <trkpt lat="45.92619" lon="6.70452">
        <ele>707</ele>
        <time>2018-05-08T01:36:45Z</time>
      </trkpt>
      <trkpt lat="45.92624" lon="6.7048">
        <ele>707</ele>
        <time>2018-05-08T01:37:45Z</time>
      </trkpt>
      <trkpt lat="45.9263" lon="6.70503">
        <ele>702</ele>
        <time>2018-05-08T01:38:45Z</time>
      </trkpt>
      <trkpt lat="45.92635" lon="6.70519">
        <ele>702</ele>
        <time>2018-05-08T01:39:45Z</time>
      </trkpt>
      <trkpt lat="45.92642" lon="6.70535">
        <ele>702</ele>
        <time>2018-05-08T01:40:45Z</time>
      </trkpt>
      <trkpt lat="45.92649" lon="6.70549">
        <ele>702</ele>
        <time>2018-05-08T01:41:45Z</time>
      </trkpt>
      <trkpt lat="45.92651" lon="6.70551">
        <ele>702</ele>
        <time>2018-05-08T01:42:45Z</time>
      </trkpt>
      <trkpt lat="45.92657" lon="6.70558">
        <ele>702</ele>
        <time>2018-05-08T01:43:45Z</time>
      </trkpt>
      <trkpt lat="45.92666" lon="6.70565">
        <ele>703</ele>
        <time>2018-05-08T01:44:45Z</time>
      </trkpt>
      <trkpt lat="45.92678" lon="6.70576">
        <ele>713</ele>
        <time>2018-05-08T01:45:45Z</time>
      </trkpt>
      <trkpt lat="45.92685" lon="6.70584">
        <ele>712</ele>
        <time>2018-05-08T01:46:45Z</time>
      </trkpt>
      <trkpt lat="45.92691" lon="6.70593">
        <ele>714</ele>
        <time>2018-05-08T01:47:45Z</time>
      </trkpt>
      <trkpt lat="45.92698" lon="6.706">
        <ele>715</ele>
        <time>2018-05-08T01:48:45Z</time>
      </trkpt>
      <trkpt lat="45.92703" lon="6.70612">
        <ele>716</ele>
        <time>2018-05-08T01:49:45Z</time>
      </trkpt>
      <trkpt lat="45.92715" lon="6.7064">
        <ele>717</ele>
        <time>2018-05-08T01:50:45Z</time>
      </trkpt>
      <trkpt lat="45.92724" lon="6.70661">
        <ele>720</ele>
        <time>2018-05-08T01:51:45Z</time>
      </trkpt>
      <trkpt lat="45.9273" lon="6.70686">
        <ele>717</ele>
        <time>2018-05-08T01:52:45Z</time>
      </trkpt>
      <trkpt lat="45.92738" lon="6.70725">
        <ele>716</ele>
        <time>2018-05-08T01:53:45Z</time>
      </trkpt>
      <trkpt lat="45.92746" lon="6.70765">
        <ele>714</ele>
        <time>2018-05-08T01:54:45Z</time>
      </trkpt>
      <trkpt lat="45.92751" lon="6.70782">
        <ele>728</ele>
        <time>2018-05-08T01:55:45Z</time>
      </trkpt>
      <trkpt lat="45.92757" lon="6.708">
        <ele>727</ele>
        <time>2018-05-08T01:56:45Z</time>
      </trkpt>
      <trkpt lat="45.92763" lon="6.70818">
        <ele>724</ele>
        <time>2018-05-08T01:57:45Z</time>
      </trkpt>
      <trkpt lat="45.92773" lon="6.70839">
        <ele>721</ele>
        <time>2018-05-08T01:58:45Z</time>
      </trkpt>
      <trkpt lat="45.92782" lon="6.70859">
        <ele>724</ele>
        <time>2018-05-08T01:59:45Z</time>
      </trkpt>
      <trkpt lat="45.92791" lon="6.70878">
        <ele>726</ele>
        <time>2018-05-08T02:00:45Z</time>
      </trkpt>
      <trkpt lat="45.92799" lon="6.70898">
        <ele>727</ele>
        <time>2018-05-08T02:01:45Z</time>
      </trkpt>
      <trkpt lat="45.92813" lon="6.70938">
        <ele>726</ele>
        <time>2018-05-08T02:02:45Z</time>
      </trkpt>
      <trkpt lat="45.92826" lon="6.70976">
        <ele>726</ele>
        <time>2018-05-08T02:03:45Z</time>
      </trkpt>
      <trkpt lat="45.92834" lon="6.71003">
        <ele>736</ele>
        <time>2018-05-08T02:04:45Z</time>
      </trkpt>
      <trkpt lat="45.92846" lon="6.71043">
        <ele>740</ele>
        <time>2018-05-08T02:05:45Z</time>
      </trkpt>
      <trkpt lat="45.92857" lon="6.7108">
        <ele>738</ele>
        <time>2018-05-08T02:06:45Z</time>
      </trkpt>
      <trkpt lat="45.92864" lon="6.71099">
        <ele>735</ele>
        <time>2018-05-08T02:07:45Z</time>
      </trkpt>
      <trkpt lat="45.92871" lon="6.71124">
        <ele>736</ele>
        <time>2018-05-08T02:08:45Z</time>
      </trkpt>
      <trkpt lat="45.92878" lon="6.71144">
        <ele>736</ele>
        <time>2018-05-08T02:09:45Z</time>
      </trkpt>
      <trkpt lat="45.92885" lon="6.71156">
        <ele>738</ele>
        <time>2018-05-08T02:10:45Z</time>
      </trkpt>
      <trkpt lat="45.92891" lon="6.71166">
        <ele>739</ele>
        <time>2018-05-08T02:11:45Z</time>
      </trkpt>
      <trkpt lat="45.92903" lon="6.71179">
        <ele>735</ele>
        <time>2018-05-08T02:12:45Z</time>
      </trkpt>
      <trkpt lat="45.92912" lon="6.71192">
        <ele>733</ele>
        <time>2018-05-08T02:13:45Z</time>
      </trkpt>
      <trkpt lat="45.92919" lon="6.71207">
        <ele>745</ele>
        <time>2018-05-08T02:14:45Z</time>
      </trkpt>
      <trkpt lat="45.92928" lon="6.71226">
        <ele>742</ele>
        <time>2018-05-08T02:15:45Z</time>
      </trkpt>
      <trkpt lat="45.92939" lon="6.71252">
        <ele>733</ele>
        <time>2018-05-08T02:16:45Z</time>
      </trkpt>
      <trkpt lat="45.92945" lon="6.7126">
        <ele>734</ele>
        <time>2018-05-08T02:17:45Z</time>
      </trkpt>
      <trkpt lat="45.92955" lon="6.71271">
        <ele>735</ele>
        <time>2018-05-08T02:18:45Z</time>
      </trkpt>
      <trkpt lat="45.92967" lon="6.71279">
        <ele>736</ele>
        <time>2018-05-08T02:19:45Z</time>
      </trkpt>
      <trkpt lat="45.92975" lon="6.71285">
        <ele>737</ele>
        <time>2018-05-08T02:20:45Z</time>
      </trkpt>
      <trkpt lat="45.92989" lon="6.71296">
        <ele>737</ele>
        <time>2018-05-08T02:21:45Z</time>
      </trkpt>
      <trkpt lat="45.93" lon="6.71308">
        <ele>736</ele>
        <time>2018-05-08T02:22:45Z</time>
      </trkpt>
      <trkpt lat="45.93012" lon="6.71323">
        <ele>744</ele>
        <time>2018-05-08T02:23:45Z</time>
      </trkpt>
      <trkpt lat="45.93024" lon="6.71334">
        <ele>739</ele>
        <time>2018-05-08T02:24:45Z</time>
      </trkpt>
      <trkpt lat="45.93037" lon="6.71343">
        <ele>740</ele>
        <time>2018-05-08T02:25:45Z</time>
      </trkpt>
      <trkpt lat="45.9306" lon="6.71356">
        <ele>742</ele>
        <time>2018-05-08T02:26:45Z</time>
      </trkpt>
      <trkpt lat="45.93073" lon="6.71364">
        <ele>742</ele>
        <time>2018-05-08T02:27:45Z</time>
      </trkpt>
      <trkpt lat="45.93083" lon="6.71372">
        <ele>742</ele>
        <time>2018-05-08T02:28:45Z</time>
      </trkpt>
      <trkpt lat="45.93092" lon="6.71382">
        <ele>751</ele>
        <time>2018-05-08T02:29:45Z</time>
      </trkpt>
      <trkpt lat="45.93103" lon="6.71399">
        <ele>750</ele>
        <time>2018-05-08T02:30:45Z</time>
      </trkpt>
      <trkpt lat="45.93119" lon="6.71423">
        <ele>747</ele>
        <time>2018-05-08T02:31:45Z</time>
      </trkpt>
      <trkpt lat="45.93132" lon="6.71444">
        <ele>748</ele>
        <time>2018-05-08T02:32:45Z</time>
      </trkpt>
      <trkpt lat="45.93134" lon="6.71446">
        <ele>748</ele>
        <time>2018-05-08T02:33:45Z</time>
      </trkpt>
      <trkpt lat="45.93135" lon="6.71449">
        <ele>748</ele>
        <time>2018-05-08T02:34:45Z</time>
      </trkpt>
      <trkpt lat="45.93149" lon="6.71472">
        <ele>749</ele>
        <time>2018-05-08T02:35:45Z</time>
      </trkpt>
      <trkpt lat="45.93154" lon="6.71483">
        <ele>749</ele>
        <time>2018-05-08T02:36:45Z</time>
      </trkpt>
      <trkpt lat="45.93157" lon="6.71495">
        <ele>749</ele>
        <time>2018-05-08T02:37:45Z</time>
      </trkpt>
      <trkpt lat="45.93159" lon="6.7151">
        <ele>749</ele>
        <time>2018-05-08T02:38:45Z</time>
      </trkpt>
      <trkpt lat="45.93159" lon="6.71529">
        <ele>748</ele>
        <time>2018-05-08T02:39:45Z</time>
      </trkpt>
      <trkpt lat="45.93157" lon="6.71559">
        <ele>750</ele>
        <time>2018-05-08T02:40:45Z</time>
      </trkpt>
      <trkpt lat="45.93155" lon="6.71582">
        <ele>751</ele>
        <time>2018-05-08T02:41:45Z</time>
      </trkpt>
      <trkpt lat="45.93155" lon="6.71598">
        <ele>748</ele>
        <time>2018-05-08T02:42:45Z</time>
      </trkpt>
      <trkpt lat="45.93155" lon="6.71601">
        <ele>748</ele>
        <time>2018-05-08T02:43:45Z</time>
      </trkpt>
      <trkpt lat="45.93154" lon="6.71639">
        <ele>745</ele>
        <time>2018-05-08T02:44:45Z</time>
      </trkpt>
      <trkpt lat="45.93157" lon="6.71646">
        <ele>745</ele>
        <time>2018-05-08T02:45:45Z</time>
      </trkpt>
      <trkpt lat="45.93161" lon="6.71653">
        <ele>746</ele>
        <time>2018-05-08T02:46:45Z</time>
      </trkpt>
      <trkpt lat="45.93166" lon="6.71658">
        <ele>746</ele>
        <time>2018-05-08T02:47:45Z</time>
      </trkpt>
      <trkpt lat="45.93182" lon="6.71666">
        <ele>752</ele>
        <time>2018-05-08T02:48:45Z</time>
      </trkpt>
      <trkpt lat="45.93192" lon="6.71671">
        <ele>748</ele>
        <time>2018-05-08T02:49:45Z</time>
      </trkpt>
      <trkpt lat="45.93194" lon="6.71673">
        <ele>748</ele>
        <time>2018-05-08T02:50:45Z</time>
      </trkpt>
      <trkpt lat="45.93211" lon="6.71684">
        <ele>749</ele>
        <time>2018-05-08T02:51:45Z</time>
      </trkpt>
      <trkpt lat="45.93235" lon="6.71702">
        <ele>750</ele>
        <time>2018-05-08T02:52:45Z</time>
      </trkpt>
      <trkpt lat="45.93243" lon="6.71708">
        <ele>750</ele>
        <time>2018-05-08T02:53:45Z</time>
      </trkpt>
      <trkpt lat="45.93244" lon="6.71709">
        <ele>750</ele>
        <time>2018-05-08T02:54:45Z</time>
      </trkpt>
      <trkpt lat="45.93249" lon="6.71712">
        <ele>750</ele>
        <time>2018-05-08T02:55:45Z</time>
      </trkpt>
      <trkpt lat="45.93252" lon="6.71715">
        <ele>757</ele>
        <time>2018-05-08T02:56:45Z</time>
      </trkpt>
      <trkpt lat="45.93254" lon="6.71721">
        <ele>757</ele>
        <time>2018-05-08T02:57:45Z</time>
      </trkpt>
      <trkpt lat="45.93255" lon="6.71723">
        <ele>757</ele>
        <time>2018-05-08T02:58:45Z</time>
      </trkpt>
      <trkpt lat="45.93257" lon="6.71733">
        <ele>756</ele>
        <time>2018-05-08T02:59:45Z</time>
      </trkpt>
      <trkpt lat="45.93263" lon="6.71761">
        <ele>754</ele>
        <time>2018-05-08T03:00:45Z</time>
      </trkpt>
      <trkpt lat="45.9327" lon="6.71789">
        <ele>753</ele>
        <time>2018-05-08T03:01:45Z</time>
      </trkpt>
      <trkpt lat="45.9328" lon="6.71819">
        <ele>752</ele>
        <time>2018-05-08T03:02:45Z</time>
      </trkpt>
      <trkpt lat="45.9329" lon="6.71846">
        <ele>742</ele>
        <time>2018-05-08T03:03:45Z</time>
      </trkpt>
      <trkpt lat="45.93298" lon="6.71869">
        <ele>741</ele>
        <time>2018-05-08T03:04:45Z</time>
      </trkpt>
      <trkpt lat="45.93305" lon="6.71891">
        <ele>740</ele>
        <time>2018-05-08T03:05:45Z</time>
      </trkpt>
      <trkpt lat="45.93309" lon="6.71903">
        <ele>741</ele>
        <time>2018-05-08T03:06:45Z</time>
      </trkpt>
      <trkpt lat="45.93316" lon="6.71912">
        <ele>744</ele>
        <time>2018-05-08T03:07:45Z</time>
      </trkpt>
      <trkpt lat="45.93325" lon="6.71918">
        <ele>742</ele>
        <time>2018-05-08T03:08:45Z</time>
      </trkpt>
      <trkpt lat="45.93337" lon="6.71923">
        <ele>754</ele>
        <time>2018-05-08T03:09:45Z</time>
      </trkpt>
      <trkpt lat="45.93351" lon="6.71929">
        <ele>757</ele>
        <time>2018-05-08T03:10:45Z</time>
      </trkpt>
      <trkpt lat="45.93355" lon="6.71932">
        <ele>757</ele>
        <time>2018-05-08T03:11:45Z</time>
      </trkpt>
      <trkpt lat="45.93358" lon="6.71935">
        <ele>758</ele>
        <time>2018-05-08T03:12:45Z</time>
      </trkpt>
      <trkpt lat="45.93363" lon="6.71945">
        <ele>758</ele>
        <time>2018-05-08T03:13:45Z</time>
      </trkpt>
      <trkpt lat="45.93371" lon="6.71967">
        <ele>757</ele>
        <time>2018-05-08T03:14:45Z</time>
      </trkpt>
      <trkpt lat="45.93381" lon="6.71991">
        <ele>757</ele>
        <time>2018-05-08T03:15:45Z</time>
      </trkpt>
      <trkpt lat="45.93387" lon="6.72006">
        <ele>748</ele>
        <time>2018-05-08T03:16:45Z</time>
      </trkpt>
      <trkpt lat="45.93395" lon="6.7202">
        <ele>749</ele>
        <time>2018-05-08T03:17:45Z</time>
      </trkpt>
      <trkpt lat="45.93405" lon="6.72029">
        <ele>750</ele>
        <time>2018-05-08T03:18:45Z</time>
      </trkpt>
      <trkpt lat="45.93418" lon="6.72038">
        <ele>771</ele>
        <time>2018-05-08T03:19:45Z</time>
      </trkpt>
      <trkpt lat="45.93431" lon="6.72047">
        <ele>771</ele>
        <time>2018-05-08T03:20:45Z</time>
      </trkpt>
      <trkpt lat="45.93437" lon="6.72054">
        <ele>771</ele>
        <time>2018-05-08T03:21:45Z</time>
      </trkpt>
      <trkpt lat="45.93441" lon="6.72063">
        <ele>770</ele>
        <time>2018-05-08T03:22:45Z</time>
      </trkpt>
      <trkpt lat="45.93445" lon="6.72077">
        <ele>770</ele>
        <time>2018-05-08T03:23:45Z</time>
      </trkpt>
      <trkpt lat="45.93445" lon="6.7209">
        <ele>763</ele>
        <time>2018-05-08T03:24:45Z</time>
      </trkpt>
      <trkpt lat="45.93444" lon="6.72104">
        <ele>763</ele>
        <time>2018-05-08T03:25:45Z</time>
      </trkpt>
      <trkpt lat="45.93443" lon="6.72136">
        <ele>761</ele>
        <time>2018-05-08T03:26:45Z</time>
      </trkpt>
      <trkpt lat="45.93441" lon="6.72162">
        <ele>758</ele>
        <time>2018-05-08T03:27:45Z</time>
      </trkpt>
      <trkpt lat="45.93442" lon="6.72181">
        <ele>756</ele>
        <time>2018-05-08T03:28:45Z</time>
      </trkpt>
      <trkpt lat="45.93445" lon="6.72195">
        <ele>757</ele>
        <time>2018-05-08T03:29:45Z</time>
      </trkpt>
      <trkpt lat="45.9345" lon="6.72209">
        <ele>758</ele>
        <time>2018-05-08T03:30:45Z</time>
      </trkpt>
      <trkpt lat="45.93459" lon="6.72227">
        <ele>759</ele>
        <time>2018-05-08T03:31:45Z</time>
      </trkpt>
      <trkpt lat="45.93474" lon="6.72252">
        <ele>761</ele>
        <time>2018-05-08T03:32:45Z</time>
      </trkpt>
      <trkpt lat="45.93482" lon="6.72267">
        <ele>762</ele>
        <time>2018-05-08T03:33:45Z</time>
      </trkpt>
      <trkpt lat="45.93487" lon="6.72278">
        <ele>761</ele>
        <time>2018-05-08T03:34:45Z</time>
      </trkpt>
      <trkpt lat="45.9349" lon="6.72289">
        <ele>760</ele>
        <time>2018-05-08T03:35:45Z</time>
      </trkpt>
      <trkpt lat="45.93491" lon="6.72308">
        <ele>760</ele>
        <time>2018-05-08T03:36:45Z</time>
      </trkpt>
      <trkpt lat="45.93492" lon="6.72328">
        <ele>762</ele>
        <time>2018-05-08T03:37:45Z</time>
      </trkpt>
      <trkpt lat="45.93495" lon="6.72345">
        <ele>761</ele>
        <time>2018-05-08T03:38:45Z</time>
      </trkpt>
      <trkpt lat="45.93499" lon="6.72371">
        <ele>759</ele>
        <time>2018-05-08T03:39:45Z</time>
      </trkpt>
      <trkpt lat="45.93501" lon="6.72384">
        <ele>775</ele>
        <time>2018-05-08T03:40:45Z</time>
      </trkpt>
      <trkpt lat="45.935" lon="6.72401">
        <ele>774</ele>
        <time>2018-05-08T03:41:45Z</time>
      </trkpt>
      <trkpt lat="45.93498" lon="6.7241">
        <ele>765</ele>
        <time>2018-05-08T03:42:45Z</time>
      </trkpt>
      <trkpt lat="45.93496" lon="6.72416">
        <ele>767</ele>
        <time>2018-05-08T03:43:45Z</time>
      </trkpt>
      <trkpt lat="45.93491" lon="6.72434">
        <ele>763</ele>
        <time>2018-05-08T03:44:45Z</time>
      </trkpt>
      <trkpt lat="45.9349" lon="6.72445">
        <ele>762</ele>
        <time>2018-05-08T03:45:45Z</time>
      </trkpt>
      <trkpt lat="45.93488" lon="6.72473">
        <ele>763</ele>
        <time>2018-05-08T03:46:45Z</time>
      </trkpt>
      <trkpt lat="45.93483" lon="6.72517">
        <ele>765</ele>
        <time>2018-05-08T03:47:45Z</time>
      </trkpt>
      <trkpt lat="45.93481" lon="6.72543">
        <ele>764</ele>
        <time>2018-05-08T03:48:45Z</time>
      </trkpt>
      <trkpt lat="45.93481" lon="6.72556">
        <ele>765</ele>
        <time>2018-05-08T03:49:45Z</time>
      </trkpt>
      <trkpt lat="45.93483" lon="6.72569">
        <ele>767</ele>
        <time>2018-05-08T03:50:45Z</time>
      </trkpt>
      <trkpt lat="45.93488" lon="6.72596">
        <ele>771</ele>
        <time>2018-05-08T03:51:45Z</time>
      </trkpt>
      <trkpt lat="45.93491" lon="6.72615">
        <ele>770</ele>
        <time>2018-05-08T03:52:45Z</time>
      </trkpt>
      <trkpt lat="45.9349" lon="6.72627">
        <ele>771</ele>
        <time>2018-05-08T03:53:45Z</time>
      </trkpt>
      <trkpt lat="45.93487" lon="6.72641">
        <ele>772</ele>
        <time>2018-05-08T03:54:45Z</time>
      </trkpt>
      <trkpt lat="45.93482" lon="6.72655">
        <ele>773</ele>
        <time>2018-05-08T03:55:45Z</time>
      </trkpt>
      <trkpt lat="45.93469" lon="6.72679">
        <ele>777</ele>
        <time>2018-05-08T03:56:45Z</time>
      </trkpt>
      <trkpt lat="45.93452" lon="6.72707">
        <ele>777</ele>
        <time>2018-05-08T03:57:45Z</time>
      </trkpt>
      <trkpt lat="45.93432" lon="6.72744">
        <ele>777</ele>
        <time>2018-05-08T03:58:45Z</time>
      </trkpt>
      <trkpt lat="45.93423" lon="6.72759">
        <ele>779</ele>
        <time>2018-05-08T03:59:45Z</time>
      </trkpt>
      <trkpt lat="45.93413" lon="6.72774">
        <ele>770</ele>
        <time>2018-05-08T04:00:45Z</time>
      </trkpt>
      <trkpt lat="45.93409" lon="6.72782">
        <ele>769</ele>
        <time>2018-05-08T04:01:45Z</time>
      </trkpt>
      <trkpt lat="45.93405" lon="6.72794">
        <ele>769</ele>
        <time>2018-05-08T04:02:45Z</time>
      </trkpt>
      <trkpt lat="45.93404" lon="6.7281">
        <ele>770</ele>
        <time>2018-05-08T04:03:45Z</time>
      </trkpt>
      <trkpt lat="45.93406" lon="6.72825">
        <ele>773</ele>
        <time>2018-05-08T04:04:45Z</time>
      </trkpt>
      <trkpt lat="45.93411" lon="6.72837">
        <ele>775</ele>
        <time>2018-05-08T04:05:45Z</time>
      </trkpt>
      <trkpt lat="45.93419" lon="6.72846">
        <ele>780</ele>
        <time>2018-05-08T04:06:45Z</time>
      </trkpt>
      <trkpt lat="45.93429" lon="6.72855">
        <ele>780</ele>
        <time>2018-05-08T04:07:45Z</time>
      </trkpt>
      <trkpt lat="45.9344" lon="6.7286">
        <ele>781</ele>
        <time>2018-05-08T04:08:45Z</time>
      </trkpt>
      <trkpt lat="45.93458" lon="6.72864">
        <ele>783</ele>
        <time>2018-05-08T04:09:45Z</time>
      </trkpt>
      <trkpt lat="45.93473" lon="6.72871">
        <ele>784</ele>
        <time>2018-05-08T04:10:45Z</time>
      </trkpt>
      <trkpt lat="45.93477" lon="6.72875">
        <ele>784</ele>
        <time>2018-05-08T04:11:45Z</time>
      </trkpt>
      <trkpt lat="45.93483" lon="6.7288">
        <ele>784</ele>
        <time>2018-05-08T04:12:45Z</time>
      </trkpt>
      <trkpt lat="45.9349" lon="6.72892">
        <ele>784</ele>
        <time>2018-05-08T04:13:45Z</time>
      </trkpt>
      <trkpt lat="45.93493" lon="6.72908">
        <ele>785</ele>
        <time>2018-05-08T04:14:45Z</time>
      </trkpt>
      <trkpt lat="45.93494" lon="6.72922">
        <ele>783</ele>
        <time>2018-05-08T04:15:45Z</time>
      </trkpt>
      <trkpt lat="45.93491" lon="6.72943">
        <ele>778</ele>
        <time>2018-05-08T04:16:45Z</time>
      </trkpt>
      <trkpt lat="45.9349" lon="6.72961">
        <ele>777</ele>
        <time>2018-05-08T04:17:45Z</time>
      </trkpt>
      <trkpt lat="45.93492" lon="6.72976">
        <ele>777</ele>
        <time>2018-05-08T04:18:45Z</time>
      </trkpt>
      <trkpt lat="45.93497" lon="6.72986">
        <ele>778</ele>
        <time>2018-05-08T04:19:45Z</time>
      </trkpt>
      <trkpt lat="45.93509" lon="6.72997">
        <ele>786</ele>
        <time>2018-05-08T04:20:45Z</time>
      </trkpt>
      <trkpt lat="45.93527" lon="6.7301">
        <ele>786</ele>
        <time>2018-05-08T04:21:45Z</time>
      </trkpt>
      <trkpt lat="45.93551" lon="6.73026">
        <ele>788</ele>
        <time>2018-05-08T04:22:45Z</time>
      </trkpt>
      <trkpt lat="45.93569" lon="6.73033">
        <ele>789</ele>
        <time>2018-05-08T04:23:45Z</time>
      </trkpt>
      <trkpt lat="45.93588" lon="6.73037">
        <ele>800</ele>
        <time>2018-05-08T04:24:45Z</time>
      </trkpt>
      <trkpt lat="45.93602" lon="6.73036">
        <ele>801</ele>
        <time>2018-05-08T04:25:45Z</time>
      </trkpt>
      <trkpt lat="45.93624" lon="6.73031">
        <ele>803</ele>
        <time>2018-05-08T04:26:45Z</time>
      </trkpt>
      <trkpt lat="45.93653" lon="6.73024">
        <ele>808</ele>
        <time>2018-05-08T04:27:45Z</time>
      </trkpt>
      <trkpt lat="45.93665" lon="6.73026">
        <ele>809</ele>
        <time>2018-05-08T04:28:45Z</time>
      </trkpt>
      <trkpt lat="45.93674" lon="6.73032">
        <ele>818</ele>
        <time>2018-05-08T04:29:45Z</time>
      </trkpt>
      <trkpt lat="45.93682" lon="6.73043">
        <ele>817</ele>
        <time>2018-05-08T04:30:45Z</time>
      </trkpt>
      <trkpt lat="45.93688" lon="6.73059">
        <ele>815</ele>
        <time>2018-05-08T04:31:45Z</time>
      </trkpt>
      <trkpt lat="45.93693" lon="6.73082">
        <ele>812</ele>
        <time>2018-05-08T04:32:45Z</time>
      </trkpt>
      <trkpt lat="45.93698" lon="6.731">
        <ele>803</ele>
        <time>2018-05-08T04:33:45Z</time>
      </trkpt>
      <trkpt lat="45.93707" lon="6.73121">
        <ele>803</ele>
        <time>2018-05-08T04:34:45Z</time>
      </trkpt>
      <trkpt lat="45.93728" lon="6.7316">
        <ele>803</ele>
        <time>2018-05-08T04:35:45Z</time>
      </trkpt>
      <trkpt lat="45.93754" lon="6.73204">
        <ele>803</ele>
        <time>2018-05-08T04:36:45Z</time>
      </trkpt>
      <trkpt lat="45.93765" lon="6.73221">
        <ele>802</ele>
        <time>2018-05-08T04:37:45Z</time>
      </trkpt>
      <trkpt lat="45.93768" lon="6.73227">
        <ele>802</ele>
        <time>2018-05-08T04:38:45Z</time>
      </trkpt>
      <trkpt lat="45.9377" lon="6.7323">
        <ele>802</ele>
        <time>2018-05-08T04:39:45Z</time>
      </trkpt>
      <trkpt lat="45.93773" lon="6.73234">
        <ele>802</ele>
        <time>2018-05-08T04:40:45Z</time>
      </trkpt>
      <trkpt lat="45.93783" lon="6.7325">
        <ele>802</ele>
        <time>2018-05-08T04:41:45Z</time>
      </trkpt>
      <trkpt lat="45.93812" lon="6.73298">
        <ele>805</ele>
        <time>2018-05-08T04:42:45Z</time>
      </trkpt>
      <trkpt lat="45.93814" lon="6.733">
        <ele>805</ele>
        <time>2018-05-08T04:43:45Z</time>
      </trkpt>
      <trkpt lat="45.93822" lon="6.73314">
        <ele>807</ele>
        <time>2018-05-08T04:44:45Z</time>
      </trkpt>
      <trkpt lat="45.93827" lon="6.73326">
        <ele>809</ele>
        <time>2018-05-08T04:45:45Z</time>
      </trkpt>
      <trkpt lat="45.93829" lon="6.73339">
        <ele>813</ele>
        <time>2018-05-08T04:46:45Z</time>
      </trkpt>
      <trkpt lat="45.9383" lon="6.73353">
        <ele>814</ele>
        <time>2018-05-08T04:47:45Z</time>
      </trkpt>
      <trkpt lat="45.93828" lon="6.73365">
        <ele>816</ele>
        <time>2018-05-08T04:48:45Z</time>
      </trkpt>
      <trkpt lat="45.93824" lon="6.73375">
        <ele>817</ele>
        <time>2018-05-08T04:49:45Z</time>
      </trkpt>
      <trkpt lat="45.93816" lon="6.7339">
        <ele>819</ele>
        <time>2018-05-08T04:50:45Z</time>
      </trkpt>
      <trkpt lat="45.9381" lon="6.73403">
        <ele>820</ele>
        <time>2018-05-08T04:51:45Z</time>
      </trkpt>
      <trkpt lat="45.93807" lon="6.73423">
        <ele>829</ele>
        <time>2018-05-08T04:52:45Z</time>
      </trkpt>
      <trkpt lat="45.93807" lon="6.73445">
        <ele>829</ele>
        <time>2018-05-08T04:53:45Z</time>
      </trkpt>
      <trkpt lat="45.93805" lon="6.73461">
        <ele>831</ele>
        <time>2018-05-08T04:54:45Z</time>
      </trkpt>
      <trkpt lat="45.93802" lon="6.73476">
        <ele>832</ele>
        <time>2018-05-08T04:55:45Z</time>
      </trkpt>
      <trkpt lat="45.93793" lon="6.7349">
        <ele>831</ele>
        <time>2018-05-08T04:56:45Z</time>
      </trkpt>
      <trkpt lat="45.93778" lon="6.73507">
        <ele>837</ele>
        <time>2018-05-08T04:57:45Z</time>
      </trkpt>
      <trkpt lat="45.93763" lon="6.73529">
        <ele>837</ele>
        <time>2018-05-08T04:58:45Z</time>
      </trkpt>
      <trkpt lat="45.93754" lon="6.7355">
        <ele>839</ele>
        <time>2018-05-08T04:59:45Z</time>
      </trkpt>
      <trkpt lat="45.9375" lon="6.73575">
        <ele>838</ele>
        <time>2018-05-08T05:00:45Z</time>
      </trkpt>
      <trkpt lat="45.93749" lon="6.73603">
        <ele>832</ele>
        <time>2018-05-08T05:01:45Z</time>
      </trkpt>
      <trkpt lat="45.93753" lon="6.73637">
        <ele>846</ele>
        <time>2018-05-08T05:02:45Z</time>
      </trkpt>
      <trkpt lat="45.93759" lon="6.73666">
        <ele>843</ele>
        <time>2018-05-08T05:03:45Z</time>
      </trkpt>
      <trkpt lat="45.93774" lon="6.73721">
        <ele>845</ele>
        <time>2018-05-08T05:04:45Z</time>
      </trkpt>
      <trkpt lat="45.93784" lon="6.73764">
        <ele>843</ele>
        <time>2018-05-08T05:05:45Z</time>
      </trkpt>
      <trkpt lat="45.93795" lon="6.73808">
        <ele>844</ele>
        <time>2018-05-08T05:06:45Z</time>
      </trkpt>
      <trkpt lat="45.93803" lon="6.73842">
        <ele>841</ele>
        <time>2018-05-08T05:07:45Z</time>
      </trkpt>
      <trkpt lat="45.93804" lon="6.73846">
        <ele>841</ele>
        <time>2018-05-08T05:08:45Z</time>
      </trkpt>
      <trkpt lat="45.93815" lon="6.73883">
        <ele>840</ele>
        <time>2018-05-08T05:09:45Z</time>
      </trkpt>
      <trkpt lat="45.93823" lon="6.73904">
        <ele>842</ele>
        <time>2018-05-08T05:10:45Z</time>
      </trkpt>
      <trkpt lat="45.93835" lon="6.73925">
        <ele>850</ele>
        <time>2018-05-08T05:11:45Z</time>
      </trkpt>
      <trkpt lat="45.93837" lon="6.73928">
        <ele>851</ele>
        <time>2018-05-08T05:12:45Z</time>
      </trkpt>
      <trkpt lat="45.93853" lon="6.73949">
        <ele>856</ele>
        <time>2018-05-08T05:13:45Z</time>
      </trkpt>
      <trkpt lat="45.9387" lon="6.73975">
        <ele>858</ele>
        <time>2018-05-08T05:14:45Z</time>
      </trkpt>
      <trkpt lat="45.93882" lon="6.73996">
        <ele>860</ele>
        <time>2018-05-08T05:15:45Z</time>
      </trkpt>
      <trkpt lat="45.93891" lon="6.7402">
        <ele>859</ele>
        <time>2018-05-08T05:16:45Z</time>
      </trkpt>
      <trkpt lat="45.93901" lon="6.74061">
        <ele>859</ele>
        <time>2018-05-08T05:17:45Z</time>
      </trkpt>
      <trkpt lat="45.93909" lon="6.7409">
        <ele>862</ele>
        <time>2018-05-08T05:18:45Z</time>
      </trkpt>
      <trkpt lat="45.93912" lon="6.74103">
        <ele>861</ele>
        <time>2018-05-08T05:19:45Z</time>
      </trkpt>
      <trkpt lat="45.93911" lon="6.74108">
        <ele>861</ele>
        <time>2018-05-08T05:20:45Z</time>
      </trkpt>
      <trkpt lat="45.9391" lon="6.7412">
        <ele>861</ele>
        <time>2018-05-08T05:21:45Z</time>
      </trkpt>
      <trkpt lat="45.9391" lon="6.74122">
        <ele>861</ele>
        <time>2018-05-08T05:22:45Z</time>
      </trkpt>
      <trkpt lat="45.93908" lon="6.74134">
        <ele>861</ele>
        <time>2018-05-08T05:23:45Z</time>
      </trkpt>
      <trkpt lat="45.93907" lon="6.7414">
        <ele>862</ele>
        <time>2018-05-08T05:24:45Z</time>
      </trkpt>
      <trkpt lat="45.93902" lon="6.74155">
        <ele>863</ele>
        <time>2018-05-08T05:25:45Z</time>
      </trkpt>
      <trkpt lat="45.93893" lon="6.74166">
        <ele>862</ele>
        <time>2018-05-08T05:26:45Z</time>
      </trkpt>
      <trkpt lat="45.9388" lon="6.74183">
        <ele>867</ele>
        <time>2018-05-08T05:27:45Z</time>
      </trkpt>
      <trkpt lat="45.93862" lon="6.74203">
        <ele>867</ele>
        <time>2018-05-08T05:28:45Z</time>
      </trkpt>
      <trkpt lat="45.93842" lon="6.74221">
        <ele>868</ele>
        <time>2018-05-08T05:29:45Z</time>
      </trkpt>
      <trkpt lat="45.93827" lon="6.74238">
        <ele>863</ele>
        <time>2018-05-08T05:30:45Z</time>
      </trkpt>
      <trkpt lat="45.93814" lon="6.74257">
        <ele>869</ele>
        <time>2018-05-08T05:31:45Z</time>
      </trkpt>
      <trkpt lat="45.93807" lon="6.74266">
        <ele>868</ele>
        <time>2018-05-08T05:32:45Z</time>
      </trkpt>
      <trkpt lat="45.93795" lon="6.74283">
        <ele>869</ele>
        <time>2018-05-08T05:33:45Z</time>
      </trkpt>
      <trkpt lat="45.9378" lon="6.743">
        <ele>869</ele>
        <time>2018-05-08T05:34:45Z</time>
      </trkpt>
      <trkpt lat="45.93765" lon="6.7431">
        <ele>868</ele>
        <time>2018-05-08T05:35:45Z</time>
      </trkpt>
      <trkpt lat="45.93739" lon="6.74324">
        <ele>861</ele>
        <time>2018-05-08T05:36:45Z</time>
      </trkpt>
      <trkpt lat="45.93712" lon="6.74333">
        <ele>855</ele>
        <time>2018-05-08T05:37:45Z</time>
      </trkpt>
      <trkpt lat="45.93699" lon="6.74343">
        <ele>863</ele>
        <time>2018-05-08T05:38:45Z</time>
      </trkpt>
      <trkpt lat="45.93683" lon="6.74363">
        <ele>863</ele>
        <time>2018-05-08T05:39:45Z</time>
      </trkpt>
      <trkpt lat="45.93669" lon="6.74388">
        <ele>866</ele>
        <time>2018-05-08T05:40:45Z</time>
      </trkpt>
      <trkpt lat="45.93659" lon="6.74421">
        <ele>865</ele>
        <time>2018-05-08T05:41:45Z</time>
      </trkpt>
      <trkpt lat="45.93647" lon="6.74462">
        <ele>862</ele>
        <time>2018-05-08T05:42:45Z</time>
      </trkpt>
      <trkpt lat="45.93639" lon="6.74498">
        <ele>863</ele>
        <time>2018-05-08T05:43:45Z</time>
      </trkpt>
      <trkpt lat="45.93634" lon="6.74522">
        <ele>867</ele>
        <time>2018-05-08T05:44:45Z</time>
      </trkpt>
      <trkpt lat="45.93634" lon="6.74541">
        <ele>867</ele>
        <time>2018-05-08T05:45:45Z</time>
      </trkpt>
      <trkpt lat="45.93634" lon="6.74577">
        <ele>869</ele>
        <time>2018-05-08T05:46:45Z</time>
      </trkpt>
      <trkpt lat="45.93633" lon="6.74602">
        <ele>876</ele>
        <time>2018-05-08T05:47:45Z</time>
      </trkpt>
      <trkpt lat="45.93628" lon="6.74619">
        <ele>876</ele>
        <time>2018-05-08T05:48:45Z</time>
      </trkpt>
      <trkpt lat="45.93622" lon="6.74628">
        <ele>876</ele>
        <time>2018-05-08T05:49:45Z</time>
      </trkpt>
      <trkpt lat="45.93613" lon="6.74633">
        <ele>875</ele>
        <time>2018-05-08T05:50:45Z</time>
      </trkpt>
      <trkpt lat="45.93595" lon="6.74633">
        <ele>873</ele>
        <time>2018-05-08T05:51:45Z</time>
      </trkpt>
      <trkpt lat="45.9359" lon="6.74634">
        <ele>872</ele>
        <time>2018-05-08T05:52:45Z</time>
      </trkpt>
      <trkpt lat="45.93573" lon="6.74638">
        <ele>860</ele>
        <time>2018-05-08T05:53:45Z</time>
      </trkpt>
      <trkpt lat="45.93556" lon="6.74648">
        <ele>859</ele>
        <time>2018-05-08T05:54:45Z</time>
      </trkpt>
      <trkpt lat="45.93541" lon="6.74665">
        <ele>858</ele>
        <time>2018-05-08T05:55:45Z</time>
      </trkpt>
      <trkpt lat="45.93532" lon="6.74685">
        <ele>861</ele>
        <time>2018-05-08T05:56:45Z</time>
      </trkpt>
      <trkpt lat="45.9352" lon="6.74723">
        <ele>860</ele>
        <time>2018-05-08T05:57:45Z</time>
      </trkpt>
      <trkpt lat="45.93513" lon="6.74744">
        <ele>858</ele>
        <time>2018-05-08T05:58:45Z</time>
      </trkpt>
      <trkpt lat="45.9351" lon="6.74762">
        <ele>861</ele>
        <time>2018-05-08T05:59:45Z</time>
      </trkpt>
      <trkpt lat="45.93508" lon="6.74778">
        <ele>864</ele>
        <time>2018-05-08T06:00:45Z</time>
      </trkpt>
      <trkpt lat="45.93507" lon="6.74796">
        <ele>866</ele>
        <time>2018-05-08T06:01:45Z</time>
      </trkpt>
      <trkpt lat="45.93504" lon="6.7481">
        <ele>866</ele>
        <time>2018-05-08T06:02:45Z</time>
      </trkpt>
      <trkpt lat="45.93498" lon="6.74818">
        <ele>857</ele>
        <time>2018-05-08T06:03:45Z</time>
      </trkpt>
      <trkpt lat="45.93486" lon="6.74825">
        <ele>856</ele>
        <time>2018-05-08T06:04:45Z</time>
      </trkpt>
      <trkpt lat="45.93471" lon="6.74832">
        <ele>853</ele>
        <time>2018-05-08T06:05:45Z</time>
      </trkpt>
      <trkpt lat="45.93462" lon="6.74839">
        <ele>857</ele>
        <time>2018-05-08T06:06:45Z</time>
      </trkpt>
      <trkpt lat="45.93455" lon="6.74848">
        <ele>856</ele>
        <time>2018-05-08T06:07:45Z</time>
      </trkpt>
      <trkpt lat="45.93451" lon="6.74862">
        <ele>857</ele>
        <time>2018-05-08T06:08:45Z</time>
      </trkpt>
      <trkpt lat="45.93444" lon="6.74886">
        <ele>858</ele>
        <time>2018-05-08T06:09:45Z</time>
      </trkpt>
      <trkpt lat="45.93436" lon="6.74904">
        <ele>857</ele>
        <time>2018-05-08T06:10:45Z</time>
      </trkpt>
      <trkpt lat="45.93428" lon="6.74916">
        <ele>856</ele>
        <time>2018-05-08T06:11:45Z</time>
      </trkpt>
      <trkpt lat="45.93416" lon="6.74923">
        <ele>853</ele>
        <time>2018-05-08T06:12:45Z</time>
      </trkpt>
      <trkpt lat="45.934" lon="6.7493">
        <ele>852</ele>
        <time>2018-05-08T06:13:45Z</time>
      </trkpt>
      <trkpt lat="45.9338" lon="6.74934">
        <ele>850</ele>
        <time>2018-05-08T06:14:45Z</time>
      </trkpt>
      <trkpt lat="45.9336" lon="6.74944">
        <ele>849</ele>
        <time>2018-05-08T06:15:45Z</time>
      </trkpt>
      <trkpt lat="45.93347" lon="6.74958">
        <ele>849</ele>
        <time>2018-05-08T06:16:45Z</time>
      </trkpt>
      <trkpt lat="45.93333" lon="6.74979">
        <ele>842</ele>
        <time>2018-05-08T06:17:45Z</time>
      </trkpt>
      <trkpt lat="45.93324" lon="6.74993">
        <ele>844</ele>
        <time>2018-05-08T06:18:45Z</time>
      </trkpt>
      <trkpt lat="45.93308" lon="6.75007">
        <ele>848</ele>
        <time>2018-05-08T06:19:45Z</time>
      </trkpt>
      <trkpt lat="45.93278" lon="6.75034">
        <ele>847</ele>
        <time>2018-05-08T06:20:45Z</time>
      </trkpt>
      <trkpt lat="45.93259" lon="6.7506">
        <ele>848</ele>
        <time>2018-05-08T06:21:45Z</time>
      </trkpt>
      <trkpt lat="45.93248" lon="6.75075">
        <ele>842</ele>
        <time>2018-05-08T06:22:45Z</time>
      </trkpt>
      <trkpt lat="45.93243" lon="6.7509">
        <ele>842</ele>
        <time>2018-05-08T06:23:45Z</time>
      </trkpt>
      <trkpt lat="45.9324" lon="6.75112">
        <ele>839</ele>
        <time>2018-05-08T06:24:45Z</time>
      </trkpt>
      <trkpt lat="45.93236" lon="6.75131">
        <ele>838</ele>
        <time>2018-05-08T06:25:45Z</time>
      </trkpt>
      <trkpt lat="45.9323" lon="6.75149">
        <ele>839</ele>
        <time>2018-05-08T06:26:45Z</time>
      </trkpt>
      <trkpt lat="45.93216" lon="6.75175">
        <ele>838</ele>
        <time>2018-05-08T06:27:45Z</time>
      </trkpt>
      <trkpt lat="45.93205" lon="6.75192">
        <ele>836</ele>
        <time>2018-05-08T06:28:45Z</time>
      </trkpt>
      <trkpt lat="45.93201" lon="6.75203">
        <ele>835</ele>
        <time>2018-05-08T06:29:45Z</time>
      </trkpt>
      <trkpt lat="45.93198" lon="6.75217">
        <ele>835</ele>
        <time>2018-05-08T06:30:45Z</time>
      </trkpt>
      <trkpt lat="45.93199" lon="6.75235">
        <ele>835</ele>
        <time>2018-05-08T06:31:45Z</time>
      </trkpt>
      <trkpt lat="45.93201" lon="6.75258">
        <ele>835</ele>
        <time>2018-05-08T06:32:45Z</time>
      </trkpt>
      <trkpt lat="45.93201" lon="6.7528">
        <ele>836</ele>
        <time>2018-05-08T06:33:45Z</time>
      </trkpt>
      <trkpt lat="45.93197" lon="6.75302">
        <ele>835</ele>
        <time>2018-05-08T06:34:45Z</time>
      </trkpt>
      <trkpt lat="45.93195" lon="6.75315">
        <ele>835</ele>
        <time>2018-05-08T06:35:45Z</time>
      </trkpt>
      <trkpt lat="45.93189" lon="6.75346">
        <ele>834</ele>
        <time>2018-05-08T06:36:45Z</time>
      </trkpt>
      <trkpt lat="45.93181" lon="6.75401">
        <ele>834</ele>
        <time>2018-05-08T06:37:45Z</time>
      </trkpt>
      <trkpt lat="45.9318" lon="6.75423">
        <ele>834</ele>
        <time>2018-05-08T06:38:45Z</time>
      </trkpt>
      <trkpt lat="45.9318" lon="6.75446">
        <ele>837</ele>
        <time>2018-05-08T06:39:45Z</time>
      </trkpt>
      <trkpt lat="45.93181" lon="6.75455">
        <ele>837</ele>
        <time>2018-05-08T06:40:45Z</time>
      </trkpt>
      <trkpt lat="45.93182" lon="6.75471">
        <ele>838</ele>
        <time>2018-05-08T06:41:45Z</time>
      </trkpt>
      <trkpt lat="45.9318" lon="6.75493">
        <ele>836</ele>
        <time>2018-05-08T06:42:45Z</time>
      </trkpt>
      <trkpt lat="45.93177" lon="6.75515">
        <ele>836</ele>
        <time>2018-05-08T06:43:45Z</time>
      </trkpt>
      <trkpt lat="45.93166" lon="6.7555">
        <ele>827</ele>
        <time>2018-05-08T06:44:45Z</time>
      </trkpt>
      <trkpt lat="45.93155" lon="6.7558">
        <ele>828</ele>
        <time>2018-05-08T06:45:45Z</time>
      </trkpt>
      <trkpt lat="45.93151" lon="6.7559">
        <ele>827</ele>
        <time>2018-05-08T06:46:45Z</time>
      </trkpt>
      <trkpt lat="45.93144" lon="6.7561">
        <ele>826</ele>
        <time>2018-05-08T06:47:45Z</time>
      </trkpt>
      <trkpt lat="45.93121" lon="6.75675">
        <ele>822</ele>
        <time>2018-05-08T06:48:45Z</time>
      </trkpt>
      <trkpt lat="45.93118" lon="6.75686">
        <ele>821</ele>
        <time>2018-05-08T06:49:45Z</time>
      </trkpt>
      <trkpt lat="45.93117" lon="6.75695">
        <ele>821</ele>
        <time>2018-05-08T06:50:45Z</time>
      </trkpt>
      <trkpt lat="45.93116" lon="6.75703">
        <ele>821</ele>
        <time>2018-05-08T06:51:45Z</time>
      </trkpt>
      <trkpt lat="45.93115" lon="6.75725">
        <ele>821</ele>
        <time>2018-05-08T06:52:45Z</time>
      </trkpt>
      <trkpt lat="45.93116" lon="6.75736">
        <ele>821</ele>
        <time>2018-05-08T06:53:45Z</time>
      </trkpt>
      <trkpt lat="45.93117" lon="6.75747">
        <ele>820</ele>
        <time>2018-05-08T06:54:45Z</time>
      </trkpt>
      <trkpt lat="45.93126" lon="6.7578">
        <ele>820</ele>
        <time>2018-05-08T06:55:45Z</time>
      </trkpt>
      <trkpt lat="45.93147" lon="6.75845">
        <ele>819</ele>
        <time>2018-05-08T06:56:45Z</time>
      </trkpt>
      <trkpt lat="45.9317" lon="6.75919">
        <ele>819</ele>
        <time>2018-05-08T06:57:45Z</time>
      </trkpt>
      <trkpt lat="45.93191" lon="6.75988">
        <ele>820</ele>
        <time>2018-05-08T06:58:45Z</time>
      </trkpt>
      <trkpt lat="45.93193" lon="6.75995">
        <ele>820</ele>
        <time>2018-05-08T06:59:45Z</time>
      </trkpt>
      <trkpt lat="45.93194" lon="6.76">
        <ele>820</ele>
        <time>2018-05-08T07:00:45Z</time>
      </trkpt>
      <trkpt lat="45.93195" lon="6.76007">
        <ele>819</ele>
        <time>2018-05-08T07:01:45Z</time>
      </trkpt>
      <trkpt lat="45.93196" lon="6.76026">
        <ele>819</ele>
        <time>2018-05-08T07:02:45Z</time>
      </trkpt>
      <trkpt lat="45.93194" lon="6.76066">
        <ele>818</ele>
        <time>2018-05-08T07:03:45Z</time>
      </trkpt>
      <trkpt lat="45.93194" lon="6.7608">
        <ele>818</ele>
        <time>2018-05-08T07:04:45Z</time>
      </trkpt>
      <trkpt lat="45.9319" lon="6.76154">
        <ele>817</ele>
        <time>2018-05-08T07:05:45Z</time>
      </trkpt>
      <trkpt lat="45.9319" lon="6.76158">
        <ele>817</ele>
        <time>2018-05-08T07:06:45Z</time>
      </trkpt>
      <trkpt lat="45.93188" lon="6.76195">
        <ele>817</ele>
        <time>2018-05-08T07:07:45Z</time>
      </trkpt>
      <trkpt lat="45.93187" lon="6.76208">
        <ele>817</ele>
        <time>2018-05-08T07:08:45Z</time>
      </trkpt>
      <trkpt lat="45.93187" lon="6.7621">
        <ele>817</ele>
        <time>2018-05-08T07:09:45Z</time>
      </trkpt>
      <trkpt lat="45.93184" lon="6.76282">
        <ele>817</ele>
        <time>2018-05-08T07:10:45Z</time>
      </trkpt>
      <trkpt lat="45.93183" lon="6.76295">
        <ele>817</ele>
        <time>2018-05-08T07:11:45Z</time>
      </trkpt>
      <trkpt lat="45.93181" lon="6.76341">
        <ele>817</ele>
        <time>2018-05-08T07:12:45Z</time>
      </trkpt>
      <trkpt lat="45.93177" lon="6.76417">
        <ele>817</ele>
        <time>2018-05-08T07:13:45Z</time>
      </trkpt>
      <trkpt lat="45.93173" lon="6.765">
        <ele>819</ele>
        <time>2018-05-08T07:14:45Z</time>
      </trkpt>
      <trkpt lat="45.93169" lon="6.76597">
        <ele>820</ele>
        <time>2018-05-08T07:15:45Z</time>
      </trkpt>
      <trkpt lat="45.93167" lon="6.76618">
        <ele>820</ele>
        <time>2018-05-08T07:16:45Z</time>
      </trkpt>
      <trkpt lat="45.93165" lon="6.76642">
        <ele>820</ele>
        <time>2018-05-08T07:17:45Z</time>
      </trkpt>
      <trkpt lat="45.93164" lon="6.7666">
        <ele>820</ele>
        <time>2018-05-08T07:18:45Z</time>
      </trkpt>
      <trkpt lat="45.9316" lon="6.76695">
        <ele>820</ele>
        <time>2018-05-08T07:19:45Z</time>
      </trkpt>
      <trkpt lat="45.93159" lon="6.76698">
        <ele>820</ele>
        <time>2018-05-08T07:20:45Z</time>
      </trkpt>
      <trkpt lat="45.93152" lon="6.76732">
        <ele>821</ele>
        <time>2018-05-08T07:21:45Z</time>
      </trkpt>
      <trkpt lat="45.9314" lon="6.7677">
        <ele>821</ele>
        <time>2018-05-08T07:22:45Z</time>
      </trkpt>
      <trkpt lat="45.93124" lon="6.76809">
        <ele>820</ele>
        <time>2018-05-08T07:23:45Z</time>
      </trkpt>
      <trkpt lat="45.93115" lon="6.7683">
        <ele>819</ele>
        <time>2018-05-08T07:24:45Z</time>
      </trkpt>
      <trkpt lat="45.93093" lon="6.76887">
        <ele>820</ele>
        <time>2018-05-08T07:25:45Z</time>
      </trkpt>
      <trkpt lat="45.93088" lon="6.76901">
        <ele>821</ele>
        <time>2018-05-08T07:26:45Z</time>
      </trkpt>
      <trkpt lat="45.93083" lon="6.76913">
        <ele>822</ele>
        <time>2018-05-08T07:27:45Z</time>
      </trkpt>
      <trkpt lat="45.93078" lon="6.76927">
        <ele>822</ele>
        <time>2018-05-08T07:28:45Z</time>
      </trkpt>
      <trkpt lat="45.93071" lon="6.76945">
        <ele>822</ele>
        <time>2018-05-08T07:29:45Z</time>
      </trkpt>
      <trkpt lat="45.93064" lon="6.76961">
        <ele>822</ele>
        <time>2018-05-08T07:30:45Z</time>
      </trkpt>
      <trkpt lat="45.93061" lon="6.76964">
        <ele>822</ele>
        <time>2018-05-08T07:31:45Z</time>
      </trkpt>
      <trkpt lat="45.93052" lon="6.76979">
        <ele>822</ele>
        <time>2018-05-08T07:32:45Z</time>
      </trkpt>
      <trkpt lat="45.93033" lon="6.77002">
        <ele>825</ele>
        <time>2018-05-08T07:33:45Z</time>
      </trkpt>
      <trkpt lat="45.93022" lon="6.77009">
        <ele>824</ele>
        <time>2018-05-08T07:34:45Z</time>
      </trkpt>
      <trkpt lat="45.93019" lon="6.77011">
        <ele>824</ele>
        <time>2018-05-08T07:35:45Z</time>
      </trkpt>
      <trkpt lat="45.93007" lon="6.77016">
        <ele>823</ele>
        <time>2018-05-08T07:36:45Z</time>
      </trkpt>
      <trkpt lat="45.92981" lon="6.77021">
        <ele>820</ele>
        <time>2018-05-08T07:37:45Z</time>
      </trkpt>
      <trkpt lat="45.92978" lon="6.77022">
        <ele>820</ele>
        <time>2018-05-08T07:38:45Z</time>
      </trkpt>
      <trkpt lat="45.92929" lon="6.77029">
        <ele>819</ele>
        <time>2018-05-08T07:39:45Z</time>
      </trkpt>
      <trkpt lat="45.9287" lon="6.77037">
        <ele>816</ele>
        <time>2018-05-08T07:40:45Z</time>
      </trkpt>
      <trkpt lat="45.92848" lon="6.7704">
        <ele>816</ele>
        <time>2018-05-08T07:41:45Z</time>
      </trkpt>
      <trkpt lat="45.928" lon="6.77047">
        <ele>814</ele>
        <time>2018-05-08T07:42:45Z</time>
      </trkpt>
      <trkpt lat="45.9276" lon="6.77053">
        <ele>814</ele>
        <time>2018-05-08T07:43:45Z</time>
      </trkpt>
      <trkpt lat="45.92747" lon="6.77055">
        <ele>814</ele>
        <time>2018-05-08T07:44:45Z</time>
      </trkpt>
      <trkpt lat="45.92745" lon="6.77055">
        <ele>814</ele>
        <time>2018-05-08T07:45:45Z</time>
      </trkpt>
      <trkpt lat="45.92695" lon="6.77062">
        <ele>814</ele>
        <time>2018-05-08T07:46:45Z</time>
      </trkpt>
      <trkpt lat="45.92667" lon="6.77066">
        <ele>815</ele>
        <time>2018-05-08T07:47:45Z</time>
      </trkpt>
      <trkpt lat="45.92645" lon="6.7707">
        <ele>815</ele>
        <time>2018-05-08T07:48:45Z</time>
      </trkpt>
      <trkpt lat="45.92588" lon="6.77077">
        <ele>818</ele>
        <time>2018-05-08T07:49:45Z</time>
      </trkpt>
      <trkpt lat="45.92568" lon="6.77075">
        <ele>817</ele>
        <time>2018-05-08T07:50:45Z</time>
      </trkpt>
      <trkpt lat="45.92562" lon="6.77074">
        <ele>817</ele>
        <time>2018-05-08T07:51:45Z</time>
      </trkpt>
      <trkpt lat="45.92555" lon="6.77073">
        <ele>817</ele>
        <time>2018-05-08T07:52:45Z</time>
      </trkpt>
      <trkpt lat="45.9255" lon="6.77072">
        <ele>817</ele>
        <time>2018-05-08T07:53:45Z</time>
      </trkpt>
      <trkpt lat="45.92548" lon="6.77068">
        <ele>817</ele>
        <time>2018-05-08T07:54:45Z</time>
      </trkpt>
      <trkpt lat="45.92545" lon="6.77067">
        <ele>817</ele>
        <time>2018-05-08T07:55:45Z</time>
      </trkpt>
      <trkpt lat="45.92542" lon="6.77067">
        <ele>817</ele>
        <time>2018-05-08T07:56:45Z</time>
      </trkpt>
      <trkpt lat="45.9254" lon="6.77068">
        <ele>817</ele>
        <time>2018-05-08T07:57:45Z</time>
      </trkpt>
      <trkpt lat="45.92538" lon="6.7707">
        <ele>817</ele>
        <time>2018-05-08T07:58:45Z</time>
      </trkpt>
      <trkpt lat="45.92537" lon="6.77072">
        <ele>817</ele>
        <time>2018-05-08T07:59:45Z</time>
      </trkpt>
      <trkpt lat="45.9253" lon="6.77075">
        <ele>817</ele>
        <time>2018-05-08T08:00:45Z</time>
      </trkpt>
      <trkpt lat="45.9252" lon="6.7708">
        <ele>818</ele>
        <time>2018-05-08T08:01:45Z</time>
      </trkpt>
      <trkpt lat="45.92501" lon="6.77084">
        <ele>821</ele>
        <time>2018-05-08T08:02:45Z</time>
      </trkpt>
      <trkpt lat="45.92494" lon="6.77086">
        <ele>825</ele>
        <time>2018-05-08T08:03:45Z</time>
      </trkpt>
      <trkpt lat="45.92487" lon="6.77089">
        <ele>829</ele>
        <time>2018-05-08T08:04:45Z</time>
      </trkpt>
      <trkpt lat="45.92481" lon="6.7709">
        <ele>831</ele>
        <time>2018-05-08T08:05:45Z</time>
      </trkpt>
      <trkpt lat="45.92438" lon="6.77096">
        <ele>835</ele>
        <time>2018-05-08T08:06:45Z</time>
      </trkpt>
      <trkpt lat="45.92434" lon="6.77096">
        <ele>835</ele>
        <time>2018-05-08T08:07:45Z</time>
      </trkpt>
      <trkpt lat="45.92393" lon="6.77103">
        <ele>841</ele>
        <time>2018-05-08T08:08:45Z</time>
      </trkpt>
      <trkpt lat="45.92315" lon="6.77118">
        <ele>845</ele>
        <time>2018-05-08T08:09:45Z</time>
      </trkpt>
      <trkpt lat="45.92299" lon="6.77121">
        <ele>846</ele>
        <time>2018-05-08T08:10:45Z</time>
      </trkpt>
      <trkpt lat="45.92267" lon="6.77125">
        <ele>846</ele>
        <time>2018-05-08T08:11:45Z</time>
      </trkpt>
      <trkpt lat="45.92185" lon="6.77138">
        <ele>846</ele>
        <time>2018-05-08T08:12:45Z</time>
      </trkpt>
      <trkpt lat="45.92153" lon="6.77142">
        <ele>844</ele>
        <time>2018-05-08T08:13:45Z</time>
      </trkpt>
      <trkpt lat="45.9213" lon="6.7714">
        <ele>842</ele>
        <time>2018-05-08T08:14:45Z</time>
      </trkpt>
      <trkpt lat="45.92098" lon="6.77134">
        <ele>840</ele>
        <time>2018-05-08T08:15:45Z</time>
      </trkpt>
      <trkpt lat="45.92071" lon="6.77131">
        <ele>835</ele>
        <time>2018-05-08T08:16:45Z</time>
      </trkpt>
      <trkpt lat="45.92062" lon="6.7713">
        <ele>834</ele>
        <time>2018-05-08T08:17:45Z</time>
      </trkpt>
      <trkpt lat="45.92041" lon="6.77134">
        <ele>834</ele>
        <time>2018-05-08T08:18:45Z</time>
      </trkpt>
      <trkpt lat="45.92012" lon="6.77142">
        <ele>835</ele>
        <time>2018-05-08T08:19:45Z</time>
      </trkpt>
      <trkpt lat="45.91978" lon="6.77156">
        <ele>833</ele>
        <time>2018-05-08T08:20:45Z</time>
      </trkpt>
      <trkpt lat="45.91941" lon="6.77176">
        <ele>848</ele>
        <time>2018-05-08T08:21:45Z</time>
      </trkpt>
      <trkpt lat="45.91918" lon="6.77189">
        <ele>848</ele>
        <time>2018-05-08T08:22:45Z</time>
      </trkpt>
      <trkpt lat="45.91876" lon="6.77201">
        <ele>847</ele>
        <time>2018-05-08T08:23:45Z</time>
      </trkpt>
      <trkpt lat="45.9183" lon="6.77218">
        <ele>844</ele>
        <time>2018-05-08T08:24:45Z</time>
      </trkpt>
      <trkpt lat="45.91821" lon="6.77221">
        <ele>844</ele>
        <time>2018-05-08T08:25:45Z</time>
      </trkpt>
      <trkpt lat="45.91791" lon="6.77232">
        <ele>842</ele>
        <time>2018-05-08T08:26:45Z</time>
      </trkpt>
      <trkpt lat="45.91755" lon="6.7725">
        <ele>841</ele>
        <time>2018-05-08T08:27:45Z</time>
      </trkpt>
      <trkpt lat="45.91721" lon="6.77268">
        <ele>858</ele>
        <time>2018-05-08T08:28:45Z</time>
      </trkpt>
      <trkpt lat="45.91692" lon="6.77281">
        <ele>860</ele>
        <time>2018-05-08T08:29:45Z</time>
      </trkpt>
      <trkpt lat="45.91667" lon="6.77286">
        <ele>860</ele>
        <time>2018-05-08T08:30:45Z</time>
      </trkpt>
      <trkpt lat="45.91619" lon="6.77287">
        <ele>857</ele>
        <time>2018-05-08T08:31:45Z</time>
      </trkpt>
      <trkpt lat="45.91598" lon="6.77284">
        <ele>856</ele>
        <time>2018-05-08T08:32:45Z</time>
      </trkpt>
      <trkpt lat="45.91581" lon="6.77274">
        <ele>852</ele>
        <time>2018-05-08T08:33:45Z</time>
      </trkpt>
      <trkpt lat="45.91574" lon="6.77265">
        <ele>850</ele>
        <time>2018-05-08T08:34:45Z</time>
      </trkpt>
      <trkpt lat="45.91573" lon="6.77264">
        <ele>849</ele>
        <time>2018-05-08T08:35:45Z</time>
      </trkpt>
      <trkpt lat="45.91569" lon="6.77251">
        <ele>848</ele>
        <time>2018-05-08T08:36:45Z</time>
      </trkpt>
      <trkpt lat="45.91568" lon="6.77234">
        <ele>844</ele>
        <time>2018-05-08T08:37:45Z</time>
      </trkpt>
      <trkpt lat="45.91569" lon="6.77218">
        <ele>845</ele>
        <time>2018-05-08T08:38:45Z</time>
      </trkpt>
      <trkpt lat="45.9157" lon="6.77207">
        <ele>845</ele>
        <time>2018-05-08T08:39:45Z</time>
      </trkpt>
      <trkpt lat="45.91571" lon="6.77193">
        <ele>845</ele>
        <time>2018-05-08T08:40:45Z</time>
      </trkpt>
      <trkpt lat="45.91578" lon="6.77145">
        <ele>849</ele>
        <time>2018-05-08T08:41:45Z</time>
      </trkpt>
      <trkpt lat="45.91579" lon="6.77132">
        <ele>851</ele>
        <time>2018-05-08T08:42:45Z</time>
      </trkpt>
      <trkpt lat="45.91582" lon="6.771">
        <ele>854</ele>
        <time>2018-05-08T08:43:45Z</time>
      </trkpt>
      <trkpt lat="45.91581" lon="6.7708">
        <ele>855</ele>
        <time>2018-05-08T08:44:45Z</time>
      </trkpt>
      <trkpt lat="45.91574" lon="6.77062">
        <ele>859</ele>
        <time>2018-05-08T08:45:45Z</time>
      </trkpt>
      <trkpt lat="45.91564" lon="6.77047">
        <ele>861</ele>
        <time>2018-05-08T08:46:45Z</time>
      </trkpt>
      <trkpt lat="45.9155" lon="6.77036">
        <ele>862</ele>
        <time>2018-05-08T08:47:45Z</time>
      </trkpt>
      <trkpt lat="45.91534" lon="6.77032">
        <ele>862</ele>
        <time>2018-05-08T08:48:45Z</time>
      </trkpt>
      <trkpt lat="45.91518" lon="6.77035">
        <ele>862</ele>
        <time>2018-05-08T08:49:45Z</time>
      </trkpt>
      <trkpt lat="45.91507" lon="6.77042">
        <ele>863</ele>
        <time>2018-05-08T08:50:45Z</time>
      </trkpt>
      <trkpt lat="45.91499" lon="6.77049">
        <ele>866</ele>
        <time>2018-05-08T08:51:45Z</time>
      </trkpt>
      <trkpt lat="45.91494" lon="6.77062">
        <ele>866</ele>
        <time>2018-05-08T08:52:45Z</time>
      </trkpt>
      <trkpt lat="45.91488" lon="6.77082">
        <ele>866</ele>
        <time>2018-05-08T08:53:45Z</time>
      </trkpt>
      <trkpt lat="45.9148" lon="6.77101">
        <ele>865</ele>
        <time>2018-05-08T08:54:45Z</time>
      </trkpt>
      <trkpt lat="45.91455" lon="6.77144">
        <ele>865</ele>
        <time>2018-05-08T08:55:45Z</time>
      </trkpt>
      <trkpt lat="45.91433" lon="6.77181">
        <ele>861</ele>
        <time>2018-05-08T08:56:45Z</time>
      </trkpt>
      <trkpt lat="45.91417" lon="6.77212">
        <ele>858</ele>
        <time>2018-05-08T08:57:45Z</time>
      </trkpt>
      <trkpt lat="45.91408" lon="6.77235">
        <ele>860</ele>
        <time>2018-05-08T08:58:45Z</time>
      </trkpt>
      <trkpt lat="45.91406" lon="6.77239">
        <ele>860</ele>
        <time>2018-05-08T08:59:45Z</time>
      </trkpt>
      <trkpt lat="45.91403" lon="6.77243">
        <ele>860</ele>
        <time>2018-05-08T09:00:45Z</time>
      </trkpt>
      <trkpt lat="45.914" lon="6.77247">
        <ele>860</ele>
        <time>2018-05-08T09:01:45Z</time>
      </trkpt>
      <trkpt lat="45.91396" lon="6.77249">
        <ele>860</ele>
        <time>2018-05-08T09:02:45Z</time>
      </trkpt>
      <trkpt lat="45.91392" lon="6.77249">
        <ele>861</ele>
        <time>2018-05-08T09:03:45Z</time>
      </trkpt>
      <trkpt lat="45.91388" lon="6.77248">
        <ele>861</ele>
        <time>2018-05-08T09:04:45Z</time>
      </trkpt>
      <trkpt lat="45.91384" lon="6.77246">
        <ele>862</ele>
        <time>2018-05-08T09:05:45Z</time>
      </trkpt>
      <trkpt lat="45.9138" lon="6.77242">
        <ele>862</ele>
        <time>2018-05-08T09:06:45Z</time>
      </trkpt>
      <trkpt lat="45.91379" lon="6.77238">
        <ele>862</ele>
        <time>2018-05-08T09:07:45Z</time>
      </trkpt>
      <trkpt lat="45.91379" lon="6.77238">
        <ele>862</ele>
        <time>2018-05-08T09:08:45Z</time>
      </trkpt>
      <trkpt lat="45.91372" lon="6.77241">
        <ele>863</ele>
        <time>2018-05-08T09:09:45Z</time>
      </trkpt>
      <trkpt lat="45.91355" lon="6.77244">
        <ele>864</ele>
        <time>2018-05-08T09:10:45Z</time>
      </trkpt>
      <trkpt lat="45.91352" lon="6.77244">
        <ele>864</ele>
        <time>2018-05-08T09:11:45Z</time>
      </trkpt>
      <trkpt lat="45.91349" lon="6.77243">
        <ele>864</ele>
        <time>2018-05-08T09:12:45Z</time>
      </trkpt>
      <trkpt lat="45.91343" lon="6.7724">
        <ele>864</ele>
        <time>2018-05-08T09:13:45Z</time>
      </trkpt>
      <trkpt lat="45.9134" lon="6.77237">
        <ele>864</ele>
        <time>2018-05-08T09:14:45Z</time>
      </trkpt>
      <trkpt lat="45.91337" lon="6.77233">
        <ele>864</ele>
        <time>2018-05-08T09:15:45Z</time>
      </trkpt>
      <trkpt lat="45.91334" lon="6.77227">
        <ele>864</ele>
        <time>2018-05-08T09:16:45Z</time>
      </trkpt>
      <trkpt lat="45.91333" lon="6.77225">
        <ele>872</ele>
        <time>2018-05-08T09:17:45Z</time>
      </trkpt>
      <trkpt lat="45.91329" lon="6.77218">
        <ele>874</ele>
        <time>2018-05-08T09:18:45Z</time>
      </trkpt>
      <trkpt lat="45.91329" lon="6.77216">
        <ele>874</ele>
        <time>2018-05-08T09:19:45Z</time>
      </trkpt>
      <trkpt lat="45.91328" lon="6.77215">
        <ele>874</ele>
        <time>2018-05-08T09:20:45Z</time>
      </trkpt>
      <trkpt lat="45.91326" lon="6.77212">
        <ele>874</ele>
        <time>2018-05-08T09:21:45Z</time>
      </trkpt>
      <trkpt lat="45.91324" lon="6.77208">
        <ele>875</ele>
        <time>2018-05-08T09:22:45Z</time>
      </trkpt>
      <trkpt lat="45.91319" lon="6.77199">
        <ele>875</ele>
        <time>2018-05-08T09:23:45Z</time>
      </trkpt>
      <trkpt lat="45.9131" lon="6.77175">
        <ele>876</ele>
        <time>2018-05-08T09:24:45Z</time>
      </trkpt>
      <trkpt lat="45.91309" lon="6.77168">
        <ele>876</ele>
        <time>2018-05-08T09:25:45Z</time>
      </trkpt>
      <trkpt lat="45.91309" lon="6.77162">
        <ele>874</ele>
        <time>2018-05-08T09:26:45Z</time>
      </trkpt>
      <trkpt lat="45.91309" lon="6.77154">
        <ele>874</ele>
        <time>2018-05-08T09:27:45Z</time>
      </trkpt>
      <trkpt lat="45.9131" lon="6.77151">
        <ele>874</ele>
        <time>2018-05-08T09:28:45Z</time>
      </trkpt>
      <trkpt lat="45.9131" lon="6.77148">
        <ele>874</ele>
        <time>2018-05-08T09:29:45Z</time>
      </trkpt>
      <trkpt lat="45.9131" lon="6.77148">
        <ele>874</ele>
        <time>2018-05-08T09:30:45Z</time>
      </trkpt>
      <trkpt lat="45.91304" lon="6.77141">
        <ele>875</ele>
        <time>2018-05-08T09:31:45Z</time>
      </trkpt>
      <trkpt lat="45.91294" lon="6.7713">
        <ele>875</ele>
        <time>2018-05-08T09:32:45Z</time>
      </trkpt>
      <trkpt lat="45.91288" lon="6.77126">
        <ele>875</ele>
        <time>2018-05-08T09:33:45Z</time>
      </trkpt>
      <trkpt lat="45.91285" lon="6.77125">
        <ele>875</ele>
        <time>2018-05-08T09:34:45Z</time>
      </trkpt>
      <trkpt lat="45.91276" lon="6.77124">
        <ele>875</ele>
        <time>2018-05-08T09:35:45Z</time>
      </trkpt>
      <trkpt lat="45.9126" lon="6.77123">
        <ele>875</ele>
        <time>2018-05-08T09:36:45Z</time>
      </trkpt>
      <trkpt lat="45.91259" lon="6.77123">
        <ele>875</ele>
        <time>2018-05-08T09:37:45Z</time>
      </trkpt>
      <trkpt lat="45.91256" lon="6.7712">
        <ele>875</ele>
        <time>2018-05-08T09:38:45Z</time>
      </trkpt>
      <trkpt lat="45.91255" lon="6.77119">
        <ele>875</ele>
        <time>2018-05-08T09:39:45Z</time>
      </trkpt>
      <trkpt lat="45.91254" lon="6.77118">
        <ele>875</ele>
        <time>2018-05-08T09:40:45Z</time>
      </trkpt>
      <trkpt lat="45.91252" lon="6.77118">
        <ele>875</ele>
        <time>2018-05-08T09:41:45Z</time>
      </trkpt>
      <trkpt lat="45.91236" lon="6.7712">
        <ele>885</ele>
        <time>2018-05-08T09:42:45Z</time>
      </trkpt>
      <trkpt lat="45.91232" lon="6.77119">
        <ele>885</ele>
        <time>2018-05-08T09:43:45Z</time>
      </trkpt>
      <trkpt lat="45.91231" lon="6.77118">
        <ele>885</ele>
        <time>2018-05-08T09:44:45Z</time>
      </trkpt>
      <trkpt lat="45.91229" lon="6.77118">
        <ele>886</ele>
        <time>2018-05-08T09:45:45Z</time>
      </trkpt>
      <trkpt lat="45.91225" lon="6.77111">
        <ele>885</ele>
        <time>2018-05-08T09:46:45Z</time>
      </trkpt>
      <trkpt lat="45.91219" lon="6.771">
        <ele>885</ele>
        <time>2018-05-08T09:47:45Z</time>
      </trkpt>
      <trkpt lat="45.9121" lon="6.77086">
        <ele>885</ele>
        <time>2018-05-08T09:48:45Z</time>
      </trkpt>
      <trkpt lat="45.91197" lon="6.77064">
        <ele>882</ele>
        <time>2018-05-08T09:49:45Z</time>
      </trkpt>
      <trkpt lat="45.9119" lon="6.7705">
        <ele>882</ele>
        <time>2018-05-08T09:50:45Z</time>
      </trkpt>
      <trkpt lat="45.91188" lon="6.77047">
        <ele>882</ele>
        <time>2018-05-08T09:51:45Z</time>
      </trkpt>
      <trkpt lat="45.91186" lon="6.77045">
        <ele>883</ele>
        <time>2018-05-08T09:52:45Z</time>
      </trkpt>
      <trkpt lat="45.91184" lon="6.77043">
        <ele>883</ele>
        <time>2018-05-08T09:53:45Z</time>
      </trkpt>
      <trkpt lat="45.91175" lon="6.77036">
        <ele>883</ele>
        <time>2018-05-08T09:54:45Z</time>
      </trkpt>
      <trkpt lat="45.91172" lon="6.77033">
        <ele>883</ele>
        <time>2018-05-08T09:55:45Z</time>
      </trkpt>
      <trkpt lat="45.91171" lon="6.7703">
        <ele>883</ele>
        <time>2018-05-08T09:56:45Z</time>
      </trkpt>
      <trkpt lat="45.91162" lon="6.77007">
        <ele>891</ele>
        <time>2018-05-08T09:57:45Z</time>
      </trkpt>
      <trkpt lat="45.91157" lon="6.76994">
        <ele>890</ele>
        <time>2018-05-08T09:58:45Z</time>
      </trkpt>
      <trkpt lat="45.91155" lon="6.7699">
        <ele>891</ele>
        <time>2018-05-08T09:59:45Z</time>
      </trkpt>
      <trkpt lat="45.91152" lon="6.76987">
        <ele>892</ele>
        <time>2018-05-08T10:00:45Z</time>
      </trkpt>
      <trkpt lat="45.91146" lon="6.76981">
        <ele>893</ele>
        <time>2018-05-08T10:01:45Z</time>
      </trkpt>
      <trkpt lat="45.91139" lon="6.76973">
        <ele>894</ele>
        <time>2018-05-08T10:02:45Z</time>
      </trkpt>
      <trkpt lat="45.91126" lon="6.76954">
        <ele>896</ele>
        <time>2018-05-08T10:03:45Z</time>
      </trkpt>
      <trkpt lat="45.91123" lon="6.7695">
        <ele>896</ele>
        <time>2018-05-08T10:04:45Z</time>
      </trkpt>
      <trkpt lat="45.9112" lon="6.76948">
        <ele>896</ele>
        <time>2018-05-08T10:05:45Z</time>
      </trkpt>
      <trkpt lat="45.91106" lon="6.7694">
        <ele>896</ele>
        <time>2018-05-08T10:06:45Z</time>
      </trkpt>
      <trkpt lat="45.91099" lon="6.76934">
        <ele>897</ele>
        <time>2018-05-08T10:07:45Z</time>
      </trkpt>
      <trkpt lat="45.91097" lon="6.76932">
        <ele>897</ele>
        <time>2018-05-08T10:08:45Z</time>
      </trkpt>
      <trkpt lat="45.91096" lon="6.7693">
        <ele>897</ele>
        <time>2018-05-08T10:09:45Z</time>
      </trkpt>
      <trkpt lat="45.91095" lon="6.76927">
        <ele>897</ele>
        <time>2018-05-08T10:10:45Z</time>
      </trkpt>
      <trkpt lat="45.91094" lon="6.76923">
        <ele>897</ele>
        <time>2018-05-08T10:11:45Z</time>
      </trkpt>
      <trkpt lat="45.91094" lon="6.76919">
        <ele>897</ele>
        <time>2018-05-08T10:12:45Z</time>
      </trkpt>
      <trkpt lat="45.91094" lon="6.76914">
        <ele>898</ele>
        <time>2018-05-08T10:13:45Z</time>
      </trkpt>
      <trkpt lat="45.91097" lon="6.76891">
        <ele>899</ele>
        <time>2018-05-08T10:14:45Z</time>
      </trkpt>
      <trkpt lat="45.91099" lon="6.76883">
        <ele>899</ele>
        <time>2018-05-08T10:15:45Z</time>
      </trkpt>
      <trkpt lat="45.911" lon="6.76879">
        <ele>899</ele>
        <time>2018-05-08T10:16:45Z</time>
      </trkpt>
      <trkpt lat="45.91102" lon="6.76876">
        <ele>899</ele>
        <time>2018-05-08T10:17:45Z</time>
      </trkpt>
      <trkpt lat="45.91106" lon="6.7687">
        <ele>899</ele>
        <time>2018-05-08T10:18:45Z</time>
      </trkpt>
      <trkpt lat="45.91109" lon="6.76866">
        <ele>899</ele>
        <time>2018-05-08T10:19:45Z</time>
      </trkpt>
      <trkpt lat="45.9111" lon="6.76861">
        <ele>899</ele>
        <time>2018-05-08T10:20:45Z</time>
      </trkpt>
      <trkpt lat="45.91111" lon="6.76857">
        <ele>899</ele>
        <time>2018-05-08T10:21:45Z</time>
      </trkpt>
      <trkpt lat="45.91111" lon="6.76853">
        <ele>899</ele>
        <time>2018-05-08T10:22:45Z</time>
      </trkpt>
      <trkpt lat="45.91106" lon="6.76836">
        <ele>900</ele>
        <time>2018-05-08T10:23:45Z</time>
      </trkpt>
      <trkpt lat="45.91097" lon="6.76812">
        <ele>902</ele>
        <time>2018-05-08T10:24:45Z</time>
      </trkpt>
      <trkpt lat="45.91094" lon="6.76804">
        <ele>903</ele>
        <time>2018-05-08T10:25:45Z</time>
      </trkpt>
      <trkpt lat="45.91093" lon="6.76797">
        <ele>903</ele>
        <time>2018-05-08T10:26:45Z</time>
      </trkpt>
      <trkpt lat="45.91092" lon="6.76791">
        <ele>903</ele>
        <time>2018-05-08T10:27:45Z</time>
      </trkpt>
      <trkpt lat="45.91092" lon="6.76785">
        <ele>904</ele>
        <time>2018-05-08T10:28:45Z</time>
      </trkpt>
      <trkpt lat="45.91092" lon="6.76781">
        <ele>904</ele>
        <time>2018-05-08T10:29:45Z</time>
      </trkpt>
      <trkpt lat="45.91093" lon="6.76778">
        <ele>904</ele>
        <time>2018-05-08T10:30:45Z</time>
      </trkpt>
      <trkpt lat="45.91097" lon="6.76769">
        <ele>904</ele>
        <time>2018-05-08T10:31:45Z</time>
      </trkpt>
      <trkpt lat="45.91101" lon="6.7676">
        <ele>905</ele>
        <time>2018-05-08T10:32:45Z</time>
      </trkpt>
      <trkpt lat="45.91102" lon="6.76757">
        <ele>905</ele>
        <time>2018-05-08T10:33:45Z</time>
      </trkpt>
      <trkpt lat="45.91102" lon="6.76752">
        <ele>905</ele>
        <time>2018-05-08T10:34:45Z</time>
      </trkpt>
      <trkpt lat="45.911" lon="6.76742">
        <ele>906</ele>
        <time>2018-05-08T10:35:45Z</time>
      </trkpt>
      <trkpt lat="45.91098" lon="6.76736">
        <ele>906</ele>
        <time>2018-05-08T10:36:45Z</time>
      </trkpt>
      <trkpt lat="45.91094" lon="6.7673">
        <ele>906</ele>
        <time>2018-05-08T10:37:45Z</time>
      </trkpt>
      <trkpt lat="45.91092" lon="6.76726">
        <ele>906</ele>
        <time>2018-05-08T10:38:45Z</time>
      </trkpt>
      <trkpt lat="45.91086" lon="6.76721">
        <ele>906</ele>
        <time>2018-05-08T10:39:45Z</time>
      </trkpt>
      <trkpt lat="45.91078" lon="6.76721">
        <ele>914</ele>
        <time>2018-05-08T10:40:45Z</time>
      </trkpt>
      <trkpt lat="45.91068" lon="6.76721">
        <ele>915</ele>
        <time>2018-05-08T10:41:45Z</time>
      </trkpt>
      <trkpt lat="45.91063" lon="6.7672">
        <ele>916</ele>
        <time>2018-05-08T10:42:45Z</time>
      </trkpt>
      <trkpt lat="45.91059" lon="6.76718">
        <ele>916</ele>
        <time>2018-05-08T10:43:45Z</time>
      </trkpt>
      <trkpt lat="45.91056" lon="6.76715">
        <ele>916</ele>
        <time>2018-05-08T10:44:45Z</time>
      </trkpt>
      <trkpt lat="45.91053" lon="6.7671">
        <ele>917</ele>
        <time>2018-05-08T10:45:45Z</time>
      </trkpt>
      <trkpt lat="45.9105" lon="6.76703">
        <ele>917</ele>
        <time>2018-05-08T10:46:45Z</time>
      </trkpt>
      <trkpt lat="45.91044" lon="6.76688">
        <ele>918</ele>
        <time>2018-05-08T10:47:45Z</time>
      </trkpt>
      <trkpt lat="45.91044" lon="6.76688">
        <ele>918</ele>
        <time>2018-05-08T10:48:45Z</time>
      </trkpt>
      <trkpt lat="45.91042" lon="6.76693">
        <ele>918</ele>
        <time>2018-05-08T10:49:45Z</time>
      </trkpt>
      <trkpt lat="45.91037" lon="6.76702">
        <ele>918</ele>
        <time>2018-05-08T10:50:45Z</time>
      </trkpt>
      <trkpt lat="45.91031" lon="6.76707">
        <ele>919</ele>
        <time>2018-05-08T10:51:45Z</time>
      </trkpt>
      <trkpt lat="45.91024" lon="6.76706">
        <ele>920</ele>
        <time>2018-05-08T10:52:45Z</time>
      </trkpt>
      <trkpt lat="45.91015" lon="6.76703">
        <ele>921</ele>
        <time>2018-05-08T10:53:45Z</time>
      </trkpt>
      <trkpt lat="45.91002" lon="6.76701">
        <ele>921</ele>
        <time>2018-05-08T10:54:45Z</time>
      </trkpt>
      <trkpt lat="45.90989" lon="6.76701">
        <ele>938</ele>
        <time>2018-05-08T10:55:45Z</time>
      </trkpt>
      <trkpt lat="45.90975" lon="6.767">
        <ele>940</ele>
        <time>2018-05-08T10:56:45Z</time>
      </trkpt>
      <trkpt lat="45.90967" lon="6.76696">
        <ele>941</ele>
        <time>2018-05-08T10:57:45Z</time>
      </trkpt>
      <trkpt lat="45.90962" lon="6.76689">
        <ele>942</ele>
        <time>2018-05-08T10:58:45Z</time>
      </trkpt>
      <trkpt lat="45.90957" lon="6.76678">
        <ele>943</ele>
        <time>2018-05-08T10:59:45Z</time>
      </trkpt>
      <trkpt lat="45.90958" lon="6.76668">
        <ele>943</ele>
        <time>2018-05-08T11:00:45Z</time>
      </trkpt>
      <trkpt lat="45.90963" lon="6.76655">
        <ele>948</ele>
        <time>2018-05-08T11:01:45Z</time>
      </trkpt>
      <trkpt lat="45.90976" lon="6.76636">
        <ele>947</ele>
        <time>2018-05-08T11:02:45Z</time>
      </trkpt>
      <trkpt lat="45.90993" lon="6.7661">
        <ele>947</ele>
        <time>2018-05-08T11:03:45Z</time>
      </trkpt>
      <trkpt lat="45.91009" lon="6.76585">
        <ele>937</ele>
        <time>2018-05-08T11:04:45Z</time>
      </trkpt>
      <trkpt lat="45.91018" lon="6.76577">
        <ele>942</ele>
        <time>2018-05-08T11:05:45Z</time>
      </trkpt>
      <trkpt lat="45.91029" lon="6.7657">
        <ele>940</ele>
        <time>2018-05-08T11:06:45Z</time>
      </trkpt>
      <trkpt lat="45.91034" lon="6.76563">
        <ele>940</ele>
        <time>2018-05-08T11:07:45Z</time>
      </trkpt>
      <trkpt lat="45.91035" lon="6.76554">
        <ele>940</ele>
        <time>2018-05-08T11:08:45Z</time>
      </trkpt>
      <trkpt lat="45.91032" lon="6.76547">
        <ele>942</ele>
        <time>2018-05-08T11:09:45Z</time>
      </trkpt>
      <trkpt lat="45.91026" lon="6.76545">
        <ele>944</ele>
        <time>2018-05-08T11:10:45Z</time>
      </trkpt>
      <trkpt lat="45.91019" lon="6.76548">
        <ele>944</ele>
        <time>2018-05-08T11:11:45Z</time>
      </trkpt>
      <trkpt lat="45.91004" lon="6.76573">
        <ele>943</ele>
        <time>2018-05-08T11:12:45Z</time>
      </trkpt>
      <trkpt lat="45.90989" lon="6.76596">
        <ele>948</ele>
        <time>2018-05-08T11:13:45Z</time>
      </trkpt>
      <trkpt lat="45.90981" lon="6.76604">
        <ele>949</ele>
        <time>2018-05-08T11:14:45Z</time>
      </trkpt>
      <trkpt lat="45.90968" lon="6.7661">
        <ele>951</ele>
        <time>2018-05-08T11:15:45Z</time>
      </trkpt>
      <trkpt lat="45.90949" lon="6.76617">
        <ele>955</ele>
        <time>2018-05-08T11:16:45Z</time>
      </trkpt>
      <trkpt lat="45.90925" lon="6.76627">
        <ele>957</ele>
        <time>2018-05-08T11:17:45Z</time>
      </trkpt>
      <trkpt lat="45.90913" lon="6.76639">
        <ele>976</ele>
        <time>2018-05-08T11:18:45Z</time>
      </trkpt>
      <trkpt lat="45.9091" lon="6.76649">
        <ele>973</ele>
        <time>2018-05-08T11:19:45Z</time>
      </trkpt>
      <trkpt lat="45.90909" lon="6.76661">
        <ele>968</ele>
        <time>2018-05-08T11:20:45Z</time>
      </trkpt>
      <trkpt lat="45.90911" lon="6.76675">
        <ele>964</ele>
        <time>2018-05-08T11:21:45Z</time>
      </trkpt>
      <trkpt lat="45.90916" lon="6.76687">
        <ele>966</ele>
        <time>2018-05-08T11:22:45Z</time>
      </trkpt>
      <trkpt lat="45.90926" lon="6.767">
        <ele>949</ele>
        <time>2018-05-08T11:23:45Z</time>
      </trkpt>
      <trkpt lat="45.90934" lon="6.7671">
        <ele>947</ele>
        <time>2018-05-08T11:24:45Z</time>
      </trkpt>
      <trkpt lat="45.90937" lon="6.76721">
        <ele>947</ele>
        <time>2018-05-08T11:25:45Z</time>
      </trkpt>
      <trkpt lat="45.90936" lon="6.76736">
        <ele>948</ele>
        <time>2018-05-08T11:26:45Z</time>
      </trkpt>
      <trkpt lat="45.9093" lon="6.76756">
        <ele>950</ele>
        <time>2018-05-08T11:27:45Z</time>
      </trkpt>
      <trkpt lat="45.90918" lon="6.76782">
        <ele>948</ele>
        <time>2018-05-08T11:28:45Z</time>
      </trkpt>
      <trkpt lat="45.90906" lon="6.76798">
        <ele>961</ele>
        <time>2018-05-08T11:29:45Z</time>
      </trkpt>
      <trkpt lat="45.90888" lon="6.76811">
        <ele>962</ele>
        <time>2018-05-08T11:30:45Z</time>
      </trkpt>
      <trkpt lat="45.90872" lon="6.76818">
        <ele>964</ele>
        <time>2018-05-08T11:31:45Z</time>
      </trkpt>
      <trkpt lat="45.90863" lon="6.76816">
        <ele>965</ele>
        <time>2018-05-08T11:32:45Z</time>
      </trkpt>
      <trkpt lat="45.9086" lon="6.76812">
        <ele>966</ele>
        <time>2018-05-08T11:33:45Z</time>
      </trkpt>
      <trkpt lat="45.90859" lon="6.76803">
        <ele>966</ele>
        <time>2018-05-08T11:34:45Z</time>
      </trkpt>
      <trkpt lat="45.90862" lon="6.76796">
        <ele>966</ele>
        <time>2018-05-08T11:35:45Z</time>
      </trkpt>
      <trkpt lat="45.90867" lon="6.76793">
        <ele>965</ele>
        <time>2018-05-08T11:36:45Z</time>
      </trkpt>
      <trkpt lat="45.90875" lon="6.76794">
        <ele>964</ele>
        <time>2018-05-08T11:37:45Z</time>
      </trkpt>
      <trkpt lat="45.90888" lon="6.76791">
        <ele>963</ele>
        <time>2018-05-08T11:38:45Z</time>
      </trkpt>
      <trkpt lat="45.90896" lon="6.76784">
        <ele>963</ele>
        <time>2018-05-08T11:39:45Z</time>
      </trkpt>
      <trkpt lat="45.909" lon="6.76775">
        <ele>962</ele>
        <time>2018-05-08T11:40:45Z</time>
      </trkpt>
      <trkpt lat="45.909" lon="6.76762">
        <ele>961</ele>
        <time>2018-05-08T11:41:45Z</time>
      </trkpt>
      <trkpt lat="45.90895" lon="6.76751">
        <ele>962</ele>
        <time>2018-05-08T11:42:45Z</time>
      </trkpt>
      <trkpt lat="45.90885" lon="6.76746">
        <ele>968</ele>
        <time>2018-05-08T11:43:45Z</time>
      </trkpt>
      <trkpt lat="45.90876" lon="6.76746">
        <ele>970</ele>
        <time>2018-05-08T11:44:45Z</time>
      </trkpt>
      <trkpt lat="45.90863" lon="6.76738">
        <ele>972</ele>
        <time>2018-05-08T11:45:45Z</time>
      </trkpt>
      <trkpt lat="45.90852" lon="6.76732">
        <ele>973</ele>
        <time>2018-05-08T11:46:45Z</time>
      </trkpt>
      <trkpt lat="45.90844" lon="6.76733">
        <ele>974</ele>
        <time>2018-05-08T11:47:45Z</time>
      </trkpt>
      <trkpt lat="45.90837" lon="6.7674">
        <ele>975</ele>
        <time>2018-05-08T11:48:45Z</time>
      </trkpt>
      <trkpt lat="45.90829" lon="6.76761">
        <ele>981</ele>
        <time>2018-05-08T11:49:45Z</time>
      </trkpt>
      <trkpt lat="45.90819" lon="6.76779">
        <ele>985</ele>
        <time>2018-05-08T11:50:45Z</time>
      </trkpt>
      <trkpt lat="45.90808" lon="6.76783">
        <ele>986</ele>
        <time>2018-05-08T11:51:45Z</time>
      </trkpt>
      <trkpt lat="45.90798" lon="6.7678">
        <ele>988</ele>
        <time>2018-05-08T11:52:45Z</time>
      </trkpt>
      <trkpt lat="45.90795" lon="6.76772">
        <ele>989</ele>
        <time>2018-05-08T11:53:45Z</time>
      </trkpt>
      <trkpt lat="45.90796" lon="6.76757">
        <ele>989</ele>
        <time>2018-05-08T11:54:45Z</time>
      </trkpt>
      <trkpt lat="45.90802" lon="6.76742">
        <ele>994</ele>
        <time>2018-05-08T11:55:45Z</time>
      </trkpt>
      <trkpt lat="45.90813" lon="6.76724">
        <ele>994</ele>
        <time>2018-05-08T11:56:45Z</time>
      </trkpt>
      <trkpt lat="45.90829" lon="6.76703">
        <ele>994</ele>
        <time>2018-05-08T11:57:45Z</time>
      </trkpt>
      <trkpt lat="45.90838" lon="6.76684">
        <ele>981</ele>
        <time>2018-05-08T11:58:45Z</time>
      </trkpt>
      <trkpt lat="45.90841" lon="6.7666">
        <ele>988</ele>
        <time>2018-05-08T11:59:45Z</time>
      </trkpt>
      <trkpt lat="45.90843" lon="6.76622">
        <ele>990</ele>
        <time>2018-05-08T12:00:45Z</time>
      </trkpt>
      <trkpt lat="45.90845" lon="6.76593">
        <ele>998</ele>
        <time>2018-05-08T12:01:45Z</time>
      </trkpt>
      <trkpt lat="45.9085" lon="6.76575">
        <ele>1006</ele>
        <time>2018-05-08T12:02:45Z</time>
      </trkpt>
      <trkpt lat="45.90864" lon="6.76552">
        <ele>1006</ele>
        <time>2018-05-08T12:03:45Z</time>
      </trkpt>
      <trkpt lat="45.90881" lon="6.76533">
        <ele>1006</ele>
        <time>2018-05-08T12:04:45Z</time>
      </trkpt>
      <trkpt lat="45.90906" lon="6.76511">
        <ele>1005</ele>
        <time>2018-05-08T12:05:45Z</time>
      </trkpt>
      <trkpt lat="45.90936" lon="6.7649">
        <ele>1000</ele>
        <time>2018-05-08T12:06:45Z</time>
      </trkpt>
      <trkpt lat="45.90962" lon="6.76472">
        <ele>995</ele>
        <time>2018-05-08T12:07:45Z</time>
      </trkpt>
      <trkpt lat="45.90973" lon="6.76465">
        <ele>994</ele>
        <time>2018-05-08T12:08:45Z</time>
      </trkpt>
      <trkpt lat="45.90981" lon="6.76458">
        <ele>994</ele>
        <time>2018-05-08T12:09:45Z</time>
      </trkpt>
      <trkpt lat="45.90997" lon="6.76449">
        <ele>994</ele>
        <time>2018-05-08T12:10:45Z</time>
      </trkpt>
      <trkpt lat="45.91006" lon="6.76441">
        <ele>980</ele>
        <time>2018-05-08T12:11:45Z</time>
      </trkpt>
      <trkpt lat="45.91013" lon="6.76428">
        <ele>983</ele>
        <time>2018-05-08T12:12:45Z</time>
      </trkpt>
      <trkpt lat="45.91015" lon="6.76418">
        <ele>985</ele>
        <time>2018-05-08T12:13:45Z</time>
      </trkpt>
      <trkpt lat="45.91015" lon="6.76418">
        <ele>985</ele>
        <time>2018-05-08T12:14:45Z</time>
      </trkpt>
      <trkpt lat="45.91012" lon="6.76409">
        <ele>993</ele>
        <time>2018-05-08T12:15:45Z</time>
      </trkpt>
      <trkpt lat="45.91005" lon="6.76404">
        <ele>993</ele>
        <time>2018-05-08T12:16:45Z</time>
      </trkpt>
      <trkpt lat="45.90992" lon="6.76401">
        <ele>1000</ele>
        <time>2018-05-08T12:17:45Z</time>
      </trkpt>
      <trkpt lat="45.90977" lon="6.76396">
        <ele>1002</ele>
        <time>2018-05-08T12:18:45Z</time>
      </trkpt>
      <trkpt lat="45.90966" lon="6.76393">
        <ele>1003</ele>
        <time>2018-05-08T12:19:45Z</time>
      </trkpt>
      <trkpt lat="45.90948" lon="6.76391">
        <ele>1005</ele>
        <time>2018-05-08T12:20:45Z</time>
      </trkpt>
      <trkpt lat="45.9092" lon="6.76387">
        <ele>1007</ele>
        <time>2018-05-08T12:21:45Z</time>
      </trkpt>
      <trkpt lat="45.90906" lon="6.76383">
        <ele>1015</ele>
        <time>2018-05-08T12:22:45Z</time>
      </trkpt>
      <trkpt lat="45.90881" lon="6.76374">
        <ele>1017</ele>
        <time>2018-05-08T12:23:45Z</time>
      </trkpt>
      <trkpt lat="45.90872" lon="6.76369">
        <ele>1017</ele>
        <time>2018-05-08T12:24:45Z</time>
      </trkpt>
      <trkpt lat="45.90867" lon="6.76361">
        <ele>1017</ele>
        <time>2018-05-08T12:25:45Z</time>
      </trkpt>
      <trkpt lat="45.90865" lon="6.7635">
        <ele>1017</ele>
        <time>2018-05-08T12:26:45Z</time>
      </trkpt>
      <trkpt lat="45.90869" lon="6.7634">
        <ele>1016</ele>
        <time>2018-05-08T12:27:45Z</time>
      </trkpt>
      <trkpt lat="45.90877" lon="6.76332">
        <ele>1016</ele>
        <time>2018-05-08T12:28:45Z</time>
      </trkpt>
      <trkpt lat="45.9089" lon="6.76319">
        <ele>1015</ele>
        <time>2018-05-08T12:29:45Z</time>
      </trkpt>
      <trkpt lat="45.90903" lon="6.76302">
        <ele>1015</ele>
        <time>2018-05-08T12:30:45Z</time>
      </trkpt>
      <trkpt lat="45.90917" lon="6.76278">
        <ele>1010</ele>
        <time>2018-05-08T12:31:45Z</time>
      </trkpt>
      <trkpt lat="45.90927" lon="6.76258">
        <ele>1013</ele>
        <time>2018-05-08T12:32:45Z</time>
      </trkpt>
      <trkpt lat="45.90935" lon="6.7625">
        <ele>1012</ele>
        <time>2018-05-08T12:33:45Z</time>
      </trkpt>
      <trkpt lat="45.90946" lon="6.76244">
        <ele>1019</ele>
        <time>2018-05-08T12:34:45Z</time>
      </trkpt>
      <trkpt lat="45.90951" lon="6.76237">
        <ele>1020</ele>
        <time>2018-05-08T12:35:45Z</time>
      </trkpt>
      <trkpt lat="45.90953" lon="6.76232">
        <ele>1020</ele>
        <time>2018-05-08T12:36:45Z</time>
      </trkpt>
      <trkpt lat="45.90952" lon="6.76225">
        <ele>1021</ele>
        <time>2018-05-08T12:37:45Z</time>
      </trkpt>
      <trkpt lat="45.90945" lon="6.76214">
        <ele>1022</ele>
        <time>2018-05-08T12:38:45Z</time>
      </trkpt>
      <trkpt lat="45.9094" lon="6.76215">
        <ele>1022</ele>
        <time>2018-05-08T12:39:45Z</time>
      </trkpt>
      <trkpt lat="45.90935" lon="6.76222">
        <ele>1021</ele>
        <time>2018-05-08T12:40:45Z</time>
      </trkpt>
      <trkpt lat="45.90927" lon="6.76235">
        <ele>1019</ele>
        <time>2018-05-08T12:41:45Z</time>
      </trkpt>
      <trkpt lat="45.90916" lon="6.76248">
        <ele>1018</ele>
        <time>2018-05-08T12:42:45Z</time>
      </trkpt>
      <trkpt lat="45.90896" lon="6.76264">
        <ele>1018</ele>
        <time>2018-05-08T12:43:45Z</time>
      </trkpt>
      <trkpt lat="45.90876" lon="6.76279">
        <ele>1019</ele>
        <time>2018-05-08T12:44:45Z</time>
      </trkpt>
      <trkpt lat="45.9087" lon="6.76284">
        <ele>1019</ele>
        <time>2018-05-08T12:45:45Z</time>
      </trkpt>
      <trkpt lat="45.90859" lon="6.76293">
        <ele>1020</ele>
        <time>2018-05-08T12:46:45Z</time>
      </trkpt>
      <trkpt lat="45.90849" lon="6.76299">
        <ele>1020</ele>
        <time>2018-05-08T12:47:45Z</time>
      </trkpt>
      <trkpt lat="45.90837" lon="6.76302">
        <ele>1020</ele>
        <time>2018-05-08T12:48:45Z</time>
      </trkpt>
      <trkpt lat="45.90815" lon="6.76304">
        <ele>1030</ele>
        <time>2018-05-08T12:49:45Z</time>
      </trkpt>
      <trkpt lat="45.90802" lon="6.76304">
        <ele>1032</ele>
        <time>2018-05-08T12:50:45Z</time>
      </trkpt>
      <trkpt lat="45.90795" lon="6.76308">
        <ele>1032</ele>
        <time>2018-05-08T12:51:45Z</time>
      </trkpt>
      <trkpt lat="45.90783" lon="6.76319">
        <ele>1033</ele>
        <time>2018-05-08T12:52:45Z</time>
      </trkpt>
      <trkpt lat="45.90769" lon="6.76332">
        <ele>1034</ele>
        <time>2018-05-08T12:53:45Z</time>
      </trkpt>
      <trkpt lat="45.90764" lon="6.76336">
        <ele>1034</ele>
        <time>2018-05-08T12:54:45Z</time>
      </trkpt>
      <trkpt lat="45.90757" lon="6.76337">
        <ele>1035</ele>
        <time>2018-05-08T12:55:45Z</time>
      </trkpt>
      <trkpt lat="45.90751" lon="6.76333">
        <ele>1036</ele>
        <time>2018-05-08T12:56:45Z</time>
      </trkpt>
      <trkpt lat="45.90748" lon="6.76327">
        <ele>1039</ele>
        <time>2018-05-08T12:57:45Z</time>
      </trkpt>
      <trkpt lat="45.90748" lon="6.7632">
        <ele>1041</ele>
        <time>2018-05-08T12:58:45Z</time>
      </trkpt>
      <trkpt lat="45.90751" lon="6.76313">
        <ele>1035</ele>
        <time>2018-05-08T12:59:45Z</time>
      </trkpt>
      <trkpt lat="45.90756" lon="6.76309">
        <ele>1035</ele>
        <time>2018-05-08T13:00:45Z</time>
      </trkpt>
      <trkpt lat="45.90766" lon="6.76305">
        <ele>1035</ele>
        <time>2018-05-08T13:01:45Z</time>
      </trkpt>
      <trkpt lat="45.90773" lon="6.763">
        <ele>1035</ele>
        <time>2018-05-08T13:02:45Z</time>
      </trkpt>
      <trkpt lat="45.90783" lon="6.76288">
        <ele>1035</ele>
        <time>2018-05-08T13:03:45Z</time>
      </trkpt>
      <trkpt lat="45.90792" lon="6.76277">
        <ele>1035</ele>
        <time>2018-05-08T13:04:45Z</time>
      </trkpt>
      <trkpt lat="45.90799" lon="6.76272">
        <ele>1034</ele>
        <time>2018-05-08T13:05:45Z</time>
      </trkpt>
      <trkpt lat="45.90811" lon="6.76266">
        <ele>1033</ele>
        <time>2018-05-08T13:06:45Z</time>
      </trkpt>
      <trkpt lat="45.90818" lon="6.76261">
        <ele>1033</ele>
        <time>2018-05-08T13:07:45Z</time>
      </trkpt>
      <trkpt lat="45.90824" lon="6.76254">
        <ele>1033</ele>
        <time>2018-05-08T13:08:45Z</time>
      </trkpt>
      <trkpt lat="45.90828" lon="6.7624">
        <ele>1038</ele>
        <time>2018-05-08T13:09:45Z</time>
      </trkpt>
      <trkpt lat="45.90836" lon="6.76204">
        <ele>1039</ele>
        <time>2018-05-08T13:10:45Z</time>
      </trkpt>
      <trkpt lat="45.90836" lon="6.76193">
        <ele>1042</ele>
        <time>2018-05-08T13:11:45Z</time>
      </trkpt>
      <trkpt lat="45.90835" lon="6.76188">
        <ele>1044</ele>
        <time>2018-05-08T13:12:45Z</time>
      </trkpt>
      <trkpt lat="45.90835" lon="6.76188">
        <ele>1044</ele>
        <time>2018-05-08T13:13:45Z</time>
      </trkpt>
      <trkpt lat="45.90833" lon="6.76185">
        <ele>1051</ele>
        <time>2018-05-08T13:14:45Z</time>
      </trkpt>
      <trkpt lat="45.90832" lon="6.76182">
        <ele>1052</ele>
        <time>2018-05-08T13:15:45Z</time>
      </trkpt>
      <trkpt lat="45.90829" lon="6.7618">
        <ele>1052</ele>
        <time>2018-05-08T13:16:45Z</time>
      </trkpt>
      <trkpt lat="45.90826" lon="6.76179">
        <ele>1052</ele>
        <time>2018-05-08T13:17:45Z</time>
      </trkpt>
      <trkpt lat="45.90822" lon="6.76179">
        <ele>1052</ele>
        <time>2018-05-08T13:18:45Z</time>
      </trkpt>
      <trkpt lat="45.9082" lon="6.76179">
        <ele>1052</ele>
        <time>2018-05-08T13:19:45Z</time>
      </trkpt>
      <trkpt lat="45.90812" lon="6.76184">
        <ele>1051</ele>
        <time>2018-05-08T13:20:45Z</time>
      </trkpt>
      <trkpt lat="45.90805" lon="6.76192">
        <ele>1050</ele>
        <time>2018-05-08T13:21:45Z</time>
      </trkpt>
      <trkpt lat="45.908" lon="6.762">
        <ele>1050</ele>
        <time>2018-05-08T13:22:45Z</time>
      </trkpt>
      <trkpt lat="45.90794" lon="6.76204">
        <ele>1050</ele>
        <time>2018-05-08T13:23:45Z</time>
      </trkpt>
      <trkpt lat="45.90788" lon="6.76206">
        <ele>1050</ele>
        <time>2018-05-08T13:24:45Z</time>
      </trkpt>
      <trkpt lat="45.90778" lon="6.76204">
        <ele>1051</ele>
        <time>2018-05-08T13:25:45Z</time>
      </trkpt>
      <trkpt lat="45.90767" lon="6.76202">
        <ele>1052</ele>
        <time>2018-05-08T13:26:45Z</time>
      </trkpt>
      <trkpt lat="45.90759" lon="6.76203">
        <ele>1052</ele>
        <time>2018-05-08T13:27:45Z</time>
      </trkpt>
      <trkpt lat="45.9075" lon="6.76208">
        <ele>1058</ele>
        <time>2018-05-08T13:28:45Z</time>
      </trkpt>
      <trkpt lat="45.9074" lon="6.76218">
        <ele>1057</ele>
        <time>2018-05-08T13:29:45Z</time>
      </trkpt>
      <trkpt lat="45.90731" lon="6.76233">
        <ele>1056</ele>
        <time>2018-05-08T13:30:45Z</time>
      </trkpt>
      <trkpt lat="45.90724" lon="6.76243">
        <ele>1056</ele>
        <time>2018-05-08T13:31:45Z</time>
      </trkpt>
      <trkpt lat="45.90716" lon="6.76247">
        <ele>1057</ele>
        <time>2018-05-08T13:32:45Z</time>
      </trkpt>
      <trkpt lat="45.90705" lon="6.7625">
        <ele>1051</ele>
        <time>2018-05-08T13:33:45Z</time>
      </trkpt>
      <trkpt lat="45.9069" lon="6.76248">
        <ele>1059</ele>
        <time>2018-05-08T13:34:45Z</time>
      </trkpt>
      <trkpt lat="45.90676" lon="6.76247">
        <ele>1060</ele>
        <time>2018-05-08T13:35:45Z</time>
      </trkpt>
      <trkpt lat="45.90662" lon="6.76248">
        <ele>1063</ele>
        <time>2018-05-08T13:36:45Z</time>
      </trkpt>
      <trkpt lat="45.90654" lon="6.76246">
        <ele>1066</ele>
        <time>2018-05-08T13:37:45Z</time>
      </trkpt>
      <trkpt lat="45.90649" lon="6.7624">
        <ele>1068</ele>
        <time>2018-05-08T13:38:45Z</time>
      </trkpt>
      <trkpt lat="45.90647" lon="6.76233">
        <ele>1070</ele>
        <time>2018-05-08T13:39:45Z</time>
      </trkpt>
      <trkpt lat="45.90647" lon="6.76222">
        <ele>1071</ele>
        <time>2018-05-08T13:40:45Z</time>
      </trkpt>
      <trkpt lat="45.90651" lon="6.76213">
        <ele>1072</ele>
        <time>2018-05-08T13:41:45Z</time>
      </trkpt>
      <trkpt lat="45.90658" lon="6.76206">
        <ele>1072</ele>
        <time>2018-05-08T13:42:45Z</time>
      </trkpt>
      <trkpt lat="45.90672" lon="6.76199">
        <ele>1064</ele>
        <time>2018-05-08T13:43:45Z</time>
      </trkpt>
      <trkpt lat="45.90684" lon="6.76192">
        <ele>1064</ele>
        <time>2018-05-08T13:44:45Z</time>
      </trkpt>
      <trkpt lat="45.90688" lon="6.76186">
        <ele>1064</ele>
        <time>2018-05-08T13:45:45Z</time>
      </trkpt>
      <trkpt lat="45.90687" lon="6.7618">
        <ele>1065</ele>
        <time>2018-05-08T13:46:45Z</time>
      </trkpt>
      <trkpt lat="45.90687" lon="6.7618">
        <ele>1065</ele>
        <time>2018-05-08T13:47:45Z</time>
      </trkpt>
      <trkpt lat="45.90683" lon="6.76176">
        <ele>1066</ele>
        <time>2018-05-08T13:48:45Z</time>
      </trkpt>
      <trkpt lat="45.90678" lon="6.76177">
        <ele>1067</ele>
        <time>2018-05-08T13:49:45Z</time>
      </trkpt>
      <trkpt lat="45.90667" lon="6.76184">
        <ele>1066</ele>
        <time>2018-05-08T13:50:45Z</time>
      </trkpt>
      <trkpt lat="45.90651" lon="6.76193">
        <ele>1074</ele>
        <time>2018-05-08T13:51:45Z</time>
      </trkpt>
      <trkpt lat="45.90627" lon="6.76199">
        <ele>1075</ele>
        <time>2018-05-08T13:52:45Z</time>
      </trkpt>
      <trkpt lat="45.9061" lon="6.76204">
        <ele>1077</ele>
        <time>2018-05-08T13:53:45Z</time>
      </trkpt>
      <trkpt lat="45.90595" lon="6.76209">
        <ele>1078</ele>
        <time>2018-05-08T13:54:45Z</time>
      </trkpt>
      <trkpt lat="45.90579" lon="6.76217">
        <ele>1089</ele>
        <time>2018-05-08T13:55:45Z</time>
      </trkpt>
      <trkpt lat="45.90563" lon="6.76228">
        <ele>1089</ele>
        <time>2018-05-08T13:56:45Z</time>
      </trkpt>
      <trkpt lat="45.90558" lon="6.76233">
        <ele>1089</ele>
        <time>2018-05-08T13:57:45Z</time>
      </trkpt>
      <trkpt lat="45.90554" lon="6.76241">
        <ele>1089</ele>
        <time>2018-05-08T13:58:45Z</time>
      </trkpt>
      <trkpt lat="45.90553" lon="6.76251">
        <ele>1085</ele>
        <time>2018-05-08T13:59:45Z</time>
      </trkpt>
      <trkpt lat="45.90555" lon="6.76265">
        <ele>1085</ele>
        <time>2018-05-08T14:00:45Z</time>
      </trkpt>
      <trkpt lat="45.90556" lon="6.76284">
        <ele>1085</ele>
        <time>2018-05-08T14:01:45Z</time>
      </trkpt>
      <trkpt lat="45.90555" lon="6.76306">
        <ele>1084</ele>
        <time>2018-05-08T14:02:45Z</time>
      </trkpt>
      <trkpt lat="45.9055" lon="6.76327">
        <ele>1085</ele>
        <time>2018-05-08T14:03:45Z</time>
      </trkpt>
      <trkpt lat="45.90543" lon="6.76344">
        <ele>1088</ele>
        <time>2018-05-08T14:04:45Z</time>
      </trkpt>
      <trkpt lat="45.90542" lon="6.76348">
        <ele>1088</ele>
        <time>2018-05-08T14:05:45Z</time>
      </trkpt>
      <trkpt lat="45.90538" lon="6.76362">
        <ele>1089</ele>
        <time>2018-05-08T14:06:45Z</time>
      </trkpt>
      <trkpt lat="45.90534" lon="6.7639">
        <ele>1091</ele>
        <time>2018-05-08T14:07:45Z</time>
      </trkpt>
      <trkpt lat="45.90532" lon="6.76404">
        <ele>1092</ele>
        <time>2018-05-08T14:08:45Z</time>
      </trkpt>
      <trkpt lat="45.90525" lon="6.76429">
        <ele>1097</ele>
        <time>2018-05-08T14:09:45Z</time>
      </trkpt>
      <trkpt lat="45.90522" lon="6.76447">
        <ele>1097</ele>
        <time>2018-05-08T14:10:45Z</time>
      </trkpt>
      <trkpt lat="45.90523" lon="6.76464">
        <ele>1097</ele>
        <time>2018-05-08T14:11:45Z</time>
      </trkpt>
      <trkpt lat="45.90526" lon="6.76475">
        <ele>1097</ele>
        <time>2018-05-08T14:12:45Z</time>
      </trkpt>
      <trkpt lat="45.90533" lon="6.76481">
        <ele>1096</ele>
        <time>2018-05-08T14:13:45Z</time>
      </trkpt>
      <trkpt lat="45.90547" lon="6.76485">
        <ele>1094</ele>
        <time>2018-05-08T14:14:45Z</time>
      </trkpt>
      <trkpt lat="45.9056" lon="6.76489">
        <ele>1091</ele>
        <time>2018-05-08T14:15:45Z</time>
      </trkpt>
      <trkpt lat="45.9057" lon="6.76496">
        <ele>1089</ele>
        <time>2018-05-08T14:16:45Z</time>
      </trkpt>
      <trkpt lat="45.90578" lon="6.76507">
        <ele>1089</ele>
        <time>2018-05-08T14:17:45Z</time>
      </trkpt>
      <trkpt lat="45.90582" lon="6.76522">
        <ele>1092</ele>
        <time>2018-05-08T14:18:45Z</time>
      </trkpt>
      <trkpt lat="45.90581" lon="6.76542">
        <ele>1094</ele>
        <time>2018-05-08T14:19:45Z</time>
      </trkpt>
      <trkpt lat="45.90577" lon="6.76565">
        <ele>1093</ele>
        <time>2018-05-08T14:20:45Z</time>
      </trkpt>
      <trkpt lat="45.9057" lon="6.76589">
        <ele>1093</ele>
        <time>2018-05-08T14:21:45Z</time>
      </trkpt>
      <trkpt lat="45.9056" lon="6.76607">
        <ele>1097</ele>
        <time>2018-05-08T14:22:45Z</time>
      </trkpt>
      <trkpt lat="45.90551" lon="6.76624">
        <ele>1099</ele>
        <time>2018-05-08T14:23:45Z</time>
      </trkpt>
      <trkpt lat="45.90537" lon="6.76648">
        <ele>1102</ele>
        <time>2018-05-08T14:24:45Z</time>
      </trkpt>
      <trkpt lat="45.90531" lon="6.7666">
        <ele>1105</ele>
        <time>2018-05-08T14:25:45Z</time>
      </trkpt>
      <trkpt lat="45.90528" lon="6.76664">
        <ele>1106</ele>
        <time>2018-05-08T14:26:45Z</time>
      </trkpt>
      <trkpt lat="45.90523" lon="6.76667">
        <ele>1107</ele>
        <time>2018-05-08T14:27:45Z</time>
      </trkpt>
      <trkpt lat="45.90515" lon="6.76669">
        <ele>1111</ele>
        <time>2018-05-08T14:28:45Z</time>
      </trkpt>
      <trkpt lat="45.90512" lon="6.76671">
        <ele>1112</ele>
        <time>2018-05-08T14:29:45Z</time>
      </trkpt>
      <trkpt lat="45.90509" lon="6.76674">
        <ele>1113</ele>
        <time>2018-05-08T14:30:45Z</time>
      </trkpt>
      <trkpt lat="45.90505" lon="6.76687">
        <ele>1110</ele>
        <time>2018-05-08T14:31:45Z</time>
      </trkpt>
      <trkpt lat="45.905" lon="6.76708">
        <ele>1107</ele>
        <time>2018-05-08T14:32:45Z</time>
      </trkpt>
      <trkpt lat="45.90493" lon="6.76729">
        <ele>1131</ele>
        <time>2018-05-08T14:33:45Z</time>
      </trkpt>
      <trkpt lat="45.90484" lon="6.76743">
        <ele>1131</ele>
        <time>2018-05-08T14:34:45Z</time>
      </trkpt>
      <trkpt lat="45.90478" lon="6.76753">
        <ele>1133</ele>
        <time>2018-05-08T14:35:45Z</time>
      </trkpt>
      <trkpt lat="45.90475" lon="6.76765">
        <ele>1135</ele>
        <time>2018-05-08T14:36:45Z</time>
      </trkpt>
      <trkpt lat="45.90475" lon="6.76776">
        <ele>1136</ele>
        <time>2018-05-08T14:37:45Z</time>
      </trkpt>
      <trkpt lat="45.90478" lon="6.76789">
        <ele>1136</ele>
        <time>2018-05-08T14:38:45Z</time>
      </trkpt>
      <trkpt lat="45.90481" lon="6.768">
        <ele>1135</ele>
        <time>2018-05-08T14:39:45Z</time>
      </trkpt>
      <trkpt lat="45.90482" lon="6.76809">
        <ele>1134</ele>
        <time>2018-05-08T14:40:45Z</time>
      </trkpt>
      <trkpt lat="45.90481" lon="6.7682">
        <ele>1132</ele>
        <time>2018-05-08T14:41:45Z</time>
      </trkpt>
      <trkpt lat="45.90477" lon="6.76835">
        <ele>1133</ele>
        <time>2018-05-08T14:42:45Z</time>
      </trkpt>
      <trkpt lat="45.90475" lon="6.76858">
        <ele>1135</ele>
        <time>2018-05-08T14:43:45Z</time>
      </trkpt>
      <trkpt lat="45.90472" lon="6.76881">
        <ele>1137</ele>
        <time>2018-05-08T14:44:45Z</time>
      </trkpt>
      <trkpt lat="45.90472" lon="6.769">
        <ele>1136</ele>
        <time>2018-05-08T14:45:45Z</time>
      </trkpt>
      <trkpt lat="45.90474" lon="6.76915">
        <ele>1134</ele>
        <time>2018-05-08T14:46:45Z</time>
      </trkpt>
      <trkpt lat="45.90481" lon="6.7693">
        <ele>1132</ele>
        <time>2018-05-08T14:47:45Z</time>
      </trkpt>
      <trkpt lat="45.90492" lon="6.76957">
        <ele>1133</ele>
        <time>2018-05-08T14:48:45Z</time>
      </trkpt>
      <trkpt lat="45.90503" lon="6.76986">
        <ele>1107</ele>
        <time>2018-05-08T14:49:45Z</time>
      </trkpt>
      <trkpt lat="45.90511" lon="6.77003">
        <ele>1108</ele>
        <time>2018-05-08T14:50:45Z</time>
      </trkpt>
      <trkpt lat="45.90516" lon="6.77013">
        <ele>1101</ele>
        <time>2018-05-08T14:51:45Z</time>
      </trkpt>
      <trkpt lat="45.90517" lon="6.77018">
        <ele>1099</ele>
        <time>2018-05-08T14:52:45Z</time>
      </trkpt>
      <trkpt lat="45.90516" lon="6.77028">
        <ele>1097</ele>
        <time>2018-05-08T14:53:45Z</time>
      </trkpt>
      <trkpt lat="45.90513" lon="6.77035">
        <ele>1096</ele>
        <time>2018-05-08T14:54:45Z</time>
      </trkpt>
      <trkpt lat="45.90507" lon="6.77042">
        <ele>1097</ele>
        <time>2018-05-08T14:55:45Z</time>
      </trkpt>
      <trkpt lat="45.90491" lon="6.77054">
        <ele>1123</ele>
        <time>2018-05-08T14:56:45Z</time>
      </trkpt>
      <trkpt lat="45.90475" lon="6.77067">
        <ele>1124</ele>
        <time>2018-05-08T14:57:45Z</time>
      </trkpt>
      <trkpt lat="45.90465" lon="6.77081">
        <ele>1126</ele>
        <time>2018-05-08T14:58:45Z</time>
      </trkpt>
      <trkpt lat="45.90458" lon="6.77098">
        <ele>1116</ele>
        <time>2018-05-08T14:59:45Z</time>
      </trkpt>
      <trkpt lat="45.90454" lon="6.77122">
        <ele>1114</ele>
        <time>2018-05-08T15:00:45Z</time>
      </trkpt>
      <trkpt lat="45.9045" lon="6.77138">
        <ele>1113</ele>
        <time>2018-05-08T15:01:45Z</time>
      </trkpt>
      <trkpt lat="45.90445" lon="6.77152">
        <ele>1113</ele>
        <time>2018-05-08T15:02:45Z</time>
      </trkpt>
      <trkpt lat="45.90436" lon="6.77163">
        <ele>1114</ele>
        <time>2018-05-08T15:03:45Z</time>
      </trkpt>
      <trkpt lat="45.90428" lon="6.77177">
        <ele>1107</ele>
        <time>2018-05-08T15:04:45Z</time>
      </trkpt>
      <trkpt lat="45.90419" lon="6.77197">
        <ele>1102</ele>
        <time>2018-05-08T15:05:45Z</time>
      </trkpt>
      <trkpt lat="45.90409" lon="6.77217">
        <ele>1109</ele>
        <time>2018-05-08T15:06:45Z</time>
      </trkpt>
      <trkpt lat="45.90396" lon="6.77235">
        <ele>1107</ele>
        <time>2018-05-08T15:07:45Z</time>
      </trkpt>
      <trkpt lat="45.90386" lon="6.77244">
        <ele>1108</ele>
        <time>2018-05-08T15:08:45Z</time>
      </trkpt>
      <trkpt lat="45.90385" lon="6.77244">
        <ele>1108</ele>
        <time>2018-05-08T15:09:45Z</time>
      </trkpt>
      <trkpt lat="45.90385" lon="6.77244">
        <ele>1108</ele>
        <time>2018-05-08T15:10:45Z</time>
      </trkpt>
      <trkpt lat="45.90372" lon="6.77252">
        <ele>1098</ele>
        <time>2018-05-08T15:11:45Z</time>
      </trkpt>
      <trkpt lat="45.90353" lon="6.77257">
        <ele>1101</ele>
        <time>2018-05-08T15:12:45Z</time>
      </trkpt>
      <trkpt lat="45.90322" lon="6.77268">
        <ele>1106</ele>
        <time>2018-05-08T15:13:45Z</time>
      </trkpt>
      <trkpt lat="45.90293" lon="6.77282">
        <ele>1105</ele>
        <time>2018-05-08T15:14:45Z</time>
      </trkpt>
      <trkpt lat="45.90265" lon="6.77299">
        <ele>1105</ele>
        <time>2018-05-08T15:15:45Z</time>
      </trkpt>
      <trkpt lat="45.90244" lon="6.77312">
        <ele>1110</ele>
        <time>2018-05-08T15:16:45Z</time>
      </trkpt>
      <trkpt lat="45.90231" lon="6.77321">
        <ele>1110</ele>
        <time>2018-05-08T15:17:45Z</time>
      </trkpt>
      <trkpt lat="45.9022" lon="6.77334">
        <ele>1101</ele>
        <time>2018-05-08T15:18:45Z</time>
      </trkpt>
      <trkpt lat="45.90208" lon="6.77352">
        <ele>1101</ele>
        <time>2018-05-08T15:19:45Z</time>
      </trkpt>
      <trkpt lat="45.90195" lon="6.77368">
        <ele>1101</ele>
        <time>2018-05-08T15:20:45Z</time>
      </trkpt>
      <trkpt lat="45.90183" lon="6.77383">
        <ele>1099</ele>
        <time>2018-05-08T15:21:45Z</time>
      </trkpt>
      <trkpt lat="45.90178" lon="6.77396">
        <ele>1098</ele>
        <time>2018-05-08T15:22:45Z</time>
      </trkpt>
      <trkpt lat="45.9017" lon="6.77408">
        <ele>1096</ele>
        <time>2018-05-08T15:23:45Z</time>
      </trkpt>
      <trkpt lat="45.90157" lon="6.77421">
        <ele>1090</ele>
        <time>2018-05-08T15:24:45Z</time>
      </trkpt>
      <trkpt lat="45.90143" lon="6.77428">
        <ele>1085</ele>
        <time>2018-05-08T15:25:45Z</time>
      </trkpt>
      <trkpt lat="45.90131" lon="6.77432">
        <ele>1083</ele>
        <time>2018-05-08T15:26:45Z</time>
      </trkpt>
      <trkpt lat="45.90115" lon="6.77432">
        <ele>1082</ele>
        <time>2018-05-08T15:27:45Z</time>
      </trkpt>
      <trkpt lat="45.90094" lon="6.77427">
        <ele>1084</ele>
        <time>2018-05-08T15:28:45Z</time>
      </trkpt>
      <trkpt lat="45.90078" lon="6.77423">
        <ele>1080</ele>
        <time>2018-05-08T15:29:45Z</time>
      </trkpt>
      <trkpt lat="45.90066" lon="6.77419">
        <ele>1074</ele>
        <time>2018-05-08T15:30:45Z</time>
      </trkpt>
      <trkpt lat="45.90053" lon="6.7741">
        <ele>1086</ele>
        <time>2018-05-08T15:31:45Z</time>
      </trkpt>
      <trkpt lat="45.90028" lon="6.77389">
        <ele>1084</ele>
        <time>2018-05-08T15:32:45Z</time>
      </trkpt>
      <trkpt lat="45.90011" lon="6.77368">
        <ele>1087</ele>
        <time>2018-05-08T15:33:45Z</time>
      </trkpt>
      <trkpt lat="45.9" lon="6.77358">
        <ele>1075</ele>
        <time>2018-05-08T15:34:45Z</time>
      </trkpt>
      <trkpt lat="45.89977" lon="6.77333">
        <ele>1089</ele>
        <time>2018-05-08T15:35:45Z</time>
      </trkpt>
      <trkpt lat="45.89958" lon="6.77316">
        <ele>1086</ele>
        <time>2018-05-08T15:36:45Z</time>
      </trkpt>
      <trkpt lat="45.89932" lon="6.77296">
        <ele>1084</ele>
        <time>2018-05-08T15:37:45Z</time>
      </trkpt>
      <trkpt lat="45.89904" lon="6.77276">
        <ele>1072</ele>
        <time>2018-05-08T15:38:45Z</time>
      </trkpt>
      <trkpt lat="45.89881" lon="6.77263">
        <ele>1069</ele>
        <time>2018-05-08T15:39:45Z</time>
      </trkpt>
      <trkpt lat="45.89858" lon="6.7725">
        <ele>1081</ele>
        <time>2018-05-08T15:40:45Z</time>
      </trkpt>
      <trkpt lat="45.89835" lon="6.77242">
        <ele>1073</ele>
        <time>2018-05-08T15:41:45Z</time>
      </trkpt>
      <trkpt lat="45.89812" lon="6.77234">
        <ele>1070</ele>
        <time>2018-05-08T15:42:45Z</time>
      </trkpt>
      <trkpt lat="45.89788" lon="6.7723">
        <ele>1069</ele>
        <time>2018-05-08T15:43:45Z</time>
      </trkpt>
      <trkpt lat="45.89767" lon="6.7723">
        <ele>1066</ele>
        <time>2018-05-08T15:44:45Z</time>
      </trkpt>
      <trkpt lat="45.89752" lon="6.77233">
        <ele>1063</ele>
        <time>2018-05-08T15:45:45Z</time>
      </trkpt>
      <trkpt lat="45.8974" lon="6.7724">
        <ele>1061</ele>
        <time>2018-05-08T15:46:45Z</time>
      </trkpt>
      <trkpt lat="45.8973" lon="6.77252">
        <ele>1054</ele>
        <time>2018-05-08T15:47:45Z</time>
      </trkpt>
      <trkpt lat="45.89724" lon="6.77272">
        <ele>1054</ele>
        <time>2018-05-08T15:48:45Z</time>
      </trkpt>
      <trkpt lat="45.89723" lon="6.77276">
        <ele>1053</ele>
        <time>2018-05-08T15:49:45Z</time>
      </trkpt>
      <trkpt lat="45.89716" lon="6.77304">
        <ele>1052</ele>
        <time>2018-05-08T15:50:45Z</time>
      </trkpt>
      <trkpt lat="45.8971" lon="6.77338">
        <ele>1046</ele>
        <time>2018-05-08T15:51:45Z</time>
      </trkpt>
      <trkpt lat="45.89706" lon="6.77378">
        <ele>1045</ele>
        <time>2018-05-08T15:52:45Z</time>
      </trkpt>
      <trkpt lat="45.897" lon="6.77449">
        <ele>1039</ele>
        <time>2018-05-08T15:53:45Z</time>
      </trkpt>
      <trkpt lat="45.89699" lon="6.77457">
        <ele>1038</ele>
        <time>2018-05-08T15:54:45Z</time>
      </trkpt>
      <trkpt lat="45.89693" lon="6.77524">
        <ele>1034</ele>
        <time>2018-05-08T15:55:45Z</time>
      </trkpt>
      <trkpt lat="45.89686" lon="6.77599">
        <ele>1033</ele>
        <time>2018-05-08T15:56:45Z</time>
      </trkpt>
      <trkpt lat="45.89683" lon="6.77625">
        <ele>1032</ele>
        <time>2018-05-08T15:57:45Z</time>
      </trkpt>
      <trkpt lat="45.89683" lon="6.77632">
        <ele>1032</ele>
        <time>2018-05-08T15:58:45Z</time>
      </trkpt>
      <trkpt lat="45.89683" lon="6.77632">
        <ele>1032</ele>
        <time>2018-05-08T15:59:45Z</time>
      </trkpt>
      <trkpt lat="45.89683" lon="6.77642">
        <ele>1032</ele>
        <time>2018-05-08T16:00:45Z</time>
      </trkpt>
      <trkpt lat="45.89681" lon="6.77661">
        <ele>1033</ele>
        <time>2018-05-08T16:01:45Z</time>
      </trkpt>
      <trkpt lat="45.89673" lon="6.77741">
        <ele>1029</ele>
        <time>2018-05-08T16:02:45Z</time>
      </trkpt>
      <trkpt lat="45.89669" lon="6.77775">
        <ele>1026</ele>
        <time>2018-05-08T16:03:45Z</time>
      </trkpt>
      <trkpt lat="45.89662" lon="6.77804">
        <ele>1029</ele>
        <time>2018-05-08T16:04:45Z</time>
      </trkpt>
      <trkpt lat="45.89656" lon="6.77821">
        <ele>1028</ele>
        <time>2018-05-08T16:05:45Z</time>
      </trkpt>
      <trkpt lat="45.89649" lon="6.77838">
        <ele>1025</ele>
        <time>2018-05-08T16:06:45Z</time>
      </trkpt>
      <trkpt lat="45.89639" lon="6.77855">
        <ele>1025</ele>
        <time>2018-05-08T16:07:45Z</time>
      </trkpt>
      <trkpt lat="45.89633" lon="6.77867">
        <ele>1025</ele>
        <time>2018-05-08T16:08:45Z</time>
      </trkpt>
      <trkpt lat="45.89611" lon="6.77904">
        <ele>1024</ele>
        <time>2018-05-08T16:09:45Z</time>
      </trkpt>
      <trkpt lat="45.89601" lon="6.77921">
        <ele>1021</ele>
        <time>2018-05-08T16:10:45Z</time>
      </trkpt>
      <trkpt lat="45.89585" lon="6.77951">
        <ele>1020</ele>
        <time>2018-05-08T16:11:45Z</time>
      </trkpt>
      <trkpt lat="45.8955" lon="6.78014">
        <ele>1021</ele>
        <time>2018-05-08T16:12:45Z</time>
      </trkpt>
      <trkpt lat="45.89524" lon="6.78062">
        <ele>1020</ele>
        <time>2018-05-08T16:13:45Z</time>
      </trkpt>
      <trkpt lat="45.89518" lon="6.78072">
        <ele>1020</ele>
        <time>2018-05-08T16:14:45Z</time>
      </trkpt>
      <trkpt lat="45.89504" lon="6.78108">
        <ele>1016</ele>
        <time>2018-05-08T16:15:45Z</time>
      </trkpt>
      <trkpt lat="45.89503" lon="6.78112">
        <ele>1016</ele>
        <time>2018-05-08T16:16:45Z</time>
      </trkpt>
      <trkpt lat="45.89502" lon="6.78117">
        <ele>1015</ele>
        <time>2018-05-08T16:17:45Z</time>
      </trkpt>
      <trkpt lat="45.89501" lon="6.78131">
        <ele>1014</ele>
        <time>2018-05-08T16:18:45Z</time>
      </trkpt>
      <trkpt lat="45.89501" lon="6.78131">
        <ele>1014</ele>
        <time>2018-05-08T16:19:45Z</time>
      </trkpt>
      <trkpt lat="45.89499" lon="6.78131">
        <ele>1018</ele>
        <time>2018-05-08T16:20:45Z</time>
      </trkpt>
      <trkpt lat="45.89498" lon="6.78133">
        <ele>1018</ele>
        <time>2018-05-08T16:21:45Z</time>
      </trkpt>
      <trkpt lat="45.89498" lon="6.78135">
        <ele>1018</ele>
        <time>2018-05-08T16:22:45Z</time>
      </trkpt>
      <trkpt lat="45.89497" lon="6.78137">
        <ele>1018</ele>
        <time>2018-05-08T16:23:45Z</time>
      </trkpt>
      <trkpt lat="45.89497" lon="6.78139">
        <ele>1018</ele>
        <time>2018-05-08T16:24:45Z</time>
      </trkpt>
      <trkpt lat="45.89497" lon="6.78142">
        <ele>1017</ele>
        <time>2018-05-08T16:25:45Z</time>
      </trkpt>
      <trkpt lat="45.89497" lon="6.78144">
        <ele>1017</ele>
        <time>2018-05-08T16:26:45Z</time>
      </trkpt>
      <trkpt lat="45.89497" lon="6.78146">
        <ele>1017</ele>
        <time>2018-05-08T16:27:45Z</time>
      </trkpt>
      <trkpt lat="45.89498" lon="6.78149">
        <ele>1017</ele>
        <time>2018-05-08T16:28:45Z</time>
      </trkpt>
      <trkpt lat="45.89493" lon="6.78155">
        <ele>1016</ele>
        <time>2018-05-08T16:29:45Z</time>
      </trkpt>
      <trkpt lat="45.89489" lon="6.78161">
        <ele>1016</ele>
        <time>2018-05-08T16:30:45Z</time>
      </trkpt>
      <trkpt lat="45.89488" lon="6.78164">
        <ele>1016</ele>
        <time>2018-05-08T16:31:45Z</time>
      </trkpt>
      <trkpt lat="45.89487" lon="6.78166">
        <ele>1016</ele>
        <time>2018-05-08T16:32:45Z</time>
      </trkpt>
      <trkpt lat="45.89485" lon="6.78173">
        <ele>1015</ele>
        <time>2018-05-08T16:33:45Z</time>
      </trkpt>
      <trkpt lat="45.89476" lon="6.782">
        <ele>1016</ele>
        <time>2018-05-08T16:34:45Z</time>
      </trkpt>
      <trkpt lat="45.89472" lon="6.78216">
        <ele>1016</ele>
        <time>2018-05-08T16:35:45Z</time>
      </trkpt>
      <trkpt lat="45.89466" lon="6.78238">
        <ele>1016</ele>
        <time>2018-05-08T16:36:45Z</time>
      </trkpt>
      <trkpt lat="45.89456" lon="6.78281">
        <ele>1014</ele>
        <time>2018-05-08T16:37:45Z</time>
      </trkpt>
      <trkpt lat="45.89456" lon="6.78281">
        <ele>1014</ele>
        <time>2018-05-08T16:38:45Z</time>
      </trkpt>
      <trkpt lat="45.8945" lon="6.78298">
        <ele>1013</ele>
        <time>2018-05-08T16:39:45Z</time>
      </trkpt>
      <trkpt lat="45.89444" lon="6.7831">
        <ele>1013</ele>
        <time>2018-05-08T16:40:45Z</time>
      </trkpt>
      <trkpt lat="45.89433" lon="6.78326">
        <ele>1013</ele>
        <time>2018-05-08T16:41:45Z</time>
      </trkpt>
      <trkpt lat="45.89419" lon="6.78341">
        <ele>1012</ele>
        <time>2018-05-08T16:42:45Z</time>
      </trkpt>
      <trkpt lat="45.89416" lon="6.78344">
        <ele>1015</ele>
        <time>2018-05-08T16:43:45Z</time>
      </trkpt>
      <trkpt lat="45.89406" lon="6.78355">
        <ele>1017</ele>
        <time>2018-05-08T16:44:45Z</time>
      </trkpt>
      <trkpt lat="45.89397" lon="6.78368">
        <ele>1017</ele>
        <time>2018-05-08T16:45:45Z</time>
      </trkpt>
      <trkpt lat="45.89394" lon="6.78374">
        <ele>1018</ele>
        <time>2018-05-08T16:46:45Z</time>
      </trkpt>
      <trkpt lat="45.89387" lon="6.78388">
        <ele>1018</ele>
        <time>2018-05-08T16:47:45Z</time>
      </trkpt>
      <trkpt lat="45.89375" lon="6.78414">
        <ele>1018</ele>
        <time>2018-05-08T16:48:45Z</time>
      </trkpt>
      <trkpt lat="45.89364" lon="6.78435">
        <ele>1013</ele>
        <time>2018-05-08T16:49:45Z</time>
      </trkpt>
      <trkpt lat="45.89352" lon="6.78453">
        <ele>1012</ele>
        <time>2018-05-08T16:50:45Z</time>
      </trkpt>
      <trkpt lat="45.89336" lon="6.78469">
        <ele>1011</ele>
        <time>2018-05-08T16:51:45Z</time>
      </trkpt>
      <trkpt lat="45.89315" lon="6.7849">
        <ele>1018</ele>
        <time>2018-05-08T16:52:45Z</time>
      </trkpt>
      <trkpt lat="45.893" lon="6.78504">
        <ele>1011</ele>
        <time>2018-05-08T16:53:45Z</time>
      </trkpt>
      <trkpt lat="45.89282" lon="6.78519">
        <ele>1011</ele>
        <time>2018-05-08T16:54:45Z</time>
      </trkpt>
      <trkpt lat="45.89271" lon="6.7853">
        <ele>1011</ele>
        <time>2018-05-08T16:55:45Z</time>
      </trkpt>
      <trkpt lat="45.89265" lon="6.78538">
        <ele>1010</ele>
        <time>2018-05-08T16:56:45Z</time>
      </trkpt>
      <trkpt lat="45.89261" lon="6.78543">
        <ele>1010</ele>
        <time>2018-05-08T16:57:45Z</time>
      </trkpt>
      <trkpt lat="45.89248" lon="6.78562">
        <ele>1011</ele>
        <time>2018-05-08T16:58:45Z</time>
      </trkpt>
      <trkpt lat="45.89237" lon="6.78576">
        <ele>1009</ele>
        <time>2018-05-08T16:59:45Z</time>
      </trkpt>
      <trkpt lat="45.89226" lon="6.78587">
        <ele>1002</ele>
        <time>2018-05-08T17:00:45Z</time>
      </trkpt>
      <trkpt lat="45.89216" lon="6.78594">
        <ele>1002</ele>
        <time>2018-05-08T17:01:45Z</time>
      </trkpt>
      <trkpt lat="45.89205" lon="6.78598">
        <ele>1002</ele>
        <time>2018-05-08T17:02:45Z</time>
      </trkpt>
      <trkpt lat="45.89198" lon="6.786">
        <ele>1002</ele>
        <time>2018-05-08T17:03:45Z</time>
      </trkpt>
      <trkpt lat="45.89181" lon="6.78604">
        <ele>1003</ele>
        <time>2018-05-08T17:04:45Z</time>
      </trkpt>
      <trkpt lat="45.89167" lon="6.78604">
        <ele>1004</ele>
        <time>2018-05-08T17:05:45Z</time>
      </trkpt>
      <trkpt lat="45.89153" lon="6.78602">
        <ele>1007</ele>
        <time>2018-05-08T17:06:45Z</time>
      </trkpt>
      <trkpt lat="45.89138" lon="6.78599">
        <ele>1008</ele>
        <time>2018-05-08T17:07:45Z</time>
      </trkpt>
      <trkpt lat="45.89127" lon="6.78598">
        <ele>1008</ele>
        <time>2018-05-08T17:08:45Z</time>
      </trkpt>
      <trkpt lat="45.89116" lon="6.78601">
        <ele>1009</ele>
        <time>2018-05-08T17:09:45Z</time>
      </trkpt>
      <trkpt lat="45.89105" lon="6.78608">
        <ele>1009</ele>
        <time>2018-05-08T17:10:45Z</time>
      </trkpt>
      <trkpt lat="45.8909" lon="6.78621">
        <ele>1008</ele>
        <time>2018-05-08T17:11:45Z</time>
      </trkpt>
      <trkpt lat="45.89075" lon="6.78638">
        <ele>1013</ele>
        <time>2018-05-08T17:12:45Z</time>
      </trkpt>
      <trkpt lat="45.89068" lon="6.78646">
        <ele>1012</ele>
        <time>2018-05-08T17:13:45Z</time>
      </trkpt>
      <trkpt lat="45.89056" lon="6.78669">
        <ele>1004</ele>
        <time>2018-05-08T17:14:45Z</time>
      </trkpt>
      <trkpt lat="45.89046" lon="6.78693">
        <ele>1005</ele>
        <time>2018-05-08T17:15:45Z</time>
      </trkpt>
      <trkpt lat="45.89035" lon="6.78723">
        <ele>1004</ele>
        <time>2018-05-08T17:16:45Z</time>
      </trkpt>
      <trkpt lat="45.89021" lon="6.78766">
        <ele>998</ele>
        <time>2018-05-08T17:17:45Z</time>
      </trkpt>
      <trkpt lat="45.89009" lon="6.78806">
        <ele>997</ele>
        <time>2018-05-08T17:18:45Z</time>
      </trkpt>
      <trkpt lat="45.89" lon="6.78833">
        <ele>999</ele>
        <time>2018-05-08T17:19:45Z</time>
      </trkpt>
      <trkpt lat="45.88985" lon="6.78895">
        <ele>999</ele>
        <time>2018-05-08T17:20:45Z</time>
      </trkpt>
      <trkpt lat="45.88985" lon="6.78895">
        <ele>999</ele>
        <time>2018-05-08T17:21:45Z</time>
      </trkpt>
      <trkpt lat="45.88976" lon="6.78916">
        <ele>999</ele>
        <time>2018-05-08T17:22:45Z</time>
      </trkpt>
      <trkpt lat="45.88975" lon="6.78919">
        <ele>997</ele>
        <time>2018-05-08T17:23:45Z</time>
      </trkpt>
      <trkpt lat="45.88971" lon="6.78934">
        <ele>997</ele>
        <time>2018-05-08T17:24:45Z</time>
      </trkpt>
      <trkpt lat="45.88959" lon="6.78979">
        <ele>998</ele>
        <time>2018-05-08T17:25:45Z</time>
      </trkpt>
      <trkpt lat="45.88956" lon="6.78989">
        <ele>998</ele>
        <time>2018-05-08T17:26:45Z</time>
      </trkpt>
      <trkpt lat="45.88952" lon="6.79004">
        <ele>999</ele>
        <time>2018-05-08T17:27:45Z</time>
      </trkpt>
      <trkpt lat="45.88945" lon="6.79029">
        <ele>1000</ele>
        <time>2018-05-08T17:28:45Z</time>
      </trkpt>
      <trkpt lat="45.88943" lon="6.79035">
        <ele>1000</ele>
        <time>2018-05-08T17:29:45Z</time>
      </trkpt>
      <trkpt lat="45.8894" lon="6.79048">
        <ele>1001</ele>
        <time>2018-05-08T17:30:45Z</time>
      </trkpt>
      <trkpt lat="45.88938" lon="6.79055">
        <ele>1001</ele>
        <time>2018-05-08T17:31:45Z</time>
      </trkpt>
      <trkpt lat="45.88935" lon="6.79079">
        <ele>1004</ele>
        <time>2018-05-08T17:32:45Z</time>
      </trkpt>
      <trkpt lat="45.8893" lon="6.79125">
        <ele>1002</ele>
        <time>2018-05-08T17:33:45Z</time>
      </trkpt>
      <trkpt lat="45.88926" lon="6.79178">
        <ele>1004</ele>
        <time>2018-05-08T17:34:45Z</time>
      </trkpt>
      <trkpt lat="45.88925" lon="6.79185">
        <ele>1004</ele>
        <time>2018-05-08T17:35:45Z</time>
      </trkpt>
      <trkpt lat="45.88924" lon="6.79206">
        <ele>1003</ele>
        <time>2018-05-08T17:36:45Z</time>
      </trkpt>
      <trkpt lat="45.88924" lon="6.79234">
        <ele>1005</ele>
        <time>2018-05-08T17:37:45Z</time>
      </trkpt>
      <trkpt lat="45.88926" lon="6.79261">
        <ele>1007</ele>
        <time>2018-05-08T17:38:45Z</time>
      </trkpt>
      <trkpt lat="45.88932" lon="6.79307">
        <ele>1007</ele>
        <time>2018-05-08T17:39:45Z</time>
      </trkpt>
      <trkpt lat="45.88932" lon="6.79312">
        <ele>1007</ele>
        <time>2018-05-08T17:40:45Z</time>
      </trkpt>
      <trkpt lat="45.88935" lon="6.79343">
        <ele>1011</ele>
        <time>2018-05-08T17:41:45Z</time>
      </trkpt>
      <trkpt lat="45.88937" lon="6.79372">
        <ele>1011</ele>
        <time>2018-05-08T17:42:45Z</time>
      </trkpt>
      <trkpt lat="45.88937" lon="6.79384">
        <ele>1012</ele>
        <time>2018-05-08T17:43:45Z</time>
      </trkpt>
      <trkpt lat="45.88937" lon="6.79409">
        <ele>1015</ele>
        <time>2018-05-08T17:44:45Z</time>
      </trkpt>
      <trkpt lat="45.88934" lon="6.79445">
        <ele>1014</ele>
        <time>2018-05-08T17:45:45Z</time>
      </trkpt>
      <trkpt lat="45.88929" lon="6.7948">
        <ele>1016</ele>
        <time>2018-05-08T17:46:45Z</time>
      </trkpt>
      <trkpt lat="45.88924" lon="6.79515">
        <ele>1016</ele>
        <time>2018-05-08T17:47:45Z</time>
      </trkpt>
      <trkpt lat="45.88924" lon="6.79538">
        <ele>1012</ele>
        <time>2018-05-08T17:48:45Z</time>
      </trkpt>
      <trkpt lat="45.88927" lon="6.79563">
        <ele>1011</ele>
        <time>2018-05-08T17:49:45Z</time>
      </trkpt>
      <trkpt lat="45.88931" lon="6.79593">
        <ele>1011</ele>
        <time>2018-05-08T17:50:45Z</time>
      </trkpt>
      <trkpt lat="45.88935" lon="6.79632">
        <ele>1009</ele>
        <time>2018-05-08T17:51:45Z</time>
      </trkpt>
      <trkpt lat="45.88935" lon="6.79637">
        <ele>1009</ele>
        <time>2018-05-08T17:52:45Z</time>
      </trkpt>
      <trkpt lat="45.88935" lon="6.79642">
        <ele>1009</ele>
        <time>2018-05-08T17:53:45Z</time>
      </trkpt>
      <trkpt lat="45.88936" lon="6.79654">
        <ele>1009</ele>
        <time>2018-05-08T17:54:45Z</time>
      </trkpt>
      <trkpt lat="45.88938" lon="6.79672">
        <ele>1010</ele>
        <time>2018-05-08T17:55:45Z</time>
      </trkpt>
      <trkpt lat="45.8894" lon="6.79696">
        <ele>1010</ele>
        <time>2018-05-08T17:56:45Z</time>
      </trkpt>
      <trkpt lat="45.88945" lon="6.79716">
        <ele>1011</ele>
        <time>2018-05-08T17:57:45Z</time>
      </trkpt>
      <trkpt lat="45.88951" lon="6.79737">
        <ele>1011</ele>
        <time>2018-05-08T17:58:45Z</time>
      </trkpt>
      <trkpt lat="45.88953" lon="6.79741">
        <ele>1011</ele>
        <time>2018-05-08T17:59:45Z</time>
      </trkpt>
      <trkpt lat="45.8896" lon="6.79756">
        <ele>1013</ele>
        <time>2018-05-08T18:00:45Z</time>
      </trkpt>
      <trkpt lat="45.88971" lon="6.79772">
        <ele>1013</ele>
        <time>2018-05-08T18:01:45Z</time>
      </trkpt>
      <trkpt lat="45.88974" lon="6.79777">
        <ele>1013</ele>
        <time>2018-05-08T18:02:45Z</time>
      </trkpt>
      <trkpt lat="45.88992" lon="6.79803">
        <ele>1013</ele>
        <time>2018-05-08T18:03:45Z</time>
      </trkpt>
      <trkpt lat="45.88995" lon="6.79807">
        <ele>1013</ele>
        <time>2018-05-08T18:04:45Z</time>
      </trkpt>
      <trkpt lat="45.89004" lon="6.79816">
        <ele>1010</ele>
        <time>2018-05-08T18:05:45Z</time>
      </trkpt>
      <trkpt lat="45.89017" lon="6.79829">
        <ele>1010</ele>
        <time>2018-05-08T18:06:45Z</time>
      </trkpt>
      <trkpt lat="45.89021" lon="6.79833">
        <ele>1009</ele>
        <time>2018-05-08T18:07:45Z</time>
      </trkpt>
      <trkpt lat="45.89036" lon="6.79847">
        <ele>1012</ele>
        <time>2018-05-08T18:08:45Z</time>
      </trkpt>
      <trkpt lat="45.89049" lon="6.79856">
        <ele>1012</ele>
        <time>2018-05-08T18:09:45Z</time>
      </trkpt>
      <trkpt lat="45.89062" lon="6.79864">
        <ele>1011</ele>
        <time>2018-05-08T18:10:45Z</time>
      </trkpt>
      <trkpt lat="45.89074" lon="6.7987">
        <ele>1011</ele>
        <time>2018-05-08T18:11:45Z</time>
      </trkpt>
      <trkpt lat="45.89093" lon="6.79879">
        <ele>1008</ele>
        <time>2018-05-08T18:12:45Z</time>
      </trkpt>
      <trkpt lat="45.89123" lon="6.79888">
        <ele>1008</ele>
        <time>2018-05-08T18:13:45Z</time>
      </trkpt>
      <trkpt lat="45.89156" lon="6.79899">
        <ele>1008</ele>
        <time>2018-05-08T18:14:45Z</time>
      </trkpt>
      <trkpt lat="45.89173" lon="6.79905">
        <ele>1005</ele>
        <time>2018-05-08T18:15:45Z</time>
      </trkpt>
      <trkpt lat="45.8918" lon="6.7991">
        <ele>1004</ele>
        <time>2018-05-08T18:16:45Z</time>
      </trkpt>
      <trkpt lat="45.89183" lon="6.79911">
        <ele>1003</ele>
        <time>2018-05-08T18:17:45Z</time>
      </trkpt>
      <trkpt lat="45.89187" lon="6.79916">
        <ele>1003</ele>
        <time>2018-05-08T18:18:45Z</time>
      </trkpt>
      <trkpt lat="45.89193" lon="6.79921">
        <ele>1006</ele>
        <time>2018-05-08T18:19:45Z</time>
      </trkpt>
      <trkpt lat="45.89198" lon="6.79929">
        <ele>1006</ele>
        <time>2018-05-08T18:20:45Z</time>
      </trkpt>
      <trkpt lat="45.892" lon="6.79933">
        <ele>1005</ele>
        <time>2018-05-08T18:21:45Z</time>
      </trkpt>
      <trkpt lat="45.89204" lon="6.79939">
        <ele>1005</ele>
        <time>2018-05-08T18:22:45Z</time>
      </trkpt>
      <trkpt lat="45.89208" lon="6.79946">
        <ele>1005</ele>
        <time>2018-05-08T18:23:45Z</time>
      </trkpt>
      <trkpt lat="45.89213" lon="6.79954">
        <ele>1005</ele>
        <time>2018-05-08T18:24:45Z</time>
      </trkpt>
      <trkpt lat="45.89218" lon="6.79963">
        <ele>1005</ele>
        <time>2018-05-08T18:25:45Z</time>
      </trkpt>
      <trkpt lat="45.89223" lon="6.7997">
        <ele>1005</ele>
        <time>2018-05-08T18:26:45Z</time>
      </trkpt>
      <trkpt lat="45.89232" lon="6.79982">
        <ele>1005</ele>
        <time>2018-05-08T18:27:45Z</time>
      </trkpt>
      <trkpt lat="45.89237" lon="6.79986">
        <ele>1004</ele>
        <time>2018-05-08T18:28:45Z</time>
      </trkpt>
      <trkpt lat="45.8925" lon="6.79999">
        <ele>1003</ele>
        <time>2018-05-08T18:29:45Z</time>
      </trkpt>
      <trkpt lat="45.89252" lon="6.8">
        <ele>1002</ele>
        <time>2018-05-08T18:30:45Z</time>
      </trkpt>
      <trkpt lat="45.89279" lon="6.80024">
        <ele>1001</ele>
        <time>2018-05-08T18:31:45Z</time>
      </trkpt>
      <trkpt lat="45.89306" lon="6.80046">
        <ele>1000</ele>
        <time>2018-05-08T18:32:45Z</time>
      </trkpt>
      <trkpt lat="45.89323" lon="6.80063">
        <ele>1000</ele>
        <time>2018-05-08T18:33:45Z</time>
      </trkpt>
      <trkpt lat="45.89325" lon="6.80064">
        <ele>999</ele>
        <time>2018-05-08T18:34:45Z</time>
      </trkpt>
      <trkpt lat="45.89328" lon="6.80067">
        <ele>999</ele>
        <time>2018-05-08T18:35:45Z</time>
      </trkpt>
      <trkpt lat="45.8935" lon="6.80089">
        <ele>999</ele>
        <time>2018-05-08T18:36:45Z</time>
      </trkpt>
      <trkpt lat="45.89354" lon="6.80093">
        <ele>999</ele>
        <time>2018-05-08T18:37:45Z</time>
      </trkpt>
      <trkpt lat="45.89366" lon="6.80105">
        <ele>999</ele>
        <time>2018-05-08T18:38:45Z</time>
      </trkpt>
      <trkpt lat="45.89372" lon="6.80111">
        <ele>999</ele>
        <time>2018-05-08T18:39:45Z</time>
      </trkpt>
      <trkpt lat="45.8939" lon="6.80129">
        <ele>999</ele>
        <time>2018-05-08T18:40:45Z</time>
      </trkpt>
      <trkpt lat="45.89407" lon="6.80147">
        <ele>999</ele>
        <time>2018-05-08T18:41:45Z</time>
      </trkpt>
      <trkpt lat="45.89417" lon="6.80159">
        <ele>997</ele>
        <time>2018-05-08T18:42:45Z</time>
      </trkpt>
      <trkpt lat="45.89424" lon="6.8017">
        <ele>998</ele>
        <time>2018-05-08T18:43:45Z</time>
      </trkpt>
      <trkpt lat="45.89434" lon="6.80185">
        <ele>997</ele>
        <time>2018-05-08T18:44:45Z</time>
      </trkpt>
      <trkpt lat="45.89446" lon="6.80204">
        <ele>996</ele>
        <time>2018-05-08T18:45:45Z</time>
      </trkpt>
      <trkpt lat="45.89449" lon="6.8021">
        <ele>996</ele>
        <time>2018-05-08T18:46:45Z</time>
      </trkpt>
      <trkpt lat="45.89458" lon="6.80225">
        <ele>996</ele>
        <time>2018-05-08T18:47:45Z</time>
      </trkpt>
      <trkpt lat="45.89466" lon="6.80242">
        <ele>995</ele>
        <time>2018-05-08T18:48:45Z</time>
      </trkpt>
      <trkpt lat="45.89483" lon="6.80278">
        <ele>998</ele>
        <time>2018-05-08T18:49:45Z</time>
      </trkpt>
      <trkpt lat="45.89492" lon="6.803">
        <ele>998</ele>
        <time>2018-05-08T18:50:45Z</time>
      </trkpt>
      <trkpt lat="45.89498" lon="6.80313">
        <ele>998</ele>
        <time>2018-05-08T18:51:45Z</time>
      </trkpt>
      <trkpt lat="45.89518" lon="6.80361">
        <ele>996</ele>
        <time>2018-05-08T18:52:45Z</time>
      </trkpt>
      <trkpt lat="45.89529" lon="6.80388">
        <ele>996</ele>
        <time>2018-05-08T18:53:45Z</time>
      </trkpt>
      <trkpt lat="45.89541" lon="6.80418">
        <ele>998</ele>
        <time>2018-05-08T18:54:45Z</time>
      </trkpt>
      <trkpt lat="45.89559" lon="6.80468">
        <ele>997</ele>
        <time>2018-05-08T18:55:45Z</time>
      </trkpt>
      <trkpt lat="45.89559" lon="6.80468">
        <ele>997</ele>
        <time>2018-05-08T18:56:45Z</time>
      </trkpt>
      <trkpt lat="45.89558" lon="6.80472">
        <ele>997</ele>
        <time>2018-05-08T18:57:45Z</time>
      </trkpt>
      <trkpt lat="45.89559" lon="6.80476">
        <ele>997</ele>
        <time>2018-05-08T18:58:45Z</time>
      </trkpt>
      <trkpt lat="45.8956" lon="6.80479">
        <ele>997</ele>
        <time>2018-05-08T18:59:45Z</time>
      </trkpt>
      <trkpt lat="45.89562" lon="6.8048">
        <ele>997</ele>
        <time>2018-05-08T19:00:45Z</time>
      </trkpt>
      <trkpt lat="45.89565" lon="6.8048">
        <ele>997</ele>
        <time>2018-05-08T19:01:45Z</time>
      </trkpt>
      <trkpt lat="45.89571" lon="6.80515">
        <ele>996</ele>
        <time>2018-05-08T19:02:45Z</time>
      </trkpt>
      <trkpt lat="45.89577" lon="6.80571">
        <ele>996</ele>
        <time>2018-05-08T19:03:45Z</time>
      </trkpt>
      <trkpt lat="45.89579" lon="6.80595">
        <ele>997</ele>
        <time>2018-05-08T19:04:45Z</time>
      </trkpt>
      <trkpt lat="45.89581" lon="6.80637">
        <ele>999</ele>
        <time>2018-05-08T19:05:45Z</time>
      </trkpt>
      <trkpt lat="45.89587" lon="6.80707">
        <ele>996</ele>
        <time>2018-05-08T19:06:45Z</time>
      </trkpt>
      <trkpt lat="45.89589" lon="6.80772">
        <ele>996</ele>
        <time>2018-05-08T19:07:45Z</time>
      </trkpt>
      <trkpt lat="45.8959" lon="6.80783">
        <ele>996</ele>
        <time>2018-05-08T19:08:45Z</time>
      </trkpt>
      <trkpt lat="45.89594" lon="6.80846">
        <ele>998</ele>
        <time>2018-05-08T19:09:45Z</time>
      </trkpt>
      <trkpt lat="45.89597" lon="6.80893">
        <ele>998</ele>
        <time>2018-05-08T19:10:45Z</time>
      </trkpt>
      <trkpt lat="45.89599" lon="6.80913">
        <ele>999</ele>
        <time>2018-05-08T19:11:45Z</time>
      </trkpt>
      <trkpt lat="45.89605" lon="6.80943">
        <ele>1000</ele>
        <time>2018-05-08T19:12:45Z</time>
      </trkpt>
      <trkpt lat="45.89609" lon="6.80961">
        <ele>1001</ele>
        <time>2018-05-08T19:13:45Z</time>
      </trkpt>
      <trkpt lat="45.89617" lon="6.80982">
        <ele>1001</ele>
        <time>2018-05-08T19:14:45Z</time>
      </trkpt>
      <trkpt lat="45.89623" lon="6.81">
        <ele>1001</ele>
        <time>2018-05-08T19:15:45Z</time>
      </trkpt>
      <trkpt lat="45.8963" lon="6.81021">
        <ele>1002</ele>
        <time>2018-05-08T19:16:45Z</time>
      </trkpt>
      <trkpt lat="45.8964" lon="6.81043">
        <ele>1001</ele>
        <time>2018-05-08T19:17:45Z</time>
      </trkpt>
      <trkpt lat="45.8965" lon="6.8106">
        <ele>1001</ele>
        <time>2018-05-08T19:18:45Z</time>
      </trkpt>
      <trkpt lat="45.89666" lon="6.81086">
        <ele>999</ele>
        <time>2018-05-08T19:19:45Z</time>
      </trkpt>
      <trkpt lat="45.89677" lon="6.81107">
        <ele>998</ele>
        <time>2018-05-08T19:20:45Z</time>
      </trkpt>
      <trkpt lat="45.89687" lon="6.81132">
        <ele>998</ele>
        <time>2018-05-08T19:21:45Z</time>
      </trkpt>
      <trkpt lat="45.89693" lon="6.8115">
        <ele>998</ele>
        <time>2018-05-08T19:22:45Z</time>
      </trkpt>
      <trkpt lat="45.89696" lon="6.8116">
        <ele>998</ele>
        <time>2018-05-08T19:23:45Z</time>
      </trkpt>
      <trkpt lat="45.89697" lon="6.81166">
        <ele>998</ele>
        <time>2018-05-08T19:24:45Z</time>
      </trkpt>
      <trkpt lat="45.89699" lon="6.81172">
        <ele>1001</ele>
        <time>2018-05-08T19:25:45Z</time>
      </trkpt>
      <trkpt lat="45.89701" lon="6.81184">
        <ele>1001</ele>
        <time>2018-05-08T19:26:45Z</time>
      </trkpt>
      <trkpt lat="45.89701" lon="6.81186">
        <ele>1001</ele>
        <time>2018-05-08T19:27:45Z</time>
      </trkpt>
      <trkpt lat="45.89703" lon="6.81199">
        <ele>1001</ele>
        <time>2018-05-08T19:28:45Z</time>
      </trkpt>
      <trkpt lat="45.89703" lon="6.81203">
        <ele>1001</ele>
        <time>2018-05-08T19:29:45Z</time>
      </trkpt>
      <trkpt lat="45.89706" lon="6.81218">
        <ele>1001</ele>
        <time>2018-05-08T19:30:45Z</time>
      </trkpt>
      <trkpt lat="45.89707" lon="6.81236">
        <ele>1002</ele>
        <time>2018-05-08T19:31:45Z</time>
      </trkpt>
      <trkpt lat="45.89708" lon="6.81264">
        <ele>1003</ele>
        <time>2018-05-08T19:32:45Z</time>
      </trkpt>
      <trkpt lat="45.89708" lon="6.81273">
        <ele>1003</ele>
        <time>2018-05-08T19:33:45Z</time>
      </trkpt>
      <trkpt lat="45.89707" lon="6.81291">
        <ele>1003</ele>
        <time>2018-05-08T19:34:45Z</time>
      </trkpt>
      <trkpt lat="45.89706" lon="6.81306">
        <ele>1003</ele>
        <time>2018-05-08T19:35:45Z</time>
      </trkpt>
      <trkpt lat="45.89703" lon="6.81355">
        <ele>1004</ele>
        <time>2018-05-08T19:36:45Z</time>
      </trkpt>
      <trkpt lat="45.89701" lon="6.8138">
        <ele>1005</ele>
        <time>2018-05-08T19:37:45Z</time>
      </trkpt>
      <trkpt lat="45.89702" lon="6.81416">
        <ele>1005</ele>
        <time>2018-05-08T19:38:45Z</time>
      </trkpt>
      <trkpt lat="45.89704" lon="6.81446">
        <ele>1005</ele>
        <time>2018-05-08T19:39:45Z</time>
      </trkpt>
      <trkpt lat="45.89705" lon="6.81453">
        <ele>1005</ele>
        <time>2018-05-08T19:40:45Z</time>
      </trkpt>
      <trkpt lat="45.89707" lon="6.81466">
        <ele>1005</ele>
        <time>2018-05-08T19:41:45Z</time>
      </trkpt>
      <trkpt lat="45.89708" lon="6.81484">
        <ele>1005</ele>
        <time>2018-05-08T19:42:45Z</time>
      </trkpt>
      <trkpt lat="45.89715" lon="6.8155">
        <ele>1005</ele>
        <time>2018-05-08T19:43:45Z</time>
      </trkpt>
      <trkpt lat="45.89718" lon="6.81573">
        <ele>1005</ele>
        <time>2018-05-08T19:44:45Z</time>
      </trkpt>
      <trkpt lat="45.89722" lon="6.81606">
        <ele>1005</ele>
        <time>2018-05-08T19:45:45Z</time>
      </trkpt>
      <trkpt lat="45.89731" lon="6.81635">
        <ele>1005</ele>
        <time>2018-05-08T19:46:45Z</time>
      </trkpt>
      <trkpt lat="45.89738" lon="6.81656">
        <ele>1004</ele>
        <time>2018-05-08T19:47:45Z</time>
      </trkpt>
      <trkpt lat="45.89739" lon="6.81657">
        <ele>1004</ele>
        <time>2018-05-08T19:48:45Z</time>
      </trkpt>
      <trkpt lat="45.89744" lon="6.81676">
        <ele>1004</ele>
        <time>2018-05-08T19:49:45Z</time>
      </trkpt>
      <trkpt lat="45.89746" lon="6.81684">
        <ele>1005</ele>
        <time>2018-05-08T19:50:45Z</time>
      </trkpt>
      <trkpt lat="45.89752" lon="6.81702">
        <ele>999</ele>
        <time>2018-05-08T19:51:45Z</time>
      </trkpt>
      <trkpt lat="45.89755" lon="6.81712">
        <ele>998</ele>
        <time>2018-05-08T19:52:45Z</time>
      </trkpt>
      <trkpt lat="45.89756" lon="6.8172">
        <ele>999</ele>
        <time>2018-05-08T19:53:45Z</time>
      </trkpt>
      <trkpt lat="45.89755" lon="6.81727">
        <ele>999</ele>
        <time>2018-05-08T19:54:45Z</time>
      </trkpt>
      <trkpt lat="45.89754" lon="6.81736">
        <ele>1000</ele>
        <time>2018-05-08T19:55:45Z</time>
      </trkpt>
      <trkpt lat="45.89751" lon="6.81755">
        <ele>1001</ele>
        <time>2018-05-08T19:56:45Z</time>
      </trkpt>
      <trkpt lat="45.89744" lon="6.81791">
        <ele>1006</ele>
        <time>2018-05-08T19:57:45Z</time>
      </trkpt>
      <trkpt lat="45.89737" lon="6.81824">
        <ele>1006</ele>
        <time>2018-05-08T19:58:45Z</time>
      </trkpt>
      <trkpt lat="45.89735" lon="6.81836">
        <ele>1006</ele>
        <time>2018-05-08T19:59:45Z</time>
      </trkpt>
      <trkpt lat="45.89732" lon="6.81862">
        <ele>1007</ele>
        <time>2018-05-08T20:00:45Z</time>
      </trkpt>
      <trkpt lat="45.89729" lon="6.81891">
        <ele>1007</ele>
        <time>2018-05-08T20:01:45Z</time>
      </trkpt>
      <trkpt lat="45.89728" lon="6.81893">
        <ele>1007</ele>
        <time>2018-05-08T20:02:45Z</time>
      </trkpt>
      <trkpt lat="45.89727" lon="6.81913">
        <ele>1007</ele>
        <time>2018-05-08T20:03:45Z</time>
      </trkpt>
      <trkpt lat="45.89727" lon="6.81933">
        <ele>1006</ele>
        <time>2018-05-08T20:04:45Z</time>
      </trkpt>
      <trkpt lat="45.89726" lon="6.81948">
        <ele>1006</ele>
        <time>2018-05-08T20:05:45Z</time>
      </trkpt>
      <trkpt lat="45.89722" lon="6.81959">
        <ele>1006</ele>
        <time>2018-05-08T20:06:45Z</time>
      </trkpt>
      <trkpt lat="45.89714" lon="6.81984">
        <ele>1006</ele>
        <time>2018-05-08T20:07:45Z</time>
      </trkpt>
      <trkpt lat="45.89714" lon="6.81987">
        <ele>1006</ele>
        <time>2018-05-08T20:08:45Z</time>
      </trkpt>
      <trkpt lat="45.89712" lon="6.82003">
        <ele>1006</ele>
        <time>2018-05-08T20:09:45Z</time>
      </trkpt>
      <trkpt lat="45.89711" lon="6.82025">
        <ele>1006</ele>
        <time>2018-05-08T20:10:45Z</time>
      </trkpt>
      <trkpt lat="45.89711" lon="6.8204">
        <ele>1005</ele>
        <time>2018-05-08T20:11:45Z</time>
      </trkpt>
      <trkpt lat="45.89711" lon="6.82056">
        <ele>1005</ele>
        <time>2018-05-08T20:12:45Z</time>
      </trkpt>
      <trkpt lat="45.89714" lon="6.82074">
        <ele>1005</ele>
        <time>2018-05-08T20:13:45Z</time>
      </trkpt>
      <trkpt lat="45.89717" lon="6.82093">
        <ele>1005</ele>
        <time>2018-05-08T20:14:45Z</time>
      </trkpt>
      <trkpt lat="45.8972" lon="6.82113">
        <ele>1005</ele>
        <time>2018-05-08T20:15:45Z</time>
      </trkpt>
      <trkpt lat="45.89722" lon="6.8213">
        <ele>1006</ele>
        <time>2018-05-08T20:16:45Z</time>
      </trkpt>
      <trkpt lat="45.89722" lon="6.82136">
        <ele>1006</ele>
        <time>2018-05-08T20:17:45Z</time>
      </trkpt>
      <trkpt lat="45.89721" lon="6.82136">
        <ele>1006</ele>
        <time>2018-05-08T20:18:45Z</time>
      </trkpt>
      <trkpt lat="45.89718" lon="6.82137">
        <ele>1006</ele>
        <time>2018-05-08T20:19:45Z</time>
      </trkpt>
      <trkpt lat="45.89716" lon="6.82139">
        <ele>1006</ele>
        <time>2018-05-08T20:20:45Z</time>
      </trkpt>
      <trkpt lat="45.89714" lon="6.82141">
        <ele>1006</ele>
        <time>2018-05-08T20:21:45Z</time>
      </trkpt>
      <trkpt lat="45.89712" lon="6.82144">
        <ele>1006</ele>
        <time>2018-05-08T20:22:45Z</time>
      </trkpt>
      <trkpt lat="45.8971" lon="6.82147">
        <ele>1006</ele>
        <time>2018-05-08T20:23:45Z</time>
      </trkpt>
      <trkpt lat="45.8971" lon="6.82151">
        <ele>1006</ele>
        <time>2018-05-08T20:24:45Z</time>
      </trkpt>
      <trkpt lat="45.89709" lon="6.82155">
        <ele>1006</ele>
        <time>2018-05-08T20:25:45Z</time>
      </trkpt>
      <trkpt lat="45.89709" lon="6.82158">
        <ele>1006</ele>
        <time>2018-05-08T20:26:45Z</time>
      </trkpt>
      <trkpt lat="45.8971" lon="6.82162">
        <ele>1006</ele>
        <time>2018-05-08T20:27:45Z</time>
      </trkpt>
      <trkpt lat="45.89711" lon="6.82165">
        <ele>1006</ele>
        <time>2018-05-08T20:28:45Z</time>
      </trkpt>
      <trkpt lat="45.89713" lon="6.82168">
        <ele>1008</ele>
        <time>2018-05-08T20:29:45Z</time>
      </trkpt>
      <trkpt lat="45.89714" lon="6.82171">
        <ele>1008</ele>
        <time>2018-05-08T20:30:45Z</time>
      </trkpt>
      <trkpt lat="45.89717" lon="6.82173">
        <ele>1008</ele>
        <time>2018-05-08T20:31:45Z</time>
      </trkpt>
      <trkpt lat="45.89719" lon="6.82174">
        <ele>1008</ele>
        <time>2018-05-08T20:32:45Z</time>
      </trkpt>
      <trkpt lat="45.89722" lon="6.82175">
        <ele>1007</ele>
        <time>2018-05-08T20:33:45Z</time>
      </trkpt>
      <trkpt lat="45.89724" lon="6.82175">
        <ele>1007</ele>
        <time>2018-05-08T20:34:45Z</time>
      </trkpt>
      <trkpt lat="45.89727" lon="6.82174">
        <ele>1007</ele>
        <time>2018-05-08T20:35:45Z</time>
      </trkpt>
      <trkpt lat="45.8973" lon="6.82172">
        <ele>1007</ele>
        <time>2018-05-08T20:36:45Z</time>
      </trkpt>
      <trkpt lat="45.89732" lon="6.8217">
        <ele>1006</ele>
        <time>2018-05-08T20:37:45Z</time>
      </trkpt>
      <trkpt lat="45.89734" lon="6.82167">
        <ele>1006</ele>
        <time>2018-05-08T20:38:45Z</time>
      </trkpt>
      <trkpt lat="45.89734" lon="6.82166">
        <ele>1005</ele>
        <time>2018-05-08T20:39:45Z</time>
      </trkpt>
      <trkpt lat="45.89738" lon="6.82171">
        <ele>1006</ele>
        <time>2018-05-08T20:40:45Z</time>
      </trkpt>
      <trkpt lat="45.8974" lon="6.82176">
        <ele>1006</ele>
        <time>2018-05-08T20:41:45Z</time>
      </trkpt>
      <trkpt lat="45.89743" lon="6.82181">
        <ele>1006</ele>
        <time>2018-05-08T20:42:45Z</time>
      </trkpt>
      <trkpt lat="45.8975" lon="6.82205">
        <ele>1003</ele>
        <time>2018-05-08T20:43:45Z</time>
      </trkpt>
      <trkpt lat="45.89758" lon="6.82229">
        <ele>1004</ele>
        <time>2018-05-08T20:44:45Z</time>
      </trkpt>
      <trkpt lat="45.8977" lon="6.82267">
        <ele>1004</ele>
        <time>2018-05-08T20:45:45Z</time>
      </trkpt>
      <trkpt lat="45.89789" lon="6.82317">
        <ele>1003</ele>
        <time>2018-05-08T20:46:45Z</time>
      </trkpt>
      <trkpt lat="45.89792" lon="6.82324">
        <ele>1003</ele>
        <time>2018-05-08T20:47:45Z</time>
      </trkpt>
      <trkpt lat="45.89799" lon="6.82346">
        <ele>1004</ele>
        <time>2018-05-08T20:48:45Z</time>
      </trkpt>
      <trkpt lat="45.89805" lon="6.82362">
        <ele>1004</ele>
        <time>2018-05-08T20:49:45Z</time>
      </trkpt>
      <trkpt lat="45.89823" lon="6.82411">
        <ele>1005</ele>
        <time>2018-05-08T20:50:45Z</time>
      </trkpt>
      <trkpt lat="45.89837" lon="6.8245">
        <ele>1004</ele>
        <time>2018-05-08T20:51:45Z</time>
      </trkpt>
      <trkpt lat="45.89842" lon="6.82463">
        <ele>1004</ele>
        <time>2018-05-08T20:52:45Z</time>
      </trkpt>
      <trkpt lat="45.89848" lon="6.82479">
        <ele>1005</ele>
        <time>2018-05-08T20:53:45Z</time>
      </trkpt>
      <trkpt lat="45.89854" lon="6.82492">
        <ele>1005</ele>
        <time>2018-05-08T20:54:45Z</time>
      </trkpt>
      <trkpt lat="45.89865" lon="6.82511">
        <ele>1007</ele>
        <time>2018-05-08T20:55:45Z</time>
      </trkpt>
      <trkpt lat="45.89878" lon="6.82533">
        <ele>1007</ele>
        <time>2018-05-08T20:56:45Z</time>
      </trkpt>
      <trkpt lat="45.8989" lon="6.82553">
        <ele>1007</ele>
        <time>2018-05-08T20:57:45Z</time>
      </trkpt>
      <trkpt lat="45.89894" lon="6.82559">
        <ele>1007</ele>
        <time>2018-05-08T20:58:45Z</time>
      </trkpt>
      <trkpt lat="45.89904" lon="6.82574">
        <ele>1007</ele>
        <time>2018-05-08T20:59:45Z</time>
      </trkpt>
      <trkpt lat="45.89916" lon="6.82596">
        <ele>1008</ele>
        <time>2018-05-08T21:00:45Z</time>
      </trkpt>
      <trkpt lat="45.89924" lon="6.82612">
        <ele>1005</ele>
        <time>2018-05-08T21:01:45Z</time>
      </trkpt>
      <trkpt lat="45.89929" lon="6.82624">
        <ele>1005</ele>
        <time>2018-05-08T21:02:45Z</time>
      </trkpt>
      <trkpt lat="45.89932" lon="6.82631">
        <ele>1005</ele>
        <time>2018-05-08T21:03:45Z</time>
      </trkpt>
      <trkpt lat="45.89935" lon="6.82637">
        <ele>1005</ele>
        <time>2018-05-08T21:04:45Z</time>
      </trkpt>
      <trkpt lat="45.89939" lon="6.82646">
        <ele>1005</ele>
        <time>2018-05-08T21:05:45Z</time>
      </trkpt>
      <trkpt lat="45.89953" lon="6.82679">
        <ele>1007</ele>
        <time>2018-05-08T21:06:45Z</time>
      </trkpt>
      <trkpt lat="45.89977" lon="6.82737">
        <ele>1008</ele>
        <time>2018-05-08T21:07:45Z</time>
      </trkpt>
      <trkpt lat="45.89995" lon="6.82773">
        <ele>1009</ele>
        <time>2018-05-08T21:08:45Z</time>
      </trkpt>
      <trkpt lat="45.90004" lon="6.8279">
        <ele>1005</ele>
        <time>2018-05-08T21:09:45Z</time>
      </trkpt>
      <trkpt lat="45.90013" lon="6.82805">
        <ele>1005</ele>
        <time>2018-05-08T21:10:45Z</time>
      </trkpt>
      <trkpt lat="45.90032" lon="6.82833">
        <ele>1005</ele>
        <time>2018-05-08T21:11:45Z</time>
      </trkpt>
      <trkpt lat="45.90041" lon="6.82842">
        <ele>1006</ele>
        <time>2018-05-08T21:12:45Z</time>
      </trkpt>
      <trkpt lat="45.90055" lon="6.82858">
        <ele>1006</ele>
        <time>2018-05-08T21:13:45Z</time>
      </trkpt>
      <trkpt lat="45.9008" lon="6.82877">
        <ele>1006</ele>
        <time>2018-05-08T21:14:45Z</time>
      </trkpt>
      <trkpt lat="45.90115" lon="6.82898">
        <ele>1005</ele>
        <time>2018-05-08T21:15:45Z</time>
      </trkpt>
      <trkpt lat="45.90148" lon="6.82918">
        <ele>1007</ele>
        <time>2018-05-08T21:16:45Z</time>
      </trkpt>
      <trkpt lat="45.90155" lon="6.82922">
        <ele>1007</ele>
        <time>2018-05-08T21:17:45Z</time>
      </trkpt>
      <trkpt lat="45.90179" lon="6.8294">
        <ele>1006</ele>
        <time>2018-05-08T21:18:45Z</time>
      </trkpt>
      <trkpt lat="45.90198" lon="6.82958">
        <ele>1006</ele>
        <time>2018-05-08T21:19:45Z</time>
      </trkpt>
      <trkpt lat="45.90211" lon="6.82977">
        <ele>1006</ele>
        <time>2018-05-08T21:20:45Z</time>
      </trkpt>
      <trkpt lat="45.90227" lon="6.8301">
        <ele>1007</ele>
        <time>2018-05-08T21:21:45Z</time>
      </trkpt>
      <trkpt lat="45.90248" lon="6.8306">
        <ele>1008</ele>
        <time>2018-05-08T21:22:45Z</time>
      </trkpt>
      <trkpt lat="45.90281" lon="6.83139">
        <ele>1006</ele>
        <time>2018-05-08T21:23:45Z</time>
      </trkpt>
      <trkpt lat="45.90314" lon="6.83218">
        <ele>1006</ele>
        <time>2018-05-08T21:24:45Z</time>
      </trkpt>
      <trkpt lat="45.90319" lon="6.83232">
        <ele>1006</ele>
        <time>2018-05-08T21:25:45Z</time>
      </trkpt>
      <trkpt lat="45.90322" lon="6.83238">
        <ele>1006</ele>
        <time>2018-05-08T21:26:45Z</time>
      </trkpt>
      <trkpt lat="45.9035" lon="6.83307">
        <ele>1005</ele>
        <time>2018-05-08T21:27:45Z</time>
      </trkpt>
      <trkpt lat="45.90372" lon="6.83361">
        <ele>1006</ele>
        <time>2018-05-08T21:28:45Z</time>
      </trkpt>
      <trkpt lat="45.90385" lon="6.83393">
        <ele>1006</ele>
        <time>2018-05-08T21:29:45Z</time>
      </trkpt>
      <trkpt lat="45.90396" lon="6.83419">
        <ele>1008</ele>
        <time>2018-05-08T21:30:45Z</time>
      </trkpt>
      <trkpt lat="45.90401" lon="6.83432">
        <ele>1008</ele>
        <time>2018-05-08T21:31:45Z</time>
      </trkpt>
      <trkpt lat="45.90409" lon="6.83457">
        <ele>1009</ele>
        <time>2018-05-08T21:32:45Z</time>
      </trkpt>
      <trkpt lat="45.90407" lon="6.83458">
        <ele>1009</ele>
        <time>2018-05-08T21:33:45Z</time>
      </trkpt>
      <trkpt lat="45.90406" lon="6.8346">
        <ele>1009</ele>
        <time>2018-05-08T21:34:45Z</time>
      </trkpt>
      <trkpt lat="45.90405" lon="6.83462">
        <ele>1009</ele>
        <time>2018-05-08T21:35:45Z</time>
      </trkpt>
      <trkpt lat="45.90404" lon="6.83464">
        <ele>1009</ele>
        <time>2018-05-08T21:36:45Z</time>
      </trkpt>
      <trkpt lat="45.90404" lon="6.83466">
        <ele>1009</ele>
        <time>2018-05-08T21:37:45Z</time>
      </trkpt>
      <trkpt lat="45.90405" lon="6.8347">
        <ele>1009</ele>
        <time>2018-05-08T21:38:45Z</time>
      </trkpt>
      <trkpt lat="45.90405" lon="6.83473">
        <ele>1009</ele>
        <time>2018-05-08T21:39:45Z</time>
      </trkpt>
      <trkpt lat="45.90406" lon="6.83475">
        <ele>1009</ele>
        <time>2018-05-08T21:40:45Z</time>
      </trkpt>
      <trkpt lat="45.90408" lon="6.83476">
        <ele>1009</ele>
        <time>2018-05-08T21:41:45Z</time>
      </trkpt>
      <trkpt lat="45.9041" lon="6.83477">
        <ele>1009</ele>
        <time>2018-05-08T21:42:45Z</time>
      </trkpt>
      <trkpt lat="45.90411" lon="6.83478">
        <ele>1009</ele>
        <time>2018-05-08T21:43:45Z</time>
      </trkpt>
      <trkpt lat="45.90413" lon="6.83477">
        <ele>1009</ele>
        <time>2018-05-08T21:44:45Z</time>
      </trkpt>
      <trkpt lat="45.90415" lon="6.83476">
        <ele>1009</ele>
        <time>2018-05-08T21:45:45Z</time>
      </trkpt>
      <trkpt lat="45.90417" lon="6.83473">
        <ele>1008</ele>
        <time>2018-05-08T21:46:45Z</time>
      </trkpt>
      <trkpt lat="45.90425" lon="6.83486">
        <ele>1008</ele>
        <time>2018-05-08T21:47:45Z</time>
      </trkpt>
      <trkpt lat="45.90448" lon="6.83529">
        <ele>1011</ele>
        <time>2018-05-08T21:48:45Z</time>
      </trkpt>
      <trkpt lat="45.90454" lon="6.8354">
        <ele>1011</ele>
        <time>2018-05-08T21:49:45Z</time>
      </trkpt>
      <trkpt lat="45.90468" lon="6.83563">
        <ele>1011</ele>
        <time>2018-05-08T21:50:45Z</time>
      </trkpt>
      <trkpt lat="45.90474" lon="6.83578">
        <ele>1011</ele>
        <time>2018-05-08T21:51:45Z</time>
      </trkpt>
      <trkpt lat="45.90476" lon="6.83584">
        <ele>1013</ele>
        <time>2018-05-08T21:52:45Z</time>
      </trkpt>
      <trkpt lat="45.90484" lon="6.83608">
        <ele>1013</ele>
        <time>2018-05-08T21:53:45Z</time>
      </trkpt>
      <trkpt lat="45.90497" lon="6.83637">
        <ele>1013</ele>
        <time>2018-05-08T21:54:45Z</time>
      </trkpt>
      <trkpt lat="45.90514" lon="6.83674">
        <ele>1012</ele>
        <time>2018-05-08T21:55:45Z</time>
      </trkpt>
      <trkpt lat="45.90532" lon="6.83716">
        <ele>1013</ele>
        <time>2018-05-08T21:56:45Z</time>
      </trkpt>
      <trkpt lat="45.90543" lon="6.83741">
        <ele>1013</ele>
        <time>2018-05-08T21:57:45Z</time>
      </trkpt>
      <trkpt lat="45.90546" lon="6.83746">
        <ele>1013</ele>
        <time>2018-05-08T21:58:45Z</time>
      </trkpt>
      <trkpt lat="45.90555" lon="6.83767">
        <ele>1015</ele>
        <time>2018-05-08T21:59:45Z</time>
      </trkpt>
      <trkpt lat="45.90559" lon="6.83775">
        <ele>1015</ele>
        <time>2018-05-08T22:00:45Z</time>
      </trkpt>
      <trkpt lat="45.90595" lon="6.83851">
        <ele>1015</ele>
        <time>2018-05-08T22:01:45Z</time>
      </trkpt>
      <trkpt lat="45.90618" lon="6.83896">
        <ele>1016</ele>
        <time>2018-05-08T22:02:45Z</time>
      </trkpt>
      <trkpt lat="45.90619" lon="6.83898">
        <ele>1016</ele>
        <time>2018-05-08T22:03:45Z</time>
      </trkpt>
      <trkpt lat="45.90631" lon="6.83918">
        <ele>1018</ele>
        <time>2018-05-08T22:04:45Z</time>
      </trkpt>
      <trkpt lat="45.90643" lon="6.83938">
        <ele>1018</ele>
        <time>2018-05-08T22:05:45Z</time>
      </trkpt>
      <trkpt lat="45.9068" lon="6.83998">
        <ele>1018</ele>
        <time>2018-05-08T22:06:45Z</time>
      </trkpt>
      <trkpt lat="45.90725" lon="6.84071">
        <ele>1021</ele>
        <time>2018-05-08T22:07:45Z</time>
      </trkpt>
      <trkpt lat="45.90756" lon="6.84118">
        <ele>1020</ele>
        <time>2018-05-08T22:08:45Z</time>
      </trkpt>
      <trkpt lat="45.90782" lon="6.84161">
        <ele>1020</ele>
        <time>2018-05-08T22:09:45Z</time>
      </trkpt>
      <trkpt lat="45.90789" lon="6.84174">
        <ele>1022</ele>
        <time>2018-05-08T22:10:45Z</time>
      </trkpt>
      <trkpt lat="45.90804" lon="6.84199">
        <ele>1022</ele>
        <time>2018-05-08T22:11:45Z</time>
      </trkpt>
      <trkpt lat="45.9083" lon="6.8424">
        <ele>1022</ele>
        <time>2018-05-08T22:12:45Z</time>
      </trkpt>
      <trkpt lat="45.9086" lon="6.84287">
        <ele>1021</ele>
        <time>2018-05-08T22:13:45Z</time>
      </trkpt>
      <trkpt lat="45.90872" lon="6.84307">
        <ele>1021</ele>
        <time>2018-05-08T22:14:45Z</time>
      </trkpt>
      <trkpt lat="45.90882" lon="6.84321">
        <ele>1021</ele>
        <time>2018-05-08T22:15:45Z</time>
      </trkpt>
      <trkpt lat="45.90898" lon="6.84343">
        <ele>1020</ele>
        <time>2018-05-08T22:16:45Z</time>
      </trkpt>
      <trkpt lat="45.90912" lon="6.84353">
        <ele>1020</ele>
        <time>2018-05-08T22:17:45Z</time>
      </trkpt>
      <trkpt lat="45.90923" lon="6.84357">
        <ele>1020</ele>
        <time>2018-05-08T22:18:45Z</time>
      </trkpt>
      <trkpt lat="45.90926" lon="6.84358">
        <ele>1020</ele>
        <time>2018-05-08T22:19:45Z</time>
      </trkpt>
      <trkpt lat="45.90939" lon="6.84357">
        <ele>1020</ele>
        <time>2018-05-08T22:20:45Z</time>
      </trkpt>
      <trkpt lat="45.90942" lon="6.84356">
        <ele>1020</ele>
        <time>2018-05-08T22:21:45Z</time>
      </trkpt>
      <trkpt lat="45.90949" lon="6.84355">
        <ele>1021</ele>
        <time>2018-05-08T22:22:45Z</time>
      </trkpt>
      <trkpt lat="45.90951" lon="6.84353">
        <ele>1021</ele>
        <time>2018-05-08T22:23:45Z</time>
      </trkpt>
      <trkpt lat="45.9096" lon="6.8435">
        <ele>1021</ele>
        <time>2018-05-08T22:24:45Z</time>
      </trkpt>
      <trkpt lat="45.90971" lon="6.84346">
        <ele>1022</ele>
        <time>2018-05-08T22:25:45Z</time>
      </trkpt>
      <trkpt lat="45.90981" lon="6.84345">
        <ele>1023</ele>
        <time>2018-05-08T22:26:45Z</time>
      </trkpt>
      <trkpt lat="45.90994" lon="6.84352">
        <ele>1024</ele>
        <time>2018-05-08T22:27:45Z</time>
      </trkpt>
      <trkpt lat="45.91007" lon="6.84367">
        <ele>1029</ele>
        <time>2018-05-08T22:28:45Z</time>
      </trkpt>
      <trkpt lat="45.9102" lon="6.84387">
        <ele>1029</ele>
        <time>2018-05-08T22:29:45Z</time>
      </trkpt>
      <trkpt lat="45.91032" lon="6.84405">
        <ele>1029</ele>
        <time>2018-05-08T22:30:45Z</time>
      </trkpt>
      <trkpt lat="45.91046" lon="6.84419">
        <ele>1025</ele>
        <time>2018-05-08T22:31:45Z</time>
      </trkpt>
      <trkpt lat="45.91062" lon="6.84429">
        <ele>1027</ele>
        <time>2018-05-08T22:32:45Z</time>
      </trkpt>
      <trkpt lat="45.91072" lon="6.84433">
        <ele>1028</ele>
        <time>2018-05-08T22:33:45Z</time>
      </trkpt>
      <trkpt lat="45.91073" lon="6.84434">
        <ele>1028</ele>
        <time>2018-05-08T22:34:45Z</time>
      </trkpt>
      <trkpt lat="45.91084" lon="6.84439">
        <ele>1033</ele>
        <time>2018-05-08T22:35:45Z</time>
      </trkpt>
      <trkpt lat="45.91097" lon="6.84451">
        <ele>1033</ele>
        <time>2018-05-08T22:36:45Z</time>
      </trkpt>
      <trkpt lat="45.91112" lon="6.84474">
        <ele>1032</ele>
        <time>2018-05-08T22:37:45Z</time>
      </trkpt>
      <trkpt lat="45.91133" lon="6.8451">
        <ele>1027</ele>
        <time>2018-05-08T22:38:45Z</time>
      </trkpt>
      <trkpt lat="45.91148" lon="6.8453">
        <ele>1026</ele>
        <time>2018-05-08T22:39:45Z</time>
      </trkpt>
      <trkpt lat="45.91169" lon="6.84554">
        <ele>1026</ele>
        <time>2018-05-08T22:40:45Z</time>
      </trkpt>
      <trkpt lat="45.91198" lon="6.84581">
        <ele>1025</ele>
        <time>2018-05-08T22:41:45Z</time>
      </trkpt>
      <trkpt lat="45.91199" lon="6.84582">
        <ele>1025</ele>
        <time>2018-05-08T22:42:45Z</time>
      </trkpt>
      <trkpt lat="45.91201" lon="6.84584">
        <ele>1019</ele>
        <time>2018-05-08T22:43:45Z</time>
      </trkpt>
      <trkpt lat="45.91207" lon="6.84589">
        <ele>1019</ele>
        <time>2018-05-08T22:44:45Z</time>
      </trkpt>
      <trkpt lat="45.91248" lon="6.84628">
        <ele>1020</ele>
        <time>2018-05-08T22:45:45Z</time>
      </trkpt>
      <trkpt lat="45.91277" lon="6.84655">
        <ele>1023</ele>
        <time>2018-05-08T22:46:45Z</time>
      </trkpt>
      <trkpt lat="45.91288" lon="6.84664">
        <ele>1024</ele>
        <time>2018-05-08T22:47:45Z</time>
      </trkpt>
      <trkpt lat="45.91348" lon="6.8472">
        <ele>1026</ele>
        <time>2018-05-08T22:48:45Z</time>
      </trkpt>
      <trkpt lat="45.91417" lon="6.84783">
        <ele>1027</ele>
        <time>2018-05-08T22:49:45Z</time>
      </trkpt>
      <trkpt lat="45.91477" lon="6.84839">
        <ele>1023</ele>
        <time>2018-05-08T22:50:45Z</time>
      </trkpt>
      <trkpt lat="45.91519" lon="6.84877">
        <ele>1032</ele>
        <time>2018-05-08T22:51:45Z</time>
      </trkpt>
      <trkpt lat="45.91522" lon="6.8488">
        <ele>1032</ele>
        <time>2018-05-08T22:52:45Z</time>
      </trkpt>
      <trkpt lat="45.91546" lon="6.84902">
        <ele>1035</ele>
        <time>2018-05-08T22:53:45Z</time>
      </trkpt>
      <trkpt lat="45.91555" lon="6.84915">
        <ele>1036</ele>
        <time>2018-05-08T22:54:45Z</time>
      </trkpt>
      <trkpt lat="45.9156" lon="6.8492">
        <ele>1032</ele>
        <time>2018-05-08T22:55:45Z</time>
      </trkpt>
      <trkpt lat="45.9157" lon="6.84939">
        <ele>1032</ele>
        <time>2018-05-08T22:56:45Z</time>
      </trkpt>
      <trkpt lat="45.91581" lon="6.84967">
        <ele>1029</ele>
        <time>2018-05-08T22:57:45Z</time>
      </trkpt>
      <trkpt lat="45.91587" lon="6.84991">
        <ele>1035</ele>
        <time>2018-05-08T22:58:45Z</time>
      </trkpt>
      <trkpt lat="45.9159" lon="6.85006">
        <ele>1028</ele>
        <time>2018-05-08T22:59:45Z</time>
      </trkpt>
      <trkpt lat="45.91592" lon="6.85014">
        <ele>1029</ele>
        <time>2018-05-08T23:00:45Z</time>
      </trkpt>
      <trkpt lat="45.91592" lon="6.85014">
        <ele>1029</ele>
        <time>2018-05-08T23:01:45Z</time>
      </trkpt>
      <trkpt lat="45.91596" lon="6.85009">
        <ele>1029</ele>
        <time>2018-05-08T23:02:45Z</time>
      </trkpt>
      <trkpt lat="45.91599" lon="6.85007">
        <ele>1030</ele>
        <time>2018-05-08T23:03:45Z</time>
      </trkpt>
      <trkpt lat="45.91602" lon="6.85008">
        <ele>1030</ele>
        <time>2018-05-08T23:04:45Z</time>
      </trkpt>
      <trkpt lat="45.91603" lon="6.8501">
        <ele>1031</ele>
        <time>2018-05-08T23:05:45Z</time>
      </trkpt>
      <trkpt lat="45.91607" lon="6.85018">
        <ele>1031</ele>
        <time>2018-05-08T23:06:45Z</time>
      </trkpt>
      <trkpt lat="45.91615" lon="6.85038">
        <ele>1031</ele>
        <time>2018-05-08T23:07:45Z</time>
      </trkpt>
      <trkpt lat="45.91627" lon="6.85068">
        <ele>1030</ele>
        <time>2018-05-08T23:08:45Z</time>
      </trkpt>
      <trkpt lat="45.91638" lon="6.85097">
        <ele>1028</ele>
        <time>2018-05-08T23:09:45Z</time>
      </trkpt>
      <trkpt lat="45.91642" lon="6.85113">
        <ele>1028</ele>
        <time>2018-05-08T23:10:45Z</time>
      </trkpt>
      <trkpt lat="45.91646" lon="6.85134">
        <ele>1029</ele>
        <time>2018-05-08T23:11:45Z</time>
      </trkpt>
      <trkpt lat="45.91649" lon="6.85166">
        <ele>1032</ele>
        <time>2018-05-08T23:12:45Z</time>
      </trkpt>
      <trkpt lat="45.91651" lon="6.85178">
        <ele>1034</ele>
        <time>2018-05-08T23:13:45Z</time>
      </trkpt>
      <trkpt lat="45.91655" lon="6.85215">
        <ele>1034</ele>
        <time>2018-05-08T23:14:45Z</time>
      </trkpt>
      <trkpt lat="45.91657" lon="6.85238">
        <ele>1037</ele>
        <time>2018-05-08T23:15:45Z</time>
      </trkpt>
      <trkpt lat="45.9166" lon="6.8526">
        <ele>1038</ele>
        <time>2018-05-08T23:16:45Z</time>
      </trkpt>
      <trkpt lat="45.91662" lon="6.8527">
        <ele>1037</ele>
        <time>2018-05-08T23:17:45Z</time>
      </trkpt>
      <trkpt lat="45.91669" lon="6.85316">
        <ele>1043</ele>
        <time>2018-05-08T23:18:45Z</time>
      </trkpt>
      <trkpt lat="45.91673" lon="6.85343">
        <ele>1041</ele>
        <time>2018-05-08T23:19:45Z</time>
      </trkpt>
      <trkpt lat="45.91693" lon="6.85443">
        <ele>1042</ele>
        <time>2018-05-08T23:20:45Z</time>
      </trkpt>
      <trkpt lat="45.91701" lon="6.85481">
        <ele>1043</ele>
        <time>2018-05-08T23:21:45Z</time>
      </trkpt>
      <trkpt lat="45.91703" lon="6.85497">
        <ele>1043</ele>
        <time>2018-05-08T23:22:45Z</time>
      </trkpt>
      <trkpt lat="45.91705" lon="6.85511">
        <ele>1045</ele>
        <time>2018-05-08T23:23:45Z</time>
      </trkpt>
      <trkpt lat="45.9171" lon="6.85548">
        <ele>1046</ele>
        <time>2018-05-08T23:24:45Z</time>
      </trkpt>
      <trkpt lat="45.91716" lon="6.8558">
        <ele>1047</ele>
        <time>2018-05-08T23:25:45Z</time>
      </trkpt>
      <trkpt lat="45.91726" lon="6.85641">
        <ele>1047</ele>
        <time>2018-05-08T23:26:45Z</time>
      </trkpt>
      <trkpt lat="45.9173" lon="6.85664">
        <ele>1048</ele>
        <time>2018-05-08T23:27:45Z</time>
      </trkpt>
      <trkpt lat="45.91735" lon="6.85696">
        <ele>1046</ele>
        <time>2018-05-08T23:28:45Z</time>
      </trkpt>
      <trkpt lat="45.9174" lon="6.85726">
        <ele>1046</ele>
        <time>2018-05-08T23:29:45Z</time>
      </trkpt>
      <trkpt lat="45.91741" lon="6.85733">
        <ele>1046</ele>
        <time>2018-05-08T23:30:45Z</time>
      </trkpt>
      <trkpt lat="45.91744" lon="6.85746">
        <ele>1048</ele>
        <time>2018-05-08T23:31:45Z</time>
      </trkpt>
      <trkpt lat="45.91749" lon="6.85778">
        <ele>1043</ele>
        <time>2018-05-08T23:32:45Z</time>
      </trkpt>
      <trkpt lat="45.91755" lon="6.85805">
        <ele>1050</ele>
        <time>2018-05-08T23:33:45Z</time>
      </trkpt>
      <trkpt lat="45.91758" lon="6.85821">
        <ele>1048</ele>
        <time>2018-05-08T23:34:45Z</time>
      </trkpt>
      <trkpt lat="45.91763" lon="6.85844">
        <ele>1047</ele>
        <time>2018-05-08T23:35:45Z</time>
      </trkpt>
      <trkpt lat="45.91768" lon="6.85868">
        <ele>1048</ele>
        <time>2018-05-08T23:36:45Z</time>
      </trkpt>
      <trkpt lat="45.91772" lon="6.85897">
        <ele>1047</ele>
        <time>2018-05-08T23:37:45Z</time>
      </trkpt>
      <trkpt lat="45.91777" lon="6.85922">
        <ele>1046</ele>
        <time>2018-05-08T23:38:45Z</time>
      </trkpt>
      <trkpt lat="45.91781" lon="6.85953">
        <ele>1047</ele>
        <time>2018-05-08T23:39:45Z</time>
      </trkpt>
      <trkpt lat="45.91788" lon="6.86002">
        <ele>1047</ele>
        <time>2018-05-08T23:40:45Z</time>
      </trkpt>
      <trkpt lat="45.91794" lon="6.86041">
        <ele>1047</ele>
        <time>2018-05-08T23:41:45Z</time>
      </trkpt>
      <trkpt lat="45.91799" lon="6.86076">
        <ele>1047</ele>
        <time>2018-05-08T23:42:45Z</time>
      </trkpt>
      <trkpt lat="45.91801" lon="6.8609">
        <ele>1045</ele>
        <time>2018-05-08T23:43:45Z</time>
      </trkpt>
      <trkpt lat="45.91803" lon="6.86116">
        <ele>1044</ele>
        <time>2018-05-08T23:44:45Z</time>
      </trkpt>
      <trkpt lat="45.91808" lon="6.86158">
        <ele>1044</ele>
        <time>2018-05-08T23:45:45Z</time>
      </trkpt>
      <trkpt lat="45.91811" lon="6.8618">
        <ele>1042</ele>
        <time>2018-05-08T23:46:45Z</time>
      </trkpt>
      <trkpt lat="45.91813" lon="6.86192">
        <ele>1041</ele>
        <time>2018-05-08T23:47:45Z</time>
      </trkpt>
      <trkpt lat="45.91821" lon="6.86244">
        <ele>1041</ele>
        <time>2018-05-08T23:48:45Z</time>
      </trkpt>
      <trkpt lat="45.91829" lon="6.86287">
        <ele>1038</ele>
        <time>2018-05-08T23:49:45Z</time>
      </trkpt>
      <trkpt lat="45.91836" lon="6.86318">
        <ele>1041</ele>
        <time>2018-05-08T23:50:45Z</time>
      </trkpt>
      <trkpt lat="45.91839" lon="6.8633">
        <ele>1040</ele>
        <time>2018-05-08T23:51:45Z</time>
      </trkpt>
      <trkpt lat="45.91842" lon="6.86342">
        <ele>1039</ele>
        <time>2018-05-08T23:52:45Z</time>
      </trkpt>
      <trkpt lat="45.91846" lon="6.86352">
        <ele>1039</ele>
        <time>2018-05-08T23:53:45Z</time>
      </trkpt>
      <trkpt lat="45.91848" lon="6.86358">
        <ele>1040</ele>
        <time>2018-05-08T23:54:45Z</time>
      </trkpt>
      <trkpt lat="45.91855" lon="6.86378">
        <ele>1040</ele>
        <time>2018-05-08T23:55:45Z</time>
      </trkpt>
      <trkpt lat="45.91857" lon="6.86383">
        <ele>1039</ele>
        <time>2018-05-08T23:56:45Z</time>
      </trkpt>
      <trkpt lat="45.91863" lon="6.86399">
        <ele>1039</ele>
        <time>2018-05-08T23:57:45Z</time>
      </trkpt>
      <trkpt lat="45.91872" lon="6.86418">
        <ele>1037</ele>
        <time>2018-05-08T23:58:45Z</time>
      </trkpt>
      <trkpt lat="45.91877" lon="6.8643">
        <ele>1037</ele>
        <time>2018-05-08T23:59:45Z</time>
      </trkpt>
      <trkpt lat="45.9188" lon="6.86435">
        <ele>1037</ele>
        <time>2018-05-09T00:00:45Z</time>
      </trkpt>
      <trkpt lat="45.9189" lon="6.86452">
        <ele>1037</ele>
        <time>2018-05-09T00:01:45Z</time>
      </trkpt>
      <trkpt lat="45.91897" lon="6.86467">
        <ele>1037</ele>
        <time>2018-05-09T00:02:45Z</time>
      </trkpt>
      <trkpt lat="45.91904" lon="6.86482">
        <ele>1037</ele>
        <time>2018-05-09T00:03:45Z</time>
      </trkpt>
      <trkpt lat="45.91906" lon="6.86486">
        <ele>1037</ele>
        <time>2018-05-09T00:04:45Z</time>
      </trkpt>
      <trkpt lat="45.91907" lon="6.86492">
        <ele>1038</ele>
        <time>2018-05-09T00:05:45Z</time>
      </trkpt>
      <trkpt lat="45.91907" lon="6.86498">
        <ele>1038</ele>
        <time>2018-05-09T00:06:45Z</time>
      </trkpt>
      <trkpt lat="45.91905" lon="6.86502">
        <ele>1036</ele>
        <time>2018-05-09T00:07:45Z</time>
      </trkpt>
      <trkpt lat="45.91898" lon="6.86508">
        <ele>1036</ele>
        <time>2018-05-09T00:08:45Z</time>
      </trkpt>
      <trkpt lat="45.91898" lon="6.86508">
        <ele>1036</ele>
        <time>2018-05-09T00:09:45Z</time>
      </trkpt>
      <trkpt lat="45.91903" lon="6.86513">
        <ele>1036</ele>
        <time>2018-05-09T00:10:45Z</time>
      </trkpt>
      <trkpt lat="45.91903" lon="6.86518">
        <ele>1036</ele>
        <time>2018-05-09T00:11:45Z</time>
      </trkpt>
      <trkpt lat="45.91905" lon="6.86525">
        <ele>1035</ele>
        <time>2018-05-09T00:12:45Z</time>
      </trkpt>
      <trkpt lat="45.91905" lon="6.86525">
        <ele>1035</ele>
        <time>2018-05-09T00:13:45Z</time>
      </trkpt>
      <trkpt lat="45.91903" lon="6.8653">
        <ele>1035</ele>
        <time>2018-05-09T00:14:45Z</time>
      </trkpt>
      <trkpt lat="45.91902" lon="6.86534">
        <ele>1035</ele>
        <time>2018-05-09T00:15:45Z</time>
      </trkpt>
      <trkpt lat="45.91903" lon="6.86541">
        <ele>1035</ele>
        <time>2018-05-09T00:16:45Z</time>
      </trkpt>
      <trkpt lat="45.91905" lon="6.86546">
        <ele>1035</ele>
        <time>2018-05-09T00:17:45Z</time>
      </trkpt>
      <trkpt lat="45.91908" lon="6.86548">
        <ele>1035</ele>
        <time>2018-05-09T00:18:45Z</time>
      </trkpt>
      <trkpt lat="45.91911" lon="6.86549">
        <ele>1035</ele>
        <time>2018-05-09T00:19:45Z</time>
      </trkpt>
      <trkpt lat="45.91914" lon="6.86549">
        <ele>1035</ele>
        <time>2018-05-09T00:20:45Z</time>
      </trkpt>
      <trkpt lat="45.91927" lon="6.86553">
        <ele>1039</ele>
        <time>2018-05-09T00:21:45Z</time>
      </trkpt>
      <trkpt lat="45.91929" lon="6.86553">
        <ele>1039</ele>
        <time>2018-05-09T00:22:45Z</time>
      </trkpt>
      <trkpt lat="45.91934" lon="6.86553">
        <ele>1039</ele>
        <time>2018-05-09T00:23:45Z</time>
      </trkpt>
      <trkpt lat="45.91948" lon="6.86552">
        <ele>1040</ele>
        <time>2018-05-09T00:24:45Z</time>
      </trkpt>
      <trkpt lat="45.91964" lon="6.86554">
        <ele>1040</ele>
        <time>2018-05-09T00:25:45Z</time>
      </trkpt>
      <trkpt lat="45.91982" lon="6.86555">
        <ele>1041</ele>
        <time>2018-05-09T00:26:45Z</time>
      </trkpt>
      <trkpt lat="45.91991" lon="6.86556">
        <ele>1041</ele>
        <time>2018-05-09T00:27:45Z</time>
      </trkpt>
      <trkpt lat="45.92005" lon="6.86559">
        <ele>1045</ele>
        <time>2018-05-09T00:28:45Z</time>
      </trkpt>
      <trkpt lat="45.92016" lon="6.86564">
        <ele>1045</ele>
        <time>2018-05-09T00:29:45Z</time>
      </trkpt>
      <trkpt lat="45.92017" lon="6.86564">
        <ele>1045</ele>
        <time>2018-05-09T00:30:45Z</time>
      </trkpt>
      <trkpt lat="45.92027" lon="6.8657">
        <ele>1046</ele>
        <time>2018-05-09T00:31:45Z</time>
      </trkpt>
      <trkpt lat="45.92039" lon="6.8658">
        <ele>1046</ele>
        <time>2018-05-09T00:32:45Z</time>
      </trkpt>
      <trkpt lat="45.92056" lon="6.86596">
        <ele>1044</ele>
        <time>2018-05-09T00:33:45Z</time>
      </trkpt>
      <trkpt lat="45.92066" lon="6.86607">
        <ele>1044</ele>
        <time>2018-05-09T00:34:45Z</time>
      </trkpt>
      <trkpt lat="45.92073" lon="6.86615">
        <ele>1044</ele>
        <time>2018-05-09T00:35:45Z</time>
      </trkpt>
      <trkpt lat="45.92077" lon="6.8662">
        <ele>1043</ele>
        <time>2018-05-09T00:36:45Z</time>
      </trkpt>
      <trkpt lat="45.92082" lon="6.86631">
        <ele>1043</ele>
        <time>2018-05-09T00:37:45Z</time>
      </trkpt>
      <trkpt lat="45.92084" lon="6.86634">
        <ele>1049</ele>
        <time>2018-05-09T00:38:45Z</time>
      </trkpt>
      <trkpt lat="45.92087" lon="6.8664">
        <ele>1048</ele>
        <time>2018-05-09T00:39:45Z</time>
      </trkpt>
      <trkpt lat="45.92091" lon="6.86647">
        <ele>1048</ele>
        <time>2018-05-09T00:40:45Z</time>
      </trkpt>
      <trkpt lat="45.92097" lon="6.86654">
        <ele>1047</ele>
        <time>2018-05-09T00:41:45Z</time>
      </trkpt>
      <trkpt lat="45.92107" lon="6.86665">
        <ele>1048</ele>
        <time>2018-05-09T00:42:45Z</time>
      </trkpt>
      <trkpt lat="45.92118" lon="6.86673">
        <ele>1046</ele>
        <time>2018-05-09T00:43:45Z</time>
      </trkpt>
      <trkpt lat="45.92131" lon="6.86681">
        <ele>1047</ele>
        <time>2018-05-09T00:44:45Z</time>
      </trkpt>
      <trkpt lat="45.92149" lon="6.86691">
        <ele>1048</ele>
        <time>2018-05-09T00:45:45Z</time>
      </trkpt>
      <trkpt lat="45.92177" lon="6.86705">
        <ele>1051</ele>
        <time>2018-05-09T00:46:45Z</time>
      </trkpt>
      <trkpt lat="45.92186" lon="6.8671">
        <ele>1051</ele>
        <time>2018-05-09T00:47:45Z</time>
      </trkpt>
      <trkpt lat="45.9221" lon="6.86721">
        <ele>1050</ele>
        <time>2018-05-09T00:48:45Z</time>
      </trkpt>
      <trkpt lat="45.92228" lon="6.86728">
        <ele>1050</ele>
        <time>2018-05-09T00:49:45Z</time>
      </trkpt>
      <trkpt lat="45.92239" lon="6.86732">
        <ele>1049</ele>
        <time>2018-05-09T00:50:45Z</time>
      </trkpt>
      <trkpt lat="45.92248" lon="6.86733">
        <ele>1049</ele>
        <time>2018-05-09T00:51:45Z</time>
      </trkpt>
      <trkpt lat="45.92254" lon="6.86732">
        <ele>1049</ele>
        <time>2018-05-09T00:52:45Z</time>
      </trkpt>
      <trkpt lat="45.92255" lon="6.86732">
        <ele>1049</ele>
        <time>2018-05-09T00:53:45Z</time>
      </trkpt>
      <trkpt lat="45.92264" lon="6.86732">
        <ele>1050</ele>
        <time>2018-05-09T00:54:45Z</time>
      </trkpt>
      <trkpt lat="45.92278" lon="6.86732">
        <ele>1050</ele>
        <time>2018-05-09T00:55:45Z</time>
      </trkpt>
      <trkpt lat="45.92291" lon="6.86732">
        <ele>1051</ele>
        <time>2018-05-09T00:56:45Z</time>
      </trkpt>
      <trkpt lat="45.92299" lon="6.86735">
        <ele>1050</ele>
        <time>2018-05-09T00:57:45Z</time>
      </trkpt>
      <trkpt lat="45.92313" lon="6.86745">
        <ele>1050</ele>
        <time>2018-05-09T00:58:45Z</time>
      </trkpt>
      <trkpt lat="45.92325" lon="6.86754">
        <ele>1047</ele>
        <time>2018-05-09T00:59:45Z</time>
      </trkpt>
      <trkpt lat="45.92333" lon="6.86757">
        <ele>1047</ele>
        <time>2018-05-09T01:00:45Z</time>
      </trkpt>
      <trkpt lat="45.92341" lon="6.8676">
        <ele>1048</ele>
        <time>2018-05-09T01:01:45Z</time>
      </trkpt>
      <trkpt lat="45.92343" lon="6.86761">
        <ele>1048</ele>
        <time>2018-05-09T01:02:45Z</time>
      </trkpt>
      <trkpt lat="45.92351" lon="6.86761">
        <ele>1048</ele>
        <time>2018-05-09T01:03:45Z</time>
      </trkpt>
      <trkpt lat="45.92351" lon="6.86762">
        <ele>1048</ele>
        <time>2018-05-09T01:04:45Z</time>
      </trkpt>
      <trkpt lat="45.92351" lon="6.86763">
        <ele>1048</ele>
        <time>2018-05-09T01:05:45Z</time>
      </trkpt>
      <trkpt lat="45.92352" lon="6.86764">
        <ele>1048</ele>
        <time>2018-05-09T01:06:45Z</time>
      </trkpt>
      <trkpt lat="45.92353" lon="6.86765">
        <ele>1047</ele>
        <time>2018-05-09T01:07:45Z</time>
      </trkpt>
      <trkpt lat="45.92353" lon="6.86766">
        <ele>1047</ele>
        <time>2018-05-09T01:08:45Z</time>
      </trkpt>
      <trkpt lat="45.92354" lon="6.86767">
        <ele>1047</ele>
        <time>2018-05-09T01:09:45Z</time>
      </trkpt>
      <trkpt lat="45.92355" lon="6.86767">
        <ele>1047</ele>
        <time>2018-05-09T01:10:45Z</time>
      </trkpt>
      <trkpt lat="45.92356" lon="6.86768">
        <ele>1047</ele>
        <time>2018-05-09T01:11:45Z</time>
      </trkpt>
      <trkpt lat="45.92357" lon="6.86768">
        <ele>1047</ele>
        <time>2018-05-09T01:12:45Z</time>
      </trkpt>
      <trkpt lat="45.92358" lon="6.86768">
        <ele>1047</ele>
        <time>2018-05-09T01:13:45Z</time>
      </trkpt>
      <trkpt lat="45.92359" lon="6.86768">
        <ele>1047</ele>
        <time>2018-05-09T01:14:45Z</time>
      </trkpt>
      <trkpt lat="45.9236" lon="6.86768">
        <ele>1047</ele>
        <time>2018-05-09T01:15:45Z</time>
      </trkpt>
      <trkpt lat="45.92361" lon="6.86768">
        <ele>1047</ele>
        <time>2018-05-09T01:16:45Z</time>
      </trkpt>
      <trkpt lat="45.92362" lon="6.86767">
        <ele>1047</ele>
        <time>2018-05-09T01:17:45Z</time>
      </trkpt>
      <trkpt lat="45.92363" lon="6.86767">
        <ele>1047</ele>
        <time>2018-05-09T01:18:45Z</time>
      </trkpt>
      <trkpt lat="45.92363" lon="6.86766">
        <ele>1047</ele>
        <time>2018-05-09T01:19:45Z</time>
      </trkpt>
      <trkpt lat="45.92364" lon="6.86766">
        <ele>1048</ele>
        <time>2018-05-09T01:20:45Z</time>
      </trkpt>
      <trkpt lat="45.92364" lon="6.86765">
        <ele>1048</ele>
        <time>2018-05-09T01:21:45Z</time>
      </trkpt>
      <trkpt lat="45.92365" lon="6.86764">
        <ele>1048</ele>
        <time>2018-05-09T01:22:45Z</time>
      </trkpt>
      <trkpt lat="45.92365" lon="6.86763">
        <ele>1048</ele>
        <time>2018-05-09T01:23:45Z</time>
      </trkpt>
      <trkpt lat="45.92365" lon="6.86762">
        <ele>1048</ele>
        <time>2018-05-09T01:24:45Z</time>
      </trkpt>
      <trkpt lat="45.92366" lon="6.86762">
        <ele>1048</ele>
        <time>2018-05-09T01:25:45Z</time>
      </trkpt>
      <trkpt lat="45.92366" lon="6.86761">
        <ele>1048</ele>
        <time>2018-05-09T01:26:45Z</time>
      </trkpt>
      <trkpt lat="45.92366" lon="6.8676">
        <ele>1048</ele>
        <time>2018-05-09T01:27:45Z</time>
      </trkpt>
      <trkpt lat="45.92379" lon="6.8676">
        <ele>1048</ele>
        <time>2018-05-09T01:28:45Z</time>
      </trkpt>
      <trkpt lat="45.92393" lon="6.86764">
        <ele>1048</ele>
        <time>2018-05-09T01:29:45Z</time>
      </trkpt>
      <trkpt lat="45.92402" lon="6.86767">
        <ele>1048</ele>
        <time>2018-05-09T01:30:45Z</time>
      </trkpt>
      <trkpt lat="45.9241" lon="6.8677">
        <ele>1048</ele>
        <time>2018-05-09T01:31:45Z</time>
      </trkpt>
      <trkpt lat="45.92416" lon="6.86772">
        <ele>1048</ele>
        <time>2018-05-09T01:32:45Z</time>
      </trkpt>
      <trkpt lat="45.92417" lon="6.86772">
        <ele>1050</ele>
        <time>2018-05-09T01:33:45Z</time>
      </trkpt>
      <trkpt lat="45.9244" lon="6.86781">
        <ele>1050</ele>
        <time>2018-05-09T01:34:45Z</time>
      </trkpt>
      <trkpt lat="45.92452" lon="6.86786">
        <ele>1051</ele>
        <time>2018-05-09T01:35:45Z</time>
      </trkpt>
      <trkpt lat="45.92472" lon="6.86794">
        <ele>1051</ele>
        <time>2018-05-09T01:36:45Z</time>
      </trkpt>
      <trkpt lat="45.92484" lon="6.86798">
        <ele>1051</ele>
        <time>2018-05-09T01:37:45Z</time>
      </trkpt>
      <trkpt lat="45.92505" lon="6.86807">
        <ele>1051</ele>
        <time>2018-05-09T01:38:45Z</time>
      </trkpt>
      <trkpt lat="45.9253" lon="6.86817">
        <ele>1051</ele>
        <time>2018-05-09T01:39:45Z</time>
      </trkpt>
      <trkpt lat="45.92538" lon="6.86823">
        <ele>1051</ele>
        <time>2018-05-09T01:40:45Z</time>
      </trkpt>
      <trkpt lat="45.92543" lon="6.86827">
        <ele>1051</ele>
        <time>2018-05-09T01:41:45Z</time>
      </trkpt>
      <trkpt lat="45.92545" lon="6.86829">
        <ele>1051</ele>
        <time>2018-05-09T01:42:45Z</time>
      </trkpt>
      <trkpt lat="45.92547" lon="6.86834">
        <ele>1046</ele>
        <time>2018-05-09T01:43:45Z</time>
      </trkpt>
      <trkpt lat="45.92549" lon="6.86836">
        <ele>1046</ele>
        <time>2018-05-09T01:44:45Z</time>
      </trkpt>
      <trkpt lat="45.92551" lon="6.86843">
        <ele>1046</ele>
        <time>2018-05-09T01:45:45Z</time>
      </trkpt>
      <trkpt lat="45.92552" lon="6.86851">
        <ele>1046</ele>
        <time>2018-05-09T01:46:45Z</time>
      </trkpt>
      <trkpt lat="45.92551" lon="6.86854">
        <ele>1046</ele>
        <time>2018-05-09T01:47:45Z</time>
      </trkpt>
      <trkpt lat="45.9255" lon="6.86862">
        <ele>1046</ele>
        <time>2018-05-09T01:48:45Z</time>
      </trkpt>
      <trkpt lat="45.92545" lon="6.86889">
        <ele>1045</ele>
        <time>2018-05-09T01:49:45Z</time>
      </trkpt>
      <trkpt lat="45.92544" lon="6.86896">
        <ele>1045</ele>
        <time>2018-05-09T01:50:45Z</time>
      </trkpt>
      <trkpt lat="45.92544" lon="6.86897">
        <ele>1045</ele>
        <time>2018-05-09T01:51:45Z</time>
      </trkpt>
      <trkpt lat="45.92533" lon="6.86946">
        <ele>1043</ele>
        <time>2018-05-09T01:52:45Z</time>
      </trkpt>
      <trkpt lat="45.92532" lon="6.86953">
        <ele>1043</ele>
        <time>2018-05-09T01:53:45Z</time>
      </trkpt>
      <trkpt lat="45.92527" lon="6.86981">
        <ele>1044</ele>
        <time>2018-05-09T01:54:45Z</time>
      </trkpt>
      <trkpt lat="45.92527" lon="6.86981">
        <ele>1044</ele>
        <time>2018-05-09T01:55:45Z</time>
      </trkpt>
      <trkpt lat="45.92531" lon="6.86982">
        <ele>1044</ele>
        <time>2018-05-09T01:56:45Z</time>
      </trkpt>
      <trkpt lat="45.92535" lon="6.86983">
        <ele>1044</ele>
        <time>2018-05-09T01:57:45Z</time>
      </trkpt>
      <trkpt lat="45.92549" lon="6.86988">
        <ele>1044</ele>
        <time>2018-05-09T01:58:45Z</time>
      </trkpt>
      <trkpt lat="45.92561" lon="6.86992">
        <ele>1043</ele>
        <time>2018-05-09T01:59:45Z</time>
      </trkpt>
      <trkpt lat="45.92571" lon="6.86995">
        <ele>1043</ele>
        <time>2018-05-09T02:00:45Z</time>
      </trkpt>
      <trkpt lat="45.92577" lon="6.86997">
        <ele>1043</ele>
        <time>2018-05-09T02:01:45Z</time>
      </trkpt>
      <trkpt lat="45.92604" lon="6.87005">
        <ele>1043</ele>
        <time>2018-05-09T02:02:45Z</time>
      </trkpt>
      <trkpt lat="45.92606" lon="6.87006">
        <ele>1043</ele>
        <time>2018-05-09T02:03:45Z</time>
      </trkpt>
      <trkpt lat="45.92626" lon="6.87012">
        <ele>1042</ele>
        <time>2018-05-09T02:04:45Z</time>
      </trkpt>
      <trkpt lat="45.92638" lon="6.87015">
        <ele>1042</ele>
        <time>2018-05-09T02:05:45Z</time>
      </trkpt>
      <trkpt lat="45.92646" lon="6.87016">
        <ele>1042</ele>
        <time>2018-05-09T02:06:45Z</time>
      </trkpt>
      <trkpt lat="45.92673" lon="6.87018">
        <ele>1043</ele>
        <time>2018-05-09T02:07:45Z</time>
      </trkpt>
      <trkpt lat="45.92681" lon="6.87019">
        <ele>1043</ele>
        <time>2018-05-09T02:08:45Z</time>
      </trkpt>
      <trkpt lat="45.92718" lon="6.87021">
        <ele>1045</ele>
        <time>2018-05-09T02:09:45Z</time>
      </trkpt>
      <trkpt lat="45.92732" lon="6.87022">
        <ele>1045</ele>
        <time>2018-05-09T02:10:45Z</time>
      </trkpt>
      <trkpt lat="45.92737" lon="6.87022">
        <ele>1046</ele>
        <time>2018-05-09T02:11:45Z</time>
      </trkpt>
      <trkpt lat="45.92764" lon="6.87023">
        <ele>1048</ele>
        <time>2018-05-09T02:12:45Z</time>
      </trkpt>
      <trkpt lat="45.92778" lon="6.87025">
        <ele>1048</ele>
        <time>2018-05-09T02:13:45Z</time>
      </trkpt>
      <trkpt lat="45.92787" lon="6.87026">
        <ele>1048</ele>
        <time>2018-05-09T02:14:45Z</time>
      </trkpt>
      <trkpt lat="45.92799" lon="6.8703">
        <ele>1048</ele>
        <time>2018-05-09T02:15:45Z</time>
      </trkpt>
      <trkpt lat="45.92812" lon="6.87033">
        <ele>1049</ele>
        <time>2018-05-09T02:16:45Z</time>
      </trkpt>
      <trkpt lat="45.92825" lon="6.8704">
        <ele>1049</ele>
        <time>2018-05-09T02:17:45Z</time>
      </trkpt>
      <trkpt lat="45.92846" lon="6.87047">
        <ele>1050</ele>
        <time>2018-05-09T02:18:45Z</time>
      </trkpt>
      <trkpt lat="45.9286" lon="6.87056">
        <ele>1050</ele>
        <time>2018-05-09T02:19:45Z</time>
      </trkpt>
      <trkpt lat="45.9287" lon="6.87064">
        <ele>1050</ele>
        <time>2018-05-09T02:20:45Z</time>
      </trkpt>
      <trkpt lat="45.9289" lon="6.87073">
        <ele>1050</ele>
        <time>2018-05-09T02:21:45Z</time>
      </trkpt>
      <trkpt lat="45.92909" lon="6.8708">
        <ele>1049</ele>
        <time>2018-05-09T02:22:45Z</time>
      </trkpt>
      <trkpt lat="45.92913" lon="6.87082">
        <ele>1049</ele>
        <time>2018-05-09T02:23:45Z</time>
      </trkpt>
      <trkpt lat="45.92935" lon="6.87088">
        <ele>1050</ele>
        <time>2018-05-09T02:24:45Z</time>
      </trkpt>
      <trkpt lat="45.92948" lon="6.87094">
        <ele>1051</ele>
        <time>2018-05-09T02:25:45Z</time>
      </trkpt>
      <trkpt lat="45.92958" lon="6.87101">
        <ele>1052</ele>
        <time>2018-05-09T02:26:45Z</time>
      </trkpt>
      <trkpt lat="45.9296" lon="6.87103">
        <ele>1052</ele>
        <time>2018-05-09T02:27:45Z</time>
      </trkpt>
      <trkpt lat="45.92965" lon="6.87107">
        <ele>1052</ele>
        <time>2018-05-09T02:28:45Z</time>
      </trkpt>
      <trkpt lat="45.92966" lon="6.87108">
        <ele>1052</ele>
        <time>2018-05-09T02:29:45Z</time>
      </trkpt>
      <trkpt lat="45.92972" lon="6.87115">
        <ele>1052</ele>
        <time>2018-05-09T02:30:45Z</time>
      </trkpt>
      <trkpt lat="45.9298" lon="6.87127">
        <ele>1052</ele>
        <time>2018-05-09T02:31:45Z</time>
      </trkpt>
      <trkpt lat="45.92996" lon="6.8715">
        <ele>1052</ele>
        <time>2018-05-09T02:32:45Z</time>
      </trkpt>
      <trkpt lat="45.93022" lon="6.87189">
        <ele>1053</ele>
        <time>2018-05-09T02:33:45Z</time>
      </trkpt>
      <trkpt lat="45.93053" lon="6.87235">
        <ele>1053</ele>
        <time>2018-05-09T02:34:45Z</time>
      </trkpt>
      <trkpt lat="45.93064" lon="6.87249">
        <ele>1053</ele>
        <time>2018-05-09T02:35:45Z</time>
      </trkpt>
      <trkpt lat="45.93068" lon="6.87257">
        <ele>1050</ele>
        <time>2018-05-09T02:36:45Z</time>
      </trkpt>
      <trkpt lat="45.93074" lon="6.87262">
        <ele>1051</ele>
        <time>2018-05-09T02:37:45Z</time>
      </trkpt>
      <trkpt lat="45.93074" lon="6.87262">
        <ele>1051</ele>
        <time>2018-05-09T02:38:45Z</time>
      </trkpt>
      <trkpt lat="45.93085" lon="6.87273">
        <ele>1055</ele>
        <time>2018-05-09T02:39:45Z</time>
      </trkpt>
      <trkpt lat="45.93097" lon="6.87282">
        <ele>1055</ele>
        <time>2018-05-09T02:40:45Z</time>
      </trkpt>
      <trkpt lat="45.93114" lon="6.87294">
        <ele>1055</ele>
        <time>2018-05-09T02:41:45Z</time>
      </trkpt>
      <trkpt lat="45.93127" lon="6.87301">
        <ele>1056</ele>
        <time>2018-05-09T02:42:45Z</time>
      </trkpt>
      <trkpt lat="45.93137" lon="6.87308">
        <ele>1056</ele>
        <time>2018-05-09T02:43:45Z</time>
      </trkpt>
      <trkpt lat="45.93153" lon="6.87319">
        <ele>1057</ele>
        <time>2018-05-09T02:44:45Z</time>
      </trkpt>
      <trkpt lat="45.93178" lon="6.87335">
        <ele>1057</ele>
        <time>2018-05-09T02:45:45Z</time>
      </trkpt>
      <trkpt lat="45.93197" lon="6.87349">
        <ele>1057</ele>
        <time>2018-05-09T02:46:45Z</time>
      </trkpt>
      <trkpt lat="45.93212" lon="6.8736">
        <ele>1057</ele>
        <time>2018-05-09T02:47:45Z</time>
      </trkpt>
      <trkpt lat="45.93227" lon="6.87373">
        <ele>1057</ele>
        <time>2018-05-09T02:48:45Z</time>
      </trkpt>
      <trkpt lat="45.93262" lon="6.87409">
        <ele>1057</ele>
        <time>2018-05-09T02:49:45Z</time>
      </trkpt>
      <trkpt lat="45.93276" lon="6.87423">
        <ele>1054</ele>
        <time>2018-05-09T02:50:45Z</time>
      </trkpt>
      <trkpt lat="45.93285" lon="6.87433">
        <ele>1054</ele>
        <time>2018-05-09T02:51:45Z</time>
      </trkpt>
      <trkpt lat="45.93287" lon="6.87436">
        <ele>1054</ele>
        <time>2018-05-09T02:52:45Z</time>
      </trkpt>
      <trkpt lat="45.93294" lon="6.87445">
        <ele>1054</ele>
        <time>2018-05-09T02:53:45Z</time>
      </trkpt>
      <trkpt lat="45.93301" lon="6.87455">
        <ele>1054</ele>
        <time>2018-05-09T02:54:45Z</time>
      </trkpt>
      <trkpt lat="45.93303" lon="6.87458">
        <ele>1054</ele>
        <time>2018-05-09T02:55:45Z</time>
      </trkpt>
      <trkpt lat="45.9331" lon="6.8747">
        <ele>1053</ele>
        <time>2018-05-09T02:56:45Z</time>
      </trkpt>
      <trkpt lat="45.93334" lon="6.87506">
        <ele>1052</ele>
        <time>2018-05-09T02:57:45Z</time>
      </trkpt>
      <trkpt lat="45.93349" lon="6.8753">
        <ele>1053</ele>
        <time>2018-05-09T02:58:45Z</time>
      </trkpt>
      <trkpt lat="45.93368" lon="6.87559">
        <ele>1054</ele>
        <time>2018-05-09T02:59:45Z</time>
      </trkpt>
      <trkpt lat="45.93377" lon="6.87571">
        <ele>1054</ele>
        <time>2018-05-09T03:00:45Z</time>
      </trkpt>
      <trkpt lat="45.9339" lon="6.8759">
        <ele>1053</ele>
        <time>2018-05-09T03:01:45Z</time>
      </trkpt>
      <trkpt lat="45.93392" lon="6.87592">
        <ele>1054</ele>
        <time>2018-05-09T03:02:45Z</time>
      </trkpt>
      <trkpt lat="45.93404" lon="6.87606">
        <ele>1054</ele>
        <time>2018-05-09T03:03:45Z</time>
      </trkpt>
      <trkpt lat="45.93413" lon="6.87614">
        <ele>1054</ele>
        <time>2018-05-09T03:04:45Z</time>
      </trkpt>
      <trkpt lat="45.93424" lon="6.87622">
        <ele>1058</ele>
        <time>2018-05-09T03:05:45Z</time>
      </trkpt>
      <trkpt lat="45.93436" lon="6.8763">
        <ele>1058</ele>
        <time>2018-05-09T03:06:45Z</time>
      </trkpt>
      <trkpt lat="45.93457" lon="6.87641">
        <ele>1059</ele>
        <time>2018-05-09T03:07:45Z</time>
      </trkpt>
      <trkpt lat="45.93491" lon="6.87659">
        <ele>1060</ele>
        <time>2018-05-09T03:08:45Z</time>
      </trkpt>
      <trkpt lat="45.93525" lon="6.87677">
        <ele>1059</ele>
        <time>2018-05-09T03:09:45Z</time>
      </trkpt>
      <trkpt lat="45.9355" lon="6.8769">
        <ele>1059</ele>
        <time>2018-05-09T03:10:45Z</time>
      </trkpt>
      <trkpt lat="45.93577" lon="6.87704">
        <ele>1058</ele>
        <time>2018-05-09T03:11:45Z</time>
      </trkpt>
      <trkpt lat="45.93584" lon="6.87707">
        <ele>1060</ele>
        <time>2018-05-09T03:12:45Z</time>
      </trkpt>
      <trkpt lat="45.93634" lon="6.87733">
        <ele>1059</ele>
        <time>2018-05-09T03:13:45Z</time>
      </trkpt>
      <trkpt lat="45.93658" lon="6.87746">
        <ele>1058</ele>
        <time>2018-05-09T03:14:45Z</time>
      </trkpt>
      <trkpt lat="45.93668" lon="6.87752">
        <ele>1057</ele>
        <time>2018-05-09T03:15:45Z</time>
      </trkpt>
      <trkpt lat="45.93671" lon="6.87753">
        <ele>1057</ele>
        <time>2018-05-09T03:16:45Z</time>
      </trkpt>
      <trkpt lat="45.93695" lon="6.87767">
        <ele>1059</ele>
        <time>2018-05-09T03:17:45Z</time>
      </trkpt>
      <trkpt lat="45.93706" lon="6.87775">
        <ele>1059</ele>
        <time>2018-05-09T03:18:45Z</time>
      </trkpt>
      <trkpt lat="45.93715" lon="6.87782">
        <ele>1060</ele>
        <time>2018-05-09T03:19:45Z</time>
      </trkpt>
      <trkpt lat="45.93727" lon="6.87795">
        <ele>1060</ele>
        <time>2018-05-09T03:20:45Z</time>
      </trkpt>
      <trkpt lat="45.93755" lon="6.87827">
        <ele>1061</ele>
        <time>2018-05-09T03:21:45Z</time>
      </trkpt>
      <trkpt lat="45.9378" lon="6.8786">
        <ele>1061</ele>
        <time>2018-05-09T03:22:45Z</time>
      </trkpt>
      <trkpt lat="45.93782" lon="6.87861">
        <ele>1061</ele>
        <time>2018-05-09T03:23:45Z</time>
      </trkpt>
      <trkpt lat="45.93796" lon="6.87878">
        <ele>1061</ele>
        <time>2018-05-09T03:24:45Z</time>
      </trkpt>
      <trkpt lat="45.93805" lon="6.87888">
        <ele>1061</ele>
        <time>2018-05-09T03:25:45Z</time>
      </trkpt>
      <trkpt lat="45.93808" lon="6.87892">
        <ele>1061</ele>
        <time>2018-05-09T03:26:45Z</time>
      </trkpt>
      <trkpt lat="45.93821" lon="6.87905">
        <ele>1062</ele>
        <time>2018-05-09T03:27:45Z</time>
      </trkpt>
      <trkpt lat="45.93836" lon="6.87917">
        <ele>1063</ele>
        <time>2018-05-09T03:28:45Z</time>
      </trkpt>
      <trkpt lat="45.93856" lon="6.87932">
        <ele>1063</ele>
        <time>2018-05-09T03:29:45Z</time>
      </trkpt>
      <trkpt lat="45.93888" lon="6.87952">
        <ele>1064</ele>
        <time>2018-05-09T03:30:45Z</time>
      </trkpt>
      <trkpt lat="45.93932" lon="6.87978">
        <ele>1067</ele>
        <time>2018-05-09T03:31:45Z</time>
      </trkpt>
      <trkpt lat="45.93949" lon="6.8799">
        <ele>1068</ele>
        <time>2018-05-09T03:32:45Z</time>
      </trkpt>
      <trkpt lat="45.93958" lon="6.87999">
        <ele>1068</ele>
        <time>2018-05-09T03:33:45Z</time>
      </trkpt>
      <trkpt lat="45.93968" lon="6.88011">
        <ele>1063</ele>
        <time>2018-05-09T03:34:45Z</time>
      </trkpt>
      <trkpt lat="45.93976" lon="6.88022">
        <ele>1063</ele>
        <time>2018-05-09T03:35:45Z</time>
      </trkpt>
      <trkpt lat="45.9398" lon="6.8803">
        <ele>1063</ele>
        <time>2018-05-09T03:36:45Z</time>
      </trkpt>
      <trkpt lat="45.93986" lon="6.88039">
        <ele>1062</ele>
        <time>2018-05-09T03:37:45Z</time>
      </trkpt>
      <trkpt lat="45.93991" lon="6.88051">
        <ele>1062</ele>
        <time>2018-05-09T03:38:45Z</time>
      </trkpt>
      <trkpt lat="45.93997" lon="6.88068">
        <ele>1061</ele>
        <time>2018-05-09T03:39:45Z</time>
      </trkpt>
      <trkpt lat="45.93998" lon="6.88074">
        <ele>1061</ele>
        <time>2018-05-09T03:40:45Z</time>
      </trkpt>
      <trkpt lat="45.94" lon="6.8808">
        <ele>1060</ele>
        <time>2018-05-09T03:41:45Z</time>
      </trkpt>
      <trkpt lat="45.94" lon="6.88086">
        <ele>1060</ele>
        <time>2018-05-09T03:42:45Z</time>
      </trkpt>
      <trkpt lat="45.94" lon="6.8809">
        <ele>1060</ele>
        <time>2018-05-09T03:43:45Z</time>
      </trkpt>
      <trkpt lat="45.93998" lon="6.88102">
        <ele>1060</ele>
        <time>2018-05-09T03:44:45Z</time>
      </trkpt>
      <trkpt lat="45.93995" lon="6.88113">
        <ele>1060</ele>
        <time>2018-05-09T03:45:45Z</time>
      </trkpt>
      <trkpt lat="45.93993" lon="6.88123">
        <ele>1060</ele>
        <time>2018-05-09T03:46:45Z</time>
      </trkpt>
      <trkpt lat="45.93992" lon="6.88126">
        <ele>1060</ele>
        <time>2018-05-09T03:47:45Z</time>
      </trkpt>
      <trkpt lat="45.93988" lon="6.88142">
        <ele>1060</ele>
        <time>2018-05-09T03:48:45Z</time>
      </trkpt>
      <trkpt lat="45.93988" lon="6.88146">
        <ele>1060</ele>
        <time>2018-05-09T03:49:45Z</time>
      </trkpt>
      <trkpt lat="45.93985" lon="6.88156">
        <ele>1060</ele>
        <time>2018-05-09T03:50:45Z</time>
      </trkpt>
      <trkpt lat="45.93984" lon="6.88168">
        <ele>1061</ele>
        <time>2018-05-09T03:51:45Z</time>
      </trkpt>
      <trkpt lat="45.93982" lon="6.88183">
        <ele>1061</ele>
        <time>2018-05-09T03:52:45Z</time>
      </trkpt>
      <trkpt lat="45.9398" lon="6.88206">
        <ele>1062</ele>
        <time>2018-05-09T03:53:45Z</time>
      </trkpt>
      <trkpt lat="45.9398" lon="6.88225">
        <ele>1062</ele>
        <time>2018-05-09T03:54:45Z</time>
      </trkpt>
      <trkpt lat="45.93981" lon="6.88252">
        <ele>1063</ele>
        <time>2018-05-09T03:55:45Z</time>
      </trkpt>
      <trkpt lat="45.93985" lon="6.88284">
        <ele>1063</ele>
        <time>2018-05-09T03:56:45Z</time>
      </trkpt>
      <trkpt lat="45.93989" lon="6.88315">
        <ele>1064</ele>
        <time>2018-05-09T03:57:45Z</time>
      </trkpt>
      <trkpt lat="45.93992" lon="6.88338">
        <ele>1064</ele>
        <time>2018-05-09T03:58:45Z</time>
      </trkpt>
      <trkpt lat="45.93992" lon="6.88339">
        <ele>1064</ele>
        <time>2018-05-09T03:59:45Z</time>
      </trkpt>
      <trkpt lat="45.93994" lon="6.88351">
        <ele>1063</ele>
        <time>2018-05-09T04:00:45Z</time>
      </trkpt>
      <trkpt lat="45.94003" lon="6.88416">
        <ele>1063</ele>
        <time>2018-05-09T04:01:45Z</time>
      </trkpt>
      <trkpt lat="45.94004" lon="6.88429">
        <ele>1063</ele>
        <time>2018-05-09T04:02:45Z</time>
      </trkpt>
      <trkpt lat="45.94015" lon="6.88513">
        <ele>1064</ele>
        <time>2018-05-09T04:03:45Z</time>
      </trkpt>
      <trkpt lat="45.94016" lon="6.88519">
        <ele>1063</ele>
        <time>2018-05-09T04:04:45Z</time>
      </trkpt>
      <trkpt lat="45.94017" lon="6.88528">
        <ele>1063</ele>
        <time>2018-05-09T04:05:45Z</time>
      </trkpt>
      <trkpt lat="45.94021" lon="6.88559">
        <ele>1063</ele>
        <time>2018-05-09T04:06:45Z</time>
      </trkpt>
      <trkpt lat="45.94024" lon="6.88579">
        <ele>1063</ele>
        <time>2018-05-09T04:07:45Z</time>
      </trkpt>
      <trkpt lat="45.94027" lon="6.88592">
        <ele>1063</ele>
        <time>2018-05-09T04:08:45Z</time>
      </trkpt>
      <trkpt lat="45.94031" lon="6.88603">
        <ele>1063</ele>
        <time>2018-05-09T04:09:45Z</time>
      </trkpt>
      <trkpt lat="45.94036" lon="6.88614">
        <ele>1063</ele>
        <time>2018-05-09T04:10:45Z</time>
      </trkpt>
      <trkpt lat="45.94037" lon="6.88616">
        <ele>1063</ele>
        <time>2018-05-09T04:11:45Z</time>
      </trkpt>
      <trkpt lat="45.94037" lon="6.88616">
        <ele>1063</ele>
        <time>2018-05-09T04:12:45Z</time>
      </trkpt>
      <trkpt lat="45.94038" lon="6.88619">
        <ele>1063</ele>
        <time>2018-05-09T04:13:45Z</time>
      </trkpt>
      <trkpt lat="45.94043" lon="6.88627">
        <ele>1063</ele>
        <time>2018-05-09T04:14:45Z</time>
      </trkpt>
      <trkpt lat="45.94044" lon="6.88629">
        <ele>1064</ele>
        <time>2018-05-09T04:15:45Z</time>
      </trkpt>
      <trkpt lat="45.94052" lon="6.8864">
        <ele>1063</ele>
        <time>2018-05-09T04:16:45Z</time>
      </trkpt>
      <trkpt lat="45.94057" lon="6.88647">
        <ele>1063</ele>
        <time>2018-05-09T04:17:45Z</time>
      </trkpt>
      <trkpt lat="45.94058" lon="6.88648">
        <ele>1063</ele>
        <time>2018-05-09T04:18:45Z</time>
      </trkpt>
      <trkpt lat="45.94082" lon="6.88678">
        <ele>1064</ele>
        <time>2018-05-09T04:19:45Z</time>
      </trkpt>
      <trkpt lat="45.94113" lon="6.88716">
        <ele>1065</ele>
        <time>2018-05-09T04:20:45Z</time>
      </trkpt>
      <trkpt lat="45.94116" lon="6.88721">
        <ele>1065</ele>
        <time>2018-05-09T04:21:45Z</time>
      </trkpt>
      <trkpt lat="45.94117" lon="6.88729">
        <ele>1065</ele>
        <time>2018-05-09T04:22:45Z</time>
      </trkpt>
      <trkpt lat="45.94116" lon="6.88742">
        <ele>1065</ele>
        <time>2018-05-09T04:23:45Z</time>
      </trkpt>
      <trkpt lat="45.94116" lon="6.88742">
        <ele>1065</ele>
        <time>2018-05-09T04:24:45Z</time>
      </trkpt>
      <trkpt lat="45.94119" lon="6.88743">
        <ele>1065</ele>
        <time>2018-05-09T04:25:45Z</time>
      </trkpt>
      <trkpt lat="45.94127" lon="6.88745">
        <ele>1065</ele>
        <time>2018-05-09T04:26:45Z</time>
      </trkpt>
      <trkpt lat="45.94131" lon="6.88747">
        <ele>1065</ele>
        <time>2018-05-09T04:27:45Z</time>
      </trkpt>
      <trkpt lat="45.94133" lon="6.88748">
        <ele>1065</ele>
        <time>2018-05-09T04:28:45Z</time>
      </trkpt>
      <trkpt lat="45.94142" lon="6.88754">
        <ele>1066</ele>
        <time>2018-05-09T04:29:45Z</time>
      </trkpt>
      <trkpt lat="45.9415" lon="6.88761">
        <ele>1066</ele>
        <time>2018-05-09T04:30:45Z</time>
      </trkpt>
      <trkpt lat="45.9416" lon="6.88771">
        <ele>1066</ele>
        <time>2018-05-09T04:31:45Z</time>
      </trkpt>
      <trkpt lat="45.94169" lon="6.88782">
        <ele>1066</ele>
        <time>2018-05-09T04:32:45Z</time>
      </trkpt>
      <trkpt lat="45.94185" lon="6.88802">
        <ele>1065</ele>
        <time>2018-05-09T04:33:45Z</time>
      </trkpt>
      <trkpt lat="45.94207" lon="6.88831">
        <ele>1065</ele>
        <time>2018-05-09T04:34:45Z</time>
      </trkpt>
      <trkpt lat="45.94236" lon="6.88869">
        <ele>1065</ele>
        <time>2018-05-09T04:35:45Z</time>
      </trkpt>
      <trkpt lat="45.94262" lon="6.88904">
        <ele>1065</ele>
        <time>2018-05-09T04:36:45Z</time>
      </trkpt>
      <trkpt lat="45.94264" lon="6.88907">
        <ele>1065</ele>
        <time>2018-05-09T04:37:45Z</time>
      </trkpt>
      <trkpt lat="45.94291" lon="6.88944">
        <ele>1068</ele>
        <time>2018-05-09T04:38:45Z</time>
      </trkpt>
      <trkpt lat="45.94318" lon="6.88978">
        <ele>1069</ele>
        <time>2018-05-09T04:39:45Z</time>
      </trkpt>
      <trkpt lat="45.94361" lon="6.89038">
        <ele>1072</ele>
        <time>2018-05-09T04:40:45Z</time>
      </trkpt>
      <trkpt lat="45.94469" lon="6.89178">
        <ele>1072</ele>
        <time>2018-05-09T04:41:45Z</time>
      </trkpt>
      <trkpt lat="45.94556" lon="6.89292">
        <ele>1073</ele>
        <time>2018-05-09T04:42:45Z</time>
      </trkpt>
      <trkpt lat="45.94581" lon="6.89326">
        <ele>1074</ele>
        <time>2018-05-09T04:43:45Z</time>
      </trkpt>
      <trkpt lat="45.94643" lon="6.89407">
        <ele>1075</ele>
        <time>2018-05-09T04:44:45Z</time>
      </trkpt>
      <trkpt lat="45.94723" lon="6.89512">
        <ele>1076</ele>
        <time>2018-05-09T04:45:45Z</time>
      </trkpt>
      <trkpt lat="45.94785" lon="6.89592">
        <ele>1077</ele>
        <time>2018-05-09T04:46:45Z</time>
      </trkpt>
      <trkpt lat="45.94811" lon="6.89626">
        <ele>1077</ele>
        <time>2018-05-09T04:47:45Z</time>
      </trkpt>
      <trkpt lat="45.94863" lon="6.89693">
        <ele>1079</ele>
        <time>2018-05-09T04:48:45Z</time>
      </trkpt>
      <trkpt lat="45.94927" lon="6.89779">
        <ele>1082</ele>
        <time>2018-05-09T04:49:45Z</time>
      </trkpt>
      <trkpt lat="45.9495" lon="6.89805">
        <ele>1083</ele>
        <time>2018-05-09T04:50:45Z</time>
      </trkpt>
      <trkpt lat="45.94958" lon="6.89814">
        <ele>1083</ele>
        <time>2018-05-09T04:51:45Z</time>
      </trkpt>
      <trkpt lat="45.94965" lon="6.89819">
        <ele>1084</ele>
        <time>2018-05-09T04:52:45Z</time>
      </trkpt>
      <trkpt lat="45.94971" lon="6.89822">
        <ele>1084</ele>
        <time>2018-05-09T04:53:45Z</time>
      </trkpt>
      <trkpt lat="45.94981" lon="6.89827">
        <ele>1084</ele>
        <time>2018-05-09T04:54:45Z</time>
      </trkpt>
      <trkpt lat="45.94999" lon="6.89833">
        <ele>1085</ele>
        <time>2018-05-09T04:55:45Z</time>
      </trkpt>
      <trkpt lat="45.95005" lon="6.89834">
        <ele>1085</ele>
        <time>2018-05-09T04:56:45Z</time>
      </trkpt>
      <trkpt lat="45.95011" lon="6.89836">
        <ele>1086</ele>
        <time>2018-05-09T04:57:45Z</time>
      </trkpt>
      <trkpt lat="45.95017" lon="6.89839">
        <ele>1086</ele>
        <time>2018-05-09T04:58:45Z</time>
      </trkpt>
      <trkpt lat="45.95023" lon="6.89851">
        <ele>1086</ele>
        <time>2018-05-09T04:59:45Z</time>
      </trkpt>
      <trkpt lat="45.95027" lon="6.89865">
        <ele>1087</ele>
        <time>2018-05-09T05:00:45Z</time>
      </trkpt>
      <trkpt lat="45.95029" lon="6.89872">
        <ele>1087</ele>
        <time>2018-05-09T05:01:45Z</time>
      </trkpt>
      <trkpt lat="45.9503" lon="6.89879">
        <ele>1087</ele>
        <time>2018-05-09T05:02:45Z</time>
      </trkpt>
      <trkpt lat="45.9503" lon="6.8988">
        <ele>1087</ele>
        <time>2018-05-09T05:03:45Z</time>
      </trkpt>
      <trkpt lat="45.95031" lon="6.89885">
        <ele>1087</ele>
        <time>2018-05-09T05:04:45Z</time>
      </trkpt>
      <trkpt lat="45.95031" lon="6.89887">
        <ele>1087</ele>
        <time>2018-05-09T05:05:45Z</time>
      </trkpt>
      <trkpt lat="45.95033" lon="6.89897">
        <ele>1088</ele>
        <time>2018-05-09T05:06:45Z</time>
      </trkpt>
      <trkpt lat="45.95034" lon="6.89908">
        <ele>1088</ele>
        <time>2018-05-09T05:07:45Z</time>
      </trkpt>
      <trkpt lat="45.95038" lon="6.89921">
        <ele>1090</ele>
        <time>2018-05-09T05:08:45Z</time>
      </trkpt>
      <trkpt lat="45.95041" lon="6.89928">
        <ele>1090</ele>
        <time>2018-05-09T05:09:45Z</time>
      </trkpt>
      <trkpt lat="45.95045" lon="6.89936">
        <ele>1090</ele>
        <time>2018-05-09T05:10:45Z</time>
      </trkpt>
      <trkpt lat="45.95048" lon="6.89942">
        <ele>1091</ele>
        <time>2018-05-09T05:11:45Z</time>
      </trkpt>
      <trkpt lat="45.95057" lon="6.89948">
        <ele>1090</ele>
        <time>2018-05-09T05:12:45Z</time>
      </trkpt>
      <trkpt lat="45.95094" lon="6.89995">
        <ele>1089</ele>
        <time>2018-05-09T05:13:45Z</time>
      </trkpt>
      <trkpt lat="45.95106" lon="6.90011">
        <ele>1091</ele>
        <time>2018-05-09T05:14:45Z</time>
      </trkpt>
      <trkpt lat="45.9512" lon="6.90029">
        <ele>1091</ele>
        <time>2018-05-09T05:15:45Z</time>
      </trkpt>
      <trkpt lat="45.95132" lon="6.90045">
        <ele>1091</ele>
        <time>2018-05-09T05:16:45Z</time>
      </trkpt>
      <trkpt lat="45.95184" lon="6.90112">
        <ele>1095</ele>
        <time>2018-05-09T05:17:45Z</time>
      </trkpt>
      <trkpt lat="45.9524" lon="6.90185">
        <ele>1106</ele>
        <time>2018-05-09T05:18:45Z</time>
      </trkpt>
      <trkpt lat="45.95258" lon="6.90208">
        <ele>1111</ele>
        <time>2018-05-09T05:19:45Z</time>
      </trkpt>
      <trkpt lat="45.95266" lon="6.90218">
        <ele>1114</ele>
        <time>2018-05-09T05:20:45Z</time>
      </trkpt>
      <trkpt lat="45.95277" lon="6.90227">
        <ele>1115</ele>
        <time>2018-05-09T05:21:45Z</time>
      </trkpt>
      <trkpt lat="45.95286" lon="6.90233">
        <ele>1115</ele>
        <time>2018-05-09T05:22:45Z</time>
      </trkpt>
      <trkpt lat="45.95299" lon="6.9024">
        <ele>1116</ele>
        <time>2018-05-09T05:23:45Z</time>
      </trkpt>
      <trkpt lat="45.95312" lon="6.90244">
        <ele>1117</ele>
        <time>2018-05-09T05:24:45Z</time>
      </trkpt>
      <trkpt lat="45.95321" lon="6.90246">
        <ele>1119</ele>
        <time>2018-05-09T05:25:45Z</time>
      </trkpt>
      <trkpt lat="45.95341" lon="6.90249">
        <ele>1120</ele>
        <time>2018-05-09T05:26:45Z</time>
      </trkpt>
      <trkpt lat="45.95366" lon="6.90252">
        <ele>1135</ele>
        <time>2018-05-09T05:27:45Z</time>
      </trkpt>
      <trkpt lat="45.95391" lon="6.90254">
        <ele>1134</ele>
        <time>2018-05-09T05:28:45Z</time>
      </trkpt>
      <trkpt lat="45.95418" lon="6.90255">
        <ele>1124</ele>
        <time>2018-05-09T05:29:45Z</time>
      </trkpt>
      <trkpt lat="45.95425" lon="6.90256">
        <ele>1127</ele>
        <time>2018-05-09T05:30:45Z</time>
      </trkpt>
      <trkpt lat="45.95439" lon="6.9026">
        <ele>1132</ele>
        <time>2018-05-09T05:31:45Z</time>
      </trkpt>
      <trkpt lat="45.95447" lon="6.90263">
        <ele>1133</ele>
        <time>2018-05-09T05:32:45Z</time>
      </trkpt>
      <trkpt lat="45.95461" lon="6.90272">
        <ele>1135</ele>
        <time>2018-05-09T05:33:45Z</time>
      </trkpt>
      <trkpt lat="45.95492" lon="6.90289">
        <ele>1138</ele>
        <time>2018-05-09T05:34:45Z</time>
      </trkpt>
      <trkpt lat="45.95507" lon="6.90296">
        <ele>1138</ele>
        <time>2018-05-09T05:35:45Z</time>
      </trkpt>
      <trkpt lat="45.95522" lon="6.90299">
        <ele>1138</ele>
        <time>2018-05-09T05:36:45Z</time>
      </trkpt>
      <trkpt lat="45.95528" lon="6.903">
        <ele>1138</ele>
        <time>2018-05-09T05:37:45Z</time>
      </trkpt>
      <trkpt lat="45.95534" lon="6.903">
        <ele>1138</ele>
        <time>2018-05-09T05:38:45Z</time>
      </trkpt>
      <trkpt lat="45.95548" lon="6.90301">
        <ele>1137</ele>
        <time>2018-05-09T05:39:45Z</time>
      </trkpt>
      <trkpt lat="45.95574" lon="6.90298">
        <ele>1137</ele>
        <time>2018-05-09T05:40:45Z</time>
      </trkpt>
      <trkpt lat="45.95581" lon="6.90297">
        <ele>1136</ele>
        <time>2018-05-09T05:41:45Z</time>
      </trkpt>
      <trkpt lat="45.95599" lon="6.90292">
        <ele>1138</ele>
        <time>2018-05-09T05:42:45Z</time>
      </trkpt>
      <trkpt lat="45.95612" lon="6.90288">
        <ele>1138</ele>
        <time>2018-05-09T05:43:45Z</time>
      </trkpt>
      <trkpt lat="45.95631" lon="6.90282">
        <ele>1138</ele>
        <time>2018-05-09T05:44:45Z</time>
      </trkpt>
      <trkpt lat="45.95638" lon="6.9028">
        <ele>1138</ele>
        <time>2018-05-09T05:45:45Z</time>
      </trkpt>
      <trkpt lat="45.95643" lon="6.90279">
        <ele>1138</ele>
        <time>2018-05-09T05:46:45Z</time>
      </trkpt>
      <trkpt lat="45.95648" lon="6.90279">
        <ele>1138</ele>
        <time>2018-05-09T05:47:45Z</time>
      </trkpt>
      <trkpt lat="45.95652" lon="6.9028">
        <ele>1139</ele>
        <time>2018-05-09T05:48:45Z</time>
      </trkpt>
      <trkpt lat="45.95655" lon="6.90281">
        <ele>1139</ele>
        <time>2018-05-09T05:49:45Z</time>
      </trkpt>
      <trkpt lat="45.95659" lon="6.90283">
        <ele>1139</ele>
        <time>2018-05-09T05:50:45Z</time>
      </trkpt>
      <trkpt lat="45.95663" lon="6.90285">
        <ele>1140</ele>
        <time>2018-05-09T05:51:45Z</time>
      </trkpt>
      <trkpt lat="45.9567" lon="6.9029">
        <ele>1147</ele>
        <time>2018-05-09T05:52:45Z</time>
      </trkpt>
      <trkpt lat="45.95679" lon="6.90294">
        <ele>1148</ele>
        <time>2018-05-09T05:53:45Z</time>
      </trkpt>
      <trkpt lat="45.95687" lon="6.90297">
        <ele>1148</ele>
        <time>2018-05-09T05:54:45Z</time>
      </trkpt>
      <trkpt lat="45.95693" lon="6.90298">
        <ele>1149</ele>
        <time>2018-05-09T05:55:45Z</time>
      </trkpt>
      <trkpt lat="45.95702" lon="6.90298">
        <ele>1149</ele>
        <time>2018-05-09T05:56:45Z</time>
      </trkpt>
      <trkpt lat="45.95712" lon="6.90296">
        <ele>1149</ele>
        <time>2018-05-09T05:57:45Z</time>
      </trkpt>
      <trkpt lat="45.95721" lon="6.90294">
        <ele>1149</ele>
        <time>2018-05-09T05:58:45Z</time>
      </trkpt>
      <trkpt lat="45.95731" lon="6.90293">
        <ele>1149</ele>
        <time>2018-05-09T05:59:45Z</time>
      </trkpt>
      <trkpt lat="45.95735" lon="6.90291">
        <ele>1149</ele>
        <time>2018-05-09T06:00:45Z</time>
      </trkpt>
      <trkpt lat="45.9574" lon="6.90289">
        <ele>1148</ele>
        <time>2018-05-09T06:01:45Z</time>
      </trkpt>
      <trkpt lat="45.95748" lon="6.90289">
        <ele>1149</ele>
        <time>2018-05-09T06:02:45Z</time>
      </trkpt>
      <trkpt lat="45.95754" lon="6.90289">
        <ele>1152</ele>
        <time>2018-05-09T06:03:45Z</time>
      </trkpt>
      <trkpt lat="45.9576" lon="6.9029">
        <ele>1152</ele>
        <time>2018-05-09T06:04:45Z</time>
      </trkpt>
      <trkpt lat="45.95765" lon="6.90293">
        <ele>1153</ele>
        <time>2018-05-09T06:05:45Z</time>
      </trkpt>
      <trkpt lat="45.95769" lon="6.90296">
        <ele>1153</ele>
        <time>2018-05-09T06:06:45Z</time>
      </trkpt>
      <trkpt lat="45.95776" lon="6.90301">
        <ele>1154</ele>
        <time>2018-05-09T06:07:45Z</time>
      </trkpt>
      <trkpt lat="45.95784" lon="6.9031">
        <ele>1154</ele>
        <time>2018-05-09T06:08:45Z</time>
      </trkpt>
      <trkpt lat="45.95793" lon="6.90319">
        <ele>1154</ele>
        <time>2018-05-09T06:09:45Z</time>
      </trkpt>
      <trkpt lat="45.95799" lon="6.90324">
        <ele>1154</ele>
        <time>2018-05-09T06:10:45Z</time>
      </trkpt>
      <trkpt lat="45.95802" lon="6.90326">
        <ele>1154</ele>
        <time>2018-05-09T06:11:45Z</time>
      </trkpt>
      <trkpt lat="45.95805" lon="6.90327">
        <ele>1154</ele>
        <time>2018-05-09T06:12:45Z</time>
      </trkpt>
      <trkpt lat="45.95809" lon="6.90327">
        <ele>1154</ele>
        <time>2018-05-09T06:13:45Z</time>
      </trkpt>
      <trkpt lat="45.95814" lon="6.90328">
        <ele>1153</ele>
        <time>2018-05-09T06:14:45Z</time>
      </trkpt>
      <trkpt lat="45.95819" lon="6.90327">
        <ele>1153</ele>
        <time>2018-05-09T06:15:45Z</time>
      </trkpt>
      <trkpt lat="45.95824" lon="6.90326">
        <ele>1153</ele>
        <time>2018-05-09T06:16:45Z</time>
      </trkpt>
      <trkpt lat="45.95829" lon="6.90325">
        <ele>1153</ele>
        <time>2018-05-09T06:17:45Z</time>
      </trkpt>
      <trkpt lat="45.95834" lon="6.90324">
        <ele>1155</ele>
        <time>2018-05-09T06:18:45Z</time>
      </trkpt>
      <trkpt lat="45.95839" lon="6.90324">
        <ele>1156</ele>
        <time>2018-05-09T06:19:45Z</time>
      </trkpt>
      <trkpt lat="45.95843" lon="6.90325">
        <ele>1156</ele>
        <time>2018-05-09T06:20:45Z</time>
      </trkpt>
      <trkpt lat="45.95848" lon="6.90326">
        <ele>1157</ele>
        <time>2018-05-09T06:21:45Z</time>
      </trkpt>
      <trkpt lat="45.95851" lon="6.90327">
        <ele>1157</ele>
        <time>2018-05-09T06:22:45Z</time>
      </trkpt>
      <trkpt lat="45.95854" lon="6.9033">
        <ele>1158</ele>
        <time>2018-05-09T06:23:45Z</time>
      </trkpt>
      <trkpt lat="45.95859" lon="6.90333">
        <ele>1158</ele>
        <time>2018-05-09T06:24:45Z</time>
      </trkpt>
      <trkpt lat="45.95866" lon="6.9034">
        <ele>1159</ele>
        <time>2018-05-09T06:25:45Z</time>
      </trkpt>
      <trkpt lat="45.95874" lon="6.90351">
        <ele>1160</ele>
        <time>2018-05-09T06:26:45Z</time>
      </trkpt>
      <trkpt lat="45.95881" lon="6.90361">
        <ele>1160</ele>
        <time>2018-05-09T06:27:45Z</time>
      </trkpt>
      <trkpt lat="45.95887" lon="6.90373">
        <ele>1161</ele>
        <time>2018-05-09T06:28:45Z</time>
      </trkpt>
      <trkpt lat="45.95891" lon="6.90382">
        <ele>1161</ele>
        <time>2018-05-09T06:29:45Z</time>
      </trkpt>
      <trkpt lat="45.95895" lon="6.90392">
        <ele>1160</ele>
        <time>2018-05-09T06:30:45Z</time>
      </trkpt>
      <trkpt lat="45.95899" lon="6.90403">
        <ele>1160</ele>
        <time>2018-05-09T06:31:45Z</time>
      </trkpt>
      <trkpt lat="45.95903" lon="6.90414">
        <ele>1158</ele>
        <time>2018-05-09T06:32:45Z</time>
      </trkpt>
      <trkpt lat="45.95911" lon="6.90439">
        <ele>1166</ele>
        <time>2018-05-09T06:33:45Z</time>
      </trkpt>
      <trkpt lat="45.95915" lon="6.90454">
        <ele>1168</ele>
        <time>2018-05-09T06:34:45Z</time>
      </trkpt>
      <trkpt lat="45.95917" lon="6.90467">
        <ele>1162</ele>
        <time>2018-05-09T06:35:45Z</time>
      </trkpt>
      <trkpt lat="45.95919" lon="6.9048">
        <ele>1162</ele>
        <time>2018-05-09T06:36:45Z</time>
      </trkpt>
      <trkpt lat="45.9592" lon="6.90492">
        <ele>1161</ele>
        <time>2018-05-09T06:37:45Z</time>
      </trkpt>
      <trkpt lat="45.95925" lon="6.90523">
        <ele>1162</ele>
        <time>2018-05-09T06:38:45Z</time>
      </trkpt>
      <trkpt lat="45.95932" lon="6.90556">
        <ele>1162</ele>
        <time>2018-05-09T06:39:45Z</time>
      </trkpt>
      <trkpt lat="45.95932" lon="6.90557">
        <ele>1162</ele>
        <time>2018-05-09T06:40:45Z</time>
      </trkpt>
      <trkpt lat="45.95947" lon="6.90601">
        <ele>1165</ele>
        <time>2018-05-09T06:41:45Z</time>
      </trkpt>
      <trkpt lat="45.95957" lon="6.90628">
        <ele>1165</ele>
        <time>2018-05-09T06:42:45Z</time>
      </trkpt>
      <trkpt lat="45.95958" lon="6.90635">
        <ele>1166</ele>
        <time>2018-05-09T06:43:45Z</time>
      </trkpt>
      <trkpt lat="45.95985" lon="6.90697">
        <ele>1173</ele>
        <time>2018-05-09T06:44:45Z</time>
      </trkpt>
      <trkpt lat="45.96016" lon="6.90757">
        <ele>1175</ele>
        <time>2018-05-09T06:45:45Z</time>
      </trkpt>
      <trkpt lat="45.96018" lon="6.90761">
        <ele>1176</ele>
        <time>2018-05-09T06:46:45Z</time>
      </trkpt>
      <trkpt lat="45.96024" lon="6.9077">
        <ele>1176</ele>
        <time>2018-05-09T06:47:45Z</time>
      </trkpt>
      <trkpt lat="45.96033" lon="6.90782">
        <ele>1177</ele>
        <time>2018-05-09T06:48:45Z</time>
      </trkpt>
      <trkpt lat="45.96053" lon="6.90804">
        <ele>1176</ele>
        <time>2018-05-09T06:49:45Z</time>
      </trkpt>
      <trkpt lat="45.96093" lon="6.90847">
        <ele>1176</ele>
        <time>2018-05-09T06:50:45Z</time>
      </trkpt>
      <trkpt lat="45.96145" lon="6.90904">
        <ele>1182</ele>
        <time>2018-05-09T06:51:45Z</time>
      </trkpt>
      <trkpt lat="45.96168" lon="6.90929">
        <ele>1184</ele>
        <time>2018-05-09T06:52:45Z</time>
      </trkpt>
      <trkpt lat="45.96177" lon="6.90938">
        <ele>1188</ele>
        <time>2018-05-09T06:53:45Z</time>
      </trkpt>
      <trkpt lat="45.96189" lon="6.90946">
        <ele>1190</ele>
        <time>2018-05-09T06:54:45Z</time>
      </trkpt>
      <trkpt lat="45.96205" lon="6.90955">
        <ele>1191</ele>
        <time>2018-05-09T06:55:45Z</time>
      </trkpt>
      <trkpt lat="45.9622" lon="6.90968">
        <ele>1191</ele>
        <time>2018-05-09T06:56:45Z</time>
      </trkpt>
      <trkpt lat="45.96235" lon="6.90982">
        <ele>1190</ele>
        <time>2018-05-09T06:57:45Z</time>
      </trkpt>
      <trkpt lat="45.96252" lon="6.91001">
        <ele>1187</ele>
        <time>2018-05-09T06:58:45Z</time>
      </trkpt>
      <trkpt lat="45.96265" lon="6.9102">
        <ele>1190</ele>
        <time>2018-05-09T06:59:45Z</time>
      </trkpt>
      <trkpt lat="45.96277" lon="6.9104">
        <ele>1192</ele>
        <time>2018-05-09T07:00:45Z</time>
      </trkpt>
      <trkpt lat="45.96288" lon="6.91061">
        <ele>1192</ele>
        <time>2018-05-09T07:01:45Z</time>
      </trkpt>
      <trkpt lat="45.96296" lon="6.91083">
        <ele>1191</ele>
        <time>2018-05-09T07:02:45Z</time>
      </trkpt>
      <trkpt lat="45.96306" lon="6.91106">
        <ele>1199</ele>
        <time>2018-05-09T07:03:45Z</time>
      </trkpt>
      <trkpt lat="45.96316" lon="6.91124">
        <ele>1200</ele>
        <time>2018-05-09T07:04:45Z</time>
      </trkpt>
      <trkpt lat="45.96318" lon="6.91128">
        <ele>1200</ele>
        <time>2018-05-09T07:05:45Z</time>
      </trkpt>
      <trkpt lat="45.96322" lon="6.91132">
        <ele>1200</ele>
        <time>2018-05-09T07:06:45Z</time>
      </trkpt>
      <trkpt lat="45.96335" lon="6.91148">
        <ele>1191</ele>
        <time>2018-05-09T07:07:45Z</time>
      </trkpt>
      <trkpt lat="45.9635" lon="6.91161">
        <ele>1191</ele>
        <time>2018-05-09T07:08:45Z</time>
      </trkpt>
      <trkpt lat="45.96367" lon="6.91176">
        <ele>1196</ele>
        <time>2018-05-09T07:09:45Z</time>
      </trkpt>
      <trkpt lat="45.96399" lon="6.91199">
        <ele>1194</ele>
        <time>2018-05-09T07:10:45Z</time>
      </trkpt>
      <trkpt lat="45.96403" lon="6.912">
        <ele>1194</ele>
        <time>2018-05-09T07:11:45Z</time>
      </trkpt>
      <trkpt lat="45.96414" lon="6.91209">
        <ele>1194</ele>
        <time>2018-05-09T07:12:45Z</time>
      </trkpt>
      <trkpt lat="45.9642" lon="6.91214">
        <ele>1185</ele>
        <time>2018-05-09T07:13:45Z</time>
      </trkpt>
      <trkpt lat="45.96443" lon="6.91232">
        <ele>1185</ele>
        <time>2018-05-09T07:14:45Z</time>
      </trkpt>
      <trkpt lat="45.96467" lon="6.91247">
        <ele>1183</ele>
        <time>2018-05-09T07:15:45Z</time>
      </trkpt>
      <trkpt lat="45.96488" lon="6.91257">
        <ele>1185</ele>
        <time>2018-05-09T07:16:45Z</time>
      </trkpt>
      <trkpt lat="45.96518" lon="6.91269">
        <ele>1183</ele>
        <time>2018-05-09T07:17:45Z</time>
      </trkpt>
      <trkpt lat="45.96519" lon="6.91269">
        <ele>1183</ele>
        <time>2018-05-09T07:18:45Z</time>
      </trkpt>
      <trkpt lat="45.96548" lon="6.91279">
        <ele>1184</ele>
        <time>2018-05-09T07:19:45Z</time>
      </trkpt>
      <trkpt lat="45.96578" lon="6.91289">
        <ele>1185</ele>
        <time>2018-05-09T07:20:45Z</time>
      </trkpt>
      <trkpt lat="45.96603" lon="6.91297">
        <ele>1185</ele>
        <time>2018-05-09T07:21:45Z</time>
      </trkpt>
      <trkpt lat="45.96649" lon="6.91313">
        <ele>1184</ele>
        <time>2018-05-09T07:22:45Z</time>
      </trkpt>
      <trkpt lat="45.96674" lon="6.9132">
        <ele>1185</ele>
        <time>2018-05-09T07:23:45Z</time>
      </trkpt>
      <trkpt lat="45.96704" lon="6.91331">
        <ele>1185</ele>
        <time>2018-05-09T07:24:45Z</time>
      </trkpt>
      <trkpt lat="45.96726" lon="6.91337">
        <ele>1185</ele>
        <time>2018-05-09T07:25:45Z</time>
      </trkpt>
      <trkpt lat="45.96747" lon="6.91346">
        <ele>1185</ele>
        <time>2018-05-09T07:26:45Z</time>
      </trkpt>
      <trkpt lat="45.96751" lon="6.91348">
        <ele>1187</ele>
        <time>2018-05-09T07:27:45Z</time>
      </trkpt>
      <trkpt lat="45.96757" lon="6.9135">
        <ele>1187</ele>
        <time>2018-05-09T07:28:45Z</time>
      </trkpt>
      <trkpt lat="45.96765" lon="6.91354">
        <ele>1188</ele>
        <time>2018-05-09T07:29:45Z</time>
      </trkpt>
      <trkpt lat="45.96782" lon="6.91366">
        <ele>1189</ele>
        <time>2018-05-09T07:30:45Z</time>
      </trkpt>
      <trkpt lat="45.96796" lon="6.91379">
        <ele>1189</ele>
        <time>2018-05-09T07:31:45Z</time>
      </trkpt>
      <trkpt lat="45.96797" lon="6.9138">
        <ele>1189</ele>
        <time>2018-05-09T07:32:45Z</time>
      </trkpt>
      <trkpt lat="45.96807" lon="6.91392">
        <ele>1190</ele>
        <time>2018-05-09T07:33:45Z</time>
      </trkpt>
      <trkpt lat="45.9683" lon="6.91418">
        <ele>1191</ele>
        <time>2018-05-09T07:34:45Z</time>
      </trkpt>
      <trkpt lat="45.96838" lon="6.91427">
        <ele>1192</ele>
        <time>2018-05-09T07:35:45Z</time>
      </trkpt>
      <trkpt lat="45.96843" lon="6.91434">
        <ele>1192</ele>
        <time>2018-05-09T07:36:45Z</time>
      </trkpt>
      <trkpt lat="45.96852" lon="6.91445">
        <ele>1193</ele>
        <time>2018-05-09T07:37:45Z</time>
      </trkpt>
      <trkpt lat="45.96878" lon="6.91478">
        <ele>1194</ele>
        <time>2018-05-09T07:38:45Z</time>
      </trkpt>
      <trkpt lat="45.96901" lon="6.91508">
        <ele>1196</ele>
        <time>2018-05-09T07:39:45Z</time>
      </trkpt>
      <trkpt lat="45.96938" lon="6.91553">
        <ele>1200</ele>
        <time>2018-05-09T07:40:45Z</time>
      </trkpt>
      <trkpt lat="45.96973" lon="6.91596">
        <ele>1200</ele>
        <time>2018-05-09T07:41:45Z</time>
      </trkpt>
      <trkpt lat="45.96992" lon="6.91616">
        <ele>1199</ele>
        <time>2018-05-09T07:42:45Z</time>
      </trkpt>
      <trkpt lat="45.97006" lon="6.91628">
        <ele>1200</ele>
        <time>2018-05-09T07:43:45Z</time>
      </trkpt>
      <trkpt lat="45.97018" lon="6.91638">
        <ele>1199</ele>
        <time>2018-05-09T07:44:45Z</time>
      </trkpt>
      <trkpt lat="45.97033" lon="6.9165">
        <ele>1200</ele>
        <time>2018-05-09T07:45:45Z</time>
      </trkpt>
      <trkpt lat="45.97056" lon="6.91668">
        <ele>1200</ele>
        <time>2018-05-09T07:46:45Z</time>
      </trkpt>
      <trkpt lat="45.971" lon="6.91701">
        <ele>1203</ele>
        <time>2018-05-09T07:47:45Z</time>
      </trkpt>
      <trkpt lat="45.97115" lon="6.91713">
        <ele>1204</ele>
        <time>2018-05-09T07:48:45Z</time>
      </trkpt>
      <trkpt lat="45.97158" lon="6.91746">
        <ele>1205</ele>
        <time>2018-05-09T07:49:45Z</time>
      </trkpt>
      <trkpt lat="45.97179" lon="6.91762">
        <ele>1205</ele>
        <time>2018-05-09T07:50:45Z</time>
      </trkpt>
      <trkpt lat="45.9718" lon="6.91763">
        <ele>1205</ele>
        <time>2018-05-09T07:51:45Z</time>
      </trkpt>
      <trkpt lat="45.97203" lon="6.9178">
        <ele>1204</ele>
        <time>2018-05-09T07:52:45Z</time>
      </trkpt>
      <trkpt lat="45.97213" lon="6.91788">
        <ele>1204</ele>
        <time>2018-05-09T07:53:45Z</time>
      </trkpt>
      <trkpt lat="45.97237" lon="6.91808">
        <ele>1205</ele>
        <time>2018-05-09T07:54:45Z</time>
      </trkpt>
      <trkpt lat="45.97253" lon="6.91826">
        <ele>1206</ele>
        <time>2018-05-09T07:55:45Z</time>
      </trkpt>
      <trkpt lat="45.97267" lon="6.91844">
        <ele>1208</ele>
        <time>2018-05-09T07:56:45Z</time>
      </trkpt>
      <trkpt lat="45.97286" lon="6.91872">
        <ele>1209</ele>
        <time>2018-05-09T07:57:45Z</time>
      </trkpt>
      <trkpt lat="45.97314" lon="6.91916">
        <ele>1212</ele>
        <time>2018-05-09T07:58:45Z</time>
      </trkpt>
      <trkpt lat="45.9733" lon="6.91943">
        <ele>1212</ele>
        <time>2018-05-09T07:59:45Z</time>
      </trkpt>
      <trkpt lat="45.97347" lon="6.91962">
        <ele>1213</ele>
        <time>2018-05-09T08:00:45Z</time>
      </trkpt>
      <trkpt lat="45.97368" lon="6.91981">
        <ele>1213</ele>
        <time>2018-05-09T08:01:45Z</time>
      </trkpt>
      <trkpt lat="45.97398" lon="6.92006">
        <ele>1214</ele>
        <time>2018-05-09T08:02:45Z</time>
      </trkpt>
      <trkpt lat="45.97437" lon="6.92036">
        <ele>1215</ele>
        <time>2018-05-09T08:03:45Z</time>
      </trkpt>
      <trkpt lat="45.97476" lon="6.92066">
        <ele>1216</ele>
        <time>2018-05-09T08:04:45Z</time>
      </trkpt>
      <trkpt lat="45.97481" lon="6.92069">
        <ele>1216</ele>
        <time>2018-05-09T08:05:45Z</time>
      </trkpt>
      <trkpt lat="45.97517" lon="6.92096">
        <ele>1216</ele>
        <time>2018-05-09T08:06:45Z</time>
      </trkpt>
      <trkpt lat="45.97534" lon="6.92108">
        <ele>1216</ele>
        <time>2018-05-09T08:07:45Z</time>
      </trkpt>
      <trkpt lat="45.97543" lon="6.9211">
        <ele>1216</ele>
        <time>2018-05-09T08:08:45Z</time>
      </trkpt>
      <trkpt lat="45.97544" lon="6.9211">
        <ele>1216</ele>
        <time>2018-05-09T08:09:45Z</time>
      </trkpt>
      <trkpt lat="45.97553" lon="6.92112">
        <ele>1216</ele>
        <time>2018-05-09T08:10:45Z</time>
      </trkpt>
      <trkpt lat="45.97563" lon="6.92111">
        <ele>1215</ele>
        <time>2018-05-09T08:11:45Z</time>
      </trkpt>
      <trkpt lat="45.97572" lon="6.92108">
        <ele>1215</ele>
        <time>2018-05-09T08:12:45Z</time>
      </trkpt>
      <trkpt lat="45.97578" lon="6.92104">
        <ele>1215</ele>
        <time>2018-05-09T08:13:45Z</time>
      </trkpt>
      <trkpt lat="45.97585" lon="6.92099">
        <ele>1215</ele>
        <time>2018-05-09T08:14:45Z</time>
      </trkpt>
      <trkpt lat="45.97593" lon="6.9209">
        <ele>1215</ele>
        <time>2018-05-09T08:15:45Z</time>
      </trkpt>
      <trkpt lat="45.97596" lon="6.92087">
        <ele>1215</ele>
        <time>2018-05-09T08:16:45Z</time>
      </trkpt>
      <trkpt lat="45.97599" lon="6.92084">
        <ele>1215</ele>
        <time>2018-05-09T08:17:45Z</time>
      </trkpt>
      <trkpt lat="45.97603" lon="6.9208">
        <ele>1216</ele>
        <time>2018-05-09T08:18:45Z</time>
      </trkpt>
      <trkpt lat="45.97604" lon="6.9208">
        <ele>1216</ele>
        <time>2018-05-09T08:19:45Z</time>
      </trkpt>
      <trkpt lat="45.9761" lon="6.92076">
        <ele>1217</ele>
        <time>2018-05-09T08:20:45Z</time>
      </trkpt>
      <trkpt lat="45.97611" lon="6.92076">
        <ele>1217</ele>
        <time>2018-05-09T08:21:45Z</time>
      </trkpt>
      <trkpt lat="45.9762" lon="6.92072">
        <ele>1217</ele>
        <time>2018-05-09T08:22:45Z</time>
      </trkpt>
      <trkpt lat="45.97628" lon="6.92072">
        <ele>1217</ele>
        <time>2018-05-09T08:23:45Z</time>
      </trkpt>
      <trkpt lat="45.97636" lon="6.92074">
        <ele>1218</ele>
        <time>2018-05-09T08:24:45Z</time>
      </trkpt>
      <trkpt lat="45.97637" lon="6.92074">
        <ele>1218</ele>
        <time>2018-05-09T08:25:45Z</time>
      </trkpt>
      <trkpt lat="45.97645" lon="6.92079">
        <ele>1218</ele>
        <time>2018-05-09T08:26:45Z</time>
      </trkpt>
      <trkpt lat="45.97658" lon="6.92091">
        <ele>1218</ele>
        <time>2018-05-09T08:27:45Z</time>
      </trkpt>
      <trkpt lat="45.97682" lon="6.92114">
        <ele>1221</ele>
        <time>2018-05-09T08:28:45Z</time>
      </trkpt>
      <trkpt lat="45.97723" lon="6.92155">
        <ele>1221</ele>
        <time>2018-05-09T08:29:45Z</time>
      </trkpt>
      <trkpt lat="45.97766" lon="6.92196">
        <ele>1222</ele>
        <time>2018-05-09T08:30:45Z</time>
      </trkpt>
      <trkpt lat="45.97793" lon="6.92217">
        <ele>1223</ele>
        <time>2018-05-09T08:31:45Z</time>
      </trkpt>
      <trkpt lat="45.97811" lon="6.92231">
        <ele>1223</ele>
        <time>2018-05-09T08:32:45Z</time>
      </trkpt>
      <trkpt lat="45.97818" lon="6.92236">
        <ele>1223</ele>
        <time>2018-05-09T08:33:45Z</time>
      </trkpt>
      <trkpt lat="45.9782" lon="6.92237">
        <ele>1223</ele>
        <time>2018-05-09T08:34:45Z</time>
      </trkpt>
      <trkpt lat="45.97845" lon="6.92255">
        <ele>1224</ele>
        <time>2018-05-09T08:35:45Z</time>
      </trkpt>
      <trkpt lat="45.97849" lon="6.92257">
        <ele>1224</ele>
        <time>2018-05-09T08:36:45Z</time>
      </trkpt>
      <trkpt lat="45.97853" lon="6.9226">
        <ele>1225</ele>
        <time>2018-05-09T08:37:45Z</time>
      </trkpt>
      <trkpt lat="45.97869" lon="6.92271">
        <ele>1226</ele>
        <time>2018-05-09T08:38:45Z</time>
      </trkpt>
      <trkpt lat="45.97895" lon="6.92286">
        <ele>1227</ele>
        <time>2018-05-09T08:39:45Z</time>
      </trkpt>
      <trkpt lat="45.97916" lon="6.923">
        <ele>1227</ele>
        <time>2018-05-09T08:40:45Z</time>
      </trkpt>
      <trkpt lat="45.97938" lon="6.92312">
        <ele>1237</ele>
        <time>2018-05-09T08:41:45Z</time>
      </trkpt>
      <trkpt lat="45.97953" lon="6.9232">
        <ele>1238</ele>
        <time>2018-05-09T08:42:45Z</time>
      </trkpt>
      <trkpt lat="45.97964" lon="6.92329">
        <ele>1239</ele>
        <time>2018-05-09T08:43:45Z</time>
      </trkpt>
      <trkpt lat="45.97973" lon="6.92335">
        <ele>1236</ele>
        <time>2018-05-09T08:44:45Z</time>
      </trkpt>
      <trkpt lat="45.97982" lon="6.92346">
        <ele>1237</ele>
        <time>2018-05-09T08:45:45Z</time>
      </trkpt>
      <trkpt lat="45.97996" lon="6.92361">
        <ele>1237</ele>
        <time>2018-05-09T08:46:45Z</time>
      </trkpt>
      <trkpt lat="45.98015" lon="6.92383">
        <ele>1244</ele>
        <time>2018-05-09T08:47:45Z</time>
      </trkpt>
      <trkpt lat="45.98042" lon="6.92415">
        <ele>1245</ele>
        <time>2018-05-09T08:48:45Z</time>
      </trkpt>
      <trkpt lat="45.98069" lon="6.92445">
        <ele>1241</ele>
        <time>2018-05-09T08:49:45Z</time>
      </trkpt>
      <trkpt lat="45.98092" lon="6.9247">
        <ele>1247</ele>
        <time>2018-05-09T08:50:45Z</time>
      </trkpt>
      <trkpt lat="45.98095" lon="6.92475">
        <ele>1246</ele>
        <time>2018-05-09T08:51:45Z</time>
      </trkpt>
      <trkpt lat="45.98113" lon="6.92495">
        <ele>1247</ele>
        <time>2018-05-09T08:52:45Z</time>
      </trkpt>
      <trkpt lat="45.98135" lon="6.92521">
        <ele>1243</ele>
        <time>2018-05-09T08:53:45Z</time>
      </trkpt>
      <trkpt lat="45.98136" lon="6.92522">
        <ele>1243</ele>
        <time>2018-05-09T08:54:45Z</time>
      </trkpt>
      <trkpt lat="45.98142" lon="6.92529">
        <ele>1243</ele>
        <time>2018-05-09T08:55:45Z</time>
      </trkpt>
      <trkpt lat="45.9815" lon="6.92537">
        <ele>1243</ele>
        <time>2018-05-09T08:56:45Z</time>
      </trkpt>
      <trkpt lat="45.98163" lon="6.92549">
        <ele>1243</ele>
        <time>2018-05-09T08:57:45Z</time>
      </trkpt>
      <trkpt lat="45.98168" lon="6.92554">
        <ele>1250</ele>
        <time>2018-05-09T08:58:45Z</time>
      </trkpt>
      <trkpt lat="45.98181" lon="6.92565">
        <ele>1250</ele>
        <time>2018-05-09T08:59:45Z</time>
      </trkpt>
      <trkpt lat="45.98186" lon="6.92569">
        <ele>1250</ele>
        <time>2018-05-09T09:00:45Z</time>
      </trkpt>
      <trkpt lat="45.98196" lon="6.92578">
        <ele>1251</ele>
        <time>2018-05-09T09:01:45Z</time>
      </trkpt>
      <trkpt lat="45.98209" lon="6.92587">
        <ele>1247</ele>
        <time>2018-05-09T09:02:45Z</time>
      </trkpt>
      <trkpt lat="45.98213" lon="6.92589">
        <ele>1247</ele>
        <time>2018-05-09T09:03:45Z</time>
      </trkpt>
      <trkpt lat="45.98221" lon="6.92594">
        <ele>1247</ele>
        <time>2018-05-09T09:04:45Z</time>
      </trkpt>
      <trkpt lat="45.98239" lon="6.92604">
        <ele>1248</ele>
        <time>2018-05-09T09:05:45Z</time>
      </trkpt>
      <trkpt lat="45.98246" lon="6.92607">
        <ele>1248</ele>
        <time>2018-05-09T09:06:45Z</time>
      </trkpt>
      <trkpt lat="45.98271" lon="6.92619">
        <ele>1252</ele>
        <time>2018-05-09T09:07:45Z</time>
      </trkpt>
      <trkpt lat="45.98283" lon="6.92625">
        <ele>1252</ele>
        <time>2018-05-09T09:08:45Z</time>
      </trkpt>
      <trkpt lat="45.98292" lon="6.92629">
        <ele>1253</ele>
        <time>2018-05-09T09:09:45Z</time>
      </trkpt>
      <trkpt lat="45.98323" lon="6.92643">
        <ele>1253</ele>
        <time>2018-05-09T09:10:45Z</time>
      </trkpt>
      <trkpt lat="45.98327" lon="6.92645">
        <ele>1253</ele>
        <time>2018-05-09T09:11:45Z</time>
      </trkpt>
      <trkpt lat="45.98355" lon="6.92659">
        <ele>1262</ele>
        <time>2018-05-09T09:12:45Z</time>
      </trkpt>
      <trkpt lat="45.98362" lon="6.92662">
        <ele>1263</ele>
        <time>2018-05-09T09:13:45Z</time>
      </trkpt>
      <trkpt lat="45.98389" lon="6.92675">
        <ele>1259</ele>
        <time>2018-05-09T09:14:45Z</time>
      </trkpt>
      <trkpt lat="45.98404" lon="6.92682">
        <ele>1261</ele>
        <time>2018-05-09T09:15:45Z</time>
      </trkpt>
      <trkpt lat="45.98421" lon="6.92689">
        <ele>1266</ele>
        <time>2018-05-09T09:16:45Z</time>
      </trkpt>
      <trkpt lat="45.98436" lon="6.92695">
        <ele>1267</ele>
        <time>2018-05-09T09:17:45Z</time>
      </trkpt>
      <trkpt lat="45.98473" lon="6.92712">
        <ele>1268</ele>
        <time>2018-05-09T09:18:45Z</time>
      </trkpt>
      <trkpt lat="45.9849" lon="6.92719">
        <ele>1268</ele>
        <time>2018-05-09T09:19:45Z</time>
      </trkpt>
      <trkpt lat="45.98495" lon="6.92725">
        <ele>1267</ele>
        <time>2018-05-09T09:20:45Z</time>
      </trkpt>
      <trkpt lat="45.98503" lon="6.92729">
        <ele>1273</ele>
        <time>2018-05-09T09:21:45Z</time>
      </trkpt>
      <trkpt lat="45.98504" lon="6.92729">
        <ele>1273</ele>
        <time>2018-05-09T09:22:45Z</time>
      </trkpt>
      <trkpt lat="45.98507" lon="6.9273">
        <ele>1273</ele>
        <time>2018-05-09T09:23:45Z</time>
      </trkpt>
      <trkpt lat="45.98508" lon="6.92731">
        <ele>1273</ele>
        <time>2018-05-09T09:24:45Z</time>
      </trkpt>
      <trkpt lat="45.9852" lon="6.92736">
        <ele>1274</ele>
        <time>2018-05-09T09:25:45Z</time>
      </trkpt>
      <trkpt lat="45.98528" lon="6.92741">
        <ele>1275</ele>
        <time>2018-05-09T09:26:45Z</time>
      </trkpt>
      <trkpt lat="45.9853" lon="6.92742">
        <ele>1276</ele>
        <time>2018-05-09T09:27:45Z</time>
      </trkpt>
      <trkpt lat="45.98542" lon="6.92748">
        <ele>1277</ele>
        <time>2018-05-09T09:28:45Z</time>
      </trkpt>
      <trkpt lat="45.98557" lon="6.92757">
        <ele>1268</ele>
        <time>2018-05-09T09:29:45Z</time>
      </trkpt>
      <trkpt lat="45.98579" lon="6.92767">
        <ele>1270</ele>
        <time>2018-05-09T09:30:45Z</time>
      </trkpt>
      <trkpt lat="45.98586" lon="6.92771">
        <ele>1275</ele>
        <time>2018-05-09T09:31:45Z</time>
      </trkpt>
      <trkpt lat="45.98594" lon="6.92772">
        <ele>1275</ele>
        <time>2018-05-09T09:32:45Z</time>
      </trkpt>
      <trkpt lat="45.98618" lon="6.92784">
        <ele>1276</ele>
        <time>2018-05-09T09:33:45Z</time>
      </trkpt>
      <trkpt lat="45.98623" lon="6.92787">
        <ele>1276</ele>
        <time>2018-05-09T09:34:45Z</time>
      </trkpt>
      <trkpt lat="45.98636" lon="6.92794">
        <ele>1276</ele>
        <time>2018-05-09T09:35:45Z</time>
      </trkpt>
      <trkpt lat="45.98648" lon="6.928">
        <ele>1276</ele>
        <time>2018-05-09T09:36:45Z</time>
      </trkpt>
      <trkpt lat="45.98659" lon="6.92802">
        <ele>1276</ele>
        <time>2018-05-09T09:37:45Z</time>
      </trkpt>
      <trkpt lat="45.98672" lon="6.92805">
        <ele>1288</ele>
        <time>2018-05-09T09:38:45Z</time>
      </trkpt>
      <trkpt lat="45.98684" lon="6.92808">
        <ele>1288</ele>
        <time>2018-05-09T09:39:45Z</time>
      </trkpt>
      <trkpt lat="45.98699" lon="6.92815">
        <ele>1290</ele>
        <time>2018-05-09T09:40:45Z</time>
      </trkpt>
      <trkpt lat="45.98722" lon="6.92826">
        <ele>1294</ele>
        <time>2018-05-09T09:41:45Z</time>
      </trkpt>
      <trkpt lat="45.98742" lon="6.92834">
        <ele>1293</ele>
        <time>2018-05-09T09:42:45Z</time>
      </trkpt>
      <trkpt lat="45.98786" lon="6.92854">
        <ele>1300</ele>
        <time>2018-05-09T09:43:45Z</time>
      </trkpt>
      <trkpt lat="45.98798" lon="6.9286">
        <ele>1301</ele>
        <time>2018-05-09T09:44:45Z</time>
      </trkpt>
      <trkpt lat="45.98806" lon="6.92863">
        <ele>1302</ele>
        <time>2018-05-09T09:45:45Z</time>
      </trkpt>
      <trkpt lat="45.98817" lon="6.92865">
        <ele>1303</ele>
        <time>2018-05-09T09:46:45Z</time>
      </trkpt>
      <trkpt lat="45.9883" lon="6.92867">
        <ele>1303</ele>
        <time>2018-05-09T09:47:45Z</time>
      </trkpt>
      <trkpt lat="45.98841" lon="6.92868">
        <ele>1310</ele>
        <time>2018-05-09T09:48:45Z</time>
      </trkpt>
      <trkpt lat="45.98852" lon="6.92869">
        <ele>1311</ele>
        <time>2018-05-09T09:49:45Z</time>
      </trkpt>
      <trkpt lat="45.98873" lon="6.92871">
        <ele>1311</ele>
        <time>2018-05-09T09:50:45Z</time>
      </trkpt>
      <trkpt lat="45.98893" lon="6.92873">
        <ele>1312</ele>
        <time>2018-05-09T09:51:45Z</time>
      </trkpt>
      <trkpt lat="45.98916" lon="6.92874">
        <ele>1313</ele>
        <time>2018-05-09T09:52:45Z</time>
      </trkpt>
      <trkpt lat="45.98936" lon="6.92874">
        <ele>1314</ele>
        <time>2018-05-09T09:53:45Z</time>
      </trkpt>
      <trkpt lat="45.9896" lon="6.92874">
        <ele>1314</ele>
        <time>2018-05-09T09:54:45Z</time>
      </trkpt>
      <trkpt lat="45.98968" lon="6.92874">
        <ele>1314</ele>
        <time>2018-05-09T09:55:45Z</time>
      </trkpt>
      <trkpt lat="45.98977" lon="6.92874">
        <ele>1313</ele>
        <time>2018-05-09T09:56:45Z</time>
      </trkpt>
      <trkpt lat="45.98987" lon="6.92875">
        <ele>1313</ele>
        <time>2018-05-09T09:57:45Z</time>
      </trkpt>
      <trkpt lat="45.98996" lon="6.92879">
        <ele>1313</ele>
        <time>2018-05-09T09:58:45Z</time>
      </trkpt>
      <trkpt lat="45.99005" lon="6.92886">
        <ele>1314</ele>
        <time>2018-05-09T09:59:45Z</time>
      </trkpt>
      <trkpt lat="45.99016" lon="6.92896">
        <ele>1314</ele>
        <time>2018-05-09T10:00:45Z</time>
      </trkpt>
      <trkpt lat="45.99025" lon="6.92902">
        <ele>1314</ele>
        <time>2018-05-09T10:01:45Z</time>
      </trkpt>
      <trkpt lat="45.99035" lon="6.92904">
        <ele>1316</ele>
        <time>2018-05-09T10:02:45Z</time>
      </trkpt>
      <trkpt lat="45.99041" lon="6.92903">
        <ele>1316</ele>
        <time>2018-05-09T10:03:45Z</time>
      </trkpt>
      <trkpt lat="45.99047" lon="6.92898">
        <ele>1317</ele>
        <time>2018-05-09T10:04:45Z</time>
      </trkpt>
      <trkpt lat="45.99051" lon="6.9289">
        <ele>1318</ele>
        <time>2018-05-09T10:05:45Z</time>
      </trkpt>
      <trkpt lat="45.99054" lon="6.9288">
        <ele>1318</ele>
        <time>2018-05-09T10:06:45Z</time>
      </trkpt>
      <trkpt lat="45.99053" lon="6.9287">
        <ele>1319</ele>
        <time>2018-05-09T10:07:45Z</time>
      </trkpt>
      <trkpt lat="45.99051" lon="6.92862">
        <ele>1319</ele>
        <time>2018-05-09T10:08:45Z</time>
      </trkpt>
      <trkpt lat="45.99047" lon="6.92855">
        <ele>1319</ele>
        <time>2018-05-09T10:09:45Z</time>
      </trkpt>
      <trkpt lat="45.99041" lon="6.92848">
        <ele>1319</ele>
        <time>2018-05-09T10:10:45Z</time>
      </trkpt>
      <trkpt lat="45.99034" lon="6.92845">
        <ele>1319</ele>
        <time>2018-05-09T10:11:45Z</time>
      </trkpt>
      <trkpt lat="45.99023" lon="6.92842">
        <ele>1318</ele>
        <time>2018-05-09T10:12:45Z</time>
      </trkpt>
      <trkpt lat="45.99004" lon="6.92839">
        <ele>1318</ele>
        <time>2018-05-09T10:13:45Z</time>
      </trkpt>
      <trkpt lat="45.98986" lon="6.92834">
        <ele>1316</ele>
        <time>2018-05-09T10:14:45Z</time>
      </trkpt>
      <trkpt lat="45.98977" lon="6.92828">
        <ele>1326</ele>
        <time>2018-05-09T10:15:45Z</time>
      </trkpt>
      <trkpt lat="45.98971" lon="6.9282">
        <ele>1328</ele>
        <time>2018-05-09T10:16:45Z</time>
      </trkpt>
      <trkpt lat="45.98967" lon="6.92811">
        <ele>1329</ele>
        <time>2018-05-09T10:17:45Z</time>
      </trkpt>
      <trkpt lat="45.98966" lon="6.92801">
        <ele>1331</ele>
        <time>2018-05-09T10:18:45Z</time>
      </trkpt>
      <trkpt lat="45.98968" lon="6.92788">
        <ele>1333</ele>
        <time>2018-05-09T10:19:45Z</time>
      </trkpt>
      <trkpt lat="45.98972" lon="6.9278">
        <ele>1333</ele>
        <time>2018-05-09T10:20:45Z</time>
      </trkpt>
      <trkpt lat="45.98977" lon="6.92773">
        <ele>1334</ele>
        <time>2018-05-09T10:21:45Z</time>
      </trkpt>
      <trkpt lat="45.98983" lon="6.9277">
        <ele>1334</ele>
        <time>2018-05-09T10:22:45Z</time>
      </trkpt>
      <trkpt lat="45.98989" lon="6.92769">
        <ele>1335</ele>
        <time>2018-05-09T10:23:45Z</time>
      </trkpt>
      <trkpt lat="45.98997" lon="6.92771">
        <ele>1334</ele>
        <time>2018-05-09T10:24:45Z</time>
      </trkpt>
      <trkpt lat="45.99006" lon="6.92777">
        <ele>1333</ele>
        <time>2018-05-09T10:25:45Z</time>
      </trkpt>
      <trkpt lat="45.99018" lon="6.92786">
        <ele>1331</ele>
        <time>2018-05-09T10:26:45Z</time>
      </trkpt>
      <trkpt lat="45.99029" lon="6.92793">
        <ele>1331</ele>
        <time>2018-05-09T10:27:45Z</time>
      </trkpt>
      <trkpt lat="45.99038" lon="6.92798">
        <ele>1330</ele>
        <time>2018-05-09T10:28:45Z</time>
      </trkpt>
      <trkpt lat="45.99054" lon="6.92803">
        <ele>1331</ele>
        <time>2018-05-09T10:29:45Z</time>
      </trkpt>
      <trkpt lat="45.99068" lon="6.92807">
        <ele>1330</ele>
        <time>2018-05-09T10:30:45Z</time>
      </trkpt>
      <trkpt lat="45.99084" lon="6.92812">
        <ele>1339</ele>
        <time>2018-05-09T10:31:45Z</time>
      </trkpt>
      <trkpt lat="45.99095" lon="6.92814">
        <ele>1340</ele>
        <time>2018-05-09T10:32:45Z</time>
      </trkpt>
      <trkpt lat="45.99104" lon="6.92812">
        <ele>1342</ele>
        <time>2018-05-09T10:33:45Z</time>
      </trkpt>
      <trkpt lat="45.9911" lon="6.92807">
        <ele>1344</ele>
        <time>2018-05-09T10:34:45Z</time>
      </trkpt>
      <trkpt lat="45.99114" lon="6.92802">
        <ele>1346</ele>
        <time>2018-05-09T10:35:45Z</time>
      </trkpt>
      <trkpt lat="45.99116" lon="6.92795">
        <ele>1346</ele>
        <time>2018-05-09T10:36:45Z</time>
      </trkpt>
      <trkpt lat="45.99117" lon="6.92785">
        <ele>1347</ele>
        <time>2018-05-09T10:37:45Z</time>
      </trkpt>
      <trkpt lat="45.99116" lon="6.92778">
        <ele>1347</ele>
        <time>2018-05-09T10:38:45Z</time>
      </trkpt>
      <trkpt lat="45.99112" lon="6.92769">
        <ele>1347</ele>
        <time>2018-05-09T10:39:45Z</time>
      </trkpt>
      <trkpt lat="45.99107" lon="6.92764">
        <ele>1346</ele>
        <time>2018-05-09T10:40:45Z</time>
      </trkpt>
      <trkpt lat="45.99098" lon="6.92762">
        <ele>1345</ele>
        <time>2018-05-09T10:41:45Z</time>
      </trkpt>
      <trkpt lat="45.99086" lon="6.92762">
        <ele>1344</ele>
        <time>2018-05-09T10:42:45Z</time>
      </trkpt>
      <trkpt lat="45.99073" lon="6.92762">
        <ele>1337</ele>
        <time>2018-05-09T10:43:45Z</time>
      </trkpt>
      <trkpt lat="45.99065" lon="6.92757">
        <ele>1336</ele>
        <time>2018-05-09T10:44:45Z</time>
      </trkpt>
      <trkpt lat="45.99056" lon="6.92745">
        <ele>1350</ele>
        <time>2018-05-09T10:45:45Z</time>
      </trkpt>
      <trkpt lat="45.99045" lon="6.92731">
        <ele>1352</ele>
        <time>2018-05-09T10:46:45Z</time>
      </trkpt>
      <trkpt lat="45.99039" lon="6.92724">
        <ele>1353</ele>
        <time>2018-05-09T10:47:45Z</time>
      </trkpt>
      <trkpt lat="45.9903" lon="6.92718">
        <ele>1353</ele>
        <time>2018-05-09T10:48:45Z</time>
      </trkpt>
      <trkpt lat="45.99019" lon="6.92714">
        <ele>1354</ele>
        <time>2018-05-09T10:49:45Z</time>
      </trkpt>
      <trkpt lat="45.98996" lon="6.92711">
        <ele>1355</ele>
        <time>2018-05-09T10:50:45Z</time>
      </trkpt>
      <trkpt lat="45.9898" lon="6.92709">
        <ele>1356</ele>
        <time>2018-05-09T10:51:45Z</time>
      </trkpt>
      <trkpt lat="45.98968" lon="6.92711">
        <ele>1356</ele>
        <time>2018-05-09T10:52:45Z</time>
      </trkpt>
      <trkpt lat="45.9896" lon="6.92717">
        <ele>1356</ele>
        <time>2018-05-09T10:53:45Z</time>
      </trkpt>
      <trkpt lat="45.98948" lon="6.92728">
        <ele>1355</ele>
        <time>2018-05-09T10:54:45Z</time>
      </trkpt>
      <trkpt lat="45.98932" lon="6.92744">
        <ele>1353</ele>
        <time>2018-05-09T10:55:45Z</time>
      </trkpt>
      <trkpt lat="45.98923" lon="6.92752">
        <ele>1347</ele>
        <time>2018-05-09T10:56:45Z</time>
      </trkpt>
      <trkpt lat="45.98914" lon="6.92756">
        <ele>1347</ele>
        <time>2018-05-09T10:57:45Z</time>
      </trkpt>
      <trkpt lat="45.98905" lon="6.92757">
        <ele>1344</ele>
        <time>2018-05-09T10:58:45Z</time>
      </trkpt>
      <trkpt lat="45.98896" lon="6.92756">
        <ele>1341</ele>
        <time>2018-05-09T10:59:45Z</time>
      </trkpt>
      <trkpt lat="45.98884" lon="6.9275">
        <ele>1340</ele>
        <time>2018-05-09T11:00:45Z</time>
      </trkpt>
      <trkpt lat="45.98877" lon="6.92743">
        <ele>1356</ele>
        <time>2018-05-09T11:01:45Z</time>
      </trkpt>
      <trkpt lat="45.98872" lon="6.92732">
        <ele>1357</ele>
        <time>2018-05-09T11:02:45Z</time>
      </trkpt>
      <trkpt lat="45.98869" lon="6.92722">
        <ele>1359</ele>
        <time>2018-05-09T11:03:45Z</time>
      </trkpt>
      <trkpt lat="45.98868" lon="6.9271">
        <ele>1360</ele>
        <time>2018-05-09T11:04:45Z</time>
      </trkpt>
      <trkpt lat="45.9887" lon="6.92699">
        <ele>1362</ele>
        <time>2018-05-09T11:05:45Z</time>
      </trkpt>
      <trkpt lat="45.98873" lon="6.9269">
        <ele>1363</ele>
        <time>2018-05-09T11:06:45Z</time>
      </trkpt>
      <trkpt lat="45.9888" lon="6.92681">
        <ele>1364</ele>
        <time>2018-05-09T11:07:45Z</time>
      </trkpt>
      <trkpt lat="45.98887" lon="6.92675">
        <ele>1365</ele>
        <time>2018-05-09T11:08:45Z</time>
      </trkpt>
      <trkpt lat="45.98896" lon="6.9267">
        <ele>1366</ele>
        <time>2018-05-09T11:09:45Z</time>
      </trkpt>
      <trkpt lat="45.98914" lon="6.92666">
        <ele>1372</ele>
        <time>2018-05-09T11:10:45Z</time>
      </trkpt>
      <trkpt lat="45.98933" lon="6.92663">
        <ele>1377</ele>
        <time>2018-05-09T11:11:45Z</time>
      </trkpt>
      <trkpt lat="45.9895" lon="6.9266">
        <ele>1379</ele>
        <time>2018-05-09T11:12:45Z</time>
      </trkpt>
      <trkpt lat="45.98967" lon="6.92656">
        <ele>1380</ele>
        <time>2018-05-09T11:13:45Z</time>
      </trkpt>
      <trkpt lat="45.98981" lon="6.92655">
        <ele>1378</ele>
        <time>2018-05-09T11:14:45Z</time>
      </trkpt>
      <trkpt lat="45.98992" lon="6.92656">
        <ele>1376</ele>
        <time>2018-05-09T11:15:45Z</time>
      </trkpt>
      <trkpt lat="45.99004" lon="6.92658">
        <ele>1375</ele>
        <time>2018-05-09T11:16:45Z</time>
      </trkpt>
      <trkpt lat="45.99013" lon="6.92658">
        <ele>1377</ele>
        <time>2018-05-09T11:17:45Z</time>
      </trkpt>
      <trkpt lat="45.99028" lon="6.92657">
        <ele>1380</ele>
        <time>2018-05-09T11:18:45Z</time>
      </trkpt>
      <trkpt lat="45.99038" lon="6.92657">
        <ele>1381</ele>
        <time>2018-05-09T11:19:45Z</time>
      </trkpt>
      <trkpt lat="45.99048" lon="6.9266">
        <ele>1381</ele>
        <time>2018-05-09T11:20:45Z</time>
      </trkpt>
      <trkpt lat="45.99062" lon="6.92662">
        <ele>1380</ele>
        <time>2018-05-09T11:21:45Z</time>
      </trkpt>
      <trkpt lat="45.99071" lon="6.92662">
        <ele>1379</ele>
        <time>2018-05-09T11:22:45Z</time>
      </trkpt>
      <trkpt lat="45.99084" lon="6.92661">
        <ele>1378</ele>
        <time>2018-05-09T11:23:45Z</time>
      </trkpt>
      <trkpt lat="45.99093" lon="6.92662">
        <ele>1381</ele>
        <time>2018-05-09T11:24:45Z</time>
      </trkpt>
      <trkpt lat="45.99099" lon="6.92665">
        <ele>1383</ele>
        <time>2018-05-09T11:25:45Z</time>
      </trkpt>
      <trkpt lat="45.99106" lon="6.9267">
        <ele>1370</ele>
        <time>2018-05-09T11:26:45Z</time>
      </trkpt>
      <trkpt lat="45.99119" lon="6.92679">
        <ele>1370</ele>
        <time>2018-05-09T11:27:45Z</time>
      </trkpt>
      <trkpt lat="45.99132" lon="6.92686">
        <ele>1370</ele>
        <time>2018-05-09T11:28:45Z</time>
      </trkpt>
      <trkpt lat="45.99144" lon="6.92687">
        <ele>1372</ele>
        <time>2018-05-09T11:29:45Z</time>
      </trkpt>
      <trkpt lat="45.99153" lon="6.92686">
        <ele>1374</ele>
        <time>2018-05-09T11:30:45Z</time>
      </trkpt>
      <trkpt lat="45.99162" lon="6.92681">
        <ele>1377</ele>
        <time>2018-05-09T11:31:45Z</time>
      </trkpt>
      <trkpt lat="45.99172" lon="6.92675">
        <ele>1385</ele>
        <time>2018-05-09T11:32:45Z</time>
      </trkpt>
      <trkpt lat="45.9918" lon="6.92674">
        <ele>1385</ele>
        <time>2018-05-09T11:33:45Z</time>
      </trkpt>
      <trkpt lat="45.99188" lon="6.92676">
        <ele>1384</ele>
        <time>2018-05-09T11:34:45Z</time>
      </trkpt>
      <trkpt lat="45.992" lon="6.92685">
        <ele>1384</ele>
        <time>2018-05-09T11:35:45Z</time>
      </trkpt>
      <trkpt lat="45.9921" lon="6.92693">
        <ele>1384</ele>
        <time>2018-05-09T11:36:45Z</time>
      </trkpt>
      <trkpt lat="45.99216" lon="6.92695">
        <ele>1384</ele>
        <time>2018-05-09T11:37:45Z</time>
      </trkpt>
      <trkpt lat="45.99226" lon="6.92694">
        <ele>1386</ele>
        <time>2018-05-09T11:38:45Z</time>
      </trkpt>
      <trkpt lat="45.99242" lon="6.92688">
        <ele>1389</ele>
        <time>2018-05-09T11:39:45Z</time>
      </trkpt>
      <trkpt lat="45.9925" lon="6.92686">
        <ele>1390</ele>
        <time>2018-05-09T11:40:45Z</time>
      </trkpt>
      <trkpt lat="45.99253" lon="6.92685">
        <ele>1397</ele>
        <time>2018-05-09T11:41:45Z</time>
      </trkpt>
      <trkpt lat="45.99257" lon="6.92684">
        <ele>1397</ele>
        <time>2018-05-09T11:42:45Z</time>
      </trkpt>
      <trkpt lat="45.99263" lon="6.92683">
        <ele>1398</ele>
        <time>2018-05-09T11:43:45Z</time>
      </trkpt>
      <trkpt lat="45.99272" lon="6.92682">
        <ele>1398</ele>
        <time>2018-05-09T11:44:45Z</time>
      </trkpt>
      <trkpt lat="45.99282" lon="6.92683">
        <ele>1398</ele>
        <time>2018-05-09T11:45:45Z</time>
      </trkpt>
      <trkpt lat="45.99297" lon="6.92685">
        <ele>1399</ele>
        <time>2018-05-09T11:46:45Z</time>
      </trkpt>
      <trkpt lat="45.99324" lon="6.92686">
        <ele>1401</ele>
        <time>2018-05-09T11:47:45Z</time>
      </trkpt>
      <trkpt lat="45.99349" lon="6.92687">
        <ele>1406</ele>
        <time>2018-05-09T11:48:45Z</time>
      </trkpt>
      <trkpt lat="45.99369" lon="6.92686">
        <ele>1406</ele>
        <time>2018-05-09T11:49:45Z</time>
      </trkpt>
      <trkpt lat="45.99387" lon="6.92685">
        <ele>1407</ele>
        <time>2018-05-09T11:50:45Z</time>
      </trkpt>
      <trkpt lat="45.99397" lon="6.92687">
        <ele>1407</ele>
        <time>2018-05-09T11:51:45Z</time>
      </trkpt>
      <trkpt lat="45.99407" lon="6.92691">
        <ele>1407</ele>
        <time>2018-05-09T11:52:45Z</time>
      </trkpt>
      <trkpt lat="45.99418" lon="6.92697">
        <ele>1410</ele>
        <time>2018-05-09T11:53:45Z</time>
      </trkpt>
      <trkpt lat="45.99429" lon="6.92704">
        <ele>1410</ele>
        <time>2018-05-09T11:54:45Z</time>
      </trkpt>
      <trkpt lat="45.99431" lon="6.92705">
        <ele>1410</ele>
        <time>2018-05-09T11:55:45Z</time>
      </trkpt>
      <trkpt lat="45.99443" lon="6.92709">
        <ele>1410</ele>
        <time>2018-05-09T11:56:45Z</time>
      </trkpt>
      <trkpt lat="45.99453" lon="6.92709">
        <ele>1410</ele>
        <time>2018-05-09T11:57:45Z</time>
      </trkpt>
      <trkpt lat="45.99464" lon="6.92705">
        <ele>1411</ele>
        <time>2018-05-09T11:58:45Z</time>
      </trkpt>
      <trkpt lat="45.9947" lon="6.92701">
        <ele>1412</ele>
        <time>2018-05-09T11:59:45Z</time>
      </trkpt>
      <trkpt lat="45.99474" lon="6.92699">
        <ele>1412</ele>
        <time>2018-05-09T12:00:45Z</time>
      </trkpt>
      <trkpt lat="45.99491" lon="6.9269">
        <ele>1415</ele>
        <time>2018-05-09T12:01:45Z</time>
      </trkpt>
      <trkpt lat="45.99502" lon="6.92686">
        <ele>1418</ele>
        <time>2018-05-09T12:02:45Z</time>
      </trkpt>
      <trkpt lat="45.99516" lon="6.92684">
        <ele>1417</ele>
        <time>2018-05-09T12:03:45Z</time>
      </trkpt>
      <trkpt lat="45.99537" lon="6.92682">
        <ele>1416</ele>
        <time>2018-05-09T12:04:45Z</time>
      </trkpt>
      <trkpt lat="45.99549" lon="6.92682">
        <ele>1415</ele>
        <time>2018-05-09T12:05:45Z</time>
      </trkpt>
      <trkpt lat="45.99568" lon="6.92685">
        <ele>1416</ele>
        <time>2018-05-09T12:06:45Z</time>
      </trkpt>
      <trkpt lat="45.99587" lon="6.92689">
        <ele>1416</ele>
        <time>2018-05-09T12:07:45Z</time>
      </trkpt>
      <trkpt lat="45.99598" lon="6.9269">
        <ele>1416</ele>
        <time>2018-05-09T12:08:45Z</time>
      </trkpt>
      <trkpt lat="45.99607" lon="6.92689">
        <ele>1416</ele>
        <time>2018-05-09T12:09:45Z</time>
      </trkpt>
      <trkpt lat="45.99615" lon="6.92683">
        <ele>1416</ele>
        <time>2018-05-09T12:10:45Z</time>
      </trkpt>
      <trkpt lat="45.9963" lon="6.92667">
        <ele>1417</ele>
        <time>2018-05-09T12:11:45Z</time>
      </trkpt>
      <trkpt lat="45.99642" lon="6.92658">
        <ele>1423</ele>
        <time>2018-05-09T12:12:45Z</time>
      </trkpt>
      <trkpt lat="45.99653" lon="6.92653">
        <ele>1423</ele>
        <time>2018-05-09T12:13:45Z</time>
      </trkpt>
      <trkpt lat="45.99673" lon="6.92648">
        <ele>1423</ele>
        <time>2018-05-09T12:14:45Z</time>
      </trkpt>
      <trkpt lat="45.99677" lon="6.92647">
        <ele>1423</ele>
        <time>2018-05-09T12:15:45Z</time>
      </trkpt>
      <trkpt lat="45.9969" lon="6.92644">
        <ele>1424</ele>
        <time>2018-05-09T12:16:45Z</time>
      </trkpt>
      <trkpt lat="45.99692" lon="6.92644">
        <ele>1424</ele>
        <time>2018-05-09T12:17:45Z</time>
      </trkpt>
      <trkpt lat="45.99702" lon="6.9264">
        <ele>1425</ele>
        <time>2018-05-09T12:18:45Z</time>
      </trkpt>
      <trkpt lat="45.99705" lon="6.92639">
        <ele>1425</ele>
        <time>2018-05-09T12:19:45Z</time>
      </trkpt>
      <trkpt lat="45.99715" lon="6.92634">
        <ele>1426</ele>
        <time>2018-05-09T12:20:45Z</time>
      </trkpt>
      <trkpt lat="45.99728" lon="6.92626">
        <ele>1427</ele>
        <time>2018-05-09T12:21:45Z</time>
      </trkpt>
      <trkpt lat="45.99741" lon="6.92615">
        <ele>1427</ele>
        <time>2018-05-09T12:22:45Z</time>
      </trkpt>
      <trkpt lat="45.99755" lon="6.92598">
        <ele>1437</ele>
        <time>2018-05-09T12:23:45Z</time>
      </trkpt>
      <trkpt lat="45.99761" lon="6.92591">
        <ele>1436</ele>
        <time>2018-05-09T12:24:45Z</time>
      </trkpt>
      <trkpt lat="45.99766" lon="6.92583">
        <ele>1435</ele>
        <time>2018-05-09T12:25:45Z</time>
      </trkpt>
      <trkpt lat="45.99783" lon="6.92557">
        <ele>1440</ele>
        <time>2018-05-09T12:26:45Z</time>
      </trkpt>
      <trkpt lat="45.99796" lon="6.92537">
        <ele>1442</ele>
        <time>2018-05-09T12:27:45Z</time>
      </trkpt>
      <trkpt lat="45.99806" lon="6.92521">
        <ele>1442</ele>
        <time>2018-05-09T12:28:45Z</time>
      </trkpt>
      <trkpt lat="45.99812" lon="6.92509">
        <ele>1443</ele>
        <time>2018-05-09T12:29:45Z</time>
      </trkpt>
      <trkpt lat="45.9982" lon="6.92491">
        <ele>1443</ele>
        <time>2018-05-09T12:30:45Z</time>
      </trkpt>
      <trkpt lat="45.99829" lon="6.92469">
        <ele>1443</ele>
        <time>2018-05-09T12:31:45Z</time>
      </trkpt>
      <trkpt lat="45.99837" lon="6.92452">
        <ele>1445</ele>
        <time>2018-05-09T12:32:45Z</time>
      </trkpt>
      <trkpt lat="45.99844" lon="6.92442">
        <ele>1445</ele>
        <time>2018-05-09T12:33:45Z</time>
      </trkpt>
      <trkpt lat="45.99859" lon="6.92425">
        <ele>1445</ele>
        <time>2018-05-09T12:34:45Z</time>
      </trkpt>
      <trkpt lat="45.99884" lon="6.92399">
        <ele>1444</ele>
        <time>2018-05-09T12:35:45Z</time>
      </trkpt>
      <trkpt lat="45.99902" lon="6.92381">
        <ele>1444</ele>
        <time>2018-05-09T12:36:45Z</time>
      </trkpt>
      <trkpt lat="45.99912" lon="6.92371">
        <ele>1444</ele>
        <time>2018-05-09T12:37:45Z</time>
      </trkpt>
      <trkpt lat="45.99928" lon="6.92356">
        <ele>1443</ele>
        <time>2018-05-09T12:38:45Z</time>
      </trkpt>
      <trkpt lat="45.99938" lon="6.92349">
        <ele>1443</ele>
        <time>2018-05-09T12:39:45Z</time>
      </trkpt>
      <trkpt lat="45.99956" lon="6.92339">
        <ele>1443</ele>
        <time>2018-05-09T12:40:45Z</time>
      </trkpt>
      <trkpt lat="45.99976" lon="6.9233">
        <ele>1446</ele>
        <time>2018-05-09T12:41:45Z</time>
      </trkpt>
      <trkpt lat="46" lon="6.92321">
        <ele>1445</ele>
        <time>2018-05-09T12:42:45Z</time>
      </trkpt>
      <trkpt lat="46.00029" lon="6.92312">
        <ele>1450</ele>
        <time>2018-05-09T12:43:45Z</time>
      </trkpt>
      <trkpt lat="46.0005" lon="6.92306">
        <ele>1451</ele>
        <time>2018-05-09T12:44:45Z</time>
      </trkpt>
      <trkpt lat="46.00073" lon="6.92304">
        <ele>1452</ele>
        <time>2018-05-09T12:45:45Z</time>
      </trkpt>
      <trkpt lat="46.00104" lon="6.92302">
        <ele>1455</ele>
        <time>2018-05-09T12:46:45Z</time>
      </trkpt>
      <trkpt lat="46.00138" lon="6.92299">
        <ele>1457</ele>
        <time>2018-05-09T12:47:45Z</time>
      </trkpt>
      <trkpt lat="46.00157" lon="6.92298">
        <ele>1457</ele>
        <time>2018-05-09T12:48:45Z</time>
      </trkpt>
      <trkpt lat="46.00173" lon="6.92298">
        <ele>1459</ele>
        <time>2018-05-09T12:49:45Z</time>
      </trkpt>
      <trkpt lat="46.00189" lon="6.923">
        <ele>1459</ele>
        <time>2018-05-09T12:50:45Z</time>
      </trkpt>
      <trkpt lat="46.00203" lon="6.92303">
        <ele>1459</ele>
        <time>2018-05-09T12:51:45Z</time>
      </trkpt>
      <trkpt lat="46.0022" lon="6.92308">
        <ele>1459</ele>
        <time>2018-05-09T12:52:45Z</time>
      </trkpt>
      <trkpt lat="46.0025" lon="6.92317">
        <ele>1458</ele>
        <time>2018-05-09T12:53:45Z</time>
      </trkpt>
      <trkpt lat="46.00275" lon="6.92324">
        <ele>1460</ele>
        <time>2018-05-09T12:54:45Z</time>
      </trkpt>
      <trkpt lat="46.0031" lon="6.92335">
        <ele>1462</ele>
        <time>2018-05-09T12:55:45Z</time>
      </trkpt>
      <trkpt lat="46.00338" lon="6.92343">
        <ele>1463</ele>
        <time>2018-05-09T12:56:45Z</time>
      </trkpt>
      <trkpt lat="46.0036" lon="6.92349">
        <ele>1466</ele>
        <time>2018-05-09T12:57:45Z</time>
      </trkpt>
      <trkpt lat="46.00376" lon="6.92356">
        <ele>1466</ele>
        <time>2018-05-09T12:58:45Z</time>
      </trkpt>
      <trkpt lat="46.00387" lon="6.9236">
        <ele>1467</ele>
        <time>2018-05-09T12:59:45Z</time>
      </trkpt>
      <trkpt lat="46.00397" lon="6.92365">
        <ele>1467</ele>
        <time>2018-05-09T13:00:45Z</time>
      </trkpt>
      <trkpt lat="46.00405" lon="6.92367">
        <ele>1467</ele>
        <time>2018-05-09T13:01:45Z</time>
      </trkpt>
      <trkpt lat="46.00407" lon="6.92366">
        <ele>1467</ele>
        <time>2018-05-09T13:02:45Z</time>
      </trkpt>
      <trkpt lat="46.00411" lon="6.92366">
        <ele>1467</ele>
        <time>2018-05-09T13:03:45Z</time>
      </trkpt>
      <trkpt lat="46.00422" lon="6.92364">
        <ele>1464</ele>
        <time>2018-05-09T13:04:45Z</time>
      </trkpt>
      <trkpt lat="46.00442" lon="6.92359">
        <ele>1464</ele>
        <time>2018-05-09T13:05:45Z</time>
      </trkpt>
      <trkpt lat="46.00476" lon="6.9235">
        <ele>1462</ele>
        <time>2018-05-09T13:06:45Z</time>
      </trkpt>
      <trkpt lat="46.00497" lon="6.92346">
        <ele>1460</ele>
        <time>2018-05-09T13:07:45Z</time>
      </trkpt>
      <trkpt lat="46.00526" lon="6.92339">
        <ele>1454</ele>
        <time>2018-05-09T13:08:45Z</time>
      </trkpt>
      <trkpt lat="46.00555" lon="6.92334">
        <ele>1451</ele>
        <time>2018-05-09T13:09:45Z</time>
      </trkpt>
      <trkpt lat="46.00584" lon="6.92329">
        <ele>1446</ele>
        <time>2018-05-09T13:10:45Z</time>
      </trkpt>
      <trkpt lat="46.00606" lon="6.92325">
        <ele>1446</ele>
        <time>2018-05-09T13:11:45Z</time>
      </trkpt>
      <trkpt lat="46.00623" lon="6.92323">
        <ele>1446</ele>
        <time>2018-05-09T13:12:45Z</time>
      </trkpt>
      <trkpt lat="46.00637" lon="6.9232">
        <ele>1445</ele>
        <time>2018-05-09T13:13:45Z</time>
      </trkpt>
      <trkpt lat="46.00666" lon="6.92313">
        <ele>1443</ele>
        <time>2018-05-09T13:14:45Z</time>
      </trkpt>
      <trkpt lat="46.00694" lon="6.92306">
        <ele>1438</ele>
        <time>2018-05-09T13:15:45Z</time>
      </trkpt>
      <trkpt lat="46.00714" lon="6.92301">
        <ele>1437</ele>
        <time>2018-05-09T13:16:45Z</time>
      </trkpt>
      <trkpt lat="46.00727" lon="6.92298">
        <ele>1437</ele>
        <time>2018-05-09T13:17:45Z</time>
      </trkpt>
      <trkpt lat="46.00736" lon="6.92297">
        <ele>1437</ele>
        <time>2018-05-09T13:18:45Z</time>
      </trkpt>
      <trkpt lat="46.00755" lon="6.92292">
        <ele>1434</ele>
        <time>2018-05-09T13:19:45Z</time>
      </trkpt>
      <trkpt lat="46.00758" lon="6.92291">
        <ele>1434</ele>
        <time>2018-05-09T13:20:45Z</time>
      </trkpt>
      <trkpt lat="46.0076" lon="6.92291">
        <ele>1434</ele>
        <time>2018-05-09T13:21:45Z</time>
      </trkpt>
      <trkpt lat="46.00763" lon="6.9229">
        <ele>1434</ele>
        <time>2018-05-09T13:22:45Z</time>
      </trkpt>
      <trkpt lat="46.00773" lon="6.92289">
        <ele>1434</ele>
        <time>2018-05-09T13:23:45Z</time>
      </trkpt>
      <trkpt lat="46.00781" lon="6.9229">
        <ele>1434</ele>
        <time>2018-05-09T13:24:45Z</time>
      </trkpt>
      <trkpt lat="46.0079" lon="6.92294">
        <ele>1434</ele>
        <time>2018-05-09T13:25:45Z</time>
      </trkpt>
      <trkpt lat="46.00799" lon="6.923">
        <ele>1433</ele>
        <time>2018-05-09T13:26:45Z</time>
      </trkpt>
      <trkpt lat="46.00812" lon="6.92312">
        <ele>1432</ele>
        <time>2018-05-09T13:27:45Z</time>
      </trkpt>
      <trkpt lat="46.00827" lon="6.92325">
        <ele>1430</ele>
        <time>2018-05-09T13:28:45Z</time>
      </trkpt>
      <trkpt lat="46.00835" lon="6.92332">
        <ele>1428</ele>
        <time>2018-05-09T13:29:45Z</time>
      </trkpt>
      <trkpt lat="46.00845" lon="6.92337">
        <ele>1426</ele>
        <time>2018-05-09T13:30:45Z</time>
      </trkpt>
      <trkpt lat="46.00856" lon="6.92339">
        <ele>1425</ele>
        <time>2018-05-09T13:31:45Z</time>
      </trkpt>
      <trkpt lat="46.00867" lon="6.92341">
        <ele>1424</ele>
        <time>2018-05-09T13:32:45Z</time>
      </trkpt>
      <trkpt lat="46.00885" lon="6.92342">
        <ele>1424</ele>
        <time>2018-05-09T13:33:45Z</time>
      </trkpt>
      <trkpt lat="46.00899" lon="6.92345">
        <ele>1424</ele>
        <time>2018-05-09T13:34:45Z</time>
      </trkpt>
      <trkpt lat="46.00908" lon="6.92348">
        <ele>1424</ele>
        <time>2018-05-09T13:35:45Z</time>
      </trkpt>
      <trkpt lat="46.00918" lon="6.92355">
        <ele>1421</ele>
        <time>2018-05-09T13:36:45Z</time>
      </trkpt>
      <trkpt lat="46.00929" lon="6.92362">
        <ele>1420</ele>
        <time>2018-05-09T13:37:45Z</time>
      </trkpt>
      <trkpt lat="46.00941" lon="6.9237">
        <ele>1419</ele>
        <time>2018-05-09T13:38:45Z</time>
      </trkpt>
      <trkpt lat="46.0095" lon="6.92376">
        <ele>1418</ele>
        <time>2018-05-09T13:39:45Z</time>
      </trkpt>
      <trkpt lat="46.00961" lon="6.9238">
        <ele>1418</ele>
        <time>2018-05-09T13:40:45Z</time>
      </trkpt>
      <trkpt lat="46.00979" lon="6.92386">
        <ele>1417</ele>
        <time>2018-05-09T13:41:45Z</time>
      </trkpt>
      <trkpt lat="46.00992" lon="6.92389">
        <ele>1416</ele>
        <time>2018-05-09T13:42:45Z</time>
      </trkpt>
      <trkpt lat="46.00999" lon="6.92389">
        <ele>1416</ele>
        <time>2018-05-09T13:43:45Z</time>
      </trkpt>
      <trkpt lat="46.01008" lon="6.92386">
        <ele>1412</ele>
        <time>2018-05-09T13:44:45Z</time>
      </trkpt>
      <trkpt lat="46.01016" lon="6.92379">
        <ele>1412</ele>
        <time>2018-05-09T13:45:45Z</time>
      </trkpt>
      <trkpt lat="46.01027" lon="6.92366">
        <ele>1412</ele>
        <time>2018-05-09T13:46:45Z</time>
      </trkpt>
      <trkpt lat="46.01038" lon="6.92352">
        <ele>1411</ele>
        <time>2018-05-09T13:47:45Z</time>
      </trkpt>
      <trkpt lat="46.01048" lon="6.92342">
        <ele>1410</ele>
        <time>2018-05-09T13:48:45Z</time>
      </trkpt>
      <trkpt lat="46.01056" lon="6.92338">
        <ele>1410</ele>
        <time>2018-05-09T13:49:45Z</time>
      </trkpt>
      <trkpt lat="46.01064" lon="6.92335">
        <ele>1409</ele>
        <time>2018-05-09T13:50:45Z</time>
      </trkpt>
      <trkpt lat="46.01075" lon="6.92334">
        <ele>1408</ele>
        <time>2018-05-09T13:51:45Z</time>
      </trkpt>
      <trkpt lat="46.0109" lon="6.92335">
        <ele>1407</ele>
        <time>2018-05-09T13:52:45Z</time>
      </trkpt>
      <trkpt lat="46.01104" lon="6.92335">
        <ele>1406</ele>
        <time>2018-05-09T13:53:45Z</time>
      </trkpt>
      <trkpt lat="46.01117" lon="6.92334">
        <ele>1405</ele>
        <time>2018-05-09T13:54:45Z</time>
      </trkpt>
      <trkpt lat="46.01126" lon="6.92331">
        <ele>1404</ele>
        <time>2018-05-09T13:55:45Z</time>
      </trkpt>
      <trkpt lat="46.01134" lon="6.92325">
        <ele>1403</ele>
        <time>2018-05-09T13:56:45Z</time>
      </trkpt>
      <trkpt lat="46.0114" lon="6.92318">
        <ele>1403</ele>
        <time>2018-05-09T13:57:45Z</time>
      </trkpt>
      <trkpt lat="46.01145" lon="6.92306">
        <ele>1403</ele>
        <time>2018-05-09T13:58:45Z</time>
      </trkpt>
      <trkpt lat="46.01149" lon="6.92295">
        <ele>1403</ele>
        <time>2018-05-09T13:59:45Z</time>
      </trkpt>
      <trkpt lat="46.01153" lon="6.92277">
        <ele>1403</ele>
        <time>2018-05-09T14:00:45Z</time>
      </trkpt>
      <trkpt lat="46.01158" lon="6.92257">
        <ele>1401</ele>
        <time>2018-05-09T14:01:45Z</time>
      </trkpt>
      <trkpt lat="46.01164" lon="6.92242">
        <ele>1403</ele>
        <time>2018-05-09T14:02:45Z</time>
      </trkpt>
      <trkpt lat="46.01169" lon="6.9223">
        <ele>1401</ele>
        <time>2018-05-09T14:03:45Z</time>
      </trkpt>
      <trkpt lat="46.01177" lon="6.92219">
        <ele>1402</ele>
        <time>2018-05-09T14:04:45Z</time>
      </trkpt>
      <trkpt lat="46.01186" lon="6.9221">
        <ele>1403</ele>
        <time>2018-05-09T14:05:45Z</time>
      </trkpt>
      <trkpt lat="46.01192" lon="6.92204">
        <ele>1403</ele>
        <time>2018-05-09T14:06:45Z</time>
      </trkpt>
      <trkpt lat="46.01202" lon="6.92199">
        <ele>1403</ele>
        <time>2018-05-09T14:07:45Z</time>
      </trkpt>
      <trkpt lat="46.01219" lon="6.92193">
        <ele>1402</ele>
        <time>2018-05-09T14:08:45Z</time>
      </trkpt>
      <trkpt lat="46.0123" lon="6.92189">
        <ele>1402</ele>
        <time>2018-05-09T14:09:45Z</time>
      </trkpt>
      <trkpt lat="46.01237" lon="6.92186">
        <ele>1402</ele>
        <time>2018-05-09T14:10:45Z</time>
      </trkpt>
      <trkpt lat="46.01243" lon="6.92182">
        <ele>1402</ele>
        <time>2018-05-09T14:11:45Z</time>
      </trkpt>
      <trkpt lat="46.01252" lon="6.92174">
        <ele>1399</ele>
        <time>2018-05-09T14:12:45Z</time>
      </trkpt>
      <trkpt lat="46.01266" lon="6.92162">
        <ele>1400</ele>
        <time>2018-05-09T14:13:45Z</time>
      </trkpt>
      <trkpt lat="46.01278" lon="6.92149">
        <ele>1399</ele>
        <time>2018-05-09T14:14:45Z</time>
      </trkpt>
      <trkpt lat="46.01291" lon="6.92136">
        <ele>1398</ele>
        <time>2018-05-09T14:15:45Z</time>
      </trkpt>
      <trkpt lat="46.01304" lon="6.92125">
        <ele>1398</ele>
        <time>2018-05-09T14:16:45Z</time>
      </trkpt>
      <trkpt lat="46.0132" lon="6.92115">
        <ele>1397</ele>
        <time>2018-05-09T14:17:45Z</time>
      </trkpt>
      <trkpt lat="46.01338" lon="6.92102">
        <ele>1390</ele>
        <time>2018-05-09T14:18:45Z</time>
      </trkpt>
      <trkpt lat="46.01355" lon="6.92082">
        <ele>1393</ele>
        <time>2018-05-09T14:19:45Z</time>
      </trkpt>
      <trkpt lat="46.01368" lon="6.92071">
        <ele>1391</ele>
        <time>2018-05-09T14:20:45Z</time>
      </trkpt>
      <trkpt lat="46.01374" lon="6.92064">
        <ele>1390</ele>
        <time>2018-05-09T14:21:45Z</time>
      </trkpt>
      <trkpt lat="46.01382" lon="6.92056">
        <ele>1389</ele>
        <time>2018-05-09T14:22:45Z</time>
      </trkpt>
      <trkpt lat="46.01396" lon="6.92042">
        <ele>1388</ele>
        <time>2018-05-09T14:23:45Z</time>
      </trkpt>
      <trkpt lat="46.01412" lon="6.92024">
        <ele>1388</ele>
        <time>2018-05-09T14:24:45Z</time>
      </trkpt>
      <trkpt lat="46.01432" lon="6.91999">
        <ele>1383</ele>
        <time>2018-05-09T14:25:45Z</time>
      </trkpt>
      <trkpt lat="46.01433" lon="6.91998">
        <ele>1383</ele>
        <time>2018-05-09T14:26:45Z</time>
      </trkpt>
      <trkpt lat="46.01456" lon="6.9197">
        <ele>1380</ele>
        <time>2018-05-09T14:27:45Z</time>
      </trkpt>
      <trkpt lat="46.0147" lon="6.91954">
        <ele>1380</ele>
        <time>2018-05-09T14:28:45Z</time>
      </trkpt>
      <trkpt lat="46.01478" lon="6.91943">
        <ele>1379</ele>
        <time>2018-05-09T14:29:45Z</time>
      </trkpt>
      <trkpt lat="46.01489" lon="6.91932">
        <ele>1378</ele>
        <time>2018-05-09T14:30:45Z</time>
      </trkpt>
      <trkpt lat="46.01497" lon="6.91926">
        <ele>1377</ele>
        <time>2018-05-09T14:31:45Z</time>
      </trkpt>
      <trkpt lat="46.01513" lon="6.91919">
        <ele>1373</ele>
        <time>2018-05-09T14:32:45Z</time>
      </trkpt>
      <trkpt lat="46.01528" lon="6.91914">
        <ele>1376</ele>
        <time>2018-05-09T14:33:45Z</time>
      </trkpt>
      <trkpt lat="46.01538" lon="6.9191">
        <ele>1376</ele>
        <time>2018-05-09T14:34:45Z</time>
      </trkpt>
      <trkpt lat="46.01565" lon="6.91902">
        <ele>1373</ele>
        <time>2018-05-09T14:35:45Z</time>
      </trkpt>
      <trkpt lat="46.01576" lon="6.91899">
        <ele>1373</ele>
        <time>2018-05-09T14:36:45Z</time>
      </trkpt>
      <trkpt lat="46.01592" lon="6.91895">
        <ele>1369</ele>
        <time>2018-05-09T14:37:45Z</time>
      </trkpt>
      <trkpt lat="46.01606" lon="6.91893">
        <ele>1369</ele>
        <time>2018-05-09T14:38:45Z</time>
      </trkpt>
      <trkpt lat="46.01621" lon="6.91894">
        <ele>1369</ele>
        <time>2018-05-09T14:39:45Z</time>
      </trkpt>
      <trkpt lat="46.01628" lon="6.91894">
        <ele>1369</ele>
        <time>2018-05-09T14:40:45Z</time>
      </trkpt>
      <trkpt lat="46.01653" lon="6.91896">
        <ele>1368</ele>
        <time>2018-05-09T14:41:45Z</time>
      </trkpt>
      <trkpt lat="46.01671" lon="6.91898">
        <ele>1368</ele>
        <time>2018-05-09T14:42:45Z</time>
      </trkpt>
      <trkpt lat="46.01682" lon="6.919">
        <ele>1368</ele>
        <time>2018-05-09T14:43:45Z</time>
      </trkpt>
      <trkpt lat="46.01689" lon="6.91905">
        <ele>1368</ele>
        <time>2018-05-09T14:44:45Z</time>
      </trkpt>
      <trkpt lat="46.01696" lon="6.91911">
        <ele>1368</ele>
        <time>2018-05-09T14:45:45Z</time>
      </trkpt>
      <trkpt lat="46.01701" lon="6.91921">
        <ele>1365</ele>
        <time>2018-05-09T14:46:45Z</time>
      </trkpt>
      <trkpt lat="46.01708" lon="6.91941">
        <ele>1364</ele>
        <time>2018-05-09T14:47:45Z</time>
      </trkpt>
      <trkpt lat="46.01713" lon="6.91952">
        <ele>1364</ele>
        <time>2018-05-09T14:48:45Z</time>
      </trkpt>
      <trkpt lat="46.01722" lon="6.91963">
        <ele>1363</ele>
        <time>2018-05-09T14:49:45Z</time>
      </trkpt>
      <trkpt lat="46.0173" lon="6.91967">
        <ele>1363</ele>
        <time>2018-05-09T14:50:45Z</time>
      </trkpt>
      <trkpt lat="46.01744" lon="6.91968">
        <ele>1363</ele>
        <time>2018-05-09T14:51:45Z</time>
      </trkpt>
      <trkpt lat="46.01769" lon="6.91969">
        <ele>1360</ele>
        <time>2018-05-09T14:52:45Z</time>
      </trkpt>
      <trkpt lat="46.01793" lon="6.91968">
        <ele>1359</ele>
        <time>2018-05-09T14:53:45Z</time>
      </trkpt>
      <trkpt lat="46.01817" lon="6.91968">
        <ele>1358</ele>
        <time>2018-05-09T14:54:45Z</time>
      </trkpt>
      <trkpt lat="46.01838" lon="6.91968">
        <ele>1352</ele>
        <time>2018-05-09T14:55:45Z</time>
      </trkpt>
      <trkpt lat="46.01867" lon="6.91967">
        <ele>1350</ele>
        <time>2018-05-09T14:56:45Z</time>
      </trkpt>
      <trkpt lat="46.01872" lon="6.91967">
        <ele>1350</ele>
        <time>2018-05-09T14:57:45Z</time>
      </trkpt>
      <trkpt lat="46.01894" lon="6.91967">
        <ele>1349</ele>
        <time>2018-05-09T14:58:45Z</time>
      </trkpt>
      <trkpt lat="46.01909" lon="6.91966">
        <ele>1348</ele>
        <time>2018-05-09T14:59:45Z</time>
      </trkpt>
      <trkpt lat="46.01925" lon="6.91964">
        <ele>1343</ele>
        <time>2018-05-09T15:00:45Z</time>
      </trkpt>
      <trkpt lat="46.01937" lon="6.91959">
        <ele>1342</ele>
        <time>2018-05-09T15:01:45Z</time>
      </trkpt>
      <trkpt lat="46.01957" lon="6.91949">
        <ele>1342</ele>
        <time>2018-05-09T15:02:45Z</time>
      </trkpt>
      <trkpt lat="46.01976" lon="6.91939">
        <ele>1341</ele>
        <time>2018-05-09T15:03:45Z</time>
      </trkpt>
      <trkpt lat="46.01995" lon="6.91927">
        <ele>1340</ele>
        <time>2018-05-09T15:04:45Z</time>
      </trkpt>
      <trkpt lat="46.02002" lon="6.91921">
        <ele>1338</ele>
        <time>2018-05-09T15:05:45Z</time>
      </trkpt>
      <trkpt lat="46.0201" lon="6.91911">
        <ele>1338</ele>
        <time>2018-05-09T15:06:45Z</time>
      </trkpt>
      <trkpt lat="46.02016" lon="6.91898">
        <ele>1337</ele>
        <time>2018-05-09T15:07:45Z</time>
      </trkpt>
      <trkpt lat="46.02026" lon="6.91872">
        <ele>1337</ele>
        <time>2018-05-09T15:08:45Z</time>
      </trkpt>
      <trkpt lat="46.02037" lon="6.91841">
        <ele>1337</ele>
        <time>2018-05-09T15:09:45Z</time>
      </trkpt>
      <trkpt lat="46.02042" lon="6.9183">
        <ele>1340</ele>
        <time>2018-05-09T15:10:45Z</time>
      </trkpt>
      <trkpt lat="46.02048" lon="6.91824">
        <ele>1340</ele>
        <time>2018-05-09T15:11:45Z</time>
      </trkpt>
      <trkpt lat="46.02052" lon="6.91821">
        <ele>1340</ele>
        <time>2018-05-09T15:12:45Z</time>
      </trkpt>
      <trkpt lat="46.02056" lon="6.91819">
        <ele>1340</ele>
        <time>2018-05-09T15:13:45Z</time>
      </trkpt>
      <trkpt lat="46.0207" lon="6.91819">
        <ele>1339</ele>
        <time>2018-05-09T15:14:45Z</time>
      </trkpt>
      <trkpt lat="46.0208" lon="6.91819">
        <ele>1338</ele>
        <time>2018-05-09T15:15:45Z</time>
      </trkpt>
      <trkpt lat="46.02088" lon="6.9182">
        <ele>1338</ele>
        <time>2018-05-09T15:16:45Z</time>
      </trkpt>
      <trkpt lat="46.02093" lon="6.91823">
        <ele>1338</ele>
        <time>2018-05-09T15:17:45Z</time>
      </trkpt>
      <trkpt lat="46.021" lon="6.91828">
        <ele>1338</ele>
        <time>2018-05-09T15:18:45Z</time>
      </trkpt>
      <trkpt lat="46.02117" lon="6.91841">
        <ele>1333</ele>
        <time>2018-05-09T15:19:45Z</time>
      </trkpt>
      <trkpt lat="46.02137" lon="6.91857">
        <ele>1333</ele>
        <time>2018-05-09T15:20:45Z</time>
      </trkpt>
      <trkpt lat="46.02153" lon="6.91867">
        <ele>1332</ele>
        <time>2018-05-09T15:21:45Z</time>
      </trkpt>
      <trkpt lat="46.02171" lon="6.91878">
        <ele>1330</ele>
        <time>2018-05-09T15:22:45Z</time>
      </trkpt>
      <trkpt lat="46.02182" lon="6.91883">
        <ele>1330</ele>
        <time>2018-05-09T15:23:45Z</time>
      </trkpt>
      <trkpt lat="46.02203" lon="6.91893">
        <ele>1329</ele>
        <time>2018-05-09T15:24:45Z</time>
      </trkpt>
      <trkpt lat="46.02208" lon="6.91895">
        <ele>1329</ele>
        <time>2018-05-09T15:25:45Z</time>
      </trkpt>
      <trkpt lat="46.02212" lon="6.91896">
        <ele>1329</ele>
        <time>2018-05-09T15:26:45Z</time>
      </trkpt>
      <trkpt lat="46.02219" lon="6.91899">
        <ele>1329</ele>
        <time>2018-05-09T15:27:45Z</time>
      </trkpt>
      <trkpt lat="46.02235" lon="6.91906">
        <ele>1328</ele>
        <time>2018-05-09T15:28:45Z</time>
      </trkpt>
      <trkpt lat="46.02248" lon="6.91912">
        <ele>1326</ele>
        <time>2018-05-09T15:29:45Z</time>
      </trkpt>
      <trkpt lat="46.02274" lon="6.91928">
        <ele>1323</ele>
        <time>2018-05-09T15:30:45Z</time>
      </trkpt>
      <trkpt lat="46.02298" lon="6.91943">
        <ele>1322</ele>
        <time>2018-05-09T15:31:45Z</time>
      </trkpt>
      <trkpt lat="46.02323" lon="6.9196">
        <ele>1321</ele>
        <time>2018-05-09T15:32:45Z</time>
      </trkpt>
      <trkpt lat="46.02339" lon="6.91974">
        <ele>1323</ele>
        <time>2018-05-09T15:33:45Z</time>
      </trkpt>
      <trkpt lat="46.02358" lon="6.9199">
        <ele>1322</ele>
        <time>2018-05-09T15:34:45Z</time>
      </trkpt>
      <trkpt lat="46.02385" lon="6.92019">
        <ele>1315</ele>
        <time>2018-05-09T15:35:45Z</time>
      </trkpt>
      <trkpt lat="46.02418" lon="6.92055">
        <ele>1317</ele>
        <time>2018-05-09T15:36:45Z</time>
      </trkpt>
      <trkpt lat="46.02447" lon="6.92088">
        <ele>1311</ele>
        <time>2018-05-09T15:37:45Z</time>
      </trkpt>
      <trkpt lat="46.02449" lon="6.9209">
        <ele>1311</ele>
        <time>2018-05-09T15:38:45Z</time>
      </trkpt>
      <trkpt lat="46.02471" lon="6.92114">
        <ele>1311</ele>
        <time>2018-05-09T15:39:45Z</time>
      </trkpt>
      <trkpt lat="46.02499" lon="6.92144">
        <ele>1310</ele>
        <time>2018-05-09T15:40:45Z</time>
      </trkpt>
      <trkpt lat="46.02518" lon="6.92166">
        <ele>1312</ele>
        <time>2018-05-09T15:41:45Z</time>
      </trkpt>
      <trkpt lat="46.02522" lon="6.92171">
        <ele>1308</ele>
        <time>2018-05-09T15:42:45Z</time>
      </trkpt>
      <trkpt lat="46.02531" lon="6.92183">
        <ele>1308</ele>
        <time>2018-05-09T15:43:45Z</time>
      </trkpt>
      <trkpt lat="46.02541" lon="6.92202">
        <ele>1307</ele>
        <time>2018-05-09T15:44:45Z</time>
      </trkpt>
      <trkpt lat="46.02549" lon="6.92219">
        <ele>1307</ele>
        <time>2018-05-09T15:45:45Z</time>
      </trkpt>
      <trkpt lat="46.02551" lon="6.92223">
        <ele>1307</ele>
        <time>2018-05-09T15:46:45Z</time>
      </trkpt>
      <trkpt lat="46.02554" lon="6.92231">
        <ele>1307</ele>
        <time>2018-05-09T15:47:45Z</time>
      </trkpt>
      <trkpt lat="46.02555" lon="6.92234">
        <ele>1307</ele>
        <time>2018-05-09T15:48:45Z</time>
      </trkpt>
      <trkpt lat="46.02572" lon="6.92272">
        <ele>1304</ele>
        <time>2018-05-09T15:49:45Z</time>
      </trkpt>
      <trkpt lat="46.02575" lon="6.92281">
        <ele>1304</ele>
        <time>2018-05-09T15:50:45Z</time>
      </trkpt>
      <trkpt lat="46.02579" lon="6.92292">
        <ele>1304</ele>
        <time>2018-05-09T15:51:45Z</time>
      </trkpt>
      <trkpt lat="46.02585" lon="6.92307">
        <ele>1306</ele>
        <time>2018-05-09T15:52:45Z</time>
      </trkpt>
      <trkpt lat="46.02603" lon="6.9235">
        <ele>1304</ele>
        <time>2018-05-09T15:53:45Z</time>
      </trkpt>
      <trkpt lat="46.02617" lon="6.92385">
        <ele>1304</ele>
        <time>2018-05-09T15:54:45Z</time>
      </trkpt>
      <trkpt lat="46.02624" lon="6.92403">
        <ele>1304</ele>
        <time>2018-05-09T15:55:45Z</time>
      </trkpt>
      <trkpt lat="46.02632" lon="6.92419">
        <ele>1302</ele>
        <time>2018-05-09T15:56:45Z</time>
      </trkpt>
      <trkpt lat="46.02635" lon="6.92426">
        <ele>1302</ele>
        <time>2018-05-09T15:57:45Z</time>
      </trkpt>
      <trkpt lat="46.02643" lon="6.92437">
        <ele>1302</ele>
        <time>2018-05-09T15:58:45Z</time>
      </trkpt>
      <trkpt lat="46.02644" lon="6.92439">
        <ele>1302</ele>
        <time>2018-05-09T15:59:45Z</time>
      </trkpt>
      <trkpt lat="46.02662" lon="6.92463">
        <ele>1301</ele>
        <time>2018-05-09T16:00:45Z</time>
      </trkpt>
      <trkpt lat="46.02665" lon="6.92468">
        <ele>1301</ele>
        <time>2018-05-09T16:01:45Z</time>
      </trkpt>
      <trkpt lat="46.02668" lon="6.92471">
        <ele>1306</ele>
        <time>2018-05-09T16:02:45Z</time>
      </trkpt>
      <trkpt lat="46.02671" lon="6.92476">
        <ele>1305</ele>
        <time>2018-05-09T16:03:45Z</time>
      </trkpt>
      <trkpt lat="46.02674" lon="6.9248">
        <ele>1305</ele>
        <time>2018-05-09T16:04:45Z</time>
      </trkpt>
      <trkpt lat="46.02681" lon="6.92488">
        <ele>1305</ele>
        <time>2018-05-09T16:05:45Z</time>
      </trkpt>
      <trkpt lat="46.02693" lon="6.92505">
        <ele>1302</ele>
        <time>2018-05-09T16:06:45Z</time>
      </trkpt>
      <trkpt lat="46.027" lon="6.92519">
        <ele>1302</ele>
        <time>2018-05-09T16:07:45Z</time>
      </trkpt>
      <trkpt lat="46.02702" lon="6.92527">
        <ele>1302</ele>
        <time>2018-05-09T16:08:45Z</time>
      </trkpt>
      <trkpt lat="46.02703" lon="6.92531">
        <ele>1302</ele>
        <time>2018-05-09T16:09:45Z</time>
      </trkpt>
      <trkpt lat="46.02708" lon="6.92551">
        <ele>1302</ele>
        <time>2018-05-09T16:10:45Z</time>
      </trkpt>
      <trkpt lat="46.02712" lon="6.92568">
        <ele>1302</ele>
        <time>2018-05-09T16:11:45Z</time>
      </trkpt>
      <trkpt lat="46.02717" lon="6.92582">
        <ele>1302</ele>
        <time>2018-05-09T16:12:45Z</time>
      </trkpt>
      <trkpt lat="46.0273" lon="6.92604">
        <ele>1300</ele>
        <time>2018-05-09T16:13:45Z</time>
      </trkpt>
      <trkpt lat="46.02746" lon="6.9263">
        <ele>1300</ele>
        <time>2018-05-09T16:14:45Z</time>
      </trkpt>
      <trkpt lat="46.02762" lon="6.92654">
        <ele>1302</ele>
        <time>2018-05-09T16:15:45Z</time>
      </trkpt>
      <trkpt lat="46.02769" lon="6.92661">
        <ele>1302</ele>
        <time>2018-05-09T16:16:45Z</time>
      </trkpt>
      <trkpt lat="46.02772" lon="6.92664">
        <ele>1302</ele>
        <time>2018-05-09T16:17:45Z</time>
      </trkpt>
      <trkpt lat="46.0278" lon="6.92668">
        <ele>1298</ele>
        <time>2018-05-09T16:18:45Z</time>
      </trkpt>
      <trkpt lat="46.02794" lon="6.9267">
        <ele>1298</ele>
        <time>2018-05-09T16:19:45Z</time>
      </trkpt>
      <trkpt lat="46.02823" lon="6.92671">
        <ele>1298</ele>
        <time>2018-05-09T16:20:45Z</time>
      </trkpt>
      <trkpt lat="46.02843" lon="6.92673">
        <ele>1298</ele>
        <time>2018-05-09T16:21:45Z</time>
      </trkpt>
      <trkpt lat="46.02856" lon="6.92676">
        <ele>1297</ele>
        <time>2018-05-09T16:22:45Z</time>
      </trkpt>
      <trkpt lat="46.02866" lon="6.92682">
        <ele>1296</ele>
        <time>2018-05-09T16:23:45Z</time>
      </trkpt>
      <trkpt lat="46.02876" lon="6.92692">
        <ele>1296</ele>
        <time>2018-05-09T16:24:45Z</time>
      </trkpt>
      <trkpt lat="46.02899" lon="6.92723">
        <ele>1293</ele>
        <time>2018-05-09T16:25:45Z</time>
      </trkpt>
      <trkpt lat="46.0293" lon="6.92768">
        <ele>1288</ele>
        <time>2018-05-09T16:26:45Z</time>
      </trkpt>
      <trkpt lat="46.02951" lon="6.92796">
        <ele>1286</ele>
        <time>2018-05-09T16:27:45Z</time>
      </trkpt>
      <trkpt lat="46.02965" lon="6.92815">
        <ele>1285</ele>
        <time>2018-05-09T16:28:45Z</time>
      </trkpt>
      <trkpt lat="46.02974" lon="6.92822">
        <ele>1285</ele>
        <time>2018-05-09T16:29:45Z</time>
      </trkpt>
      <trkpt lat="46.02982" lon="6.92825">
        <ele>1284</ele>
        <time>2018-05-09T16:30:45Z</time>
      </trkpt>
      <trkpt lat="46.02991" lon="6.92827">
        <ele>1284</ele>
        <time>2018-05-09T16:31:45Z</time>
      </trkpt>
      <trkpt lat="46.03014" lon="6.92826">
        <ele>1287</ele>
        <time>2018-05-09T16:32:45Z</time>
      </trkpt>
      <trkpt lat="46.03039" lon="6.92825">
        <ele>1290</ele>
        <time>2018-05-09T16:33:45Z</time>
      </trkpt>
      <trkpt lat="46.03044" lon="6.92826">
        <ele>1290</ele>
        <time>2018-05-09T16:34:45Z</time>
      </trkpt>
      <trkpt lat="46.03051" lon="6.92828">
        <ele>1290</ele>
        <time>2018-05-09T16:35:45Z</time>
      </trkpt>
      <trkpt lat="46.0306" lon="6.92832">
        <ele>1291</ele>
        <time>2018-05-09T16:36:45Z</time>
      </trkpt>
      <trkpt lat="46.03067" lon="6.92838">
        <ele>1286</ele>
        <time>2018-05-09T16:37:45Z</time>
      </trkpt>
      <trkpt lat="46.03074" lon="6.92849">
        <ele>1285</ele>
        <time>2018-05-09T16:38:45Z</time>
      </trkpt>
      <trkpt lat="46.03083" lon="6.92864">
        <ele>1283</ele>
        <time>2018-05-09T16:39:45Z</time>
      </trkpt>
      <trkpt lat="46.03095" lon="6.92882">
        <ele>1288</ele>
        <time>2018-05-09T16:40:45Z</time>
      </trkpt>
      <trkpt lat="46.03108" lon="6.92903">
        <ele>1287</ele>
        <time>2018-05-09T16:41:45Z</time>
      </trkpt>
      <trkpt lat="46.03122" lon="6.92921">
        <ele>1279</ele>
        <time>2018-05-09T16:42:45Z</time>
      </trkpt>
      <trkpt lat="46.0313" lon="6.92931">
        <ele>1280</ele>
        <time>2018-05-09T16:43:45Z</time>
      </trkpt>
      <trkpt lat="46.03149" lon="6.92948">
        <ele>1279</ele>
        <time>2018-05-09T16:44:45Z</time>
      </trkpt>
      <trkpt lat="46.03163" lon="6.92961">
        <ele>1278</ele>
        <time>2018-05-09T16:45:45Z</time>
      </trkpt>
      <trkpt lat="46.03173" lon="6.92969">
        <ele>1283</ele>
        <time>2018-05-09T16:46:45Z</time>
      </trkpt>
      <trkpt lat="46.03179" lon="6.92973">
        <ele>1282</ele>
        <time>2018-05-09T16:47:45Z</time>
      </trkpt>
      <trkpt lat="46.03186" lon="6.92976">
        <ele>1283</ele>
        <time>2018-05-09T16:48:45Z</time>
      </trkpt>
      <trkpt lat="46.03193" lon="6.92978">
        <ele>1283</ele>
        <time>2018-05-09T16:49:45Z</time>
      </trkpt>
      <trkpt lat="46.03202" lon="6.92979">
        <ele>1284</ele>
        <time>2018-05-09T16:50:45Z</time>
      </trkpt>
      <trkpt lat="46.0321" lon="6.9298">
        <ele>1285</ele>
        <time>2018-05-09T16:51:45Z</time>
      </trkpt>
      <trkpt lat="46.03216" lon="6.92982">
        <ele>1285</ele>
        <time>2018-05-09T16:52:45Z</time>
      </trkpt>
      <trkpt lat="46.03226" lon="6.92987">
        <ele>1285</ele>
        <time>2018-05-09T16:53:45Z</time>
      </trkpt>
      <trkpt lat="46.03241" lon="6.92996">
        <ele>1284</ele>
        <time>2018-05-09T16:54:45Z</time>
      </trkpt>
      <trkpt lat="46.03253" lon="6.93003">
        <ele>1282</ele>
        <time>2018-05-09T16:55:45Z</time>
      </trkpt>
      <trkpt lat="46.03274" lon="6.93015">
        <ele>1281</ele>
        <time>2018-05-09T16:56:45Z</time>
      </trkpt>
      <trkpt lat="46.0329" lon="6.93024">
        <ele>1281</ele>
        <time>2018-05-09T16:57:45Z</time>
      </trkpt>
      <trkpt lat="46.03297" lon="6.93031">
        <ele>1281</ele>
        <time>2018-05-09T16:58:45Z</time>
      </trkpt>
      <trkpt lat="46.03302" lon="6.93035">
        <ele>1281</ele>
        <time>2018-05-09T16:59:45Z</time>
      </trkpt>
      <trkpt lat="46.03306" lon="6.9304">
        <ele>1280</ele>
        <time>2018-05-09T17:00:45Z</time>
      </trkpt>
      <trkpt lat="46.0331" lon="6.93046">
        <ele>1280</ele>
        <time>2018-05-09T17:01:45Z</time>
      </trkpt>
      <trkpt lat="46.03314" lon="6.93053">
        <ele>1279</ele>
        <time>2018-05-09T17:02:45Z</time>
      </trkpt>
      <trkpt lat="46.03319" lon="6.93068">
        <ele>1278</ele>
        <time>2018-05-09T17:03:45Z</time>
      </trkpt>
      <trkpt lat="46.03327" lon="6.93095">
        <ele>1272</ele>
        <time>2018-05-09T17:04:45Z</time>
      </trkpt>
      <trkpt lat="46.03339" lon="6.93138">
        <ele>1272</ele>
        <time>2018-05-09T17:05:45Z</time>
      </trkpt>
      <trkpt lat="46.03347" lon="6.93159">
        <ele>1270</ele>
        <time>2018-05-09T17:06:45Z</time>
      </trkpt>
      <trkpt lat="46.03352" lon="6.93169">
        <ele>1266</ele>
        <time>2018-05-09T17:07:45Z</time>
      </trkpt>
      <trkpt lat="46.03358" lon="6.93178">
        <ele>1266</ele>
        <time>2018-05-09T17:08:45Z</time>
      </trkpt>
      <trkpt lat="46.0337" lon="6.9319">
        <ele>1266</ele>
        <time>2018-05-09T17:09:45Z</time>
      </trkpt>
      <trkpt lat="46.03384" lon="6.93204">
        <ele>1266</ele>
        <time>2018-05-09T17:10:45Z</time>
      </trkpt>
      <trkpt lat="46.03406" lon="6.93231">
        <ele>1265</ele>
        <time>2018-05-09T17:11:45Z</time>
      </trkpt>
      <trkpt lat="46.03423" lon="6.93252">
        <ele>1264</ele>
        <time>2018-05-09T17:12:45Z</time>
      </trkpt>
      <trkpt lat="46.0344" lon="6.9327">
        <ele>1262</ele>
        <time>2018-05-09T17:13:45Z</time>
      </trkpt>
      <trkpt lat="46.03453" lon="6.93282">
        <ele>1262</ele>
        <time>2018-05-09T17:14:45Z</time>
      </trkpt>
      <trkpt lat="46.03461" lon="6.9329">
        <ele>1262</ele>
        <time>2018-05-09T17:15:45Z</time>
      </trkpt>
      <trkpt lat="46.03469" lon="6.93299">
        <ele>1261</ele>
        <time>2018-05-09T17:16:45Z</time>
      </trkpt>
      <trkpt lat="46.03474" lon="6.93309">
        <ele>1261</ele>
        <time>2018-05-09T17:17:45Z</time>
      </trkpt>
      <trkpt lat="46.0348" lon="6.93323">
        <ele>1260</ele>
        <time>2018-05-09T17:18:45Z</time>
      </trkpt>
      <trkpt lat="46.03484" lon="6.93337">
        <ele>1258</ele>
        <time>2018-05-09T17:19:45Z</time>
      </trkpt>
      <trkpt lat="46.03495" lon="6.93373">
        <ele>1258</ele>
        <time>2018-05-09T17:20:45Z</time>
      </trkpt>
      <trkpt lat="46.03508" lon="6.93415">
        <ele>1255</ele>
        <time>2018-05-09T17:21:45Z</time>
      </trkpt>
      <trkpt lat="46.03523" lon="6.9346">
        <ele>1256</ele>
        <time>2018-05-09T17:22:45Z</time>
      </trkpt>
      <trkpt lat="46.03531" lon="6.93476">
        <ele>1256</ele>
        <time>2018-05-09T17:23:45Z</time>
      </trkpt>
      <trkpt lat="46.03534" lon="6.93484">
        <ele>1256</ele>
        <time>2018-05-09T17:24:45Z</time>
      </trkpt>
      <trkpt lat="46.03554" lon="6.93527">
        <ele>1258</ele>
        <time>2018-05-09T17:25:45Z</time>
      </trkpt>
      <trkpt lat="46.03559" lon="6.93538">
        <ele>1258</ele>
        <time>2018-05-09T17:26:45Z</time>
      </trkpt>
      <trkpt lat="46.03566" lon="6.93555">
        <ele>1258</ele>
        <time>2018-05-09T17:27:45Z</time>
      </trkpt>
      <trkpt lat="46.03574" lon="6.93573">
        <ele>1257</ele>
        <time>2018-05-09T17:28:45Z</time>
      </trkpt>
      <trkpt lat="46.03583" lon="6.93591">
        <ele>1260</ele>
        <time>2018-05-09T17:29:45Z</time>
      </trkpt>
      <trkpt lat="46.03588" lon="6.936">
        <ele>1258</ele>
        <time>2018-05-09T17:30:45Z</time>
      </trkpt>
      <trkpt lat="46.03593" lon="6.93605">
        <ele>1258</ele>
        <time>2018-05-09T17:31:45Z</time>
      </trkpt>
      <trkpt lat="46.03598" lon="6.9361">
        <ele>1259</ele>
        <time>2018-05-09T17:32:45Z</time>
      </trkpt>
      <trkpt lat="46.03607" lon="6.93616">
        <ele>1259</ele>
        <time>2018-05-09T17:33:45Z</time>
      </trkpt>
      <trkpt lat="46.03626" lon="6.93624">
        <ele>1259</ele>
        <time>2018-05-09T17:34:45Z</time>
      </trkpt>
      <trkpt lat="46.03639" lon="6.93631">
        <ele>1259</ele>
        <time>2018-05-09T17:35:45Z</time>
      </trkpt>
      <trkpt lat="46.03695" lon="6.9366">
        <ele>1254</ele>
        <time>2018-05-09T17:36:45Z</time>
      </trkpt>
      <trkpt lat="46.03706" lon="6.93663">
        <ele>1253</ele>
        <time>2018-05-09T17:37:45Z</time>
      </trkpt>
      <trkpt lat="46.03727" lon="6.93669">
        <ele>1258</ele>
        <time>2018-05-09T17:38:45Z</time>
      </trkpt>
      <trkpt lat="46.03766" lon="6.93681">
        <ele>1253</ele>
        <time>2018-05-09T17:39:45Z</time>
      </trkpt>
      <trkpt lat="46.0378" lon="6.93685">
        <ele>1253</ele>
        <time>2018-05-09T17:40:45Z</time>
      </trkpt>
      <trkpt lat="46.03791" lon="6.93687">
        <ele>1253</ele>
        <time>2018-05-09T17:41:45Z</time>
      </trkpt>
      <trkpt lat="46.03815" lon="6.9369">
        <ele>1252</ele>
        <time>2018-05-09T17:42:45Z</time>
      </trkpt>
      <trkpt lat="46.03825" lon="6.93693">
        <ele>1252</ele>
        <time>2018-05-09T17:43:45Z</time>
      </trkpt>
      <trkpt lat="46.03845" lon="6.93706">
        <ele>1249</ele>
        <time>2018-05-09T17:44:45Z</time>
      </trkpt>
      <trkpt lat="46.03863" lon="6.93716">
        <ele>1248</ele>
        <time>2018-05-09T17:45:45Z</time>
      </trkpt>
      <trkpt lat="46.03878" lon="6.93722">
        <ele>1248</ele>
        <time>2018-05-09T17:46:45Z</time>
      </trkpt>
      <trkpt lat="46.03896" lon="6.93728">
        <ele>1246</ele>
        <time>2018-05-09T17:47:45Z</time>
      </trkpt>
      <trkpt lat="46.0391" lon="6.93732">
        <ele>1245</ele>
        <time>2018-05-09T17:48:45Z</time>
      </trkpt>
      <trkpt lat="46.03921" lon="6.93739">
        <ele>1244</ele>
        <time>2018-05-09T17:49:45Z</time>
      </trkpt>
      <trkpt lat="46.03926" lon="6.93745">
        <ele>1244</ele>
        <time>2018-05-09T17:50:45Z</time>
      </trkpt>
      <trkpt lat="46.03934" lon="6.93762">
        <ele>1245</ele>
        <time>2018-05-09T17:51:45Z</time>
      </trkpt>
      <trkpt lat="46.0394" lon="6.93777">
        <ele>1246</ele>
        <time>2018-05-09T17:52:45Z</time>
      </trkpt>
      <trkpt lat="46.0395" lon="6.9379">
        <ele>1247</ele>
        <time>2018-05-09T17:53:45Z</time>
      </trkpt>
      <trkpt lat="46.03956" lon="6.93795">
        <ele>1247</ele>
        <time>2018-05-09T17:54:45Z</time>
      </trkpt>
      <trkpt lat="46.03963" lon="6.93797">
        <ele>1247</ele>
        <time>2018-05-09T17:55:45Z</time>
      </trkpt>
      <trkpt lat="46.03979" lon="6.93802">
        <ele>1247</ele>
        <time>2018-05-09T17:56:45Z</time>
      </trkpt>
      <trkpt lat="46.03995" lon="6.93808">
        <ele>1246</ele>
        <time>2018-05-09T17:57:45Z</time>
      </trkpt>
      <trkpt lat="46.04008" lon="6.9382">
        <ele>1246</ele>
        <time>2018-05-09T17:58:45Z</time>
      </trkpt>
      <trkpt lat="46.04022" lon="6.93828">
        <ele>1246</ele>
        <time>2018-05-09T17:59:45Z</time>
      </trkpt>
      <trkpt lat="46.0404" lon="6.93833">
        <ele>1247</ele>
        <time>2018-05-09T18:00:45Z</time>
      </trkpt>
      <trkpt lat="46.04051" lon="6.93837">
        <ele>1249</ele>
        <time>2018-05-09T18:01:45Z</time>
      </trkpt>
      <trkpt lat="46.04059" lon="6.93842">
        <ele>1249</ele>
        <time>2018-05-09T18:02:45Z</time>
      </trkpt>
      <trkpt lat="46.04067" lon="6.93849">
        <ele>1249</ele>
        <time>2018-05-09T18:03:45Z</time>
      </trkpt>
      <trkpt lat="46.04081" lon="6.93867">
        <ele>1250</ele>
        <time>2018-05-09T18:04:45Z</time>
      </trkpt>
      <trkpt lat="46.04091" lon="6.93881">
        <ele>1247</ele>
        <time>2018-05-09T18:05:45Z</time>
      </trkpt>
      <trkpt lat="46.041" lon="6.9389">
        <ele>1247</ele>
        <time>2018-05-09T18:06:45Z</time>
      </trkpt>
      <trkpt lat="46.0411" lon="6.93898">
        <ele>1247</ele>
        <time>2018-05-09T18:07:45Z</time>
      </trkpt>
      <trkpt lat="46.04125" lon="6.93908">
        <ele>1246</ele>
        <time>2018-05-09T18:08:45Z</time>
      </trkpt>
      <trkpt lat="46.04142" lon="6.93918">
        <ele>1250</ele>
        <time>2018-05-09T18:09:45Z</time>
      </trkpt>
      <trkpt lat="46.04162" lon="6.93926">
        <ele>1245</ele>
        <time>2018-05-09T18:10:45Z</time>
      </trkpt>
      <trkpt lat="46.04178" lon="6.93932">
        <ele>1241</ele>
        <time>2018-05-09T18:11:45Z</time>
      </trkpt>
      <trkpt lat="46.04193" lon="6.93936">
        <ele>1241</ele>
        <time>2018-05-09T18:12:45Z</time>
      </trkpt>
      <trkpt lat="46.04205" lon="6.93938">
        <ele>1241</ele>
        <time>2018-05-09T18:13:45Z</time>
      </trkpt>
      <trkpt lat="46.04221" lon="6.93939">
        <ele>1240</ele>
        <time>2018-05-09T18:14:45Z</time>
      </trkpt>
      <trkpt lat="46.0423" lon="6.93944">
        <ele>1240</ele>
        <time>2018-05-09T18:15:45Z</time>
      </trkpt>
      <trkpt lat="46.04237" lon="6.93951">
        <ele>1240</ele>
        <time>2018-05-09T18:16:45Z</time>
      </trkpt>
      <trkpt lat="46.04239" lon="6.93955">
        <ele>1240</ele>
        <time>2018-05-09T18:17:45Z</time>
      </trkpt>
      <trkpt lat="46.0424" lon="6.93957">
        <ele>1240</ele>
        <time>2018-05-09T18:18:45Z</time>
      </trkpt>
      <trkpt lat="46.04242" lon="6.93962">
        <ele>1239</ele>
        <time>2018-05-09T18:19:45Z</time>
      </trkpt>
      <trkpt lat="46.04244" lon="6.93967">
        <ele>1239</ele>
        <time>2018-05-09T18:20:45Z</time>
      </trkpt>
      <trkpt lat="46.04247" lon="6.93972">
        <ele>1239</ele>
        <time>2018-05-09T18:21:45Z</time>
      </trkpt>
      <trkpt lat="46.04248" lon="6.93974">
        <ele>1239</ele>
        <time>2018-05-09T18:22:45Z</time>
      </trkpt>
      <trkpt lat="46.04251" lon="6.9398">
        <ele>1234</ele>
        <time>2018-05-09T18:23:45Z</time>
      </trkpt>
      <trkpt lat="46.04254" lon="6.93984">
        <ele>1234</ele>
        <time>2018-05-09T18:24:45Z</time>
      </trkpt>
      <trkpt lat="46.04258" lon="6.93986">
        <ele>1234</ele>
        <time>2018-05-09T18:25:45Z</time>
      </trkpt>
      <trkpt lat="46.04263" lon="6.93989">
        <ele>1234</ele>
        <time>2018-05-09T18:26:45Z</time>
      </trkpt>
      <trkpt lat="46.04267" lon="6.9399">
        <ele>1234</ele>
        <time>2018-05-09T18:27:45Z</time>
      </trkpt>
      <trkpt lat="46.04288" lon="6.93995">
        <ele>1233</ele>
        <time>2018-05-09T18:28:45Z</time>
      </trkpt>
      <trkpt lat="46.04314" lon="6.94001">
        <ele>1234</ele>
        <time>2018-05-09T18:29:45Z</time>
      </trkpt>
      <trkpt lat="46.0434" lon="6.9401">
        <ele>1228</ele>
        <time>2018-05-09T18:30:45Z</time>
      </trkpt>
      <trkpt lat="46.04365" lon="6.94021">
        <ele>1229</ele>
        <time>2018-05-09T18:31:45Z</time>
      </trkpt>
      <trkpt lat="46.04396" lon="6.94035">
        <ele>1227</ele>
        <time>2018-05-09T18:32:45Z</time>
      </trkpt>
      <trkpt lat="46.04439" lon="6.94054">
        <ele>1213</ele>
        <time>2018-05-09T18:33:45Z</time>
      </trkpt>
      <trkpt lat="46.0445" lon="6.94061">
        <ele>1212</ele>
        <time>2018-05-09T18:34:45Z</time>
      </trkpt>
      <trkpt lat="46.04464" lon="6.94074">
        <ele>1208</ele>
        <time>2018-05-09T18:35:45Z</time>
      </trkpt>
      <trkpt lat="46.04473" lon="6.94083">
        <ele>1205</ele>
        <time>2018-05-09T18:36:45Z</time>
      </trkpt>
      <trkpt lat="46.04493" lon="6.94102">
        <ele>1206</ele>
        <time>2018-05-09T18:37:45Z</time>
      </trkpt>
      <trkpt lat="46.04501" lon="6.9411">
        <ele>1196</ele>
        <time>2018-05-09T18:38:45Z</time>
      </trkpt>
      <trkpt lat="46.04508" lon="6.94114">
        <ele>1197</ele>
        <time>2018-05-09T18:39:45Z</time>
      </trkpt>
      <trkpt lat="46.04517" lon="6.94118">
        <ele>1198</ele>
        <time>2018-05-09T18:40:45Z</time>
      </trkpt>
      <trkpt lat="46.04535" lon="6.94125">
        <ele>1198</ele>
        <time>2018-05-09T18:41:45Z</time>
      </trkpt>
      <trkpt lat="46.04582" lon="6.94142">
        <ele>1197</ele>
        <time>2018-05-09T18:42:45Z</time>
      </trkpt>
      <trkpt lat="46.0461" lon="6.94151">
        <ele>1195</ele>
        <time>2018-05-09T18:43:45Z</time>
      </trkpt>
      <trkpt lat="46.04622" lon="6.94157">
        <ele>1194</ele>
        <time>2018-05-09T18:44:45Z</time>
      </trkpt>
      <trkpt lat="46.0463" lon="6.94161">
        <ele>1193</ele>
        <time>2018-05-09T18:45:45Z</time>
      </trkpt>
      <trkpt lat="46.04641" lon="6.94167">
        <ele>1195</ele>
        <time>2018-05-09T18:46:45Z</time>
      </trkpt>
      <trkpt lat="46.04651" lon="6.94173">
        <ele>1194</ele>
        <time>2018-05-09T18:47:45Z</time>
      </trkpt>
      <trkpt lat="46.04679" lon="6.94191">
        <ele>1188</ele>
        <time>2018-05-09T18:48:45Z</time>
      </trkpt>
      <trkpt lat="46.04707" lon="6.94209">
        <ele>1187</ele>
        <time>2018-05-09T18:49:45Z</time>
      </trkpt>
      <trkpt lat="46.04725" lon="6.94221">
        <ele>1186</ele>
        <time>2018-05-09T18:50:45Z</time>
      </trkpt>
      <trkpt lat="46.04736" lon="6.94231">
        <ele>1185</ele>
        <time>2018-05-09T18:51:45Z</time>
      </trkpt>
      <trkpt lat="46.04742" lon="6.94237">
        <ele>1184</ele>
        <time>2018-05-09T18:52:45Z</time>
      </trkpt>
      <trkpt lat="46.04754" lon="6.94248">
        <ele>1181</ele>
        <time>2018-05-09T18:53:45Z</time>
      </trkpt>
      <trkpt lat="46.04764" lon="6.94259">
        <ele>1184</ele>
        <time>2018-05-09T18:54:45Z</time>
      </trkpt>
      <trkpt lat="46.04772" lon="6.94266">
        <ele>1185</ele>
        <time>2018-05-09T18:55:45Z</time>
      </trkpt>
      <trkpt lat="46.04781" lon="6.94272">
        <ele>1185</ele>
        <time>2018-05-09T18:56:45Z</time>
      </trkpt>
      <trkpt lat="46.04792" lon="6.94278">
        <ele>1185</ele>
        <time>2018-05-09T18:57:45Z</time>
      </trkpt>
      <trkpt lat="46.0481" lon="6.94289">
        <ele>1184</ele>
        <time>2018-05-09T18:58:45Z</time>
      </trkpt>
      <trkpt lat="46.04819" lon="6.94293">
        <ele>1184</ele>
        <time>2018-05-09T18:59:45Z</time>
      </trkpt>
      <trkpt lat="46.04825" lon="6.943">
        <ele>1185</ele>
        <time>2018-05-09T19:00:45Z</time>
      </trkpt>
      <trkpt lat="46.04838" lon="6.94312">
        <ele>1175</ele>
        <time>2018-05-09T19:01:45Z</time>
      </trkpt>
      <trkpt lat="46.04853" lon="6.94329">
        <ele>1175</ele>
        <time>2018-05-09T19:02:45Z</time>
      </trkpt>
      <trkpt lat="46.04868" lon="6.94345">
        <ele>1179</ele>
        <time>2018-05-09T19:03:45Z</time>
      </trkpt>
      <trkpt lat="46.04902" lon="6.94382">
        <ele>1176</ele>
        <time>2018-05-09T19:04:45Z</time>
      </trkpt>
      <trkpt lat="46.04928" lon="6.94411">
        <ele>1164</ele>
        <time>2018-05-09T19:05:45Z</time>
      </trkpt>
      <trkpt lat="46.04946" lon="6.94431">
        <ele>1165</ele>
        <time>2018-05-09T19:06:45Z</time>
      </trkpt>
      <trkpt lat="46.04954" lon="6.94441">
        <ele>1164</ele>
        <time>2018-05-09T19:07:45Z</time>
      </trkpt>
      <trkpt lat="46.04958" lon="6.94446">
        <ele>1164</ele>
        <time>2018-05-09T19:08:45Z</time>
      </trkpt>
      <trkpt lat="46.04966" lon="6.94458">
        <ele>1164</ele>
        <time>2018-05-09T19:09:45Z</time>
      </trkpt>
      <trkpt lat="46.04982" lon="6.94485">
        <ele>1162</ele>
        <time>2018-05-09T19:10:45Z</time>
      </trkpt>
      <trkpt lat="46.04992" lon="6.94502">
        <ele>1163</ele>
        <time>2018-05-09T19:11:45Z</time>
      </trkpt>
      <trkpt lat="46.05008" lon="6.94525">
        <ele>1156</ele>
        <time>2018-05-09T19:12:45Z</time>
      </trkpt>
      <trkpt lat="46.05013" lon="6.94533">
        <ele>1156</ele>
        <time>2018-05-09T19:13:45Z</time>
      </trkpt>
      <trkpt lat="46.05024" lon="6.94543">
        <ele>1156</ele>
        <time>2018-05-09T19:14:45Z</time>
      </trkpt>
      <trkpt lat="46.05026" lon="6.94545">
        <ele>1156</ele>
        <time>2018-05-09T19:15:45Z</time>
      </trkpt>
      <trkpt lat="46.05033" lon="6.94553">
        <ele>1156</ele>
        <time>2018-05-09T19:16:45Z</time>
      </trkpt>
      <trkpt lat="46.05046" lon="6.94564">
        <ele>1154</ele>
        <time>2018-05-09T19:17:45Z</time>
      </trkpt>
      <trkpt lat="46.05062" lon="6.94576">
        <ele>1151</ele>
        <time>2018-05-09T19:18:45Z</time>
      </trkpt>
      <trkpt lat="46.05067" lon="6.9458">
        <ele>1149</ele>
        <time>2018-05-09T19:19:45Z</time>
      </trkpt>
      <trkpt lat="46.05074" lon="6.94587">
        <ele>1149</ele>
        <time>2018-05-09T19:20:45Z</time>
      </trkpt>
      <trkpt lat="46.05077" lon="6.94592">
        <ele>1149</ele>
        <time>2018-05-09T19:21:45Z</time>
      </trkpt>
      <trkpt lat="46.0508" lon="6.94597">
        <ele>1150</ele>
        <time>2018-05-09T19:22:45Z</time>
      </trkpt>
      <trkpt lat="46.05082" lon="6.94605">
        <ele>1152</ele>
        <time>2018-05-09T19:23:45Z</time>
      </trkpt>
      <trkpt lat="46.05084" lon="6.94614">
        <ele>1148</ele>
        <time>2018-05-09T19:24:45Z</time>
      </trkpt>
      <trkpt lat="46.05088" lon="6.94633">
        <ele>1148</ele>
        <time>2018-05-09T19:25:45Z</time>
      </trkpt>
      <trkpt lat="46.0509" lon="6.94646">
        <ele>1147</ele>
        <time>2018-05-09T19:26:45Z</time>
      </trkpt>
      <trkpt lat="46.05095" lon="6.9466">
        <ele>1146</ele>
        <time>2018-05-09T19:27:45Z</time>
      </trkpt>
      <trkpt lat="46.05104" lon="6.94676">
        <ele>1143</ele>
        <time>2018-05-09T19:28:45Z</time>
      </trkpt>
      <trkpt lat="46.05109" lon="6.94692">
        <ele>1143</ele>
        <time>2018-05-09T19:29:45Z</time>
      </trkpt>
      <trkpt lat="46.05113" lon="6.94703">
        <ele>1143</ele>
        <time>2018-05-09T19:30:45Z</time>
      </trkpt>
      <trkpt lat="46.05114" lon="6.94714">
        <ele>1142</ele>
        <time>2018-05-09T19:31:45Z</time>
      </trkpt>
      <trkpt lat="46.05115" lon="6.94721">
        <ele>1142</ele>
        <time>2018-05-09T19:32:45Z</time>
      </trkpt>
      <trkpt lat="46.05114" lon="6.94729">
        <ele>1142</ele>
        <time>2018-05-09T19:33:45Z</time>
      </trkpt>
      <trkpt lat="46.05111" lon="6.94739">
        <ele>1141</ele>
        <time>2018-05-09T19:34:45Z</time>
      </trkpt>
      <trkpt lat="46.05108" lon="6.94752">
        <ele>1137</ele>
        <time>2018-05-09T19:35:45Z</time>
      </trkpt>
      <trkpt lat="46.05105" lon="6.94764">
        <ele>1136</ele>
        <time>2018-05-09T19:36:45Z</time>
      </trkpt>
      <trkpt lat="46.05103" lon="6.94778">
        <ele>1136</ele>
        <time>2018-05-09T19:37:45Z</time>
      </trkpt>
      <trkpt lat="46.05103" lon="6.94781">
        <ele>1136</ele>
        <time>2018-05-09T19:38:45Z</time>
      </trkpt>
      <trkpt lat="46.05104" lon="6.94789">
        <ele>1136</ele>
        <time>2018-05-09T19:39:45Z</time>
      </trkpt>
      <trkpt lat="46.05105" lon="6.94798">
        <ele>1136</ele>
        <time>2018-05-09T19:40:45Z</time>
      </trkpt>
      <trkpt lat="46.05107" lon="6.94805">
        <ele>1136</ele>
        <time>2018-05-09T19:41:45Z</time>
      </trkpt>
      <trkpt lat="46.05109" lon="6.9481">
        <ele>1136</ele>
        <time>2018-05-09T19:42:45Z</time>
      </trkpt>
      <trkpt lat="46.05112" lon="6.94815">
        <ele>1136</ele>
        <time>2018-05-09T19:43:45Z</time>
      </trkpt>
      <trkpt lat="46.05115" lon="6.94818">
        <ele>1135</ele>
        <time>2018-05-09T19:44:45Z</time>
      </trkpt>
      <trkpt lat="46.05115" lon="6.94818">
        <ele>1135</ele>
        <time>2018-05-09T19:45:45Z</time>
      </trkpt>
      <trkpt lat="46.05127" lon="6.94827">
        <ele>1134</ele>
        <time>2018-05-09T19:46:45Z</time>
      </trkpt>
      <trkpt lat="46.05138" lon="6.94837">
        <ele>1130</ele>
        <time>2018-05-09T19:47:45Z</time>
      </trkpt>
      <trkpt lat="46.05144" lon="6.94842">
        <ele>1129</ele>
        <time>2018-05-09T19:48:45Z</time>
      </trkpt>
      <trkpt lat="46.05155" lon="6.94851">
        <ele>1129</ele>
        <time>2018-05-09T19:49:45Z</time>
      </trkpt>
      <trkpt lat="46.05183" lon="6.94876">
        <ele>1126</ele>
        <time>2018-05-09T19:50:45Z</time>
      </trkpt>
      <trkpt lat="46.05191" lon="6.94885">
        <ele>1126</ele>
        <time>2018-05-09T19:51:45Z</time>
      </trkpt>
      <trkpt lat="46.05191" lon="6.94885">
        <ele>1126</ele>
        <time>2018-05-09T19:52:45Z</time>
      </trkpt>
      <trkpt lat="46.05199" lon="6.94868">
        <ele>1127</ele>
        <time>2018-05-09T19:53:45Z</time>
      </trkpt>
      <trkpt lat="46.05202" lon="6.94864">
        <ele>1128</ele>
        <time>2018-05-09T19:54:45Z</time>
      </trkpt>
      <trkpt lat="46.05204" lon="6.94858">
        <ele>1128</ele>
        <time>2018-05-09T19:55:45Z</time>
      </trkpt>
      <trkpt lat="46.05208" lon="6.94846">
        <ele>1129</ele>
        <time>2018-05-09T19:56:45Z</time>
      </trkpt>
      <trkpt lat="46.05203" lon="6.94839">
        <ele>1129</ele>
        <time>2018-05-09T19:57:45Z</time>
      </trkpt>
      <trkpt lat="46.05199" lon="6.94835">
        <ele>1129</ele>
        <time>2018-05-09T19:58:45Z</time>
      </trkpt>
      <trkpt lat="46.0519" lon="6.9483">
        <ele>1136</ele>
        <time>2018-05-09T19:59:45Z</time>
      </trkpt>
      <trkpt lat="46.05185" lon="6.9483">
        <ele>1135</ele>
        <time>2018-05-09T20:00:45Z</time>
      </trkpt>
      <trkpt lat="46.05181" lon="6.94831">
        <ele>1133</ele>
        <time>2018-05-09T20:01:45Z</time>
      </trkpt>
      <trkpt lat="46.05173" lon="6.94833">
        <ele>1130</ele>
        <time>2018-05-09T20:02:45Z</time>
      </trkpt>
      <trkpt lat="46.05171" lon="6.94833">
        <ele>1129</ele>
        <time>2018-05-09T20:03:45Z</time>
      </trkpt>
      <trkpt lat="46.05166" lon="6.94834">
        <ele>1127</ele>
        <time>2018-05-09T20:04:45Z</time>
      </trkpt>
      <trkpt lat="46.05161" lon="6.94833">
        <ele>1129</ele>
        <time>2018-05-09T20:05:45Z</time>
      </trkpt>
      <trkpt lat="46.05155" lon="6.94826">
        <ele>1131</ele>
        <time>2018-05-09T20:06:45Z</time>
      </trkpt>
      <trkpt lat="46.0515" lon="6.94817">
        <ele>1133</ele>
        <time>2018-05-09T20:07:45Z</time>
      </trkpt>
      <trkpt lat="46.0515" lon="6.94811">
        <ele>1133</ele>
        <time>2018-05-09T20:08:45Z</time>
      </trkpt>
      <trkpt lat="46.05154" lon="6.94787">
        <ele>1135</ele>
        <time>2018-05-09T20:09:45Z</time>
      </trkpt>
      <trkpt lat="46.05153" lon="6.94775">
        <ele>1136</ele>
        <time>2018-05-09T20:10:45Z</time>
      </trkpt>
      <trkpt lat="46.05154" lon="6.94771">
        <ele>1137</ele>
        <time>2018-05-09T20:11:45Z</time>
      </trkpt>
      <trkpt lat="46.0516" lon="6.94754">
        <ele>1139</ele>
        <time>2018-05-09T20:12:45Z</time>
      </trkpt>
      <trkpt lat="46.05164" lon="6.94739">
        <ele>1141</ele>
        <time>2018-05-09T20:13:45Z</time>
      </trkpt>
      <trkpt lat="46.05166" lon="6.94722">
        <ele>1143</ele>
        <time>2018-05-09T20:14:45Z</time>
      </trkpt>
      <trkpt lat="46.05167" lon="6.94715">
        <ele>1156</ele>
        <time>2018-05-09T20:15:45Z</time>
      </trkpt>
      <trkpt lat="46.05169" lon="6.9471">
        <ele>1157</ele>
        <time>2018-05-09T20:16:45Z</time>
      </trkpt>
      <trkpt lat="46.05171" lon="6.94709">
        <ele>1157</ele>
        <time>2018-05-09T20:17:45Z</time>
      </trkpt>
      <trkpt lat="46.05173" lon="6.94711">
        <ele>1157</ele>
        <time>2018-05-09T20:18:45Z</time>
      </trkpt>
      <trkpt lat="46.05183" lon="6.94734">
        <ele>1153</ele>
        <time>2018-05-09T20:19:45Z</time>
      </trkpt>
      <trkpt lat="46.05206" lon="6.9476">
        <ele>1145</ele>
        <time>2018-05-09T20:20:45Z</time>
      </trkpt>
      <trkpt lat="46.05215" lon="6.94767">
        <ele>1146</ele>
        <time>2018-05-09T20:21:45Z</time>
      </trkpt>
      <trkpt lat="46.05231" lon="6.94778">
        <ele>1147</ele>
        <time>2018-05-09T20:22:45Z</time>
      </trkpt>
      <trkpt lat="46.0524" lon="6.94785">
        <ele>1146</ele>
        <time>2018-05-09T20:23:45Z</time>
      </trkpt>
      <trkpt lat="46.05274" lon="6.948">
        <ele>1166</ele>
        <time>2018-05-09T20:24:45Z</time>
      </trkpt>
      <trkpt lat="46.05283" lon="6.94803">
        <ele>1168</ele>
        <time>2018-05-09T20:25:45Z</time>
      </trkpt>
      <trkpt lat="46.05309" lon="6.94812">
        <ele>1174</ele>
        <time>2018-05-09T20:26:45Z</time>
      </trkpt>
      <trkpt lat="46.05309" lon="6.94812">
        <ele>1174</ele>
        <time>2018-05-09T20:27:45Z</time>
      </trkpt>
      <trkpt lat="46.05283" lon="6.94803">
        <ele>1168</ele>
        <time>2018-05-09T20:28:45Z</time>
      </trkpt>
      <trkpt lat="46.05274" lon="6.948">
        <ele>1166</ele>
        <time>2018-05-09T20:29:45Z</time>
      </trkpt>
      <trkpt lat="46.0524" lon="6.94785">
        <ele>1146</ele>
        <time>2018-05-09T20:30:45Z</time>
      </trkpt>
      <trkpt lat="46.05231" lon="6.94778">
        <ele>1147</ele>
        <time>2018-05-09T20:31:45Z</time>
      </trkpt>
      <trkpt lat="46.05215" lon="6.94767">
        <ele>1146</ele>
        <time>2018-05-09T20:32:45Z</time>
      </trkpt>
      <trkpt lat="46.05206" lon="6.9476">
        <ele>1145</ele>
        <time>2018-05-09T20:33:45Z</time>
      </trkpt>
      <trkpt lat="46.05183" lon="6.94734">
        <ele>1153</ele>
        <time>2018-05-09T20:34:45Z</time>
      </trkpt>
      <trkpt lat="46.05173" lon="6.94711">
        <ele>1157</ele>
        <time>2018-05-09T20:35:45Z</time>
      </trkpt>
      <trkpt lat="46.05171" lon="6.94709">
        <ele>1157</ele>
        <time>2018-05-09T20:36:45Z</time>
      </trkpt>
      <trkpt lat="46.05169" lon="6.9471">
        <ele>1157</ele>
        <time>2018-05-09T20:37:45Z</time>
      </trkpt>
      <trkpt lat="46.05167" lon="6.94715">
        <ele>1156</ele>
        <time>2018-05-09T20:38:45Z</time>
      </trkpt>
      <trkpt lat="46.05166" lon="6.94722">
        <ele>1143</ele>
        <time>2018-05-09T20:39:45Z</time>
      </trkpt>
      <trkpt lat="46.05164" lon="6.94739">
        <ele>1141</ele>
        <time>2018-05-09T20:40:45Z</time>
      </trkpt>
      <trkpt lat="46.0516" lon="6.94754">
        <ele>1139</ele>
        <time>2018-05-09T20:41:45Z</time>
      </trkpt>
      <trkpt lat="46.05154" lon="6.94771">
        <ele>1137</ele>
        <time>2018-05-09T20:42:45Z</time>
      </trkpt>
      <trkpt lat="46.05153" lon="6.94775">
        <ele>1136</ele>
        <time>2018-05-09T20:43:45Z</time>
      </trkpt>
      <trkpt lat="46.05154" lon="6.94787">
        <ele>1135</ele>
        <time>2018-05-09T20:44:45Z</time>
      </trkpt>
      <trkpt lat="46.0515" lon="6.94811">
        <ele>1133</ele>
        <time>2018-05-09T20:45:45Z</time>
      </trkpt>
      <trkpt lat="46.0515" lon="6.94817">
        <ele>1133</ele>
        <time>2018-05-09T20:46:45Z</time>
      </trkpt>
      <trkpt lat="46.05155" lon="6.94826">
        <ele>1131</ele>
        <time>2018-05-09T20:47:45Z</time>
      </trkpt>
      <trkpt lat="46.05161" lon="6.94833">
        <ele>1129</ele>
        <time>2018-05-09T20:48:45Z</time>
      </trkpt>
      <trkpt lat="46.05166" lon="6.94834">
        <ele>1127</ele>
        <time>2018-05-09T20:49:45Z</time>
      </trkpt>
      <trkpt lat="46.05171" lon="6.94833">
        <ele>1129</ele>
        <time>2018-05-09T20:50:45Z</time>
      </trkpt>
      <trkpt lat="46.05173" lon="6.94833">
        <ele>1130</ele>
        <time>2018-05-09T20:51:45Z</time>
      </trkpt>
      <trkpt lat="46.05181" lon="6.94831">
        <ele>1133</ele>
        <time>2018-05-09T20:52:45Z</time>
      </trkpt>
      <trkpt lat="46.05185" lon="6.9483">
        <ele>1135</ele>
        <time>2018-05-09T20:53:45Z</time>
      </trkpt>
      <trkpt lat="46.0519" lon="6.9483">
        <ele>1136</ele>
        <time>2018-05-09T20:54:45Z</time>
      </trkpt>
      <trkpt lat="46.05199" lon="6.94835">
        <ele>1129</ele>
        <time>2018-05-09T20:55:45Z</time>
      </trkpt>
      <trkpt lat="46.05203" lon="6.94839">
        <ele>1129</ele>
        <time>2018-05-09T20:56:45Z</time>
      </trkpt>
      <trkpt lat="46.05208" lon="6.94846">
        <ele>1129</ele>
        <time>2018-05-09T20:57:45Z</time>
      </trkpt>
      <trkpt lat="46.05204" lon="6.94858">
        <ele>1128</ele>
        <time>2018-05-09T20:58:45Z</time>
      </trkpt>
      <trkpt lat="46.05202" lon="6.94864">
        <ele>1128</ele>
        <time>2018-05-09T20:59:45Z</time>
      </trkpt>
      <trkpt lat="46.05199" lon="6.94868">
        <ele>1127</ele>
        <time>2018-05-09T21:00:45Z</time>
      </trkpt>
      <trkpt lat="46.05191" lon="6.94885">
        <ele>1126</ele>
        <time>2018-05-09T21:01:45Z</time>
      </trkpt>
      <trkpt lat="46.05191" lon="6.94885">
        <ele>1126</ele>
        <time>2018-05-09T21:02:45Z</time>
      </trkpt>
      <trkpt lat="46.05215" lon="6.94918">
        <ele>1123</ele>
        <time>2018-05-09T21:03:45Z</time>
      </trkpt>
      <trkpt lat="46.05266" lon="6.94982">
        <ele>1124</ele>
        <time>2018-05-09T21:04:45Z</time>
      </trkpt>
      <trkpt lat="46.05303" lon="6.95036">
        <ele>1124</ele>
        <time>2018-05-09T21:05:45Z</time>
      </trkpt>
      <trkpt lat="46.0534" lon="6.95097">
        <ele>1120</ele>
        <time>2018-05-09T21:06:45Z</time>
      </trkpt>
      <trkpt lat="46.0536" lon="6.95126">
        <ele>1120</ele>
        <time>2018-05-09T21:07:45Z</time>
      </trkpt>
      <trkpt lat="46.05376" lon="6.95151">
        <ele>1120</ele>
        <time>2018-05-09T21:08:45Z</time>
      </trkpt>
      <trkpt lat="46.05382" lon="6.95159">
        <ele>1121</ele>
        <time>2018-05-09T21:09:45Z</time>
      </trkpt>
      <trkpt lat="46.05427" lon="6.95226">
        <ele>1130</ele>
        <time>2018-05-09T21:10:45Z</time>
      </trkpt>
      <trkpt lat="46.05467" lon="6.95288">
        <ele>1133</ele>
        <time>2018-05-09T21:11:45Z</time>
      </trkpt>
      <trkpt lat="46.05526" lon="6.95378">
        <ele>1134</ele>
        <time>2018-05-09T21:12:45Z</time>
      </trkpt>
      <trkpt lat="46.05546" lon="6.95409">
        <ele>1135</ele>
        <time>2018-05-09T21:13:45Z</time>
      </trkpt>
      <trkpt lat="46.05563" lon="6.95444">
        <ele>1130</ele>
        <time>2018-05-09T21:14:45Z</time>
      </trkpt>
      <trkpt lat="46.05582" lon="6.95496">
        <ele>1131</ele>
        <time>2018-05-09T21:15:45Z</time>
      </trkpt>
      <trkpt lat="46.056" lon="6.95544">
        <ele>1139</ele>
        <time>2018-05-09T21:16:45Z</time>
      </trkpt>
      <trkpt lat="46.05621" lon="6.95585">
        <ele>1130</ele>
        <time>2018-05-09T21:17:45Z</time>
      </trkpt>
      <trkpt lat="46.0565" lon="6.95621">
        <ele>1129</ele>
        <time>2018-05-09T21:18:45Z</time>
      </trkpt>
      <trkpt lat="46.05686" lon="6.95653">
        <ele>1133</ele>
        <time>2018-05-09T21:19:45Z</time>
      </trkpt>
      <trkpt lat="46.05717" lon="6.95682">
        <ele>1122</ele>
        <time>2018-05-09T21:20:45Z</time>
      </trkpt>
      <trkpt lat="46.05761" lon="6.95742">
        <ele>1123</ele>
        <time>2018-05-09T21:21:45Z</time>
      </trkpt>
      <trkpt lat="46.05797" lon="6.95799">
        <ele>1120</ele>
        <time>2018-05-09T21:22:45Z</time>
      </trkpt>
      <trkpt lat="46.05808" lon="6.95819">
        <ele>1119</ele>
        <time>2018-05-09T21:23:45Z</time>
      </trkpt>
      <trkpt lat="46.05814" lon="6.95828">
        <ele>1118</ele>
        <time>2018-05-09T21:24:45Z</time>
      </trkpt>
      <trkpt lat="46.05814" lon="6.95828">
        <ele>1118</ele>
        <time>2018-05-09T21:25:45Z</time>
      </trkpt>
      <trkpt lat="46.05821" lon="6.95838">
        <ele>1116</ele>
        <time>2018-05-09T21:26:45Z</time>
      </trkpt>
      <trkpt lat="46.05828" lon="6.9585">
        <ele>1116</ele>
        <time>2018-05-09T21:27:45Z</time>
      </trkpt>
      <trkpt lat="46.05848" lon="6.95886">
        <ele>1116</ele>
        <time>2018-05-09T21:28:45Z</time>
      </trkpt>
      <trkpt lat="46.05872" lon="6.95943">
        <ele>1114</ele>
        <time>2018-05-09T21:29:45Z</time>
      </trkpt>
      <trkpt lat="46.05881" lon="6.95964">
        <ele>1114</ele>
        <time>2018-05-09T21:30:45Z</time>
      </trkpt>
      <trkpt lat="46.05904" lon="6.96029">
        <ele>1117</ele>
        <time>2018-05-09T21:31:45Z</time>
      </trkpt>
      <trkpt lat="46.05929" lon="6.96106">
        <ele>1115</ele>
        <time>2018-05-09T21:32:45Z</time>
      </trkpt>
      <trkpt lat="46.05943" lon="6.96141">
        <ele>1117</ele>
        <time>2018-05-09T21:33:45Z</time>
      </trkpt>
      <trkpt lat="46.05957" lon="6.96164">
        <ele>1116</ele>
        <time>2018-05-09T21:34:45Z</time>
      </trkpt>
      <trkpt lat="46.06004" lon="6.96219">
        <ele>1109</ele>
        <time>2018-05-09T21:35:45Z</time>
      </trkpt>
      <trkpt lat="46.06035" lon="6.96263">
        <ele>1108</ele>
        <time>2018-05-09T21:36:45Z</time>
      </trkpt>
      <trkpt lat="46.06063" lon="6.96312">
        <ele>1107</ele>
        <time>2018-05-09T21:37:45Z</time>
      </trkpt>
      <trkpt lat="46.06065" lon="6.96315">
        <ele>1107</ele>
        <time>2018-05-09T21:38:45Z</time>
      </trkpt>
      <trkpt lat="46.06082" lon="6.96343">
        <ele>1109</ele>
        <time>2018-05-09T21:39:45Z</time>
      </trkpt>
      <trkpt lat="46.06122" lon="6.96408">
        <ele>1104</ele>
        <time>2018-05-09T21:40:45Z</time>
      </trkpt>
      <trkpt lat="46.06155" lon="6.96444">
        <ele>1119</ele>
        <time>2018-05-09T21:41:45Z</time>
      </trkpt>
      <trkpt lat="46.06155" lon="6.96444">
        <ele>1119</ele>
        <time>2018-05-09T21:42:45Z</time>
      </trkpt>
      <trkpt lat="46.06161" lon="6.96454">
        <ele>1122</ele>
        <time>2018-05-09T21:43:45Z</time>
      </trkpt>
      <trkpt lat="46.06168" lon="6.96461">
        <ele>1110</ele>
        <time>2018-05-09T21:44:45Z</time>
      </trkpt>
      <trkpt lat="46.06218" lon="6.965">
        <ele>1113</ele>
        <time>2018-05-09T21:45:45Z</time>
      </trkpt>
      <trkpt lat="46.06244" lon="6.96514">
        <ele>1130</ele>
        <time>2018-05-09T21:46:45Z</time>
      </trkpt>
      <trkpt lat="46.06271" lon="6.96529">
        <ele>1128</ele>
        <time>2018-05-09T21:47:45Z</time>
      </trkpt>
      <trkpt lat="46.06343" lon="6.96558">
        <ele>1123</ele>
        <time>2018-05-09T21:48:45Z</time>
      </trkpt>
      <trkpt lat="46.06393" lon="6.96584">
        <ele>1143</ele>
        <time>2018-05-09T21:49:45Z</time>
      </trkpt>
      <trkpt lat="46.06437" lon="6.96613">
        <ele>1131</ele>
        <time>2018-05-09T21:50:45Z</time>
      </trkpt>
      <trkpt lat="46.06486" lon="6.96655">
        <ele>1137</ele>
        <time>2018-05-09T21:51:45Z</time>
      </trkpt>
      <trkpt lat="46.06548" lon="6.96713">
        <ele>1151</ele>
        <time>2018-05-09T21:52:45Z</time>
      </trkpt>
      <trkpt lat="46.06588" lon="6.96745">
        <ele>1155</ele>
        <time>2018-05-09T21:53:45Z</time>
      </trkpt>
      <trkpt lat="46.06615" lon="6.9677">
        <ele>1170</ele>
        <time>2018-05-09T21:54:45Z</time>
      </trkpt>
      <trkpt lat="46.06674" lon="6.96812">
        <ele>1153</ele>
        <time>2018-05-09T21:55:45Z</time>
      </trkpt>
      <trkpt lat="46.0672" lon="6.96846">
        <ele>1169</ele>
        <time>2018-05-09T21:56:45Z</time>
      </trkpt>
      <trkpt lat="46.06743" lon="6.9687">
        <ele>1171</ele>
        <time>2018-05-09T21:57:45Z</time>
      </trkpt>
      <trkpt lat="46.06762" lon="6.969">
        <ele>1157</ele>
        <time>2018-05-09T21:58:45Z</time>
      </trkpt>
      <trkpt lat="46.06764" lon="6.96904">
        <ele>1158</ele>
        <time>2018-05-09T21:59:45Z</time>
      </trkpt>
      <trkpt lat="46.06789" lon="6.96954">
        <ele>1176</ele>
        <time>2018-05-09T22:00:45Z</time>
      </trkpt>
      <trkpt lat="46.06811" lon="6.97007">
        <ele>1202</ele>
        <time>2018-05-09T22:01:45Z</time>
      </trkpt>
      <trkpt lat="46.06816" lon="6.9702">
        <ele>1205</ele>
        <time>2018-05-09T22:02:45Z</time>
      </trkpt>
      <trkpt lat="46.06878" lon="6.9716">
        <ele>1232</ele>
        <time>2018-05-09T22:03:45Z</time>
      </trkpt>
      <trkpt lat="46.06921" lon="6.9725">
        <ele>1266</ele>
        <time>2018-05-09T22:04:45Z</time>
      </trkpt>
      <trkpt lat="46.06958" lon="6.97333">
        <ele>1231</ele>
        <time>2018-05-09T22:05:45Z</time>
      </trkpt>
      <trkpt lat="46.06979" lon="6.9736">
        <ele>1237</ele>
        <time>2018-05-09T22:06:45Z</time>
      </trkpt>
      <trkpt lat="46.07017" lon="6.9739">
        <ele>1192</ele>
        <time>2018-05-09T22:07:45Z</time>
      </trkpt>
      <trkpt lat="46.07062" lon="6.97417">
        <ele>1201</ele>
        <time>2018-05-09T22:08:45Z</time>
      </trkpt>
      <trkpt lat="46.07095" lon="6.97446">
        <ele>1180</ele>
        <time>2018-05-09T22:09:45Z</time>
      </trkpt>
      <trkpt lat="46.07121" lon="6.97475">
        <ele>1182</ele>
        <time>2018-05-09T22:10:45Z</time>
      </trkpt>
      <trkpt lat="46.07125" lon="6.97483">
        <ele>1183</ele>
        <time>2018-05-09T22:11:45Z</time>
      </trkpt>
      <trkpt lat="46.07129" lon="6.97494">
        <ele>1184</ele>
        <time>2018-05-09T22:12:45Z</time>
      </trkpt>
      <trkpt lat="46.07138" lon="6.97521">
        <ele>1203</ele>
        <time>2018-05-09T22:13:45Z</time>
      </trkpt>
      <trkpt lat="46.07145" lon="6.97553">
        <ele>1206</ele>
        <time>2018-05-09T22:14:45Z</time>
      </trkpt>
      <trkpt lat="46.07146" lon="6.97581">
        <ele>1206</ele>
        <time>2018-05-09T22:15:45Z</time>
      </trkpt>
      <trkpt lat="46.07145" lon="6.97602">
        <ele>1208</ele>
        <time>2018-05-09T22:16:45Z</time>
      </trkpt>
      <trkpt lat="46.07137" lon="6.97648">
        <ele>1204</ele>
        <time>2018-05-09T22:17:45Z</time>
      </trkpt>
      <trkpt lat="46.07125" lon="6.97679">
        <ele>1193</ele>
        <time>2018-05-09T22:18:45Z</time>
      </trkpt>
      <trkpt lat="46.07107" lon="6.97713">
        <ele>1196</ele>
        <time>2018-05-09T22:19:45Z</time>
      </trkpt>
      <trkpt lat="46.07079" lon="6.9775">
        <ele>1218</ele>
        <time>2018-05-09T22:20:45Z</time>
      </trkpt>
      <trkpt lat="46.07038" lon="6.97792">
        <ele>1237</ele>
        <time>2018-05-09T22:21:45Z</time>
      </trkpt>
      <trkpt lat="46.07013" lon="6.97823">
        <ele>1239</ele>
        <time>2018-05-09T22:22:45Z</time>
      </trkpt>
      <trkpt lat="46.06999" lon="6.97849">
        <ele>1248</ele>
        <time>2018-05-09T22:23:45Z</time>
      </trkpt>
      <trkpt lat="46.06999" lon="6.97849">
        <ele>1248</ele>
        <time>2018-05-09T22:24:45Z</time>
      </trkpt>
      <trkpt lat="46.06978" lon="6.97897">
        <ele>1237</ele>
        <time>2018-05-09T22:25:45Z</time>
      </trkpt>
      <trkpt lat="46.06954" lon="6.97954">
        <ele>1219</ele>
        <time>2018-05-09T22:26:45Z</time>
      </trkpt>
      <trkpt lat="46.06929" lon="6.98009">
        <ele>1216</ele>
        <time>2018-05-09T22:27:45Z</time>
      </trkpt>
      <trkpt lat="46.06902" lon="6.98057">
        <ele>1236</ele>
        <time>2018-05-09T22:28:45Z</time>
      </trkpt>
      <trkpt lat="46.06873" lon="6.98101">
        <ele>1226</ele>
        <time>2018-05-09T22:29:45Z</time>
      </trkpt>
      <trkpt lat="46.06856" lon="6.98134">
        <ele>1227</ele>
        <time>2018-05-09T22:30:45Z</time>
      </trkpt>
      <trkpt lat="46.06825" lon="6.98194">
        <ele>1246</ele>
        <time>2018-05-09T22:31:45Z</time>
      </trkpt>
      <trkpt lat="46.06808" lon="6.98232">
        <ele>1243</ele>
        <time>2018-05-09T22:32:45Z</time>
      </trkpt>
      <trkpt lat="46.06787" lon="6.98282">
        <ele>1237</ele>
        <time>2018-05-09T22:33:45Z</time>
      </trkpt>
      <trkpt lat="46.0677" lon="6.98326">
        <ele>1237</ele>
        <time>2018-05-09T22:34:45Z</time>
      </trkpt>
      <trkpt lat="46.06751" lon="6.98377">
        <ele>1229</ele>
        <time>2018-05-09T22:35:45Z</time>
      </trkpt>
      <trkpt lat="46.06749" lon="6.98383">
        <ele>1253</ele>
        <time>2018-05-09T22:36:45Z</time>
      </trkpt>
      <trkpt lat="46.06724" lon="6.98436">
        <ele>1246</ele>
        <time>2018-05-09T22:37:45Z</time>
      </trkpt>
      <trkpt lat="46.06708" lon="6.9846">
        <ele>1250</ele>
        <time>2018-05-09T22:38:45Z</time>
      </trkpt>
      <trkpt lat="46.06674" lon="6.98508">
        <ele>1248</ele>
        <time>2018-05-09T22:39:45Z</time>
      </trkpt>
      <trkpt lat="46.06653" lon="6.98539">
        <ele>1266</ele>
        <time>2018-05-09T22:40:45Z</time>
      </trkpt>
      <trkpt lat="46.06631" lon="6.98578">
        <ele>1268</ele>
        <time>2018-05-09T22:41:45Z</time>
      </trkpt>
      <trkpt lat="46.06613" lon="6.98613">
        <ele>1266</ele>
        <time>2018-05-09T22:42:45Z</time>
      </trkpt>
      <trkpt lat="46.066" lon="6.98646">
        <ele>1264</ele>
        <time>2018-05-09T22:43:45Z</time>
      </trkpt>
      <trkpt lat="46.06576" lon="6.98696">
        <ele>1276</ele>
        <time>2018-05-09T22:44:45Z</time>
      </trkpt>
      <trkpt lat="46.06541" lon="6.9877">
        <ele>1268</ele>
        <time>2018-05-09T22:45:45Z</time>
      </trkpt>
      <trkpt lat="46.06534" lon="6.98784">
        <ele>1268</ele>
        <time>2018-05-09T22:46:45Z</time>
      </trkpt>
      <trkpt lat="46.06507" lon="6.98833">
        <ele>1260</ele>
        <time>2018-05-09T22:47:45Z</time>
      </trkpt>
      <trkpt lat="46.06481" lon="6.98866">
        <ele>1267</ele>
        <time>2018-05-09T22:48:45Z</time>
      </trkpt>
      <trkpt lat="46.06449" lon="6.98892">
        <ele>1270</ele>
        <time>2018-05-09T22:49:45Z</time>
      </trkpt>
      <trkpt lat="46.06427" lon="6.98907">
        <ele>1269</ele>
        <time>2018-05-09T22:50:45Z</time>
      </trkpt>
      <trkpt lat="46.06311" lon="6.98985">
        <ele>1281</ele>
        <time>2018-05-09T22:51:45Z</time>
      </trkpt>
      <trkpt lat="46.0623" lon="6.99051">
        <ele>1287</ele>
        <time>2018-05-09T22:52:45Z</time>
      </trkpt>
      <trkpt lat="46.06157" lon="6.99132">
        <ele>1296</ele>
        <time>2018-05-09T22:53:45Z</time>
      </trkpt>
      <trkpt lat="46.06103" lon="6.99201">
        <ele>1286</ele>
        <time>2018-05-09T22:54:45Z</time>
      </trkpt>
      <trkpt lat="46.06076" lon="6.99237">
        <ele>1283</ele>
        <time>2018-05-09T22:55:45Z</time>
      </trkpt>
      <trkpt lat="46.06065" lon="6.99251">
        <ele>1277</ele>
        <time>2018-05-09T22:56:45Z</time>
      </trkpt>
      <trkpt lat="46.06037" lon="6.99285">
        <ele>1281</ele>
        <time>2018-05-09T22:57:45Z</time>
      </trkpt>
      <trkpt lat="46.06014" lon="6.993">
        <ele>1280</ele>
        <time>2018-05-09T22:58:45Z</time>
      </trkpt>
      <trkpt lat="46.05977" lon="6.99315">
        <ele>1285</ele>
        <time>2018-05-09T22:59:45Z</time>
      </trkpt>
      <trkpt lat="46.05949" lon="6.99325">
        <ele>1287</ele>
        <time>2018-05-09T23:00:45Z</time>
      </trkpt>
      <trkpt lat="46.05933" lon="6.99333">
        <ele>1286</ele>
        <time>2018-05-09T23:01:45Z</time>
      </trkpt>
      <trkpt lat="46.05913" lon="6.9935">
        <ele>1283</ele>
        <time>2018-05-09T23:02:45Z</time>
      </trkpt>
      <trkpt lat="46.05895" lon="6.9937">
        <ele>1283</ele>
        <time>2018-05-09T23:03:45Z</time>
      </trkpt>
      <trkpt lat="46.05873" lon="6.99392">
        <ele>1283</ele>
        <time>2018-05-09T23:04:45Z</time>
      </trkpt>
      <trkpt lat="46.05868" lon="6.99398">
        <ele>1283</ele>
        <time>2018-05-09T23:05:45Z</time>
      </trkpt>
      <trkpt lat="46.05838" lon="6.9943">
        <ele>1280</ele>
        <time>2018-05-09T23:06:45Z</time>
      </trkpt>
      <trkpt lat="46.05822" lon="6.99446">
        <ele>1281</ele>
        <time>2018-05-09T23:07:45Z</time>
      </trkpt>
      <trkpt lat="46.05784" lon="6.99485">
        <ele>1283</ele>
        <time>2018-05-09T23:08:45Z</time>
      </trkpt>
      <trkpt lat="46.05735" lon="6.99538">
        <ele>1295</ele>
        <time>2018-05-09T23:09:45Z</time>
      </trkpt>
      <trkpt lat="46.05697" lon="6.99578">
        <ele>1296</ele>
        <time>2018-05-09T23:10:45Z</time>
      </trkpt>
      <trkpt lat="46.05674" lon="6.99598">
        <ele>1300</ele>
        <time>2018-05-09T23:11:45Z</time>
      </trkpt>
      <trkpt lat="46.05662" lon="6.99604">
        <ele>1302</ele>
        <time>2018-05-09T23:12:45Z</time>
      </trkpt>
      <trkpt lat="46.05649" lon="6.99608">
        <ele>1303</ele>
        <time>2018-05-09T23:13:45Z</time>
      </trkpt>
      <trkpt lat="46.05598" lon="6.99602">
        <ele>1307</ele>
        <time>2018-05-09T23:14:45Z</time>
      </trkpt>
      <trkpt lat="46.05567" lon="6.99604">
        <ele>1312</ele>
        <time>2018-05-09T23:15:45Z</time>
      </trkpt>
      <trkpt lat="46.05543" lon="6.99614">
        <ele>1314</ele>
        <time>2018-05-09T23:16:45Z</time>
      </trkpt>
      <trkpt lat="46.05512" lon="6.99626">
        <ele>1315</ele>
        <time>2018-05-09T23:17:45Z</time>
      </trkpt>
      <trkpt lat="46.0549" lon="6.99631">
        <ele>1320</ele>
        <time>2018-05-09T23:18:45Z</time>
      </trkpt>
      <trkpt lat="46.05471" lon="6.99632">
        <ele>1321</ele>
        <time>2018-05-09T23:19:45Z</time>
      </trkpt>
      <trkpt lat="46.05439" lon="6.99627">
        <ele>1322</ele>
        <time>2018-05-09T23:20:45Z</time>
      </trkpt>
      <trkpt lat="46.05403" lon="6.9962">
        <ele>1328</ele>
        <time>2018-05-09T23:21:45Z</time>
      </trkpt>
      <trkpt lat="46.05366" lon="6.99613">
        <ele>1329</ele>
        <time>2018-05-09T23:22:45Z</time>
      </trkpt>
      <trkpt lat="46.0531" lon="6.99601">
        <ele>1332</ele>
        <time>2018-05-09T23:23:45Z</time>
      </trkpt>
      <trkpt lat="46.05274" lon="6.99601">
        <ele>1332</ele>
        <time>2018-05-09T23:24:45Z</time>
      </trkpt>
      <trkpt lat="46.05245" lon="6.99612">
        <ele>1332</ele>
        <time>2018-05-09T23:25:45Z</time>
      </trkpt>
      <trkpt lat="46.05213" lon="6.99634">
        <ele>1336</ele>
        <time>2018-05-09T23:26:45Z</time>
      </trkpt>
      <trkpt lat="46.05182" lon="6.99658">
        <ele>1341</ele>
        <time>2018-05-09T23:27:45Z</time>
      </trkpt>
      <trkpt lat="46.05164" lon="6.99671">
        <ele>1351</ele>
        <time>2018-05-09T23:28:45Z</time>
      </trkpt>
      <trkpt lat="46.05153" lon="6.99678">
        <ele>1357</ele>
        <time>2018-05-09T23:29:45Z</time>
      </trkpt>
      <trkpt lat="46.0513" lon="6.99688">
        <ele>1363</ele>
        <time>2018-05-09T23:30:45Z</time>
      </trkpt>
      <trkpt lat="46.05097" lon="6.9969">
        <ele>1362</ele>
        <time>2018-05-09T23:31:45Z</time>
      </trkpt>
      <trkpt lat="46.0506" lon="6.99685">
        <ele>1367</ele>
        <time>2018-05-09T23:32:45Z</time>
      </trkpt>
      <trkpt lat="46.05037" lon="6.99679">
        <ele>1370</ele>
        <time>2018-05-09T23:33:45Z</time>
      </trkpt>
      <trkpt lat="46.0502" lon="6.99676">
        <ele>1369</ele>
        <time>2018-05-09T23:34:45Z</time>
      </trkpt>
      <trkpt lat="46.0501" lon="6.99681">
        <ele>1369</ele>
        <time>2018-05-09T23:35:45Z</time>
      </trkpt>
      <trkpt lat="46.04995" lon="6.99688">
        <ele>1374</ele>
        <time>2018-05-09T23:36:45Z</time>
      </trkpt>
      <trkpt lat="46.04973" lon="6.99703">
        <ele>1381</ele>
        <time>2018-05-09T23:37:45Z</time>
      </trkpt>
      <trkpt lat="46.04952" lon="6.99712">
        <ele>1384</ele>
        <time>2018-05-09T23:38:45Z</time>
      </trkpt>
      <trkpt lat="46.04924" lon="6.99715">
        <ele>1386</ele>
        <time>2018-05-09T23:39:45Z</time>
      </trkpt>
      <trkpt lat="46.04886" lon="6.99709">
        <ele>1384</ele>
        <time>2018-05-09T23:40:45Z</time>
      </trkpt>
      <trkpt lat="46.04851" lon="6.99711">
        <ele>1384</ele>
        <time>2018-05-09T23:41:45Z</time>
      </trkpt>
      <trkpt lat="46.04826" lon="6.99717">
        <ele>1387</ele>
        <time>2018-05-09T23:42:45Z</time>
      </trkpt>
      <trkpt lat="46.04784" lon="6.99726">
        <ele>1389</ele>
        <time>2018-05-09T23:43:45Z</time>
      </trkpt>
      <trkpt lat="46.0476" lon="6.99727">
        <ele>1393</ele>
        <time>2018-05-09T23:44:45Z</time>
      </trkpt>
      <trkpt lat="46.04712" lon="6.99723">
        <ele>1390</ele>
        <time>2018-05-09T23:45:45Z</time>
      </trkpt>
      <trkpt lat="46.04681" lon="6.99725">
        <ele>1393</ele>
        <time>2018-05-09T23:46:45Z</time>
      </trkpt>
      <trkpt lat="46.04658" lon="6.99731">
        <ele>1395</ele>
        <time>2018-05-09T23:47:45Z</time>
      </trkpt>
      <trkpt lat="46.04635" lon="6.99735">
        <ele>1392</ele>
        <time>2018-05-09T23:48:45Z</time>
      </trkpt>
      <trkpt lat="46.04624" lon="6.99738">
        <ele>1391</ele>
        <time>2018-05-09T23:49:45Z</time>
      </trkpt>
      <trkpt lat="46.04612" lon="6.9974">
        <ele>1392</ele>
        <time>2018-05-09T23:50:45Z</time>
      </trkpt>
      <trkpt lat="46.04558" lon="6.99752">
        <ele>1412</ele>
        <time>2018-05-09T23:51:45Z</time>
      </trkpt>
      <trkpt lat="46.04547" lon="6.99753">
        <ele>1413</ele>
        <time>2018-05-09T23:52:45Z</time>
      </trkpt>
      <trkpt lat="46.04535" lon="6.99751">
        <ele>1413</ele>
        <time>2018-05-09T23:53:45Z</time>
      </trkpt>
      <trkpt lat="46.04534" lon="6.9975">
        <ele>1391</ele>
        <time>2018-05-09T23:54:45Z</time>
      </trkpt>
      <trkpt lat="46.04525" lon="6.99748">
        <ele>1392</ele>
        <time>2018-05-09T23:55:45Z</time>
      </trkpt>
      <trkpt lat="46.04512" lon="6.99746">
        <ele>1395</ele>
        <time>2018-05-09T23:56:45Z</time>
      </trkpt>
      <trkpt lat="46.04507" lon="6.9975">
        <ele>1397</ele>
        <time>2018-05-09T23:57:45Z</time>
      </trkpt>
      <trkpt lat="46.04502" lon="6.99758">
        <ele>1406</ele>
        <time>2018-05-09T23:58:45Z</time>
      </trkpt>
      <trkpt lat="46.04502" lon="6.99765">
        <ele>1410</ele>
        <time>2018-05-09T23:59:45Z</time>
      </trkpt>
      <trkpt lat="46.04503" lon="6.99773">
        <ele>1413</ele>
        <time>2018-05-10T00:00:45Z</time>
      </trkpt>
      <trkpt lat="46.04507" lon="6.99778">
        <ele>1416</ele>
        <time>2018-05-10T00:01:45Z</time>
      </trkpt>
      <trkpt lat="46.04517" lon="6.99781">
        <ele>1417</ele>
        <time>2018-05-10T00:02:45Z</time>
      </trkpt>
      <trkpt lat="46.04582" lon="6.99766">
        <ele>1411</ele>
        <time>2018-05-10T00:03:45Z</time>
      </trkpt>
      <trkpt lat="46.04628" lon="6.99766">
        <ele>1420</ele>
        <time>2018-05-10T00:04:45Z</time>
      </trkpt>
      <trkpt lat="46.04692" lon="6.99776">
        <ele>1427</ele>
        <time>2018-05-10T00:05:45Z</time>
      </trkpt>
      <trkpt lat="46.047" lon="6.99779">
        <ele>1429</ele>
        <time>2018-05-10T00:06:45Z</time>
      </trkpt>
      <trkpt lat="46.04766" lon="6.998">
        <ele>1435</ele>
        <time>2018-05-10T00:07:45Z</time>
      </trkpt>
      <trkpt lat="46.04833" lon="6.99825">
        <ele>1444</ele>
        <time>2018-05-10T00:08:45Z</time>
      </trkpt>
      <trkpt lat="46.04862" lon="6.99837">
        <ele>1462</ele>
        <time>2018-05-10T00:09:45Z</time>
      </trkpt>
      <trkpt lat="46.04898" lon="6.99854">
        <ele>1461</ele>
        <time>2018-05-10T00:10:45Z</time>
      </trkpt>
      <trkpt lat="46.04899" lon="6.99854">
        <ele>1461</ele>
        <time>2018-05-10T00:11:45Z</time>
      </trkpt>
      <trkpt lat="46.04914" lon="6.99856">
        <ele>1459</ele>
        <time>2018-05-10T00:12:45Z</time>
      </trkpt>
      <trkpt lat="46.04936" lon="6.99852">
        <ele>1455</ele>
        <time>2018-05-10T00:13:45Z</time>
      </trkpt>
      <trkpt lat="46.04952" lon="6.99847">
        <ele>1455</ele>
        <time>2018-05-10T00:14:45Z</time>
      </trkpt>
      <trkpt lat="46.04969" lon="6.99846">
        <ele>1454</ele>
        <time>2018-05-10T00:15:45Z</time>
      </trkpt>
      <trkpt lat="46.0499" lon="6.99865">
        <ele>1457</ele>
        <time>2018-05-10T00:16:45Z</time>
      </trkpt>
      <trkpt lat="46.05006" lon="6.99884">
        <ele>1460</ele>
        <time>2018-05-10T00:17:45Z</time>
      </trkpt>
      <trkpt lat="46.05016" lon="6.9989">
        <ele>1462</ele>
        <time>2018-05-10T00:18:45Z</time>
      </trkpt>
      <trkpt lat="46.05027" lon="6.99892">
        <ele>1461</ele>
        <time>2018-05-10T00:19:45Z</time>
      </trkpt>
      <trkpt lat="46.05038" lon="6.9989">
        <ele>1460</ele>
        <time>2018-05-10T00:20:45Z</time>
      </trkpt>
      <trkpt lat="46.05048" lon="6.99888">
        <ele>1460</ele>
        <time>2018-05-10T00:21:45Z</time>
      </trkpt>
      <trkpt lat="46.05064" lon="6.99884">
        <ele>1459</ele>
        <time>2018-05-10T00:22:45Z</time>
      </trkpt>
      <trkpt lat="46.05085" lon="6.99883">
        <ele>1455</ele>
        <time>2018-05-10T00:23:45Z</time>
      </trkpt>
      <trkpt lat="46.05109" lon="6.99897">
        <ele>1457</ele>
        <time>2018-05-10T00:24:45Z</time>
      </trkpt>
      <trkpt lat="46.05138" lon="6.99923">
        <ele>1483</ele>
        <time>2018-05-10T00:25:45Z</time>
      </trkpt>
      <trkpt lat="46.0515" lon="6.99931">
        <ele>1481</ele>
        <time>2018-05-10T00:26:45Z</time>
      </trkpt>
      <trkpt lat="46.05162" lon="6.9994">
        <ele>1483</ele>
        <time>2018-05-10T00:27:45Z</time>
      </trkpt>
      <trkpt lat="46.05174" lon="6.99947">
        <ele>1481</ele>
        <time>2018-05-10T00:28:45Z</time>
      </trkpt>
      <trkpt lat="46.05197" lon="6.99959">
        <ele>1485</ele>
        <time>2018-05-10T00:29:45Z</time>
      </trkpt>
      <trkpt lat="46.05221" lon="6.99965">
        <ele>1485</ele>
        <time>2018-05-10T00:30:45Z</time>
      </trkpt>
      <trkpt lat="46.05253" lon="6.99968">
        <ele>1484</ele>
        <time>2018-05-10T00:31:45Z</time>
      </trkpt>
      <trkpt lat="46.0529" lon="6.99967">
        <ele>1483</ele>
        <time>2018-05-10T00:32:45Z</time>
      </trkpt>
      <trkpt lat="46.05319" lon="6.99963">
        <ele>1482</ele>
        <time>2018-05-10T00:33:45Z</time>
      </trkpt>
      <trkpt lat="46.05354" lon="6.99973">
        <ele>1482</ele>
        <time>2018-05-10T00:34:45Z</time>
      </trkpt>
      <trkpt lat="46.05391" lon="6.99987">
        <ele>1482</ele>
        <time>2018-05-10T00:35:45Z</time>
      </trkpt>
      <trkpt lat="46.0543" lon="6.99992">
        <ele>1483</ele>
        <time>2018-05-10T00:36:45Z</time>
      </trkpt>
      <trkpt lat="46.05495" lon="6.99995">
        <ele>1490</ele>
        <time>2018-05-10T00:37:45Z</time>
      </trkpt>
      <trkpt lat="46.05527" lon="6.99987">
        <ele>1484</ele>
        <time>2018-05-10T00:38:45Z</time>
      </trkpt>
      <trkpt lat="46.05573" lon="6.99986">
        <ele>1491</ele>
        <time>2018-05-10T00:39:45Z</time>
      </trkpt>
      <trkpt lat="46.05656" lon="6.99987">
        <ele>1501</ele>
        <time>2018-05-10T00:40:45Z</time>
      </trkpt>
      <trkpt lat="46.05672" lon="6.99986">
        <ele>1506</ele>
        <time>2018-05-10T00:41:45Z</time>
      </trkpt>
      <trkpt lat="46.05751" lon="6.99983">
        <ele>1513</ele>
        <time>2018-05-10T00:42:45Z</time>
      </trkpt>
      <trkpt lat="46.05772" lon="6.99983">
        <ele>1514</ele>
        <time>2018-05-10T00:43:45Z</time>
      </trkpt>
      <trkpt lat="46.05788" lon="6.99974">
        <ele>1514</ele>
        <time>2018-05-10T00:44:45Z</time>
      </trkpt>
      <trkpt lat="46.05805" lon="6.99958">
        <ele>1513</ele>
        <time>2018-05-10T00:45:45Z</time>
      </trkpt>
      <trkpt lat="46.05814" lon="6.99951">
        <ele>1512</ele>
        <time>2018-05-10T00:46:45Z</time>
      </trkpt>
      <trkpt lat="46.05815" lon="6.9995">
        <ele>1512</ele>
        <time>2018-05-10T00:47:45Z</time>
      </trkpt>
      <trkpt lat="46.05816" lon="6.99949">
        <ele>1511</ele>
        <time>2018-05-10T00:48:45Z</time>
      </trkpt>
      <trkpt lat="46.05817" lon="6.99949">
        <ele>1512</ele>
        <time>2018-05-10T00:49:45Z</time>
      </trkpt>
      <trkpt lat="46.05818" lon="6.99949">
        <ele>1512</ele>
        <time>2018-05-10T00:50:45Z</time>
      </trkpt>
      <trkpt lat="46.0582" lon="6.99949">
        <ele>1512</ele>
        <time>2018-05-10T00:51:45Z</time>
      </trkpt>
      <trkpt lat="46.05821" lon="6.99949">
        <ele>1512</ele>
        <time>2018-05-10T00:52:45Z</time>
      </trkpt>
      <trkpt lat="46.05822" lon="6.99949">
        <ele>1512</ele>
        <time>2018-05-10T00:53:45Z</time>
      </trkpt>
      <trkpt lat="46.05823" lon="6.99949">
        <ele>1512</ele>
        <time>2018-05-10T00:54:45Z</time>
      </trkpt>
      <trkpt lat="46.05824" lon="6.9995">
        <ele>1512</ele>
        <time>2018-05-10T00:55:45Z</time>
      </trkpt>
      <trkpt lat="46.05825" lon="6.99951">
        <ele>1512</ele>
        <time>2018-05-10T00:56:45Z</time>
      </trkpt>
      <trkpt lat="46.05826" lon="6.99954">
        <ele>1513</ele>
        <time>2018-05-10T00:57:45Z</time>
      </trkpt>
      <trkpt lat="46.05827" lon="6.99955">
        <ele>1513</ele>
        <time>2018-05-10T00:58:45Z</time>
      </trkpt>
      <trkpt lat="46.05828" lon="6.99958">
        <ele>1514</ele>
        <time>2018-05-10T00:59:45Z</time>
      </trkpt>
      <trkpt lat="46.05828" lon="6.9996">
        <ele>1515</ele>
        <time>2018-05-10T01:00:45Z</time>
      </trkpt>
      <trkpt lat="46.05828" lon="6.99963">
        <ele>1516</ele>
        <time>2018-05-10T01:01:45Z</time>
      </trkpt>
      <trkpt lat="46.05828" lon="6.99965">
        <ele>1516</ele>
        <time>2018-05-10T01:02:45Z</time>
      </trkpt>
      <trkpt lat="46.05828" lon="6.99967">
        <ele>1517</ele>
        <time>2018-05-10T01:03:45Z</time>
      </trkpt>
      <trkpt lat="46.05828" lon="6.99969">
        <ele>1518</ele>
        <time>2018-05-10T01:04:45Z</time>
      </trkpt>
      <trkpt lat="46.05828" lon="6.99971">
        <ele>1518</ele>
        <time>2018-05-10T01:05:45Z</time>
      </trkpt>
      <trkpt lat="46.05827" lon="6.99973">
        <ele>1519</ele>
        <time>2018-05-10T01:06:45Z</time>
      </trkpt>
      <trkpt lat="46.05826" lon="6.99976">
        <ele>1520</ele>
        <time>2018-05-10T01:07:45Z</time>
      </trkpt>
      <trkpt lat="46.0582" lon="6.99994">
        <ele>1525</ele>
        <time>2018-05-10T01:08:45Z</time>
      </trkpt>
      <trkpt lat="46.05808" lon="7.00023">
        <ele>1531</ele>
        <time>2018-05-10T01:09:45Z</time>
      </trkpt>
      <trkpt lat="46.05797" lon="7.00052">
        <ele>1530</ele>
        <time>2018-05-10T01:10:45Z</time>
      </trkpt>
      <trkpt lat="46.05784" lon="7.00085">
        <ele>1533</ele>
        <time>2018-05-10T01:11:45Z</time>
      </trkpt>
      <trkpt lat="46.05775" lon="7.00106">
        <ele>1533</ele>
        <time>2018-05-10T01:12:45Z</time>
      </trkpt>
      <trkpt lat="46.05773" lon="7.00119">
        <ele>1533</ele>
        <time>2018-05-10T01:13:45Z</time>
      </trkpt>
      <trkpt lat="46.05772" lon="7.00126">
        <ele>1534</ele>
        <time>2018-05-10T01:14:45Z</time>
      </trkpt>
      <trkpt lat="46.05773" lon="7.00133">
        <ele>1534</ele>
        <time>2018-05-10T01:15:45Z</time>
      </trkpt>
      <trkpt lat="46.05773" lon="7.00138">
        <ele>1534</ele>
        <time>2018-05-10T01:16:45Z</time>
      </trkpt>
      <trkpt lat="46.05774" lon="7.00142">
        <ele>1534</ele>
        <time>2018-05-10T01:17:45Z</time>
      </trkpt>
      <trkpt lat="46.05775" lon="7.00146">
        <ele>1534</ele>
        <time>2018-05-10T01:18:45Z</time>
      </trkpt>
      <trkpt lat="46.05777" lon="7.00151">
        <ele>1534</ele>
        <time>2018-05-10T01:19:45Z</time>
      </trkpt>
      <trkpt lat="46.05779" lon="7.00154">
        <ele>1534</ele>
        <time>2018-05-10T01:20:45Z</time>
      </trkpt>
      <trkpt lat="46.05782" lon="7.00157">
        <ele>1534</ele>
        <time>2018-05-10T01:21:45Z</time>
      </trkpt>
      <trkpt lat="46.05785" lon="7.00161">
        <ele>1534</ele>
        <time>2018-05-10T01:22:45Z</time>
      </trkpt>
      <trkpt lat="46.058" lon="7.00173">
        <ele>1530</ele>
        <time>2018-05-10T01:23:45Z</time>
      </trkpt>
      <trkpt lat="46.05816" lon="7.00185">
        <ele>1530</ele>
        <time>2018-05-10T01:24:45Z</time>
      </trkpt>
      <trkpt lat="46.0582" lon="7.00188">
        <ele>1529</ele>
        <time>2018-05-10T01:25:45Z</time>
      </trkpt>
      <trkpt lat="46.05848" lon="7.0021">
        <ele>1537</ele>
        <time>2018-05-10T01:26:45Z</time>
      </trkpt>
      <trkpt lat="46.05871" lon="7.00234">
        <ele>1539</ele>
        <time>2018-05-10T01:27:45Z</time>
      </trkpt>
      <trkpt lat="46.0588" lon="7.00245">
        <ele>1541</ele>
        <time>2018-05-10T01:28:45Z</time>
      </trkpt>
      <trkpt lat="46.05882" lon="7.00246">
        <ele>1541</ele>
        <time>2018-05-10T01:29:45Z</time>
      </trkpt>
      <trkpt lat="46.0589" lon="7.00258">
        <ele>1530</ele>
        <time>2018-05-10T01:30:45Z</time>
      </trkpt>
      <trkpt lat="46.059" lon="7.00273">
        <ele>1530</ele>
        <time>2018-05-10T01:31:45Z</time>
      </trkpt>
      <trkpt lat="46.05912" lon="7.00293">
        <ele>1525</ele>
        <time>2018-05-10T01:32:45Z</time>
      </trkpt>
      <trkpt lat="46.05937" lon="7.00338">
        <ele>1524</ele>
        <time>2018-05-10T01:33:45Z</time>
      </trkpt>
      <trkpt lat="46.05945" lon="7.00352">
        <ele>1526</ele>
        <time>2018-05-10T01:34:45Z</time>
      </trkpt>
      <trkpt lat="46.05963" lon="7.00387">
        <ele>1526</ele>
        <time>2018-05-10T01:35:45Z</time>
      </trkpt>
      <trkpt lat="46.05985" lon="7.00433">
        <ele>1514</ele>
        <time>2018-05-10T01:36:45Z</time>
      </trkpt>
      <trkpt lat="46.05994" lon="7.00453">
        <ele>1508</ele>
        <time>2018-05-10T01:37:45Z</time>
      </trkpt>
      <trkpt lat="46.06005" lon="7.0048">
        <ele>1527</ele>
        <time>2018-05-10T01:38:45Z</time>
      </trkpt>
      <trkpt lat="46.06032" lon="7.00559">
        <ele>1512</ele>
        <time>2018-05-10T01:39:45Z</time>
      </trkpt>
      <trkpt lat="46.0605" lon="7.00622">
        <ele>1502</ele>
        <time>2018-05-10T01:40:45Z</time>
      </trkpt>
      <trkpt lat="46.06069" lon="7.00697">
        <ele>1493</ele>
        <time>2018-05-10T01:41:45Z</time>
      </trkpt>
      <trkpt lat="46.06091" lon="7.00763">
        <ele>1499</ele>
        <time>2018-05-10T01:42:45Z</time>
      </trkpt>
      <trkpt lat="46.06118" lon="7.0083">
        <ele>1498</ele>
        <time>2018-05-10T01:43:45Z</time>
      </trkpt>
      <trkpt lat="46.06145" lon="7.00888">
        <ele>1484</ele>
        <time>2018-05-10T01:44:45Z</time>
      </trkpt>
      <trkpt lat="46.06194" lon="7.00984">
        <ele>1489</ele>
        <time>2018-05-10T01:45:45Z</time>
      </trkpt>
      <trkpt lat="46.06272" lon="7.01112">
        <ele>1471</ele>
        <time>2018-05-10T01:46:45Z</time>
      </trkpt>
      <trkpt lat="46.06343" lon="7.01204">
        <ele>1468</ele>
        <time>2018-05-10T01:47:45Z</time>
      </trkpt>
      <trkpt lat="46.06397" lon="7.01277">
        <ele>1450</ele>
        <time>2018-05-10T01:48:45Z</time>
      </trkpt>
      <trkpt lat="46.06423" lon="7.01319">
        <ele>1461</ele>
        <time>2018-05-10T01:49:45Z</time>
      </trkpt>
      <trkpt lat="46.06493" lon="7.01414">
        <ele>1445</ele>
        <time>2018-05-10T01:50:45Z</time>
      </trkpt>
      <trkpt lat="46.06583" lon="7.01525">
        <ele>1424</ele>
        <time>2018-05-10T01:51:45Z</time>
      </trkpt>
      <trkpt lat="46.0665" lon="7.016">
        <ele>1414</ele>
        <time>2018-05-10T01:52:45Z</time>
      </trkpt>
      <trkpt lat="46.06728" lon="7.01669">
        <ele>1404</ele>
        <time>2018-05-10T01:53:45Z</time>
      </trkpt>
      <trkpt lat="46.06774" lon="7.01692">
        <ele>1410</ele>
        <time>2018-05-10T01:54:45Z</time>
      </trkpt>
      <trkpt lat="46.06801" lon="7.01701">
        <ele>1410</ele>
        <time>2018-05-10T01:55:45Z</time>
      </trkpt>
      <trkpt lat="46.06844" lon="7.01717">
        <ele>1417</ele>
        <time>2018-05-10T01:56:45Z</time>
      </trkpt>
      <trkpt lat="46.06883" lon="7.01743">
        <ele>1420</ele>
        <time>2018-05-10T01:57:45Z</time>
      </trkpt>
      <trkpt lat="46.0692" lon="7.01789">
        <ele>1407</ele>
        <time>2018-05-10T01:58:45Z</time>
      </trkpt>
      <trkpt lat="46.06945" lon="7.01817">
        <ele>1402</ele>
        <time>2018-05-10T01:59:45Z</time>
      </trkpt>
      <trkpt lat="46.06979" lon="7.01842">
        <ele>1381</ele>
        <time>2018-05-10T02:00:45Z</time>
      </trkpt>
      <trkpt lat="46.07011" lon="7.01857">
        <ele>1393</ele>
        <time>2018-05-10T02:01:45Z</time>
      </trkpt>
      <trkpt lat="46.07052" lon="7.01885">
        <ele>1392</ele>
        <time>2018-05-10T02:02:45Z</time>
      </trkpt>
      <trkpt lat="46.07061" lon="7.01893">
        <ele>1392</ele>
        <time>2018-05-10T02:03:45Z</time>
      </trkpt>
      <trkpt lat="46.07078" lon="7.01915">
        <ele>1389</ele>
        <time>2018-05-10T02:04:45Z</time>
      </trkpt>
      <trkpt lat="46.07085" lon="7.01925">
        <ele>1388</ele>
        <time>2018-05-10T02:05:45Z</time>
      </trkpt>
      <trkpt lat="46.07098" lon="7.01949">
        <ele>1386</ele>
        <time>2018-05-10T02:06:45Z</time>
      </trkpt>
      <trkpt lat="46.07122" lon="7.01981">
        <ele>1384</ele>
        <time>2018-05-10T02:07:45Z</time>
      </trkpt>
      <trkpt lat="46.07161" lon="7.0201">
        <ele>1372</ele>
        <time>2018-05-10T02:08:45Z</time>
      </trkpt>
      <trkpt lat="46.07207" lon="7.02055">
        <ele>1373</ele>
        <time>2018-05-10T02:09:45Z</time>
      </trkpt>
      <trkpt lat="46.07242" lon="7.02084">
        <ele>1356</ele>
        <time>2018-05-10T02:10:45Z</time>
      </trkpt>
      <trkpt lat="46.07274" lon="7.02095">
        <ele>1353</ele>
        <time>2018-05-10T02:11:45Z</time>
      </trkpt>
      <trkpt lat="46.0731" lon="7.02107">
        <ele>1353</ele>
        <time>2018-05-10T02:12:45Z</time>
      </trkpt>
      <trkpt lat="46.07341" lon="7.02108">
        <ele>1358</ele>
        <time>2018-05-10T02:13:45Z</time>
      </trkpt>
      <trkpt lat="46.07368" lon="7.02109">
        <ele>1354</ele>
        <time>2018-05-10T02:14:45Z</time>
      </trkpt>
      <trkpt lat="46.07386" lon="7.02113">
        <ele>1353</ele>
        <time>2018-05-10T02:15:45Z</time>
      </trkpt>
      <trkpt lat="46.07407" lon="7.02124">
        <ele>1349</ele>
        <time>2018-05-10T02:16:45Z</time>
      </trkpt>
      <trkpt lat="46.07427" lon="7.02129">
        <ele>1341</ele>
        <time>2018-05-10T02:17:45Z</time>
      </trkpt>
      <trkpt lat="46.07445" lon="7.02126">
        <ele>1341</ele>
        <time>2018-05-10T02:18:45Z</time>
      </trkpt>
      <trkpt lat="46.07495" lon="7.02096">
        <ele>1347</ele>
        <time>2018-05-10T02:19:45Z</time>
      </trkpt>
      <trkpt lat="46.07528" lon="7.02058">
        <ele>1355</ele>
        <time>2018-05-10T02:20:45Z</time>
      </trkpt>
      <trkpt lat="46.07535" lon="7.02047">
        <ele>1356</ele>
        <time>2018-05-10T02:21:45Z</time>
      </trkpt>
      <trkpt lat="46.07539" lon="7.02044">
        <ele>1356</ele>
        <time>2018-05-10T02:22:45Z</time>
      </trkpt>
      <trkpt lat="46.07544" lon="7.0204">
        <ele>1356</ele>
        <time>2018-05-10T02:23:45Z</time>
      </trkpt>
      <trkpt lat="46.07545" lon="7.02039">
        <ele>1356</ele>
        <time>2018-05-10T02:24:45Z</time>
      </trkpt>
      <trkpt lat="46.07547" lon="7.02038">
        <ele>1356</ele>
        <time>2018-05-10T02:25:45Z</time>
      </trkpt>
      <trkpt lat="46.07549" lon="7.02037">
        <ele>1356</ele>
        <time>2018-05-10T02:26:45Z</time>
      </trkpt>
      <trkpt lat="46.07551" lon="7.02038">
        <ele>1355</ele>
        <time>2018-05-10T02:27:45Z</time>
      </trkpt>
      <trkpt lat="46.07552" lon="7.02039">
        <ele>1355</ele>
        <time>2018-05-10T02:28:45Z</time>
      </trkpt>
      <trkpt lat="46.07553" lon="7.0204">
        <ele>1354</ele>
        <time>2018-05-10T02:29:45Z</time>
      </trkpt>
      <trkpt lat="46.07555" lon="7.02041">
        <ele>1354</ele>
        <time>2018-05-10T02:30:45Z</time>
      </trkpt>
      <trkpt lat="46.07555" lon="7.02042">
        <ele>1354</ele>
        <time>2018-05-10T02:31:45Z</time>
      </trkpt>
      <trkpt lat="46.07557" lon="7.02044">
        <ele>1353</ele>
        <time>2018-05-10T02:32:45Z</time>
      </trkpt>
      <trkpt lat="46.07558" lon="7.02047">
        <ele>1352</ele>
        <time>2018-05-10T02:33:45Z</time>
      </trkpt>
      <trkpt lat="46.07559" lon="7.02049">
        <ele>1351</ele>
        <time>2018-05-10T02:34:45Z</time>
      </trkpt>
      <trkpt lat="46.07559" lon="7.02051">
        <ele>1351</ele>
        <time>2018-05-10T02:35:45Z</time>
      </trkpt>
      <trkpt lat="46.0756" lon="7.02053">
        <ele>1350</ele>
        <time>2018-05-10T02:36:45Z</time>
      </trkpt>
      <trkpt lat="46.0756" lon="7.02055">
        <ele>1349</ele>
        <time>2018-05-10T02:37:45Z</time>
      </trkpt>
      <trkpt lat="46.0756" lon="7.02058">
        <ele>1348</ele>
        <time>2018-05-10T02:38:45Z</time>
      </trkpt>
      <trkpt lat="46.07559" lon="7.02061">
        <ele>1348</ele>
        <time>2018-05-10T02:39:45Z</time>
      </trkpt>
      <trkpt lat="46.07559" lon="7.02064">
        <ele>1347</ele>
        <time>2018-05-10T02:40:45Z</time>
      </trkpt>
      <trkpt lat="46.07558" lon="7.02065">
        <ele>1347</ele>
        <time>2018-05-10T02:41:45Z</time>
      </trkpt>
      <trkpt lat="46.07557" lon="7.02067">
        <ele>1347</ele>
        <time>2018-05-10T02:42:45Z</time>
      </trkpt>
      <trkpt lat="46.07556" lon="7.02068">
        <ele>1347</ele>
        <time>2018-05-10T02:43:45Z</time>
      </trkpt>
      <trkpt lat="46.07554" lon="7.02069">
        <ele>1347</ele>
        <time>2018-05-10T02:44:45Z</time>
      </trkpt>
      <trkpt lat="46.07549" lon="7.02074">
        <ele>1348</ele>
        <time>2018-05-10T02:45:45Z</time>
      </trkpt>
      <trkpt lat="46.07544" lon="7.02079">
        <ele>1349</ele>
        <time>2018-05-10T02:46:45Z</time>
      </trkpt>
      <trkpt lat="46.07536" lon="7.02086">
        <ele>1327</ele>
        <time>2018-05-10T02:47:45Z</time>
      </trkpt>
      <trkpt lat="46.07528" lon="7.02091">
        <ele>1329</ele>
        <time>2018-05-10T02:48:45Z</time>
      </trkpt>
      <trkpt lat="46.07517" lon="7.02099">
        <ele>1331</ele>
        <time>2018-05-10T02:49:45Z</time>
      </trkpt>
      <trkpt lat="46.07507" lon="7.02108">
        <ele>1330</ele>
        <time>2018-05-10T02:50:45Z</time>
      </trkpt>
      <trkpt lat="46.07491" lon="7.02125">
        <ele>1337</ele>
        <time>2018-05-10T02:51:45Z</time>
      </trkpt>
      <trkpt lat="46.07477" lon="7.02138">
        <ele>1333</ele>
        <time>2018-05-10T02:52:45Z</time>
      </trkpt>
      <trkpt lat="46.07461" lon="7.02152">
        <ele>1332</ele>
        <time>2018-05-10T02:53:45Z</time>
      </trkpt>
      <trkpt lat="46.07439" lon="7.02156">
        <ele>1332</ele>
        <time>2018-05-10T02:54:45Z</time>
      </trkpt>
      <trkpt lat="46.07411" lon="7.02158">
        <ele>1330</ele>
        <time>2018-05-10T02:55:45Z</time>
      </trkpt>
      <trkpt lat="46.0737" lon="7.02164">
        <ele>1338</ele>
        <time>2018-05-10T02:56:45Z</time>
      </trkpt>
      <trkpt lat="46.07351" lon="7.0217">
        <ele>1311</ele>
        <time>2018-05-10T02:57:45Z</time>
      </trkpt>
      <trkpt lat="46.07326" lon="7.02177">
        <ele>1311</ele>
        <time>2018-05-10T02:58:45Z</time>
      </trkpt>
      <trkpt lat="46.07298" lon="7.02178">
        <ele>1304</ele>
        <time>2018-05-10T02:59:45Z</time>
      </trkpt>
      <trkpt lat="46.07269" lon="7.02171">
        <ele>1306</ele>
        <time>2018-05-10T03:00:45Z</time>
      </trkpt>
      <trkpt lat="46.07206" lon="7.02173">
        <ele>1292</ele>
        <time>2018-05-10T03:01:45Z</time>
      </trkpt>
      <trkpt lat="46.0718" lon="7.02166">
        <ele>1310</ele>
        <time>2018-05-10T03:02:45Z</time>
      </trkpt>
      <trkpt lat="46.07178" lon="7.02165">
        <ele>1309</ele>
        <time>2018-05-10T03:03:45Z</time>
      </trkpt>
      <trkpt lat="46.07153" lon="7.02154">
        <ele>1303</ele>
        <time>2018-05-10T03:04:45Z</time>
      </trkpt>
      <trkpt lat="46.071" lon="7.02131">
        <ele>1303</ele>
        <time>2018-05-10T03:05:45Z</time>
      </trkpt>
      <trkpt lat="46.07019" lon="7.02091">
        <ele>1288</ele>
        <time>2018-05-10T03:06:45Z</time>
      </trkpt>
      <trkpt lat="46.06966" lon="7.02065">
        <ele>1294</ele>
        <time>2018-05-10T03:07:45Z</time>
      </trkpt>
      <trkpt lat="46.06926" lon="7.02048">
        <ele>1292</ele>
        <time>2018-05-10T03:08:45Z</time>
      </trkpt>
      <trkpt lat="46.06911" lon="7.0204">
        <ele>1281</ele>
        <time>2018-05-10T03:09:45Z</time>
      </trkpt>
      <trkpt lat="46.06885" lon="7.02029">
        <ele>1281</ele>
        <time>2018-05-10T03:10:45Z</time>
      </trkpt>
      <trkpt lat="46.06864" lon="7.02021">
        <ele>1280</ele>
        <time>2018-05-10T03:11:45Z</time>
      </trkpt>
      <trkpt lat="46.06857" lon="7.0202">
        <ele>1279</ele>
        <time>2018-05-10T03:12:45Z</time>
      </trkpt>
      <trkpt lat="46.06848" lon="7.02018">
        <ele>1279</ele>
        <time>2018-05-10T03:13:45Z</time>
      </trkpt>
      <trkpt lat="46.06843" lon="7.02017">
        <ele>1280</ele>
        <time>2018-05-10T03:14:45Z</time>
      </trkpt>
      <trkpt lat="46.06833" lon="7.02016">
        <ele>1273</ele>
        <time>2018-05-10T03:15:45Z</time>
      </trkpt>
      <trkpt lat="46.06823" lon="7.02016">
        <ele>1272</ele>
        <time>2018-05-10T03:16:45Z</time>
      </trkpt>
      <trkpt lat="46.06817" lon="7.02016">
        <ele>1270</ele>
        <time>2018-05-10T03:17:45Z</time>
      </trkpt>
      <trkpt lat="46.06805" lon="7.02016">
        <ele>1267</ele>
        <time>2018-05-10T03:18:45Z</time>
      </trkpt>
      <trkpt lat="46.06792" lon="7.02016">
        <ele>1266</ele>
        <time>2018-05-10T03:19:45Z</time>
      </trkpt>
      <trkpt lat="46.06786" lon="7.02017">
        <ele>1265</ele>
        <time>2018-05-10T03:20:45Z</time>
      </trkpt>
      <trkpt lat="46.06778" lon="7.02018">
        <ele>1265</ele>
        <time>2018-05-10T03:21:45Z</time>
      </trkpt>
      <trkpt lat="46.06772" lon="7.0202">
        <ele>1264</ele>
        <time>2018-05-10T03:22:45Z</time>
      </trkpt>
      <trkpt lat="46.06726" lon="7.02029">
        <ele>1253</ele>
        <time>2018-05-10T03:23:45Z</time>
      </trkpt>
      <trkpt lat="46.06693" lon="7.0203">
        <ele>1249</ele>
        <time>2018-05-10T03:24:45Z</time>
      </trkpt>
      <trkpt lat="46.06686" lon="7.0203">
        <ele>1249</ele>
        <time>2018-05-10T03:25:45Z</time>
      </trkpt>
      <trkpt lat="46.06681" lon="7.0203">
        <ele>1249</ele>
        <time>2018-05-10T03:26:45Z</time>
      </trkpt>
      <trkpt lat="46.06678" lon="7.02029">
        <ele>1249</ele>
        <time>2018-05-10T03:27:45Z</time>
      </trkpt>
      <trkpt lat="46.06674" lon="7.02029">
        <ele>1249</ele>
        <time>2018-05-10T03:28:45Z</time>
      </trkpt>
      <trkpt lat="46.06671" lon="7.02028">
        <ele>1249</ele>
        <time>2018-05-10T03:29:45Z</time>
      </trkpt>
      <trkpt lat="46.06668" lon="7.02026">
        <ele>1250</ele>
        <time>2018-05-10T03:30:45Z</time>
      </trkpt>
      <trkpt lat="46.06661" lon="7.02023">
        <ele>1246</ele>
        <time>2018-05-10T03:31:45Z</time>
      </trkpt>
      <trkpt lat="46.06653" lon="7.02018">
        <ele>1246</ele>
        <time>2018-05-10T03:32:45Z</time>
      </trkpt>
      <trkpt lat="46.06618" lon="7.01995">
        <ele>1262</ele>
        <time>2018-05-10T03:33:45Z</time>
      </trkpt>
      <trkpt lat="46.06611" lon="7.0199">
        <ele>1261</ele>
        <time>2018-05-10T03:34:45Z</time>
      </trkpt>
      <trkpt lat="46.06582" lon="7.01969">
        <ele>1256</ele>
        <time>2018-05-10T03:35:45Z</time>
      </trkpt>
      <trkpt lat="46.06565" lon="7.01957">
        <ele>1259</ele>
        <time>2018-05-10T03:36:45Z</time>
      </trkpt>
      <trkpt lat="46.06561" lon="7.01955">
        <ele>1259</ele>
        <time>2018-05-10T03:37:45Z</time>
      </trkpt>
      <trkpt lat="46.06558" lon="7.01955">
        <ele>1259</ele>
        <time>2018-05-10T03:38:45Z</time>
      </trkpt>
      <trkpt lat="46.06557" lon="7.01955">
        <ele>1259</ele>
        <time>2018-05-10T03:39:45Z</time>
      </trkpt>
      <trkpt lat="46.06555" lon="7.01956">
        <ele>1259</ele>
        <time>2018-05-10T03:40:45Z</time>
      </trkpt>
      <trkpt lat="46.06553" lon="7.01956">
        <ele>1259</ele>
        <time>2018-05-10T03:41:45Z</time>
      </trkpt>
      <trkpt lat="46.06551" lon="7.01957">
        <ele>1259</ele>
        <time>2018-05-10T03:42:45Z</time>
      </trkpt>
      <trkpt lat="46.0655" lon="7.01959">
        <ele>1259</ele>
        <time>2018-05-10T03:43:45Z</time>
      </trkpt>
      <trkpt lat="46.06549" lon="7.01961">
        <ele>1259</ele>
        <time>2018-05-10T03:44:45Z</time>
      </trkpt>
      <trkpt lat="46.06548" lon="7.01963">
        <ele>1258</ele>
        <time>2018-05-10T03:45:45Z</time>
      </trkpt>
      <trkpt lat="46.06547" lon="7.01968">
        <ele>1258</ele>
        <time>2018-05-10T03:46:45Z</time>
      </trkpt>
      <trkpt lat="46.06546" lon="7.01971">
        <ele>1258</ele>
        <time>2018-05-10T03:47:45Z</time>
      </trkpt>
      <trkpt lat="46.06547" lon="7.01975">
        <ele>1257</ele>
        <time>2018-05-10T03:48:45Z</time>
      </trkpt>
      <trkpt lat="46.06547" lon="7.0198">
        <ele>1257</ele>
        <time>2018-05-10T03:49:45Z</time>
      </trkpt>
      <trkpt lat="46.06549" lon="7.01983">
        <ele>1256</ele>
        <time>2018-05-10T03:50:45Z</time>
      </trkpt>
      <trkpt lat="46.0655" lon="7.01986">
        <ele>1256</ele>
        <time>2018-05-10T03:51:45Z</time>
      </trkpt>
      <trkpt lat="46.06552" lon="7.01989">
        <ele>1256</ele>
        <time>2018-05-10T03:52:45Z</time>
      </trkpt>
      <trkpt lat="46.06556" lon="7.01993">
        <ele>1255</ele>
        <time>2018-05-10T03:53:45Z</time>
      </trkpt>
      <trkpt lat="46.06559" lon="7.01994">
        <ele>1254</ele>
        <time>2018-05-10T03:54:45Z</time>
      </trkpt>
      <trkpt lat="46.06576" lon="7.02">
        <ele>1248</ele>
        <time>2018-05-10T03:55:45Z</time>
      </trkpt>
      <trkpt lat="46.06599" lon="7.02008">
        <ele>1242</ele>
        <time>2018-05-10T03:56:45Z</time>
      </trkpt>
      <trkpt lat="46.06603" lon="7.0201">
        <ele>1242</ele>
        <time>2018-05-10T03:57:45Z</time>
      </trkpt>
      <trkpt lat="46.06609" lon="7.02012">
        <ele>1242</ele>
        <time>2018-05-10T03:58:45Z</time>
      </trkpt>
      <trkpt lat="46.06614" lon="7.02015">
        <ele>1242</ele>
        <time>2018-05-10T03:59:45Z</time>
      </trkpt>
      <trkpt lat="46.06619" lon="7.02019">
        <ele>1242</ele>
        <time>2018-05-10T04:00:45Z</time>
      </trkpt>
      <trkpt lat="46.06622" lon="7.02022">
        <ele>1242</ele>
        <time>2018-05-10T04:01:45Z</time>
      </trkpt>
      <trkpt lat="46.06626" lon="7.02026">
        <ele>1242</ele>
        <time>2018-05-10T04:02:45Z</time>
      </trkpt>
      <trkpt lat="46.06631" lon="7.02032">
        <ele>1241</ele>
        <time>2018-05-10T04:03:45Z</time>
      </trkpt>
      <trkpt lat="46.0665" lon="7.02056">
        <ele>1237</ele>
        <time>2018-05-10T04:04:45Z</time>
      </trkpt>
      <trkpt lat="46.06654" lon="7.02061">
        <ele>1235</ele>
        <time>2018-05-10T04:05:45Z</time>
      </trkpt>
      <trkpt lat="46.06663" lon="7.02069">
        <ele>1232</ele>
        <time>2018-05-10T04:06:45Z</time>
      </trkpt>
      <trkpt lat="46.0667" lon="7.02075">
        <ele>1231</ele>
        <time>2018-05-10T04:07:45Z</time>
      </trkpt>
      <trkpt lat="46.06679" lon="7.0208">
        <ele>1234</ele>
        <time>2018-05-10T04:08:45Z</time>
      </trkpt>
      <trkpt lat="46.06691" lon="7.02086">
        <ele>1223</ele>
        <time>2018-05-10T04:09:45Z</time>
      </trkpt>
      <trkpt lat="46.0675" lon="7.02113">
        <ele>1231</ele>
        <time>2018-05-10T04:10:45Z</time>
      </trkpt>
      <trkpt lat="46.06814" lon="7.02137">
        <ele>1227</ele>
        <time>2018-05-10T04:11:45Z</time>
      </trkpt>
      <trkpt lat="46.06831" lon="7.02144">
        <ele>1225</ele>
        <time>2018-05-10T04:12:45Z</time>
      </trkpt>
      <trkpt lat="46.06839" lon="7.02148">
        <ele>1231</ele>
        <time>2018-05-10T04:13:45Z</time>
      </trkpt>
      <trkpt lat="46.06846" lon="7.02151">
        <ele>1231</ele>
        <time>2018-05-10T04:14:45Z</time>
      </trkpt>
      <trkpt lat="46.06853" lon="7.02156">
        <ele>1232</ele>
        <time>2018-05-10T04:15:45Z</time>
      </trkpt>
      <trkpt lat="46.06859" lon="7.0216">
        <ele>1233</ele>
        <time>2018-05-10T04:16:45Z</time>
      </trkpt>
      <trkpt lat="46.06866" lon="7.02166">
        <ele>1235</ele>
        <time>2018-05-10T04:17:45Z</time>
      </trkpt>
      <trkpt lat="46.06908" lon="7.02206">
        <ele>1217</ele>
        <time>2018-05-10T04:18:45Z</time>
      </trkpt>
      <trkpt lat="46.06921" lon="7.0222">
        <ele>1222</ele>
        <time>2018-05-10T04:19:45Z</time>
      </trkpt>
      <trkpt lat="46.06926" lon="7.02224">
        <ele>1221</ele>
        <time>2018-05-10T04:20:45Z</time>
      </trkpt>
      <trkpt lat="46.06929" lon="7.02227">
        <ele>1220</ele>
        <time>2018-05-10T04:21:45Z</time>
      </trkpt>
      <trkpt lat="46.06934" lon="7.02232">
        <ele>1219</ele>
        <time>2018-05-10T04:22:45Z</time>
      </trkpt>
      <trkpt lat="46.06948" lon="7.02241">
        <ele>1221</ele>
        <time>2018-05-10T04:23:45Z</time>
      </trkpt>
      <trkpt lat="46.06991" lon="7.0227">
        <ele>1201</ele>
        <time>2018-05-10T04:24:45Z</time>
      </trkpt>
      <trkpt lat="46.07075" lon="7.02316">
        <ele>1202</ele>
        <time>2018-05-10T04:25:45Z</time>
      </trkpt>
      <trkpt lat="46.07123" lon="7.02353">
        <ele>1189</ele>
        <time>2018-05-10T04:26:45Z</time>
      </trkpt>
      <trkpt lat="46.07135" lon="7.02363">
        <ele>1188</ele>
        <time>2018-05-10T04:27:45Z</time>
      </trkpt>
      <trkpt lat="46.07135" lon="7.02366">
        <ele>1188</ele>
        <time>2018-05-10T04:28:45Z</time>
      </trkpt>
      <trkpt lat="46.07146" lon="7.02374">
        <ele>1186</ele>
        <time>2018-05-10T04:29:45Z</time>
      </trkpt>
      <trkpt lat="46.0717" lon="7.02385">
        <ele>1189</ele>
        <time>2018-05-10T04:30:45Z</time>
      </trkpt>
      <trkpt lat="46.07233" lon="7.02397">
        <ele>1187</ele>
        <time>2018-05-10T04:31:45Z</time>
      </trkpt>
      <trkpt lat="46.0728" lon="7.02405">
        <ele>1194</ele>
        <time>2018-05-10T04:32:45Z</time>
      </trkpt>
      <trkpt lat="46.07288" lon="7.02407">
        <ele>1196</ele>
        <time>2018-05-10T04:33:45Z</time>
      </trkpt>
      <trkpt lat="46.07294" lon="7.02409">
        <ele>1196</ele>
        <time>2018-05-10T04:34:45Z</time>
      </trkpt>
      <trkpt lat="46.07301" lon="7.02412">
        <ele>1197</ele>
        <time>2018-05-10T04:35:45Z</time>
      </trkpt>
      <trkpt lat="46.07305" lon="7.02415">
        <ele>1196</ele>
        <time>2018-05-10T04:36:45Z</time>
      </trkpt>
      <trkpt lat="46.07312" lon="7.0242">
        <ele>1174</ele>
        <time>2018-05-10T04:37:45Z</time>
      </trkpt>
      <trkpt lat="46.07317" lon="7.02426">
        <ele>1175</ele>
        <time>2018-05-10T04:38:45Z</time>
      </trkpt>
      <trkpt lat="46.07322" lon="7.02432">
        <ele>1174</ele>
        <time>2018-05-10T04:39:45Z</time>
      </trkpt>
      <trkpt lat="46.07327" lon="7.02438">
        <ele>1173</ele>
        <time>2018-05-10T04:40:45Z</time>
      </trkpt>
      <trkpt lat="46.07339" lon="7.02458">
        <ele>1178</ele>
        <time>2018-05-10T04:41:45Z</time>
      </trkpt>
      <trkpt lat="46.07342" lon="7.02465">
        <ele>1176</ele>
        <time>2018-05-10T04:42:45Z</time>
      </trkpt>
      <trkpt lat="46.07357" lon="7.02491">
        <ele>1171</ele>
        <time>2018-05-10T04:43:45Z</time>
      </trkpt>
      <trkpt lat="46.07361" lon="7.02497">
        <ele>1171</ele>
        <time>2018-05-10T04:44:45Z</time>
      </trkpt>
      <trkpt lat="46.07364" lon="7.02502">
        <ele>1152</ele>
        <time>2018-05-10T04:45:45Z</time>
      </trkpt>
      <trkpt lat="46.07368" lon="7.02506">
        <ele>1153</ele>
        <time>2018-05-10T04:46:45Z</time>
      </trkpt>
      <trkpt lat="46.07375" lon="7.02512">
        <ele>1153</ele>
        <time>2018-05-10T04:47:45Z</time>
      </trkpt>
      <trkpt lat="46.0738" lon="7.02515">
        <ele>1154</ele>
        <time>2018-05-10T04:48:45Z</time>
      </trkpt>
      <trkpt lat="46.07383" lon="7.02517">
        <ele>1154</ele>
        <time>2018-05-10T04:49:45Z</time>
      </trkpt>
      <trkpt lat="46.07391" lon="7.02521">
        <ele>1155</ele>
        <time>2018-05-10T04:50:45Z</time>
      </trkpt>
      <trkpt lat="46.07395" lon="7.02522">
        <ele>1156</ele>
        <time>2018-05-10T04:51:45Z</time>
      </trkpt>
      <trkpt lat="46.07398" lon="7.02522">
        <ele>1157</ele>
        <time>2018-05-10T04:52:45Z</time>
      </trkpt>
      <trkpt lat="46.07402" lon="7.02523">
        <ele>1157</ele>
        <time>2018-05-10T04:53:45Z</time>
      </trkpt>
      <trkpt lat="46.07407" lon="7.02523">
        <ele>1158</ele>
        <time>2018-05-10T04:54:45Z</time>
      </trkpt>
      <trkpt lat="46.07412" lon="7.02523">
        <ele>1159</ele>
        <time>2018-05-10T04:55:45Z</time>
      </trkpt>
      <trkpt lat="46.07417" lon="7.02522">
        <ele>1158</ele>
        <time>2018-05-10T04:56:45Z</time>
      </trkpt>
      <trkpt lat="46.07447" lon="7.02516">
        <ele>1152</ele>
        <time>2018-05-10T04:57:45Z</time>
      </trkpt>
      <trkpt lat="46.0745" lon="7.02516">
        <ele>1152</ele>
        <time>2018-05-10T04:58:45Z</time>
      </trkpt>
      <trkpt lat="46.07452" lon="7.02516">
        <ele>1151</ele>
        <time>2018-05-10T04:59:45Z</time>
      </trkpt>
      <trkpt lat="46.07454" lon="7.02516">
        <ele>1151</ele>
        <time>2018-05-10T05:00:45Z</time>
      </trkpt>
      <trkpt lat="46.07455" lon="7.02517">
        <ele>1150</ele>
        <time>2018-05-10T05:01:45Z</time>
      </trkpt>
      <trkpt lat="46.07457" lon="7.02518">
        <ele>1150</ele>
        <time>2018-05-10T05:02:45Z</time>
      </trkpt>
      <trkpt lat="46.07459" lon="7.02519">
        <ele>1149</ele>
        <time>2018-05-10T05:03:45Z</time>
      </trkpt>
      <trkpt lat="46.0746" lon="7.02521">
        <ele>1149</ele>
        <time>2018-05-10T05:04:45Z</time>
      </trkpt>
      <trkpt lat="46.07462" lon="7.02523">
        <ele>1148</ele>
        <time>2018-05-10T05:05:45Z</time>
      </trkpt>
      <trkpt lat="46.07463" lon="7.02525">
        <ele>1148</ele>
        <time>2018-05-10T05:06:45Z</time>
      </trkpt>
      <trkpt lat="46.07463" lon="7.02528">
        <ele>1147</ele>
        <time>2018-05-10T05:07:45Z</time>
      </trkpt>
      <trkpt lat="46.07464" lon="7.02531">
        <ele>1146</ele>
        <time>2018-05-10T05:08:45Z</time>
      </trkpt>
      <trkpt lat="46.07464" lon="7.02534">
        <ele>1146</ele>
        <time>2018-05-10T05:09:45Z</time>
      </trkpt>
      <trkpt lat="46.07464" lon="7.02536">
        <ele>1146</ele>
        <time>2018-05-10T05:10:45Z</time>
      </trkpt>
      <trkpt lat="46.07464" lon="7.02539">
        <ele>1145</ele>
        <time>2018-05-10T05:11:45Z</time>
      </trkpt>
      <trkpt lat="46.07464" lon="7.02541">
        <ele>1145</ele>
        <time>2018-05-10T05:12:45Z</time>
      </trkpt>
      <trkpt lat="46.07463" lon="7.02544">
        <ele>1144</ele>
        <time>2018-05-10T05:13:45Z</time>
      </trkpt>
      <trkpt lat="46.07463" lon="7.02547">
        <ele>1144</ele>
        <time>2018-05-10T05:14:45Z</time>
      </trkpt>
      <trkpt lat="46.07461" lon="7.02549">
        <ele>1144</ele>
        <time>2018-05-10T05:15:45Z</time>
      </trkpt>
      <trkpt lat="46.0746" lon="7.0255">
        <ele>1144</ele>
        <time>2018-05-10T05:16:45Z</time>
      </trkpt>
      <trkpt lat="46.07459" lon="7.02552">
        <ele>1144</ele>
        <time>2018-05-10T05:17:45Z</time>
      </trkpt>
      <trkpt lat="46.07457" lon="7.02553">
        <ele>1144</ele>
        <time>2018-05-10T05:18:45Z</time>
      </trkpt>
      <trkpt lat="46.07455" lon="7.02554">
        <ele>1144</ele>
        <time>2018-05-10T05:19:45Z</time>
      </trkpt>
      <trkpt lat="46.07453" lon="7.02555">
        <ele>1144</ele>
        <time>2018-05-10T05:20:45Z</time>
      </trkpt>
      <trkpt lat="46.07451" lon="7.02556">
        <ele>1144</ele>
        <time>2018-05-10T05:21:45Z</time>
      </trkpt>
      <trkpt lat="46.07425" lon="7.0256">
        <ele>1146</ele>
        <time>2018-05-10T05:22:45Z</time>
      </trkpt>
      <trkpt lat="46.0739" lon="7.02564">
        <ele>1147</ele>
        <time>2018-05-10T05:23:45Z</time>
      </trkpt>
      <trkpt lat="46.07385" lon="7.02564">
        <ele>1147</ele>
        <time>2018-05-10T05:24:45Z</time>
      </trkpt>
      <trkpt lat="46.07381" lon="7.02564">
        <ele>1146</ele>
        <time>2018-05-10T05:25:45Z</time>
      </trkpt>
      <trkpt lat="46.07377" lon="7.02564">
        <ele>1146</ele>
        <time>2018-05-10T05:26:45Z</time>
      </trkpt>
      <trkpt lat="46.07372" lon="7.02563">
        <ele>1145</ele>
        <time>2018-05-10T05:27:45Z</time>
      </trkpt>
      <trkpt lat="46.07365" lon="7.02561">
        <ele>1144</ele>
        <time>2018-05-10T05:28:45Z</time>
      </trkpt>
      <trkpt lat="46.07362" lon="7.0256">
        <ele>1144</ele>
        <time>2018-05-10T05:29:45Z</time>
      </trkpt>
      <trkpt lat="46.07359" lon="7.02559">
        <ele>1144</ele>
        <time>2018-05-10T05:30:45Z</time>
      </trkpt>
      <trkpt lat="46.07357" lon="7.02557">
        <ele>1144</ele>
        <time>2018-05-10T05:31:45Z</time>
      </trkpt>
      <trkpt lat="46.07355" lon="7.02556">
        <ele>1144</ele>
        <time>2018-05-10T05:32:45Z</time>
      </trkpt>
      <trkpt lat="46.07352" lon="7.02554">
        <ele>1144</ele>
        <time>2018-05-10T05:33:45Z</time>
      </trkpt>
      <trkpt lat="46.0735" lon="7.02552">
        <ele>1144</ele>
        <time>2018-05-10T05:34:45Z</time>
      </trkpt>
      <trkpt lat="46.07348" lon="7.02549">
        <ele>1144</ele>
        <time>2018-05-10T05:35:45Z</time>
      </trkpt>
      <trkpt lat="46.07344" lon="7.02543">
        <ele>1145</ele>
        <time>2018-05-10T05:36:45Z</time>
      </trkpt>
      <trkpt lat="46.0734" lon="7.02536">
        <ele>1147</ele>
        <time>2018-05-10T05:37:45Z</time>
      </trkpt>
      <trkpt lat="46.07323" lon="7.02507">
        <ele>1142</ele>
        <time>2018-05-10T05:38:45Z</time>
      </trkpt>
      <trkpt lat="46.07317" lon="7.02498">
        <ele>1155</ele>
        <time>2018-05-10T05:39:45Z</time>
      </trkpt>
      <trkpt lat="46.07311" lon="7.0249">
        <ele>1156</ele>
        <time>2018-05-10T05:40:45Z</time>
      </trkpt>
      <trkpt lat="46.07308" lon="7.02487">
        <ele>1157</ele>
        <time>2018-05-10T05:41:45Z</time>
      </trkpt>
      <trkpt lat="46.07304" lon="7.02484">
        <ele>1157</ele>
        <time>2018-05-10T05:42:45Z</time>
      </trkpt>
      <trkpt lat="46.07299" lon="7.0248">
        <ele>1157</ele>
        <time>2018-05-10T05:43:45Z</time>
      </trkpt>
      <trkpt lat="46.07292" lon="7.02477">
        <ele>1157</ele>
        <time>2018-05-10T05:44:45Z</time>
      </trkpt>
      <trkpt lat="46.07287" lon="7.02475">
        <ele>1156</ele>
        <time>2018-05-10T05:45:45Z</time>
      </trkpt>
      <trkpt lat="46.07282" lon="7.02474">
        <ele>1156</ele>
        <time>2018-05-10T05:46:45Z</time>
      </trkpt>
      <trkpt lat="46.07278" lon="7.02473">
        <ele>1155</ele>
        <time>2018-05-10T05:47:45Z</time>
      </trkpt>
      <trkpt lat="46.07274" lon="7.02473">
        <ele>1154</ele>
        <time>2018-05-10T05:48:45Z</time>
      </trkpt>
      <trkpt lat="46.07264" lon="7.02474">
        <ele>1152</ele>
        <time>2018-05-10T05:49:45Z</time>
      </trkpt>
      <trkpt lat="46.0726" lon="7.02475">
        <ele>1151</ele>
        <time>2018-05-10T05:50:45Z</time>
      </trkpt>
      <trkpt lat="46.07257" lon="7.02475">
        <ele>1150</ele>
        <time>2018-05-10T05:51:45Z</time>
      </trkpt>
      <trkpt lat="46.07254" lon="7.02476">
        <ele>1149</ele>
        <time>2018-05-10T05:52:45Z</time>
      </trkpt>
      <trkpt lat="46.07231" lon="7.02484">
        <ele>1143</ele>
        <time>2018-05-10T05:53:45Z</time>
      </trkpt>
      <trkpt lat="46.07225" lon="7.02486">
        <ele>1143</ele>
        <time>2018-05-10T05:54:45Z</time>
      </trkpt>
      <trkpt lat="46.07221" lon="7.02486">
        <ele>1144</ele>
        <time>2018-05-10T05:55:45Z</time>
      </trkpt>
      <trkpt lat="46.07218" lon="7.02487">
        <ele>1144</ele>
        <time>2018-05-10T05:56:45Z</time>
      </trkpt>
      <trkpt lat="46.07215" lon="7.02487">
        <ele>1144</ele>
        <time>2018-05-10T05:57:45Z</time>
      </trkpt>
      <trkpt lat="46.07211" lon="7.02487">
        <ele>1144</ele>
        <time>2018-05-10T05:58:45Z</time>
      </trkpt>
      <trkpt lat="46.07207" lon="7.02486">
        <ele>1145</ele>
        <time>2018-05-10T05:59:45Z</time>
      </trkpt>
      <trkpt lat="46.07203" lon="7.02486">
        <ele>1144</ele>
        <time>2018-05-10T06:00:45Z</time>
      </trkpt>
      <trkpt lat="46.0719" lon="7.02481">
        <ele>1144</ele>
        <time>2018-05-10T06:01:45Z</time>
      </trkpt>
      <trkpt lat="46.07176" lon="7.02477">
        <ele>1144</ele>
        <time>2018-05-10T06:02:45Z</time>
      </trkpt>
      <trkpt lat="46.07173" lon="7.02476">
        <ele>1144</ele>
        <time>2018-05-10T06:03:45Z</time>
      </trkpt>
      <trkpt lat="46.0717" lon="7.02475">
        <ele>1144</ele>
        <time>2018-05-10T06:04:45Z</time>
      </trkpt>
      <trkpt lat="46.07168" lon="7.02475">
        <ele>1144</ele>
        <time>2018-05-10T06:05:45Z</time>
      </trkpt>
      <trkpt lat="46.07165" lon="7.02475">
        <ele>1141</ele>
        <time>2018-05-10T06:06:45Z</time>
      </trkpt>
      <trkpt lat="46.07162" lon="7.02476">
        <ele>1141</ele>
        <time>2018-05-10T06:07:45Z</time>
      </trkpt>
      <trkpt lat="46.07159" lon="7.02476">
        <ele>1141</ele>
        <time>2018-05-10T06:08:45Z</time>
      </trkpt>
      <trkpt lat="46.07149" lon="7.02478">
        <ele>1141</ele>
        <time>2018-05-10T06:09:45Z</time>
      </trkpt>
      <trkpt lat="46.07131" lon="7.02484">
        <ele>1140</ele>
        <time>2018-05-10T06:10:45Z</time>
      </trkpt>
      <trkpt lat="46.07118" lon="7.02489">
        <ele>1138</ele>
        <time>2018-05-10T06:11:45Z</time>
      </trkpt>
      <trkpt lat="46.07114" lon="7.02491">
        <ele>1136</ele>
        <time>2018-05-10T06:12:45Z</time>
      </trkpt>
      <trkpt lat="46.0711" lon="7.02492">
        <ele>1135</ele>
        <time>2018-05-10T06:13:45Z</time>
      </trkpt>
      <trkpt lat="46.07106" lon="7.02493">
        <ele>1134</ele>
        <time>2018-05-10T06:14:45Z</time>
      </trkpt>
      <trkpt lat="46.07101" lon="7.02494">
        <ele>1132</ele>
        <time>2018-05-10T06:15:45Z</time>
      </trkpt>
      <trkpt lat="46.07095" lon="7.02495">
        <ele>1129</ele>
        <time>2018-05-10T06:16:45Z</time>
      </trkpt>
      <trkpt lat="46.0709" lon="7.02494">
        <ele>1127</ele>
        <time>2018-05-10T06:17:45Z</time>
      </trkpt>
      <trkpt lat="46.07086" lon="7.02494">
        <ele>1125</ele>
        <time>2018-05-10T06:18:45Z</time>
      </trkpt>
      <trkpt lat="46.07083" lon="7.02494">
        <ele>1122</ele>
        <time>2018-05-10T06:19:45Z</time>
      </trkpt>
      <trkpt lat="46.07079" lon="7.02492">
        <ele>1123</ele>
        <time>2018-05-10T06:20:45Z</time>
      </trkpt>
      <trkpt lat="46.07074" lon="7.02491">
        <ele>1124</ele>
        <time>2018-05-10T06:21:45Z</time>
      </trkpt>
      <trkpt lat="46.07055" lon="7.02483">
        <ele>1127</ele>
        <time>2018-05-10T06:22:45Z</time>
      </trkpt>
      <trkpt lat="46.07038" lon="7.02477">
        <ele>1127</ele>
        <time>2018-05-10T06:23:45Z</time>
      </trkpt>
      <trkpt lat="46.07034" lon="7.02476">
        <ele>1127</ele>
        <time>2018-05-10T06:24:45Z</time>
      </trkpt>
      <trkpt lat="46.0703" lon="7.02474">
        <ele>1127</ele>
        <time>2018-05-10T06:25:45Z</time>
      </trkpt>
      <trkpt lat="46.07027" lon="7.02474">
        <ele>1127</ele>
        <time>2018-05-10T06:26:45Z</time>
      </trkpt>
      <trkpt lat="46.07024" lon="7.02473">
        <ele>1127</ele>
        <time>2018-05-10T06:27:45Z</time>
      </trkpt>
      <trkpt lat="46.07021" lon="7.02473">
        <ele>1126</ele>
        <time>2018-05-10T06:28:45Z</time>
      </trkpt>
      <trkpt lat="46.07012" lon="7.02473">
        <ele>1125</ele>
        <time>2018-05-10T06:29:45Z</time>
      </trkpt>
      <trkpt lat="46.07006" lon="7.02473">
        <ele>1124</ele>
        <time>2018-05-10T06:30:45Z</time>
      </trkpt>
      <trkpt lat="46.07002" lon="7.02474">
        <ele>1123</ele>
        <time>2018-05-10T06:31:45Z</time>
      </trkpt>
      <trkpt lat="46.06994" lon="7.02475">
        <ele>1118</ele>
        <time>2018-05-10T06:32:45Z</time>
      </trkpt>
      <trkpt lat="46.06882" lon="7.02508">
        <ele>1110</ele>
        <time>2018-05-10T06:33:45Z</time>
      </trkpt>
      <trkpt lat="46.0688" lon="7.02511">
        <ele>1111</ele>
        <time>2018-05-10T06:34:45Z</time>
      </trkpt>
      <trkpt lat="46.06879" lon="7.02513">
        <ele>1111</ele>
        <time>2018-05-10T06:35:45Z</time>
      </trkpt>
      <trkpt lat="46.06878" lon="7.02515">
        <ele>1111</ele>
        <time>2018-05-10T06:36:45Z</time>
      </trkpt>
      <trkpt lat="46.06877" lon="7.02517">
        <ele>1111</ele>
        <time>2018-05-10T06:37:45Z</time>
      </trkpt>
      <trkpt lat="46.06876" lon="7.02519">
        <ele>1111</ele>
        <time>2018-05-10T06:38:45Z</time>
      </trkpt>
      <trkpt lat="46.06875" lon="7.02522">
        <ele>1111</ele>
        <time>2018-05-10T06:39:45Z</time>
      </trkpt>
      <trkpt lat="46.06874" lon="7.02524">
        <ele>1111</ele>
        <time>2018-05-10T06:40:45Z</time>
      </trkpt>
      <trkpt lat="46.06874" lon="7.02527">
        <ele>1111</ele>
        <time>2018-05-10T06:41:45Z</time>
      </trkpt>
      <trkpt lat="46.06874" lon="7.0253">
        <ele>1111</ele>
        <time>2018-05-10T06:42:45Z</time>
      </trkpt>
      <trkpt lat="46.06874" lon="7.02532">
        <ele>1111</ele>
        <time>2018-05-10T06:43:45Z</time>
      </trkpt>
      <trkpt lat="46.06874" lon="7.02535">
        <ele>1111</ele>
        <time>2018-05-10T06:44:45Z</time>
      </trkpt>
      <trkpt lat="46.06875" lon="7.02538">
        <ele>1111</ele>
        <time>2018-05-10T06:45:45Z</time>
      </trkpt>
      <trkpt lat="46.06876" lon="7.02541">
        <ele>1111</ele>
        <time>2018-05-10T06:46:45Z</time>
      </trkpt>
      <trkpt lat="46.06878" lon="7.02543">
        <ele>1110</ele>
        <time>2018-05-10T06:47:45Z</time>
      </trkpt>
      <trkpt lat="46.0688" lon="7.02545">
        <ele>1110</ele>
        <time>2018-05-10T06:48:45Z</time>
      </trkpt>
      <trkpt lat="46.06882" lon="7.02547">
        <ele>1110</ele>
        <time>2018-05-10T06:49:45Z</time>
      </trkpt>
      <trkpt lat="46.06885" lon="7.02548">
        <ele>1109</ele>
        <time>2018-05-10T06:50:45Z</time>
      </trkpt>
      <trkpt lat="46.06889" lon="7.02548">
        <ele>1108</ele>
        <time>2018-05-10T06:51:45Z</time>
      </trkpt>
      <trkpt lat="46.06893" lon="7.02547">
        <ele>1108</ele>
        <time>2018-05-10T06:52:45Z</time>
      </trkpt>
      <trkpt lat="46.06897" lon="7.02546">
        <ele>1107</ele>
        <time>2018-05-10T06:53:45Z</time>
      </trkpt>
      <trkpt lat="46.06901" lon="7.02544">
        <ele>1107</ele>
        <time>2018-05-10T06:54:45Z</time>
      </trkpt>
      <trkpt lat="46.06909" lon="7.02539">
        <ele>1106</ele>
        <time>2018-05-10T06:55:45Z</time>
      </trkpt>
      <trkpt lat="46.0692" lon="7.02531">
        <ele>1096</ele>
        <time>2018-05-10T06:56:45Z</time>
      </trkpt>
      <trkpt lat="46.06929" lon="7.02528">
        <ele>1097</ele>
        <time>2018-05-10T06:57:45Z</time>
      </trkpt>
      <trkpt lat="46.06954" lon="7.02524">
        <ele>1096</ele>
        <time>2018-05-10T06:58:45Z</time>
      </trkpt>
      <trkpt lat="46.06987" lon="7.02525">
        <ele>1096</ele>
        <time>2018-05-10T06:59:45Z</time>
      </trkpt>
      <trkpt lat="46.07019" lon="7.02541">
        <ele>1094</ele>
        <time>2018-05-10T07:00:45Z</time>
      </trkpt>
      <trkpt lat="46.07044" lon="7.02564">
        <ele>1091</ele>
        <time>2018-05-10T07:01:45Z</time>
      </trkpt>
      <trkpt lat="46.07065" lon="7.02582">
        <ele>1088</ele>
        <time>2018-05-10T07:02:45Z</time>
      </trkpt>
      <trkpt lat="46.07081" lon="7.02591">
        <ele>1077</ele>
        <time>2018-05-10T07:03:45Z</time>
      </trkpt>
      <trkpt lat="46.07094" lon="7.02595">
        <ele>1074</ele>
        <time>2018-05-10T07:04:45Z</time>
      </trkpt>
      <trkpt lat="46.07162" lon="7.02594">
        <ele>1078</ele>
        <time>2018-05-10T07:05:45Z</time>
      </trkpt>
      <trkpt lat="46.07201" lon="7.02599">
        <ele>1077</ele>
        <time>2018-05-10T07:06:45Z</time>
      </trkpt>
      <trkpt lat="46.0722" lon="7.02608">
        <ele>1077</ele>
        <time>2018-05-10T07:07:45Z</time>
      </trkpt>
      <trkpt lat="46.07238" lon="7.02622">
        <ele>1075</ele>
        <time>2018-05-10T07:08:45Z</time>
      </trkpt>
      <trkpt lat="46.07246" lon="7.02633">
        <ele>1072</ele>
        <time>2018-05-10T07:09:45Z</time>
      </trkpt>
      <trkpt lat="46.07257" lon="7.02645">
        <ele>1082</ele>
        <time>2018-05-10T07:10:45Z</time>
      </trkpt>
      <trkpt lat="46.07264" lon="7.02655">
        <ele>1079</ele>
        <time>2018-05-10T07:11:45Z</time>
      </trkpt>
      <trkpt lat="46.07271" lon="7.02665">
        <ele>1081</ele>
        <time>2018-05-10T07:12:45Z</time>
      </trkpt>
      <trkpt lat="46.07277" lon="7.02675">
        <ele>1066</ele>
        <time>2018-05-10T07:13:45Z</time>
      </trkpt>
      <trkpt lat="46.07317" lon="7.02742">
        <ele>1063</ele>
        <time>2018-05-10T07:14:45Z</time>
      </trkpt>
      <trkpt lat="46.0733" lon="7.0276">
        <ele>1051</ele>
        <time>2018-05-10T07:15:45Z</time>
      </trkpt>
      <trkpt lat="46.07337" lon="7.02769">
        <ele>1058</ele>
        <time>2018-05-10T07:16:45Z</time>
      </trkpt>
      <trkpt lat="46.07352" lon="7.02786">
        <ele>1054</ele>
        <time>2018-05-10T07:17:45Z</time>
      </trkpt>
      <trkpt lat="46.07367" lon="7.02802">
        <ele>1052</ele>
        <time>2018-05-10T07:18:45Z</time>
      </trkpt>
      <trkpt lat="46.07376" lon="7.0281">
        <ele>1052</ele>
        <time>2018-05-10T07:19:45Z</time>
      </trkpt>
      <trkpt lat="46.07384" lon="7.02817">
        <ele>1052</ele>
        <time>2018-05-10T07:20:45Z</time>
      </trkpt>
      <trkpt lat="46.07392" lon="7.02823">
        <ele>1052</ele>
        <time>2018-05-10T07:21:45Z</time>
      </trkpt>
      <trkpt lat="46.07403" lon="7.02831">
        <ele>1051</ele>
        <time>2018-05-10T07:22:45Z</time>
      </trkpt>
      <trkpt lat="46.07434" lon="7.02857">
        <ele>1040</ele>
        <time>2018-05-10T07:23:45Z</time>
      </trkpt>
      <trkpt lat="46.07441" lon="7.02861">
        <ele>1039</ele>
        <time>2018-05-10T07:24:45Z</time>
      </trkpt>
      <trkpt lat="46.07448" lon="7.02864">
        <ele>1039</ele>
        <time>2018-05-10T07:25:45Z</time>
      </trkpt>
      <trkpt lat="46.07454" lon="7.02867">
        <ele>1038</ele>
        <time>2018-05-10T07:26:45Z</time>
      </trkpt>
      <trkpt lat="46.07462" lon="7.02869">
        <ele>1038</ele>
        <time>2018-05-10T07:27:45Z</time>
      </trkpt>
      <trkpt lat="46.07469" lon="7.0287">
        <ele>1038</ele>
        <time>2018-05-10T07:28:45Z</time>
      </trkpt>
      <trkpt lat="46.07475" lon="7.0287">
        <ele>1038</ele>
        <time>2018-05-10T07:29:45Z</time>
      </trkpt>
      <trkpt lat="46.07486" lon="7.02871">
        <ele>1038</ele>
        <time>2018-05-10T07:30:45Z</time>
      </trkpt>
      <trkpt lat="46.07492" lon="7.02871">
        <ele>1039</ele>
        <time>2018-05-10T07:31:45Z</time>
      </trkpt>
      <trkpt lat="46.07497" lon="7.0287">
        <ele>1039</ele>
        <time>2018-05-10T07:32:45Z</time>
      </trkpt>
      <trkpt lat="46.07504" lon="7.02869">
        <ele>1035</ele>
        <time>2018-05-10T07:33:45Z</time>
      </trkpt>
      <trkpt lat="46.07515" lon="7.02865">
        <ele>1035</ele>
        <time>2018-05-10T07:34:45Z</time>
      </trkpt>
      <trkpt lat="46.07539" lon="7.02856">
        <ele>1033</ele>
        <time>2018-05-10T07:35:45Z</time>
      </trkpt>
      <trkpt lat="46.07553" lon="7.02852">
        <ele>1032</ele>
        <time>2018-05-10T07:36:45Z</time>
      </trkpt>
      <trkpt lat="46.0756" lon="7.02851">
        <ele>1031</ele>
        <time>2018-05-10T07:37:45Z</time>
      </trkpt>
      <trkpt lat="46.07565" lon="7.02851">
        <ele>1031</ele>
        <time>2018-05-10T07:38:45Z</time>
      </trkpt>
      <trkpt lat="46.0757" lon="7.02851">
        <ele>1031</ele>
        <time>2018-05-10T07:39:45Z</time>
      </trkpt>
      <trkpt lat="46.07576" lon="7.02851">
        <ele>1030</ele>
        <time>2018-05-10T07:40:45Z</time>
      </trkpt>
      <trkpt lat="46.07581" lon="7.02852">
        <ele>1030</ele>
        <time>2018-05-10T07:41:45Z</time>
      </trkpt>
      <trkpt lat="46.07586" lon="7.02854">
        <ele>1028</ele>
        <time>2018-05-10T07:42:45Z</time>
      </trkpt>
      <trkpt lat="46.07593" lon="7.02856">
        <ele>1028</ele>
        <time>2018-05-10T07:43:45Z</time>
      </trkpt>
      <trkpt lat="46.07601" lon="7.0286">
        <ele>1027</ele>
        <time>2018-05-10T07:44:45Z</time>
      </trkpt>
      <trkpt lat="46.07624" lon="7.02873">
        <ele>1027</ele>
        <time>2018-05-10T07:45:45Z</time>
      </trkpt>
      <trkpt lat="46.07641" lon="7.02882">
        <ele>1027</ele>
        <time>2018-05-10T07:46:45Z</time>
      </trkpt>
      <trkpt lat="46.0765" lon="7.02887">
        <ele>1026</ele>
        <time>2018-05-10T07:47:45Z</time>
      </trkpt>
      <trkpt lat="46.07656" lon="7.02892">
        <ele>1025</ele>
        <time>2018-05-10T07:48:45Z</time>
      </trkpt>
      <trkpt lat="46.0766" lon="7.02896">
        <ele>1025</ele>
        <time>2018-05-10T07:49:45Z</time>
      </trkpt>
      <trkpt lat="46.07665" lon="7.02901">
        <ele>1024</ele>
        <time>2018-05-10T07:50:45Z</time>
      </trkpt>
      <trkpt lat="46.07668" lon="7.02905">
        <ele>1031</ele>
        <time>2018-05-10T07:51:45Z</time>
      </trkpt>
      <trkpt lat="46.07672" lon="7.02909">
        <ele>1029</ele>
        <time>2018-05-10T07:52:45Z</time>
      </trkpt>
      <trkpt lat="46.07677" lon="7.02914">
        <ele>1030</ele>
        <time>2018-05-10T07:53:45Z</time>
      </trkpt>
      <trkpt lat="46.07683" lon="7.02922">
        <ele>1024</ele>
        <time>2018-05-10T07:54:45Z</time>
      </trkpt>
      <trkpt lat="46.0769" lon="7.02933">
        <ele>1025</ele>
        <time>2018-05-10T07:55:45Z</time>
      </trkpt>
      <trkpt lat="46.07696" lon="7.02941">
        <ele>1026</ele>
        <time>2018-05-10T07:56:45Z</time>
      </trkpt>
      <trkpt lat="46.07706" lon="7.02959">
        <ele>1026</ele>
        <time>2018-05-10T07:57:45Z</time>
      </trkpt>
      <trkpt lat="46.07714" lon="7.02972">
        <ele>1026</ele>
        <time>2018-05-10T07:58:45Z</time>
      </trkpt>
      <trkpt lat="46.07721" lon="7.02985">
        <ele>1027</ele>
        <time>2018-05-10T07:59:45Z</time>
      </trkpt>
      <trkpt lat="46.07732" lon="7.03009">
        <ele>1017</ele>
        <time>2018-05-10T08:00:45Z</time>
      </trkpt>
      <trkpt lat="46.07743" lon="7.03031">
        <ele>1013</ele>
        <time>2018-05-10T08:01:45Z</time>
      </trkpt>
      <trkpt lat="46.07748" lon="7.03043">
        <ele>1010</ele>
        <time>2018-05-10T08:02:45Z</time>
      </trkpt>
      <trkpt lat="46.07756" lon="7.03063">
        <ele>1031</ele>
        <time>2018-05-10T08:03:45Z</time>
      </trkpt>
      <trkpt lat="46.0776" lon="7.03076">
        <ele>1025</ele>
        <time>2018-05-10T08:04:45Z</time>
      </trkpt>
      <trkpt lat="46.07766" lon="7.03094">
        <ele>1015</ele>
        <time>2018-05-10T08:05:45Z</time>
      </trkpt>
      <trkpt lat="46.07776" lon="7.03129">
        <ele>1013</ele>
        <time>2018-05-10T08:06:45Z</time>
      </trkpt>
      <trkpt lat="46.07782" lon="7.03169">
        <ele>989</ele>
        <time>2018-05-10T08:07:45Z</time>
      </trkpt>
      <trkpt lat="46.07784" lon="7.03181">
        <ele>988</ele>
        <time>2018-05-10T08:08:45Z</time>
      </trkpt>
      <trkpt lat="46.07786" lon="7.0319">
        <ele>988</ele>
        <time>2018-05-10T08:09:45Z</time>
      </trkpt>
      <trkpt lat="46.07788" lon="7.03197">
        <ele>987</ele>
        <time>2018-05-10T08:10:45Z</time>
      </trkpt>
      <trkpt lat="46.07791" lon="7.03204">
        <ele>987</ele>
        <time>2018-05-10T08:11:45Z</time>
      </trkpt>
      <trkpt lat="46.07793" lon="7.0321">
        <ele>986</ele>
        <time>2018-05-10T08:12:45Z</time>
      </trkpt>
      <trkpt lat="46.07797" lon="7.03216">
        <ele>986</ele>
        <time>2018-05-10T08:13:45Z</time>
      </trkpt>
      <trkpt lat="46.07801" lon="7.03221">
        <ele>986</ele>
        <time>2018-05-10T08:14:45Z</time>
      </trkpt>
      <trkpt lat="46.07805" lon="7.03225">
        <ele>986</ele>
        <time>2018-05-10T08:15:45Z</time>
      </trkpt>
      <trkpt lat="46.07864" lon="7.03279">
        <ele>975</ele>
        <time>2018-05-10T08:16:45Z</time>
      </trkpt>
      <trkpt lat="46.0787" lon="7.03283">
        <ele>975</ele>
        <time>2018-05-10T08:17:45Z</time>
      </trkpt>
      <trkpt lat="46.07875" lon="7.03286">
        <ele>975</ele>
        <time>2018-05-10T08:18:45Z</time>
      </trkpt>
      <trkpt lat="46.0788" lon="7.03288">
        <ele>975</ele>
        <time>2018-05-10T08:19:45Z</time>
      </trkpt>
      <trkpt lat="46.07887" lon="7.03289">
        <ele>975</ele>
        <time>2018-05-10T08:20:45Z</time>
      </trkpt>
      <trkpt lat="46.07895" lon="7.03288">
        <ele>976</ele>
        <time>2018-05-10T08:21:45Z</time>
      </trkpt>
      <trkpt lat="46.079" lon="7.03287">
        <ele>976</ele>
        <time>2018-05-10T08:22:45Z</time>
      </trkpt>
      <trkpt lat="46.07904" lon="7.03286">
        <ele>977</ele>
        <time>2018-05-10T08:23:45Z</time>
      </trkpt>
      <trkpt lat="46.07908" lon="7.03283">
        <ele>977</ele>
        <time>2018-05-10T08:24:45Z</time>
      </trkpt>
      <trkpt lat="46.0791" lon="7.03281">
        <ele>978</ele>
        <time>2018-05-10T08:25:45Z</time>
      </trkpt>
      <trkpt lat="46.07914" lon="7.03277">
        <ele>979</ele>
        <time>2018-05-10T08:26:45Z</time>
      </trkpt>
      <trkpt lat="46.07952" lon="7.03238">
        <ele>994</ele>
        <time>2018-05-10T08:27:45Z</time>
      </trkpt>
      <trkpt lat="46.07956" lon="7.03235">
        <ele>994</ele>
        <time>2018-05-10T08:28:45Z</time>
      </trkpt>
      <trkpt lat="46.07959" lon="7.03232">
        <ele>994</ele>
        <time>2018-05-10T08:29:45Z</time>
      </trkpt>
      <trkpt lat="46.07965" lon="7.03228">
        <ele>993</ele>
        <time>2018-05-10T08:30:45Z</time>
      </trkpt>
      <trkpt lat="46.07971" lon="7.03224">
        <ele>993</ele>
        <time>2018-05-10T08:31:45Z</time>
      </trkpt>
      <trkpt lat="46.07974" lon="7.03223">
        <ele>993</ele>
        <time>2018-05-10T08:32:45Z</time>
      </trkpt>
      <trkpt lat="46.07979" lon="7.03222">
        <ele>992</ele>
        <time>2018-05-10T08:33:45Z</time>
      </trkpt>
      <trkpt lat="46.07983" lon="7.03221">
        <ele>992</ele>
        <time>2018-05-10T08:34:45Z</time>
      </trkpt>
      <trkpt lat="46.07987" lon="7.03221">
        <ele>991</ele>
        <time>2018-05-10T08:35:45Z</time>
      </trkpt>
      <trkpt lat="46.07992" lon="7.03221">
        <ele>991</ele>
        <time>2018-05-10T08:36:45Z</time>
      </trkpt>
      <trkpt lat="46.07997" lon="7.03222">
        <ele>990</ele>
        <time>2018-05-10T08:37:45Z</time>
      </trkpt>
      <trkpt lat="46.08" lon="7.03223">
        <ele>989</ele>
        <time>2018-05-10T08:38:45Z</time>
      </trkpt>
      <trkpt lat="46.08004" lon="7.03225">
        <ele>987</ele>
        <time>2018-05-10T08:39:45Z</time>
      </trkpt>
      <trkpt lat="46.08007" lon="7.03227">
        <ele>987</ele>
        <time>2018-05-10T08:40:45Z</time>
      </trkpt>
      <trkpt lat="46.08012" lon="7.03231">
        <ele>987</ele>
        <time>2018-05-10T08:41:45Z</time>
      </trkpt>
      <trkpt lat="46.08018" lon="7.03237">
        <ele>986</ele>
        <time>2018-05-10T08:42:45Z</time>
      </trkpt>
      <trkpt lat="46.08021" lon="7.03241">
        <ele>986</ele>
        <time>2018-05-10T08:43:45Z</time>
      </trkpt>
      <trkpt lat="46.08024" lon="7.03246">
        <ele>987</ele>
        <time>2018-05-10T08:44:45Z</time>
      </trkpt>
      <trkpt lat="46.08035" lon="7.03267">
        <ele>975</ele>
        <time>2018-05-10T08:45:45Z</time>
      </trkpt>
      <trkpt lat="46.08046" lon="7.03288">
        <ele>974</ele>
        <time>2018-05-10T08:46:45Z</time>
      </trkpt>
      <trkpt lat="46.08078" lon="7.03358">
        <ele>960</ele>
        <time>2018-05-10T08:47:45Z</time>
      </trkpt>
      <trkpt lat="46.08084" lon="7.03372">
        <ele>977</ele>
        <time>2018-05-10T08:48:45Z</time>
      </trkpt>
      <trkpt lat="46.08088" lon="7.03386">
        <ele>974</ele>
        <time>2018-05-10T08:49:45Z</time>
      </trkpt>
      <trkpt lat="46.08093" lon="7.03399">
        <ele>970</ele>
        <time>2018-05-10T08:50:45Z</time>
      </trkpt>
      <trkpt lat="46.08101" lon="7.03419">
        <ele>962</ele>
        <time>2018-05-10T08:51:45Z</time>
      </trkpt>
      <trkpt lat="46.08109" lon="7.03446">
        <ele>966</ele>
        <time>2018-05-10T08:52:45Z</time>
      </trkpt>
      <trkpt lat="46.08111" lon="7.03453">
        <ele>966</ele>
        <time>2018-05-10T08:53:45Z</time>
      </trkpt>
      <trkpt lat="46.08112" lon="7.03458">
        <ele>966</ele>
        <time>2018-05-10T08:54:45Z</time>
      </trkpt>
      <trkpt lat="46.08112" lon="7.03465">
        <ele>966</ele>
        <time>2018-05-10T08:55:45Z</time>
      </trkpt>
      <trkpt lat="46.08113" lon="7.03473">
        <ele>965</ele>
        <time>2018-05-10T08:56:45Z</time>
      </trkpt>
      <trkpt lat="46.08113" lon="7.03479">
        <ele>964</ele>
        <time>2018-05-10T08:57:45Z</time>
      </trkpt>
      <trkpt lat="46.08112" lon="7.03486">
        <ele>963</ele>
        <time>2018-05-10T08:58:45Z</time>
      </trkpt>
      <trkpt lat="46.08111" lon="7.03491">
        <ele>962</ele>
        <time>2018-05-10T08:59:45Z</time>
      </trkpt>
      <trkpt lat="46.0811" lon="7.03498">
        <ele>961</ele>
        <time>2018-05-10T09:00:45Z</time>
      </trkpt>
      <trkpt lat="46.08108" lon="7.03503">
        <ele>955</ele>
        <time>2018-05-10T09:01:45Z</time>
      </trkpt>
      <trkpt lat="46.08105" lon="7.03509">
        <ele>954</ele>
        <time>2018-05-10T09:02:45Z</time>
      </trkpt>
      <trkpt lat="46.08093" lon="7.03538">
        <ele>953</ele>
        <time>2018-05-10T09:03:45Z</time>
      </trkpt>
      <trkpt lat="46.08089" lon="7.03548">
        <ele>952</ele>
        <time>2018-05-10T09:04:45Z</time>
      </trkpt>
      <trkpt lat="46.08086" lon="7.03556">
        <ele>950</ele>
        <time>2018-05-10T09:05:45Z</time>
      </trkpt>
      <trkpt lat="46.08085" lon="7.03563">
        <ele>948</ele>
        <time>2018-05-10T09:06:45Z</time>
      </trkpt>
      <trkpt lat="46.08084" lon="7.03569">
        <ele>946</ele>
        <time>2018-05-10T09:07:45Z</time>
      </trkpt>
      <trkpt lat="46.08083" lon="7.03574">
        <ele>930</ele>
        <time>2018-05-10T09:08:45Z</time>
      </trkpt>
      <trkpt lat="46.08083" lon="7.0358">
        <ele>933</ele>
        <time>2018-05-10T09:09:45Z</time>
      </trkpt>
      <trkpt lat="46.08083" lon="7.03586">
        <ele>932</ele>
        <time>2018-05-10T09:10:45Z</time>
      </trkpt>
      <trkpt lat="46.08084" lon="7.03593">
        <ele>939</ele>
        <time>2018-05-10T09:11:45Z</time>
      </trkpt>
      <trkpt lat="46.08085" lon="7.03599">
        <ele>940</ele>
        <time>2018-05-10T09:12:45Z</time>
      </trkpt>
      <trkpt lat="46.08086" lon="7.03603">
        <ele>940</ele>
        <time>2018-05-10T09:13:45Z</time>
      </trkpt>
      <trkpt lat="46.08088" lon="7.03608">
        <ele>941</ele>
        <time>2018-05-10T09:14:45Z</time>
      </trkpt>
      <trkpt lat="46.08091" lon="7.03614">
        <ele>941</ele>
        <time>2018-05-10T09:15:45Z</time>
      </trkpt>
      <trkpt lat="46.08096" lon="7.03623">
        <ele>941</ele>
        <time>2018-05-10T09:16:45Z</time>
      </trkpt>
      <trkpt lat="46.08134" lon="7.0368">
        <ele>927</ele>
        <time>2018-05-10T09:17:45Z</time>
      </trkpt>
      <trkpt lat="46.08137" lon="7.03685">
        <ele>927</ele>
        <time>2018-05-10T09:18:45Z</time>
      </trkpt>
      <trkpt lat="46.0814" lon="7.03687">
        <ele>927</ele>
        <time>2018-05-10T09:19:45Z</time>
      </trkpt>
      <trkpt lat="46.08143" lon="7.0369">
        <ele>927</ele>
        <time>2018-05-10T09:20:45Z</time>
      </trkpt>
      <trkpt lat="46.08146" lon="7.03693">
        <ele>927</ele>
        <time>2018-05-10T09:21:45Z</time>
      </trkpt>
      <trkpt lat="46.08172" lon="7.03712">
        <ele>948</ele>
        <time>2018-05-10T09:22:45Z</time>
      </trkpt>
      <trkpt lat="46.08175" lon="7.03714">
        <ele>947</ele>
        <time>2018-05-10T09:23:45Z</time>
      </trkpt>
      <trkpt lat="46.08177" lon="7.03716">
        <ele>947</ele>
        <time>2018-05-10T09:24:45Z</time>
      </trkpt>
      <trkpt lat="46.0818" lon="7.03719">
        <ele>946</ele>
        <time>2018-05-10T09:25:45Z</time>
      </trkpt>
      <trkpt lat="46.08183" lon="7.03723">
        <ele>945</ele>
        <time>2018-05-10T09:26:45Z</time>
      </trkpt>
      <trkpt lat="46.08185" lon="7.03727">
        <ele>944</ele>
        <time>2018-05-10T09:27:45Z</time>
      </trkpt>
      <trkpt lat="46.08233" lon="7.03807">
        <ele>919</ele>
        <time>2018-05-10T09:28:45Z</time>
      </trkpt>
      <trkpt lat="46.08284" lon="7.0387">
        <ele>919</ele>
        <time>2018-05-10T09:29:45Z</time>
      </trkpt>
      <trkpt lat="46.08326" lon="7.03925">
        <ele>904</ele>
        <time>2018-05-10T09:30:45Z</time>
      </trkpt>
      <trkpt lat="46.08371" lon="7.03972">
        <ele>905</ele>
        <time>2018-05-10T09:31:45Z</time>
      </trkpt>
      <trkpt lat="46.08389" lon="7.03988">
        <ele>904</ele>
        <time>2018-05-10T09:32:45Z</time>
      </trkpt>
      <trkpt lat="46.08399" lon="7.03994">
        <ele>903</ele>
        <time>2018-05-10T09:33:45Z</time>
      </trkpt>
      <trkpt lat="46.08411" lon="7.03998">
        <ele>900</ele>
        <time>2018-05-10T09:34:45Z</time>
      </trkpt>
      <trkpt lat="46.08428" lon="7.04002">
        <ele>896</ele>
        <time>2018-05-10T09:35:45Z</time>
      </trkpt>
      <trkpt lat="46.08457" lon="7.04002">
        <ele>898</ele>
        <time>2018-05-10T09:36:45Z</time>
      </trkpt>
      <trkpt lat="46.08467" lon="7.04005">
        <ele>900</ele>
        <time>2018-05-10T09:37:45Z</time>
      </trkpt>
      <trkpt lat="46.08475" lon="7.0401">
        <ele>902</ele>
        <time>2018-05-10T09:38:45Z</time>
      </trkpt>
      <trkpt lat="46.08485" lon="7.04016">
        <ele>903</ele>
        <time>2018-05-10T09:39:45Z</time>
      </trkpt>
      <trkpt lat="46.08491" lon="7.04026">
        <ele>901</ele>
        <time>2018-05-10T09:40:45Z</time>
      </trkpt>
      <trkpt lat="46.08524" lon="7.04091">
        <ele>892</ele>
        <time>2018-05-10T09:41:45Z</time>
      </trkpt>
      <trkpt lat="46.0858" lon="7.04186">
        <ele>877</ele>
        <time>2018-05-10T09:42:45Z</time>
      </trkpt>
      <trkpt lat="46.08619" lon="7.04237">
        <ele>890</ele>
        <time>2018-05-10T09:43:45Z</time>
      </trkpt>
      <trkpt lat="46.08674" lon="7.04306">
        <ele>883</ele>
        <time>2018-05-10T09:44:45Z</time>
      </trkpt>
      <trkpt lat="46.08731" lon="7.04374">
        <ele>862</ele>
        <time>2018-05-10T09:45:45Z</time>
      </trkpt>
      <trkpt lat="46.08795" lon="7.04436">
        <ele>855</ele>
        <time>2018-05-10T09:46:45Z</time>
      </trkpt>
      <trkpt lat="46.0883" lon="7.04468">
        <ele>851</ele>
        <time>2018-05-10T09:47:45Z</time>
      </trkpt>
      <trkpt lat="46.08883" lon="7.04518">
        <ele>841</ele>
        <time>2018-05-10T09:48:45Z</time>
      </trkpt>
      <trkpt lat="46.08905" lon="7.04535">
        <ele>840</ele>
        <time>2018-05-10T09:49:45Z</time>
      </trkpt>
      <trkpt lat="46.08927" lon="7.04542">
        <ele>852</ele>
        <time>2018-05-10T09:50:45Z</time>
      </trkpt>
      <trkpt lat="46.0893" lon="7.04544">
        <ele>852</ele>
        <time>2018-05-10T09:51:45Z</time>
      </trkpt>
      <trkpt lat="46.08958" lon="7.04557">
        <ele>852</ele>
        <time>2018-05-10T09:52:45Z</time>
      </trkpt>
      <trkpt lat="46.09009" lon="7.04598">
        <ele>839</ele>
        <time>2018-05-10T09:53:45Z</time>
      </trkpt>
      <trkpt lat="46.09056" lon="7.04645">
        <ele>836</ele>
        <time>2018-05-10T09:54:45Z</time>
      </trkpt>
      <trkpt lat="46.0909" lon="7.04688">
        <ele>833</ele>
        <time>2018-05-10T09:55:45Z</time>
      </trkpt>
      <trkpt lat="46.09121" lon="7.04735">
        <ele>831</ele>
        <time>2018-05-10T09:56:45Z</time>
      </trkpt>
      <trkpt lat="46.09143" lon="7.04782">
        <ele>813</ele>
        <time>2018-05-10T09:57:45Z</time>
      </trkpt>
      <trkpt lat="46.09159" lon="7.04834">
        <ele>806</ele>
        <time>2018-05-10T09:58:45Z</time>
      </trkpt>
      <trkpt lat="46.09166" lon="7.04853">
        <ele>795</ele>
        <time>2018-05-10T09:59:45Z</time>
      </trkpt>
      <trkpt lat="46.09171" lon="7.04868">
        <ele>821</ele>
        <time>2018-05-10T10:00:45Z</time>
      </trkpt>
      <trkpt lat="46.09177" lon="7.04888">
        <ele>816</ele>
        <time>2018-05-10T10:01:45Z</time>
      </trkpt>
      <trkpt lat="46.09191" lon="7.04913">
        <ele>813</ele>
        <time>2018-05-10T10:02:45Z</time>
      </trkpt>
      <trkpt lat="46.09217" lon="7.04944">
        <ele>801</ele>
        <time>2018-05-10T10:03:45Z</time>
      </trkpt>
      <trkpt lat="46.09233" lon="7.04964">
        <ele>800</ele>
        <time>2018-05-10T10:04:45Z</time>
      </trkpt>
      <trkpt lat="46.09256" lon="7.05001">
        <ele>802</ele>
        <time>2018-05-10T10:05:45Z</time>
      </trkpt>
      <trkpt lat="46.09277" lon="7.05034">
        <ele>803</ele>
        <time>2018-05-10T10:06:45Z</time>
      </trkpt>
      <trkpt lat="46.09302" lon="7.05074">
        <ele>802</ele>
        <time>2018-05-10T10:07:45Z</time>
      </trkpt>
      <trkpt lat="46.09332" lon="7.05121">
        <ele>773</ele>
        <time>2018-05-10T10:08:45Z</time>
      </trkpt>
      <trkpt lat="46.09359" lon="7.05157">
        <ele>793</ele>
        <time>2018-05-10T10:09:45Z</time>
      </trkpt>
      <trkpt lat="46.09391" lon="7.05193">
        <ele>771</ele>
        <time>2018-05-10T10:10:45Z</time>
      </trkpt>
      <trkpt lat="46.09424" lon="7.05225">
        <ele>782</ele>
        <time>2018-05-10T10:11:45Z</time>
      </trkpt>
      <trkpt lat="46.09475" lon="7.05257">
        <ele>765</ele>
        <time>2018-05-10T10:12:45Z</time>
      </trkpt>
      <trkpt lat="46.0952" lon="7.05292">
        <ele>779</ele>
        <time>2018-05-10T10:13:45Z</time>
      </trkpt>
      <trkpt lat="46.09585" lon="7.05352">
        <ele>763</ele>
        <time>2018-05-10T10:14:45Z</time>
      </trkpt>
      <trkpt lat="46.09631" lon="7.05394">
        <ele>755</ele>
        <time>2018-05-10T10:15:45Z</time>
      </trkpt>
      <trkpt lat="46.09651" lon="7.05412">
        <ele>752</ele>
        <time>2018-05-10T10:16:45Z</time>
      </trkpt>
      <trkpt lat="46.09665" lon="7.05424">
        <ele>739</ele>
        <time>2018-05-10T10:17:45Z</time>
      </trkpt>
      <trkpt lat="46.09715" lon="7.05452">
        <ele>742</ele>
        <time>2018-05-10T10:18:45Z</time>
      </trkpt>
      <trkpt lat="46.09719" lon="7.05455">
        <ele>742</ele>
        <time>2018-05-10T10:19:45Z</time>
      </trkpt>
      <trkpt lat="46.09724" lon="7.05458">
        <ele>742</ele>
        <time>2018-05-10T10:20:45Z</time>
      </trkpt>
      <trkpt lat="46.09727" lon="7.05461">
        <ele>742</ele>
        <time>2018-05-10T10:21:45Z</time>
      </trkpt>
      <trkpt lat="46.09733" lon="7.05467">
        <ele>741</ele>
        <time>2018-05-10T10:22:45Z</time>
      </trkpt>
      <trkpt lat="46.09758" lon="7.05496">
        <ele>744</ele>
        <time>2018-05-10T10:23:45Z</time>
      </trkpt>
      <trkpt lat="46.09798" lon="7.05548">
        <ele>731</ele>
        <time>2018-05-10T10:24:45Z</time>
      </trkpt>
      <trkpt lat="46.09821" lon="7.05577">
        <ele>731</ele>
        <time>2018-05-10T10:25:45Z</time>
      </trkpt>
      <trkpt lat="46.09838" lon="7.05598">
        <ele>730</ele>
        <time>2018-05-10T10:26:45Z</time>
      </trkpt>
      <trkpt lat="46.09897" lon="7.05676">
        <ele>714</ele>
        <time>2018-05-10T10:27:45Z</time>
      </trkpt>
      <trkpt lat="46.09922" lon="7.05709">
        <ele>726</ele>
        <time>2018-05-10T10:28:45Z</time>
      </trkpt>
      <trkpt lat="46.09942" lon="7.05742">
        <ele>721</ele>
        <time>2018-05-10T10:29:45Z</time>
      </trkpt>
      <trkpt lat="46.09969" lon="7.05795">
        <ele>710</ele>
        <time>2018-05-10T10:30:45Z</time>
      </trkpt>
      <trkpt lat="46.0997" lon="7.05798">
        <ele>710</ele>
        <time>2018-05-10T10:31:45Z</time>
      </trkpt>
      <trkpt lat="46.09982" lon="7.05839">
        <ele>703</ele>
        <time>2018-05-10T10:32:45Z</time>
      </trkpt>
      <trkpt lat="46.09994" lon="7.05893">
        <ele>695</ele>
        <time>2018-05-10T10:33:45Z</time>
      </trkpt>
      <trkpt lat="46.10009" lon="7.05944">
        <ele>708</ele>
        <time>2018-05-10T10:34:45Z</time>
      </trkpt>
      <trkpt lat="46.10018" lon="7.05965">
        <ele>707</ele>
        <time>2018-05-10T10:35:45Z</time>
      </trkpt>
      <trkpt lat="46.10029" lon="7.05997">
        <ele>705</ele>
        <time>2018-05-10T10:36:45Z</time>
      </trkpt>
      <trkpt lat="46.10041" lon="7.06026">
        <ele>692</ele>
        <time>2018-05-10T10:37:45Z</time>
      </trkpt>
      <trkpt lat="46.10062" lon="7.06065">
        <ele>690</ele>
        <time>2018-05-10T10:38:45Z</time>
      </trkpt>
      <trkpt lat="46.1008" lon="7.06084">
        <ele>686</ele>
        <time>2018-05-10T10:39:45Z</time>
      </trkpt>
      <trkpt lat="46.1011" lon="7.06118">
        <ele>689</ele>
        <time>2018-05-10T10:40:45Z</time>
      </trkpt>
      <trkpt lat="46.10178" lon="7.06201">
        <ele>685</ele>
        <time>2018-05-10T10:41:45Z</time>
      </trkpt>
      <trkpt lat="46.10186" lon="7.06211">
        <ele>684</ele>
        <time>2018-05-10T10:42:45Z</time>
      </trkpt>
      <trkpt lat="46.10229" lon="7.06266">
        <ele>669</ele>
        <time>2018-05-10T10:43:45Z</time>
      </trkpt>
      <trkpt lat="46.10307" lon="7.0637">
        <ele>663</ele>
        <time>2018-05-10T10:44:45Z</time>
      </trkpt>
      <trkpt lat="46.10333" lon="7.06404">
        <ele>659</ele>
        <time>2018-05-10T10:45:45Z</time>
      </trkpt>
      <trkpt lat="46.1036" lon="7.06418">
        <ele>660</ele>
        <time>2018-05-10T10:46:45Z</time>
      </trkpt>
      <trkpt lat="46.10363" lon="7.0642">
        <ele>661</ele>
        <time>2018-05-10T10:47:45Z</time>
      </trkpt>
      <trkpt lat="46.10364" lon="7.06422">
        <ele>661</ele>
        <time>2018-05-10T10:48:45Z</time>
      </trkpt>
      <trkpt lat="46.10365" lon="7.06423">
        <ele>661</ele>
        <time>2018-05-10T10:49:45Z</time>
      </trkpt>
      <trkpt lat="46.10366" lon="7.06424">
        <ele>661</ele>
        <time>2018-05-10T10:50:45Z</time>
      </trkpt>
      <trkpt lat="46.10367" lon="7.06427">
        <ele>661</ele>
        <time>2018-05-10T10:51:45Z</time>
      </trkpt>
      <trkpt lat="46.10367" lon="7.06429">
        <ele>661</ele>
        <time>2018-05-10T10:52:45Z</time>
      </trkpt>
      <trkpt lat="46.10367" lon="7.06432">
        <ele>660</ele>
        <time>2018-05-10T10:53:45Z</time>
      </trkpt>
      <trkpt lat="46.10367" lon="7.06434">
        <ele>660</ele>
        <time>2018-05-10T10:54:45Z</time>
      </trkpt>
      <trkpt lat="46.10367" lon="7.06436">
        <ele>660</ele>
        <time>2018-05-10T10:55:45Z</time>
      </trkpt>
      <trkpt lat="46.10367" lon="7.06438">
        <ele>659</ele>
        <time>2018-05-10T10:56:45Z</time>
      </trkpt>
      <trkpt lat="46.10366" lon="7.0644">
        <ele>659</ele>
        <time>2018-05-10T10:57:45Z</time>
      </trkpt>
      <trkpt lat="46.10365" lon="7.06442">
        <ele>658</ele>
        <time>2018-05-10T10:58:45Z</time>
      </trkpt>
      <trkpt lat="46.10364" lon="7.06443">
        <ele>658</ele>
        <time>2018-05-10T10:59:45Z</time>
      </trkpt>
      <trkpt lat="46.10363" lon="7.06445">
        <ele>657</ele>
        <time>2018-05-10T11:00:45Z</time>
      </trkpt>
      <trkpt lat="46.10362" lon="7.06446">
        <ele>657</ele>
        <time>2018-05-10T11:01:45Z</time>
      </trkpt>
      <trkpt lat="46.1036" lon="7.06447">
        <ele>656</ele>
        <time>2018-05-10T11:02:45Z</time>
      </trkpt>
      <trkpt lat="46.10359" lon="7.06447">
        <ele>656</ele>
        <time>2018-05-10T11:03:45Z</time>
      </trkpt>
      <trkpt lat="46.10357" lon="7.06448">
        <ele>656</ele>
        <time>2018-05-10T11:04:45Z</time>
      </trkpt>
      <trkpt lat="46.10355" lon="7.06448">
        <ele>655</ele>
        <time>2018-05-10T11:05:45Z</time>
      </trkpt>
      <trkpt lat="46.10354" lon="7.06447">
        <ele>655</ele>
        <time>2018-05-10T11:06:45Z</time>
      </trkpt>
      <trkpt lat="46.10353" lon="7.06447">
        <ele>655</ele>
        <time>2018-05-10T11:07:45Z</time>
      </trkpt>
      <trkpt lat="46.10351" lon="7.06446">
        <ele>655</ele>
        <time>2018-05-10T11:08:45Z</time>
      </trkpt>
      <trkpt lat="46.10348" lon="7.06444">
        <ele>655</ele>
        <time>2018-05-10T11:09:45Z</time>
      </trkpt>
      <trkpt lat="46.10331" lon="7.06422">
        <ele>650</ele>
        <time>2018-05-10T11:10:45Z</time>
      </trkpt>
      <trkpt lat="46.10306" lon="7.06395">
        <ele>657</ele>
        <time>2018-05-10T11:11:45Z</time>
      </trkpt>
      <trkpt lat="46.10298" lon="7.06388">
        <ele>656</ele>
        <time>2018-05-10T11:12:45Z</time>
      </trkpt>
      <trkpt lat="46.10244" lon="7.06343">
        <ele>640</ele>
        <time>2018-05-10T11:13:45Z</time>
      </trkpt>
      <trkpt lat="46.1018" lon="7.0629">
        <ele>649</ele>
        <time>2018-05-10T11:14:45Z</time>
      </trkpt>
      <trkpt lat="46.10174" lon="7.06285">
        <ele>650</ele>
        <time>2018-05-10T11:15:45Z</time>
      </trkpt>
      <trkpt lat="46.10168" lon="7.0628">
        <ele>650</ele>
        <time>2018-05-10T11:16:45Z</time>
      </trkpt>
      <trkpt lat="46.10154" lon="7.06269">
        <ele>629</ele>
        <time>2018-05-10T11:17:45Z</time>
      </trkpt>
      <trkpt lat="46.10124" lon="7.06247">
        <ele>643</ele>
        <time>2018-05-10T11:18:45Z</time>
      </trkpt>
      <trkpt lat="46.10083" lon="7.06219">
        <ele>618</ele>
        <time>2018-05-10T11:19:45Z</time>
      </trkpt>
      <trkpt lat="46.10049" lon="7.06207">
        <ele>616</ele>
        <time>2018-05-10T11:20:45Z</time>
      </trkpt>
      <trkpt lat="46.10029" lon="7.062">
        <ele>614</ele>
        <time>2018-05-10T11:21:45Z</time>
      </trkpt>
      <trkpt lat="46.10023" lon="7.06199">
        <ele>613</ele>
        <time>2018-05-10T11:22:45Z</time>
      </trkpt>
      <trkpt lat="46.09998" lon="7.06185">
        <ele>599</ele>
        <time>2018-05-10T11:23:45Z</time>
      </trkpt>
      <trkpt lat="46.09983" lon="7.06162">
        <ele>620</ele>
        <time>2018-05-10T11:24:45Z</time>
      </trkpt>
      <trkpt lat="46.09971" lon="7.0614">
        <ele>619</ele>
        <time>2018-05-10T11:25:45Z</time>
      </trkpt>
      <trkpt lat="46.09962" lon="7.06124">
        <ele>620</ele>
        <time>2018-05-10T11:26:45Z</time>
      </trkpt>
      <trkpt lat="46.09949" lon="7.06107">
        <ele>620</ele>
        <time>2018-05-10T11:27:45Z</time>
      </trkpt>
      <trkpt lat="46.09945" lon="7.06103">
        <ele>619</ele>
        <time>2018-05-10T11:28:45Z</time>
      </trkpt>
      <trkpt lat="46.09923" lon="7.06083">
        <ele>623</ele>
        <time>2018-05-10T11:29:45Z</time>
      </trkpt>
      <trkpt lat="46.09783" lon="7.05944">
        <ele>601</ele>
        <time>2018-05-10T11:30:45Z</time>
      </trkpt>
      <trkpt lat="46.09775" lon="7.05939">
        <ele>601</ele>
        <time>2018-05-10T11:31:45Z</time>
      </trkpt>
      <trkpt lat="46.09766" lon="7.05937">
        <ele>601</ele>
        <time>2018-05-10T11:32:45Z</time>
      </trkpt>
      <trkpt lat="46.09758" lon="7.05937">
        <ele>601</ele>
        <time>2018-05-10T11:33:45Z</time>
      </trkpt>
      <trkpt lat="46.09749" lon="7.0594">
        <ele>590</ele>
        <time>2018-05-10T11:34:45Z</time>
      </trkpt>
      <trkpt lat="46.09748" lon="7.05941">
        <ele>589</ele>
        <time>2018-05-10T11:35:45Z</time>
      </trkpt>
      <trkpt lat="46.09719" lon="7.05952">
        <ele>582</ele>
        <time>2018-05-10T11:36:45Z</time>
      </trkpt>
      <trkpt lat="46.09689" lon="7.05945">
        <ele>582</ele>
        <time>2018-05-10T11:37:45Z</time>
      </trkpt>
      <trkpt lat="46.0967" lon="7.05935">
        <ele>585</ele>
        <time>2018-05-10T11:38:45Z</time>
      </trkpt>
      <trkpt lat="46.09582" lon="7.05875">
        <ele>560</ele>
        <time>2018-05-10T11:39:45Z</time>
      </trkpt>
      <trkpt lat="46.09558" lon="7.05845">
        <ele>563</ele>
        <time>2018-05-10T11:40:45Z</time>
      </trkpt>
      <trkpt lat="46.0954" lon="7.05824">
        <ele>575</ele>
        <time>2018-05-10T11:41:45Z</time>
      </trkpt>
      <trkpt lat="46.09522" lon="7.05809">
        <ele>573</ele>
        <time>2018-05-10T11:42:45Z</time>
      </trkpt>
      <trkpt lat="46.095" lon="7.05791">
        <ele>558</ele>
        <time>2018-05-10T11:43:45Z</time>
      </trkpt>
      <trkpt lat="46.09439" lon="7.05753">
        <ele>553</ele>
        <time>2018-05-10T11:44:45Z</time>
      </trkpt>
      <trkpt lat="46.09391" lon="7.05723">
        <ele>549</ele>
        <time>2018-05-10T11:45:45Z</time>
      </trkpt>
      <trkpt lat="46.09356" lon="7.05687">
        <ele>548</ele>
        <time>2018-05-10T11:46:45Z</time>
      </trkpt>
      <trkpt lat="46.09333" lon="7.05662">
        <ele>546</ele>
        <time>2018-05-10T11:47:45Z</time>
      </trkpt>
      <trkpt lat="46.0929" lon="7.05611">
        <ele>544</ele>
        <time>2018-05-10T11:48:45Z</time>
      </trkpt>
      <trkpt lat="46.09268" lon="7.05591">
        <ele>541</ele>
        <time>2018-05-10T11:49:45Z</time>
      </trkpt>
      <trkpt lat="46.09241" lon="7.05576">
        <ele>537</ele>
        <time>2018-05-10T11:50:45Z</time>
      </trkpt>
      <trkpt lat="46.09219" lon="7.05559">
        <ele>537</ele>
        <time>2018-05-10T11:51:45Z</time>
      </trkpt>
      <trkpt lat="46.09199" lon="7.05539">
        <ele>536</ele>
        <time>2018-05-10T11:52:45Z</time>
      </trkpt>
      <trkpt lat="46.09189" lon="7.05528">
        <ele>536</ele>
        <time>2018-05-10T11:53:45Z</time>
      </trkpt>
      <trkpt lat="46.09165" lon="7.05504">
        <ele>530</ele>
        <time>2018-05-10T11:54:45Z</time>
      </trkpt>
      <trkpt lat="46.09138" lon="7.05486">
        <ele>533</ele>
        <time>2018-05-10T11:55:45Z</time>
      </trkpt>
      <trkpt lat="46.09087" lon="7.05465">
        <ele>528</ele>
        <time>2018-05-10T11:56:45Z</time>
      </trkpt>
      <trkpt lat="46.09048" lon="7.05449">
        <ele>519</ele>
        <time>2018-05-10T11:57:45Z</time>
      </trkpt>
      <trkpt lat="46.09007" lon="7.05435">
        <ele>522</ele>
        <time>2018-05-10T11:58:45Z</time>
      </trkpt>
      <trkpt lat="46.0899" lon="7.05434">
        <ele>519</ele>
        <time>2018-05-10T11:59:45Z</time>
      </trkpt>
      <trkpt lat="46.08988" lon="7.05435">
        <ele>518</ele>
        <time>2018-05-10T12:00:45Z</time>
      </trkpt>
      <trkpt lat="46.08975" lon="7.0544">
        <ele>515</ele>
        <time>2018-05-10T12:01:45Z</time>
      </trkpt>
      <trkpt lat="46.08962" lon="7.0545">
        <ele>513</ele>
        <time>2018-05-10T12:02:45Z</time>
      </trkpt>
      <trkpt lat="46.08948" lon="7.05462">
        <ele>510</ele>
        <time>2018-05-10T12:03:45Z</time>
      </trkpt>
      <trkpt lat="46.08924" lon="7.05481">
        <ele>505</ele>
        <time>2018-05-10T12:04:45Z</time>
      </trkpt>
      <trkpt lat="46.08911" lon="7.05487">
        <ele>503</ele>
        <time>2018-05-10T12:05:45Z</time>
      </trkpt>
      <trkpt lat="46.0888" lon="7.05491">
        <ele>508</ele>
        <time>2018-05-10T12:06:45Z</time>
      </trkpt>
      <trkpt lat="46.08857" lon="7.05492">
        <ele>508</ele>
        <time>2018-05-10T12:07:45Z</time>
      </trkpt>
      <trkpt lat="46.08852" lon="7.05492">
        <ele>508</ele>
        <time>2018-05-10T12:08:45Z</time>
      </trkpt>
      <trkpt lat="46.08845" lon="7.05493">
        <ele>507</ele>
        <time>2018-05-10T12:09:45Z</time>
      </trkpt>
      <trkpt lat="46.0884" lon="7.05494">
        <ele>506</ele>
        <time>2018-05-10T12:10:45Z</time>
      </trkpt>
      <trkpt lat="46.08836" lon="7.05496">
        <ele>505</ele>
        <time>2018-05-10T12:11:45Z</time>
      </trkpt>
      <trkpt lat="46.08832" lon="7.05498">
        <ele>505</ele>
        <time>2018-05-10T12:12:45Z</time>
      </trkpt>
      <trkpt lat="46.08827" lon="7.05501">
        <ele>504</ele>
        <time>2018-05-10T12:13:45Z</time>
      </trkpt>
      <trkpt lat="46.0882" lon="7.05506">
        <ele>504</ele>
        <time>2018-05-10T12:14:45Z</time>
      </trkpt>
      <trkpt lat="46.08805" lon="7.05522">
        <ele>504</ele>
        <time>2018-05-10T12:15:45Z</time>
      </trkpt>
      <trkpt lat="46.08805" lon="7.05522">
        <ele>504</ele>
        <time>2018-05-10T12:16:45Z</time>
      </trkpt>
      <trkpt lat="46.08803" lon="7.05522">
        <ele>504</ele>
        <time>2018-05-10T12:17:45Z</time>
      </trkpt>
      <trkpt lat="46.08801" lon="7.05522">
        <ele>504</ele>
        <time>2018-05-10T12:18:45Z</time>
      </trkpt>
      <trkpt lat="46.08799" lon="7.05522">
        <ele>504</ele>
        <time>2018-05-10T12:19:45Z</time>
      </trkpt>
      <trkpt lat="46.08797" lon="7.05523">
        <ele>504</ele>
        <time>2018-05-10T12:20:45Z</time>
      </trkpt>
      <trkpt lat="46.08796" lon="7.05524">
        <ele>504</ele>
        <time>2018-05-10T12:21:45Z</time>
      </trkpt>
      <trkpt lat="46.08795" lon="7.05525">
        <ele>504</ele>
        <time>2018-05-10T12:22:45Z</time>
      </trkpt>
      <trkpt lat="46.08721" lon="7.05481">
        <ele>508</ele>
        <time>2018-05-10T12:23:45Z</time>
      </trkpt>
      <trkpt lat="46.0869" lon="7.05464">
        <ele>509</ele>
        <time>2018-05-10T12:24:45Z</time>
      </trkpt>
      <trkpt lat="46.08678" lon="7.05458">
        <ele>510</ele>
        <time>2018-05-10T12:25:45Z</time>
      </trkpt>
      <trkpt lat="46.0867" lon="7.05459">
        <ele>510</ele>
        <time>2018-05-10T12:26:45Z</time>
      </trkpt>
      <trkpt lat="46.08653" lon="7.05452">
        <ele>512</ele>
        <time>2018-05-10T12:27:45Z</time>
      </trkpt>
      <trkpt lat="46.08638" lon="7.05448">
        <ele>512</ele>
        <time>2018-05-10T12:28:45Z</time>
      </trkpt>
      <trkpt lat="46.0863" lon="7.05446">
        <ele>512</ele>
        <time>2018-05-10T12:29:45Z</time>
      </trkpt>
      <trkpt lat="46.08625" lon="7.05445">
        <ele>512</ele>
        <time>2018-05-10T12:30:45Z</time>
      </trkpt>
      <trkpt lat="46.08617" lon="7.05443">
        <ele>513</ele>
        <time>2018-05-10T12:31:45Z</time>
      </trkpt>
      <trkpt lat="46.08579" lon="7.05438">
        <ele>515</ele>
        <time>2018-05-10T12:32:45Z</time>
      </trkpt>
      <trkpt lat="46.0857" lon="7.05438">
        <ele>515</ele>
        <time>2018-05-10T12:33:45Z</time>
      </trkpt>
      <trkpt lat="46.0856" lon="7.05437">
        <ele>515</ele>
        <time>2018-05-10T12:34:45Z</time>
      </trkpt>
      <trkpt lat="46.08512" lon="7.05437">
        <ele>515</ele>
        <time>2018-05-10T12:35:45Z</time>
      </trkpt>
      <trkpt lat="46.08462" lon="7.05433">
        <ele>514</ele>
        <time>2018-05-10T12:36:45Z</time>
      </trkpt>
      <trkpt lat="46.08457" lon="7.05432">
        <ele>514</ele>
        <time>2018-05-10T12:37:45Z</time>
      </trkpt>
      <trkpt lat="46.08453" lon="7.05431">
        <ele>514</ele>
        <time>2018-05-10T12:38:45Z</time>
      </trkpt>
      <trkpt lat="46.08449" lon="7.05429">
        <ele>514</ele>
        <time>2018-05-10T12:39:45Z</time>
      </trkpt>
      <trkpt lat="46.08442" lon="7.05425">
        <ele>515</ele>
        <time>2018-05-10T12:40:45Z</time>
      </trkpt>
      <trkpt lat="46.08438" lon="7.05422">
        <ele>515</ele>
        <time>2018-05-10T12:41:45Z</time>
      </trkpt>
      <trkpt lat="46.08433" lon="7.05419">
        <ele>515</ele>
        <time>2018-05-10T12:42:45Z</time>
      </trkpt>
      <trkpt lat="46.08422" lon="7.0541">
        <ele>519</ele>
        <time>2018-05-10T12:43:45Z</time>
      </trkpt>
      <trkpt lat="46.08416" lon="7.05405">
        <ele>518</ele>
        <time>2018-05-10T12:44:45Z</time>
      </trkpt>
      <trkpt lat="46.08411" lon="7.05399">
        <ele>519</ele>
        <time>2018-05-10T12:45:45Z</time>
      </trkpt>
      <trkpt lat="46.08407" lon="7.05393">
        <ele>519</ele>
        <time>2018-05-10T12:46:45Z</time>
      </trkpt>
      <trkpt lat="46.08406" lon="7.05391">
        <ele>519</ele>
        <time>2018-05-10T12:47:45Z</time>
      </trkpt>
      <trkpt lat="46.08404" lon="7.05388">
        <ele>519</ele>
        <time>2018-05-10T12:48:45Z</time>
      </trkpt>
      <trkpt lat="46.08391" lon="7.05369">
        <ele>521</ele>
        <time>2018-05-10T12:49:45Z</time>
      </trkpt>
      <trkpt lat="46.08359" lon="7.05333">
        <ele>529</ele>
        <time>2018-05-10T12:50:45Z</time>
      </trkpt>
      <trkpt lat="46.08351" lon="7.05324">
        <ele>529</ele>
        <time>2018-05-10T12:51:45Z</time>
      </trkpt>
      <trkpt lat="46.08343" lon="7.05317">
        <ele>529</ele>
        <time>2018-05-10T12:52:45Z</time>
      </trkpt>
      <trkpt lat="46.08336" lon="7.05312">
        <ele>529</ele>
        <time>2018-05-10T12:53:45Z</time>
      </trkpt>
      <trkpt lat="46.08329" lon="7.05307">
        <ele>530</ele>
        <time>2018-05-10T12:54:45Z</time>
      </trkpt>
      <trkpt lat="46.08321" lon="7.05303">
        <ele>532</ele>
        <time>2018-05-10T12:55:45Z</time>
      </trkpt>
      <trkpt lat="46.08314" lon="7.053">
        <ele>533</ele>
        <time>2018-05-10T12:56:45Z</time>
      </trkpt>
      <trkpt lat="46.08305" lon="7.05296">
        <ele>534</ele>
        <time>2018-05-10T12:57:45Z</time>
      </trkpt>
      <trkpt lat="46.08295" lon="7.05294">
        <ele>534</ele>
        <time>2018-05-10T12:58:45Z</time>
      </trkpt>
      <trkpt lat="46.08281" lon="7.0529">
        <ele>535</ele>
        <time>2018-05-10T12:59:45Z</time>
      </trkpt>
      <trkpt lat="46.08274" lon="7.05289">
        <ele>535</ele>
        <time>2018-05-10T13:00:45Z</time>
      </trkpt>
      <trkpt lat="46.08268" lon="7.0529">
        <ele>535</ele>
        <time>2018-05-10T13:01:45Z</time>
      </trkpt>
      <trkpt lat="46.08261" lon="7.05291">
        <ele>535</ele>
        <time>2018-05-10T13:02:45Z</time>
      </trkpt>
      <trkpt lat="46.08255" lon="7.05293">
        <ele>535</ele>
        <time>2018-05-10T13:03:45Z</time>
      </trkpt>
      <trkpt lat="46.08247" lon="7.05295">
        <ele>539</ele>
        <time>2018-05-10T13:04:45Z</time>
      </trkpt>
      <trkpt lat="46.0824" lon="7.05298">
        <ele>539</ele>
        <time>2018-05-10T13:05:45Z</time>
      </trkpt>
      <trkpt lat="46.08233" lon="7.05302">
        <ele>538</ele>
        <time>2018-05-10T13:06:45Z</time>
      </trkpt>
      <trkpt lat="46.08166" lon="7.05339">
        <ele>536</ele>
        <time>2018-05-10T13:07:45Z</time>
      </trkpt>
      <trkpt lat="46.08158" lon="7.05344">
        <ele>534</ele>
        <time>2018-05-10T13:08:45Z</time>
      </trkpt>
      <trkpt lat="46.08153" lon="7.05347">
        <ele>534</ele>
        <time>2018-05-10T13:09:45Z</time>
      </trkpt>
      <trkpt lat="46.08146" lon="7.0535">
        <ele>533</ele>
        <time>2018-05-10T13:10:45Z</time>
      </trkpt>
      <trkpt lat="46.08143" lon="7.05352">
        <ele>533</ele>
        <time>2018-05-10T13:11:45Z</time>
      </trkpt>
      <trkpt lat="46.08143" lon="7.05352">
        <ele>533</ele>
        <time>2018-05-10T13:12:45Z</time>
      </trkpt>
      <trkpt lat="46.08139" lon="7.05354">
        <ele>533</ele>
        <time>2018-05-10T13:13:45Z</time>
      </trkpt>
      <trkpt lat="46.08133" lon="7.05356">
        <ele>532</ele>
        <time>2018-05-10T13:14:45Z</time>
      </trkpt>
      <trkpt lat="46.08126" lon="7.05358">
        <ele>533</ele>
        <time>2018-05-10T13:15:45Z</time>
      </trkpt>
      <trkpt lat="46.08116" lon="7.05359">
        <ele>533</ele>
        <time>2018-05-10T13:16:45Z</time>
      </trkpt>
      <trkpt lat="46.08106" lon="7.0536">
        <ele>533</ele>
        <time>2018-05-10T13:17:45Z</time>
      </trkpt>
      <trkpt lat="46.08078" lon="7.0536">
        <ele>537</ele>
        <time>2018-05-10T13:18:45Z</time>
      </trkpt>
      <trkpt lat="46.07983" lon="7.05366">
        <ele>539</ele>
        <time>2018-05-10T13:19:45Z</time>
      </trkpt>
      <trkpt lat="46.07976" lon="7.05366">
        <ele>539</ele>
        <time>2018-05-10T13:20:45Z</time>
      </trkpt>
      <trkpt lat="46.07968" lon="7.05366">
        <ele>539</ele>
        <time>2018-05-10T13:21:45Z</time>
      </trkpt>
      <trkpt lat="46.0796" lon="7.05365">
        <ele>539</ele>
        <time>2018-05-10T13:22:45Z</time>
      </trkpt>
      <trkpt lat="46.07954" lon="7.05364">
        <ele>539</ele>
        <time>2018-05-10T13:23:45Z</time>
      </trkpt>
      <trkpt lat="46.07946" lon="7.05364">
        <ele>539</ele>
        <time>2018-05-10T13:24:45Z</time>
      </trkpt>
      <trkpt lat="46.07939" lon="7.05363">
        <ele>539</ele>
        <time>2018-05-10T13:25:45Z</time>
      </trkpt>
      <trkpt lat="46.07931" lon="7.05362">
        <ele>539</ele>
        <time>2018-05-10T13:26:45Z</time>
      </trkpt>
      <trkpt lat="46.07925" lon="7.0536">
        <ele>539</ele>
        <time>2018-05-10T13:27:45Z</time>
      </trkpt>
      <trkpt lat="46.0792" lon="7.05359">
        <ele>539</ele>
        <time>2018-05-10T13:28:45Z</time>
      </trkpt>
      <trkpt lat="46.07916" lon="7.05356">
        <ele>539</ele>
        <time>2018-05-10T13:29:45Z</time>
      </trkpt>
      <trkpt lat="46.07893" lon="7.05341">
        <ele>539</ele>
        <time>2018-05-10T13:30:45Z</time>
      </trkpt>
      <trkpt lat="46.07884" lon="7.05334">
        <ele>538</ele>
        <time>2018-05-10T13:31:45Z</time>
      </trkpt>
      <trkpt lat="46.07874" lon="7.05327">
        <ele>545</ele>
        <time>2018-05-10T13:32:45Z</time>
      </trkpt>
      <trkpt lat="46.07841" lon="7.05301">
        <ele>546</ele>
        <time>2018-05-10T13:33:45Z</time>
      </trkpt>
      <trkpt lat="46.07775" lon="7.05248">
        <ele>551</ele>
        <time>2018-05-10T13:34:45Z</time>
      </trkpt>
      <trkpt lat="46.07736" lon="7.05219">
        <ele>549</ele>
        <time>2018-05-10T13:35:45Z</time>
      </trkpt>
      <trkpt lat="46.07712" lon="7.05203">
        <ele>550</ele>
        <time>2018-05-10T13:36:45Z</time>
      </trkpt>
      <trkpt lat="46.07685" lon="7.05187">
        <ele>551</ele>
        <time>2018-05-10T13:37:45Z</time>
      </trkpt>
      <trkpt lat="46.07677" lon="7.05183">
        <ele>552</ele>
        <time>2018-05-10T13:38:45Z</time>
      </trkpt>
      <trkpt lat="46.0767" lon="7.0518">
        <ele>553</ele>
        <time>2018-05-10T13:39:45Z</time>
      </trkpt>
      <trkpt lat="46.07661" lon="7.05176">
        <ele>555</ele>
        <time>2018-05-10T13:40:45Z</time>
      </trkpt>
      <trkpt lat="46.07653" lon="7.05174">
        <ele>555</ele>
        <time>2018-05-10T13:41:45Z</time>
      </trkpt>
      <trkpt lat="46.07641" lon="7.0517">
        <ele>555</ele>
        <time>2018-05-10T13:42:45Z</time>
      </trkpt>
      <trkpt lat="46.07636" lon="7.05169">
        <ele>555</ele>
        <time>2018-05-10T13:43:45Z</time>
      </trkpt>
      <trkpt lat="46.07625" lon="7.05169">
        <ele>556</ele>
        <time>2018-05-10T13:44:45Z</time>
      </trkpt>
      <trkpt lat="46.07614" lon="7.05166">
        <ele>570</ele>
        <time>2018-05-10T13:45:45Z</time>
      </trkpt>
      <trkpt lat="46.07605" lon="7.05165">
        <ele>571</ele>
        <time>2018-05-10T13:46:45Z</time>
      </trkpt>
      <trkpt lat="46.07595" lon="7.05164">
        <ele>570</ele>
        <time>2018-05-10T13:47:45Z</time>
      </trkpt>
      <trkpt lat="46.07587" lon="7.05164">
        <ele>569</ele>
        <time>2018-05-10T13:48:45Z</time>
      </trkpt>
      <trkpt lat="46.07579" lon="7.05165">
        <ele>572</ele>
        <time>2018-05-10T13:49:45Z</time>
      </trkpt>
      <trkpt lat="46.07569" lon="7.05166">
        <ele>577</ele>
        <time>2018-05-10T13:50:45Z</time>
      </trkpt>
      <trkpt lat="46.07561" lon="7.05167">
        <ele>568</ele>
        <time>2018-05-10T13:51:45Z</time>
      </trkpt>
      <trkpt lat="46.07552" lon="7.05169">
        <ele>569</ele>
        <time>2018-05-10T13:52:45Z</time>
      </trkpt>
      <trkpt lat="46.07541" lon="7.05174">
        <ele>570</ele>
        <time>2018-05-10T13:53:45Z</time>
      </trkpt>
      <trkpt lat="46.07523" lon="7.05183">
        <ele>573</ele>
        <time>2018-05-10T13:54:45Z</time>
      </trkpt>
      <trkpt lat="46.07513" lon="7.05188">
        <ele>574</ele>
        <time>2018-05-10T13:55:45Z</time>
      </trkpt>
      <trkpt lat="46.075" lon="7.05195">
        <ele>573</ele>
        <time>2018-05-10T13:56:45Z</time>
      </trkpt>
      <trkpt lat="46.07479" lon="7.05206">
        <ele>588</ele>
        <time>2018-05-10T13:57:45Z</time>
      </trkpt>
      <trkpt lat="46.07468" lon="7.05216">
        <ele>588</ele>
        <time>2018-05-10T13:58:45Z</time>
      </trkpt>
      <trkpt lat="46.07448" lon="7.05231">
        <ele>591</ele>
        <time>2018-05-10T13:59:45Z</time>
      </trkpt>
      <trkpt lat="46.07433" lon="7.05246">
        <ele>593</ele>
        <time>2018-05-10T14:00:45Z</time>
      </trkpt>
      <trkpt lat="46.07423" lon="7.05256">
        <ele>586</ele>
        <time>2018-05-10T14:01:45Z</time>
      </trkpt>
      <trkpt lat="46.07416" lon="7.05266">
        <ele>599</ele>
        <time>2018-05-10T14:02:45Z</time>
      </trkpt>
      <trkpt lat="46.07407" lon="7.05278">
        <ele>600</ele>
        <time>2018-05-10T14:03:45Z</time>
      </trkpt>
      <trkpt lat="46.07399" lon="7.05292">
        <ele>599</ele>
        <time>2018-05-10T14:04:45Z</time>
      </trkpt>
      <trkpt lat="46.07391" lon="7.05306">
        <ele>598</ele>
        <time>2018-05-10T14:05:45Z</time>
      </trkpt>
      <trkpt lat="46.07384" lon="7.05319">
        <ele>598</ele>
        <time>2018-05-10T14:06:45Z</time>
      </trkpt>
      <trkpt lat="46.07376" lon="7.0534">
        <ele>587</ele>
        <time>2018-05-10T14:07:45Z</time>
      </trkpt>
      <trkpt lat="46.07371" lon="7.05355">
        <ele>588</ele>
        <time>2018-05-10T14:08:45Z</time>
      </trkpt>
      <trkpt lat="46.07362" lon="7.05379">
        <ele>588</ele>
        <time>2018-05-10T14:09:45Z</time>
      </trkpt>
      <trkpt lat="46.07357" lon="7.05398">
        <ele>589</ele>
        <time>2018-05-10T14:10:45Z</time>
      </trkpt>
      <trkpt lat="46.07354" lon="7.05411">
        <ele>590</ele>
        <time>2018-05-10T14:11:45Z</time>
      </trkpt>
      <trkpt lat="46.07351" lon="7.05424">
        <ele>584</ele>
        <time>2018-05-10T14:12:45Z</time>
      </trkpt>
      <trkpt lat="46.07346" lon="7.0545">
        <ele>579</ele>
        <time>2018-05-10T14:13:45Z</time>
      </trkpt>
      <trkpt lat="46.0734" lon="7.05501">
        <ele>580</ele>
        <time>2018-05-10T14:14:45Z</time>
      </trkpt>
      <trkpt lat="46.07334" lon="7.05579">
        <ele>579</ele>
        <time>2018-05-10T14:15:45Z</time>
      </trkpt>
      <trkpt lat="46.07326" lon="7.05655">
        <ele>593</ele>
        <time>2018-05-10T14:16:45Z</time>
      </trkpt>
      <trkpt lat="46.07325" lon="7.05662">
        <ele>591</ele>
        <time>2018-05-10T14:17:45Z</time>
      </trkpt>
      <trkpt lat="46.07324" lon="7.05669">
        <ele>591</ele>
        <time>2018-05-10T14:18:45Z</time>
      </trkpt>
      <trkpt lat="46.07322" lon="7.05679">
        <ele>593</ele>
        <time>2018-05-10T14:19:45Z</time>
      </trkpt>
      <trkpt lat="46.07319" lon="7.05688">
        <ele>596</ele>
        <time>2018-05-10T14:20:45Z</time>
      </trkpt>
      <trkpt lat="46.07301" lon="7.05744">
        <ele>597</ele>
        <time>2018-05-10T14:21:45Z</time>
      </trkpt>
      <trkpt lat="46.0729" lon="7.05773">
        <ele>597</ele>
        <time>2018-05-10T14:22:45Z</time>
      </trkpt>
      <trkpt lat="46.07282" lon="7.05795">
        <ele>599</ele>
        <time>2018-05-10T14:23:45Z</time>
      </trkpt>
      <trkpt lat="46.07277" lon="7.05814">
        <ele>601</ele>
        <time>2018-05-10T14:24:45Z</time>
      </trkpt>
      <trkpt lat="46.07276" lon="7.05816">
        <ele>601</ele>
        <time>2018-05-10T14:25:45Z</time>
      </trkpt>
      <trkpt lat="46.07273" lon="7.05827">
        <ele>603</ele>
        <time>2018-05-10T14:26:45Z</time>
      </trkpt>
      <trkpt lat="46.07266" lon="7.05857">
        <ele>602</ele>
        <time>2018-05-10T14:27:45Z</time>
      </trkpt>
      <trkpt lat="46.07262" lon="7.05889">
        <ele>602</ele>
        <time>2018-05-10T14:28:45Z</time>
      </trkpt>
      <trkpt lat="46.07261" lon="7.05911">
        <ele>607</ele>
        <time>2018-05-10T14:29:45Z</time>
      </trkpt>
      <trkpt lat="46.07262" lon="7.05916">
        <ele>607</ele>
        <time>2018-05-10T14:30:45Z</time>
      </trkpt>
      <trkpt lat="46.07261" lon="7.05948">
        <ele>602</ele>
        <time>2018-05-10T14:31:45Z</time>
      </trkpt>
      <trkpt lat="46.07267" lon="7.05996">
        <ele>605</ele>
        <time>2018-05-10T14:32:45Z</time>
      </trkpt>
      <trkpt lat="46.07268" lon="7.06012">
        <ele>602</ele>
        <time>2018-05-10T14:33:45Z</time>
      </trkpt>
      <trkpt lat="46.07271" lon="7.06034">
        <ele>597</ele>
        <time>2018-05-10T14:34:45Z</time>
      </trkpt>
      <trkpt lat="46.07276" lon="7.06067">
        <ele>596</ele>
        <time>2018-05-10T14:35:45Z</time>
      </trkpt>
      <trkpt lat="46.07276" lon="7.0607">
        <ele>596</ele>
        <time>2018-05-10T14:36:45Z</time>
      </trkpt>
      <trkpt lat="46.07288" lon="7.06149">
        <ele>590</ele>
        <time>2018-05-10T14:37:45Z</time>
      </trkpt>
      <trkpt lat="46.07294" lon="7.06191">
        <ele>594</ele>
        <time>2018-05-10T14:38:45Z</time>
      </trkpt>
      <trkpt lat="46.07298" lon="7.06221">
        <ele>596</ele>
        <time>2018-05-10T14:39:45Z</time>
      </trkpt>
      <trkpt lat="46.07303" lon="7.06285">
        <ele>605</ele>
        <time>2018-05-10T14:40:45Z</time>
      </trkpt>
      <trkpt lat="46.07303" lon="7.06288">
        <ele>605</ele>
        <time>2018-05-10T14:41:45Z</time>
      </trkpt>
      <trkpt lat="46.07304" lon="7.06321">
        <ele>606</ele>
        <time>2018-05-10T14:42:45Z</time>
      </trkpt>
      <trkpt lat="46.07306" lon="7.06385">
        <ele>609</ele>
        <time>2018-05-10T14:43:45Z</time>
      </trkpt>
      <trkpt lat="46.07308" lon="7.06419">
        <ele>607</ele>
        <time>2018-05-10T14:44:45Z</time>
      </trkpt>
      <trkpt lat="46.0731" lon="7.06439">
        <ele>607</ele>
        <time>2018-05-10T14:45:45Z</time>
      </trkpt>
      <trkpt lat="46.07313" lon="7.06454">
        <ele>607</ele>
        <time>2018-05-10T14:46:45Z</time>
      </trkpt>
      <trkpt lat="46.07315" lon="7.06465">
        <ele>607</ele>
        <time>2018-05-10T14:47:45Z</time>
      </trkpt>
      <trkpt lat="46.07322" lon="7.06492">
        <ele>605</ele>
        <time>2018-05-10T14:48:45Z</time>
      </trkpt>
      <trkpt lat="46.0733" lon="7.06514">
        <ele>607</ele>
        <time>2018-05-10T14:49:45Z</time>
      </trkpt>
      <trkpt lat="46.07339" lon="7.06535">
        <ele>603</ele>
        <time>2018-05-10T14:50:45Z</time>
      </trkpt>
      <trkpt lat="46.07358" lon="7.06571">
        <ele>604</ele>
        <time>2018-05-10T14:51:45Z</time>
      </trkpt>
      <trkpt lat="46.07365" lon="7.06581">
        <ele>603</ele>
        <time>2018-05-10T14:52:45Z</time>
      </trkpt>
      <trkpt lat="46.0738" lon="7.06603">
        <ele>607</ele>
        <time>2018-05-10T14:53:45Z</time>
      </trkpt>
      <trkpt lat="46.07423" lon="7.06668">
        <ele>608</ele>
        <time>2018-05-10T14:54:45Z</time>
      </trkpt>
      <trkpt lat="46.07436" lon="7.06688">
        <ele>607</ele>
        <time>2018-05-10T14:55:45Z</time>
      </trkpt>
      <trkpt lat="46.07451" lon="7.06715">
        <ele>607</ele>
        <time>2018-05-10T14:56:45Z</time>
      </trkpt>
      <trkpt lat="46.07453" lon="7.0672">
        <ele>607</ele>
        <time>2018-05-10T14:57:45Z</time>
      </trkpt>
      <trkpt lat="46.07466" lon="7.06745">
        <ele>607</ele>
        <time>2018-05-10T14:58:45Z</time>
      </trkpt>
      <trkpt lat="46.07475" lon="7.06769">
        <ele>611</ele>
        <time>2018-05-10T14:59:45Z</time>
      </trkpt>
      <trkpt lat="46.07484" lon="7.06795">
        <ele>612</ele>
        <time>2018-05-10T15:00:45Z</time>
      </trkpt>
      <trkpt lat="46.07489" lon="7.06816">
        <ele>612</ele>
        <time>2018-05-10T15:01:45Z</time>
      </trkpt>
      <trkpt lat="46.07494" lon="7.06837">
        <ele>614</ele>
        <time>2018-05-10T15:02:45Z</time>
      </trkpt>
      <trkpt lat="46.07497" lon="7.06854">
        <ele>616</ele>
        <time>2018-05-10T15:03:45Z</time>
      </trkpt>
      <trkpt lat="46.07506" lon="7.06928">
        <ele>614</ele>
        <time>2018-05-10T15:04:45Z</time>
      </trkpt>
      <trkpt lat="46.07512" lon="7.07013">
        <ele>616</ele>
        <time>2018-05-10T15:05:45Z</time>
      </trkpt>
      <trkpt lat="46.07513" lon="7.0703">
        <ele>615</ele>
        <time>2018-05-10T15:06:45Z</time>
      </trkpt>
      <trkpt lat="46.07518" lon="7.07077">
        <ele>616</ele>
        <time>2018-05-10T15:07:45Z</time>
      </trkpt>
      <trkpt lat="46.07518" lon="7.07077">
        <ele>616</ele>
        <time>2018-05-10T15:08:45Z</time>
      </trkpt>
      <trkpt lat="46.07515" lon="7.07084">
        <ele>617</ele>
        <time>2018-05-10T15:09:45Z</time>
      </trkpt>
      <trkpt lat="46.07513" lon="7.07088">
        <ele>617</ele>
        <time>2018-05-10T15:10:45Z</time>
      </trkpt>
      <trkpt lat="46.07511" lon="7.07103">
        <ele>617</ele>
        <time>2018-05-10T15:11:45Z</time>
      </trkpt>
      <trkpt lat="46.07512" lon="7.07115">
        <ele>617</ele>
        <time>2018-05-10T15:12:45Z</time>
      </trkpt>
      <trkpt lat="46.07512" lon="7.07122">
        <ele>618</ele>
        <time>2018-05-10T15:13:45Z</time>
      </trkpt>
      <trkpt lat="46.07514" lon="7.0713">
        <ele>618</ele>
        <time>2018-05-10T15:14:45Z</time>
      </trkpt>
      <trkpt lat="46.07517" lon="7.07143">
        <ele>619</ele>
        <time>2018-05-10T15:15:45Z</time>
      </trkpt>
      <trkpt lat="46.07521" lon="7.07156">
        <ele>620</ele>
        <time>2018-05-10T15:16:45Z</time>
      </trkpt>
      <trkpt lat="46.07525" lon="7.07167">
        <ele>621</ele>
        <time>2018-05-10T15:17:45Z</time>
      </trkpt>
      <trkpt lat="46.07538" lon="7.07202">
        <ele>619</ele>
        <time>2018-05-10T15:18:45Z</time>
      </trkpt>
      <trkpt lat="46.07552" lon="7.07234">
        <ele>617</ele>
        <time>2018-05-10T15:19:45Z</time>
      </trkpt>
      <trkpt lat="46.07573" lon="7.07275">
        <ele>619</ele>
        <time>2018-05-10T15:20:45Z</time>
      </trkpt>
      <trkpt lat="46.07594" lon="7.07305">
        <ele>614</ele>
        <time>2018-05-10T15:21:45Z</time>
      </trkpt>
      <trkpt lat="46.07619" lon="7.07338">
        <ele>620</ele>
        <time>2018-05-10T15:22:45Z</time>
      </trkpt>
      <trkpt lat="46.07636" lon="7.07363">
        <ele>618</ele>
        <time>2018-05-10T15:23:45Z</time>
      </trkpt>
      <trkpt lat="46.07655" lon="7.07397">
        <ele>620</ele>
        <time>2018-05-10T15:24:45Z</time>
      </trkpt>
      <trkpt lat="46.07665" lon="7.07418">
        <ele>621</ele>
        <time>2018-05-10T15:25:45Z</time>
      </trkpt>
      <trkpt lat="46.07679" lon="7.07455">
        <ele>621</ele>
        <time>2018-05-10T15:26:45Z</time>
      </trkpt>
      <trkpt lat="46.07689" lon="7.07484">
        <ele>623</ele>
        <time>2018-05-10T15:27:45Z</time>
      </trkpt>
      <trkpt lat="46.0773" lon="7.07576">
        <ele>625</ele>
        <time>2018-05-10T15:28:45Z</time>
      </trkpt>
      <trkpt lat="46.0773" lon="7.07576">
        <ele>625</ele>
        <time>2018-05-10T15:29:45Z</time>
      </trkpt>
      <trkpt lat="46.07727" lon="7.0758">
        <ele>625</ele>
        <time>2018-05-10T15:30:45Z</time>
      </trkpt>
      <trkpt lat="46.07725" lon="7.07581">
        <ele>626</ele>
        <time>2018-05-10T15:31:45Z</time>
      </trkpt>
      <trkpt lat="46.07724" lon="7.07582">
        <ele>626</ele>
        <time>2018-05-10T15:32:45Z</time>
      </trkpt>
      <trkpt lat="46.07722" lon="7.07582">
        <ele>626</ele>
        <time>2018-05-10T15:33:45Z</time>
      </trkpt>
      <trkpt lat="46.07721" lon="7.07582">
        <ele>626</ele>
        <time>2018-05-10T15:34:45Z</time>
      </trkpt>
      <trkpt lat="46.07718" lon="7.07581">
        <ele>627</ele>
        <time>2018-05-10T15:35:45Z</time>
      </trkpt>
      <trkpt lat="46.07713" lon="7.07578">
        <ele>627</ele>
        <time>2018-05-10T15:36:45Z</time>
      </trkpt>
      <trkpt lat="46.07704" lon="7.0757">
        <ele>628</ele>
        <time>2018-05-10T15:37:45Z</time>
      </trkpt>
      <trkpt lat="46.07698" lon="7.07564">
        <ele>629</ele>
        <time>2018-05-10T15:38:45Z</time>
      </trkpt>
      <trkpt lat="46.07694" lon="7.07561">
        <ele>629</ele>
        <time>2018-05-10T15:39:45Z</time>
      </trkpt>
      <trkpt lat="46.07691" lon="7.07559">
        <ele>629</ele>
        <time>2018-05-10T15:40:45Z</time>
      </trkpt>
      <trkpt lat="46.07681" lon="7.07553">
        <ele>630</ele>
        <time>2018-05-10T15:41:45Z</time>
      </trkpt>
      <trkpt lat="46.07669" lon="7.07549">
        <ele>630</ele>
        <time>2018-05-10T15:42:45Z</time>
      </trkpt>
      <trkpt lat="46.07652" lon="7.07546">
        <ele>638</ele>
        <time>2018-05-10T15:43:45Z</time>
      </trkpt>
      <trkpt lat="46.0762" lon="7.07542">
        <ele>638</ele>
        <time>2018-05-10T15:44:45Z</time>
      </trkpt>
      <trkpt lat="46.07618" lon="7.07542">
        <ele>639</ele>
        <time>2018-05-10T15:45:45Z</time>
      </trkpt>
      <trkpt lat="46.07606" lon="7.0754">
        <ele>639</ele>
        <time>2018-05-10T15:46:45Z</time>
      </trkpt>
      <trkpt lat="46.07568" lon="7.07535">
        <ele>645</ele>
        <time>2018-05-10T15:47:45Z</time>
      </trkpt>
      <trkpt lat="46.07524" lon="7.0753">
        <ele>648</ele>
        <time>2018-05-10T15:48:45Z</time>
      </trkpt>
      <trkpt lat="46.0751" lon="7.07528">
        <ele>648</ele>
        <time>2018-05-10T15:49:45Z</time>
      </trkpt>
      <trkpt lat="46.07505" lon="7.07527">
        <ele>648</ele>
        <time>2018-05-10T15:50:45Z</time>
      </trkpt>
      <trkpt lat="46.075" lon="7.07525">
        <ele>648</ele>
        <time>2018-05-10T15:51:45Z</time>
      </trkpt>
      <trkpt lat="46.07497" lon="7.07524">
        <ele>661</ele>
        <time>2018-05-10T15:52:45Z</time>
      </trkpt>
      <trkpt lat="46.07493" lon="7.07521">
        <ele>661</ele>
        <time>2018-05-10T15:53:45Z</time>
      </trkpt>
      <trkpt lat="46.07487" lon="7.07515">
        <ele>660</ele>
        <time>2018-05-10T15:54:45Z</time>
      </trkpt>
      <trkpt lat="46.07484" lon="7.07511">
        <ele>660</ele>
        <time>2018-05-10T15:55:45Z</time>
      </trkpt>
      <trkpt lat="46.07481" lon="7.07506">
        <ele>661</ele>
        <time>2018-05-10T15:56:45Z</time>
      </trkpt>
      <trkpt lat="46.0748" lon="7.07503">
        <ele>661</ele>
        <time>2018-05-10T15:57:45Z</time>
      </trkpt>
      <trkpt lat="46.07478" lon="7.07499">
        <ele>659</ele>
        <time>2018-05-10T15:58:45Z</time>
      </trkpt>
      <trkpt lat="46.07476" lon="7.07491">
        <ele>660</ele>
        <time>2018-05-10T15:59:45Z</time>
      </trkpt>
      <trkpt lat="46.07474" lon="7.07481">
        <ele>661</ele>
        <time>2018-05-10T16:00:45Z</time>
      </trkpt>
      <trkpt lat="46.07472" lon="7.07471">
        <ele>662</ele>
        <time>2018-05-10T16:01:45Z</time>
      </trkpt>
      <trkpt lat="46.07471" lon="7.07464">
        <ele>662</ele>
        <time>2018-05-10T16:02:45Z</time>
      </trkpt>
      <trkpt lat="46.07469" lon="7.07456">
        <ele>662</ele>
        <time>2018-05-10T16:03:45Z</time>
      </trkpt>
      <trkpt lat="46.07466" lon="7.07449">
        <ele>662</ele>
        <time>2018-05-10T16:04:45Z</time>
      </trkpt>
      <trkpt lat="46.07462" lon="7.07444">
        <ele>663</ele>
        <time>2018-05-10T16:05:45Z</time>
      </trkpt>
      <trkpt lat="46.07458" lon="7.07437">
        <ele>664</ele>
        <time>2018-05-10T16:06:45Z</time>
      </trkpt>
      <trkpt lat="46.07453" lon="7.07431">
        <ele>665</ele>
        <time>2018-05-10T16:07:45Z</time>
      </trkpt>
      <trkpt lat="46.07438" lon="7.07416">
        <ele>662</ele>
        <time>2018-05-10T16:08:45Z</time>
      </trkpt>
      <trkpt lat="46.07424" lon="7.07401">
        <ele>665</ele>
        <time>2018-05-10T16:09:45Z</time>
      </trkpt>
      <trkpt lat="46.07405" lon="7.07381">
        <ele>680</ele>
        <time>2018-05-10T16:10:45Z</time>
      </trkpt>
      <trkpt lat="46.07384" lon="7.07356">
        <ele>680</ele>
        <time>2018-05-10T16:11:45Z</time>
      </trkpt>
      <trkpt lat="46.07374" lon="7.07342">
        <ele>681</ele>
        <time>2018-05-10T16:12:45Z</time>
      </trkpt>
      <trkpt lat="46.07363" lon="7.07327">
        <ele>669</ele>
        <time>2018-05-10T16:13:45Z</time>
      </trkpt>
      <trkpt lat="46.07359" lon="7.07321">
        <ele>670</ele>
        <time>2018-05-10T16:14:45Z</time>
      </trkpt>
      <trkpt lat="46.07351" lon="7.07308">
        <ele>669</ele>
        <time>2018-05-10T16:15:45Z</time>
      </trkpt>
      <trkpt lat="46.07346" lon="7.07302">
        <ele>668</ele>
        <time>2018-05-10T16:16:45Z</time>
      </trkpt>
      <trkpt lat="46.07342" lon="7.07299">
        <ele>668</ele>
        <time>2018-05-10T16:17:45Z</time>
      </trkpt>
      <trkpt lat="46.07339" lon="7.07297">
        <ele>668</ele>
        <time>2018-05-10T16:18:45Z</time>
      </trkpt>
      <trkpt lat="46.07335" lon="7.07296">
        <ele>668</ele>
        <time>2018-05-10T16:19:45Z</time>
      </trkpt>
      <trkpt lat="46.07332" lon="7.07295">
        <ele>680</ele>
        <time>2018-05-10T16:20:45Z</time>
      </trkpt>
      <trkpt lat="46.07327" lon="7.07296">
        <ele>680</ele>
        <time>2018-05-10T16:21:45Z</time>
      </trkpt>
      <trkpt lat="46.07318" lon="7.07299">
        <ele>681</ele>
        <time>2018-05-10T16:22:45Z</time>
      </trkpt>
      <trkpt lat="46.07306" lon="7.07304">
        <ele>682</ele>
        <time>2018-05-10T16:23:45Z</time>
      </trkpt>
      <trkpt lat="46.07287" lon="7.07312">
        <ele>684</ele>
        <time>2018-05-10T16:24:45Z</time>
      </trkpt>
      <trkpt lat="46.07261" lon="7.0732">
        <ele>690</ele>
        <time>2018-05-10T16:25:45Z</time>
      </trkpt>
      <trkpt lat="46.07239" lon="7.07327">
        <ele>696</ele>
        <time>2018-05-10T16:26:45Z</time>
      </trkpt>
      <trkpt lat="46.07224" lon="7.07331">
        <ele>695</ele>
        <time>2018-05-10T16:27:45Z</time>
      </trkpt>
      <trkpt lat="46.07216" lon="7.07331">
        <ele>695</ele>
        <time>2018-05-10T16:28:45Z</time>
      </trkpt>
      <trkpt lat="46.07201" lon="7.0733">
        <ele>697</ele>
        <time>2018-05-10T16:29:45Z</time>
      </trkpt>
      <trkpt lat="46.07183" lon="7.07326">
        <ele>700</ele>
        <time>2018-05-10T16:30:45Z</time>
      </trkpt>
      <trkpt lat="46.07175" lon="7.07323">
        <ele>702</ele>
        <time>2018-05-10T16:31:45Z</time>
      </trkpt>
      <trkpt lat="46.07167" lon="7.07319">
        <ele>701</ele>
        <time>2018-05-10T16:32:45Z</time>
      </trkpt>
      <trkpt lat="46.07154" lon="7.07313">
        <ele>706</ele>
        <time>2018-05-10T16:33:45Z</time>
      </trkpt>
      <trkpt lat="46.07145" lon="7.07311">
        <ele>706</ele>
        <time>2018-05-10T16:34:45Z</time>
      </trkpt>
      <trkpt lat="46.07137" lon="7.07309">
        <ele>706</ele>
        <time>2018-05-10T16:35:45Z</time>
      </trkpt>
      <trkpt lat="46.07125" lon="7.07307">
        <ele>707</ele>
        <time>2018-05-10T16:36:45Z</time>
      </trkpt>
      <trkpt lat="46.07115" lon="7.07303">
        <ele>707</ele>
        <time>2018-05-10T16:37:45Z</time>
      </trkpt>
      <trkpt lat="46.07109" lon="7.073">
        <ele>707</ele>
        <time>2018-05-10T16:38:45Z</time>
      </trkpt>
      <trkpt lat="46.071" lon="7.07294">
        <ele>707</ele>
        <time>2018-05-10T16:39:45Z</time>
      </trkpt>
      <trkpt lat="46.07092" lon="7.07286">
        <ele>706</ele>
        <time>2018-05-10T16:40:45Z</time>
      </trkpt>
      <trkpt lat="46.07084" lon="7.0728">
        <ele>705</ele>
        <time>2018-05-10T16:41:45Z</time>
      </trkpt>
      <trkpt lat="46.07077" lon="7.07273">
        <ele>720</ele>
        <time>2018-05-10T16:42:45Z</time>
      </trkpt>
      <trkpt lat="46.0707" lon="7.07264">
        <ele>718</ele>
        <time>2018-05-10T16:43:45Z</time>
      </trkpt>
      <trkpt lat="46.07067" lon="7.07258">
        <ele>718</ele>
        <time>2018-05-10T16:44:45Z</time>
      </trkpt>
      <trkpt lat="46.07062" lon="7.07246">
        <ele>708</ele>
        <time>2018-05-10T16:45:45Z</time>
      </trkpt>
      <trkpt lat="46.07057" lon="7.07234">
        <ele>709</ele>
        <time>2018-05-10T16:46:45Z</time>
      </trkpt>
      <trkpt lat="46.07053" lon="7.07228">
        <ele>710</ele>
        <time>2018-05-10T16:47:45Z</time>
      </trkpt>
      <trkpt lat="46.07047" lon="7.07222">
        <ele>711</ele>
        <time>2018-05-10T16:48:45Z</time>
      </trkpt>
      <trkpt lat="46.07041" lon="7.07217">
        <ele>712</ele>
        <time>2018-05-10T16:49:45Z</time>
      </trkpt>
      <trkpt lat="46.07034" lon="7.07214">
        <ele>713</ele>
        <time>2018-05-10T16:50:45Z</time>
      </trkpt>
      <trkpt lat="46.07026" lon="7.0721">
        <ele>714</ele>
        <time>2018-05-10T16:51:45Z</time>
      </trkpt>
      <trkpt lat="46.07006" lon="7.07205">
        <ele>716</ele>
        <time>2018-05-10T16:52:45Z</time>
      </trkpt>
      <trkpt lat="46.07002" lon="7.07203">
        <ele>716</ele>
        <time>2018-05-10T16:53:45Z</time>
      </trkpt>
      <trkpt lat="46.07" lon="7.07202">
        <ele>716</ele>
        <time>2018-05-10T16:54:45Z</time>
      </trkpt>
      <trkpt lat="46.06996" lon="7.07199">
        <ele>742</ele>
        <time>2018-05-10T16:55:45Z</time>
      </trkpt>
      <trkpt lat="46.06992" lon="7.07194">
        <ele>741</ele>
        <time>2018-05-10T16:56:45Z</time>
      </trkpt>
      <trkpt lat="46.06988" lon="7.07189">
        <ele>740</ele>
        <time>2018-05-10T16:57:45Z</time>
      </trkpt>
      <trkpt lat="46.06986" lon="7.07184">
        <ele>739</ele>
        <time>2018-05-10T16:58:45Z</time>
      </trkpt>
      <trkpt lat="46.06982" lon="7.07175">
        <ele>737</ele>
        <time>2018-05-10T16:59:45Z</time>
      </trkpt>
      <trkpt lat="46.0698" lon="7.07168">
        <ele>737</ele>
        <time>2018-05-10T17:00:45Z</time>
      </trkpt>
      <trkpt lat="46.06978" lon="7.07163">
        <ele>730</ele>
        <time>2018-05-10T17:01:45Z</time>
      </trkpt>
      <trkpt lat="46.06976" lon="7.07161">
        <ele>731</ele>
        <time>2018-05-10T17:02:45Z</time>
      </trkpt>
      <trkpt lat="46.06975" lon="7.07161">
        <ele>732</ele>
        <time>2018-05-10T17:03:45Z</time>
      </trkpt>
      <trkpt lat="46.06973" lon="7.07161">
        <ele>732</ele>
        <time>2018-05-10T17:04:45Z</time>
      </trkpt>
      <trkpt lat="46.06972" lon="7.07164">
        <ele>733</ele>
        <time>2018-05-10T17:05:45Z</time>
      </trkpt>
      <trkpt lat="46.06971" lon="7.07166">
        <ele>733</ele>
        <time>2018-05-10T17:06:45Z</time>
      </trkpt>
      <trkpt lat="46.06972" lon="7.07169">
        <ele>742</ele>
        <time>2018-05-10T17:07:45Z</time>
      </trkpt>
      <trkpt lat="46.06976" lon="7.07178">
        <ele>742</ele>
        <time>2018-05-10T17:08:45Z</time>
      </trkpt>
      <trkpt lat="46.06979" lon="7.07183">
        <ele>742</ele>
        <time>2018-05-10T17:09:45Z</time>
      </trkpt>
      <trkpt lat="46.06991" lon="7.07207">
        <ele>746</ele>
        <time>2018-05-10T17:10:45Z</time>
      </trkpt>
      <trkpt lat="46.06999" lon="7.0722">
        <ele>746</ele>
        <time>2018-05-10T17:11:45Z</time>
      </trkpt>
      <trkpt lat="46.07008" lon="7.07232">
        <ele>724</ele>
        <time>2018-05-10T17:12:45Z</time>
      </trkpt>
      <trkpt lat="46.07014" lon="7.07241">
        <ele>726</ele>
        <time>2018-05-10T17:13:45Z</time>
      </trkpt>
      <trkpt lat="46.07018" lon="7.07248">
        <ele>725</ele>
        <time>2018-05-10T17:14:45Z</time>
      </trkpt>
      <trkpt lat="46.07023" lon="7.07259">
        <ele>735</ele>
        <time>2018-05-10T17:15:45Z</time>
      </trkpt>
      <trkpt lat="46.07028" lon="7.07268">
        <ele>734</ele>
        <time>2018-05-10T17:16:45Z</time>
      </trkpt>
      <trkpt lat="46.07036" lon="7.07286">
        <ele>734</ele>
        <time>2018-05-10T17:17:45Z</time>
      </trkpt>
      <trkpt lat="46.07042" lon="7.07296">
        <ele>734</ele>
        <time>2018-05-10T17:18:45Z</time>
      </trkpt>
      <trkpt lat="46.07051" lon="7.07309">
        <ele>733</ele>
        <time>2018-05-10T17:19:45Z</time>
      </trkpt>
      <trkpt lat="46.07069" lon="7.07327">
        <ele>729</ele>
        <time>2018-05-10T17:20:45Z</time>
      </trkpt>
      <trkpt lat="46.07093" lon="7.07352">
        <ele>733</ele>
        <time>2018-05-10T17:21:45Z</time>
      </trkpt>
      <trkpt lat="46.07108" lon="7.07368">
        <ele>738</ele>
        <time>2018-05-10T17:22:45Z</time>
      </trkpt>
      <trkpt lat="46.07123" lon="7.07383">
        <ele>741</ele>
        <time>2018-05-10T17:23:45Z</time>
      </trkpt>
      <trkpt lat="46.07135" lon="7.07392">
        <ele>741</ele>
        <time>2018-05-10T17:24:45Z</time>
      </trkpt>
      <trkpt lat="46.07157" lon="7.07404">
        <ele>744</ele>
        <time>2018-05-10T17:25:45Z</time>
      </trkpt>
      <trkpt lat="46.07168" lon="7.0741">
        <ele>743</ele>
        <time>2018-05-10T17:26:45Z</time>
      </trkpt>
      <trkpt lat="46.07181" lon="7.07417">
        <ele>750</ele>
        <time>2018-05-10T17:27:45Z</time>
      </trkpt>
      <trkpt lat="46.07195" lon="7.07423">
        <ele>749</ele>
        <time>2018-05-10T17:28:45Z</time>
      </trkpt>
      <trkpt lat="46.07208" lon="7.07426">
        <ele>748</ele>
        <time>2018-05-10T17:29:45Z</time>
      </trkpt>
      <trkpt lat="46.07219" lon="7.07428">
        <ele>746</ele>
        <time>2018-05-10T17:30:45Z</time>
      </trkpt>
      <trkpt lat="46.07233" lon="7.0743">
        <ele>743</ele>
        <time>2018-05-10T17:31:45Z</time>
      </trkpt>
      <trkpt lat="46.07243" lon="7.07431">
        <ele>741</ele>
        <time>2018-05-10T17:32:45Z</time>
      </trkpt>
      <trkpt lat="46.07248" lon="7.07432">
        <ele>741</ele>
        <time>2018-05-10T17:33:45Z</time>
      </trkpt>
      <trkpt lat="46.07254" lon="7.07432">
        <ele>732</ele>
        <time>2018-05-10T17:34:45Z</time>
      </trkpt>
      <trkpt lat="46.07256" lon="7.07433">
        <ele>732</ele>
        <time>2018-05-10T17:35:45Z</time>
      </trkpt>
      <trkpt lat="46.07258" lon="7.07434">
        <ele>732</ele>
        <time>2018-05-10T17:36:45Z</time>
      </trkpt>
      <trkpt lat="46.07261" lon="7.07436">
        <ele>732</ele>
        <time>2018-05-10T17:37:45Z</time>
      </trkpt>
      <trkpt lat="46.07262" lon="7.07439">
        <ele>732</ele>
        <time>2018-05-10T17:38:45Z</time>
      </trkpt>
      <trkpt lat="46.07264" lon="7.07442">
        <ele>732</ele>
        <time>2018-05-10T17:39:45Z</time>
      </trkpt>
      <trkpt lat="46.07265" lon="7.07447">
        <ele>732</ele>
        <time>2018-05-10T17:40:45Z</time>
      </trkpt>
      <trkpt lat="46.07264" lon="7.07457">
        <ele>733</ele>
        <time>2018-05-10T17:41:45Z</time>
      </trkpt>
      <trkpt lat="46.0726" lon="7.07497">
        <ele>741</ele>
        <time>2018-05-10T17:42:45Z</time>
      </trkpt>
      <trkpt lat="46.07247" lon="7.07569">
        <ele>755</ele>
        <time>2018-05-10T17:43:45Z</time>
      </trkpt>
      <trkpt lat="46.07243" lon="7.07591">
        <ele>754</ele>
        <time>2018-05-10T17:44:45Z</time>
      </trkpt>
      <trkpt lat="46.07237" lon="7.07614">
        <ele>760</ele>
        <time>2018-05-10T17:45:45Z</time>
      </trkpt>
      <trkpt lat="46.07233" lon="7.07635">
        <ele>761</ele>
        <time>2018-05-10T17:46:45Z</time>
      </trkpt>
      <trkpt lat="46.07231" lon="7.07656">
        <ele>758</ele>
        <time>2018-05-10T17:47:45Z</time>
      </trkpt>
      <trkpt lat="46.07231" lon="7.07679">
        <ele>759</ele>
        <time>2018-05-10T17:48:45Z</time>
      </trkpt>
      <trkpt lat="46.0723" lon="7.07703">
        <ele>763</ele>
        <time>2018-05-10T17:49:45Z</time>
      </trkpt>
      <trkpt lat="46.07228" lon="7.0772">
        <ele>763</ele>
        <time>2018-05-10T17:50:45Z</time>
      </trkpt>
      <trkpt lat="46.07226" lon="7.07731">
        <ele>763</ele>
        <time>2018-05-10T17:51:45Z</time>
      </trkpt>
      <trkpt lat="46.07217" lon="7.07762">
        <ele>771</ele>
        <time>2018-05-10T17:52:45Z</time>
      </trkpt>
      <trkpt lat="46.07214" lon="7.07777">
        <ele>774</ele>
        <time>2018-05-10T17:53:45Z</time>
      </trkpt>
      <trkpt lat="46.07212" lon="7.07791">
        <ele>776</ele>
        <time>2018-05-10T17:54:45Z</time>
      </trkpt>
      <trkpt lat="46.07211" lon="7.07799">
        <ele>777</ele>
        <time>2018-05-10T17:55:45Z</time>
      </trkpt>
      <trkpt lat="46.07211" lon="7.07804">
        <ele>778</ele>
        <time>2018-05-10T17:56:45Z</time>
      </trkpt>
      <trkpt lat="46.07209" lon="7.0781">
        <ele>779</ele>
        <time>2018-05-10T17:57:45Z</time>
      </trkpt>
      <trkpt lat="46.07208" lon="7.07814">
        <ele>779</ele>
        <time>2018-05-10T17:58:45Z</time>
      </trkpt>
      <trkpt lat="46.07207" lon="7.07815">
        <ele>779</ele>
        <time>2018-05-10T17:59:45Z</time>
      </trkpt>
      <trkpt lat="46.07207" lon="7.07815">
        <ele>779</ele>
        <time>2018-05-10T18:00:45Z</time>
      </trkpt>
      <trkpt lat="46.07205" lon="7.07816">
        <ele>780</ele>
        <time>2018-05-10T18:01:45Z</time>
      </trkpt>
      <trkpt lat="46.07202" lon="7.07817">
        <ele>781</ele>
        <time>2018-05-10T18:02:45Z</time>
      </trkpt>
      <trkpt lat="46.07199" lon="7.07816">
        <ele>781</ele>
        <time>2018-05-10T18:03:45Z</time>
      </trkpt>
      <trkpt lat="46.07196" lon="7.07813">
        <ele>782</ele>
        <time>2018-05-10T18:04:45Z</time>
      </trkpt>
      <trkpt lat="46.07194" lon="7.07808">
        <ele>781</ele>
        <time>2018-05-10T18:05:45Z</time>
      </trkpt>
      <trkpt lat="46.07192" lon="7.07799">
        <ele>780</ele>
        <time>2018-05-10T18:06:45Z</time>
      </trkpt>
      <trkpt lat="46.0719" lon="7.07773">
        <ele>778</ele>
        <time>2018-05-10T18:07:45Z</time>
      </trkpt>
      <trkpt lat="46.07191" lon="7.07733">
        <ele>772</ele>
        <time>2018-05-10T18:08:45Z</time>
      </trkpt>
      <trkpt lat="46.07192" lon="7.07709">
        <ele>771</ele>
        <time>2018-05-10T18:09:45Z</time>
      </trkpt>
      <trkpt lat="46.07191" lon="7.07695">
        <ele>772</ele>
        <time>2018-05-10T18:10:45Z</time>
      </trkpt>
      <trkpt lat="46.0719" lon="7.07671">
        <ele>775</ele>
        <time>2018-05-10T18:11:45Z</time>
      </trkpt>
      <trkpt lat="46.07187" lon="7.07644">
        <ele>773</ele>
        <time>2018-05-10T18:12:45Z</time>
      </trkpt>
      <trkpt lat="46.07185" lon="7.07625">
        <ele>772</ele>
        <time>2018-05-10T18:13:45Z</time>
      </trkpt>
      <trkpt lat="46.07179" lon="7.0758">
        <ele>776</ele>
        <time>2018-05-10T18:14:45Z</time>
      </trkpt>
      <trkpt lat="46.07177" lon="7.0757">
        <ele>774</ele>
        <time>2018-05-10T18:15:45Z</time>
      </trkpt>
      <trkpt lat="46.07173" lon="7.07561">
        <ele>772</ele>
        <time>2018-05-10T18:16:45Z</time>
      </trkpt>
      <trkpt lat="46.0717" lon="7.07553">
        <ele>771</ele>
        <time>2018-05-10T18:17:45Z</time>
      </trkpt>
      <trkpt lat="46.07167" lon="7.07548">
        <ele>771</ele>
        <time>2018-05-10T18:18:45Z</time>
      </trkpt>
      <trkpt lat="46.0716" lon="7.07534">
        <ele>789</ele>
        <time>2018-05-10T18:19:45Z</time>
      </trkpt>
      <trkpt lat="46.07155" lon="7.07523">
        <ele>788</ele>
        <time>2018-05-10T18:20:45Z</time>
      </trkpt>
      <trkpt lat="46.07151" lon="7.07521">
        <ele>788</ele>
        <time>2018-05-10T18:21:45Z</time>
      </trkpt>
      <trkpt lat="46.07148" lon="7.07521">
        <ele>789</ele>
        <time>2018-05-10T18:22:45Z</time>
      </trkpt>
      <trkpt lat="46.07145" lon="7.07522">
        <ele>789</ele>
        <time>2018-05-10T18:23:45Z</time>
      </trkpt>
      <trkpt lat="46.07143" lon="7.07527">
        <ele>790</ele>
        <time>2018-05-10T18:24:45Z</time>
      </trkpt>
      <trkpt lat="46.07144" lon="7.07538">
        <ele>791</ele>
        <time>2018-05-10T18:25:45Z</time>
      </trkpt>
      <trkpt lat="46.0715" lon="7.07562">
        <ele>791</ele>
        <time>2018-05-10T18:26:45Z</time>
      </trkpt>
      <trkpt lat="46.07153" lon="7.07579">
        <ele>789</ele>
        <time>2018-05-10T18:27:45Z</time>
      </trkpt>
      <trkpt lat="46.07153" lon="7.07592">
        <ele>792</ele>
        <time>2018-05-10T18:28:45Z</time>
      </trkpt>
      <trkpt lat="46.07151" lon="7.07606">
        <ele>795</ele>
        <time>2018-05-10T18:29:45Z</time>
      </trkpt>
      <trkpt lat="46.07146" lon="7.07617">
        <ele>797</ele>
        <time>2018-05-10T18:30:45Z</time>
      </trkpt>
      <trkpt lat="46.07142" lon="7.07627">
        <ele>798</ele>
        <time>2018-05-10T18:31:45Z</time>
      </trkpt>
      <trkpt lat="46.0714" lon="7.07637">
        <ele>798</ele>
        <time>2018-05-10T18:32:45Z</time>
      </trkpt>
      <trkpt lat="46.07139" lon="7.07644">
        <ele>798</ele>
        <time>2018-05-10T18:33:45Z</time>
      </trkpt>
      <trkpt lat="46.07138" lon="7.07651">
        <ele>798</ele>
        <time>2018-05-10T18:34:45Z</time>
      </trkpt>
      <trkpt lat="46.07139" lon="7.07668">
        <ele>798</ele>
        <time>2018-05-10T18:35:45Z</time>
      </trkpt>
      <trkpt lat="46.07138" lon="7.07675">
        <ele>799</ele>
        <time>2018-05-10T18:36:45Z</time>
      </trkpt>
      <trkpt lat="46.07136" lon="7.07683">
        <ele>799</ele>
        <time>2018-05-10T18:37:45Z</time>
      </trkpt>
      <trkpt lat="46.07134" lon="7.07691">
        <ele>800</ele>
        <time>2018-05-10T18:38:45Z</time>
      </trkpt>
      <trkpt lat="46.07129" lon="7.07705">
        <ele>801</ele>
        <time>2018-05-10T18:39:45Z</time>
      </trkpt>
      <trkpt lat="46.07123" lon="7.07723">
        <ele>802</ele>
        <time>2018-05-10T18:40:45Z</time>
      </trkpt>
      <trkpt lat="46.07119" lon="7.07735">
        <ele>803</ele>
        <time>2018-05-10T18:41:45Z</time>
      </trkpt>
      <trkpt lat="46.07115" lon="7.07747">
        <ele>804</ele>
        <time>2018-05-10T18:42:45Z</time>
      </trkpt>
      <trkpt lat="46.07114" lon="7.07753">
        <ele>809</ele>
        <time>2018-05-10T18:43:45Z</time>
      </trkpt>
      <trkpt lat="46.07115" lon="7.0776">
        <ele>809</ele>
        <time>2018-05-10T18:44:45Z</time>
      </trkpt>
      <trkpt lat="46.07116" lon="7.07779">
        <ele>810</ele>
        <time>2018-05-10T18:45:45Z</time>
      </trkpt>
      <trkpt lat="46.07118" lon="7.07801">
        <ele>811</ele>
        <time>2018-05-10T18:46:45Z</time>
      </trkpt>
      <trkpt lat="46.0712" lon="7.07814">
        <ele>812</ele>
        <time>2018-05-10T18:47:45Z</time>
      </trkpt>
      <trkpt lat="46.07121" lon="7.07824">
        <ele>813</ele>
        <time>2018-05-10T18:48:45Z</time>
      </trkpt>
      <trkpt lat="46.07122" lon="7.07829">
        <ele>813</ele>
        <time>2018-05-10T18:49:45Z</time>
      </trkpt>
      <trkpt lat="46.07121" lon="7.07834">
        <ele>825</ele>
        <time>2018-05-10T18:50:45Z</time>
      </trkpt>
      <trkpt lat="46.07118" lon="7.07837">
        <ele>826</ele>
        <time>2018-05-10T18:51:45Z</time>
      </trkpt>
      <trkpt lat="46.07115" lon="7.07839">
        <ele>827</ele>
        <time>2018-05-10T18:52:45Z</time>
      </trkpt>
      <trkpt lat="46.07111" lon="7.07837">
        <ele>828</ele>
        <time>2018-05-10T18:53:45Z</time>
      </trkpt>
      <trkpt lat="46.07109" lon="7.07834">
        <ele>828</ele>
        <time>2018-05-10T18:54:45Z</time>
      </trkpt>
      <trkpt lat="46.07104" lon="7.0782">
        <ele>818</ele>
        <time>2018-05-10T18:55:45Z</time>
      </trkpt>
      <trkpt lat="46.071" lon="7.07799">
        <ele>815</ele>
        <time>2018-05-10T18:56:45Z</time>
      </trkpt>
      <trkpt lat="46.07097" lon="7.07791">
        <ele>814</ele>
        <time>2018-05-10T18:57:45Z</time>
      </trkpt>
      <trkpt lat="46.07093" lon="7.07783">
        <ele>814</ele>
        <time>2018-05-10T18:58:45Z</time>
      </trkpt>
      <trkpt lat="46.07088" lon="7.07774">
        <ele>814</ele>
        <time>2018-05-10T18:59:45Z</time>
      </trkpt>
      <trkpt lat="46.0708" lon="7.07762">
        <ele>828</ele>
        <time>2018-05-10T19:00:45Z</time>
      </trkpt>
      <trkpt lat="46.07067" lon="7.07739">
        <ele>823</ele>
        <time>2018-05-10T19:01:45Z</time>
      </trkpt>
      <trkpt lat="46.07059" lon="7.07723">
        <ele>825</ele>
        <time>2018-05-10T19:02:45Z</time>
      </trkpt>
      <trkpt lat="46.07039" lon="7.07678">
        <ele>825</ele>
        <time>2018-05-10T19:03:45Z</time>
      </trkpt>
      <trkpt lat="46.07032" lon="7.07659">
        <ele>823</ele>
        <time>2018-05-10T19:04:45Z</time>
      </trkpt>
      <trkpt lat="46.07027" lon="7.07645">
        <ele>823</ele>
        <time>2018-05-10T19:05:45Z</time>
      </trkpt>
      <trkpt lat="46.07018" lon="7.07619">
        <ele>823</ele>
        <time>2018-05-10T19:06:45Z</time>
      </trkpt>
      <trkpt lat="46.07018" lon="7.07619">
        <ele>823</ele>
        <time>2018-05-10T19:07:45Z</time>
      </trkpt>
      <trkpt lat="46.07014" lon="7.07606">
        <ele>824</ele>
        <time>2018-05-10T19:08:45Z</time>
      </trkpt>
      <trkpt lat="46.07012" lon="7.07595">
        <ele>825</ele>
        <time>2018-05-10T19:09:45Z</time>
      </trkpt>
      <trkpt lat="46.0701" lon="7.07587">
        <ele>826</ele>
        <time>2018-05-10T19:10:45Z</time>
      </trkpt>
      <trkpt lat="46.0701" lon="7.07578">
        <ele>825</ele>
        <time>2018-05-10T19:11:45Z</time>
      </trkpt>
      <trkpt lat="46.07011" lon="7.07569">
        <ele>824</ele>
        <time>2018-05-10T19:12:45Z</time>
      </trkpt>
      <trkpt lat="46.07013" lon="7.07554">
        <ele>822</ele>
        <time>2018-05-10T19:13:45Z</time>
      </trkpt>
      <trkpt lat="46.07015" lon="7.07541">
        <ele>822</ele>
        <time>2018-05-10T19:14:45Z</time>
      </trkpt>
      <trkpt lat="46.07015" lon="7.07529">
        <ele>822</ele>
        <time>2018-05-10T19:15:45Z</time>
      </trkpt>
      <trkpt lat="46.07014" lon="7.07522">
        <ele>823</ele>
        <time>2018-05-10T19:16:45Z</time>
      </trkpt>
      <trkpt lat="46.07011" lon="7.07515">
        <ele>824</ele>
        <time>2018-05-10T19:17:45Z</time>
      </trkpt>
      <trkpt lat="46.07008" lon="7.07509">
        <ele>826</ele>
        <time>2018-05-10T19:18:45Z</time>
      </trkpt>
      <trkpt lat="46.07003" lon="7.07504">
        <ele>828</ele>
        <time>2018-05-10T19:19:45Z</time>
      </trkpt>
      <trkpt lat="46.06996" lon="7.07501">
        <ele>832</ele>
        <time>2018-05-10T19:20:45Z</time>
      </trkpt>
      <trkpt lat="46.06986" lon="7.07496">
        <ele>832</ele>
        <time>2018-05-10T19:21:45Z</time>
      </trkpt>
      <trkpt lat="46.06979" lon="7.07491">
        <ele>833</ele>
        <time>2018-05-10T19:22:45Z</time>
      </trkpt>
      <trkpt lat="46.06973" lon="7.07485">
        <ele>834</ele>
        <time>2018-05-10T19:23:45Z</time>
      </trkpt>
      <trkpt lat="46.06964" lon="7.07478">
        <ele>835</ele>
        <time>2018-05-10T19:24:45Z</time>
      </trkpt>
      <trkpt lat="46.06959" lon="7.07476">
        <ele>835</ele>
        <time>2018-05-10T19:25:45Z</time>
      </trkpt>
      <trkpt lat="46.06956" lon="7.07476">
        <ele>836</ele>
        <time>2018-05-10T19:26:45Z</time>
      </trkpt>
      <trkpt lat="46.06953" lon="7.07476">
        <ele>837</ele>
        <time>2018-05-10T19:27:45Z</time>
      </trkpt>
      <trkpt lat="46.06945" lon="7.07478">
        <ele>839</ele>
        <time>2018-05-10T19:28:45Z</time>
      </trkpt>
      <trkpt lat="46.06937" lon="7.07483">
        <ele>842</ele>
        <time>2018-05-10T19:29:45Z</time>
      </trkpt>
      <trkpt lat="46.06923" lon="7.07491">
        <ele>848</ele>
        <time>2018-05-10T19:30:45Z</time>
      </trkpt>
      <trkpt lat="46.06917" lon="7.07493">
        <ele>851</ele>
        <time>2018-05-10T19:31:45Z</time>
      </trkpt>
      <trkpt lat="46.06914" lon="7.07493">
        <ele>858</ele>
        <time>2018-05-10T19:32:45Z</time>
      </trkpt>
      <trkpt lat="46.06909" lon="7.07492">
        <ele>859</ele>
        <time>2018-05-10T19:33:45Z</time>
      </trkpt>
      <trkpt lat="46.06904" lon="7.07489">
        <ele>861</ele>
        <time>2018-05-10T19:34:45Z</time>
      </trkpt>
      <trkpt lat="46.069" lon="7.07485">
        <ele>862</ele>
        <time>2018-05-10T19:35:45Z</time>
      </trkpt>
      <trkpt lat="46.06898" lon="7.07482">
        <ele>862</ele>
        <time>2018-05-10T19:36:45Z</time>
      </trkpt>
      <trkpt lat="46.06895" lon="7.07476">
        <ele>863</ele>
        <time>2018-05-10T19:37:45Z</time>
      </trkpt>
      <trkpt lat="46.0689" lon="7.07464">
        <ele>863</ele>
        <time>2018-05-10T19:38:45Z</time>
      </trkpt>
      <trkpt lat="46.06885" lon="7.0745">
        <ele>863</ele>
        <time>2018-05-10T19:39:45Z</time>
      </trkpt>
      <trkpt lat="46.06882" lon="7.07441">
        <ele>863</ele>
        <time>2018-05-10T19:40:45Z</time>
      </trkpt>
      <trkpt lat="46.06878" lon="7.07434">
        <ele>864</ele>
        <time>2018-05-10T19:41:45Z</time>
      </trkpt>
      <trkpt lat="46.06871" lon="7.07427">
        <ele>866</ele>
        <time>2018-05-10T19:42:45Z</time>
      </trkpt>
      <trkpt lat="46.06864" lon="7.0742">
        <ele>868</ele>
        <time>2018-05-10T19:43:45Z</time>
      </trkpt>
      <trkpt lat="46.06854" lon="7.0741">
        <ele>864</ele>
        <time>2018-05-10T19:44:45Z</time>
      </trkpt>
      <trkpt lat="46.0685" lon="7.07404">
        <ele>865</ele>
        <time>2018-05-10T19:45:45Z</time>
      </trkpt>
      <trkpt lat="46.06843" lon="7.07392">
        <ele>863</ele>
        <time>2018-05-10T19:46:45Z</time>
      </trkpt>
      <trkpt lat="46.06837" lon="7.07376">
        <ele>860</ele>
        <time>2018-05-10T19:47:45Z</time>
      </trkpt>
      <trkpt lat="46.06834" lon="7.0737">
        <ele>859</ele>
        <time>2018-05-10T19:48:45Z</time>
      </trkpt>
      <trkpt lat="46.0683" lon="7.07358">
        <ele>879</ele>
        <time>2018-05-10T19:49:45Z</time>
      </trkpt>
      <trkpt lat="46.06825" lon="7.07348">
        <ele>876</ele>
        <time>2018-05-10T19:50:45Z</time>
      </trkpt>
      <trkpt lat="46.06821" lon="7.07341">
        <ele>875</ele>
        <time>2018-05-10T19:51:45Z</time>
      </trkpt>
      <trkpt lat="46.06815" lon="7.07336">
        <ele>877</ele>
        <time>2018-05-10T19:52:45Z</time>
      </trkpt>
      <trkpt lat="46.0681" lon="7.07334">
        <ele>879</ele>
        <time>2018-05-10T19:53:45Z</time>
      </trkpt>
      <trkpt lat="46.06807" lon="7.07333">
        <ele>865</ele>
        <time>2018-05-10T19:54:45Z</time>
      </trkpt>
      <trkpt lat="46.06799" lon="7.07331">
        <ele>866</ele>
        <time>2018-05-10T19:55:45Z</time>
      </trkpt>
      <trkpt lat="46.06768" lon="7.07326">
        <ele>875</ele>
        <time>2018-05-10T19:56:45Z</time>
      </trkpt>
      <trkpt lat="46.06758" lon="7.07324">
        <ele>880</ele>
        <time>2018-05-10T19:57:45Z</time>
      </trkpt>
      <trkpt lat="46.06753" lon="7.07322">
        <ele>881</ele>
        <time>2018-05-10T19:58:45Z</time>
      </trkpt>
      <trkpt lat="46.06751" lon="7.07321">
        <ele>880</ele>
        <time>2018-05-10T19:59:45Z</time>
      </trkpt>
      <trkpt lat="46.06742" lon="7.07314">
        <ele>880</ele>
        <time>2018-05-10T20:00:45Z</time>
      </trkpt>
      <trkpt lat="46.06739" lon="7.07311">
        <ele>879</ele>
        <time>2018-05-10T20:01:45Z</time>
      </trkpt>
      <trkpt lat="46.06735" lon="7.07309">
        <ele>878</ele>
        <time>2018-05-10T20:02:45Z</time>
      </trkpt>
      <trkpt lat="46.06733" lon="7.07308">
        <ele>877</ele>
        <time>2018-05-10T20:03:45Z</time>
      </trkpt>
      <trkpt lat="46.06731" lon="7.07309">
        <ele>877</ele>
        <time>2018-05-10T20:04:45Z</time>
      </trkpt>
      <trkpt lat="46.06729" lon="7.07312">
        <ele>878</ele>
        <time>2018-05-10T20:05:45Z</time>
      </trkpt>
      <trkpt lat="46.06729" lon="7.07315">
        <ele>879</ele>
        <time>2018-05-10T20:06:45Z</time>
      </trkpt>
      <trkpt lat="46.06729" lon="7.07318">
        <ele>880</ele>
        <time>2018-05-10T20:07:45Z</time>
      </trkpt>
      <trkpt lat="46.06731" lon="7.07322">
        <ele>881</ele>
        <time>2018-05-10T20:08:45Z</time>
      </trkpt>
      <trkpt lat="46.06733" lon="7.07325">
        <ele>883</ele>
        <time>2018-05-10T20:09:45Z</time>
      </trkpt>
      <trkpt lat="46.06737" lon="7.07328">
        <ele>885</ele>
        <time>2018-05-10T20:10:45Z</time>
      </trkpt>
      <trkpt lat="46.06758" lon="7.0734">
        <ele>892</ele>
        <time>2018-05-10T20:11:45Z</time>
      </trkpt>
      <trkpt lat="46.06785" lon="7.07353">
        <ele>888</ele>
        <time>2018-05-10T20:12:45Z</time>
      </trkpt>
      <trkpt lat="46.06793" lon="7.07357">
        <ele>886</ele>
        <time>2018-05-10T20:13:45Z</time>
      </trkpt>
      <trkpt lat="46.068" lon="7.07364">
        <ele>885</ele>
        <time>2018-05-10T20:14:45Z</time>
      </trkpt>
      <trkpt lat="46.06804" lon="7.07369">
        <ele>885</ele>
        <time>2018-05-10T20:15:45Z</time>
      </trkpt>
      <trkpt lat="46.06807" lon="7.07376">
        <ele>886</ele>
        <time>2018-05-10T20:16:45Z</time>
      </trkpt>
      <trkpt lat="46.0681" lon="7.07391">
        <ele>886</ele>
        <time>2018-05-10T20:17:45Z</time>
      </trkpt>
      <trkpt lat="46.06813" lon="7.07408">
        <ele>886</ele>
        <time>2018-05-10T20:18:45Z</time>
      </trkpt>
      <trkpt lat="46.06814" lon="7.07421">
        <ele>890</ele>
        <time>2018-05-10T20:19:45Z</time>
      </trkpt>
      <trkpt lat="46.06817" lon="7.07433">
        <ele>891</ele>
        <time>2018-05-10T20:20:45Z</time>
      </trkpt>
      <trkpt lat="46.06819" lon="7.07441">
        <ele>892</ele>
        <time>2018-05-10T20:21:45Z</time>
      </trkpt>
      <trkpt lat="46.06823" lon="7.07451">
        <ele>892</ele>
        <time>2018-05-10T20:22:45Z</time>
      </trkpt>
      <trkpt lat="46.06826" lon="7.07456">
        <ele>892</ele>
        <time>2018-05-10T20:23:45Z</time>
      </trkpt>
      <trkpt lat="46.06829" lon="7.0746">
        <ele>892</ele>
        <time>2018-05-10T20:24:45Z</time>
      </trkpt>
      <trkpt lat="46.0683" lon="7.07464">
        <ele>892</ele>
        <time>2018-05-10T20:25:45Z</time>
      </trkpt>
      <trkpt lat="46.06831" lon="7.0747">
        <ele>892</ele>
        <time>2018-05-10T20:26:45Z</time>
      </trkpt>
      <trkpt lat="46.06831" lon="7.07474">
        <ele>892</ele>
        <time>2018-05-10T20:27:45Z</time>
      </trkpt>
      <trkpt lat="46.06831" lon="7.07477">
        <ele>891</ele>
        <time>2018-05-10T20:28:45Z</time>
      </trkpt>
      <trkpt lat="46.0683" lon="7.07482">
        <ele>891</ele>
        <time>2018-05-10T20:29:45Z</time>
      </trkpt>
      <trkpt lat="46.06828" lon="7.07485">
        <ele>890</ele>
        <time>2018-05-10T20:30:45Z</time>
      </trkpt>
      <trkpt lat="46.06823" lon="7.07492">
        <ele>890</ele>
        <time>2018-05-10T20:31:45Z</time>
      </trkpt>
      <trkpt lat="46.0681" lon="7.0751">
        <ele>896</ele>
        <time>2018-05-10T20:32:45Z</time>
      </trkpt>
      <trkpt lat="46.06807" lon="7.07515">
        <ele>898</ele>
        <time>2018-05-10T20:33:45Z</time>
      </trkpt>
      <trkpt lat="46.06804" lon="7.07522">
        <ele>899</ele>
        <time>2018-05-10T20:34:45Z</time>
      </trkpt>
      <trkpt lat="46.068" lon="7.07534">
        <ele>901</ele>
        <time>2018-05-10T20:35:45Z</time>
      </trkpt>
      <trkpt lat="46.06798" lon="7.07547">
        <ele>902</ele>
        <time>2018-05-10T20:36:45Z</time>
      </trkpt>
      <trkpt lat="46.06797" lon="7.07564">
        <ele>903</ele>
        <time>2018-05-10T20:37:45Z</time>
      </trkpt>
      <trkpt lat="46.06796" lon="7.0757">
        <ele>903</ele>
        <time>2018-05-10T20:38:45Z</time>
      </trkpt>
      <trkpt lat="46.06794" lon="7.07575">
        <ele>904</ele>
        <time>2018-05-10T20:39:45Z</time>
      </trkpt>
      <trkpt lat="46.06792" lon="7.07579">
        <ele>904</ele>
        <time>2018-05-10T20:40:45Z</time>
      </trkpt>
      <trkpt lat="46.06791" lon="7.0758">
        <ele>905</ele>
        <time>2018-05-10T20:41:45Z</time>
      </trkpt>
      <trkpt lat="46.06789" lon="7.07581">
        <ele>905</ele>
        <time>2018-05-10T20:42:45Z</time>
      </trkpt>
      <trkpt lat="46.06786" lon="7.07581">
        <ele>906</ele>
        <time>2018-05-10T20:43:45Z</time>
      </trkpt>
      <trkpt lat="46.06784" lon="7.07579">
        <ele>907</ele>
        <time>2018-05-10T20:44:45Z</time>
      </trkpt>
      <trkpt lat="46.06782" lon="7.07576">
        <ele>907</ele>
        <time>2018-05-10T20:45:45Z</time>
      </trkpt>
      <trkpt lat="46.06778" lon="7.0757">
        <ele>908</ele>
        <time>2018-05-10T20:46:45Z</time>
      </trkpt>
      <trkpt lat="46.06765" lon="7.0754">
        <ele>907</ele>
        <time>2018-05-10T20:47:45Z</time>
      </trkpt>
      <trkpt lat="46.06759" lon="7.07528">
        <ele>906</ele>
        <time>2018-05-10T20:48:45Z</time>
      </trkpt>
      <trkpt lat="46.06752" lon="7.07513">
        <ele>907</ele>
        <time>2018-05-10T20:49:45Z</time>
      </trkpt>
      <trkpt lat="46.0675" lon="7.07506">
        <ele>909</ele>
        <time>2018-05-10T20:50:45Z</time>
      </trkpt>
      <trkpt lat="46.0675" lon="7.07499">
        <ele>910</ele>
        <time>2018-05-10T20:51:45Z</time>
      </trkpt>
      <trkpt lat="46.06749" lon="7.07495">
        <ele>913</ele>
        <time>2018-05-10T20:52:45Z</time>
      </trkpt>
      <trkpt lat="46.06751" lon="7.07489">
        <ele>906</ele>
        <time>2018-05-10T20:53:45Z</time>
      </trkpt>
      <trkpt lat="46.06753" lon="7.07483">
        <ele>904</ele>
        <time>2018-05-10T20:54:45Z</time>
      </trkpt>
      <trkpt lat="46.06755" lon="7.07478">
        <ele>903</ele>
        <time>2018-05-10T20:55:45Z</time>
      </trkpt>
      <trkpt lat="46.06759" lon="7.07473">
        <ele>902</ele>
        <time>2018-05-10T20:56:45Z</time>
      </trkpt>
      <trkpt lat="46.06766" lon="7.07463">
        <ele>901</ele>
        <time>2018-05-10T20:57:45Z</time>
      </trkpt>
      <trkpt lat="46.06769" lon="7.07459">
        <ele>901</ele>
        <time>2018-05-10T20:58:45Z</time>
      </trkpt>
      <trkpt lat="46.06771" lon="7.07454">
        <ele>901</ele>
        <time>2018-05-10T20:59:45Z</time>
      </trkpt>
      <trkpt lat="46.06773" lon="7.07449">
        <ele>901</ele>
        <time>2018-05-10T21:00:45Z</time>
      </trkpt>
      <trkpt lat="46.06773" lon="7.07446">
        <ele>901</ele>
        <time>2018-05-10T21:01:45Z</time>
      </trkpt>
      <trkpt lat="46.06773" lon="7.07443">
        <ele>901</ele>
        <time>2018-05-10T21:02:45Z</time>
      </trkpt>
      <trkpt lat="46.06772" lon="7.0744">
        <ele>901</ele>
        <time>2018-05-10T21:03:45Z</time>
      </trkpt>
      <trkpt lat="46.06771" lon="7.07438">
        <ele>902</ele>
        <time>2018-05-10T21:04:45Z</time>
      </trkpt>
      <trkpt lat="46.06768" lon="7.07437">
        <ele>902</ele>
        <time>2018-05-10T21:05:45Z</time>
      </trkpt>
      <trkpt lat="46.06766" lon="7.07436">
        <ele>903</ele>
        <time>2018-05-10T21:06:45Z</time>
      </trkpt>
      <trkpt lat="46.06765" lon="7.07437">
        <ele>903</ele>
        <time>2018-05-10T21:07:45Z</time>
      </trkpt>
      <trkpt lat="46.06762" lon="7.07438">
        <ele>903</ele>
        <time>2018-05-10T21:08:45Z</time>
      </trkpt>
      <trkpt lat="46.06757" lon="7.07441">
        <ele>904</ele>
        <time>2018-05-10T21:09:45Z</time>
      </trkpt>
      <trkpt lat="46.06752" lon="7.07445">
        <ele>904</ele>
        <time>2018-05-10T21:10:45Z</time>
      </trkpt>
      <trkpt lat="46.06746" lon="7.07448">
        <ele>921</ele>
        <time>2018-05-10T21:11:45Z</time>
      </trkpt>
      <trkpt lat="46.06733" lon="7.07457">
        <ele>922</ele>
        <time>2018-05-10T21:12:45Z</time>
      </trkpt>
      <trkpt lat="46.06721" lon="7.07466">
        <ele>924</ele>
        <time>2018-05-10T21:13:45Z</time>
      </trkpt>
      <trkpt lat="46.06716" lon="7.07476">
        <ele>925</ele>
        <time>2018-05-10T21:14:45Z</time>
      </trkpt>
      <trkpt lat="46.06714" lon="7.07486">
        <ele>926</ele>
        <time>2018-05-10T21:15:45Z</time>
      </trkpt>
      <trkpt lat="46.06713" lon="7.07492">
        <ele>926</ele>
        <time>2018-05-10T21:16:45Z</time>
      </trkpt>
      <trkpt lat="46.06713" lon="7.07499">
        <ele>926</ele>
        <time>2018-05-10T21:17:45Z</time>
      </trkpt>
      <trkpt lat="46.06713" lon="7.07504">
        <ele>933</ele>
        <time>2018-05-10T21:18:45Z</time>
      </trkpt>
      <trkpt lat="46.06714" lon="7.07513">
        <ele>934</ele>
        <time>2018-05-10T21:19:45Z</time>
      </trkpt>
      <trkpt lat="46.06716" lon="7.07522">
        <ele>934</ele>
        <time>2018-05-10T21:20:45Z</time>
      </trkpt>
      <trkpt lat="46.06718" lon="7.07529">
        <ele>934</ele>
        <time>2018-05-10T21:21:45Z</time>
      </trkpt>
      <trkpt lat="46.06719" lon="7.07533">
        <ele>934</ele>
        <time>2018-05-10T21:22:45Z</time>
      </trkpt>
      <trkpt lat="46.06721" lon="7.0754">
        <ele>935</ele>
        <time>2018-05-10T21:23:45Z</time>
      </trkpt>
      <trkpt lat="46.06721" lon="7.07546">
        <ele>935</ele>
        <time>2018-05-10T21:24:45Z</time>
      </trkpt>
      <trkpt lat="46.0672" lon="7.07551">
        <ele>936</ele>
        <time>2018-05-10T21:25:45Z</time>
      </trkpt>
      <trkpt lat="46.06718" lon="7.07553">
        <ele>937</ele>
        <time>2018-05-10T21:26:45Z</time>
      </trkpt>
      <trkpt lat="46.06716" lon="7.07554">
        <ele>937</ele>
        <time>2018-05-10T21:27:45Z</time>
      </trkpt>
      <trkpt lat="46.06713" lon="7.07553">
        <ele>938</ele>
        <time>2018-05-10T21:28:45Z</time>
      </trkpt>
      <trkpt lat="46.06711" lon="7.0755">
        <ele>938</ele>
        <time>2018-05-10T21:29:45Z</time>
      </trkpt>
      <trkpt lat="46.06708" lon="7.07545">
        <ele>938</ele>
        <time>2018-05-10T21:30:45Z</time>
      </trkpt>
      <trkpt lat="46.06697" lon="7.07517">
        <ele>939</ele>
        <time>2018-05-10T21:31:45Z</time>
      </trkpt>
      <trkpt lat="46.06694" lon="7.0751">
        <ele>940</ele>
        <time>2018-05-10T21:32:45Z</time>
      </trkpt>
      <trkpt lat="46.06689" lon="7.07498">
        <ele>935</ele>
        <time>2018-05-10T21:33:45Z</time>
      </trkpt>
      <trkpt lat="46.06685" lon="7.07485">
        <ele>935</ele>
        <time>2018-05-10T21:34:45Z</time>
      </trkpt>
      <trkpt lat="46.06684" lon="7.07471">
        <ele>932</ele>
        <time>2018-05-10T21:35:45Z</time>
      </trkpt>
      <trkpt lat="46.06685" lon="7.07459">
        <ele>930</ele>
        <time>2018-05-10T21:36:45Z</time>
      </trkpt>
      <trkpt lat="46.06686" lon="7.07452">
        <ele>930</ele>
        <time>2018-05-10T21:37:45Z</time>
      </trkpt>
      <trkpt lat="46.06686" lon="7.07446">
        <ele>930</ele>
        <time>2018-05-10T21:38:45Z</time>
      </trkpt>
      <trkpt lat="46.06684" lon="7.07443">
        <ele>930</ele>
        <time>2018-05-10T21:39:45Z</time>
      </trkpt>
      <trkpt lat="46.06682" lon="7.07441">
        <ele>930</ele>
        <time>2018-05-10T21:40:45Z</time>
      </trkpt>
      <trkpt lat="46.06678" lon="7.07441">
        <ele>930</ele>
        <time>2018-05-10T21:41:45Z</time>
      </trkpt>
      <trkpt lat="46.06676" lon="7.07444">
        <ele>931</ele>
        <time>2018-05-10T21:42:45Z</time>
      </trkpt>
      <trkpt lat="46.06673" lon="7.07452">
        <ele>931</ele>
        <time>2018-05-10T21:43:45Z</time>
      </trkpt>
      <trkpt lat="46.06669" lon="7.07468">
        <ele>934</ele>
        <time>2018-05-10T21:44:45Z</time>
      </trkpt>
      <trkpt lat="46.06668" lon="7.07486">
        <ele>939</ele>
        <time>2018-05-10T21:45:45Z</time>
      </trkpt>
      <trkpt lat="46.06672" lon="7.07511">
        <ele>945</ele>
        <time>2018-05-10T21:46:45Z</time>
      </trkpt>
      <trkpt lat="46.06679" lon="7.07542">
        <ele>945</ele>
        <time>2018-05-10T21:47:45Z</time>
      </trkpt>
      <trkpt lat="46.06685" lon="7.07558">
        <ele>947</ele>
        <time>2018-05-10T21:48:45Z</time>
      </trkpt>
      <trkpt lat="46.06694" lon="7.07587">
        <ele>959</ele>
        <time>2018-05-10T21:49:45Z</time>
      </trkpt>
      <trkpt lat="46.06697" lon="7.07598">
        <ele>958</ele>
        <time>2018-05-10T21:50:45Z</time>
      </trkpt>
      <trkpt lat="46.06698" lon="7.07604">
        <ele>958</ele>
        <time>2018-05-10T21:51:45Z</time>
      </trkpt>
      <trkpt lat="46.06699" lon="7.07611">
        <ele>958</ele>
        <time>2018-05-10T21:52:45Z</time>
      </trkpt>
      <trkpt lat="46.06697" lon="7.07613">
        <ele>959</ele>
        <time>2018-05-10T21:53:45Z</time>
      </trkpt>
      <trkpt lat="46.06695" lon="7.07614">
        <ele>960</ele>
        <time>2018-05-10T21:54:45Z</time>
      </trkpt>
      <trkpt lat="46.06692" lon="7.07614">
        <ele>960</ele>
        <time>2018-05-10T21:55:45Z</time>
      </trkpt>
      <trkpt lat="46.06688" lon="7.0761">
        <ele>961</ele>
        <time>2018-05-10T21:56:45Z</time>
      </trkpt>
      <trkpt lat="46.06684" lon="7.07602">
        <ele>962</ele>
        <time>2018-05-10T21:57:45Z</time>
      </trkpt>
      <trkpt lat="46.06665" lon="7.07563">
        <ele>971</ele>
        <time>2018-05-10T21:58:45Z</time>
      </trkpt>
      <trkpt lat="46.06658" lon="7.07549">
        <ele>971</ele>
        <time>2018-05-10T21:59:45Z</time>
      </trkpt>
      <trkpt lat="46.06648" lon="7.07524">
        <ele>968</ele>
        <time>2018-05-10T22:00:45Z</time>
      </trkpt>
      <trkpt lat="46.06645" lon="7.07518">
        <ele>967</ele>
        <time>2018-05-10T22:01:45Z</time>
      </trkpt>
      <trkpt lat="46.06643" lon="7.07514">
        <ele>967</ele>
        <time>2018-05-10T22:02:45Z</time>
      </trkpt>
      <trkpt lat="46.06642" lon="7.07514">
        <ele>967</ele>
        <time>2018-05-10T22:03:45Z</time>
      </trkpt>
      <trkpt lat="46.0664" lon="7.07514">
        <ele>968</ele>
        <time>2018-05-10T22:04:45Z</time>
      </trkpt>
      <trkpt lat="46.06637" lon="7.07515">
        <ele>969</ele>
        <time>2018-05-10T22:05:45Z</time>
      </trkpt>
      <trkpt lat="46.06636" lon="7.07518">
        <ele>970</ele>
        <time>2018-05-10T22:06:45Z</time>
      </trkpt>
      <trkpt lat="46.06637" lon="7.07523">
        <ele>970</ele>
        <time>2018-05-10T22:07:45Z</time>
      </trkpt>
      <trkpt lat="46.06643" lon="7.07539">
        <ele>972</ele>
        <time>2018-05-10T22:08:45Z</time>
      </trkpt>
      <trkpt lat="46.06652" lon="7.07562">
        <ele>973</ele>
        <time>2018-05-10T22:09:45Z</time>
      </trkpt>
      <trkpt lat="46.06654" lon="7.0757">
        <ele>972</ele>
        <time>2018-05-10T22:10:45Z</time>
      </trkpt>
      <trkpt lat="46.06655" lon="7.07575">
        <ele>972</ele>
        <time>2018-05-10T22:11:45Z</time>
      </trkpt>
      <trkpt lat="46.06653" lon="7.0758">
        <ele>972</ele>
        <time>2018-05-10T22:12:45Z</time>
      </trkpt>
      <trkpt lat="46.06651" lon="7.07582">
        <ele>973</ele>
        <time>2018-05-10T22:13:45Z</time>
      </trkpt>
      <trkpt lat="46.06648" lon="7.07582">
        <ele>973</ele>
        <time>2018-05-10T22:14:45Z</time>
      </trkpt>
      <trkpt lat="46.06644" lon="7.07578">
        <ele>974</ele>
        <time>2018-05-10T22:15:45Z</time>
      </trkpt>
      <trkpt lat="46.06642" lon="7.07573">
        <ele>975</ele>
        <time>2018-05-10T22:16:45Z</time>
      </trkpt>
      <trkpt lat="46.06635" lon="7.07551">
        <ele>975</ele>
        <time>2018-05-10T22:17:45Z</time>
      </trkpt>
      <trkpt lat="46.06618" lon="7.07513">
        <ele>974</ele>
        <time>2018-05-10T22:18:45Z</time>
      </trkpt>
      <trkpt lat="46.06616" lon="7.07509">
        <ele>975</ele>
        <time>2018-05-10T22:19:45Z</time>
      </trkpt>
      <trkpt lat="46.06612" lon="7.07506">
        <ele>975</ele>
        <time>2018-05-10T22:20:45Z</time>
      </trkpt>
      <trkpt lat="46.06609" lon="7.07505">
        <ele>976</ele>
        <time>2018-05-10T22:21:45Z</time>
      </trkpt>
      <trkpt lat="46.06604" lon="7.07505">
        <ele>977</ele>
        <time>2018-05-10T22:22:45Z</time>
      </trkpt>
      <trkpt lat="46.06597" lon="7.07506">
        <ele>979</ele>
        <time>2018-05-10T22:23:45Z</time>
      </trkpt>
      <trkpt lat="46.06593" lon="7.07507">
        <ele>979</ele>
        <time>2018-05-10T22:24:45Z</time>
      </trkpt>
      <trkpt lat="46.06588" lon="7.07507">
        <ele>980</ele>
        <time>2018-05-10T22:25:45Z</time>
      </trkpt>
      <trkpt lat="46.06582" lon="7.07508">
        <ele>985</ele>
        <time>2018-05-10T22:26:45Z</time>
      </trkpt>
      <trkpt lat="46.06545" lon="7.07511">
        <ele>990</ele>
        <time>2018-05-10T22:27:45Z</time>
      </trkpt>
      <trkpt lat="46.06517" lon="7.07514">
        <ele>988</ele>
        <time>2018-05-10T22:28:45Z</time>
      </trkpt>
      <trkpt lat="46.06507" lon="7.07518">
        <ele>988</ele>
        <time>2018-05-10T22:29:45Z</time>
      </trkpt>
      <trkpt lat="46.06503" lon="7.07522">
        <ele>989</ele>
        <time>2018-05-10T22:30:45Z</time>
      </trkpt>
      <trkpt lat="46.06496" lon="7.07539">
        <ele>988</ele>
        <time>2018-05-10T22:31:45Z</time>
      </trkpt>
      <trkpt lat="46.0649" lon="7.07553">
        <ele>992</ele>
        <time>2018-05-10T22:32:45Z</time>
      </trkpt>
      <trkpt lat="46.06482" lon="7.07564">
        <ele>995</ele>
        <time>2018-05-10T22:33:45Z</time>
      </trkpt>
      <trkpt lat="46.06476" lon="7.07569">
        <ele>995</ele>
        <time>2018-05-10T22:34:45Z</time>
      </trkpt>
      <trkpt lat="46.06471" lon="7.07572">
        <ele>994</ele>
        <time>2018-05-10T22:35:45Z</time>
      </trkpt>
      <trkpt lat="46.06466" lon="7.07575">
        <ele>993</ele>
        <time>2018-05-10T22:36:45Z</time>
      </trkpt>
      <trkpt lat="46.06459" lon="7.07576">
        <ele>992</ele>
        <time>2018-05-10T22:37:45Z</time>
      </trkpt>
      <trkpt lat="46.0645" lon="7.07574">
        <ele>990</ele>
        <time>2018-05-10T22:38:45Z</time>
      </trkpt>
      <trkpt lat="46.06444" lon="7.07572">
        <ele>990</ele>
        <time>2018-05-10T22:39:45Z</time>
      </trkpt>
      <trkpt lat="46.06439" lon="7.07572">
        <ele>990</ele>
        <time>2018-05-10T22:40:45Z</time>
      </trkpt>
      <trkpt lat="46.06435" lon="7.07573">
        <ele>990</ele>
        <time>2018-05-10T22:41:45Z</time>
      </trkpt>
      <trkpt lat="46.06432" lon="7.07575">
        <ele>991</ele>
        <time>2018-05-10T22:42:45Z</time>
      </trkpt>
      <trkpt lat="46.06429" lon="7.07581">
        <ele>993</ele>
        <time>2018-05-10T22:43:45Z</time>
      </trkpt>
      <trkpt lat="46.06423" lon="7.07595">
        <ele>1006</ele>
        <time>2018-05-10T22:44:45Z</time>
      </trkpt>
      <trkpt lat="46.06418" lon="7.07604">
        <ele>1009</ele>
        <time>2018-05-10T22:45:45Z</time>
      </trkpt>
      <trkpt lat="46.06414" lon="7.07609">
        <ele>1005</ele>
        <time>2018-05-10T22:46:45Z</time>
      </trkpt>
      <trkpt lat="46.0641" lon="7.07612">
        <ele>1006</ele>
        <time>2018-05-10T22:47:45Z</time>
      </trkpt>
      <trkpt lat="46.06406" lon="7.07614">
        <ele>1006</ele>
        <time>2018-05-10T22:48:45Z</time>
      </trkpt>
      <trkpt lat="46.06401" lon="7.07617">
        <ele>1007</ele>
        <time>2018-05-10T22:49:45Z</time>
      </trkpt>
      <trkpt lat="46.0639" lon="7.07621">
        <ele>1007</ele>
        <time>2018-05-10T22:50:45Z</time>
      </trkpt>
      <trkpt lat="46.06379" lon="7.07625">
        <ele>1007</ele>
        <time>2018-05-10T22:51:45Z</time>
      </trkpt>
      <trkpt lat="46.06376" lon="7.07628">
        <ele>1008</ele>
        <time>2018-05-10T22:52:45Z</time>
      </trkpt>
      <trkpt lat="46.06376" lon="7.07634">
        <ele>1009</ele>
        <time>2018-05-10T22:53:45Z</time>
      </trkpt>
      <trkpt lat="46.06377" lon="7.07637">
        <ele>1010</ele>
        <time>2018-05-10T22:54:45Z</time>
      </trkpt>
      <trkpt lat="46.06378" lon="7.07638">
        <ele>1010</ele>
        <time>2018-05-10T22:55:45Z</time>
      </trkpt>
      <trkpt lat="46.06384" lon="7.0764">
        <ele>1011</ele>
        <time>2018-05-10T22:56:45Z</time>
      </trkpt>
      <trkpt lat="46.06389" lon="7.0764">
        <ele>1011</ele>
        <time>2018-05-10T22:57:45Z</time>
      </trkpt>
      <trkpt lat="46.064" lon="7.07637">
        <ele>1012</ele>
        <time>2018-05-10T22:58:45Z</time>
      </trkpt>
      <trkpt lat="46.06416" lon="7.07634">
        <ele>1012</ele>
        <time>2018-05-10T22:59:45Z</time>
      </trkpt>
      <trkpt lat="46.06422" lon="7.0763">
        <ele>1017</ele>
        <time>2018-05-10T23:00:45Z</time>
      </trkpt>
      <trkpt lat="46.0643" lon="7.07619">
        <ele>1014</ele>
        <time>2018-05-10T23:01:45Z</time>
      </trkpt>
      <trkpt lat="46.06438" lon="7.0761">
        <ele>1013</ele>
        <time>2018-05-10T23:02:45Z</time>
      </trkpt>
      <trkpt lat="46.06445" lon="7.07607">
        <ele>1013</ele>
        <time>2018-05-10T23:03:45Z</time>
      </trkpt>
      <trkpt lat="46.0645" lon="7.07607">
        <ele>1014</ele>
        <time>2018-05-10T23:04:45Z</time>
      </trkpt>
      <trkpt lat="46.06459" lon="7.07611">
        <ele>1015</ele>
        <time>2018-05-10T23:05:45Z</time>
      </trkpt>
      <trkpt lat="46.06469" lon="7.07616">
        <ele>1016</ele>
        <time>2018-05-10T23:06:45Z</time>
      </trkpt>
      <trkpt lat="46.06476" lon="7.07617">
        <ele>1017</ele>
        <time>2018-05-10T23:07:45Z</time>
      </trkpt>
      <trkpt lat="46.06485" lon="7.07617">
        <ele>1017</ele>
        <time>2018-05-10T23:08:45Z</time>
      </trkpt>
      <trkpt lat="46.06491" lon="7.07615">
        <ele>1017</ele>
        <time>2018-05-10T23:09:45Z</time>
      </trkpt>
      <trkpt lat="46.06499" lon="7.07613">
        <ele>1017</ele>
        <time>2018-05-10T23:10:45Z</time>
      </trkpt>
      <trkpt lat="46.06503" lon="7.07612">
        <ele>1015</ele>
        <time>2018-05-10T23:11:45Z</time>
      </trkpt>
      <trkpt lat="46.06507" lon="7.07614">
        <ele>1015</ele>
        <time>2018-05-10T23:12:45Z</time>
      </trkpt>
      <trkpt lat="46.06509" lon="7.07617">
        <ele>1015</ele>
        <time>2018-05-10T23:13:45Z</time>
      </trkpt>
      <trkpt lat="46.06512" lon="7.07622">
        <ele>1016</ele>
        <time>2018-05-10T23:14:45Z</time>
      </trkpt>
      <trkpt lat="46.06514" lon="7.0763">
        <ele>1016</ele>
        <time>2018-05-10T23:15:45Z</time>
      </trkpt>
      <trkpt lat="46.06516" lon="7.07643">
        <ele>1018</ele>
        <time>2018-05-10T23:16:45Z</time>
      </trkpt>
      <trkpt lat="46.06517" lon="7.07658">
        <ele>1019</ele>
        <time>2018-05-10T23:17:45Z</time>
      </trkpt>
      <trkpt lat="46.06518" lon="7.07673">
        <ele>1027</ele>
        <time>2018-05-10T23:18:45Z</time>
      </trkpt>
      <trkpt lat="46.06518" lon="7.07687">
        <ele>1028</ele>
        <time>2018-05-10T23:19:45Z</time>
      </trkpt>
      <trkpt lat="46.06518" lon="7.07697">
        <ele>1029</ele>
        <time>2018-05-10T23:20:45Z</time>
      </trkpt>
      <trkpt lat="46.06518" lon="7.07697">
        <ele>1029</ele>
        <time>2018-05-10T23:21:45Z</time>
      </trkpt>
      <trkpt lat="46.0652" lon="7.07704">
        <ele>1029</ele>
        <time>2018-05-10T23:22:45Z</time>
      </trkpt>
      <trkpt lat="46.06523" lon="7.07709">
        <ele>1030</ele>
        <time>2018-05-10T23:23:45Z</time>
      </trkpt>
      <trkpt lat="46.06527" lon="7.07713">
        <ele>1030</ele>
        <time>2018-05-10T23:24:45Z</time>
      </trkpt>
      <trkpt lat="46.06544" lon="7.07725">
        <ele>1030</ele>
        <time>2018-05-10T23:25:45Z</time>
      </trkpt>
      <trkpt lat="46.06556" lon="7.07733">
        <ele>1030</ele>
        <time>2018-05-10T23:26:45Z</time>
      </trkpt>
      <trkpt lat="46.06562" lon="7.07739">
        <ele>1030</ele>
        <time>2018-05-10T23:27:45Z</time>
      </trkpt>
      <trkpt lat="46.06567" lon="7.07745">
        <ele>1030</ele>
        <time>2018-05-10T23:28:45Z</time>
      </trkpt>
      <trkpt lat="46.06583" lon="7.07768">
        <ele>1044</ele>
        <time>2018-05-10T23:29:45Z</time>
      </trkpt>
      <trkpt lat="46.06589" lon="7.07776">
        <ele>1039</ele>
        <time>2018-05-10T23:30:45Z</time>
      </trkpt>
      <trkpt lat="46.06592" lon="7.0778">
        <ele>1040</ele>
        <time>2018-05-10T23:31:45Z</time>
      </trkpt>
      <trkpt lat="46.06593" lon="7.07783">
        <ele>1041</ele>
        <time>2018-05-10T23:32:45Z</time>
      </trkpt>
      <trkpt lat="46.06593" lon="7.07788">
        <ele>1042</ele>
        <time>2018-05-10T23:33:45Z</time>
      </trkpt>
      <trkpt lat="46.06592" lon="7.0779">
        <ele>1043</ele>
        <time>2018-05-10T23:34:45Z</time>
      </trkpt>
      <trkpt lat="46.06591" lon="7.07791">
        <ele>1043</ele>
        <time>2018-05-10T23:35:45Z</time>
      </trkpt>
      <trkpt lat="46.06588" lon="7.07792">
        <ele>1044</ele>
        <time>2018-05-10T23:36:45Z</time>
      </trkpt>
      <trkpt lat="46.06585" lon="7.07793">
        <ele>1044</ele>
        <time>2018-05-10T23:37:45Z</time>
      </trkpt>
      <trkpt lat="46.06582" lon="7.07792">
        <ele>1053</ele>
        <time>2018-05-10T23:38:45Z</time>
      </trkpt>
      <trkpt lat="46.06573" lon="7.07787">
        <ele>1052</ele>
        <time>2018-05-10T23:39:45Z</time>
      </trkpt>
      <trkpt lat="46.06559" lon="7.07782">
        <ele>1052</ele>
        <time>2018-05-10T23:40:45Z</time>
      </trkpt>
      <trkpt lat="46.06544" lon="7.0778">
        <ele>1053</ele>
        <time>2018-05-10T23:41:45Z</time>
      </trkpt>
      <trkpt lat="46.06532" lon="7.07777">
        <ele>1053</ele>
        <time>2018-05-10T23:42:45Z</time>
      </trkpt>
      <trkpt lat="46.06515" lon="7.07776">
        <ele>1053</ele>
        <time>2018-05-10T23:43:45Z</time>
      </trkpt>
      <trkpt lat="46.0649" lon="7.07774">
        <ele>1056</ele>
        <time>2018-05-10T23:44:45Z</time>
      </trkpt>
      <trkpt lat="46.06476" lon="7.07774">
        <ele>1057</ele>
        <time>2018-05-10T23:45:45Z</time>
      </trkpt>
      <trkpt lat="46.06465" lon="7.07775">
        <ele>1057</ele>
        <time>2018-05-10T23:46:45Z</time>
      </trkpt>
      <trkpt lat="46.06442" lon="7.07781">
        <ele>1058</ele>
        <time>2018-05-10T23:47:45Z</time>
      </trkpt>
      <trkpt lat="46.06391" lon="7.07795">
        <ele>1061</ele>
        <time>2018-05-10T23:48:45Z</time>
      </trkpt>
      <trkpt lat="46.06351" lon="7.07804">
        <ele>1064</ele>
        <time>2018-05-10T23:49:45Z</time>
      </trkpt>
      <trkpt lat="46.06325" lon="7.0781">
        <ele>1067</ele>
        <time>2018-05-10T23:50:45Z</time>
      </trkpt>
      <trkpt lat="46.06315" lon="7.07813">
        <ele>1067</ele>
        <time>2018-05-10T23:51:45Z</time>
      </trkpt>
      <trkpt lat="46.06282" lon="7.07822">
        <ele>1067</ele>
        <time>2018-05-10T23:52:45Z</time>
      </trkpt>
      <trkpt lat="46.06264" lon="7.07827">
        <ele>1070</ele>
        <time>2018-05-10T23:53:45Z</time>
      </trkpt>
      <trkpt lat="46.0625" lon="7.0783">
        <ele>1075</ele>
        <time>2018-05-10T23:54:45Z</time>
      </trkpt>
      <trkpt lat="46.06233" lon="7.07834">
        <ele>1086</ele>
        <time>2018-05-10T23:55:45Z</time>
      </trkpt>
      <trkpt lat="46.06216" lon="7.0784">
        <ele>1091</ele>
        <time>2018-05-10T23:56:45Z</time>
      </trkpt>
      <trkpt lat="46.06203" lon="7.07844">
        <ele>1093</ele>
        <time>2018-05-10T23:57:45Z</time>
      </trkpt>
      <trkpt lat="46.06192" lon="7.07845">
        <ele>1093</ele>
        <time>2018-05-10T23:58:45Z</time>
      </trkpt>
      <trkpt lat="46.06178" lon="7.07846">
        <ele>1091</ele>
        <time>2018-05-10T23:59:45Z</time>
      </trkpt>
      <trkpt lat="46.06158" lon="7.0785">
        <ele>1093</ele>
        <time>2018-05-11T00:00:45Z</time>
      </trkpt>
      <trkpt lat="46.06133" lon="7.07854">
        <ele>1096</ele>
        <time>2018-05-11T00:01:45Z</time>
      </trkpt>
      <trkpt lat="46.06119" lon="7.07857">
        <ele>1097</ele>
        <time>2018-05-11T00:02:45Z</time>
      </trkpt>
      <trkpt lat="46.06109" lon="7.07861">
        <ele>1097</ele>
        <time>2018-05-11T00:03:45Z</time>
      </trkpt>
      <trkpt lat="46.0608" lon="7.07872">
        <ele>1099</ele>
        <time>2018-05-11T00:04:45Z</time>
      </trkpt>
      <trkpt lat="46.06054" lon="7.0788">
        <ele>1100</ele>
        <time>2018-05-11T00:05:45Z</time>
      </trkpt>
      <trkpt lat="46.06045" lon="7.07883">
        <ele>1101</ele>
        <time>2018-05-11T00:06:45Z</time>
      </trkpt>
      <trkpt lat="46.06035" lon="7.07885">
        <ele>1101</ele>
        <time>2018-05-11T00:07:45Z</time>
      </trkpt>
      <trkpt lat="46.06023" lon="7.07885">
        <ele>1101</ele>
        <time>2018-05-11T00:08:45Z</time>
      </trkpt>
      <trkpt lat="46.06015" lon="7.07883">
        <ele>1101</ele>
        <time>2018-05-11T00:09:45Z</time>
      </trkpt>
      <trkpt lat="46.06013" lon="7.07882">
        <ele>1101</ele>
        <time>2018-05-11T00:10:45Z</time>
      </trkpt>
      <trkpt lat="46.06013" lon="7.07882">
        <ele>1101</ele>
        <time>2018-05-11T00:11:45Z</time>
      </trkpt>
      <trkpt lat="46.06012" lon="7.07882">
        <ele>1101</ele>
        <time>2018-05-11T00:12:45Z</time>
      </trkpt>
      <trkpt lat="46.06007" lon="7.07879">
        <ele>1100</ele>
        <time>2018-05-11T00:13:45Z</time>
      </trkpt>
      <trkpt lat="46.06002" lon="7.07874">
        <ele>1100</ele>
        <time>2018-05-11T00:14:45Z</time>
      </trkpt>
      <trkpt lat="46.05998" lon="7.07868">
        <ele>1100</ele>
        <time>2018-05-11T00:15:45Z</time>
      </trkpt>
      <trkpt lat="46.05994" lon="7.07861">
        <ele>1099</ele>
        <time>2018-05-11T00:16:45Z</time>
      </trkpt>
      <trkpt lat="46.05989" lon="7.07855">
        <ele>1098</ele>
        <time>2018-05-11T00:17:45Z</time>
      </trkpt>
      <trkpt lat="46.05982" lon="7.07848">
        <ele>1097</ele>
        <time>2018-05-11T00:18:45Z</time>
      </trkpt>
      <trkpt lat="46.05972" lon="7.07842">
        <ele>1098</ele>
        <time>2018-05-11T00:19:45Z</time>
      </trkpt>
      <trkpt lat="46.05962" lon="7.07838">
        <ele>1099</ele>
        <time>2018-05-11T00:20:45Z</time>
      </trkpt>
      <trkpt lat="46.0595" lon="7.07835">
        <ele>1099</ele>
        <time>2018-05-11T00:21:45Z</time>
      </trkpt>
      <trkpt lat="46.05944" lon="7.07836">
        <ele>1099</ele>
        <time>2018-05-11T00:22:45Z</time>
      </trkpt>
      <trkpt lat="46.05935" lon="7.07839">
        <ele>1099</ele>
        <time>2018-05-11T00:23:45Z</time>
      </trkpt>
      <trkpt lat="46.05922" lon="7.07852">
        <ele>1099</ele>
        <time>2018-05-11T00:24:45Z</time>
      </trkpt>
      <trkpt lat="46.05911" lon="7.07866">
        <ele>1099</ele>
        <time>2018-05-11T00:25:45Z</time>
      </trkpt>
      <trkpt lat="46.05899" lon="7.07876">
        <ele>1100</ele>
        <time>2018-05-11T00:26:45Z</time>
      </trkpt>
      <trkpt lat="46.05876" lon="7.07895">
        <ele>1101</ele>
        <time>2018-05-11T00:27:45Z</time>
      </trkpt>
      <trkpt lat="46.05854" lon="7.0792">
        <ele>1118</ele>
        <time>2018-05-11T00:28:45Z</time>
      </trkpt>
      <trkpt lat="46.05829" lon="7.07956">
        <ele>1127</ele>
        <time>2018-05-11T00:29:45Z</time>
      </trkpt>
      <trkpt lat="46.05821" lon="7.07964">
        <ele>1129</ele>
        <time>2018-05-11T00:30:45Z</time>
      </trkpt>
      <trkpt lat="46.05815" lon="7.07969">
        <ele>1131</ele>
        <time>2018-05-11T00:31:45Z</time>
      </trkpt>
      <trkpt lat="46.0581" lon="7.07972">
        <ele>1131</ele>
        <time>2018-05-11T00:32:45Z</time>
      </trkpt>
      <trkpt lat="46.05801" lon="7.07977">
        <ele>1132</ele>
        <time>2018-05-11T00:33:45Z</time>
      </trkpt>
      <trkpt lat="46.05792" lon="7.0798">
        <ele>1132</ele>
        <time>2018-05-11T00:34:45Z</time>
      </trkpt>
      <trkpt lat="46.05774" lon="7.07984">
        <ele>1135</ele>
        <time>2018-05-11T00:35:45Z</time>
      </trkpt>
      <trkpt lat="46.05774" lon="7.07984">
        <ele>1135</ele>
        <time>2018-05-11T00:36:45Z</time>
      </trkpt>
      <trkpt lat="46.05746" lon="7.07996">
        <ele>1144</ele>
        <time>2018-05-11T00:37:45Z</time>
      </trkpt>
      <trkpt lat="46.05734" lon="7.08001">
        <ele>1156</ele>
        <time>2018-05-11T00:38:45Z</time>
      </trkpt>
      <trkpt lat="46.05725" lon="7.08006">
        <ele>1157</ele>
        <time>2018-05-11T00:39:45Z</time>
      </trkpt>
      <trkpt lat="46.05713" lon="7.0801">
        <ele>1158</ele>
        <time>2018-05-11T00:40:45Z</time>
      </trkpt>
      <trkpt lat="46.05702" lon="7.08011">
        <ele>1156</ele>
        <time>2018-05-11T00:41:45Z</time>
      </trkpt>
      <trkpt lat="46.05691" lon="7.08011">
        <ele>1154</ele>
        <time>2018-05-11T00:42:45Z</time>
      </trkpt>
      <trkpt lat="46.05681" lon="7.08011">
        <ele>1151</ele>
        <time>2018-05-11T00:43:45Z</time>
      </trkpt>
      <trkpt lat="46.05671" lon="7.08014">
        <ele>1149</ele>
        <time>2018-05-11T00:44:45Z</time>
      </trkpt>
      <trkpt lat="46.05662" lon="7.08019">
        <ele>1145</ele>
        <time>2018-05-11T00:45:45Z</time>
      </trkpt>
      <trkpt lat="46.0565" lon="7.08027">
        <ele>1147</ele>
        <time>2018-05-11T00:46:45Z</time>
      </trkpt>
      <trkpt lat="46.05636" lon="7.08038">
        <ele>1149</ele>
        <time>2018-05-11T00:47:45Z</time>
      </trkpt>
      <trkpt lat="46.05625" lon="7.08047">
        <ele>1150</ele>
        <time>2018-05-11T00:48:45Z</time>
      </trkpt>
      <trkpt lat="46.05609" lon="7.08058">
        <ele>1151</ele>
        <time>2018-05-11T00:49:45Z</time>
      </trkpt>
      <trkpt lat="46.05607" lon="7.08059">
        <ele>1151</ele>
        <time>2018-05-11T00:50:45Z</time>
      </trkpt>
      <trkpt lat="46.05601" lon="7.08061">
        <ele>1151</ele>
        <time>2018-05-11T00:51:45Z</time>
      </trkpt>
      <trkpt lat="46.05596" lon="7.08062">
        <ele>1151</ele>
        <time>2018-05-11T00:52:45Z</time>
      </trkpt>
      <trkpt lat="46.05586" lon="7.08064">
        <ele>1151</ele>
        <time>2018-05-11T00:53:45Z</time>
      </trkpt>
      <trkpt lat="46.05581" lon="7.08065">
        <ele>1146</ele>
        <time>2018-05-11T00:54:45Z</time>
      </trkpt>
      <trkpt lat="46.05573" lon="7.08071">
        <ele>1147</ele>
        <time>2018-05-11T00:55:45Z</time>
      </trkpt>
      <trkpt lat="46.0556" lon="7.0808">
        <ele>1146</ele>
        <time>2018-05-11T00:56:45Z</time>
      </trkpt>
      <trkpt lat="46.05554" lon="7.08085">
        <ele>1161</ele>
        <time>2018-05-11T00:57:45Z</time>
      </trkpt>
      <trkpt lat="46.05543" lon="7.08093">
        <ele>1162</ele>
        <time>2018-05-11T00:58:45Z</time>
      </trkpt>
      <trkpt lat="46.05532" lon="7.08101">
        <ele>1161</ele>
        <time>2018-05-11T00:59:45Z</time>
      </trkpt>
      <trkpt lat="46.05513" lon="7.08114">
        <ele>1162</ele>
        <time>2018-05-11T01:00:45Z</time>
      </trkpt>
      <trkpt lat="46.05503" lon="7.08119">
        <ele>1162</ele>
        <time>2018-05-11T01:01:45Z</time>
      </trkpt>
      <trkpt lat="46.05475" lon="7.08132">
        <ele>1158</ele>
        <time>2018-05-11T01:02:45Z</time>
      </trkpt>
      <trkpt lat="46.05443" lon="7.08148">
        <ele>1159</ele>
        <time>2018-05-11T01:03:45Z</time>
      </trkpt>
      <trkpt lat="46.05424" lon="7.08156">
        <ele>1160</ele>
        <time>2018-05-11T01:04:45Z</time>
      </trkpt>
      <trkpt lat="46.05409" lon="7.08159">
        <ele>1161</ele>
        <time>2018-05-11T01:05:45Z</time>
      </trkpt>
      <trkpt lat="46.05387" lon="7.08163">
        <ele>1162</ele>
        <time>2018-05-11T01:06:45Z</time>
      </trkpt>
      <trkpt lat="46.05387" lon="7.08163">
        <ele>1162</ele>
        <time>2018-05-11T01:07:45Z</time>
      </trkpt>
      <trkpt lat="46.05354" lon="7.08167">
        <ele>1171</ele>
        <time>2018-05-11T01:08:45Z</time>
      </trkpt>
      <trkpt lat="46.05347" lon="7.08167">
        <ele>1170</ele>
        <time>2018-05-11T01:09:45Z</time>
      </trkpt>
      <trkpt lat="46.05344" lon="7.08169">
        <ele>1170</ele>
        <time>2018-05-11T01:10:45Z</time>
      </trkpt>
      <trkpt lat="46.05341" lon="7.08175">
        <ele>1170</ele>
        <time>2018-05-11T01:11:45Z</time>
      </trkpt>
      <trkpt lat="46.05341" lon="7.08183">
        <ele>1171</ele>
        <time>2018-05-11T01:12:45Z</time>
      </trkpt>
      <trkpt lat="46.05342" lon="7.08187">
        <ele>1172</ele>
        <time>2018-05-11T01:13:45Z</time>
      </trkpt>
      <trkpt lat="46.05346" lon="7.0819">
        <ele>1172</ele>
        <time>2018-05-11T01:14:45Z</time>
      </trkpt>
      <trkpt lat="46.05353" lon="7.08192">
        <ele>1172</ele>
        <time>2018-05-11T01:15:45Z</time>
      </trkpt>
      <trkpt lat="46.05363" lon="7.08194">
        <ele>1172</ele>
        <time>2018-05-11T01:16:45Z</time>
      </trkpt>
      <trkpt lat="46.0537" lon="7.08197">
        <ele>1172</ele>
        <time>2018-05-11T01:17:45Z</time>
      </trkpt>
      <trkpt lat="46.05378" lon="7.08201">
        <ele>1172</ele>
        <time>2018-05-11T01:18:45Z</time>
      </trkpt>
      <trkpt lat="46.05406" lon="7.08223">
        <ele>1175</ele>
        <time>2018-05-11T01:19:45Z</time>
      </trkpt>
      <trkpt lat="46.05414" lon="7.08228">
        <ele>1176</ele>
        <time>2018-05-11T01:20:45Z</time>
      </trkpt>
      <trkpt lat="46.05421" lon="7.0823">
        <ele>1180</ele>
        <time>2018-05-11T01:21:45Z</time>
      </trkpt>
      <trkpt lat="46.05429" lon="7.08231">
        <ele>1180</ele>
        <time>2018-05-11T01:22:45Z</time>
      </trkpt>
      <trkpt lat="46.05436" lon="7.0823">
        <ele>1180</ele>
        <time>2018-05-11T01:23:45Z</time>
      </trkpt>
      <trkpt lat="46.05451" lon="7.08225">
        <ele>1181</ele>
        <time>2018-05-11T01:24:45Z</time>
      </trkpt>
      <trkpt lat="46.05465" lon="7.0822">
        <ele>1182</ele>
        <time>2018-05-11T01:25:45Z</time>
      </trkpt>
      <trkpt lat="46.05474" lon="7.08218">
        <ele>1183</ele>
        <time>2018-05-11T01:26:45Z</time>
      </trkpt>
      <trkpt lat="46.05481" lon="7.08217">
        <ele>1184</ele>
        <time>2018-05-11T01:27:45Z</time>
      </trkpt>
      <trkpt lat="46.05485" lon="7.08218">
        <ele>1184</ele>
        <time>2018-05-11T01:28:45Z</time>
      </trkpt>
      <trkpt lat="46.05488" lon="7.0822">
        <ele>1185</ele>
        <time>2018-05-11T01:29:45Z</time>
      </trkpt>
      <trkpt lat="46.05489" lon="7.08225">
        <ele>1187</ele>
        <time>2018-05-11T01:30:45Z</time>
      </trkpt>
      <trkpt lat="46.05488" lon="7.08229">
        <ele>1188</ele>
        <time>2018-05-11T01:31:45Z</time>
      </trkpt>
      <trkpt lat="46.05487" lon="7.08234">
        <ele>1189</ele>
        <time>2018-05-11T01:32:45Z</time>
      </trkpt>
      <trkpt lat="46.05484" lon="7.08238">
        <ele>1190</ele>
        <time>2018-05-11T01:33:45Z</time>
      </trkpt>
      <trkpt lat="46.05478" lon="7.08241">
        <ele>1189</ele>
        <time>2018-05-11T01:34:45Z</time>
      </trkpt>
      <trkpt lat="46.05468" lon="7.08246">
        <ele>1186</ele>
        <time>2018-05-11T01:35:45Z</time>
      </trkpt>
      <trkpt lat="46.05456" lon="7.08256">
        <ele>1203</ele>
        <time>2018-05-11T01:36:45Z</time>
      </trkpt>
      <trkpt lat="46.05441" lon="7.0827">
        <ele>1202</ele>
        <time>2018-05-11T01:37:45Z</time>
      </trkpt>
      <trkpt lat="46.05433" lon="7.08279">
        <ele>1203</ele>
        <time>2018-05-11T01:38:45Z</time>
      </trkpt>
      <trkpt lat="46.05428" lon="7.08283">
        <ele>1204</ele>
        <time>2018-05-11T01:39:45Z</time>
      </trkpt>
      <trkpt lat="46.05417" lon="7.0829">
        <ele>1205</ele>
        <time>2018-05-11T01:40:45Z</time>
      </trkpt>
      <trkpt lat="46.05407" lon="7.08295">
        <ele>1198</ele>
        <time>2018-05-11T01:41:45Z</time>
      </trkpt>
      <trkpt lat="46.05397" lon="7.08299">
        <ele>1199</ele>
        <time>2018-05-11T01:42:45Z</time>
      </trkpt>
      <trkpt lat="46.05378" lon="7.08302">
        <ele>1198</ele>
        <time>2018-05-11T01:43:45Z</time>
      </trkpt>
      <trkpt lat="46.05367" lon="7.08305">
        <ele>1198</ele>
        <time>2018-05-11T01:44:45Z</time>
      </trkpt>
      <trkpt lat="46.05348" lon="7.08311">
        <ele>1199</ele>
        <time>2018-05-11T01:45:45Z</time>
      </trkpt>
      <trkpt lat="46.05333" lon="7.08314">
        <ele>1200</ele>
        <time>2018-05-11T01:46:45Z</time>
      </trkpt>
      <trkpt lat="46.05318" lon="7.08318">
        <ele>1200</ele>
        <time>2018-05-11T01:47:45Z</time>
      </trkpt>
      <trkpt lat="46.05306" lon="7.08327">
        <ele>1201</ele>
        <time>2018-05-11T01:48:45Z</time>
      </trkpt>
      <trkpt lat="46.05292" lon="7.08337">
        <ele>1217</ele>
        <time>2018-05-11T01:49:45Z</time>
      </trkpt>
      <trkpt lat="46.05282" lon="7.08342">
        <ele>1217</ele>
        <time>2018-05-11T01:50:45Z</time>
      </trkpt>
      <trkpt lat="46.05278" lon="7.08348">
        <ele>1217</ele>
        <time>2018-05-11T01:51:45Z</time>
      </trkpt>
      <trkpt lat="46.05278" lon="7.08348">
        <ele>1217</ele>
        <time>2018-05-11T01:52:45Z</time>
      </trkpt>
      <trkpt lat="46.05277" lon="7.08352">
        <ele>1218</ele>
        <time>2018-05-11T01:53:45Z</time>
      </trkpt>
      <trkpt lat="46.05278" lon="7.08356">
        <ele>1218</ele>
        <time>2018-05-11T01:54:45Z</time>
      </trkpt>
      <trkpt lat="46.05279" lon="7.08358">
        <ele>1219</ele>
        <time>2018-05-11T01:55:45Z</time>
      </trkpt>
      <trkpt lat="46.05282" lon="7.08359">
        <ele>1219</ele>
        <time>2018-05-11T01:56:45Z</time>
      </trkpt>
      <trkpt lat="46.05286" lon="7.08359">
        <ele>1219</ele>
        <time>2018-05-11T01:57:45Z</time>
      </trkpt>
      <trkpt lat="46.05291" lon="7.08358">
        <ele>1219</ele>
        <time>2018-05-11T01:58:45Z</time>
      </trkpt>
      <trkpt lat="46.05302" lon="7.08353">
        <ele>1218</ele>
        <time>2018-05-11T01:59:45Z</time>
      </trkpt>
      <trkpt lat="46.05309" lon="7.08352">
        <ele>1218</ele>
        <time>2018-05-11T02:00:45Z</time>
      </trkpt>
      <trkpt lat="46.05322" lon="7.08353">
        <ele>1216</ele>
        <time>2018-05-11T02:01:45Z</time>
      </trkpt>
      <trkpt lat="46.05332" lon="7.08357">
        <ele>1217</ele>
        <time>2018-05-11T02:02:45Z</time>
      </trkpt>
      <trkpt lat="46.0534" lon="7.0836">
        <ele>1224</ele>
        <time>2018-05-11T02:03:45Z</time>
      </trkpt>
      <trkpt lat="46.05349" lon="7.08363">
        <ele>1226</ele>
        <time>2018-05-11T02:04:45Z</time>
      </trkpt>
      <trkpt lat="46.05357" lon="7.08363">
        <ele>1227</ele>
        <time>2018-05-11T02:05:45Z</time>
      </trkpt>
      <trkpt lat="46.05363" lon="7.08363">
        <ele>1228</ele>
        <time>2018-05-11T02:06:45Z</time>
      </trkpt>
      <trkpt lat="46.05374" lon="7.08361">
        <ele>1229</ele>
        <time>2018-05-11T02:07:45Z</time>
      </trkpt>
      <trkpt lat="46.05386" lon="7.08359">
        <ele>1229</ele>
        <time>2018-05-11T02:08:45Z</time>
      </trkpt>
      <trkpt lat="46.05403" lon="7.08355">
        <ele>1228</ele>
        <time>2018-05-11T02:09:45Z</time>
      </trkpt>
      <trkpt lat="46.05416" lon="7.08351">
        <ele>1226</ele>
        <time>2018-05-11T02:10:45Z</time>
      </trkpt>
      <trkpt lat="46.05421" lon="7.0835">
        <ele>1233</ele>
        <time>2018-05-11T02:11:45Z</time>
      </trkpt>
      <trkpt lat="46.05425" lon="7.0835">
        <ele>1234</ele>
        <time>2018-05-11T02:12:45Z</time>
      </trkpt>
      <trkpt lat="46.05428" lon="7.08351">
        <ele>1235</ele>
        <time>2018-05-11T02:13:45Z</time>
      </trkpt>
      <trkpt lat="46.05429" lon="7.08354">
        <ele>1237</ele>
        <time>2018-05-11T02:14:45Z</time>
      </trkpt>
      <trkpt lat="46.0543" lon="7.08358">
        <ele>1239</ele>
        <time>2018-05-11T02:15:45Z</time>
      </trkpt>
      <trkpt lat="46.0543" lon="7.08361">
        <ele>1240</ele>
        <time>2018-05-11T02:16:45Z</time>
      </trkpt>
      <trkpt lat="46.05428" lon="7.08364">
        <ele>1241</ele>
        <time>2018-05-11T02:17:45Z</time>
      </trkpt>
      <trkpt lat="46.05426" lon="7.08367">
        <ele>1242</ele>
        <time>2018-05-11T02:18:45Z</time>
      </trkpt>
      <trkpt lat="46.05421" lon="7.08369">
        <ele>1243</ele>
        <time>2018-05-11T02:19:45Z</time>
      </trkpt>
      <trkpt lat="46.05415" lon="7.0837">
        <ele>1233</ele>
        <time>2018-05-11T02:20:45Z</time>
      </trkpt>
      <trkpt lat="46.05406" lon="7.08373">
        <ele>1234</ele>
        <time>2018-05-11T02:21:45Z</time>
      </trkpt>
      <trkpt lat="46.05395" lon="7.08378">
        <ele>1235</ele>
        <time>2018-05-11T02:22:45Z</time>
      </trkpt>
      <trkpt lat="46.05384" lon="7.08385">
        <ele>1236</ele>
        <time>2018-05-11T02:23:45Z</time>
      </trkpt>
      <trkpt lat="46.05372" lon="7.08395">
        <ele>1237</ele>
        <time>2018-05-11T02:24:45Z</time>
      </trkpt>
      <trkpt lat="46.05351" lon="7.08418">
        <ele>1257</ele>
        <time>2018-05-11T02:25:45Z</time>
      </trkpt>
      <trkpt lat="46.05319" lon="7.08446">
        <ele>1252</ele>
        <time>2018-05-11T02:26:45Z</time>
      </trkpt>
      <trkpt lat="46.05293" lon="7.08466">
        <ele>1254</ele>
        <time>2018-05-11T02:27:45Z</time>
      </trkpt>
      <trkpt lat="46.05272" lon="7.08486">
        <ele>1256</ele>
        <time>2018-05-11T02:28:45Z</time>
      </trkpt>
      <trkpt lat="46.05256" lon="7.08506">
        <ele>1265</ele>
        <time>2018-05-11T02:29:45Z</time>
      </trkpt>
      <trkpt lat="46.05241" lon="7.08523">
        <ele>1263</ele>
        <time>2018-05-11T02:30:45Z</time>
      </trkpt>
      <trkpt lat="46.05236" lon="7.0853">
        <ele>1264</ele>
        <time>2018-05-11T02:31:45Z</time>
      </trkpt>
      <trkpt lat="46.05231" lon="7.08534">
        <ele>1265</ele>
        <time>2018-05-11T02:32:45Z</time>
      </trkpt>
      <trkpt lat="46.05222" lon="7.08539">
        <ele>1265</ele>
        <time>2018-05-11T02:33:45Z</time>
      </trkpt>
      <trkpt lat="46.05208" lon="7.08543">
        <ele>1265</ele>
        <time>2018-05-11T02:34:45Z</time>
      </trkpt>
      <trkpt lat="46.05198" lon="7.08546">
        <ele>1265</ele>
        <time>2018-05-11T02:35:45Z</time>
      </trkpt>
      <trkpt lat="46.05176" lon="7.08555">
        <ele>1267</ele>
        <time>2018-05-11T02:36:45Z</time>
      </trkpt>
      <trkpt lat="46.05159" lon="7.08565">
        <ele>1267</ele>
        <time>2018-05-11T02:37:45Z</time>
      </trkpt>
      <trkpt lat="46.05143" lon="7.08575">
        <ele>1266</ele>
        <time>2018-05-11T02:38:45Z</time>
      </trkpt>
      <trkpt lat="46.05143" lon="7.08575">
        <ele>1266</ele>
        <time>2018-05-11T02:39:45Z</time>
      </trkpt>
      <trkpt lat="46.05121" lon="7.0859">
        <ele>1282</ele>
        <time>2018-05-11T02:40:45Z</time>
      </trkpt>
      <trkpt lat="46.05103" lon="7.086">
        <ele>1281</ele>
        <time>2018-05-11T02:41:45Z</time>
      </trkpt>
      <trkpt lat="46.05093" lon="7.08603">
        <ele>1280</ele>
        <time>2018-05-11T02:42:45Z</time>
      </trkpt>
      <trkpt lat="46.05084" lon="7.08603">
        <ele>1279</ele>
        <time>2018-05-11T02:43:45Z</time>
      </trkpt>
      <trkpt lat="46.05078" lon="7.08602">
        <ele>1279</ele>
        <time>2018-05-11T02:44:45Z</time>
      </trkpt>
      <trkpt lat="46.05066" lon="7.08595">
        <ele>1279</ele>
        <time>2018-05-11T02:45:45Z</time>
      </trkpt>
      <trkpt lat="46.05046" lon="7.08582">
        <ele>1269</ele>
        <time>2018-05-11T02:46:45Z</time>
      </trkpt>
      <trkpt lat="46.05038" lon="7.08579">
        <ele>1269</ele>
        <time>2018-05-11T02:47:45Z</time>
      </trkpt>
      <trkpt lat="46.05029" lon="7.08578">
        <ele>1270</ele>
        <time>2018-05-11T02:48:45Z</time>
      </trkpt>
      <trkpt lat="46.05021" lon="7.08578">
        <ele>1271</ele>
        <time>2018-05-11T02:49:45Z</time>
      </trkpt>
      <trkpt lat="46.0501" lon="7.0858">
        <ele>1273</ele>
        <time>2018-05-11T02:50:45Z</time>
      </trkpt>
      <trkpt lat="46.04993" lon="7.08583">
        <ele>1279</ele>
        <time>2018-05-11T02:51:45Z</time>
      </trkpt>
      <trkpt lat="46.04975" lon="7.08586">
        <ele>1285</ele>
        <time>2018-05-11T02:52:45Z</time>
      </trkpt>
      <trkpt lat="46.04968" lon="7.08589">
        <ele>1287</ele>
        <time>2018-05-11T02:53:45Z</time>
      </trkpt>
      <trkpt lat="46.04964" lon="7.08592">
        <ele>1287</ele>
        <time>2018-05-11T02:54:45Z</time>
      </trkpt>
      <trkpt lat="46.04962" lon="7.08596">
        <ele>1288</ele>
        <time>2018-05-11T02:55:45Z</time>
      </trkpt>
      <trkpt lat="46.04962" lon="7.086">
        <ele>1288</ele>
        <time>2018-05-11T02:56:45Z</time>
      </trkpt>
      <trkpt lat="46.04963" lon="7.08605">
        <ele>1288</ele>
        <time>2018-05-11T02:57:45Z</time>
      </trkpt>
      <trkpt lat="46.04963" lon="7.08605">
        <ele>1288</ele>
        <time>2018-05-11T02:58:45Z</time>
      </trkpt>
      <trkpt lat="46.04966" lon="7.08608">
        <ele>1288</ele>
        <time>2018-05-11T02:59:45Z</time>
      </trkpt>
      <trkpt lat="46.0497" lon="7.08609">
        <ele>1288</ele>
        <time>2018-05-11T03:00:45Z</time>
      </trkpt>
      <trkpt lat="46.04974" lon="7.0861">
        <ele>1288</ele>
        <time>2018-05-11T03:01:45Z</time>
      </trkpt>
      <trkpt lat="46.04982" lon="7.08608">
        <ele>1287</ele>
        <time>2018-05-11T03:02:45Z</time>
      </trkpt>
      <trkpt lat="46.04987" lon="7.08609">
        <ele>1287</ele>
        <time>2018-05-11T03:03:45Z</time>
      </trkpt>
      <trkpt lat="46.04993" lon="7.08612">
        <ele>1287</ele>
        <time>2018-05-11T03:04:45Z</time>
      </trkpt>
      <trkpt lat="46.05004" lon="7.08618">
        <ele>1285</ele>
        <time>2018-05-11T03:05:45Z</time>
      </trkpt>
      <trkpt lat="46.05019" lon="7.08627">
        <ele>1286</ele>
        <time>2018-05-11T03:06:45Z</time>
      </trkpt>
      <trkpt lat="46.05028" lon="7.08635">
        <ele>1287</ele>
        <time>2018-05-11T03:07:45Z</time>
      </trkpt>
      <trkpt lat="46.05035" lon="7.08642">
        <ele>1288</ele>
        <time>2018-05-11T03:08:45Z</time>
      </trkpt>
      <trkpt lat="46.05039" lon="7.0865">
        <ele>1289</ele>
        <time>2018-05-11T03:09:45Z</time>
      </trkpt>
      <trkpt lat="46.0504" lon="7.08653">
        <ele>1289</ele>
        <time>2018-05-11T03:10:45Z</time>
      </trkpt>
      <trkpt lat="46.0504" lon="7.08657">
        <ele>1289</ele>
        <time>2018-05-11T03:11:45Z</time>
      </trkpt>
      <trkpt lat="46.0504" lon="7.08661">
        <ele>1289</ele>
        <time>2018-05-11T03:12:45Z</time>
      </trkpt>
      <trkpt lat="46.05039" lon="7.08664">
        <ele>1290</ele>
        <time>2018-05-11T03:13:45Z</time>
      </trkpt>
      <trkpt lat="46.05036" lon="7.08667">
        <ele>1308</ele>
        <time>2018-05-11T03:14:45Z</time>
      </trkpt>
      <trkpt lat="46.05032" lon="7.08668">
        <ele>1308</ele>
        <time>2018-05-11T03:15:45Z</time>
      </trkpt>
      <trkpt lat="46.05027" lon="7.08667">
        <ele>1307</ele>
        <time>2018-05-11T03:16:45Z</time>
      </trkpt>
      <trkpt lat="46.05017" lon="7.08661">
        <ele>1292</ele>
        <time>2018-05-11T03:17:45Z</time>
      </trkpt>
      <trkpt lat="46.05005" lon="7.08655">
        <ele>1294</ele>
        <time>2018-05-11T03:18:45Z</time>
      </trkpt>
      <trkpt lat="46.04999" lon="7.08654">
        <ele>1295</ele>
        <time>2018-05-11T03:19:45Z</time>
      </trkpt>
      <trkpt lat="46.04992" lon="7.08654">
        <ele>1295</ele>
        <time>2018-05-11T03:20:45Z</time>
      </trkpt>
      <trkpt lat="46.04984" lon="7.08655">
        <ele>1294</ele>
        <time>2018-05-11T03:21:45Z</time>
      </trkpt>
      <trkpt lat="46.04975" lon="7.0866">
        <ele>1294</ele>
        <time>2018-05-11T03:22:45Z</time>
      </trkpt>
      <trkpt lat="46.04964" lon="7.08666">
        <ele>1294</ele>
        <time>2018-05-11T03:23:45Z</time>
      </trkpt>
      <trkpt lat="46.04949" lon="7.08675">
        <ele>1305</ele>
        <time>2018-05-11T03:24:45Z</time>
      </trkpt>
      <trkpt lat="46.04935" lon="7.08679">
        <ele>1304</ele>
        <time>2018-05-11T03:25:45Z</time>
      </trkpt>
      <trkpt lat="46.04924" lon="7.08684">
        <ele>1304</ele>
        <time>2018-05-11T03:26:45Z</time>
      </trkpt>
      <trkpt lat="46.04917" lon="7.08689">
        <ele>1304</ele>
        <time>2018-05-11T03:27:45Z</time>
      </trkpt>
      <trkpt lat="46.0491" lon="7.08697">
        <ele>1303</ele>
        <time>2018-05-11T03:28:45Z</time>
      </trkpt>
      <trkpt lat="46.04892" lon="7.08719">
        <ele>1305</ele>
        <time>2018-05-11T03:29:45Z</time>
      </trkpt>
      <trkpt lat="46.04863" lon="7.08753">
        <ele>1313</ele>
        <time>2018-05-11T03:30:45Z</time>
      </trkpt>
      <trkpt lat="46.04826" lon="7.08792">
        <ele>1318</ele>
        <time>2018-05-11T03:31:45Z</time>
      </trkpt>
      <trkpt lat="46.04821" lon="7.08802">
        <ele>1319</ele>
        <time>2018-05-11T03:32:45Z</time>
      </trkpt>
      <trkpt lat="46.04817" lon="7.08809">
        <ele>1319</ele>
        <time>2018-05-11T03:33:45Z</time>
      </trkpt>
      <trkpt lat="46.04809" lon="7.08819">
        <ele>1320</ele>
        <time>2018-05-11T03:34:45Z</time>
      </trkpt>
      <trkpt lat="46.04798" lon="7.08832">
        <ele>1322</ele>
        <time>2018-05-11T03:35:45Z</time>
      </trkpt>
      <trkpt lat="46.04788" lon="7.08841">
        <ele>1327</ele>
        <time>2018-05-11T03:36:45Z</time>
      </trkpt>
      <trkpt lat="46.04779" lon="7.08851">
        <ele>1327</ele>
        <time>2018-05-11T03:37:45Z</time>
      </trkpt>
      <trkpt lat="46.04772" lon="7.0886">
        <ele>1328</ele>
        <time>2018-05-11T03:38:45Z</time>
      </trkpt>
      <trkpt lat="46.04769" lon="7.08865">
        <ele>1328</ele>
        <time>2018-05-11T03:39:45Z</time>
      </trkpt>
      <trkpt lat="46.04768" lon="7.08869">
        <ele>1328</ele>
        <time>2018-05-11T03:40:45Z</time>
      </trkpt>
      <trkpt lat="46.04767" lon="7.08873">
        <ele>1328</ele>
        <time>2018-05-11T03:41:45Z</time>
      </trkpt>
      <trkpt lat="46.04768" lon="7.08877">
        <ele>1328</ele>
        <time>2018-05-11T03:42:45Z</time>
      </trkpt>
      <trkpt lat="46.0477" lon="7.08881">
        <ele>1328</ele>
        <time>2018-05-11T03:43:45Z</time>
      </trkpt>
      <trkpt lat="46.04773" lon="7.08882">
        <ele>1328</ele>
        <time>2018-05-11T03:44:45Z</time>
      </trkpt>
      <trkpt lat="46.04777" lon="7.08882">
        <ele>1328</ele>
        <time>2018-05-11T03:45:45Z</time>
      </trkpt>
      <trkpt lat="46.04797" lon="7.08878">
        <ele>1328</ele>
        <time>2018-05-11T03:46:45Z</time>
      </trkpt>
      <trkpt lat="46.0483" lon="7.08873">
        <ele>1327</ele>
        <time>2018-05-11T03:47:45Z</time>
      </trkpt>
      <trkpt lat="46.04847" lon="7.08868">
        <ele>1332</ele>
        <time>2018-05-11T03:48:45Z</time>
      </trkpt>
      <trkpt lat="46.04855" lon="7.08862">
        <ele>1332</ele>
        <time>2018-05-11T03:49:45Z</time>
      </trkpt>
      <trkpt lat="46.04866" lon="7.08851">
        <ele>1332</ele>
        <time>2018-05-11T03:50:45Z</time>
      </trkpt>
      <trkpt lat="46.04885" lon="7.08839">
        <ele>1334</ele>
        <time>2018-05-11T03:51:45Z</time>
      </trkpt>
      <trkpt lat="46.04902" lon="7.08828">
        <ele>1326</ele>
        <time>2018-05-11T03:52:45Z</time>
      </trkpt>
      <trkpt lat="46.04925" lon="7.08815">
        <ele>1333</ele>
        <time>2018-05-11T03:53:45Z</time>
      </trkpt>
      <trkpt lat="46.04928" lon="7.08814">
        <ele>1333</ele>
        <time>2018-05-11T03:54:45Z</time>
      </trkpt>
      <trkpt lat="46.04932" lon="7.08815">
        <ele>1333</ele>
        <time>2018-05-11T03:55:45Z</time>
      </trkpt>
      <trkpt lat="46.04935" lon="7.08818">
        <ele>1334</ele>
        <time>2018-05-11T03:56:45Z</time>
      </trkpt>
      <trkpt lat="46.04936" lon="7.08822">
        <ele>1334</ele>
        <time>2018-05-11T03:57:45Z</time>
      </trkpt>
      <trkpt lat="46.04935" lon="7.08825">
        <ele>1334</ele>
        <time>2018-05-11T03:58:45Z</time>
      </trkpt>
      <trkpt lat="46.04935" lon="7.0883">
        <ele>1334</ele>
        <time>2018-05-11T03:59:45Z</time>
      </trkpt>
      <trkpt lat="46.04933" lon="7.08835">
        <ele>1345</ele>
        <time>2018-05-11T04:00:45Z</time>
      </trkpt>
      <trkpt lat="46.04925" lon="7.08845">
        <ele>1344</ele>
        <time>2018-05-11T04:01:45Z</time>
      </trkpt>
      <trkpt lat="46.0491" lon="7.08859">
        <ele>1337</ele>
        <time>2018-05-11T04:02:45Z</time>
      </trkpt>
      <trkpt lat="46.04904" lon="7.08868">
        <ele>1338</ele>
        <time>2018-05-11T04:03:45Z</time>
      </trkpt>
      <trkpt lat="46.04888" lon="7.08898">
        <ele>1341</ele>
        <time>2018-05-11T04:04:45Z</time>
      </trkpt>
      <trkpt lat="46.04847" lon="7.08981">
        <ele>1350</ele>
        <time>2018-05-11T04:05:45Z</time>
      </trkpt>
      <trkpt lat="46.04833" lon="7.0902">
        <ele>1345</ele>
        <time>2018-05-11T04:06:45Z</time>
      </trkpt>
      <trkpt lat="46.04829" lon="7.0904">
        <ele>1347</ele>
        <time>2018-05-11T04:07:45Z</time>
      </trkpt>
      <trkpt lat="46.04827" lon="7.09056">
        <ele>1350</ele>
        <time>2018-05-11T04:08:45Z</time>
      </trkpt>
      <trkpt lat="46.04822" lon="7.0908">
        <ele>1355</ele>
        <time>2018-05-11T04:09:45Z</time>
      </trkpt>
      <trkpt lat="46.04818" lon="7.09091">
        <ele>1363</ele>
        <time>2018-05-11T04:10:45Z</time>
      </trkpt>
      <trkpt lat="46.0481" lon="7.09104">
        <ele>1363</ele>
        <time>2018-05-11T04:11:45Z</time>
      </trkpt>
      <trkpt lat="46.04802" lon="7.09115">
        <ele>1364</ele>
        <time>2018-05-11T04:12:45Z</time>
      </trkpt>
      <trkpt lat="46.04793" lon="7.09124">
        <ele>1364</ele>
        <time>2018-05-11T04:13:45Z</time>
      </trkpt>
      <trkpt lat="46.04782" lon="7.09132">
        <ele>1364</ele>
        <time>2018-05-11T04:14:45Z</time>
      </trkpt>
      <trkpt lat="46.04759" lon="7.09146">
        <ele>1364</ele>
        <time>2018-05-11T04:15:45Z</time>
      </trkpt>
      <trkpt lat="46.04754" lon="7.0915">
        <ele>1364</ele>
        <time>2018-05-11T04:16:45Z</time>
      </trkpt>
      <trkpt lat="46.04749" lon="7.09153">
        <ele>1358</ele>
        <time>2018-05-11T04:17:45Z</time>
      </trkpt>
      <trkpt lat="46.04738" lon="7.09166">
        <ele>1359</ele>
        <time>2018-05-11T04:18:45Z</time>
      </trkpt>
      <trkpt lat="46.0473" lon="7.09175">
        <ele>1366</ele>
        <time>2018-05-11T04:19:45Z</time>
      </trkpt>
      <trkpt lat="46.0471" lon="7.09201">
        <ele>1367</ele>
        <time>2018-05-11T04:20:45Z</time>
      </trkpt>
      <trkpt lat="46.04689" lon="7.09228">
        <ele>1368</ele>
        <time>2018-05-11T04:21:45Z</time>
      </trkpt>
      <trkpt lat="46.04673" lon="7.09245">
        <ele>1367</ele>
        <time>2018-05-11T04:22:45Z</time>
      </trkpt>
      <trkpt lat="46.04665" lon="7.09255">
        <ele>1367</ele>
        <time>2018-05-11T04:23:45Z</time>
      </trkpt>
      <trkpt lat="46.04657" lon="7.09267">
        <ele>1369</ele>
        <time>2018-05-11T04:24:45Z</time>
      </trkpt>
      <trkpt lat="46.04653" lon="7.09275">
        <ele>1369</ele>
        <time>2018-05-11T04:25:45Z</time>
      </trkpt>
      <trkpt lat="46.0465" lon="7.09281">
        <ele>1370</ele>
        <time>2018-05-11T04:26:45Z</time>
      </trkpt>
      <trkpt lat="46.04647" lon="7.09289">
        <ele>1371</ele>
        <time>2018-05-11T04:27:45Z</time>
      </trkpt>
      <trkpt lat="46.04637" lon="7.09317">
        <ele>1374</ele>
        <time>2018-05-11T04:28:45Z</time>
      </trkpt>
      <trkpt lat="46.04629" lon="7.09346">
        <ele>1391</ele>
        <time>2018-05-11T04:29:45Z</time>
      </trkpt>
      <trkpt lat="46.04624" lon="7.09358">
        <ele>1392</ele>
        <time>2018-05-11T04:30:45Z</time>
      </trkpt>
      <trkpt lat="46.04622" lon="7.09365">
        <ele>1393</ele>
        <time>2018-05-11T04:31:45Z</time>
      </trkpt>
      <trkpt lat="46.04618" lon="7.09369">
        <ele>1394</ele>
        <time>2018-05-11T04:32:45Z</time>
      </trkpt>
      <trkpt lat="46.04616" lon="7.09372">
        <ele>1394</ele>
        <time>2018-05-11T04:33:45Z</time>
      </trkpt>
      <trkpt lat="46.04612" lon="7.09375">
        <ele>1394</ele>
        <time>2018-05-11T04:34:45Z</time>
      </trkpt>
      <trkpt lat="46.04609" lon="7.09376">
        <ele>1394</ele>
        <time>2018-05-11T04:35:45Z</time>
      </trkpt>
      <trkpt lat="46.04606" lon="7.09377">
        <ele>1394</ele>
        <time>2018-05-11T04:36:45Z</time>
      </trkpt>
      <trkpt lat="46.04603" lon="7.09378">
        <ele>1394</ele>
        <time>2018-05-11T04:37:45Z</time>
      </trkpt>
      <trkpt lat="46.04597" lon="7.09377">
        <ele>1394</ele>
        <time>2018-05-11T04:38:45Z</time>
      </trkpt>
      <trkpt lat="46.04591" lon="7.09375">
        <ele>1393</ele>
        <time>2018-05-11T04:39:45Z</time>
      </trkpt>
      <trkpt lat="46.04577" lon="7.09369">
        <ele>1386</ele>
        <time>2018-05-11T04:40:45Z</time>
      </trkpt>
      <trkpt lat="46.04562" lon="7.09363">
        <ele>1385</ele>
        <time>2018-05-11T04:41:45Z</time>
      </trkpt>
      <trkpt lat="46.04547" lon="7.09359">
        <ele>1384</ele>
        <time>2018-05-11T04:42:45Z</time>
      </trkpt>
      <trkpt lat="46.04535" lon="7.09358">
        <ele>1384</ele>
        <time>2018-05-11T04:43:45Z</time>
      </trkpt>
      <trkpt lat="46.04523" lon="7.09358">
        <ele>1384</ele>
        <time>2018-05-11T04:44:45Z</time>
      </trkpt>
      <trkpt lat="46.04509" lon="7.09361">
        <ele>1384</ele>
        <time>2018-05-11T04:45:45Z</time>
      </trkpt>
      <trkpt lat="46.04498" lon="7.09364">
        <ele>1382</ele>
        <time>2018-05-11T04:46:45Z</time>
      </trkpt>
      <trkpt lat="46.04477" lon="7.0937">
        <ele>1384</ele>
        <time>2018-05-11T04:47:45Z</time>
      </trkpt>
      <trkpt lat="46.04477" lon="7.0937">
        <ele>1384</ele>
        <time>2018-05-11T04:48:45Z</time>
      </trkpt>
      <trkpt lat="46.04425" lon="7.09401">
        <ele>1387</ele>
        <time>2018-05-11T04:49:45Z</time>
      </trkpt>
      <trkpt lat="46.04405" lon="7.09415">
        <ele>1384</ele>
        <time>2018-05-11T04:50:45Z</time>
      </trkpt>
      <trkpt lat="46.0439" lon="7.0943">
        <ele>1391</ele>
        <time>2018-05-11T04:51:45Z</time>
      </trkpt>
      <trkpt lat="46.04379" lon="7.09443">
        <ele>1391</ele>
        <time>2018-05-11T04:52:45Z</time>
      </trkpt>
      <trkpt lat="46.04365" lon="7.09465">
        <ele>1392</ele>
        <time>2018-05-11T04:53:45Z</time>
      </trkpt>
      <trkpt lat="46.04356" lon="7.0948">
        <ele>1393</ele>
        <time>2018-05-11T04:54:45Z</time>
      </trkpt>
      <trkpt lat="46.0434" lon="7.09519">
        <ele>1403</ele>
        <time>2018-05-11T04:55:45Z</time>
      </trkpt>
      <trkpt lat="46.04323" lon="7.09575">
        <ele>1401</ele>
        <time>2018-05-11T04:56:45Z</time>
      </trkpt>
      <trkpt lat="46.04313" lon="7.09598">
        <ele>1411</ele>
        <time>2018-05-11T04:57:45Z</time>
      </trkpt>
      <trkpt lat="46.04304" lon="7.0961">
        <ele>1413</ele>
        <time>2018-05-11T04:58:45Z</time>
      </trkpt>
      <trkpt lat="46.04292" lon="7.09622">
        <ele>1414</ele>
        <time>2018-05-11T04:59:45Z</time>
      </trkpt>
      <trkpt lat="46.04261" lon="7.09641">
        <ele>1415</ele>
        <time>2018-05-11T05:00:45Z</time>
      </trkpt>
      <trkpt lat="46.04237" lon="7.09652">
        <ele>1414</ele>
        <time>2018-05-11T05:01:45Z</time>
      </trkpt>
      <trkpt lat="46.04225" lon="7.09654">
        <ele>1413</ele>
        <time>2018-05-11T05:02:45Z</time>
      </trkpt>
      <trkpt lat="46.04212" lon="7.09654">
        <ele>1413</ele>
        <time>2018-05-11T05:03:45Z</time>
      </trkpt>
      <trkpt lat="46.04196" lon="7.09651">
        <ele>1414</ele>
        <time>2018-05-11T05:04:45Z</time>
      </trkpt>
      <trkpt lat="46.04177" lon="7.09644">
        <ele>1415</ele>
        <time>2018-05-11T05:05:45Z</time>
      </trkpt>
      <trkpt lat="46.04165" lon="7.09641">
        <ele>1415</ele>
        <time>2018-05-11T05:06:45Z</time>
      </trkpt>
      <trkpt lat="46.04158" lon="7.0964">
        <ele>1415</ele>
        <time>2018-05-11T05:07:45Z</time>
      </trkpt>
      <trkpt lat="46.04152" lon="7.09641">
        <ele>1415</ele>
        <time>2018-05-11T05:08:45Z</time>
      </trkpt>
      <trkpt lat="46.04145" lon="7.09643">
        <ele>1415</ele>
        <time>2018-05-11T05:09:45Z</time>
      </trkpt>
      <trkpt lat="46.04118" lon="7.09652">
        <ele>1414</ele>
        <time>2018-05-11T05:10:45Z</time>
      </trkpt>
      <trkpt lat="46.04081" lon="7.09663">
        <ele>1418</ele>
        <time>2018-05-11T05:11:45Z</time>
      </trkpt>
      <trkpt lat="46.04062" lon="7.09671">
        <ele>1424</ele>
        <time>2018-05-11T05:12:45Z</time>
      </trkpt>
      <trkpt lat="46.04047" lon="7.09683">
        <ele>1425</ele>
        <time>2018-05-11T05:13:45Z</time>
      </trkpt>
      <trkpt lat="46.04029" lon="7.097">
        <ele>1426</ele>
        <time>2018-05-11T05:14:45Z</time>
      </trkpt>
      <trkpt lat="46.03997" lon="7.09746">
        <ele>1430</ele>
        <time>2018-05-11T05:15:45Z</time>
      </trkpt>
      <trkpt lat="46.03966" lon="7.09795">
        <ele>1434</ele>
        <time>2018-05-11T05:16:45Z</time>
      </trkpt>
      <trkpt lat="46.03939" lon="7.09857">
        <ele>1442</ele>
        <time>2018-05-11T05:17:45Z</time>
      </trkpt>
      <trkpt lat="46.03924" lon="7.09914">
        <ele>1445</ele>
        <time>2018-05-11T05:18:45Z</time>
      </trkpt>
      <trkpt lat="46.03906" lon="7.09986">
        <ele>1451</ele>
        <time>2018-05-11T05:19:45Z</time>
      </trkpt>
      <trkpt lat="46.03894" lon="7.10047">
        <ele>1459</ele>
        <time>2018-05-11T05:20:45Z</time>
      </trkpt>
      <trkpt lat="46.03887" lon="7.1006">
        <ele>1460</ele>
        <time>2018-05-11T05:21:45Z</time>
      </trkpt>
      <trkpt lat="46.0388" lon="7.10069">
        <ele>1459</ele>
        <time>2018-05-11T05:22:45Z</time>
      </trkpt>
      <trkpt lat="46.03866" lon="7.10086">
        <ele>1472</ele>
        <time>2018-05-11T05:23:45Z</time>
      </trkpt>
      <trkpt lat="46.03831" lon="7.10125">
        <ele>1463</ele>
        <time>2018-05-11T05:24:45Z</time>
      </trkpt>
      <trkpt lat="46.03776" lon="7.10196">
        <ele>1482</ele>
        <time>2018-05-11T05:25:45Z</time>
      </trkpt>
      <trkpt lat="46.0374" lon="7.10233">
        <ele>1479</ele>
        <time>2018-05-11T05:26:45Z</time>
      </trkpt>
      <trkpt lat="46.03734" lon="7.10236">
        <ele>1478</ele>
        <time>2018-05-11T05:27:45Z</time>
      </trkpt>
      <trkpt lat="46.0373" lon="7.10237">
        <ele>1478</ele>
        <time>2018-05-11T05:28:45Z</time>
      </trkpt>
      <trkpt lat="46.0372" lon="7.10236">
        <ele>1476</ele>
        <time>2018-05-11T05:29:45Z</time>
      </trkpt>
      <trkpt lat="46.03709" lon="7.10232">
        <ele>1475</ele>
        <time>2018-05-11T05:30:45Z</time>
      </trkpt>
      <trkpt lat="46.03693" lon="7.10229">
        <ele>1474</ele>
        <time>2018-05-11T05:31:45Z</time>
      </trkpt>
      <trkpt lat="46.03683" lon="7.1023">
        <ele>1474</ele>
        <time>2018-05-11T05:32:45Z</time>
      </trkpt>
      <trkpt lat="46.03669" lon="7.10232">
        <ele>1475</ele>
        <time>2018-05-11T05:33:45Z</time>
      </trkpt>
      <trkpt lat="46.03646" lon="7.1024">
        <ele>1474</ele>
        <time>2018-05-11T05:34:45Z</time>
      </trkpt>
      <trkpt lat="46.03641" lon="7.10244">
        <ele>1474</ele>
        <time>2018-05-11T05:35:45Z</time>
      </trkpt>
      <trkpt lat="46.03628" lon="7.10253">
        <ele>1484</ele>
        <time>2018-05-11T05:36:45Z</time>
      </trkpt>
      <trkpt lat="46.03617" lon="7.1026">
        <ele>1484</ele>
        <time>2018-05-11T05:37:45Z</time>
      </trkpt>
      <trkpt lat="46.03606" lon="7.10268">
        <ele>1483</ele>
        <time>2018-05-11T05:38:45Z</time>
      </trkpt>
      <trkpt lat="46.03602" lon="7.10271">
        <ele>1483</ele>
        <time>2018-05-11T05:39:45Z</time>
      </trkpt>
      <trkpt lat="46.03582" lon="7.10287">
        <ele>1485</ele>
        <time>2018-05-11T05:40:45Z</time>
      </trkpt>
      <trkpt lat="46.03563" lon="7.10299">
        <ele>1487</ele>
        <time>2018-05-11T05:41:45Z</time>
      </trkpt>
      <trkpt lat="46.03557" lon="7.10303">
        <ele>1487</ele>
        <time>2018-05-11T05:42:45Z</time>
      </trkpt>
      <trkpt lat="46.03551" lon="7.10305">
        <ele>1488</ele>
        <time>2018-05-11T05:43:45Z</time>
      </trkpt>
      <trkpt lat="46.03544" lon="7.10306">
        <ele>1488</ele>
        <time>2018-05-11T05:44:45Z</time>
      </trkpt>
      <trkpt lat="46.03534" lon="7.10304">
        <ele>1488</ele>
        <time>2018-05-11T05:45:45Z</time>
      </trkpt>
      <trkpt lat="46.03508" lon="7.10294">
        <ele>1488</ele>
        <time>2018-05-11T05:46:45Z</time>
      </trkpt>
      <trkpt lat="46.035" lon="7.10292">
        <ele>1493</ele>
        <time>2018-05-11T05:47:45Z</time>
      </trkpt>
      <trkpt lat="46.0349" lon="7.1029">
        <ele>1493</ele>
        <time>2018-05-11T05:48:45Z</time>
      </trkpt>
      <trkpt lat="46.03474" lon="7.10289">
        <ele>1494</ele>
        <time>2018-05-11T05:49:45Z</time>
      </trkpt>
      <trkpt lat="46.03434" lon="7.10287">
        <ele>1497</ele>
        <time>2018-05-11T05:50:45Z</time>
      </trkpt>
      <trkpt lat="46.03413" lon="7.10287">
        <ele>1503</ele>
        <time>2018-05-11T05:51:45Z</time>
      </trkpt>
      <trkpt lat="46.03399" lon="7.10288">
        <ele>1504</ele>
        <time>2018-05-11T05:52:45Z</time>
      </trkpt>
      <trkpt lat="46.03383" lon="7.10292">
        <ele>1504</ele>
        <time>2018-05-11T05:53:45Z</time>
      </trkpt>
      <trkpt lat="46.03369" lon="7.10297">
        <ele>1505</ele>
        <time>2018-05-11T05:54:45Z</time>
      </trkpt>
      <trkpt lat="46.03361" lon="7.103">
        <ele>1505</ele>
        <time>2018-05-11T05:55:45Z</time>
      </trkpt>
      <trkpt lat="46.03357" lon="7.10302">
        <ele>1505</ele>
        <time>2018-05-11T05:56:45Z</time>
      </trkpt>
      <trkpt lat="46.03334" lon="7.10315">
        <ele>1506</ele>
        <time>2018-05-11T05:57:45Z</time>
      </trkpt>
      <trkpt lat="46.03316" lon="7.10329">
        <ele>1511</ele>
        <time>2018-05-11T05:58:45Z</time>
      </trkpt>
      <trkpt lat="46.03305" lon="7.10342">
        <ele>1511</ele>
        <time>2018-05-11T05:59:45Z</time>
      </trkpt>
      <trkpt lat="46.03291" lon="7.10366">
        <ele>1512</ele>
        <time>2018-05-11T06:00:45Z</time>
      </trkpt>
      <trkpt lat="46.03274" lon="7.10389">
        <ele>1512</ele>
        <time>2018-05-11T06:01:45Z</time>
      </trkpt>
      <trkpt lat="46.03251" lon="7.10422">
        <ele>1510</ele>
        <time>2018-05-11T06:02:45Z</time>
      </trkpt>
      <trkpt lat="46.03248" lon="7.10429">
        <ele>1510</ele>
        <time>2018-05-11T06:03:45Z</time>
      </trkpt>
      <trkpt lat="46.03245" lon="7.10437">
        <ele>1510</ele>
        <time>2018-05-11T06:04:45Z</time>
      </trkpt>
      <trkpt lat="46.03244" lon="7.10444">
        <ele>1509</ele>
        <time>2018-05-11T06:05:45Z</time>
      </trkpt>
      <trkpt lat="46.03243" lon="7.10457">
        <ele>1508</ele>
        <time>2018-05-11T06:06:45Z</time>
      </trkpt>
      <trkpt lat="46.03242" lon="7.10481">
        <ele>1506</ele>
        <time>2018-05-11T06:07:45Z</time>
      </trkpt>
      <trkpt lat="46.03245" lon="7.10524">
        <ele>1502</ele>
        <time>2018-05-11T06:08:45Z</time>
      </trkpt>
      <trkpt lat="46.03248" lon="7.10556">
        <ele>1502</ele>
        <time>2018-05-11T06:09:45Z</time>
      </trkpt>
      <trkpt lat="46.03248" lon="7.10556">
        <ele>1502</ele>
        <time>2018-05-11T06:10:45Z</time>
      </trkpt>
      <trkpt lat="46.0325" lon="7.10599">
        <ele>1502</ele>
        <time>2018-05-11T06:11:45Z</time>
      </trkpt>
      <trkpt lat="46.03249" lon="7.10613">
        <ele>1503</ele>
        <time>2018-05-11T06:12:45Z</time>
      </trkpt>
      <trkpt lat="46.03247" lon="7.10619">
        <ele>1503</ele>
        <time>2018-05-11T06:13:45Z</time>
      </trkpt>
      <trkpt lat="46.03244" lon="7.10629">
        <ele>1504</ele>
        <time>2018-05-11T06:14:45Z</time>
      </trkpt>
      <trkpt lat="46.03241" lon="7.10635">
        <ele>1504</ele>
        <time>2018-05-11T06:15:45Z</time>
      </trkpt>
      <trkpt lat="46.03235" lon="7.10644">
        <ele>1505</ele>
        <time>2018-05-11T06:16:45Z</time>
      </trkpt>
      <trkpt lat="46.03229" lon="7.10651">
        <ele>1505</ele>
        <time>2018-05-11T06:17:45Z</time>
      </trkpt>
      <trkpt lat="46.03222" lon="7.10657">
        <ele>1504</ele>
        <time>2018-05-11T06:18:45Z</time>
      </trkpt>
      <trkpt lat="46.03215" lon="7.10662">
        <ele>1504</ele>
        <time>2018-05-11T06:19:45Z</time>
      </trkpt>
      <trkpt lat="46.03188" lon="7.10678">
        <ele>1504</ele>
        <time>2018-05-11T06:20:45Z</time>
      </trkpt>
      <trkpt lat="46.03181" lon="7.10681">
        <ele>1503</ele>
        <time>2018-05-11T06:21:45Z</time>
      </trkpt>
      <trkpt lat="46.03175" lon="7.10687">
        <ele>1503</ele>
        <time>2018-05-11T06:22:45Z</time>
      </trkpt>
      <trkpt lat="46.03168" lon="7.10695">
        <ele>1503</ele>
        <time>2018-05-11T06:23:45Z</time>
      </trkpt>
      <trkpt lat="46.03163" lon="7.10704">
        <ele>1500</ele>
        <time>2018-05-11T06:24:45Z</time>
      </trkpt>
      <trkpt lat="46.03159" lon="7.10716">
        <ele>1501</ele>
        <time>2018-05-11T06:25:45Z</time>
      </trkpt>
      <trkpt lat="46.03154" lon="7.10736">
        <ele>1501</ele>
        <time>2018-05-11T06:26:45Z</time>
      </trkpt>
      <trkpt lat="46.03149" lon="7.10756">
        <ele>1497</ele>
        <time>2018-05-11T06:27:45Z</time>
      </trkpt>
      <trkpt lat="46.03145" lon="7.10781">
        <ele>1494</ele>
        <time>2018-05-11T06:28:45Z</time>
      </trkpt>
      <trkpt lat="46.03146" lon="7.10789">
        <ele>1494</ele>
        <time>2018-05-11T06:29:45Z</time>
      </trkpt>
      <trkpt lat="46.03148" lon="7.10793">
        <ele>1493</ele>
        <time>2018-05-11T06:30:45Z</time>
      </trkpt>
      <trkpt lat="46.0315" lon="7.10796">
        <ele>1493</ele>
        <time>2018-05-11T06:31:45Z</time>
      </trkpt>
      <trkpt lat="46.03154" lon="7.10801">
        <ele>1493</ele>
        <time>2018-05-11T06:32:45Z</time>
      </trkpt>
      <trkpt lat="46.03159" lon="7.10805">
        <ele>1492</ele>
        <time>2018-05-11T06:33:45Z</time>
      </trkpt>
      <trkpt lat="46.03168" lon="7.10809">
        <ele>1496</ele>
        <time>2018-05-11T06:34:45Z</time>
      </trkpt>
      <trkpt lat="46.0318" lon="7.10815">
        <ele>1496</ele>
        <time>2018-05-11T06:35:45Z</time>
      </trkpt>
      <trkpt lat="46.03187" lon="7.1082">
        <ele>1496</ele>
        <time>2018-05-11T06:36:45Z</time>
      </trkpt>
      <trkpt lat="46.0319" lon="7.10824">
        <ele>1496</ele>
        <time>2018-05-11T06:37:45Z</time>
      </trkpt>
      <trkpt lat="46.03193" lon="7.10828">
        <ele>1496</ele>
        <time>2018-05-11T06:38:45Z</time>
      </trkpt>
      <trkpt lat="46.03195" lon="7.10833">
        <ele>1496</ele>
        <time>2018-05-11T06:39:45Z</time>
      </trkpt>
      <trkpt lat="46.03196" lon="7.10838">
        <ele>1492</ele>
        <time>2018-05-11T06:40:45Z</time>
      </trkpt>
      <trkpt lat="46.03197" lon="7.10848">
        <ele>1492</ele>
        <time>2018-05-11T06:41:45Z</time>
      </trkpt>
      <trkpt lat="46.03198" lon="7.10854">
        <ele>1492</ele>
        <time>2018-05-11T06:42:45Z</time>
      </trkpt>
      <trkpt lat="46.03196" lon="7.10868">
        <ele>1492</ele>
        <time>2018-05-11T06:43:45Z</time>
      </trkpt>
      <trkpt lat="46.03194" lon="7.10877">
        <ele>1491</ele>
        <time>2018-05-11T06:44:45Z</time>
      </trkpt>
      <trkpt lat="46.03192" lon="7.10891">
        <ele>1491</ele>
        <time>2018-05-11T06:45:45Z</time>
      </trkpt>
      <trkpt lat="46.03192" lon="7.1091">
        <ele>1490</ele>
        <time>2018-05-11T06:46:45Z</time>
      </trkpt>
      <trkpt lat="46.03195" lon="7.10947">
        <ele>1491</ele>
        <time>2018-05-11T06:47:45Z</time>
      </trkpt>
      <trkpt lat="46.03196" lon="7.10983">
        <ele>1491</ele>
        <time>2018-05-11T06:48:45Z</time>
      </trkpt>
      <trkpt lat="46.03195" lon="7.10992">
        <ele>1491</ele>
        <time>2018-05-11T06:49:45Z</time>
      </trkpt>
      <trkpt lat="46.03194" lon="7.11">
        <ele>1493</ele>
        <time>2018-05-11T06:50:45Z</time>
      </trkpt>
      <trkpt lat="46.0319" lon="7.11017">
        <ele>1493</ele>
        <time>2018-05-11T06:51:45Z</time>
      </trkpt>
      <trkpt lat="46.03174" lon="7.11091">
        <ele>1492</ele>
        <time>2018-05-11T06:52:45Z</time>
      </trkpt>
      <trkpt lat="46.03154" lon="7.11185">
        <ele>1489</ele>
        <time>2018-05-11T06:53:45Z</time>
      </trkpt>
      <trkpt lat="46.03147" lon="7.11212">
        <ele>1487</ele>
        <time>2018-05-11T06:54:45Z</time>
      </trkpt>
      <trkpt lat="46.03144" lon="7.11223">
        <ele>1487</ele>
        <time>2018-05-11T06:55:45Z</time>
      </trkpt>
      <trkpt lat="46.03138" lon="7.11245">
        <ele>1487</ele>
        <time>2018-05-11T06:56:45Z</time>
      </trkpt>
      <trkpt lat="46.0312" lon="7.11301">
        <ele>1484</ele>
        <time>2018-05-11T06:57:45Z</time>
      </trkpt>
      <trkpt lat="46.03108" lon="7.11345">
        <ele>1482</ele>
        <time>2018-05-11T06:58:45Z</time>
      </trkpt>
      <trkpt lat="46.03101" lon="7.11365">
        <ele>1482</ele>
        <time>2018-05-11T06:59:45Z</time>
      </trkpt>
      <trkpt lat="46.03098" lon="7.1138">
        <ele>1481</ele>
        <time>2018-05-11T07:00:45Z</time>
      </trkpt>
      <trkpt lat="46.03092" lon="7.11401">
        <ele>1479</ele>
        <time>2018-05-11T07:01:45Z</time>
      </trkpt>
      <trkpt lat="46.03073" lon="7.11488">
        <ele>1474</ele>
        <time>2018-05-11T07:02:45Z</time>
      </trkpt>
      <trkpt lat="46.03065" lon="7.11527">
        <ele>1474</ele>
        <time>2018-05-11T07:03:45Z</time>
      </trkpt>
      <trkpt lat="46.03056" lon="7.11559">
        <ele>1475</ele>
        <time>2018-05-11T07:04:45Z</time>
      </trkpt>
      <trkpt lat="46.03048" lon="7.11584">
        <ele>1478</ele>
        <time>2018-05-11T07:05:45Z</time>
      </trkpt>
      <trkpt lat="46.0304" lon="7.11604">
        <ele>1478</ele>
        <time>2018-05-11T07:06:45Z</time>
      </trkpt>
      <trkpt lat="46.03036" lon="7.11615">
        <ele>1478</ele>
        <time>2018-05-11T07:07:45Z</time>
      </trkpt>
      <trkpt lat="46.03028" lon="7.1163">
        <ele>1478</ele>
        <time>2018-05-11T07:08:45Z</time>
      </trkpt>
      <trkpt lat="46.03019" lon="7.11647">
        <ele>1477</ele>
        <time>2018-05-11T07:09:45Z</time>
      </trkpt>
      <trkpt lat="46.0301" lon="7.11663">
        <ele>1474</ele>
        <time>2018-05-11T07:10:45Z</time>
      </trkpt>
      <trkpt lat="46.02996" lon="7.11681">
        <ele>1472</ele>
        <time>2018-05-11T07:11:45Z</time>
      </trkpt>
      <trkpt lat="46.02991" lon="7.11687">
        <ele>1473</ele>
        <time>2018-05-11T07:12:45Z</time>
      </trkpt>
      <trkpt lat="46.02982" lon="7.11694">
        <ele>1473</ele>
        <time>2018-05-11T07:13:45Z</time>
      </trkpt>
      <trkpt lat="46.02978" lon="7.11697">
        <ele>1474</ele>
        <time>2018-05-11T07:14:45Z</time>
      </trkpt>
      <trkpt lat="46.0295" lon="7.11713">
        <ele>1474</ele>
        <time>2018-05-11T07:15:45Z</time>
      </trkpt>
      <trkpt lat="46.02942" lon="7.11721">
        <ele>1474</ele>
        <time>2018-05-11T07:16:45Z</time>
      </trkpt>
      <trkpt lat="46.02928" lon="7.1174">
        <ele>1474</ele>
        <time>2018-05-11T07:17:45Z</time>
      </trkpt>
      <trkpt lat="46.02917" lon="7.11757">
        <ele>1477</ele>
        <time>2018-05-11T07:18:45Z</time>
      </trkpt>
      <trkpt lat="46.02913" lon="7.11763">
        <ele>1475</ele>
        <time>2018-05-11T07:19:45Z</time>
      </trkpt>
      <trkpt lat="46.02909" lon="7.11767">
        <ele>1475</ele>
        <time>2018-05-11T07:20:45Z</time>
      </trkpt>
      <trkpt lat="46.02906" lon="7.1177">
        <ele>1475</ele>
        <time>2018-05-11T07:21:45Z</time>
      </trkpt>
      <trkpt lat="46.02885" lon="7.11794">
        <ele>1476</ele>
        <time>2018-05-11T07:22:45Z</time>
      </trkpt>
      <trkpt lat="46.02867" lon="7.11812">
        <ele>1476</ele>
        <time>2018-05-11T07:23:45Z</time>
      </trkpt>
      <trkpt lat="46.02857" lon="7.11824">
        <ele>1475</ele>
        <time>2018-05-11T07:24:45Z</time>
      </trkpt>
      <trkpt lat="46.02848" lon="7.11838">
        <ele>1478</ele>
        <time>2018-05-11T07:25:45Z</time>
      </trkpt>
      <trkpt lat="46.02843" lon="7.1185">
        <ele>1478</ele>
        <time>2018-05-11T07:26:45Z</time>
      </trkpt>
      <trkpt lat="46.02837" lon="7.11866">
        <ele>1479</ele>
        <time>2018-05-11T07:27:45Z</time>
      </trkpt>
      <trkpt lat="46.02833" lon="7.11881">
        <ele>1474</ele>
        <time>2018-05-11T07:28:45Z</time>
      </trkpt>
      <trkpt lat="46.02828" lon="7.11911">
        <ele>1476</ele>
        <time>2018-05-11T07:29:45Z</time>
      </trkpt>
      <trkpt lat="46.02826" lon="7.11948">
        <ele>1476</ele>
        <time>2018-05-11T07:30:45Z</time>
      </trkpt>
      <trkpt lat="46.02823" lon="7.11975">
        <ele>1477</ele>
        <time>2018-05-11T07:31:45Z</time>
      </trkpt>
      <trkpt lat="46.0282" lon="7.11987">
        <ele>1477</ele>
        <time>2018-05-11T07:32:45Z</time>
      </trkpt>
      <trkpt lat="46.02815" lon="7.12">
        <ele>1482</ele>
        <time>2018-05-11T07:33:45Z</time>
      </trkpt>
      <trkpt lat="46.02811" lon="7.12009">
        <ele>1482</ele>
        <time>2018-05-11T07:34:45Z</time>
      </trkpt>
      <trkpt lat="46.02807" lon="7.12016">
        <ele>1483</ele>
        <time>2018-05-11T07:35:45Z</time>
      </trkpt>
      <trkpt lat="46.02801" lon="7.12025">
        <ele>1483</ele>
        <time>2018-05-11T07:36:45Z</time>
      </trkpt>
      <trkpt lat="46.02792" lon="7.12038">
        <ele>1484</ele>
        <time>2018-05-11T07:37:45Z</time>
      </trkpt>
      <trkpt lat="46.02779" lon="7.12043">
        <ele>1484</ele>
        <time>2018-05-11T07:38:45Z</time>
      </trkpt>
      <trkpt lat="46.02772" lon="7.12046">
        <ele>1483</ele>
        <time>2018-05-11T07:39:45Z</time>
      </trkpt>
      <trkpt lat="46.02756" lon="7.12049">
        <ele>1483</ele>
        <time>2018-05-11T07:40:45Z</time>
      </trkpt>
      <trkpt lat="46.02744" lon="7.12051">
        <ele>1476</ele>
        <time>2018-05-11T07:41:45Z</time>
      </trkpt>
      <trkpt lat="46.02733" lon="7.12055">
        <ele>1475</ele>
        <time>2018-05-11T07:42:45Z</time>
      </trkpt>
      <trkpt lat="46.02721" lon="7.1206">
        <ele>1475</ele>
        <time>2018-05-11T07:43:45Z</time>
      </trkpt>
      <trkpt lat="46.02711" lon="7.12067">
        <ele>1474</ele>
        <time>2018-05-11T07:44:45Z</time>
      </trkpt>
      <trkpt lat="46.02711" lon="7.12067">
        <ele>1474</ele>
        <time>2018-05-11T07:45:45Z</time>
      </trkpt>
      <trkpt lat="46.02705" lon="7.12071">
        <ele>1474</ele>
        <time>2018-05-11T07:46:45Z</time>
      </trkpt>
      <trkpt lat="46.02698" lon="7.12079">
        <ele>1473</ele>
        <time>2018-05-11T07:47:45Z</time>
      </trkpt>
      <trkpt lat="46.02692" lon="7.12088">
        <ele>1477</ele>
        <time>2018-05-11T07:48:45Z</time>
      </trkpt>
      <trkpt lat="46.02682" lon="7.12109">
        <ele>1478</ele>
        <time>2018-05-11T07:49:45Z</time>
      </trkpt>
      <trkpt lat="46.02674" lon="7.12127">
        <ele>1479</ele>
        <time>2018-05-11T07:50:45Z</time>
      </trkpt>
      <trkpt lat="46.0266" lon="7.12159">
        <ele>1473</ele>
        <time>2018-05-11T07:51:45Z</time>
      </trkpt>
      <trkpt lat="46.02649" lon="7.12182">
        <ele>1478</ele>
        <time>2018-05-11T07:52:45Z</time>
      </trkpt>
      <trkpt lat="46.02644" lon="7.12189">
        <ele>1479</ele>
        <time>2018-05-11T07:53:45Z</time>
      </trkpt>
      <trkpt lat="46.0264" lon="7.12191">
        <ele>1479</ele>
        <time>2018-05-11T07:54:45Z</time>
      </trkpt>
      <trkpt lat="46.02635" lon="7.12192">
        <ele>1479</ele>
        <time>2018-05-11T07:55:45Z</time>
      </trkpt>
      <trkpt lat="46.02632" lon="7.1219">
        <ele>1478</ele>
        <time>2018-05-11T07:56:45Z</time>
      </trkpt>
      <trkpt lat="46.02629" lon="7.12188">
        <ele>1478</ele>
        <time>2018-05-11T07:57:45Z</time>
      </trkpt>
      <trkpt lat="46.02627" lon="7.12184">
        <ele>1478</ele>
        <time>2018-05-11T07:58:45Z</time>
      </trkpt>
      <trkpt lat="46.02625" lon="7.1218">
        <ele>1477</ele>
        <time>2018-05-11T07:59:45Z</time>
      </trkpt>
      <trkpt lat="46.02624" lon="7.12175">
        <ele>1477</ele>
        <time>2018-05-11T08:00:45Z</time>
      </trkpt>
      <trkpt lat="46.02624" lon="7.12171">
        <ele>1477</ele>
        <time>2018-05-11T08:01:45Z</time>
      </trkpt>
      <trkpt lat="46.02625" lon="7.12166">
        <ele>1468</ele>
        <time>2018-05-11T08:02:45Z</time>
      </trkpt>
      <trkpt lat="46.02627" lon="7.1216">
        <ele>1468</ele>
        <time>2018-05-11T08:03:45Z</time>
      </trkpt>
      <trkpt lat="46.02632" lon="7.12152">
        <ele>1468</ele>
        <time>2018-05-11T08:04:45Z</time>
      </trkpt>
      <trkpt lat="46.02638" lon="7.12141">
        <ele>1468</ele>
        <time>2018-05-11T08:05:45Z</time>
      </trkpt>
      <trkpt lat="46.02639" lon="7.12137">
        <ele>1468</ele>
        <time>2018-05-11T08:06:45Z</time>
      </trkpt>
      <trkpt lat="46.02641" lon="7.12128">
        <ele>1468</ele>
        <time>2018-05-11T08:07:45Z</time>
      </trkpt>
      <trkpt lat="46.02642" lon="7.12122">
        <ele>1467</ele>
        <time>2018-05-11T08:08:45Z</time>
      </trkpt>
      <trkpt lat="46.02642" lon="7.12112">
        <ele>1467</ele>
        <time>2018-05-11T08:09:45Z</time>
      </trkpt>
      <trkpt lat="46.02641" lon="7.12101">
        <ele>1466</ele>
        <time>2018-05-11T08:10:45Z</time>
      </trkpt>
      <trkpt lat="46.02636" lon="7.12081">
        <ele>1462</ele>
        <time>2018-05-11T08:11:45Z</time>
      </trkpt>
      <trkpt lat="46.02623" lon="7.12047">
        <ele>1460</ele>
        <time>2018-05-11T08:12:45Z</time>
      </trkpt>
      <trkpt lat="46.02618" lon="7.12034">
        <ele>1460</ele>
        <time>2018-05-11T08:13:45Z</time>
      </trkpt>
      <trkpt lat="46.02614" lon="7.12023">
        <ele>1459</ele>
        <time>2018-05-11T08:14:45Z</time>
      </trkpt>
      <trkpt lat="46.02603" lon="7.11966">
        <ele>1458</ele>
        <time>2018-05-11T08:15:45Z</time>
      </trkpt>
      <trkpt lat="46.02602" lon="7.11959">
        <ele>1458</ele>
        <time>2018-05-11T08:16:45Z</time>
      </trkpt>
      <trkpt lat="46.02602" lon="7.11955">
        <ele>1458</ele>
        <time>2018-05-11T08:17:45Z</time>
      </trkpt>
      <trkpt lat="46.02601" lon="7.11954">
        <ele>1458</ele>
        <time>2018-05-11T08:18:45Z</time>
      </trkpt>
      <trkpt lat="46.02596" lon="7.11952">
        <ele>1458</ele>
        <time>2018-05-11T08:19:45Z</time>
      </trkpt>
      <trkpt lat="46.02596" lon="7.11952">
        <ele>1458</ele>
        <time>2018-05-11T08:20:45Z</time>
      </trkpt>
      <trkpt lat="46.02594" lon="7.11954">
        <ele>1458</ele>
        <time>2018-05-11T08:21:45Z</time>
      </trkpt>
      <trkpt lat="46.02592" lon="7.11959">
        <ele>1457</ele>
        <time>2018-05-11T08:22:45Z</time>
      </trkpt>
      <trkpt lat="46.02593" lon="7.11964">
        <ele>1457</ele>
        <time>2018-05-11T08:23:45Z</time>
      </trkpt>
      <trkpt lat="46.02593" lon="7.1197">
        <ele>1457</ele>
        <time>2018-05-11T08:24:45Z</time>
      </trkpt>
      <trkpt lat="46.02594" lon="7.12007">
        <ele>1454</ele>
        <time>2018-05-11T08:25:45Z</time>
      </trkpt>
      <trkpt lat="46.02594" lon="7.12013">
        <ele>1455</ele>
        <time>2018-05-11T08:26:45Z</time>
      </trkpt>
      <trkpt lat="46.02593" lon="7.12019">
        <ele>1455</ele>
        <time>2018-05-11T08:27:45Z</time>
      </trkpt>
      <trkpt lat="46.02591" lon="7.12026">
        <ele>1456</ele>
        <time>2018-05-11T08:28:45Z</time>
      </trkpt>
      <trkpt lat="46.02588" lon="7.12032">
        <ele>1457</ele>
        <time>2018-05-11T08:29:45Z</time>
      </trkpt>
      <trkpt lat="46.02584" lon="7.12037">
        <ele>1457</ele>
        <time>2018-05-11T08:30:45Z</time>
      </trkpt>
      <trkpt lat="46.02576" lon="7.12043">
        <ele>1448</ele>
        <time>2018-05-11T08:31:45Z</time>
      </trkpt>
      <trkpt lat="46.02564" lon="7.12051">
        <ele>1447</ele>
        <time>2018-05-11T08:32:45Z</time>
      </trkpt>
      <trkpt lat="46.02556" lon="7.12061">
        <ele>1447</ele>
        <time>2018-05-11T08:33:45Z</time>
      </trkpt>
      <trkpt lat="46.0255" lon="7.12069">
        <ele>1447</ele>
        <time>2018-05-11T08:34:45Z</time>
      </trkpt>
      <trkpt lat="46.02541" lon="7.12086">
        <ele>1453</ele>
        <time>2018-05-11T08:35:45Z</time>
      </trkpt>
      <trkpt lat="46.02526" lon="7.12113">
        <ele>1453</ele>
        <time>2018-05-11T08:36:45Z</time>
      </trkpt>
      <trkpt lat="46.02512" lon="7.12128">
        <ele>1454</ele>
        <time>2018-05-11T08:37:45Z</time>
      </trkpt>
      <trkpt lat="46.02503" lon="7.12135">
        <ele>1454</ele>
        <time>2018-05-11T08:38:45Z</time>
      </trkpt>
      <trkpt lat="46.02497" lon="7.1214">
        <ele>1447</ele>
        <time>2018-05-11T08:39:45Z</time>
      </trkpt>
      <trkpt lat="46.02493" lon="7.12142">
        <ele>1447</ele>
        <time>2018-05-11T08:40:45Z</time>
      </trkpt>
      <trkpt lat="46.02486" lon="7.12143">
        <ele>1446</ele>
        <time>2018-05-11T08:41:45Z</time>
      </trkpt>
      <trkpt lat="46.0248" lon="7.12144">
        <ele>1446</ele>
        <time>2018-05-11T08:42:45Z</time>
      </trkpt>
      <trkpt lat="46.02471" lon="7.12143">
        <ele>1444</ele>
        <time>2018-05-11T08:43:45Z</time>
      </trkpt>
      <trkpt lat="46.02466" lon="7.12141">
        <ele>1444</ele>
        <time>2018-05-11T08:44:45Z</time>
      </trkpt>
      <trkpt lat="46.02462" lon="7.12138">
        <ele>1443</ele>
        <time>2018-05-11T08:45:45Z</time>
      </trkpt>
      <trkpt lat="46.02459" lon="7.12135">
        <ele>1442</ele>
        <time>2018-05-11T08:46:45Z</time>
      </trkpt>
      <trkpt lat="46.02454" lon="7.12123">
        <ele>1441</ele>
        <time>2018-05-11T08:47:45Z</time>
      </trkpt>
      <trkpt lat="46.02451" lon="7.12111">
        <ele>1440</ele>
        <time>2018-05-11T08:48:45Z</time>
      </trkpt>
      <trkpt lat="46.02449" lon="7.12107">
        <ele>1439</ele>
        <time>2018-05-11T08:49:45Z</time>
      </trkpt>
      <trkpt lat="46.02447" lon="7.12102">
        <ele>1438</ele>
        <time>2018-05-11T08:50:45Z</time>
      </trkpt>
      <trkpt lat="46.02443" lon="7.12098">
        <ele>1437</ele>
        <time>2018-05-11T08:51:45Z</time>
      </trkpt>
      <trkpt lat="46.0244" lon="7.12095">
        <ele>1437</ele>
        <time>2018-05-11T08:52:45Z</time>
      </trkpt>
      <trkpt lat="46.02437" lon="7.12094">
        <ele>1436</ele>
        <time>2018-05-11T08:53:45Z</time>
      </trkpt>
      <trkpt lat="46.02432" lon="7.12093">
        <ele>1434</ele>
        <time>2018-05-11T08:54:45Z</time>
      </trkpt>
      <trkpt lat="46.02419" lon="7.12092">
        <ele>1431</ele>
        <time>2018-05-11T08:55:45Z</time>
      </trkpt>
      <trkpt lat="46.02403" lon="7.12093">
        <ele>1424</ele>
        <time>2018-05-11T08:56:45Z</time>
      </trkpt>
      <trkpt lat="46.02392" lon="7.12097">
        <ele>1423</ele>
        <time>2018-05-11T08:57:45Z</time>
      </trkpt>
      <trkpt lat="46.02384" lon="7.121">
        <ele>1422</ele>
        <time>2018-05-11T08:58:45Z</time>
      </trkpt>
      <trkpt lat="46.0237" lon="7.12108">
        <ele>1420</ele>
        <time>2018-05-11T08:59:45Z</time>
      </trkpt>
      <trkpt lat="46.0236" lon="7.12119">
        <ele>1419</ele>
        <time>2018-05-11T09:00:45Z</time>
      </trkpt>
      <trkpt lat="46.02351" lon="7.1213">
        <ele>1418</ele>
        <time>2018-05-11T09:01:45Z</time>
      </trkpt>
      <trkpt lat="46.02344" lon="7.12146">
        <ele>1417</ele>
        <time>2018-05-11T09:02:45Z</time>
      </trkpt>
      <trkpt lat="46.0234" lon="7.12157">
        <ele>1414</ele>
        <time>2018-05-11T09:03:45Z</time>
      </trkpt>
      <trkpt lat="46.02338" lon="7.12164">
        <ele>1412</ele>
        <time>2018-05-11T09:04:45Z</time>
      </trkpt>
      <trkpt lat="46.02337" lon="7.12167">
        <ele>1412</ele>
        <time>2018-05-11T09:05:45Z</time>
      </trkpt>
      <trkpt lat="46.02335" lon="7.12175">
        <ele>1415</ele>
        <time>2018-05-11T09:06:45Z</time>
      </trkpt>
      <trkpt lat="46.02334" lon="7.12179">
        <ele>1417</ele>
        <time>2018-05-11T09:07:45Z</time>
      </trkpt>
      <trkpt lat="46.02333" lon="7.12192">
        <ele>1400</ele>
        <time>2018-05-11T09:08:45Z</time>
      </trkpt>
      <trkpt lat="46.02333" lon="7.12217">
        <ele>1399</ele>
        <time>2018-05-11T09:09:45Z</time>
      </trkpt>
      <trkpt lat="46.02335" lon="7.12235">
        <ele>1419</ele>
        <time>2018-05-11T09:10:45Z</time>
      </trkpt>
      <trkpt lat="46.0234" lon="7.12254">
        <ele>1415</ele>
        <time>2018-05-11T09:11:45Z</time>
      </trkpt>
      <trkpt lat="46.02363" lon="7.12307">
        <ele>1417</ele>
        <time>2018-05-11T09:12:45Z</time>
      </trkpt>
      <trkpt lat="46.02385" lon="7.12352">
        <ele>1400</ele>
        <time>2018-05-11T09:13:45Z</time>
      </trkpt>
      <trkpt lat="46.02402" lon="7.12378">
        <ele>1395</ele>
        <time>2018-05-11T09:14:45Z</time>
      </trkpt>
      <trkpt lat="46.02418" lon="7.12395">
        <ele>1412</ele>
        <time>2018-05-11T09:15:45Z</time>
      </trkpt>
      <trkpt lat="46.02463" lon="7.12426">
        <ele>1393</ele>
        <time>2018-05-11T09:16:45Z</time>
      </trkpt>
      <trkpt lat="46.02486" lon="7.12445">
        <ele>1395</ele>
        <time>2018-05-11T09:17:45Z</time>
      </trkpt>
      <trkpt lat="46.02518" lon="7.12481">
        <ele>1407</ele>
        <time>2018-05-11T09:18:45Z</time>
      </trkpt>
      <trkpt lat="46.02565" lon="7.1254">
        <ele>1384</ele>
        <time>2018-05-11T09:19:45Z</time>
      </trkpt>
      <trkpt lat="46.02609" lon="7.12595">
        <ele>1382</ele>
        <time>2018-05-11T09:20:45Z</time>
      </trkpt>
      <trkpt lat="46.02634" lon="7.1263">
        <ele>1382</ele>
        <time>2018-05-11T09:21:45Z</time>
      </trkpt>
      <trkpt lat="46.02652" lon="7.12645">
        <ele>1381</ele>
        <time>2018-05-11T09:22:45Z</time>
      </trkpt>
      <trkpt lat="46.02688" lon="7.12667">
        <ele>1380</ele>
        <time>2018-05-11T09:23:45Z</time>
      </trkpt>
      <trkpt lat="46.02701" lon="7.1268">
        <ele>1382</ele>
        <time>2018-05-11T09:24:45Z</time>
      </trkpt>
      <trkpt lat="46.02708" lon="7.1269">
        <ele>1382</ele>
        <time>2018-05-11T09:25:45Z</time>
      </trkpt>
      <trkpt lat="46.02759" lon="7.12775">
        <ele>1376</ele>
        <time>2018-05-11T09:26:45Z</time>
      </trkpt>
      <trkpt lat="46.02808" lon="7.1286">
        <ele>1358</ele>
        <time>2018-05-11T09:27:45Z</time>
      </trkpt>
      <trkpt lat="46.02829" lon="7.12907">
        <ele>1354</ele>
        <time>2018-05-11T09:28:45Z</time>
      </trkpt>
      <trkpt lat="46.02833" lon="7.12914">
        <ele>1355</ele>
        <time>2018-05-11T09:29:45Z</time>
      </trkpt>
      <trkpt lat="46.02848" lon="7.12933">
        <ele>1354</ele>
        <time>2018-05-11T09:30:45Z</time>
      </trkpt>
      <trkpt lat="46.0287" lon="7.1295">
        <ele>1353</ele>
        <time>2018-05-11T09:31:45Z</time>
      </trkpt>
      <trkpt lat="46.02873" lon="7.12954">
        <ele>1353</ele>
        <time>2018-05-11T09:32:45Z</time>
      </trkpt>
      <trkpt lat="46.02881" lon="7.12972">
        <ele>1350</ele>
        <time>2018-05-11T09:33:45Z</time>
      </trkpt>
      <trkpt lat="46.02891" lon="7.12993">
        <ele>1348</ele>
        <time>2018-05-11T09:34:45Z</time>
      </trkpt>
      <trkpt lat="46.02897" lon="7.12999">
        <ele>1348</ele>
        <time>2018-05-11T09:35:45Z</time>
      </trkpt>
      <trkpt lat="46.02908" lon="7.13004">
        <ele>1339</ele>
        <time>2018-05-11T09:36:45Z</time>
      </trkpt>
      <trkpt lat="46.02921" lon="7.13008">
        <ele>1343</ele>
        <time>2018-05-11T09:37:45Z</time>
      </trkpt>
      <trkpt lat="46.02931" lon="7.1301">
        <ele>1341</ele>
        <time>2018-05-11T09:38:45Z</time>
      </trkpt>
      <trkpt lat="46.02939" lon="7.13007">
        <ele>1341</ele>
        <time>2018-05-11T09:39:45Z</time>
      </trkpt>
      <trkpt lat="46.02948" lon="7.13002">
        <ele>1341</ele>
        <time>2018-05-11T09:40:45Z</time>
      </trkpt>
      <trkpt lat="46.02954" lon="7.12999">
        <ele>1365</ele>
        <time>2018-05-11T09:41:45Z</time>
      </trkpt>
      <trkpt lat="46.02957" lon="7.13001">
        <ele>1341</ele>
        <time>2018-05-11T09:42:45Z</time>
      </trkpt>
      <trkpt lat="46.02959" lon="7.13003">
        <ele>1341</ele>
        <time>2018-05-11T09:43:45Z</time>
      </trkpt>
      <trkpt lat="46.0296" lon="7.13007">
        <ele>1341</ele>
        <time>2018-05-11T09:44:45Z</time>
      </trkpt>
      <trkpt lat="46.0296" lon="7.13011">
        <ele>1341</ele>
        <time>2018-05-11T09:45:45Z</time>
      </trkpt>
      <trkpt lat="46.02959" lon="7.13016">
        <ele>1340</ele>
        <time>2018-05-11T09:46:45Z</time>
      </trkpt>
      <trkpt lat="46.02956" lon="7.13022">
        <ele>1339</ele>
        <time>2018-05-11T09:47:45Z</time>
      </trkpt>
      <trkpt lat="46.0295" lon="7.13025">
        <ele>1338</ele>
        <time>2018-05-11T09:48:45Z</time>
      </trkpt>
      <trkpt lat="46.0294" lon="7.13029">
        <ele>1337</ele>
        <time>2018-05-11T09:49:45Z</time>
      </trkpt>
      <trkpt lat="46.0292" lon="7.13028">
        <ele>1338</ele>
        <time>2018-05-11T09:50:45Z</time>
      </trkpt>
      <trkpt lat="46.02914" lon="7.13025">
        <ele>1331</ele>
        <time>2018-05-11T09:51:45Z</time>
      </trkpt>
      <trkpt lat="46.02909" lon="7.13023">
        <ele>1331</ele>
        <time>2018-05-11T09:52:45Z</time>
      </trkpt>
      <trkpt lat="46.02903" lon="7.13022">
        <ele>1330</ele>
        <time>2018-05-11T09:53:45Z</time>
      </trkpt>
      <trkpt lat="46.02897" lon="7.13021">
        <ele>1329</ele>
        <time>2018-05-11T09:54:45Z</time>
      </trkpt>
      <trkpt lat="46.02884" lon="7.13021">
        <ele>1326</ele>
        <time>2018-05-11T09:55:45Z</time>
      </trkpt>
      <trkpt lat="46.02877" lon="7.1302">
        <ele>1325</ele>
        <time>2018-05-11T09:56:45Z</time>
      </trkpt>
      <trkpt lat="46.02866" lon="7.13014">
        <ele>1324</ele>
        <time>2018-05-11T09:57:45Z</time>
      </trkpt>
      <trkpt lat="46.02851" lon="7.12997">
        <ele>1337</ele>
        <time>2018-05-11T09:58:45Z</time>
      </trkpt>
      <trkpt lat="46.02841" lon="7.12983">
        <ele>1338</ele>
        <time>2018-05-11T09:59:45Z</time>
      </trkpt>
      <trkpt lat="46.02835" lon="7.12977">
        <ele>1340</ele>
        <time>2018-05-11T10:00:45Z</time>
      </trkpt>
      <trkpt lat="46.02826" lon="7.12971">
        <ele>1325</ele>
        <time>2018-05-11T10:01:45Z</time>
      </trkpt>
      <trkpt lat="46.02812" lon="7.12964">
        <ele>1324</ele>
        <time>2018-05-11T10:02:45Z</time>
      </trkpt>
      <trkpt lat="46.02801" lon="7.12958">
        <ele>1323</ele>
        <time>2018-05-11T10:03:45Z</time>
      </trkpt>
      <trkpt lat="46.02791" lon="7.12948">
        <ele>1323</ele>
        <time>2018-05-11T10:04:45Z</time>
      </trkpt>
      <trkpt lat="46.02773" lon="7.12925">
        <ele>1321</ele>
        <time>2018-05-11T10:05:45Z</time>
      </trkpt>
      <trkpt lat="46.02763" lon="7.12913">
        <ele>1330</ele>
        <time>2018-05-11T10:06:45Z</time>
      </trkpt>
      <trkpt lat="46.02755" lon="7.12906">
        <ele>1329</ele>
        <time>2018-05-11T10:07:45Z</time>
      </trkpt>
      <trkpt lat="46.02746" lon="7.129">
        <ele>1314</ele>
        <time>2018-05-11T10:08:45Z</time>
      </trkpt>
      <trkpt lat="46.02738" lon="7.12896">
        <ele>1314</ele>
        <time>2018-05-11T10:09:45Z</time>
      </trkpt>
      <trkpt lat="46.02732" lon="7.12888">
        <ele>1314</ele>
        <time>2018-05-11T10:10:45Z</time>
      </trkpt>
      <trkpt lat="46.02723" lon="7.12872">
        <ele>1315</ele>
        <time>2018-05-11T10:11:45Z</time>
      </trkpt>
      <trkpt lat="46.02715" lon="7.12855">
        <ele>1316</ele>
        <time>2018-05-11T10:12:45Z</time>
      </trkpt>
      <trkpt lat="46.02704" lon="7.1284">
        <ele>1314</ele>
        <time>2018-05-11T10:13:45Z</time>
      </trkpt>
      <trkpt lat="46.02687" lon="7.12823">
        <ele>1327</ele>
        <time>2018-05-11T10:14:45Z</time>
      </trkpt>
      <trkpt lat="46.02668" lon="7.12799">
        <ele>1331</ele>
        <time>2018-05-11T10:15:45Z</time>
      </trkpt>
      <trkpt lat="46.02655" lon="7.12788">
        <ele>1314</ele>
        <time>2018-05-11T10:16:45Z</time>
      </trkpt>
      <trkpt lat="46.02644" lon="7.12782">
        <ele>1315</ele>
        <time>2018-05-11T10:17:45Z</time>
      </trkpt>
      <trkpt lat="46.02633" lon="7.12778">
        <ele>1313</ele>
        <time>2018-05-11T10:18:45Z</time>
      </trkpt>
      <trkpt lat="46.02623" lon="7.12776">
        <ele>1312</ele>
        <time>2018-05-11T10:19:45Z</time>
      </trkpt>
      <trkpt lat="46.02614" lon="7.12774">
        <ele>1311</ele>
        <time>2018-05-11T10:20:45Z</time>
      </trkpt>
      <trkpt lat="46.026" lon="7.12766">
        <ele>1310</ele>
        <time>2018-05-11T10:21:45Z</time>
      </trkpt>
      <trkpt lat="46.02591" lon="7.12758">
        <ele>1311</ele>
        <time>2018-05-11T10:22:45Z</time>
      </trkpt>
      <trkpt lat="46.02576" lon="7.12744">
        <ele>1313</ele>
        <time>2018-05-11T10:23:45Z</time>
      </trkpt>
      <trkpt lat="46.0256" lon="7.12731">
        <ele>1313</ele>
        <time>2018-05-11T10:24:45Z</time>
      </trkpt>
      <trkpt lat="46.02547" lon="7.12721">
        <ele>1313</ele>
        <time>2018-05-11T10:25:45Z</time>
      </trkpt>
      <trkpt lat="46.02535" lon="7.12714">
        <ele>1312</ele>
        <time>2018-05-11T10:26:45Z</time>
      </trkpt>
      <trkpt lat="46.02527" lon="7.12705">
        <ele>1312</ele>
        <time>2018-05-11T10:27:45Z</time>
      </trkpt>
      <trkpt lat="46.02517" lon="7.12691">
        <ele>1313</ele>
        <time>2018-05-11T10:28:45Z</time>
      </trkpt>
      <trkpt lat="46.02512" lon="7.12686">
        <ele>1313</ele>
        <time>2018-05-11T10:29:45Z</time>
      </trkpt>
      <trkpt lat="46.0251" lon="7.12685">
        <ele>1313</ele>
        <time>2018-05-11T10:30:45Z</time>
      </trkpt>
      <trkpt lat="46.02508" lon="7.12686">
        <ele>1313</ele>
        <time>2018-05-11T10:31:45Z</time>
      </trkpt>
      <trkpt lat="46.02505" lon="7.12688">
        <ele>1312</ele>
        <time>2018-05-11T10:32:45Z</time>
      </trkpt>
      <trkpt lat="46.02504" lon="7.12691">
        <ele>1312</ele>
        <time>2018-05-11T10:33:45Z</time>
      </trkpt>
      <trkpt lat="46.02504" lon="7.12695">
        <ele>1311</ele>
        <time>2018-05-11T10:34:45Z</time>
      </trkpt>
      <trkpt lat="46.02506" lon="7.127">
        <ele>1311</ele>
        <time>2018-05-11T10:35:45Z</time>
      </trkpt>
      <trkpt lat="46.02523" lon="7.12719">
        <ele>1309</ele>
        <time>2018-05-11T10:36:45Z</time>
      </trkpt>
      <trkpt lat="46.02537" lon="7.12731">
        <ele>1309</ele>
        <time>2018-05-11T10:37:45Z</time>
      </trkpt>
      <trkpt lat="46.02557" lon="7.1275">
        <ele>1293</ele>
        <time>2018-05-11T10:38:45Z</time>
      </trkpt>
      <trkpt lat="46.0257" lon="7.12766">
        <ele>1295</ele>
        <time>2018-05-11T10:39:45Z</time>
      </trkpt>
      <trkpt lat="46.02585" lon="7.12793">
        <ele>1304</ele>
        <time>2018-05-11T10:40:45Z</time>
      </trkpt>
      <trkpt lat="46.02598" lon="7.12812">
        <ele>1299</ele>
        <time>2018-05-11T10:41:45Z</time>
      </trkpt>
      <trkpt lat="46.02608" lon="7.12821">
        <ele>1299</ele>
        <time>2018-05-11T10:42:45Z</time>
      </trkpt>
      <trkpt lat="46.02624" lon="7.12835">
        <ele>1284</ele>
        <time>2018-05-11T10:43:45Z</time>
      </trkpt>
      <trkpt lat="46.0263" lon="7.12841">
        <ele>1285</ele>
        <time>2018-05-11T10:44:45Z</time>
      </trkpt>
      <trkpt lat="46.02651" lon="7.1288">
        <ele>1281</ele>
        <time>2018-05-11T10:45:45Z</time>
      </trkpt>
      <trkpt lat="46.02695" lon="7.12968">
        <ele>1280</ele>
        <time>2018-05-11T10:46:45Z</time>
      </trkpt>
      <trkpt lat="46.02713" lon="7.13007">
        <ele>1266</ele>
        <time>2018-05-11T10:47:45Z</time>
      </trkpt>
      <trkpt lat="46.02727" lon="7.13045">
        <ele>1263</ele>
        <time>2018-05-11T10:48:45Z</time>
      </trkpt>
      <trkpt lat="46.02733" lon="7.13055">
        <ele>1263</ele>
        <time>2018-05-11T10:49:45Z</time>
      </trkpt>
      <trkpt lat="46.02749" lon="7.13077">
        <ele>1264</ele>
        <time>2018-05-11T10:50:45Z</time>
      </trkpt>
      <trkpt lat="46.02769" lon="7.13103">
        <ele>1265</ele>
        <time>2018-05-11T10:51:45Z</time>
      </trkpt>
      <trkpt lat="46.0278" lon="7.13119">
        <ele>1265</ele>
        <time>2018-05-11T10:52:45Z</time>
      </trkpt>
      <trkpt lat="46.02791" lon="7.13141">
        <ele>1262</ele>
        <time>2018-05-11T10:53:45Z</time>
      </trkpt>
      <trkpt lat="46.02806" lon="7.13164">
        <ele>1263</ele>
        <time>2018-05-11T10:54:45Z</time>
      </trkpt>
      <trkpt lat="46.02813" lon="7.13175">
        <ele>1249</ele>
        <time>2018-05-11T10:55:45Z</time>
      </trkpt>
      <trkpt lat="46.0282" lon="7.13192">
        <ele>1246</ele>
        <time>2018-05-11T10:56:45Z</time>
      </trkpt>
      <trkpt lat="46.0283" lon="7.13213">
        <ele>1242</ele>
        <time>2018-05-11T10:57:45Z</time>
      </trkpt>
      <trkpt lat="46.02839" lon="7.13226">
        <ele>1255</ele>
        <time>2018-05-11T10:58:45Z</time>
      </trkpt>
      <trkpt lat="46.02857" lon="7.13248">
        <ele>1254</ele>
        <time>2018-05-11T10:59:45Z</time>
      </trkpt>
      <trkpt lat="46.02871" lon="7.13264">
        <ele>1240</ele>
        <time>2018-05-11T11:00:45Z</time>
      </trkpt>
      <trkpt lat="46.02884" lon="7.1328">
        <ele>1240</ele>
        <time>2018-05-11T11:01:45Z</time>
      </trkpt>
      <trkpt lat="46.02892" lon="7.13284">
        <ele>1240</ele>
        <time>2018-05-11T11:02:45Z</time>
      </trkpt>
      <trkpt lat="46.02901" lon="7.13287">
        <ele>1240</ele>
        <time>2018-05-11T11:03:45Z</time>
      </trkpt>
      <trkpt lat="46.0292" lon="7.13288">
        <ele>1246</ele>
        <time>2018-05-11T11:04:45Z</time>
      </trkpt>
      <trkpt lat="46.02927" lon="7.13288">
        <ele>1246</ele>
        <time>2018-05-11T11:05:45Z</time>
      </trkpt>
      <trkpt lat="46.02949" lon="7.13297">
        <ele>1244</ele>
        <time>2018-05-11T11:06:45Z</time>
      </trkpt>
      <trkpt lat="46.02972" lon="7.13305">
        <ele>1242</ele>
        <time>2018-05-11T11:07:45Z</time>
      </trkpt>
      <trkpt lat="46.02987" lon="7.13307">
        <ele>1241</ele>
        <time>2018-05-11T11:08:45Z</time>
      </trkpt>
      <trkpt lat="46.03001" lon="7.13304">
        <ele>1238</ele>
        <time>2018-05-11T11:09:45Z</time>
      </trkpt>
      <trkpt lat="46.03021" lon="7.13292">
        <ele>1241</ele>
        <time>2018-05-11T11:10:45Z</time>
      </trkpt>
      <trkpt lat="46.03034" lon="7.13281">
        <ele>1242</ele>
        <time>2018-05-11T11:11:45Z</time>
      </trkpt>
      <trkpt lat="46.03048" lon="7.13267">
        <ele>1244</ele>
        <time>2018-05-11T11:12:45Z</time>
      </trkpt>
      <trkpt lat="46.03058" lon="7.13261">
        <ele>1245</ele>
        <time>2018-05-11T11:13:45Z</time>
      </trkpt>
      <trkpt lat="46.03063" lon="7.1326">
        <ele>1245</ele>
        <time>2018-05-11T11:14:45Z</time>
      </trkpt>
      <trkpt lat="46.03067" lon="7.13259">
        <ele>1246</ele>
        <time>2018-05-11T11:15:45Z</time>
      </trkpt>
      <trkpt lat="46.03072" lon="7.1326">
        <ele>1246</ele>
        <time>2018-05-11T11:16:45Z</time>
      </trkpt>
      <trkpt lat="46.03081" lon="7.13266">
        <ele>1245</ele>
        <time>2018-05-11T11:17:45Z</time>
      </trkpt>
      <trkpt lat="46.0309" lon="7.13279">
        <ele>1244</ele>
        <time>2018-05-11T11:18:45Z</time>
      </trkpt>
      <trkpt lat="46.03104" lon="7.13305">
        <ele>1238</ele>
        <time>2018-05-11T11:19:45Z</time>
      </trkpt>
      <trkpt lat="46.03132" lon="7.13352">
        <ele>1222</ele>
        <time>2018-05-11T11:20:45Z</time>
      </trkpt>
      <trkpt lat="46.03141" lon="7.13366">
        <ele>1221</ele>
        <time>2018-05-11T11:21:45Z</time>
      </trkpt>
      <trkpt lat="46.03147" lon="7.13371">
        <ele>1221</ele>
        <time>2018-05-11T11:22:45Z</time>
      </trkpt>
      <trkpt lat="46.03156" lon="7.13374">
        <ele>1221</ele>
        <time>2018-05-11T11:23:45Z</time>
      </trkpt>
      <trkpt lat="46.03163" lon="7.13374">
        <ele>1221</ele>
        <time>2018-05-11T11:24:45Z</time>
      </trkpt>
      <trkpt lat="46.03173" lon="7.13372">
        <ele>1229</ele>
        <time>2018-05-11T11:25:45Z</time>
      </trkpt>
      <trkpt lat="46.03184" lon="7.13366">
        <ele>1230</ele>
        <time>2018-05-11T11:26:45Z</time>
      </trkpt>
      <trkpt lat="46.03199" lon="7.13358">
        <ele>1232</ele>
        <time>2018-05-11T11:27:45Z</time>
      </trkpt>
      <trkpt lat="46.03207" lon="7.13355">
        <ele>1232</ele>
        <time>2018-05-11T11:28:45Z</time>
      </trkpt>
      <trkpt lat="46.03212" lon="7.13355">
        <ele>1232</ele>
        <time>2018-05-11T11:29:45Z</time>
      </trkpt>
      <trkpt lat="46.03216" lon="7.13357">
        <ele>1232</ele>
        <time>2018-05-11T11:30:45Z</time>
      </trkpt>
      <trkpt lat="46.03222" lon="7.13363">
        <ele>1232</ele>
        <time>2018-05-11T11:31:45Z</time>
      </trkpt>
      <trkpt lat="46.03226" lon="7.1337">
        <ele>1230</ele>
        <time>2018-05-11T11:32:45Z</time>
      </trkpt>
      <trkpt lat="46.03231" lon="7.13385">
        <ele>1227</ele>
        <time>2018-05-11T11:33:45Z</time>
      </trkpt>
      <trkpt lat="46.03234" lon="7.13394">
        <ele>1224</ele>
        <time>2018-05-11T11:34:45Z</time>
      </trkpt>
      <trkpt lat="46.03239" lon="7.13402">
        <ele>1221</ele>
        <time>2018-05-11T11:35:45Z</time>
      </trkpt>
      <trkpt lat="46.03242" lon="7.13405">
        <ele>1220</ele>
        <time>2018-05-11T11:36:45Z</time>
      </trkpt>
      <trkpt lat="46.03245" lon="7.13407">
        <ele>1219</ele>
        <time>2018-05-11T11:37:45Z</time>
      </trkpt>
      <trkpt lat="46.03251" lon="7.13408">
        <ele>1218</ele>
        <time>2018-05-11T11:38:45Z</time>
      </trkpt>
      <trkpt lat="46.03269" lon="7.13414">
        <ele>1220</ele>
        <time>2018-05-11T11:39:45Z</time>
      </trkpt>
      <trkpt lat="46.03288" lon="7.1342">
        <ele>1202</ele>
        <time>2018-05-11T11:40:45Z</time>
      </trkpt>
      <trkpt lat="46.03301" lon="7.1342">
        <ele>1202</ele>
        <time>2018-05-11T11:41:45Z</time>
      </trkpt>
      <trkpt lat="46.03318" lon="7.13419">
        <ele>1204</ele>
        <time>2018-05-11T11:42:45Z</time>
      </trkpt>
      <trkpt lat="46.03333" lon="7.13415">
        <ele>1209</ele>
        <time>2018-05-11T11:43:45Z</time>
      </trkpt>
      <trkpt lat="46.0334" lon="7.13411">
        <ele>1213</ele>
        <time>2018-05-11T11:44:45Z</time>
      </trkpt>
      <trkpt lat="46.03348" lon="7.13403">
        <ele>1217</ele>
        <time>2018-05-11T11:45:45Z</time>
      </trkpt>
      <trkpt lat="46.03356" lon="7.13396">
        <ele>1220</ele>
        <time>2018-05-11T11:46:45Z</time>
      </trkpt>
      <trkpt lat="46.03364" lon="7.13391">
        <ele>1221</ele>
        <time>2018-05-11T11:47:45Z</time>
      </trkpt>
      <trkpt lat="46.0337" lon="7.1339">
        <ele>1222</ele>
        <time>2018-05-11T11:48:45Z</time>
      </trkpt>
      <trkpt lat="46.0338" lon="7.13391">
        <ele>1221</ele>
        <time>2018-05-11T11:49:45Z</time>
      </trkpt>
      <trkpt lat="46.0339" lon="7.13395">
        <ele>1219</ele>
        <time>2018-05-11T11:50:45Z</time>
      </trkpt>
      <trkpt lat="46.03416" lon="7.13404">
        <ele>1212</ele>
        <time>2018-05-11T11:51:45Z</time>
      </trkpt>
      <trkpt lat="46.0342" lon="7.1341">
        <ele>1208</ele>
        <time>2018-05-11T11:52:45Z</time>
      </trkpt>
      <trkpt lat="46.03421" lon="7.13414">
        <ele>1207</ele>
        <time>2018-05-11T11:53:45Z</time>
      </trkpt>
      <trkpt lat="46.0342" lon="7.13418">
        <ele>1201</ele>
        <time>2018-05-11T11:54:45Z</time>
      </trkpt>
      <trkpt lat="46.03419" lon="7.1342">
        <ele>1201</ele>
        <time>2018-05-11T11:55:45Z</time>
      </trkpt>
      <trkpt lat="46.03419" lon="7.1342">
        <ele>1201</ele>
        <time>2018-05-11T11:56:45Z</time>
      </trkpt>
      <trkpt lat="46.03418" lon="7.13422">
        <ele>1201</ele>
        <time>2018-05-11T11:57:45Z</time>
      </trkpt>
      <trkpt lat="46.03413" lon="7.13423">
        <ele>1201</ele>
        <time>2018-05-11T11:58:45Z</time>
      </trkpt>
      <trkpt lat="46.03409" lon="7.13423">
        <ele>1200</ele>
        <time>2018-05-11T11:59:45Z</time>
      </trkpt>
      <trkpt lat="46.03403" lon="7.13422">
        <ele>1199</ele>
        <time>2018-05-11T12:00:45Z</time>
      </trkpt>
      <trkpt lat="46.03396" lon="7.13419">
        <ele>1199</ele>
        <time>2018-05-11T12:01:45Z</time>
      </trkpt>
      <trkpt lat="46.0339" lon="7.13417">
        <ele>1199</ele>
        <time>2018-05-11T12:02:45Z</time>
      </trkpt>
      <trkpt lat="46.03381" lon="7.13416">
        <ele>1217</ele>
        <time>2018-05-11T12:03:45Z</time>
      </trkpt>
      <trkpt lat="46.03368" lon="7.13418">
        <ele>1199</ele>
        <time>2018-05-11T12:04:45Z</time>
      </trkpt>
      <trkpt lat="46.03363" lon="7.13422">
        <ele>1199</ele>
        <time>2018-05-11T12:05:45Z</time>
      </trkpt>
      <trkpt lat="46.03359" lon="7.13426">
        <ele>1200</ele>
        <time>2018-05-11T12:06:45Z</time>
      </trkpt>
      <trkpt lat="46.03351" lon="7.13435">
        <ele>1199</ele>
        <time>2018-05-11T12:07:45Z</time>
      </trkpt>
      <trkpt lat="46.03342" lon="7.13453">
        <ele>1197</ele>
        <time>2018-05-11T12:08:45Z</time>
      </trkpt>
      <trkpt lat="46.03335" lon="7.13463">
        <ele>1195</ele>
        <time>2018-05-11T12:09:45Z</time>
      </trkpt>
      <trkpt lat="46.03328" lon="7.13473">
        <ele>1195</ele>
        <time>2018-05-11T12:10:45Z</time>
      </trkpt>
      <trkpt lat="46.03323" lon="7.1348">
        <ele>1194</ele>
        <time>2018-05-11T12:11:45Z</time>
      </trkpt>
      <trkpt lat="46.03316" lon="7.13484">
        <ele>1193</ele>
        <time>2018-05-11T12:12:45Z</time>
      </trkpt>
      <trkpt lat="46.03307" lon="7.13488">
        <ele>1193</ele>
        <time>2018-05-11T12:13:45Z</time>
      </trkpt>
      <trkpt lat="46.03292" lon="7.13491">
        <ele>1193</ele>
        <time>2018-05-11T12:14:45Z</time>
      </trkpt>
      <trkpt lat="46.0328" lon="7.13489">
        <ele>1191</ele>
        <time>2018-05-11T12:15:45Z</time>
      </trkpt>
      <trkpt lat="46.03261" lon="7.13473">
        <ele>1192</ele>
        <time>2018-05-11T12:16:45Z</time>
      </trkpt>
      <trkpt lat="46.03245" lon="7.13462">
        <ele>1194</ele>
        <time>2018-05-11T12:17:45Z</time>
      </trkpt>
      <trkpt lat="46.03214" lon="7.13441">
        <ele>1199</ele>
        <time>2018-05-11T12:18:45Z</time>
      </trkpt>
      <trkpt lat="46.03208" lon="7.13438">
        <ele>1200</ele>
        <time>2018-05-11T12:19:45Z</time>
      </trkpt>
      <trkpt lat="46.03202" lon="7.13437">
        <ele>1200</ele>
        <time>2018-05-11T12:20:45Z</time>
      </trkpt>
      <trkpt lat="46.03196" lon="7.13437">
        <ele>1200</ele>
        <time>2018-05-11T12:21:45Z</time>
      </trkpt>
      <trkpt lat="46.03191" lon="7.13441">
        <ele>1200</ele>
        <time>2018-05-11T12:22:45Z</time>
      </trkpt>
      <trkpt lat="46.03185" lon="7.13451">
        <ele>1197</ele>
        <time>2018-05-11T12:23:45Z</time>
      </trkpt>
      <trkpt lat="46.03175" lon="7.13476">
        <ele>1190</ele>
        <time>2018-05-11T12:24:45Z</time>
      </trkpt>
      <trkpt lat="46.03167" lon="7.1349">
        <ele>1184</ele>
        <time>2018-05-11T12:25:45Z</time>
      </trkpt>
      <trkpt lat="46.03159" lon="7.13498">
        <ele>1181</ele>
        <time>2018-05-11T12:26:45Z</time>
      </trkpt>
      <trkpt lat="46.03148" lon="7.13511">
        <ele>1171</ele>
        <time>2018-05-11T12:27:45Z</time>
      </trkpt>
      <trkpt lat="46.03139" lon="7.13524">
        <ele>1169</ele>
        <time>2018-05-11T12:28:45Z</time>
      </trkpt>
      <trkpt lat="46.03131" lon="7.13548">
        <ele>1165</ele>
        <time>2018-05-11T12:29:45Z</time>
      </trkpt>
      <trkpt lat="46.03128" lon="7.13565">
        <ele>1163</ele>
        <time>2018-05-11T12:30:45Z</time>
      </trkpt>
      <trkpt lat="46.03127" lon="7.1357">
        <ele>1163</ele>
        <time>2018-05-11T12:31:45Z</time>
      </trkpt>
      <trkpt lat="46.03123" lon="7.13575">
        <ele>1163</ele>
        <time>2018-05-11T12:32:45Z</time>
      </trkpt>
      <trkpt lat="46.03118" lon="7.13577">
        <ele>1162</ele>
        <time>2018-05-11T12:33:45Z</time>
      </trkpt>
      <trkpt lat="46.03114" lon="7.13577">
        <ele>1162</ele>
        <time>2018-05-11T12:34:45Z</time>
      </trkpt>
      <trkpt lat="46.03109" lon="7.13574">
        <ele>1162</ele>
        <time>2018-05-11T12:35:45Z</time>
      </trkpt>
      <trkpt lat="46.03104" lon="7.13564">
        <ele>1163</ele>
        <time>2018-05-11T12:36:45Z</time>
      </trkpt>
      <trkpt lat="46.03094" lon="7.13545">
        <ele>1166</ele>
        <time>2018-05-11T12:37:45Z</time>
      </trkpt>
      <trkpt lat="46.03083" lon="7.13523">
        <ele>1167</ele>
        <time>2018-05-11T12:38:45Z</time>
      </trkpt>
      <trkpt lat="46.03062" lon="7.13484">
        <ele>1180</ele>
        <time>2018-05-11T12:39:45Z</time>
      </trkpt>
      <trkpt lat="46.03056" lon="7.13478">
        <ele>1181</ele>
        <time>2018-05-11T12:40:45Z</time>
      </trkpt>
      <trkpt lat="46.03051" lon="7.13473">
        <ele>1181</ele>
        <time>2018-05-11T12:41:45Z</time>
      </trkpt>
      <trkpt lat="46.03045" lon="7.13471">
        <ele>1182</ele>
        <time>2018-05-11T12:42:45Z</time>
      </trkpt>
      <trkpt lat="46.03036" lon="7.13473">
        <ele>1181</ele>
        <time>2018-05-11T12:43:45Z</time>
      </trkpt>
      <trkpt lat="46.03025" lon="7.13483">
        <ele>1179</ele>
        <time>2018-05-11T12:44:45Z</time>
      </trkpt>
      <trkpt lat="46.03011" lon="7.13505">
        <ele>1167</ele>
        <time>2018-05-11T12:45:45Z</time>
      </trkpt>
      <trkpt lat="46.02988" lon="7.13535">
        <ele>1156</ele>
        <time>2018-05-11T12:46:45Z</time>
      </trkpt>
      <trkpt lat="46.02983" lon="7.13541">
        <ele>1155</ele>
        <time>2018-05-11T12:47:45Z</time>
      </trkpt>
      <trkpt lat="46.02975" lon="7.13547">
        <ele>1154</ele>
        <time>2018-05-11T12:48:45Z</time>
      </trkpt>
      <trkpt lat="46.02969" lon="7.13549">
        <ele>1154</ele>
        <time>2018-05-11T12:49:45Z</time>
      </trkpt>
      <trkpt lat="46.02963" lon="7.1355">
        <ele>1153</ele>
        <time>2018-05-11T12:50:45Z</time>
      </trkpt>
      <trkpt lat="46.02959" lon="7.13548">
        <ele>1154</ele>
        <time>2018-05-11T12:51:45Z</time>
      </trkpt>
      <trkpt lat="46.02954" lon="7.13543">
        <ele>1154</ele>
        <time>2018-05-11T12:52:45Z</time>
      </trkpt>
      <trkpt lat="46.02946" lon="7.13534">
        <ele>1155</ele>
        <time>2018-05-11T12:53:45Z</time>
      </trkpt>
      <trkpt lat="46.0294" lon="7.13529">
        <ele>1156</ele>
        <time>2018-05-11T12:54:45Z</time>
      </trkpt>
      <trkpt lat="46.02936" lon="7.13527">
        <ele>1156</ele>
        <time>2018-05-11T12:55:45Z</time>
      </trkpt>
      <trkpt lat="46.02931" lon="7.13526">
        <ele>1156</ele>
        <time>2018-05-11T12:56:45Z</time>
      </trkpt>
      <trkpt lat="46.02923" lon="7.13527">
        <ele>1156</ele>
        <time>2018-05-11T12:57:45Z</time>
      </trkpt>
      <trkpt lat="46.02912" lon="7.13528">
        <ele>1154</ele>
        <time>2018-05-11T12:58:45Z</time>
      </trkpt>
      <trkpt lat="46.02903" lon="7.1353">
        <ele>1154</ele>
        <time>2018-05-11T12:59:45Z</time>
      </trkpt>
      <trkpt lat="46.0289" lon="7.13535">
        <ele>1153</ele>
        <time>2018-05-11T13:00:45Z</time>
      </trkpt>
      <trkpt lat="46.02877" lon="7.13547">
        <ele>1151</ele>
        <time>2018-05-11T13:01:45Z</time>
      </trkpt>
      <trkpt lat="46.02863" lon="7.1356">
        <ele>1149</ele>
        <time>2018-05-11T13:02:45Z</time>
      </trkpt>
      <trkpt lat="46.02853" lon="7.1357">
        <ele>1146</ele>
        <time>2018-05-11T13:03:45Z</time>
      </trkpt>
      <trkpt lat="46.02848" lon="7.13574">
        <ele>1145</ele>
        <time>2018-05-11T13:04:45Z</time>
      </trkpt>
      <trkpt lat="46.02843" lon="7.13574">
        <ele>1144</ele>
        <time>2018-05-11T13:05:45Z</time>
      </trkpt>
      <trkpt lat="46.02838" lon="7.13574">
        <ele>1143</ele>
        <time>2018-05-11T13:06:45Z</time>
      </trkpt>
      <trkpt lat="46.02831" lon="7.1357">
        <ele>1139</ele>
        <time>2018-05-11T13:07:45Z</time>
      </trkpt>
      <trkpt lat="46.02819" lon="7.13561">
        <ele>1139</ele>
        <time>2018-05-11T13:08:45Z</time>
      </trkpt>
      <trkpt lat="46.02805" lon="7.1355">
        <ele>1140</ele>
        <time>2018-05-11T13:09:45Z</time>
      </trkpt>
      <trkpt lat="46.02795" lon="7.13535">
        <ele>1141</ele>
        <time>2018-05-11T13:10:45Z</time>
      </trkpt>
      <trkpt lat="46.02788" lon="7.13526">
        <ele>1141</ele>
        <time>2018-05-11T13:11:45Z</time>
      </trkpt>
      <trkpt lat="46.0277" lon="7.13513">
        <ele>1141</ele>
        <time>2018-05-11T13:12:45Z</time>
      </trkpt>
      <trkpt lat="46.02721" lon="7.13473">
        <ele>1140</ele>
        <time>2018-05-11T13:13:45Z</time>
      </trkpt>
      <trkpt lat="46.0267" lon="7.13422">
        <ele>1137</ele>
        <time>2018-05-11T13:14:45Z</time>
      </trkpt>
      <trkpt lat="46.02613" lon="7.13359">
        <ele>1130</ele>
        <time>2018-05-11T13:15:45Z</time>
      </trkpt>
      <trkpt lat="46.02591" lon="7.13327">
        <ele>1133</ele>
        <time>2018-05-11T13:16:45Z</time>
      </trkpt>
      <trkpt lat="46.02573" lon="7.13305">
        <ele>1122</ele>
        <time>2018-05-11T13:17:45Z</time>
      </trkpt>
      <trkpt lat="46.02554" lon="7.13289">
        <ele>1121</ele>
        <time>2018-05-11T13:18:45Z</time>
      </trkpt>
      <trkpt lat="46.02542" lon="7.13275">
        <ele>1120</ele>
        <time>2018-05-11T13:19:45Z</time>
      </trkpt>
      <trkpt lat="46.02527" lon="7.13255">
        <ele>1117</ele>
        <time>2018-05-11T13:20:45Z</time>
      </trkpt>
      <trkpt lat="46.02522" lon="7.1324">
        <ele>1128</ele>
        <time>2018-05-11T13:21:45Z</time>
      </trkpt>
      <trkpt lat="46.02518" lon="7.13226">
        <ele>1130</ele>
        <time>2018-05-11T13:22:45Z</time>
      </trkpt>
      <trkpt lat="46.02516" lon="7.13222">
        <ele>1131</ele>
        <time>2018-05-11T13:23:45Z</time>
      </trkpt>
      <trkpt lat="46.02512" lon="7.13216">
        <ele>1132</ele>
        <time>2018-05-11T13:24:45Z</time>
      </trkpt>
      <trkpt lat="46.02506" lon="7.13211">
        <ele>1133</ele>
        <time>2018-05-11T13:25:45Z</time>
      </trkpt>
      <trkpt lat="46.02497" lon="7.13208">
        <ele>1114</ele>
        <time>2018-05-11T13:26:45Z</time>
      </trkpt>
      <trkpt lat="46.02493" lon="7.13207">
        <ele>1114</ele>
        <time>2018-05-11T13:27:45Z</time>
      </trkpt>
      <trkpt lat="46.02487" lon="7.13206">
        <ele>1113</ele>
        <time>2018-05-11T13:28:45Z</time>
      </trkpt>
      <trkpt lat="46.0248" lon="7.13205">
        <ele>1113</ele>
        <time>2018-05-11T13:29:45Z</time>
      </trkpt>
      <trkpt lat="46.02472" lon="7.13203">
        <ele>1112</ele>
        <time>2018-05-11T13:30:45Z</time>
      </trkpt>
      <trkpt lat="46.02465" lon="7.13197">
        <ele>1111</ele>
        <time>2018-05-11T13:31:45Z</time>
      </trkpt>
      <trkpt lat="46.02459" lon="7.13191">
        <ele>1111</ele>
        <time>2018-05-11T13:32:45Z</time>
      </trkpt>
      <trkpt lat="46.02453" lon="7.13181">
        <ele>1110</ele>
        <time>2018-05-11T13:33:45Z</time>
      </trkpt>
      <trkpt lat="46.02446" lon="7.13166">
        <ele>1123</ele>
        <time>2018-05-11T13:34:45Z</time>
      </trkpt>
      <trkpt lat="46.02442" lon="7.1315">
        <ele>1123</ele>
        <time>2018-05-11T13:35:45Z</time>
      </trkpt>
      <trkpt lat="46.02437" lon="7.13138">
        <ele>1125</ele>
        <time>2018-05-11T13:36:45Z</time>
      </trkpt>
      <trkpt lat="46.0243" lon="7.13128">
        <ele>1126</ele>
        <time>2018-05-11T13:37:45Z</time>
      </trkpt>
      <trkpt lat="46.024" lon="7.13083">
        <ele>1121</ele>
        <time>2018-05-11T13:38:45Z</time>
      </trkpt>
      <trkpt lat="46.02391" lon="7.13066">
        <ele>1119</ele>
        <time>2018-05-11T13:39:45Z</time>
      </trkpt>
      <trkpt lat="46.02388" lon="7.13059">
        <ele>1119</ele>
        <time>2018-05-11T13:40:45Z</time>
      </trkpt>
      <trkpt lat="46.02385" lon="7.13052">
        <ele>1119</ele>
        <time>2018-05-11T13:41:45Z</time>
      </trkpt>
      <trkpt lat="46.02383" lon="7.13048">
        <ele>1119</ele>
        <time>2018-05-11T13:42:45Z</time>
      </trkpt>
      <trkpt lat="46.02381" lon="7.13047">
        <ele>1119</ele>
        <time>2018-05-11T13:43:45Z</time>
      </trkpt>
      <trkpt lat="46.0238" lon="7.13046">
        <ele>1119</ele>
        <time>2018-05-11T13:44:45Z</time>
      </trkpt>
      <trkpt lat="46.02378" lon="7.13046">
        <ele>1118</ele>
        <time>2018-05-11T13:45:45Z</time>
      </trkpt>
      <trkpt lat="46.02374" lon="7.13048">
        <ele>1117</ele>
        <time>2018-05-11T13:46:45Z</time>
      </trkpt>
      <trkpt lat="46.02374" lon="7.13048">
        <ele>1117</ele>
        <time>2018-05-11T13:47:45Z</time>
      </trkpt>
      <trkpt lat="46.02371" lon="7.13054">
        <ele>1116</ele>
        <time>2018-05-11T13:48:45Z</time>
      </trkpt>
      <trkpt lat="46.02371" lon="7.13054">
        <ele>1116</ele>
        <time>2018-05-11T13:49:45Z</time>
      </trkpt>
      <trkpt lat="46.0237" lon="7.13057">
        <ele>1115</ele>
        <time>2018-05-11T13:50:45Z</time>
      </trkpt>
      <trkpt lat="46.0237" lon="7.1306">
        <ele>1115</ele>
        <time>2018-05-11T13:51:45Z</time>
      </trkpt>
      <trkpt lat="46.02371" lon="7.13064">
        <ele>1115</ele>
        <time>2018-05-11T13:52:45Z</time>
      </trkpt>
      <trkpt lat="46.02376" lon="7.13075">
        <ele>1115</ele>
        <time>2018-05-11T13:53:45Z</time>
      </trkpt>
      <trkpt lat="46.02392" lon="7.13097">
        <ele>1107</ele>
        <time>2018-05-11T13:54:45Z</time>
      </trkpt>
      <trkpt lat="46.02405" lon="7.13126">
        <ele>1104</ele>
        <time>2018-05-11T13:55:45Z</time>
      </trkpt>
      <trkpt lat="46.02415" lon="7.13154">
        <ele>1102</ele>
        <time>2018-05-11T13:56:45Z</time>
      </trkpt>
      <trkpt lat="46.02432" lon="7.13217">
        <ele>1103</ele>
        <time>2018-05-11T13:57:45Z</time>
      </trkpt>
      <trkpt lat="46.02442" lon="7.13239">
        <ele>1101</ele>
        <time>2018-05-11T13:58:45Z</time>
      </trkpt>
      <trkpt lat="46.02451" lon="7.13253">
        <ele>1091</ele>
        <time>2018-05-11T13:59:45Z</time>
      </trkpt>
      <trkpt lat="46.02468" lon="7.13278">
        <ele>1093</ele>
        <time>2018-05-11T14:00:45Z</time>
      </trkpt>
      <trkpt lat="46.02479" lon="7.13306">
        <ele>1092</ele>
        <time>2018-05-11T14:01:45Z</time>
      </trkpt>
      <trkpt lat="46.02481" lon="7.13316">
        <ele>1091</ele>
        <time>2018-05-11T14:02:45Z</time>
      </trkpt>
      <trkpt lat="46.02481" lon="7.13316">
        <ele>1091</ele>
        <time>2018-05-11T14:03:45Z</time>
      </trkpt>
      <trkpt lat="46.02484" lon="7.13326">
        <ele>1092</ele>
        <time>2018-05-11T14:04:45Z</time>
      </trkpt>
      <trkpt lat="46.02486" lon="7.13336">
        <ele>1086</ele>
        <time>2018-05-11T14:05:45Z</time>
      </trkpt>
      <trkpt lat="46.02491" lon="7.13351">
        <ele>1083</ele>
        <time>2018-05-11T14:06:45Z</time>
      </trkpt>
      <trkpt lat="46.02499" lon="7.13369">
        <ele>1080</ele>
        <time>2018-05-11T14:07:45Z</time>
      </trkpt>
      <trkpt lat="46.02512" lon="7.13396">
        <ele>1093</ele>
        <time>2018-05-11T14:08:45Z</time>
      </trkpt>
      <trkpt lat="46.02555" lon="7.13469">
        <ele>1083</ele>
        <time>2018-05-11T14:09:45Z</time>
      </trkpt>
      <trkpt lat="46.02596" lon="7.1353">
        <ele>1085</ele>
        <time>2018-05-11T14:10:45Z</time>
      </trkpt>
      <trkpt lat="46.02649" lon="7.13607">
        <ele>1073</ele>
        <time>2018-05-11T14:11:45Z</time>
      </trkpt>
      <trkpt lat="46.02685" lon="7.13654">
        <ele>1079</ele>
        <time>2018-05-11T14:12:45Z</time>
      </trkpt>
      <trkpt lat="46.0272" lon="7.13689">
        <ele>1062</ele>
        <time>2018-05-11T14:13:45Z</time>
      </trkpt>
      <trkpt lat="46.02786" lon="7.13744">
        <ele>1069</ele>
        <time>2018-05-11T14:14:45Z</time>
      </trkpt>
      <trkpt lat="46.02826" lon="7.13776">
        <ele>1052</ele>
        <time>2018-05-11T14:15:45Z</time>
      </trkpt>
      <trkpt lat="46.02852" lon="7.13794">
        <ele>1062</ele>
        <time>2018-05-11T14:16:45Z</time>
      </trkpt>
      <trkpt lat="46.02856" lon="7.13797">
        <ele>1061</ele>
        <time>2018-05-11T14:17:45Z</time>
      </trkpt>
      <trkpt lat="46.02859" lon="7.13799">
        <ele>1061</ele>
        <time>2018-05-11T14:18:45Z</time>
      </trkpt>
      <trkpt lat="46.02861" lon="7.13803">
        <ele>1061</ele>
        <time>2018-05-11T14:19:45Z</time>
      </trkpt>
      <trkpt lat="46.02863" lon="7.13807">
        <ele>1060</ele>
        <time>2018-05-11T14:20:45Z</time>
      </trkpt>
      <trkpt lat="46.02864" lon="7.13812">
        <ele>1060</ele>
        <time>2018-05-11T14:21:45Z</time>
      </trkpt>
      <trkpt lat="46.02864" lon="7.13816">
        <ele>1059</ele>
        <time>2018-05-11T14:22:45Z</time>
      </trkpt>
      <trkpt lat="46.02862" lon="7.1382">
        <ele>1058</ele>
        <time>2018-05-11T14:23:45Z</time>
      </trkpt>
      <trkpt lat="46.02861" lon="7.13823">
        <ele>1057</ele>
        <time>2018-05-11T14:24:45Z</time>
      </trkpt>
      <trkpt lat="46.02857" lon="7.13826">
        <ele>1056</ele>
        <time>2018-05-11T14:25:45Z</time>
      </trkpt>
      <trkpt lat="46.02852" lon="7.13826">
        <ele>1054</ele>
        <time>2018-05-11T14:26:45Z</time>
      </trkpt>
      <trkpt lat="46.02849" lon="7.13824">
        <ele>1054</ele>
        <time>2018-05-11T14:27:45Z</time>
      </trkpt>
      <trkpt lat="46.02842" lon="7.13819">
        <ele>1053</ele>
        <time>2018-05-11T14:28:45Z</time>
      </trkpt>
      <trkpt lat="46.02835" lon="7.1381">
        <ele>1056</ele>
        <time>2018-05-11T14:29:45Z</time>
      </trkpt>
      <trkpt lat="46.02831" lon="7.13805">
        <ele>1046</ele>
        <time>2018-05-11T14:30:45Z</time>
      </trkpt>
      <trkpt lat="46.02826" lon="7.138">
        <ele>1047</ele>
        <time>2018-05-11T14:31:45Z</time>
      </trkpt>
      <trkpt lat="46.02816" lon="7.13791">
        <ele>1047</ele>
        <time>2018-05-11T14:32:45Z</time>
      </trkpt>
      <trkpt lat="46.02811" lon="7.13786">
        <ele>1048</ele>
        <time>2018-05-11T14:33:45Z</time>
      </trkpt>
      <trkpt lat="46.02806" lon="7.13782">
        <ele>1048</ele>
        <time>2018-05-11T14:34:45Z</time>
      </trkpt>
      <trkpt lat="46.02791" lon="7.13773">
        <ele>1047</ele>
        <time>2018-05-11T14:35:45Z</time>
      </trkpt>
      <trkpt lat="46.02763" lon="7.13761">
        <ele>1047</ele>
        <time>2018-05-11T14:36:45Z</time>
      </trkpt>
      <trkpt lat="46.02733" lon="7.13751">
        <ele>1039</ele>
        <time>2018-05-11T14:37:45Z</time>
      </trkpt>
      <trkpt lat="46.02719" lon="7.13747">
        <ele>1052</ele>
        <time>2018-05-11T14:38:45Z</time>
      </trkpt>
      <trkpt lat="46.02711" lon="7.13744">
        <ele>1051</ele>
        <time>2018-05-11T14:39:45Z</time>
      </trkpt>
      <trkpt lat="46.02693" lon="7.13742">
        <ele>1048</ele>
        <time>2018-05-11T14:40:45Z</time>
      </trkpt>
      <trkpt lat="46.02684" lon="7.1374">
        <ele>1045</ele>
        <time>2018-05-11T14:41:45Z</time>
      </trkpt>
      <trkpt lat="46.02677" lon="7.13739">
        <ele>1042</ele>
        <time>2018-05-11T14:42:45Z</time>
      </trkpt>
      <trkpt lat="46.02663" lon="7.13734">
        <ele>1035</ele>
        <time>2018-05-11T14:43:45Z</time>
      </trkpt>
      <trkpt lat="46.0265" lon="7.13728">
        <ele>1037</ele>
        <time>2018-05-11T14:44:45Z</time>
      </trkpt>
      <trkpt lat="46.02641" lon="7.13724">
        <ele>1037</ele>
        <time>2018-05-11T14:45:45Z</time>
      </trkpt>
      <trkpt lat="46.0263" lon="7.13718">
        <ele>1038</ele>
        <time>2018-05-11T14:46:45Z</time>
      </trkpt>
      <trkpt lat="46.02624" lon="7.13714">
        <ele>1038</ele>
        <time>2018-05-11T14:47:45Z</time>
      </trkpt>
      <trkpt lat="46.02619" lon="7.13713">
        <ele>1038</ele>
        <time>2018-05-11T14:48:45Z</time>
      </trkpt>
      <trkpt lat="46.02614" lon="7.13711">
        <ele>1037</ele>
        <time>2018-05-11T14:49:45Z</time>
      </trkpt>
      <trkpt lat="46.02607" lon="7.13709">
        <ele>1037</ele>
        <time>2018-05-11T14:50:45Z</time>
      </trkpt>
      <trkpt lat="46.02607" lon="7.13709">
        <ele>1037</ele>
        <time>2018-05-11T14:51:45Z</time>
      </trkpt>
      <trkpt lat="46.02607" lon="7.13711">
        <ele>1037</ele>
        <time>2018-05-11T14:52:45Z</time>
      </trkpt>
      <trkpt lat="46.02606" lon="7.13714">
        <ele>1036</ele>
        <time>2018-05-11T14:53:45Z</time>
      </trkpt>
      <trkpt lat="46.02604" lon="7.13715">
        <ele>1036</ele>
        <time>2018-05-11T14:54:45Z</time>
      </trkpt>
      <trkpt lat="46.02601" lon="7.13716">
        <ele>1035</ele>
        <time>2018-05-11T14:55:45Z</time>
      </trkpt>
      <trkpt lat="46.02596" lon="7.13715">
        <ele>1035</ele>
        <time>2018-05-11T14:56:45Z</time>
      </trkpt>
      <trkpt lat="46.02592" lon="7.13713">
        <ele>1035</ele>
        <time>2018-05-11T14:57:45Z</time>
      </trkpt>
      <trkpt lat="46.02589" lon="7.13711">
        <ele>1035</ele>
        <time>2018-05-11T14:58:45Z</time>
      </trkpt>
      <trkpt lat="46.02578" lon="7.13702">
        <ele>1025</ele>
        <time>2018-05-11T14:59:45Z</time>
      </trkpt>
      <trkpt lat="46.02571" lon="7.13697">
        <ele>1026</ele>
        <time>2018-05-11T15:00:45Z</time>
      </trkpt>
      <trkpt lat="46.02564" lon="7.13697">
        <ele>1025</ele>
        <time>2018-05-11T15:01:45Z</time>
      </trkpt>
      <trkpt lat="46.02541" lon="7.13697">
        <ele>1022</ele>
        <time>2018-05-11T15:02:45Z</time>
      </trkpt>
      <trkpt lat="46.02533" lon="7.13696">
        <ele>1021</ele>
        <time>2018-05-11T15:03:45Z</time>
      </trkpt>
      <trkpt lat="46.0252" lon="7.13696">
        <ele>1020</ele>
        <time>2018-05-11T15:04:45Z</time>
      </trkpt>
      <trkpt lat="46.02508" lon="7.13695">
        <ele>1019</ele>
        <time>2018-05-11T15:05:45Z</time>
      </trkpt>
      <trkpt lat="46.02496" lon="7.1369">
        <ele>1009</ele>
        <time>2018-05-11T15:06:45Z</time>
      </trkpt>
      <trkpt lat="46.02483" lon="7.13679">
        <ele>1010</ele>
        <time>2018-05-11T15:07:45Z</time>
      </trkpt>
      <trkpt lat="46.02461" lon="7.13649">
        <ele>1019</ele>
        <time>2018-05-11T15:08:45Z</time>
      </trkpt>
      <trkpt lat="46.02454" lon="7.13641">
        <ele>1019</ele>
        <time>2018-05-11T15:09:45Z</time>
      </trkpt>
      <trkpt lat="46.02446" lon="7.13626">
        <ele>1020</ele>
        <time>2018-05-11T15:10:45Z</time>
      </trkpt>
      <trkpt lat="46.02439" lon="7.13619">
        <ele>1020</ele>
        <time>2018-05-11T15:11:45Z</time>
      </trkpt>
      <trkpt lat="46.02427" lon="7.13604">
        <ele>1021</ele>
        <time>2018-05-11T15:12:45Z</time>
      </trkpt>
      <trkpt lat="46.02414" lon="7.13597">
        <ele>1012</ele>
        <time>2018-05-11T15:13:45Z</time>
      </trkpt>
      <trkpt lat="46.02395" lon="7.1359">
        <ele>1008</ele>
        <time>2018-05-11T15:14:45Z</time>
      </trkpt>
      <trkpt lat="46.02388" lon="7.13586">
        <ele>1006</ele>
        <time>2018-05-11T15:15:45Z</time>
      </trkpt>
      <trkpt lat="46.02378" lon="7.13581">
        <ele>1016</ele>
        <time>2018-05-11T15:16:45Z</time>
      </trkpt>
      <trkpt lat="46.02371" lon="7.13575">
        <ele>1015</ele>
        <time>2018-05-11T15:17:45Z</time>
      </trkpt>
      <trkpt lat="46.02363" lon="7.13565">
        <ele>1015</ele>
        <time>2018-05-11T15:18:45Z</time>
      </trkpt>
      <trkpt lat="46.02353" lon="7.13547">
        <ele>1016</ele>
        <time>2018-05-11T15:19:45Z</time>
      </trkpt>
      <trkpt lat="46.02344" lon="7.13532">
        <ele>1017</ele>
        <time>2018-05-11T15:20:45Z</time>
      </trkpt>
      <trkpt lat="46.02332" lon="7.13519">
        <ele>1008</ele>
        <time>2018-05-11T15:21:45Z</time>
      </trkpt>
      <trkpt lat="46.02317" lon="7.13509">
        <ele>1007</ele>
        <time>2018-05-11T15:22:45Z</time>
      </trkpt>
      <trkpt lat="46.02298" lon="7.13499">
        <ele>1013</ele>
        <time>2018-05-11T15:23:45Z</time>
      </trkpt>
      <trkpt lat="46.02282" lon="7.13488">
        <ele>1010</ele>
        <time>2018-05-11T15:24:45Z</time>
      </trkpt>
      <trkpt lat="46.02269" lon="7.13472">
        <ele>1010</ele>
        <time>2018-05-11T15:25:45Z</time>
      </trkpt>
      <trkpt lat="46.02252" lon="7.13451">
        <ele>1011</ele>
        <time>2018-05-11T15:26:45Z</time>
      </trkpt>
      <trkpt lat="46.02244" lon="7.13443">
        <ele>997</ele>
        <time>2018-05-11T15:27:45Z</time>
      </trkpt>
      <trkpt lat="46.02233" lon="7.13432">
        <ele>998</ele>
        <time>2018-05-11T15:28:45Z</time>
      </trkpt>
      <trkpt lat="46.02228" lon="7.13426">
        <ele>998</ele>
        <time>2018-05-11T15:29:45Z</time>
      </trkpt>
      <trkpt lat="46.0222" lon="7.13417">
        <ele>996</ele>
        <time>2018-05-11T15:30:45Z</time>
      </trkpt>
      <trkpt lat="46.022" lon="7.1338">
        <ele>1002</ele>
        <time>2018-05-11T15:31:45Z</time>
      </trkpt>
      <trkpt lat="46.02173" lon="7.1333">
        <ele>1004</ele>
        <time>2018-05-11T15:32:45Z</time>
      </trkpt>
      <trkpt lat="46.02163" lon="7.13318">
        <ele>999</ele>
        <time>2018-05-11T15:33:45Z</time>
      </trkpt>
      <trkpt lat="46.02154" lon="7.13311">
        <ele>1000</ele>
        <time>2018-05-11T15:34:45Z</time>
      </trkpt>
      <trkpt lat="46.02145" lon="7.13307">
        <ele>1001</ele>
        <time>2018-05-11T15:35:45Z</time>
      </trkpt>
      <trkpt lat="46.02131" lon="7.13302">
        <ele>1000</ele>
        <time>2018-05-11T15:36:45Z</time>
      </trkpt>
      <trkpt lat="46.02131" lon="7.13302">
        <ele>1000</ele>
        <time>2018-05-11T15:37:45Z</time>
      </trkpt>
      <trkpt lat="46.02126" lon="7.13301">
        <ele>999</ele>
        <time>2018-05-11T15:38:45Z</time>
      </trkpt>
      <trkpt lat="46.02113" lon="7.13297">
        <ele>998</ele>
        <time>2018-05-11T15:39:45Z</time>
      </trkpt>
      <trkpt lat="46.02089" lon="7.1329">
        <ele>996</ele>
        <time>2018-05-11T15:40:45Z</time>
      </trkpt>
      <trkpt lat="46.02079" lon="7.13283">
        <ele>981</ele>
        <time>2018-05-11T15:41:45Z</time>
      </trkpt>
      <trkpt lat="46.02074" lon="7.1328">
        <ele>981</ele>
        <time>2018-05-11T15:42:45Z</time>
      </trkpt>
      <trkpt lat="46.0207" lon="7.13276">
        <ele>982</ele>
        <time>2018-05-11T15:43:45Z</time>
      </trkpt>
      <trkpt lat="46.02068" lon="7.13272">
        <ele>982</ele>
        <time>2018-05-11T15:44:45Z</time>
      </trkpt>
      <trkpt lat="46.02067" lon="7.13267">
        <ele>983</ele>
        <time>2018-05-11T15:45:45Z</time>
      </trkpt>
      <trkpt lat="46.0206" lon="7.13214">
        <ele>993</ele>
        <time>2018-05-11T15:46:45Z</time>
      </trkpt>
      <trkpt lat="46.02056" lon="7.13199">
        <ele>994</ele>
        <time>2018-05-11T15:47:45Z</time>
      </trkpt>
      <trkpt lat="46.02049" lon="7.13181">
        <ele>995</ele>
        <time>2018-05-11T15:48:45Z</time>
      </trkpt>
      <trkpt lat="46.02039" lon="7.13167">
        <ele>993</ele>
        <time>2018-05-11T15:49:45Z</time>
      </trkpt>
      <trkpt lat="46.0203" lon="7.13158">
        <ele>1000</ele>
        <time>2018-05-11T15:50:45Z</time>
      </trkpt>
      <trkpt lat="46.02015" lon="7.13148">
        <ele>996</ele>
        <time>2018-05-11T15:51:45Z</time>
      </trkpt>
      <trkpt lat="46.01984" lon="7.13132">
        <ele>982</ele>
        <time>2018-05-11T15:52:45Z</time>
      </trkpt>
      <trkpt lat="46.01969" lon="7.13124">
        <ele>982</ele>
        <time>2018-05-11T15:53:45Z</time>
      </trkpt>
      <trkpt lat="46.01961" lon="7.13116">
        <ele>982</ele>
        <time>2018-05-11T15:54:45Z</time>
      </trkpt>
      <trkpt lat="46.01952" lon="7.13105">
        <ele>981</ele>
        <time>2018-05-11T15:55:45Z</time>
      </trkpt>
      <trkpt lat="46.01933" lon="7.13074">
        <ele>984</ele>
        <time>2018-05-11T15:56:45Z</time>
      </trkpt>
      <trkpt lat="46.01926" lon="7.13067">
        <ele>984</ele>
        <time>2018-05-11T15:57:45Z</time>
      </trkpt>
      <trkpt lat="46.01918" lon="7.13064">
        <ele>984</ele>
        <time>2018-05-11T15:58:45Z</time>
      </trkpt>
      <trkpt lat="46.01912" lon="7.13064">
        <ele>981</ele>
        <time>2018-05-11T15:59:45Z</time>
      </trkpt>
      <trkpt lat="46.01908" lon="7.13065">
        <ele>981</ele>
        <time>2018-05-11T16:00:45Z</time>
      </trkpt>
      <trkpt lat="46.01902" lon="7.13068">
        <ele>981</ele>
        <time>2018-05-11T16:01:45Z</time>
      </trkpt>
      <trkpt lat="46.01893" lon="7.13078">
        <ele>981</ele>
        <time>2018-05-11T16:02:45Z</time>
      </trkpt>
      <trkpt lat="46.01888" lon="7.13089">
        <ele>975</ele>
        <time>2018-05-11T16:03:45Z</time>
      </trkpt>
      <trkpt lat="46.01874" lon="7.13106">
        <ele>974</ele>
        <time>2018-05-11T16:04:45Z</time>
      </trkpt>
      <trkpt lat="46.01863" lon="7.13129">
        <ele>972</ele>
        <time>2018-05-11T16:05:45Z</time>
      </trkpt>
      <trkpt lat="46.0186" lon="7.13137">
        <ele>972</ele>
        <time>2018-05-11T16:06:45Z</time>
      </trkpt>
      <trkpt lat="46.01856" lon="7.13156">
        <ele>970</ele>
        <time>2018-05-11T16:07:45Z</time>
      </trkpt>
      <trkpt lat="46.01856" lon="7.13156">
        <ele>970</ele>
        <time>2018-05-11T16:08:45Z</time>
      </trkpt>
      <trkpt lat="46.01858" lon="7.1316">
        <ele>970</ele>
        <time>2018-05-11T16:09:45Z</time>
      </trkpt>
      <trkpt lat="46.01862" lon="7.13174">
        <ele>968</ele>
        <time>2018-05-11T16:10:45Z</time>
      </trkpt>
      <trkpt lat="46.01867" lon="7.13201">
        <ele>968</ele>
        <time>2018-05-11T16:11:45Z</time>
      </trkpt>
      <trkpt lat="46.01872" lon="7.13242">
        <ele>968</ele>
        <time>2018-05-11T16:12:45Z</time>
      </trkpt>
      <trkpt lat="46.01876" lon="7.13253">
        <ele>967</ele>
        <time>2018-05-11T16:13:45Z</time>
      </trkpt>
      <trkpt lat="46.01884" lon="7.13264">
        <ele>967</ele>
        <time>2018-05-11T16:14:45Z</time>
      </trkpt>
      <trkpt lat="46.0189" lon="7.1327">
        <ele>967</ele>
        <time>2018-05-11T16:15:45Z</time>
      </trkpt>
      <trkpt lat="46.01896" lon="7.13276">
        <ele>967</ele>
        <time>2018-05-11T16:16:45Z</time>
      </trkpt>
      <trkpt lat="46.0201" lon="7.13393">
        <ele>964</ele>
        <time>2018-05-11T16:17:45Z</time>
      </trkpt>
      <trkpt lat="46.02016" lon="7.134">
        <ele>963</ele>
        <time>2018-05-11T16:18:45Z</time>
      </trkpt>
      <trkpt lat="46.02083" lon="7.13474">
        <ele>958</ele>
        <time>2018-05-11T16:19:45Z</time>
      </trkpt>
      <trkpt lat="46.02142" lon="7.13557">
        <ele>958</ele>
        <time>2018-05-11T16:20:45Z</time>
      </trkpt>
      <trkpt lat="46.02238" lon="7.1369">
        <ele>953</ele>
        <time>2018-05-11T16:21:45Z</time>
      </trkpt>
      <trkpt lat="46.02238" lon="7.1369">
        <ele>953</ele>
        <time>2018-05-11T16:22:45Z</time>
      </trkpt>
      <trkpt lat="46.02269" lon="7.13742">
        <ele>954</ele>
        <time>2018-05-11T16:23:45Z</time>
      </trkpt>
      <trkpt lat="46.02277" lon="7.13757">
        <ele>948</ele>
        <time>2018-05-11T16:24:45Z</time>
      </trkpt>
      <trkpt lat="46.02329" lon="7.13828">
        <ele>945</ele>
        <time>2018-05-11T16:25:45Z</time>
      </trkpt>
      <trkpt lat="46.02373" lon="7.13877">
        <ele>943</ele>
        <time>2018-05-11T16:26:45Z</time>
      </trkpt>
      <trkpt lat="46.0238" lon="7.13886">
        <ele>943</ele>
        <time>2018-05-11T16:27:45Z</time>
      </trkpt>
      <trkpt lat="46.02489" lon="7.13997">
        <ele>938</ele>
        <time>2018-05-11T16:28:45Z</time>
      </trkpt>
      <trkpt lat="46.02495" lon="7.14003">
        <ele>935</ele>
        <time>2018-05-11T16:29:45Z</time>
      </trkpt>
      <trkpt lat="46.02516" lon="7.14029">
        <ele>936</ele>
        <time>2018-05-11T16:30:45Z</time>
      </trkpt>
      <trkpt lat="46.02527" lon="7.14042">
        <ele>935</ele>
        <time>2018-05-11T16:31:45Z</time>
      </trkpt>
      <trkpt lat="46.02547" lon="7.14068">
        <ele>934</ele>
        <time>2018-05-11T16:32:45Z</time>
      </trkpt>
      <trkpt lat="46.02557" lon="7.14079">
        <ele>933</ele>
        <time>2018-05-11T16:33:45Z</time>
      </trkpt>
      <trkpt lat="46.02567" lon="7.1409">
        <ele>926</ele>
        <time>2018-05-11T16:34:45Z</time>
      </trkpt>
      <trkpt lat="46.02569" lon="7.14092">
        <ele>926</ele>
        <time>2018-05-11T16:35:45Z</time>
      </trkpt>
      <trkpt lat="46.02575" lon="7.141">
        <ele>926</ele>
        <time>2018-05-11T16:36:45Z</time>
      </trkpt>
      <trkpt lat="46.02582" lon="7.14104">
        <ele>926</ele>
        <time>2018-05-11T16:37:45Z</time>
      </trkpt>
      <trkpt lat="46.02594" lon="7.14112">
        <ele>926</ele>
        <time>2018-05-11T16:38:45Z</time>
      </trkpt>
      <trkpt lat="46.02624" lon="7.14123">
        <ele>925</ele>
        <time>2018-05-11T16:39:45Z</time>
      </trkpt>
      <trkpt lat="46.02652" lon="7.14133">
        <ele>925</ele>
        <time>2018-05-11T16:40:45Z</time>
      </trkpt>
      <trkpt lat="46.02693" lon="7.1415">
        <ele>926</ele>
        <time>2018-05-11T16:41:45Z</time>
      </trkpt>
      <trkpt lat="46.02723" lon="7.14167">
        <ele>917</ele>
        <time>2018-05-11T16:42:45Z</time>
      </trkpt>
      <trkpt lat="46.02744" lon="7.14183">
        <ele>918</ele>
        <time>2018-05-11T16:43:45Z</time>
      </trkpt>
      <trkpt lat="46.02767" lon="7.14201">
        <ele>920</ele>
        <time>2018-05-11T16:44:45Z</time>
      </trkpt>
      <trkpt lat="46.02814" lon="7.14249">
        <ele>917</ele>
        <time>2018-05-11T16:45:45Z</time>
      </trkpt>
      <trkpt lat="46.0284" lon="7.14276">
        <ele>912</ele>
        <time>2018-05-11T16:46:45Z</time>
      </trkpt>
      <trkpt lat="46.02858" lon="7.14295">
        <ele>911</ele>
        <time>2018-05-11T16:47:45Z</time>
      </trkpt>
      <trkpt lat="46.02858" lon="7.14295">
        <ele>911</ele>
        <time>2018-05-11T16:48:45Z</time>
      </trkpt>
      <trkpt lat="46.02866" lon="7.14303">
        <ele>911</ele>
        <time>2018-05-11T16:49:45Z</time>
      </trkpt>
      <trkpt lat="46.02878" lon="7.14315">
        <ele>910</ele>
        <time>2018-05-11T16:50:45Z</time>
      </trkpt>
      <trkpt lat="46.02882" lon="7.14318">
        <ele>910</ele>
        <time>2018-05-11T16:51:45Z</time>
      </trkpt>
      <trkpt lat="46.02884" lon="7.14319">
        <ele>910</ele>
        <time>2018-05-11T16:52:45Z</time>
      </trkpt>
      <trkpt lat="46.0289" lon="7.14324">
        <ele>909</ele>
        <time>2018-05-11T16:53:45Z</time>
      </trkpt>
      <trkpt lat="46.02894" lon="7.14325">
        <ele>909</ele>
        <time>2018-05-11T16:54:45Z</time>
      </trkpt>
      <trkpt lat="46.02902" lon="7.14328">
        <ele>908</ele>
        <time>2018-05-11T16:55:45Z</time>
      </trkpt>
      <trkpt lat="46.02909" lon="7.14328">
        <ele>907</ele>
        <time>2018-05-11T16:56:45Z</time>
      </trkpt>
      <trkpt lat="46.02928" lon="7.14328">
        <ele>909</ele>
        <time>2018-05-11T16:57:45Z</time>
      </trkpt>
      <trkpt lat="46.02948" lon="7.14329">
        <ele>912</ele>
        <time>2018-05-11T16:58:45Z</time>
      </trkpt>
      <trkpt lat="46.02958" lon="7.1433">
        <ele>912</ele>
        <time>2018-05-11T16:59:45Z</time>
      </trkpt>
      <trkpt lat="46.02977" lon="7.14335">
        <ele>904</ele>
        <time>2018-05-11T17:00:45Z</time>
      </trkpt>
      <trkpt lat="46.02993" lon="7.1434">
        <ele>905</ele>
        <time>2018-05-11T17:01:45Z</time>
      </trkpt>
      <trkpt lat="46.03013" lon="7.14352">
        <ele>906</ele>
        <time>2018-05-11T17:02:45Z</time>
      </trkpt>
      <trkpt lat="46.03032" lon="7.14368">
        <ele>905</ele>
        <time>2018-05-11T17:03:45Z</time>
      </trkpt>
      <trkpt lat="46.03058" lon="7.14392">
        <ele>903</ele>
        <time>2018-05-11T17:04:45Z</time>
      </trkpt>
      <trkpt lat="46.03089" lon="7.14418">
        <ele>897</ele>
        <time>2018-05-11T17:05:45Z</time>
      </trkpt>
      <trkpt lat="46.03123" lon="7.14443">
        <ele>893</ele>
        <time>2018-05-11T17:06:45Z</time>
      </trkpt>
      <trkpt lat="46.03151" lon="7.14463">
        <ele>891</ele>
        <time>2018-05-11T17:07:45Z</time>
      </trkpt>
      <trkpt lat="46.03156" lon="7.14467">
        <ele>891</ele>
        <time>2018-05-11T17:08:45Z</time>
      </trkpt>
      <trkpt lat="46.03164" lon="7.14472">
        <ele>890</ele>
        <time>2018-05-11T17:09:45Z</time>
      </trkpt>
      <trkpt lat="46.03184" lon="7.1449">
        <ele>888</ele>
        <time>2018-05-11T17:10:45Z</time>
      </trkpt>
      <trkpt lat="46.03193" lon="7.145">
        <ele>888</ele>
        <time>2018-05-11T17:11:45Z</time>
      </trkpt>
      <trkpt lat="46.03201" lon="7.1451">
        <ele>883</ele>
        <time>2018-05-11T17:12:45Z</time>
      </trkpt>
      <trkpt lat="46.03204" lon="7.14515">
        <ele>883</ele>
        <time>2018-05-11T17:13:45Z</time>
      </trkpt>
      <trkpt lat="46.03208" lon="7.1452">
        <ele>883</ele>
        <time>2018-05-11T17:14:45Z</time>
      </trkpt>
      <trkpt lat="46.03211" lon="7.14524">
        <ele>883</ele>
        <time>2018-05-11T17:15:45Z</time>
      </trkpt>
      <trkpt lat="46.03215" lon="7.14529">
        <ele>883</ele>
        <time>2018-05-11T17:16:45Z</time>
      </trkpt>
      <trkpt lat="46.03218" lon="7.14534">
        <ele>883</ele>
        <time>2018-05-11T17:17:45Z</time>
      </trkpt>
      <trkpt lat="46.03223" lon="7.14547">
        <ele>882</ele>
        <time>2018-05-11T17:18:45Z</time>
      </trkpt>
      <trkpt lat="46.03223" lon="7.14547">
        <ele>882</ele>
        <time>2018-05-11T17:19:45Z</time>
      </trkpt>
      <trkpt lat="46.03207" lon="7.14568">
        <ele>883</ele>
        <time>2018-05-11T17:20:45Z</time>
      </trkpt>
      <trkpt lat="46.03202" lon="7.14579">
        <ele>883</ele>
        <time>2018-05-11T17:21:45Z</time>
      </trkpt>
      <trkpt lat="46.03197" lon="7.14589">
        <ele>883</ele>
        <time>2018-05-11T17:22:45Z</time>
      </trkpt>
      <trkpt lat="46.0319" lon="7.14606">
        <ele>884</ele>
        <time>2018-05-11T17:23:45Z</time>
      </trkpt>
      <trkpt lat="46.03187" lon="7.14611">
        <ele>884</ele>
        <time>2018-05-11T17:24:45Z</time>
      </trkpt>
      <trkpt lat="46.03183" lon="7.14618">
        <ele>884</ele>
        <time>2018-05-11T17:25:45Z</time>
      </trkpt>
      <trkpt lat="46.03178" lon="7.14624">
        <ele>884</ele>
        <time>2018-05-11T17:26:45Z</time>
      </trkpt>
      <trkpt lat="46.03176" lon="7.14625">
        <ele>884</ele>
        <time>2018-05-11T17:27:45Z</time>
      </trkpt>
      <trkpt lat="46.03173" lon="7.14628">
        <ele>885</ele>
        <time>2018-05-11T17:28:45Z</time>
      </trkpt>
      <trkpt lat="46.03166" lon="7.1463">
        <ele>889</ele>
        <time>2018-05-11T17:29:45Z</time>
      </trkpt>
      <trkpt lat="46.03148" lon="7.14632">
        <ele>889</ele>
        <time>2018-05-11T17:30:45Z</time>
      </trkpt>
      <trkpt lat="46.03131" lon="7.14636">
        <ele>890</ele>
        <time>2018-05-11T17:31:45Z</time>
      </trkpt>
      <trkpt lat="46.03125" lon="7.14637">
        <ele>890</ele>
        <time>2018-05-11T17:32:45Z</time>
      </trkpt>
      <trkpt lat="46.03121" lon="7.14637">
        <ele>890</ele>
        <time>2018-05-11T17:33:45Z</time>
      </trkpt>
      <trkpt lat="46.03113" lon="7.14638">
        <ele>890</ele>
        <time>2018-05-11T17:34:45Z</time>
      </trkpt>
      <trkpt lat="46.03109" lon="7.14638">
        <ele>890</ele>
        <time>2018-05-11T17:35:45Z</time>
      </trkpt>
      <trkpt lat="46.03105" lon="7.14638">
        <ele>890</ele>
        <time>2018-05-11T17:36:45Z</time>
      </trkpt>
      <trkpt lat="46.03101" lon="7.14638">
        <ele>891</ele>
        <time>2018-05-11T17:37:45Z</time>
      </trkpt>
      <trkpt lat="46.03098" lon="7.14637">
        <ele>891</ele>
        <time>2018-05-11T17:38:45Z</time>
      </trkpt>
      <trkpt lat="46.03094" lon="7.14636">
        <ele>891</ele>
        <time>2018-05-11T17:39:45Z</time>
      </trkpt>
      <trkpt lat="46.0309" lon="7.14635">
        <ele>891</ele>
        <time>2018-05-11T17:40:45Z</time>
      </trkpt>
      <trkpt lat="46.03085" lon="7.14632">
        <ele>891</ele>
        <time>2018-05-11T17:41:45Z</time>
      </trkpt>
      <trkpt lat="46.03079" lon="7.1463">
        <ele>893</ele>
        <time>2018-05-11T17:42:45Z</time>
      </trkpt>
      <trkpt lat="46.03074" lon="7.14629">
        <ele>893</ele>
        <time>2018-05-11T17:43:45Z</time>
      </trkpt>
      <trkpt lat="46.03071" lon="7.14628">
        <ele>893</ele>
        <time>2018-05-11T17:44:45Z</time>
      </trkpt>
      <trkpt lat="46.03069" lon="7.14628">
        <ele>893</ele>
        <time>2018-05-11T17:45:45Z</time>
      </trkpt>
      <trkpt lat="46.03063" lon="7.14629">
        <ele>893</ele>
        <time>2018-05-11T17:46:45Z</time>
      </trkpt>
      <trkpt lat="46.03059" lon="7.14634">
        <ele>893</ele>
        <time>2018-05-11T17:47:45Z</time>
      </trkpt>
      <trkpt lat="46.03055" lon="7.1464">
        <ele>893</ele>
        <time>2018-05-11T17:48:45Z</time>
      </trkpt>
      <trkpt lat="46.03053" lon="7.14645">
        <ele>893</ele>
        <time>2018-05-11T17:49:45Z</time>
      </trkpt>
      <trkpt lat="46.03051" lon="7.1465">
        <ele>894</ele>
        <time>2018-05-11T17:50:45Z</time>
      </trkpt>
      <trkpt lat="46.03051" lon="7.14653">
        <ele>894</ele>
        <time>2018-05-11T17:51:45Z</time>
      </trkpt>
      <trkpt lat="46.0305" lon="7.14656">
        <ele>894</ele>
        <time>2018-05-11T17:52:45Z</time>
      </trkpt>
      <trkpt lat="46.03048" lon="7.14662">
        <ele>894</ele>
        <time>2018-05-11T17:53:45Z</time>
      </trkpt>
      <trkpt lat="46.03045" lon="7.14679">
        <ele>901</ele>
        <time>2018-05-11T17:54:45Z</time>
      </trkpt>
      <trkpt lat="46.03043" lon="7.14684">
        <ele>901</ele>
        <time>2018-05-11T17:55:45Z</time>
      </trkpt>
      <trkpt lat="46.03042" lon="7.14689">
        <ele>902</ele>
        <time>2018-05-11T17:56:45Z</time>
      </trkpt>
      <trkpt lat="46.03039" lon="7.14693">
        <ele>902</ele>
        <time>2018-05-11T17:57:45Z</time>
      </trkpt>
      <trkpt lat="46.03036" lon="7.14697">
        <ele>902</ele>
        <time>2018-05-11T17:58:45Z</time>
      </trkpt>
      <trkpt lat="46.03033" lon="7.14701">
        <ele>903</ele>
        <time>2018-05-11T17:59:45Z</time>
      </trkpt>
      <trkpt lat="46.03029" lon="7.14703">
        <ele>903</ele>
        <time>2018-05-11T18:00:45Z</time>
      </trkpt>
      <trkpt lat="46.03026" lon="7.14704">
        <ele>903</ele>
        <time>2018-05-11T18:01:45Z</time>
      </trkpt>
      <trkpt lat="46.03022" lon="7.14704">
        <ele>903</ele>
        <time>2018-05-11T18:02:45Z</time>
      </trkpt>
      <trkpt lat="46.03014" lon="7.14705">
        <ele>904</ele>
        <time>2018-05-11T18:03:45Z</time>
      </trkpt>
      <trkpt lat="46.02995" lon="7.14702">
        <ele>907</ele>
        <time>2018-05-11T18:04:45Z</time>
      </trkpt>
      <trkpt lat="46.02985" lon="7.14699">
        <ele>906</ele>
        <time>2018-05-11T18:05:45Z</time>
      </trkpt>
      <trkpt lat="46.02978" lon="7.14695">
        <ele>906</ele>
        <time>2018-05-11T18:06:45Z</time>
      </trkpt>
      <trkpt lat="46.02971" lon="7.14692">
        <ele>906</ele>
        <time>2018-05-11T18:07:45Z</time>
      </trkpt>
      <trkpt lat="46.02953" lon="7.14676">
        <ele>905</ele>
        <time>2018-05-11T18:08:45Z</time>
      </trkpt>
      <trkpt lat="46.02936" lon="7.14663">
        <ele>898</ele>
        <time>2018-05-11T18:09:45Z</time>
      </trkpt>
      <trkpt lat="46.02933" lon="7.14661">
        <ele>898</ele>
        <time>2018-05-11T18:10:45Z</time>
      </trkpt>
      <trkpt lat="46.0293" lon="7.14659">
        <ele>899</ele>
        <time>2018-05-11T18:11:45Z</time>
      </trkpt>
      <trkpt lat="46.02926" lon="7.14658">
        <ele>899</ele>
        <time>2018-05-11T18:12:45Z</time>
      </trkpt>
      <trkpt lat="46.02923" lon="7.14658">
        <ele>899</ele>
        <time>2018-05-11T18:13:45Z</time>
      </trkpt>
      <trkpt lat="46.02921" lon="7.14658">
        <ele>899</ele>
        <time>2018-05-11T18:14:45Z</time>
      </trkpt>
      <trkpt lat="46.0292" lon="7.14658">
        <ele>899</ele>
        <time>2018-05-11T18:15:45Z</time>
      </trkpt>
      <trkpt lat="46.02916" lon="7.14659">
        <ele>900</ele>
        <time>2018-05-11T18:16:45Z</time>
      </trkpt>
      <trkpt lat="46.02913" lon="7.14661">
        <ele>900</ele>
        <time>2018-05-11T18:17:45Z</time>
      </trkpt>
      <trkpt lat="46.02909" lon="7.14663">
        <ele>900</ele>
        <time>2018-05-11T18:18:45Z</time>
      </trkpt>
      <trkpt lat="46.02896" lon="7.14677">
        <ele>907</ele>
        <time>2018-05-11T18:19:45Z</time>
      </trkpt>
      <trkpt lat="46.0289" lon="7.14685">
        <ele>908</ele>
        <time>2018-05-11T18:20:45Z</time>
      </trkpt>
      <trkpt lat="46.02882" lon="7.14694">
        <ele>909</ele>
        <time>2018-05-11T18:21:45Z</time>
      </trkpt>
      <trkpt lat="46.02878" lon="7.14698">
        <ele>910</ele>
        <time>2018-05-11T18:22:45Z</time>
      </trkpt>
      <trkpt lat="46.02869" lon="7.14706">
        <ele>911</ele>
        <time>2018-05-11T18:23:45Z</time>
      </trkpt>
      <trkpt lat="46.02865" lon="7.14708">
        <ele>911</ele>
        <time>2018-05-11T18:24:45Z</time>
      </trkpt>
      <trkpt lat="46.0286" lon="7.14711">
        <ele>912</ele>
        <time>2018-05-11T18:25:45Z</time>
      </trkpt>
      <trkpt lat="46.02855" lon="7.14712">
        <ele>912</ele>
        <time>2018-05-11T18:26:45Z</time>
      </trkpt>
      <trkpt lat="46.0285" lon="7.14712">
        <ele>912</ele>
        <time>2018-05-11T18:27:45Z</time>
      </trkpt>
      <trkpt lat="46.02845" lon="7.14713">
        <ele>912</ele>
        <time>2018-05-11T18:28:45Z</time>
      </trkpt>
      <trkpt lat="46.0284" lon="7.14712">
        <ele>912</ele>
        <time>2018-05-11T18:29:45Z</time>
      </trkpt>
      <trkpt lat="46.02821" lon="7.1471">
        <ele>915</ele>
        <time>2018-05-11T18:30:45Z</time>
      </trkpt>
      <trkpt lat="46.02821" lon="7.1471">
        <ele>915</ele>
        <time>2018-05-11T18:31:45Z</time>
      </trkpt>
      <trkpt lat="46.02815" lon="7.14709">
        <ele>915</ele>
        <time>2018-05-11T18:32:45Z</time>
      </trkpt>
      <trkpt lat="46.02686" lon="7.14703">
        <ele>920</ele>
        <time>2018-05-11T18:33:45Z</time>
      </trkpt>
      <trkpt lat="46.02661" lon="7.14703">
        <ele>922</ele>
        <time>2018-05-11T18:34:45Z</time>
      </trkpt>
      <trkpt lat="46.02613" lon="7.14708">
        <ele>925</ele>
        <time>2018-05-11T18:35:45Z</time>
      </trkpt>
      <trkpt lat="46.02579" lon="7.14711">
        <ele>930</ele>
        <time>2018-05-11T18:36:45Z</time>
      </trkpt>
      <trkpt lat="46.02547" lon="7.14716">
        <ele>931</ele>
        <time>2018-05-11T18:37:45Z</time>
      </trkpt>
      <trkpt lat="46.02547" lon="7.14716">
        <ele>931</ele>
        <time>2018-05-11T18:38:45Z</time>
      </trkpt>
      <trkpt lat="46.02537" lon="7.14718">
        <ele>931</ele>
        <time>2018-05-11T18:39:45Z</time>
      </trkpt>
      <trkpt lat="46.02525" lon="7.14723">
        <ele>932</ele>
        <time>2018-05-11T18:40:45Z</time>
      </trkpt>
      <trkpt lat="46.02514" lon="7.14729">
        <ele>934</ele>
        <time>2018-05-11T18:41:45Z</time>
      </trkpt>
      <trkpt lat="46.02507" lon="7.14733">
        <ele>935</ele>
        <time>2018-05-11T18:42:45Z</time>
      </trkpt>
      <trkpt lat="46.02504" lon="7.14735">
        <ele>935</ele>
        <time>2018-05-11T18:43:45Z</time>
      </trkpt>
      <trkpt lat="46.02495" lon="7.14742">
        <ele>938</ele>
        <time>2018-05-11T18:44:45Z</time>
      </trkpt>
      <trkpt lat="46.02346" lon="7.14842">
        <ele>954</ele>
        <time>2018-05-11T18:45:45Z</time>
      </trkpt>
      <trkpt lat="46.02333" lon="7.14849">
        <ele>954</ele>
        <time>2018-05-11T18:46:45Z</time>
      </trkpt>
      <trkpt lat="46.02328" lon="7.14854">
        <ele>955</ele>
        <time>2018-05-11T18:47:45Z</time>
      </trkpt>
      <trkpt lat="46.02321" lon="7.14859">
        <ele>956</ele>
        <time>2018-05-11T18:48:45Z</time>
      </trkpt>
      <trkpt lat="46.02313" lon="7.14865">
        <ele>957</ele>
        <time>2018-05-11T18:49:45Z</time>
      </trkpt>
      <trkpt lat="46.02295" lon="7.14878">
        <ele>958</ele>
        <time>2018-05-11T18:50:45Z</time>
      </trkpt>
      <trkpt lat="46.02285" lon="7.14885">
        <ele>958</ele>
        <time>2018-05-11T18:51:45Z</time>
      </trkpt>
      <trkpt lat="46.02285" lon="7.14885">
        <ele>958</ele>
        <time>2018-05-11T18:52:45Z</time>
      </trkpt>
      <trkpt lat="46.02269" lon="7.14881">
        <ele>958</ele>
        <time>2018-05-11T18:53:45Z</time>
      </trkpt>
      <trkpt lat="46.02265" lon="7.14878">
        <ele>958</ele>
        <time>2018-05-11T18:54:45Z</time>
      </trkpt>
      <trkpt lat="46.02262" lon="7.14874">
        <ele>958</ele>
        <time>2018-05-11T18:55:45Z</time>
      </trkpt>
      <trkpt lat="46.02259" lon="7.1487">
        <ele>957</ele>
        <time>2018-05-11T18:56:45Z</time>
      </trkpt>
      <trkpt lat="46.02257" lon="7.14864">
        <ele>957</ele>
        <time>2018-05-11T18:57:45Z</time>
      </trkpt>
      <trkpt lat="46.02255" lon="7.14858">
        <ele>957</ele>
        <time>2018-05-11T18:58:45Z</time>
      </trkpt>
      <trkpt lat="46.02254" lon="7.14851">
        <ele>956</ele>
        <time>2018-05-11T18:59:45Z</time>
      </trkpt>
      <trkpt lat="46.02254" lon="7.14844">
        <ele>956</ele>
        <time>2018-05-11T19:00:45Z</time>
      </trkpt>
      <trkpt lat="46.02256" lon="7.14838">
        <ele>956</ele>
        <time>2018-05-11T19:01:45Z</time>
      </trkpt>
      <trkpt lat="46.02258" lon="7.14831">
        <ele>954</ele>
        <time>2018-05-11T19:02:45Z</time>
      </trkpt>
      <trkpt lat="46.02259" lon="7.14829">
        <ele>954</ele>
        <time>2018-05-11T19:03:45Z</time>
      </trkpt>
      <trkpt lat="46.02265" lon="7.14821">
        <ele>953</ele>
        <time>2018-05-11T19:04:45Z</time>
      </trkpt>
      <trkpt lat="46.02268" lon="7.14819">
        <ele>952</ele>
        <time>2018-05-11T19:05:45Z</time>
      </trkpt>
      <trkpt lat="46.02271" lon="7.14818">
        <ele>952</ele>
        <time>2018-05-11T19:06:45Z</time>
      </trkpt>
      <trkpt lat="46.02279" lon="7.14818">
        <ele>952</ele>
        <time>2018-05-11T19:07:45Z</time>
      </trkpt>
      <trkpt lat="46.02284" lon="7.14819">
        <ele>951</ele>
        <time>2018-05-11T19:08:45Z</time>
      </trkpt>
      <trkpt lat="46.02289" lon="7.14821">
        <ele>951</ele>
        <time>2018-05-11T19:09:45Z</time>
      </trkpt>
      <trkpt lat="46.02295" lon="7.14825">
        <ele>951</ele>
        <time>2018-05-11T19:10:45Z</time>
      </trkpt>
      <trkpt lat="46.02299" lon="7.14827">
        <ele>951</ele>
        <time>2018-05-11T19:11:45Z</time>
      </trkpt>
      <trkpt lat="46.02306" lon="7.1483">
        <ele>951</ele>
        <time>2018-05-11T19:12:45Z</time>
      </trkpt>
      <trkpt lat="46.02312" lon="7.14832">
        <ele>951</ele>
        <time>2018-05-11T19:13:45Z</time>
      </trkpt>
      <trkpt lat="46.02319" lon="7.14843">
        <ele>954</ele>
        <time>2018-05-11T19:14:45Z</time>
      </trkpt>
      <trkpt lat="46.02325" lon="7.14851">
        <ele>955</ele>
        <time>2018-05-11T19:15:45Z</time>
      </trkpt>
      <trkpt lat="46.02328" lon="7.14854">
        <ele>955</ele>
        <time>2018-05-11T19:16:45Z</time>
      </trkpt>
      <trkpt lat="46.02332" lon="7.14858">
        <ele>955</ele>
        <time>2018-05-11T19:17:45Z</time>
      </trkpt>
      <trkpt lat="46.02338" lon="7.14864">
        <ele>956</ele>
        <time>2018-05-11T19:18:45Z</time>
      </trkpt>
      <trkpt lat="46.02349" lon="7.14872">
        <ele>957</ele>
        <time>2018-05-11T19:19:45Z</time>
      </trkpt>
      <trkpt lat="46.02362" lon="7.14879">
        <ele>958</ele>
        <time>2018-05-11T19:20:45Z</time>
      </trkpt>
      <trkpt lat="46.0238" lon="7.14885">
        <ele>959</ele>
        <time>2018-05-11T19:21:45Z</time>
      </trkpt>
      <trkpt lat="46.02406" lon="7.14891">
        <ele>960</ele>
        <time>2018-05-11T19:22:45Z</time>
      </trkpt>
      <trkpt lat="46.0244" lon="7.14894">
        <ele>965</ele>
        <time>2018-05-11T19:23:45Z</time>
      </trkpt>
      <trkpt lat="46.02513" lon="7.14889">
        <ele>973</ele>
        <time>2018-05-11T19:24:45Z</time>
      </trkpt>
      <trkpt lat="46.02531" lon="7.14884">
        <ele>971</ele>
        <time>2018-05-11T19:25:45Z</time>
      </trkpt>
      <trkpt lat="46.02557" lon="7.14877">
        <ele>970</ele>
        <time>2018-05-11T19:26:45Z</time>
      </trkpt>
      <trkpt lat="46.02576" lon="7.14873">
        <ele>970</ele>
        <time>2018-05-11T19:27:45Z</time>
      </trkpt>
      <trkpt lat="46.02608" lon="7.14865">
        <ele>970</ele>
        <time>2018-05-11T19:28:45Z</time>
      </trkpt>
      <trkpt lat="46.02647" lon="7.14858">
        <ele>970</ele>
        <time>2018-05-11T19:29:45Z</time>
      </trkpt>
      <trkpt lat="46.02689" lon="7.14854">
        <ele>972</ele>
        <time>2018-05-11T19:30:45Z</time>
      </trkpt>
      <trkpt lat="46.02712" lon="7.14856">
        <ele>974</ele>
        <time>2018-05-11T19:31:45Z</time>
      </trkpt>
      <trkpt lat="46.02714" lon="7.14856">
        <ele>974</ele>
        <time>2018-05-11T19:32:45Z</time>
      </trkpt>
      <trkpt lat="46.02729" lon="7.14859">
        <ele>975</ele>
        <time>2018-05-11T19:33:45Z</time>
      </trkpt>
      <trkpt lat="46.02731" lon="7.1486">
        <ele>975</ele>
        <time>2018-05-11T19:34:45Z</time>
      </trkpt>
      <trkpt lat="46.02744" lon="7.14867">
        <ele>976</ele>
        <time>2018-05-11T19:35:45Z</time>
      </trkpt>
      <trkpt lat="46.02746" lon="7.14869">
        <ele>976</ele>
        <time>2018-05-11T19:36:45Z</time>
      </trkpt>
      <trkpt lat="46.02755" lon="7.1488">
        <ele>974</ele>
        <time>2018-05-11T19:37:45Z</time>
      </trkpt>
      <trkpt lat="46.0276" lon="7.14887">
        <ele>975</ele>
        <time>2018-05-11T19:38:45Z</time>
      </trkpt>
      <trkpt lat="46.02769" lon="7.14904">
        <ele>978</ele>
        <time>2018-05-11T19:39:45Z</time>
      </trkpt>
      <trkpt lat="46.02773" lon="7.14916">
        <ele>978</ele>
        <time>2018-05-11T19:40:45Z</time>
      </trkpt>
      <trkpt lat="46.02775" lon="7.14925">
        <ele>984</ele>
        <time>2018-05-11T19:41:45Z</time>
      </trkpt>
      <trkpt lat="46.02777" lon="7.14933">
        <ele>983</ele>
        <time>2018-05-11T19:42:45Z</time>
      </trkpt>
      <trkpt lat="46.02778" lon="7.14951">
        <ele>983</ele>
        <time>2018-05-11T19:43:45Z</time>
      </trkpt>
      <trkpt lat="46.02776" lon="7.14969">
        <ele>984</ele>
        <time>2018-05-11T19:44:45Z</time>
      </trkpt>
      <trkpt lat="46.02774" lon="7.14977">
        <ele>984</ele>
        <time>2018-05-11T19:45:45Z</time>
      </trkpt>
      <trkpt lat="46.02772" lon="7.14985">
        <ele>985</ele>
        <time>2018-05-11T19:46:45Z</time>
      </trkpt>
      <trkpt lat="46.02765" lon="7.15">
        <ele>990</ele>
        <time>2018-05-11T19:47:45Z</time>
      </trkpt>
      <trkpt lat="46.02761" lon="7.15007">
        <ele>990</ele>
        <time>2018-05-11T19:48:45Z</time>
      </trkpt>
      <trkpt lat="46.02752" lon="7.15018">
        <ele>991</ele>
        <time>2018-05-11T19:49:45Z</time>
      </trkpt>
      <trkpt lat="46.02742" lon="7.15027">
        <ele>995</ele>
        <time>2018-05-11T19:50:45Z</time>
      </trkpt>
      <trkpt lat="46.02731" lon="7.15032">
        <ele>996</ele>
        <time>2018-05-11T19:51:45Z</time>
      </trkpt>
      <trkpt lat="46.02717" lon="7.15035">
        <ele>996</ele>
        <time>2018-05-11T19:52:45Z</time>
      </trkpt>
      <trkpt lat="46.02704" lon="7.15034">
        <ele>997</ele>
        <time>2018-05-11T19:53:45Z</time>
      </trkpt>
      <trkpt lat="46.02695" lon="7.15033">
        <ele>997</ele>
        <time>2018-05-11T19:54:45Z</time>
      </trkpt>
      <trkpt lat="46.02665" lon="7.15028">
        <ele>999</ele>
        <time>2018-05-11T19:55:45Z</time>
      </trkpt>
      <trkpt lat="46.02648" lon="7.15026">
        <ele>999</ele>
        <time>2018-05-11T19:56:45Z</time>
      </trkpt>
      <trkpt lat="46.02625" lon="7.15028">
        <ele>1000</ele>
        <time>2018-05-11T19:57:45Z</time>
      </trkpt>
      <trkpt lat="46.02599" lon="7.15034">
        <ele>1001</ele>
        <time>2018-05-11T19:58:45Z</time>
      </trkpt>
      <trkpt lat="46.02578" lon="7.15041">
        <ele>1004</ele>
        <time>2018-05-11T19:59:45Z</time>
      </trkpt>
      <trkpt lat="46.02543" lon="7.15054">
        <ele>1005</ele>
        <time>2018-05-11T20:00:45Z</time>
      </trkpt>
      <trkpt lat="46.02519" lon="7.1506">
        <ele>1006</ele>
        <time>2018-05-11T20:01:45Z</time>
      </trkpt>
      <trkpt lat="46.02501" lon="7.15063">
        <ele>1007</ele>
        <time>2018-05-11T20:02:45Z</time>
      </trkpt>
      <trkpt lat="46.02485" lon="7.15066">
        <ele>1007</ele>
        <time>2018-05-11T20:03:45Z</time>
      </trkpt>
      <trkpt lat="46.02462" lon="7.15067">
        <ele>1007</ele>
        <time>2018-05-11T20:04:45Z</time>
      </trkpt>
      <trkpt lat="46.02417" lon="7.15068">
        <ele>1010</ele>
        <time>2018-05-11T20:05:45Z</time>
      </trkpt>
      <trkpt lat="46.02386" lon="7.15072">
        <ele>1008</ele>
        <time>2018-05-11T20:06:45Z</time>
      </trkpt>
      <trkpt lat="46.02372" lon="7.15076">
        <ele>1008</ele>
        <time>2018-05-11T20:07:45Z</time>
      </trkpt>
      <trkpt lat="46.0235" lon="7.15084">
        <ele>1017</ele>
        <time>2018-05-11T20:08:45Z</time>
      </trkpt>
      <trkpt lat="46.02316" lon="7.15105">
        <ele>1019</ele>
        <time>2018-05-11T20:09:45Z</time>
      </trkpt>
      <trkpt lat="46.02301" lon="7.15116">
        <ele>1020</ele>
        <time>2018-05-11T20:10:45Z</time>
      </trkpt>
      <trkpt lat="46.0228" lon="7.15135">
        <ele>1022</ele>
        <time>2018-05-11T20:11:45Z</time>
      </trkpt>
      <trkpt lat="46.02268" lon="7.15149">
        <ele>1024</ele>
        <time>2018-05-11T20:12:45Z</time>
      </trkpt>
      <trkpt lat="46.0225" lon="7.15167">
        <ele>1031</ele>
        <time>2018-05-11T20:13:45Z</time>
      </trkpt>
      <trkpt lat="46.02233" lon="7.15181">
        <ele>1035</ele>
        <time>2018-05-11T20:14:45Z</time>
      </trkpt>
      <trkpt lat="46.02218" lon="7.15192">
        <ele>1037</ele>
        <time>2018-05-11T20:15:45Z</time>
      </trkpt>
      <trkpt lat="46.022" lon="7.15202">
        <ele>1037</ele>
        <time>2018-05-11T20:16:45Z</time>
      </trkpt>
      <trkpt lat="46.02172" lon="7.15216">
        <ele>1039</ele>
        <time>2018-05-11T20:17:45Z</time>
      </trkpt>
      <trkpt lat="46.02146" lon="7.15233">
        <ele>1034</ele>
        <time>2018-05-11T20:18:45Z</time>
      </trkpt>
      <trkpt lat="46.02133" lon="7.15245">
        <ele>1033</ele>
        <time>2018-05-11T20:19:45Z</time>
      </trkpt>
      <trkpt lat="46.02097" lon="7.15285">
        <ele>1046</ele>
        <time>2018-05-11T20:20:45Z</time>
      </trkpt>
      <trkpt lat="46.0208" lon="7.15306">
        <ele>1036</ele>
        <time>2018-05-11T20:21:45Z</time>
      </trkpt>
      <trkpt lat="46.02066" lon="7.15331">
        <ele>1040</ele>
        <time>2018-05-11T20:22:45Z</time>
      </trkpt>
      <trkpt lat="46.02043" lon="7.15384">
        <ele>1049</ele>
        <time>2018-05-11T20:23:45Z</time>
      </trkpt>
      <trkpt lat="46.0203" lon="7.15406">
        <ele>1049</ele>
        <time>2018-05-11T20:24:45Z</time>
      </trkpt>
      <trkpt lat="46.02015" lon="7.15428">
        <ele>1058</ele>
        <time>2018-05-11T20:25:45Z</time>
      </trkpt>
      <trkpt lat="46.02004" lon="7.15445">
        <ele>1062</ele>
        <time>2018-05-11T20:26:45Z</time>
      </trkpt>
      <trkpt lat="46.01996" lon="7.15466">
        <ele>1046</ele>
        <time>2018-05-11T20:27:45Z</time>
      </trkpt>
      <trkpt lat="46.01989" lon="7.15487">
        <ele>1052</ele>
        <time>2018-05-11T20:28:45Z</time>
      </trkpt>
      <trkpt lat="46.0198" lon="7.1551">
        <ele>1064</ele>
        <time>2018-05-11T20:29:45Z</time>
      </trkpt>
      <trkpt lat="46.0197" lon="7.15536">
        <ele>1066</ele>
        <time>2018-05-11T20:30:45Z</time>
      </trkpt>
      <trkpt lat="46.01959" lon="7.15556">
        <ele>1067</ele>
        <time>2018-05-11T20:31:45Z</time>
      </trkpt>
      <trkpt lat="46.01949" lon="7.15575">
        <ele>1067</ele>
        <time>2018-05-11T20:32:45Z</time>
      </trkpt>
      <trkpt lat="46.01933" lon="7.15597">
        <ele>1081</ele>
        <time>2018-05-11T20:33:45Z</time>
      </trkpt>
      <trkpt lat="46.0191" lon="7.15626">
        <ele>1066</ele>
        <time>2018-05-11T20:34:45Z</time>
      </trkpt>
      <trkpt lat="46.01898" lon="7.15639">
        <ele>1068</ele>
        <time>2018-05-11T20:35:45Z</time>
      </trkpt>
      <trkpt lat="46.01884" lon="7.15659">
        <ele>1068</ele>
        <time>2018-05-11T20:36:45Z</time>
      </trkpt>
      <trkpt lat="46.01882" lon="7.15663">
        <ele>1067</ele>
        <time>2018-05-11T20:37:45Z</time>
      </trkpt>
      <trkpt lat="46.0188" lon="7.15667">
        <ele>1081</ele>
        <time>2018-05-11T20:38:45Z</time>
      </trkpt>
      <trkpt lat="46.01871" lon="7.15689">
        <ele>1080</ele>
        <time>2018-05-11T20:39:45Z</time>
      </trkpt>
      <trkpt lat="46.01865" lon="7.15711">
        <ele>1080</ele>
        <time>2018-05-11T20:40:45Z</time>
      </trkpt>
      <trkpt lat="46.01859" lon="7.15728">
        <ele>1079</ele>
        <time>2018-05-11T20:41:45Z</time>
      </trkpt>
      <trkpt lat="46.01853" lon="7.15747">
        <ele>1076</ele>
        <time>2018-05-11T20:42:45Z</time>
      </trkpt>
      <trkpt lat="46.01847" lon="7.15772">
        <ele>1088</ele>
        <time>2018-05-11T20:43:45Z</time>
      </trkpt>
      <trkpt lat="46.01841" lon="7.15794">
        <ele>1093</ele>
        <time>2018-05-11T20:44:45Z</time>
      </trkpt>
      <trkpt lat="46.01836" lon="7.15815">
        <ele>1093</ele>
        <time>2018-05-11T20:45:45Z</time>
      </trkpt>
      <trkpt lat="46.01831" lon="7.15836">
        <ele>1085</ele>
        <time>2018-05-11T20:46:45Z</time>
      </trkpt>
      <trkpt lat="46.01825" lon="7.15862">
        <ele>1086</ele>
        <time>2018-05-11T20:47:45Z</time>
      </trkpt>
      <trkpt lat="46.01824" lon="7.1587">
        <ele>1087</ele>
        <time>2018-05-11T20:48:45Z</time>
      </trkpt>
      <trkpt lat="46.01817" lon="7.15899">
        <ele>1093</ele>
        <time>2018-05-11T20:49:45Z</time>
      </trkpt>
      <trkpt lat="46.01816" lon="7.15901">
        <ele>1094</ele>
        <time>2018-05-11T20:50:45Z</time>
      </trkpt>
      <trkpt lat="46.01811" lon="7.15923">
        <ele>1105</ele>
        <time>2018-05-11T20:51:45Z</time>
      </trkpt>
      <trkpt lat="46.0181" lon="7.15926">
        <ele>1105</ele>
        <time>2018-05-11T20:52:45Z</time>
      </trkpt>
      <trkpt lat="46.01808" lon="7.15929">
        <ele>1105</ele>
        <time>2018-05-11T20:53:45Z</time>
      </trkpt>
      <trkpt lat="46.01804" lon="7.15936">
        <ele>1104</ele>
        <time>2018-05-11T20:54:45Z</time>
      </trkpt>
      <trkpt lat="46.01802" lon="7.15938">
        <ele>1104</ele>
        <time>2018-05-11T20:55:45Z</time>
      </trkpt>
      <trkpt lat="46.01799" lon="7.15942">
        <ele>1103</ele>
        <time>2018-05-11T20:56:45Z</time>
      </trkpt>
      <trkpt lat="46.01782" lon="7.15964">
        <ele>1102</ele>
        <time>2018-05-11T20:57:45Z</time>
      </trkpt>
      <trkpt lat="46.01776" lon="7.15973">
        <ele>1102</ele>
        <time>2018-05-11T20:58:45Z</time>
      </trkpt>
      <trkpt lat="46.01771" lon="7.15984">
        <ele>1101</ele>
        <time>2018-05-11T20:59:45Z</time>
      </trkpt>
      <trkpt lat="46.01765" lon="7.16003">
        <ele>1108</ele>
        <time>2018-05-11T21:00:45Z</time>
      </trkpt>
      <trkpt lat="46.01762" lon="7.16021">
        <ele>1112</ele>
        <time>2018-05-11T21:01:45Z</time>
      </trkpt>
      <trkpt lat="46.01758" lon="7.16035">
        <ele>1115</ele>
        <time>2018-05-11T21:02:45Z</time>
      </trkpt>
      <trkpt lat="46.01754" lon="7.16047">
        <ele>1117</ele>
        <time>2018-05-11T21:03:45Z</time>
      </trkpt>
      <trkpt lat="46.01739" lon="7.16076">
        <ele>1111</ele>
        <time>2018-05-11T21:04:45Z</time>
      </trkpt>
      <trkpt lat="46.01731" lon="7.16098">
        <ele>1116</ele>
        <time>2018-05-11T21:05:45Z</time>
      </trkpt>
      <trkpt lat="46.01729" lon="7.16107">
        <ele>1116</ele>
        <time>2018-05-11T21:06:45Z</time>
      </trkpt>
      <trkpt lat="46.01729" lon="7.16119">
        <ele>1117</ele>
        <time>2018-05-11T21:07:45Z</time>
      </trkpt>
      <trkpt lat="46.0173" lon="7.16156">
        <ele>1120</ele>
        <time>2018-05-11T21:08:45Z</time>
      </trkpt>
      <trkpt lat="46.01729" lon="7.16163">
        <ele>1120</ele>
        <time>2018-05-11T21:09:45Z</time>
      </trkpt>
      <trkpt lat="46.01727" lon="7.16167">
        <ele>1125</ele>
        <time>2018-05-11T21:10:45Z</time>
      </trkpt>
      <trkpt lat="46.01725" lon="7.16169">
        <ele>1125</ele>
        <time>2018-05-11T21:11:45Z</time>
      </trkpt>
      <trkpt lat="46.01722" lon="7.16172">
        <ele>1126</ele>
        <time>2018-05-11T21:12:45Z</time>
      </trkpt>
      <trkpt lat="46.01719" lon="7.16174">
        <ele>1126</ele>
        <time>2018-05-11T21:13:45Z</time>
      </trkpt>
      <trkpt lat="46.01717" lon="7.16175">
        <ele>1126</ele>
        <time>2018-05-11T21:14:45Z</time>
      </trkpt>
      <trkpt lat="46.01713" lon="7.16175">
        <ele>1125</ele>
        <time>2018-05-11T21:15:45Z</time>
      </trkpt>
      <trkpt lat="46.01709" lon="7.16174">
        <ele>1125</ele>
        <time>2018-05-11T21:16:45Z</time>
      </trkpt>
      <trkpt lat="46.01705" lon="7.16172">
        <ele>1125</ele>
        <time>2018-05-11T21:17:45Z</time>
      </trkpt>
      <trkpt lat="46.01699" lon="7.16166">
        <ele>1118</ele>
        <time>2018-05-11T21:18:45Z</time>
      </trkpt>
      <trkpt lat="46.01694" lon="7.16159">
        <ele>1118</ele>
        <time>2018-05-11T21:19:45Z</time>
      </trkpt>
      <trkpt lat="46.01666" lon="7.16113">
        <ele>1110</ele>
        <time>2018-05-11T21:20:45Z</time>
      </trkpt>
      <trkpt lat="46.01662" lon="7.16108">
        <ele>1109</ele>
        <time>2018-05-11T21:21:45Z</time>
      </trkpt>
      <trkpt lat="46.01657" lon="7.16104">
        <ele>1109</ele>
        <time>2018-05-11T21:22:45Z</time>
      </trkpt>
      <trkpt lat="46.01654" lon="7.16103">
        <ele>1109</ele>
        <time>2018-05-11T21:23:45Z</time>
      </trkpt>
      <trkpt lat="46.01649" lon="7.16102">
        <ele>1109</ele>
        <time>2018-05-11T21:24:45Z</time>
      </trkpt>
      <trkpt lat="46.01644" lon="7.16102">
        <ele>1109</ele>
        <time>2018-05-11T21:25:45Z</time>
      </trkpt>
      <trkpt lat="46.01639" lon="7.16102">
        <ele>1108</ele>
        <time>2018-05-11T21:26:45Z</time>
      </trkpt>
      <trkpt lat="46.01634" lon="7.16104">
        <ele>1108</ele>
        <time>2018-05-11T21:27:45Z</time>
      </trkpt>
      <trkpt lat="46.0163" lon="7.16108">
        <ele>1108</ele>
        <time>2018-05-11T21:28:45Z</time>
      </trkpt>
      <trkpt lat="46.01626" lon="7.16114">
        <ele>1108</ele>
        <time>2018-05-11T21:29:45Z</time>
      </trkpt>
      <trkpt lat="46.01622" lon="7.16123">
        <ele>1108</ele>
        <time>2018-05-11T21:30:45Z</time>
      </trkpt>
      <trkpt lat="46.01619" lon="7.16137">
        <ele>1109</ele>
        <time>2018-05-11T21:31:45Z</time>
      </trkpt>
      <trkpt lat="46.01615" lon="7.16169">
        <ele>1116</ele>
        <time>2018-05-11T21:32:45Z</time>
      </trkpt>
      <trkpt lat="46.01612" lon="7.16193">
        <ele>1117</ele>
        <time>2018-05-11T21:33:45Z</time>
      </trkpt>
      <trkpt lat="46.01612" lon="7.16196">
        <ele>1117</ele>
        <time>2018-05-11T21:34:45Z</time>
      </trkpt>
      <trkpt lat="46.01609" lon="7.16221">
        <ele>1118</ele>
        <time>2018-05-11T21:35:45Z</time>
      </trkpt>
      <trkpt lat="46.01604" lon="7.16254">
        <ele>1125</ele>
        <time>2018-05-11T21:36:45Z</time>
      </trkpt>
      <trkpt lat="46.01594" lon="7.16283">
        <ele>1129</ele>
        <time>2018-05-11T21:37:45Z</time>
      </trkpt>
      <trkpt lat="46.01579" lon="7.16318">
        <ele>1120</ele>
        <time>2018-05-11T21:38:45Z</time>
      </trkpt>
      <trkpt lat="46.01565" lon="7.16343">
        <ele>1127</ele>
        <time>2018-05-11T21:39:45Z</time>
      </trkpt>
      <trkpt lat="46.01539" lon="7.1638">
        <ele>1125</ele>
        <time>2018-05-11T21:40:45Z</time>
      </trkpt>
      <trkpt lat="46.01511" lon="7.1642">
        <ele>1129</ele>
        <time>2018-05-11T21:41:45Z</time>
      </trkpt>
      <trkpt lat="46.01491" lon="7.16454">
        <ele>1124</ele>
        <time>2018-05-11T21:42:45Z</time>
      </trkpt>
      <trkpt lat="46.0147" lon="7.16477">
        <ele>1127</ele>
        <time>2018-05-11T21:43:45Z</time>
      </trkpt>
      <trkpt lat="46.01447" lon="7.16498">
        <ele>1125</ele>
        <time>2018-05-11T21:44:45Z</time>
      </trkpt>
      <trkpt lat="46.01415" lon="7.16522">
        <ele>1130</ele>
        <time>2018-05-11T21:45:45Z</time>
      </trkpt>
      <trkpt lat="46.01376" lon="7.16545">
        <ele>1133</ele>
        <time>2018-05-11T21:46:45Z</time>
      </trkpt>
      <trkpt lat="46.01354" lon="7.16555">
        <ele>1134</ele>
        <time>2018-05-11T21:47:45Z</time>
      </trkpt>
      <trkpt lat="46.01344" lon="7.16559">
        <ele>1135</ele>
        <time>2018-05-11T21:48:45Z</time>
      </trkpt>
      <trkpt lat="46.01334" lon="7.16564">
        <ele>1136</ele>
        <time>2018-05-11T21:49:45Z</time>
      </trkpt>
      <trkpt lat="46.0131" lon="7.16578">
        <ele>1126</ele>
        <time>2018-05-11T21:50:45Z</time>
      </trkpt>
      <trkpt lat="46.01298" lon="7.16588">
        <ele>1138</ele>
        <time>2018-05-11T21:51:45Z</time>
      </trkpt>
      <trkpt lat="46.01291" lon="7.16596">
        <ele>1138</ele>
        <time>2018-05-11T21:52:45Z</time>
      </trkpt>
      <trkpt lat="46.01286" lon="7.16604">
        <ele>1138</ele>
        <time>2018-05-11T21:53:45Z</time>
      </trkpt>
      <trkpt lat="46.0128" lon="7.16614">
        <ele>1138</ele>
        <time>2018-05-11T21:54:45Z</time>
      </trkpt>
      <trkpt lat="46.01273" lon="7.16632">
        <ele>1140</ele>
        <time>2018-05-11T21:55:45Z</time>
      </trkpt>
      <trkpt lat="46.01263" lon="7.16663">
        <ele>1141</ele>
        <time>2018-05-11T21:56:45Z</time>
      </trkpt>
      <trkpt lat="46.01255" lon="7.16687">
        <ele>1153</ele>
        <time>2018-05-11T21:57:45Z</time>
      </trkpt>
      <trkpt lat="46.01254" lon="7.16689">
        <ele>1153</ele>
        <time>2018-05-11T21:58:45Z</time>
      </trkpt>
      <trkpt lat="46.01246" lon="7.16714">
        <ele>1143</ele>
        <time>2018-05-11T21:59:45Z</time>
      </trkpt>
      <trkpt lat="46.01241" lon="7.16723">
        <ele>1145</ele>
        <time>2018-05-11T22:00:45Z</time>
      </trkpt>
      <trkpt lat="46.01236" lon="7.16731">
        <ele>1146</ele>
        <time>2018-05-11T22:01:45Z</time>
      </trkpt>
      <trkpt lat="46.01215" lon="7.16761">
        <ele>1159</ele>
        <time>2018-05-11T22:02:45Z</time>
      </trkpt>
      <trkpt lat="46.01211" lon="7.16767">
        <ele>1159</ele>
        <time>2018-05-11T22:03:45Z</time>
      </trkpt>
      <trkpt lat="46.01206" lon="7.16773">
        <ele>1159</ele>
        <time>2018-05-11T22:04:45Z</time>
      </trkpt>
      <trkpt lat="46.01201" lon="7.16779">
        <ele>1159</ele>
        <time>2018-05-11T22:05:45Z</time>
      </trkpt>
      <trkpt lat="46.01195" lon="7.16785">
        <ele>1159</ele>
        <time>2018-05-11T22:06:45Z</time>
      </trkpt>
      <trkpt lat="46.01189" lon="7.1679">
        <ele>1159</ele>
        <time>2018-05-11T22:07:45Z</time>
      </trkpt>
      <trkpt lat="46.01175" lon="7.16799">
        <ele>1160</ele>
        <time>2018-05-11T22:08:45Z</time>
      </trkpt>
      <trkpt lat="46.01164" lon="7.16808">
        <ele>1155</ele>
        <time>2018-05-11T22:09:45Z</time>
      </trkpt>
      <trkpt lat="46.01109" lon="7.16835">
        <ele>1164</ele>
        <time>2018-05-11T22:10:45Z</time>
      </trkpt>
      <trkpt lat="46.0107" lon="7.16851">
        <ele>1161</ele>
        <time>2018-05-11T22:11:45Z</time>
      </trkpt>
      <trkpt lat="46.01049" lon="7.1686">
        <ele>1163</ele>
        <time>2018-05-11T22:12:45Z</time>
      </trkpt>
      <trkpt lat="46.01028" lon="7.16868">
        <ele>1164</ele>
        <time>2018-05-11T22:13:45Z</time>
      </trkpt>
      <trkpt lat="46.00989" lon="7.16881">
        <ele>1163</ele>
        <time>2018-05-11T22:14:45Z</time>
      </trkpt>
      <trkpt lat="46.00982" lon="7.16885">
        <ele>1163</ele>
        <time>2018-05-11T22:15:45Z</time>
      </trkpt>
      <trkpt lat="46.00972" lon="7.16891">
        <ele>1164</ele>
        <time>2018-05-11T22:16:45Z</time>
      </trkpt>
      <trkpt lat="46.00958" lon="7.16899">
        <ele>1164</ele>
        <time>2018-05-11T22:17:45Z</time>
      </trkpt>
      <trkpt lat="46.00945" lon="7.16908">
        <ele>1164</ele>
        <time>2018-05-11T22:18:45Z</time>
      </trkpt>
      <trkpt lat="46.0093" lon="7.16921">
        <ele>1170</ele>
        <time>2018-05-11T22:19:45Z</time>
      </trkpt>
      <trkpt lat="46.00919" lon="7.16928">
        <ele>1170</ele>
        <time>2018-05-11T22:20:45Z</time>
      </trkpt>
      <trkpt lat="46.00909" lon="7.16935">
        <ele>1170</ele>
        <time>2018-05-11T22:21:45Z</time>
      </trkpt>
      <trkpt lat="46.00902" lon="7.1694">
        <ele>1171</ele>
        <time>2018-05-11T22:22:45Z</time>
      </trkpt>
      <trkpt lat="46.00891" lon="7.16943">
        <ele>1171</ele>
        <time>2018-05-11T22:23:45Z</time>
      </trkpt>
      <trkpt lat="46.00881" lon="7.16946">
        <ele>1172</ele>
        <time>2018-05-11T22:24:45Z</time>
      </trkpt>
      <trkpt lat="46.00865" lon="7.16946">
        <ele>1172</ele>
        <time>2018-05-11T22:25:45Z</time>
      </trkpt>
      <trkpt lat="46.00846" lon="7.16943">
        <ele>1172</ele>
        <time>2018-05-11T22:26:45Z</time>
      </trkpt>
      <trkpt lat="46.00831" lon="7.1694">
        <ele>1179</ele>
        <time>2018-05-11T22:27:45Z</time>
      </trkpt>
      <trkpt lat="46.00818" lon="7.16938">
        <ele>1180</ele>
        <time>2018-05-11T22:28:45Z</time>
      </trkpt>
      <trkpt lat="46.00811" lon="7.16938">
        <ele>1182</ele>
        <time>2018-05-11T22:29:45Z</time>
      </trkpt>
      <trkpt lat="46.00805" lon="7.16939">
        <ele>1183</ele>
        <time>2018-05-11T22:30:45Z</time>
      </trkpt>
      <trkpt lat="46.008" lon="7.16941">
        <ele>1184</ele>
        <time>2018-05-11T22:31:45Z</time>
      </trkpt>
      <trkpt lat="46.00795" lon="7.16945">
        <ele>1186</ele>
        <time>2018-05-11T22:32:45Z</time>
      </trkpt>
      <trkpt lat="46.00792" lon="7.16949">
        <ele>1186</ele>
        <time>2018-05-11T22:33:45Z</time>
      </trkpt>
      <trkpt lat="46.00792" lon="7.16949">
        <ele>1186</ele>
        <time>2018-05-11T22:34:45Z</time>
      </trkpt>
      <trkpt lat="46.00791" lon="7.16962">
        <ele>1188</ele>
        <time>2018-05-11T22:35:45Z</time>
      </trkpt>
      <trkpt lat="46.0079" lon="7.16967">
        <ele>1188</ele>
        <time>2018-05-11T22:36:45Z</time>
      </trkpt>
      <trkpt lat="46.00791" lon="7.16971">
        <ele>1188</ele>
        <time>2018-05-11T22:37:45Z</time>
      </trkpt>
      <trkpt lat="46.00793" lon="7.16974">
        <ele>1188</ele>
        <time>2018-05-11T22:38:45Z</time>
      </trkpt>
      <trkpt lat="46.00795" lon="7.16979">
        <ele>1188</ele>
        <time>2018-05-11T22:39:45Z</time>
      </trkpt>
      <trkpt lat="46.00798" lon="7.16982">
        <ele>1188</ele>
        <time>2018-05-11T22:40:45Z</time>
      </trkpt>
      <trkpt lat="46.00802" lon="7.16986">
        <ele>1187</ele>
        <time>2018-05-11T22:41:45Z</time>
      </trkpt>
      <trkpt lat="46.00807" lon="7.16989">
        <ele>1186</ele>
        <time>2018-05-11T22:42:45Z</time>
      </trkpt>
      <trkpt lat="46.00826" lon="7.16991">
        <ele>1182</ele>
        <time>2018-05-11T22:43:45Z</time>
      </trkpt>
      <trkpt lat="46.00843" lon="7.16994">
        <ele>1177</ele>
        <time>2018-05-11T22:44:45Z</time>
      </trkpt>
      <trkpt lat="46.00847" lon="7.16995">
        <ele>1176</ele>
        <time>2018-05-11T22:45:45Z</time>
      </trkpt>
      <trkpt lat="46.00851" lon="7.16996">
        <ele>1176</ele>
        <time>2018-05-11T22:46:45Z</time>
      </trkpt>
      <trkpt lat="46.00861" lon="7.16999">
        <ele>1175</ele>
        <time>2018-05-11T22:47:45Z</time>
      </trkpt>
      <trkpt lat="46.00875" lon="7.17006">
        <ele>1185</ele>
        <time>2018-05-11T22:48:45Z</time>
      </trkpt>
      <trkpt lat="46.00899" lon="7.17019">
        <ele>1185</ele>
        <time>2018-05-11T22:49:45Z</time>
      </trkpt>
      <trkpt lat="46.00918" lon="7.17026">
        <ele>1189</ele>
        <time>2018-05-11T22:50:45Z</time>
      </trkpt>
      <trkpt lat="46.00928" lon="7.17028">
        <ele>1190</ele>
        <time>2018-05-11T22:51:45Z</time>
      </trkpt>
      <trkpt lat="46.00937" lon="7.17028">
        <ele>1191</ele>
        <time>2018-05-11T22:52:45Z</time>
      </trkpt>
      <trkpt lat="46.00944" lon="7.17027">
        <ele>1192</ele>
        <time>2018-05-11T22:53:45Z</time>
      </trkpt>
      <trkpt lat="46.00949" lon="7.17026">
        <ele>1192</ele>
        <time>2018-05-11T22:54:45Z</time>
      </trkpt>
      <trkpt lat="46.00955" lon="7.17024">
        <ele>1192</ele>
        <time>2018-05-11T22:55:45Z</time>
      </trkpt>
      <trkpt lat="46.0096" lon="7.17022">
        <ele>1193</ele>
        <time>2018-05-11T22:56:45Z</time>
      </trkpt>
      <trkpt lat="46.00966" lon="7.17019">
        <ele>1193</ele>
        <time>2018-05-11T22:57:45Z</time>
      </trkpt>
      <trkpt lat="46.00971" lon="7.17016">
        <ele>1193</ele>
        <time>2018-05-11T22:58:45Z</time>
      </trkpt>
      <trkpt lat="46.00973" lon="7.17014">
        <ele>1193</ele>
        <time>2018-05-11T22:59:45Z</time>
      </trkpt>
      <trkpt lat="46.00979" lon="7.1701">
        <ele>1193</ele>
        <time>2018-05-11T23:00:45Z</time>
      </trkpt>
      <trkpt lat="46.00985" lon="7.17003">
        <ele>1193</ele>
        <time>2018-05-11T23:01:45Z</time>
      </trkpt>
      <trkpt lat="46.00994" lon="7.16993">
        <ele>1187</ele>
        <time>2018-05-11T23:02:45Z</time>
      </trkpt>
      <trkpt lat="46.01003" lon="7.16979">
        <ele>1189</ele>
        <time>2018-05-11T23:03:45Z</time>
      </trkpt>
      <trkpt lat="46.01014" lon="7.1696">
        <ele>1186</ele>
        <time>2018-05-11T23:04:45Z</time>
      </trkpt>
      <trkpt lat="46.01025" lon="7.16944">
        <ele>1184</ele>
        <time>2018-05-11T23:05:45Z</time>
      </trkpt>
      <trkpt lat="46.01029" lon="7.16942">
        <ele>1184</ele>
        <time>2018-05-11T23:06:45Z</time>
      </trkpt>
      <trkpt lat="46.01032" lon="7.1694">
        <ele>1184</ele>
        <time>2018-05-11T23:07:45Z</time>
      </trkpt>
      <trkpt lat="46.01035" lon="7.1694">
        <ele>1184</ele>
        <time>2018-05-11T23:08:45Z</time>
      </trkpt>
      <trkpt lat="46.01038" lon="7.1694">
        <ele>1184</ele>
        <time>2018-05-11T23:09:45Z</time>
      </trkpt>
      <trkpt lat="46.01042" lon="7.16942">
        <ele>1185</ele>
        <time>2018-05-11T23:10:45Z</time>
      </trkpt>
      <trkpt lat="46.01045" lon="7.16944">
        <ele>1185</ele>
        <time>2018-05-11T23:11:45Z</time>
      </trkpt>
      <trkpt lat="46.01048" lon="7.16947">
        <ele>1186</ele>
        <time>2018-05-11T23:12:45Z</time>
      </trkpt>
      <trkpt lat="46.0105" lon="7.16951">
        <ele>1186</ele>
        <time>2018-05-11T23:13:45Z</time>
      </trkpt>
      <trkpt lat="46.01051" lon="7.16956">
        <ele>1187</ele>
        <time>2018-05-11T23:14:45Z</time>
      </trkpt>
      <trkpt lat="46.01052" lon="7.16962">
        <ele>1188</ele>
        <time>2018-05-11T23:15:45Z</time>
      </trkpt>
      <trkpt lat="46.01052" lon="7.16967">
        <ele>1189</ele>
        <time>2018-05-11T23:16:45Z</time>
      </trkpt>
      <trkpt lat="46.01051" lon="7.16972">
        <ele>1190</ele>
        <time>2018-05-11T23:17:45Z</time>
      </trkpt>
      <trkpt lat="46.01045" lon="7.16984">
        <ele>1191</ele>
        <time>2018-05-11T23:18:45Z</time>
      </trkpt>
      <trkpt lat="46.01021" lon="7.1701">
        <ele>1201</ele>
        <time>2018-05-11T23:19:45Z</time>
      </trkpt>
      <trkpt lat="46.01004" lon="7.17025">
        <ele>1201</ele>
        <time>2018-05-11T23:20:45Z</time>
      </trkpt>
      <trkpt lat="46.00957" lon="7.17061">
        <ele>1196</ele>
        <time>2018-05-11T23:21:45Z</time>
      </trkpt>
      <trkpt lat="46.00945" lon="7.1707">
        <ele>1197</ele>
        <time>2018-05-11T23:22:45Z</time>
      </trkpt>
      <trkpt lat="46.00929" lon="7.17086">
        <ele>1205</ele>
        <time>2018-05-11T23:23:45Z</time>
      </trkpt>
      <trkpt lat="46.0092" lon="7.17096">
        <ele>1206</ele>
        <time>2018-05-11T23:24:45Z</time>
      </trkpt>
      <trkpt lat="46.00901" lon="7.17118">
        <ele>1207</ele>
        <time>2018-05-11T23:25:45Z</time>
      </trkpt>
      <trkpt lat="46.00896" lon="7.17123">
        <ele>1208</ele>
        <time>2018-05-11T23:26:45Z</time>
      </trkpt>
      <trkpt lat="46.00891" lon="7.17128">
        <ele>1208</ele>
        <time>2018-05-11T23:27:45Z</time>
      </trkpt>
      <trkpt lat="46.00881" lon="7.17136">
        <ele>1209</ele>
        <time>2018-05-11T23:28:45Z</time>
      </trkpt>
      <trkpt lat="46.00872" lon="7.17141">
        <ele>1209</ele>
        <time>2018-05-11T23:29:45Z</time>
      </trkpt>
      <trkpt lat="46.00861" lon="7.17145">
        <ele>1210</ele>
        <time>2018-05-11T23:30:45Z</time>
      </trkpt>
      <trkpt lat="46.00851" lon="7.17148">
        <ele>1210</ele>
        <time>2018-05-11T23:31:45Z</time>
      </trkpt>
      <trkpt lat="46.00838" lon="7.1715">
        <ele>1211</ele>
        <time>2018-05-11T23:32:45Z</time>
      </trkpt>
      <trkpt lat="46.0083" lon="7.17149">
        <ele>1213</ele>
        <time>2018-05-11T23:33:45Z</time>
      </trkpt>
      <trkpt lat="46.00822" lon="7.17147">
        <ele>1213</ele>
        <time>2018-05-11T23:34:45Z</time>
      </trkpt>
      <trkpt lat="46.00817" lon="7.17146">
        <ele>1213</ele>
        <time>2018-05-11T23:35:45Z</time>
      </trkpt>
      <trkpt lat="46.00812" lon="7.17143">
        <ele>1213</ele>
        <time>2018-05-11T23:36:45Z</time>
      </trkpt>
      <trkpt lat="46.00807" lon="7.17141">
        <ele>1213</ele>
        <time>2018-05-11T23:37:45Z</time>
      </trkpt>
      <trkpt lat="46.00803" lon="7.17138">
        <ele>1213</ele>
        <time>2018-05-11T23:38:45Z</time>
      </trkpt>
      <trkpt lat="46.00799" lon="7.17136">
        <ele>1213</ele>
        <time>2018-05-11T23:39:45Z</time>
      </trkpt>
      <trkpt lat="46.00794" lon="7.17132">
        <ele>1213</ele>
        <time>2018-05-11T23:40:45Z</time>
      </trkpt>
      <trkpt lat="46.00789" lon="7.17127">
        <ele>1213</ele>
        <time>2018-05-11T23:41:45Z</time>
      </trkpt>
      <trkpt lat="46.00781" lon="7.17117">
        <ele>1213</ele>
        <time>2018-05-11T23:42:45Z</time>
      </trkpt>
      <trkpt lat="46.00776" lon="7.1711">
        <ele>1214</ele>
        <time>2018-05-11T23:43:45Z</time>
      </trkpt>
      <trkpt lat="46.00774" lon="7.17107">
        <ele>1214</ele>
        <time>2018-05-11T23:44:45Z</time>
      </trkpt>
      <trkpt lat="46.00771" lon="7.17102">
        <ele>1214</ele>
        <time>2018-05-11T23:45:45Z</time>
      </trkpt>
      <trkpt lat="46.00767" lon="7.17094">
        <ele>1215</ele>
        <time>2018-05-11T23:46:45Z</time>
      </trkpt>
      <trkpt lat="46.00764" lon="7.17087">
        <ele>1216</ele>
        <time>2018-05-11T23:47:45Z</time>
      </trkpt>
      <trkpt lat="46.00761" lon="7.1708">
        <ele>1212</ele>
        <time>2018-05-11T23:48:45Z</time>
      </trkpt>
      <trkpt lat="46.00757" lon="7.17069">
        <ele>1211</ele>
        <time>2018-05-11T23:49:45Z</time>
      </trkpt>
      <trkpt lat="46.00754" lon="7.1706">
        <ele>1209</ele>
        <time>2018-05-11T23:50:45Z</time>
      </trkpt>
      <trkpt lat="46.00752" lon="7.17057">
        <ele>1208</ele>
        <time>2018-05-11T23:51:45Z</time>
      </trkpt>
      <trkpt lat="46.00749" lon="7.17048">
        <ele>1219</ele>
        <time>2018-05-11T23:52:45Z</time>
      </trkpt>
      <trkpt lat="46.00743" lon="7.17034">
        <ele>1218</ele>
        <time>2018-05-11T23:53:45Z</time>
      </trkpt>
      <trkpt lat="46.00736" lon="7.17022">
        <ele>1217</ele>
        <time>2018-05-11T23:54:45Z</time>
      </trkpt>
      <trkpt lat="46.00729" lon="7.17012">
        <ele>1217</ele>
        <time>2018-05-11T23:55:45Z</time>
      </trkpt>
      <trkpt lat="46.00722" lon="7.17001">
        <ele>1217</ele>
        <time>2018-05-11T23:56:45Z</time>
      </trkpt>
      <trkpt lat="46.00712" lon="7.1699">
        <ele>1210</ele>
        <time>2018-05-11T23:57:45Z</time>
      </trkpt>
      <trkpt lat="46.00701" lon="7.16985">
        <ele>1211</ele>
        <time>2018-05-11T23:58:45Z</time>
      </trkpt>
      <trkpt lat="46.00695" lon="7.16982">
        <ele>1212</ele>
        <time>2018-05-11T23:59:45Z</time>
      </trkpt>
      <trkpt lat="46.00687" lon="7.16979">
        <ele>1213</ele>
        <time>2018-05-12T00:00:45Z</time>
      </trkpt>
      <trkpt lat="46.00676" lon="7.16976">
        <ele>1213</ele>
        <time>2018-05-12T00:01:45Z</time>
      </trkpt>
      <trkpt lat="46.00668" lon="7.16975">
        <ele>1214</ele>
        <time>2018-05-12T00:02:45Z</time>
      </trkpt>
      <trkpt lat="46.00657" lon="7.16975">
        <ele>1215</ele>
        <time>2018-05-12T00:03:45Z</time>
      </trkpt>
      <trkpt lat="46.00653" lon="7.16976">
        <ele>1215</ele>
        <time>2018-05-12T00:04:45Z</time>
      </trkpt>
      <trkpt lat="46.00639" lon="7.16979">
        <ele>1214</ele>
        <time>2018-05-12T00:05:45Z</time>
      </trkpt>
      <trkpt lat="46.00629" lon="7.16982">
        <ele>1214</ele>
        <time>2018-05-12T00:06:45Z</time>
      </trkpt>
      <trkpt lat="46.00622" lon="7.16986">
        <ele>1214</ele>
        <time>2018-05-12T00:07:45Z</time>
      </trkpt>
      <trkpt lat="46.00621" lon="7.16987">
        <ele>1214</ele>
        <time>2018-05-12T00:08:45Z</time>
      </trkpt>
      <trkpt lat="46.00614" lon="7.1699">
        <ele>1215</ele>
        <time>2018-05-12T00:09:45Z</time>
      </trkpt>
      <trkpt lat="46.00604" lon="7.16997">
        <ele>1216</ele>
        <time>2018-05-12T00:10:45Z</time>
      </trkpt>
      <trkpt lat="46.00583" lon="7.17012">
        <ele>1219</ele>
        <time>2018-05-12T00:11:45Z</time>
      </trkpt>
      <trkpt lat="46.00576" lon="7.1702">
        <ele>1219</ele>
        <time>2018-05-12T00:12:45Z</time>
      </trkpt>
      <trkpt lat="46.00569" lon="7.1703">
        <ele>1219</ele>
        <time>2018-05-12T00:13:45Z</time>
      </trkpt>
      <trkpt lat="46.00559" lon="7.17045">
        <ele>1220</ele>
        <time>2018-05-12T00:14:45Z</time>
      </trkpt>
      <trkpt lat="46.00537" lon="7.17085">
        <ele>1235</ele>
        <time>2018-05-12T00:15:45Z</time>
      </trkpt>
      <trkpt lat="46.00521" lon="7.1711">
        <ele>1235</ele>
        <time>2018-05-12T00:16:45Z</time>
      </trkpt>
      <trkpt lat="46.0051" lon="7.17122">
        <ele>1236</ele>
        <time>2018-05-12T00:17:45Z</time>
      </trkpt>
      <trkpt lat="46.00498" lon="7.17135">
        <ele>1229</ele>
        <time>2018-05-12T00:18:45Z</time>
      </trkpt>
      <trkpt lat="46.00461" lon="7.17163">
        <ele>1228</ele>
        <time>2018-05-12T00:19:45Z</time>
      </trkpt>
      <trkpt lat="46.0043" lon="7.17191">
        <ele>1239</ele>
        <time>2018-05-12T00:20:45Z</time>
      </trkpt>
      <trkpt lat="46.00429" lon="7.17193">
        <ele>1239</ele>
        <time>2018-05-12T00:21:45Z</time>
      </trkpt>
      <trkpt lat="46.00418" lon="7.17207">
        <ele>1241</ele>
        <time>2018-05-12T00:22:45Z</time>
      </trkpt>
      <trkpt lat="46.00412" lon="7.17215">
        <ele>1232</ele>
        <time>2018-05-12T00:23:45Z</time>
      </trkpt>
      <trkpt lat="46.00408" lon="7.17221">
        <ele>1233</ele>
        <time>2018-05-12T00:24:45Z</time>
      </trkpt>
      <trkpt lat="46.00403" lon="7.17228">
        <ele>1234</ele>
        <time>2018-05-12T00:25:45Z</time>
      </trkpt>
      <trkpt lat="46.00394" lon="7.17246">
        <ele>1235</ele>
        <time>2018-05-12T00:26:45Z</time>
      </trkpt>
      <trkpt lat="46.00383" lon="7.17267">
        <ele>1244</ele>
        <time>2018-05-12T00:27:45Z</time>
      </trkpt>
      <trkpt lat="46.00368" lon="7.17294">
        <ele>1245</ele>
        <time>2018-05-12T00:28:45Z</time>
      </trkpt>
      <trkpt lat="46.00356" lon="7.17315">
        <ele>1246</ele>
        <time>2018-05-12T00:29:45Z</time>
      </trkpt>
      <trkpt lat="46.00345" lon="7.17334">
        <ele>1253</ele>
        <time>2018-05-12T00:30:45Z</time>
      </trkpt>
      <trkpt lat="46.00334" lon="7.17348">
        <ele>1254</ele>
        <time>2018-05-12T00:31:45Z</time>
      </trkpt>
      <trkpt lat="46.00322" lon="7.17363">
        <ele>1251</ele>
        <time>2018-05-12T00:32:45Z</time>
      </trkpt>
      <trkpt lat="46.00313" lon="7.17371">
        <ele>1251</ele>
        <time>2018-05-12T00:33:45Z</time>
      </trkpt>
      <trkpt lat="46.00305" lon="7.17378">
        <ele>1251</ele>
        <time>2018-05-12T00:34:45Z</time>
      </trkpt>
      <trkpt lat="46.00264" lon="7.17406">
        <ele>1252</ele>
        <time>2018-05-12T00:35:45Z</time>
      </trkpt>
      <trkpt lat="46.00212" lon="7.17445">
        <ele>1260</ele>
        <time>2018-05-12T00:36:45Z</time>
      </trkpt>
      <trkpt lat="46.00182" lon="7.17471">
        <ele>1262</ele>
        <time>2018-05-12T00:37:45Z</time>
      </trkpt>
      <trkpt lat="46.00167" lon="7.17485">
        <ele>1265</ele>
        <time>2018-05-12T00:38:45Z</time>
      </trkpt>
      <trkpt lat="46.00141" lon="7.17505">
        <ele>1270</ele>
        <time>2018-05-12T00:39:45Z</time>
      </trkpt>
      <trkpt lat="46.00099" lon="7.17533">
        <ele>1270</ele>
        <time>2018-05-12T00:40:45Z</time>
      </trkpt>
      <trkpt lat="46.00041" lon="7.17565">
        <ele>1269</ele>
        <time>2018-05-12T00:41:45Z</time>
      </trkpt>
      <trkpt lat="46.00028" lon="7.17572">
        <ele>1269</ele>
        <time>2018-05-12T00:42:45Z</time>
      </trkpt>
      <trkpt lat="45.99993" lon="7.17592">
        <ele>1276</ele>
        <time>2018-05-12T00:43:45Z</time>
      </trkpt>
      <trkpt lat="45.99947" lon="7.17626">
        <ele>1280</ele>
        <time>2018-05-12T00:44:45Z</time>
      </trkpt>
      <trkpt lat="45.99923" lon="7.17645">
        <ele>1283</ele>
        <time>2018-05-12T00:45:45Z</time>
      </trkpt>
      <trkpt lat="45.9987" lon="7.1767">
        <ele>1289</ele>
        <time>2018-05-12T00:46:45Z</time>
      </trkpt>
      <trkpt lat="45.99863" lon="7.17673">
        <ele>1288</ele>
        <time>2018-05-12T00:47:45Z</time>
      </trkpt>
      <trkpt lat="45.99856" lon="7.17677">
        <ele>1287</ele>
        <time>2018-05-12T00:48:45Z</time>
      </trkpt>
      <trkpt lat="45.99849" lon="7.1768">
        <ele>1286</ele>
        <time>2018-05-12T00:49:45Z</time>
      </trkpt>
      <trkpt lat="45.99842" lon="7.17683">
        <ele>1286</ele>
        <time>2018-05-12T00:50:45Z</time>
      </trkpt>
      <trkpt lat="45.99836" lon="7.17687">
        <ele>1286</ele>
        <time>2018-05-12T00:51:45Z</time>
      </trkpt>
      <trkpt lat="45.99831" lon="7.17692">
        <ele>1282</ele>
        <time>2018-05-12T00:52:45Z</time>
      </trkpt>
      <trkpt lat="45.99826" lon="7.17697">
        <ele>1283</ele>
        <time>2018-05-12T00:53:45Z</time>
      </trkpt>
      <trkpt lat="45.99822" lon="7.17703">
        <ele>1283</ele>
        <time>2018-05-12T00:54:45Z</time>
      </trkpt>
      <trkpt lat="45.99818" lon="7.17709">
        <ele>1284</ele>
        <time>2018-05-12T00:55:45Z</time>
      </trkpt>
      <trkpt lat="45.99815" lon="7.17716">
        <ele>1285</ele>
        <time>2018-05-12T00:56:45Z</time>
      </trkpt>
      <trkpt lat="45.99809" lon="7.17731">
        <ele>1287</ele>
        <time>2018-05-12T00:57:45Z</time>
      </trkpt>
      <trkpt lat="45.99803" lon="7.17747">
        <ele>1288</ele>
        <time>2018-05-12T00:58:45Z</time>
      </trkpt>
      <trkpt lat="45.99797" lon="7.17762">
        <ele>1297</ele>
        <time>2018-05-12T00:59:45Z</time>
      </trkpt>
      <trkpt lat="45.99794" lon="7.17769">
        <ele>1297</ele>
        <time>2018-05-12T01:00:45Z</time>
      </trkpt>
      <trkpt lat="45.99788" lon="7.17783">
        <ele>1298</ele>
        <time>2018-05-12T01:01:45Z</time>
      </trkpt>
      <trkpt lat="45.99783" lon="7.17791">
        <ele>1298</ele>
        <time>2018-05-12T01:02:45Z</time>
      </trkpt>
      <trkpt lat="45.9977" lon="7.17814">
        <ele>1300</ele>
        <time>2018-05-12T01:03:45Z</time>
      </trkpt>
      <trkpt lat="45.99755" lon="7.17831">
        <ele>1301</ele>
        <time>2018-05-12T01:04:45Z</time>
      </trkpt>
      <trkpt lat="45.99745" lon="7.17837">
        <ele>1303</ele>
        <time>2018-05-12T01:05:45Z</time>
      </trkpt>
      <trkpt lat="45.99734" lon="7.17842">
        <ele>1304</ele>
        <time>2018-05-12T01:06:45Z</time>
      </trkpt>
      <trkpt lat="45.99729" lon="7.17844">
        <ele>1305</ele>
        <time>2018-05-12T01:07:45Z</time>
      </trkpt>
      <trkpt lat="45.99723" lon="7.17845">
        <ele>1305</ele>
        <time>2018-05-12T01:08:45Z</time>
      </trkpt>
      <trkpt lat="45.99717" lon="7.17846">
        <ele>1305</ele>
        <time>2018-05-12T01:09:45Z</time>
      </trkpt>
      <trkpt lat="45.99711" lon="7.17846">
        <ele>1305</ele>
        <time>2018-05-12T01:10:45Z</time>
      </trkpt>
      <trkpt lat="45.99704" lon="7.17846">
        <ele>1305</ele>
        <time>2018-05-12T01:11:45Z</time>
      </trkpt>
      <trkpt lat="45.99699" lon="7.17845">
        <ele>1305</ele>
        <time>2018-05-12T01:12:45Z</time>
      </trkpt>
      <trkpt lat="45.99693" lon="7.17843">
        <ele>1305</ele>
        <time>2018-05-12T01:13:45Z</time>
      </trkpt>
      <trkpt lat="45.99692" lon="7.17843">
        <ele>1305</ele>
        <time>2018-05-12T01:14:45Z</time>
      </trkpt>
      <trkpt lat="45.99687" lon="7.1784">
        <ele>1304</ele>
        <time>2018-05-12T01:15:45Z</time>
      </trkpt>
      <trkpt lat="45.99681" lon="7.17837">
        <ele>1304</ele>
        <time>2018-05-12T01:16:45Z</time>
      </trkpt>
      <trkpt lat="45.9967" lon="7.17828">
        <ele>1300</ele>
        <time>2018-05-12T01:17:45Z</time>
      </trkpt>
      <trkpt lat="45.99663" lon="7.17821">
        <ele>1298</ele>
        <time>2018-05-12T01:18:45Z</time>
      </trkpt>
      <trkpt lat="45.9966" lon="7.17818">
        <ele>1298</ele>
        <time>2018-05-12T01:19:45Z</time>
      </trkpt>
      <trkpt lat="45.99637" lon="7.1779">
        <ele>1294</ele>
        <time>2018-05-12T01:20:45Z</time>
      </trkpt>
      <trkpt lat="45.99633" lon="7.17784">
        <ele>1294</ele>
        <time>2018-05-12T01:21:45Z</time>
      </trkpt>
      <trkpt lat="45.99629" lon="7.1778">
        <ele>1293</ele>
        <time>2018-05-12T01:22:45Z</time>
      </trkpt>
      <trkpt lat="45.99625" lon="7.17775">
        <ele>1293</ele>
        <time>2018-05-12T01:23:45Z</time>
      </trkpt>
      <trkpt lat="45.99621" lon="7.17772">
        <ele>1293</ele>
        <time>2018-05-12T01:24:45Z</time>
      </trkpt>
      <trkpt lat="45.99617" lon="7.1777">
        <ele>1293</ele>
        <time>2018-05-12T01:25:45Z</time>
      </trkpt>
      <trkpt lat="45.99612" lon="7.17769">
        <ele>1292</ele>
        <time>2018-05-12T01:26:45Z</time>
      </trkpt>
      <trkpt lat="45.99608" lon="7.1777">
        <ele>1292</ele>
        <time>2018-05-12T01:27:45Z</time>
      </trkpt>
      <trkpt lat="45.99604" lon="7.17772">
        <ele>1292</ele>
        <time>2018-05-12T01:28:45Z</time>
      </trkpt>
      <trkpt lat="45.99601" lon="7.17775">
        <ele>1293</ele>
        <time>2018-05-12T01:29:45Z</time>
      </trkpt>
      <trkpt lat="45.99598" lon="7.17779">
        <ele>1293</ele>
        <time>2018-05-12T01:30:45Z</time>
      </trkpt>
      <trkpt lat="45.99595" lon="7.17784">
        <ele>1293</ele>
        <time>2018-05-12T01:31:45Z</time>
      </trkpt>
      <trkpt lat="45.99591" lon="7.17794">
        <ele>1294</ele>
        <time>2018-05-12T01:32:45Z</time>
      </trkpt>
      <trkpt lat="45.99582" lon="7.17821">
        <ele>1297</ele>
        <time>2018-05-12T01:33:45Z</time>
      </trkpt>
      <trkpt lat="45.99573" lon="7.17847">
        <ele>1301</ele>
        <time>2018-05-12T01:34:45Z</time>
      </trkpt>
      <trkpt lat="45.9956" lon="7.17882">
        <ele>1303</ele>
        <time>2018-05-12T01:35:45Z</time>
      </trkpt>
      <trkpt lat="45.99519" lon="7.17995">
        <ele>1306</ele>
        <time>2018-05-12T01:36:45Z</time>
      </trkpt>
      <trkpt lat="45.99505" lon="7.18025">
        <ele>1308</ele>
        <time>2018-05-12T01:37:45Z</time>
      </trkpt>
      <trkpt lat="45.99465" lon="7.1811">
        <ele>1307</ele>
        <time>2018-05-12T01:38:45Z</time>
      </trkpt>
      <trkpt lat="45.99424" lon="7.182">
        <ele>1311</ele>
        <time>2018-05-12T01:39:45Z</time>
      </trkpt>
      <trkpt lat="45.99397" lon="7.18262">
        <ele>1315</ele>
        <time>2018-05-12T01:40:45Z</time>
      </trkpt>
      <trkpt lat="45.99354" lon="7.18354">
        <ele>1321</ele>
        <time>2018-05-12T01:41:45Z</time>
      </trkpt>
      <trkpt lat="45.9935" lon="7.18361">
        <ele>1321</ele>
        <time>2018-05-12T01:42:45Z</time>
      </trkpt>
      <trkpt lat="45.99347" lon="7.18365">
        <ele>1321</ele>
        <time>2018-05-12T01:43:45Z</time>
      </trkpt>
      <trkpt lat="45.99341" lon="7.18372">
        <ele>1322</ele>
        <time>2018-05-12T01:44:45Z</time>
      </trkpt>
      <trkpt lat="45.9933" lon="7.18381">
        <ele>1321</ele>
        <time>2018-05-12T01:45:45Z</time>
      </trkpt>
      <trkpt lat="45.99284" lon="7.18405">
        <ele>1322</ele>
        <time>2018-05-12T01:46:45Z</time>
      </trkpt>
      <trkpt lat="45.99265" lon="7.18417">
        <ele>1325</ele>
        <time>2018-05-12T01:47:45Z</time>
      </trkpt>
      <trkpt lat="45.99244" lon="7.18429">
        <ele>1326</ele>
        <time>2018-05-12T01:48:45Z</time>
      </trkpt>
      <trkpt lat="45.99233" lon="7.18431">
        <ele>1327</ele>
        <time>2018-05-12T01:49:45Z</time>
      </trkpt>
      <trkpt lat="45.99224" lon="7.18432">
        <ele>1328</ele>
        <time>2018-05-12T01:50:45Z</time>
      </trkpt>
      <trkpt lat="45.99219" lon="7.18432">
        <ele>1328</ele>
        <time>2018-05-12T01:51:45Z</time>
      </trkpt>
      <trkpt lat="45.99214" lon="7.18432">
        <ele>1328</ele>
        <time>2018-05-12T01:52:45Z</time>
      </trkpt>
      <trkpt lat="45.99201" lon="7.18427">
        <ele>1329</ele>
        <time>2018-05-12T01:53:45Z</time>
      </trkpt>
      <trkpt lat="45.99198" lon="7.18426">
        <ele>1329</ele>
        <time>2018-05-12T01:54:45Z</time>
      </trkpt>
      <trkpt lat="45.99148" lon="7.18405">
        <ele>1323</ele>
        <time>2018-05-12T01:55:45Z</time>
      </trkpt>
      <trkpt lat="45.9914" lon="7.18402">
        <ele>1323</ele>
        <time>2018-05-12T01:56:45Z</time>
      </trkpt>
      <trkpt lat="45.99135" lon="7.18397">
        <ele>1322</ele>
        <time>2018-05-12T01:57:45Z</time>
      </trkpt>
      <trkpt lat="45.99121" lon="7.18394">
        <ele>1321</ele>
        <time>2018-05-12T01:58:45Z</time>
      </trkpt>
      <trkpt lat="45.99113" lon="7.18393">
        <ele>1321</ele>
        <time>2018-05-12T01:59:45Z</time>
      </trkpt>
      <trkpt lat="45.991" lon="7.18396">
        <ele>1322</ele>
        <time>2018-05-12T02:00:45Z</time>
      </trkpt>
      <trkpt lat="45.99083" lon="7.18411">
        <ele>1324</ele>
        <time>2018-05-12T02:01:45Z</time>
      </trkpt>
      <trkpt lat="45.99071" lon="7.18438">
        <ele>1328</ele>
        <time>2018-05-12T02:02:45Z</time>
      </trkpt>
      <trkpt lat="45.99058" lon="7.18469">
        <ele>1330</ele>
        <time>2018-05-12T02:03:45Z</time>
      </trkpt>
      <trkpt lat="45.99058" lon="7.18476">
        <ele>1331</ele>
        <time>2018-05-12T02:04:45Z</time>
      </trkpt>
      <trkpt lat="45.99038" lon="7.18536">
        <ele>1340</ele>
        <time>2018-05-12T02:05:45Z</time>
      </trkpt>
      <trkpt lat="45.99026" lon="7.18569">
        <ele>1340</ele>
        <time>2018-05-12T02:06:45Z</time>
      </trkpt>
      <trkpt lat="45.99018" lon="7.18588">
        <ele>1345</ele>
        <time>2018-05-12T02:07:45Z</time>
      </trkpt>
      <trkpt lat="45.99011" lon="7.18599">
        <ele>1346</ele>
        <time>2018-05-12T02:08:45Z</time>
      </trkpt>
      <trkpt lat="45.99003" lon="7.18608">
        <ele>1347</ele>
        <time>2018-05-12T02:09:45Z</time>
      </trkpt>
      <trkpt lat="45.98995" lon="7.18614">
        <ele>1345</ele>
        <time>2018-05-12T02:10:45Z</time>
      </trkpt>
      <trkpt lat="45.98945" lon="7.18654">
        <ele>1348</ele>
        <time>2018-05-12T02:11:45Z</time>
      </trkpt>
      <trkpt lat="45.98936" lon="7.18661">
        <ele>1349</ele>
        <time>2018-05-12T02:12:45Z</time>
      </trkpt>
      <trkpt lat="45.98904" lon="7.18684">
        <ele>1354</ele>
        <time>2018-05-12T02:13:45Z</time>
      </trkpt>
      <trkpt lat="45.98871" lon="7.1871">
        <ele>1355</ele>
        <time>2018-05-12T02:14:45Z</time>
      </trkpt>
      <trkpt lat="45.98863" lon="7.18719">
        <ele>1355</ele>
        <time>2018-05-12T02:15:45Z</time>
      </trkpt>
      <trkpt lat="45.98862" lon="7.18721">
        <ele>1356</ele>
        <time>2018-05-12T02:16:45Z</time>
      </trkpt>
      <trkpt lat="45.98839" lon="7.18759">
        <ele>1363</ele>
        <time>2018-05-12T02:17:45Z</time>
      </trkpt>
      <trkpt lat="45.98833" lon="7.18769">
        <ele>1361</ele>
        <time>2018-05-12T02:18:45Z</time>
      </trkpt>
      <trkpt lat="45.98828" lon="7.18776">
        <ele>1362</ele>
        <time>2018-05-12T02:19:45Z</time>
      </trkpt>
      <trkpt lat="45.98824" lon="7.18781">
        <ele>1362</ele>
        <time>2018-05-12T02:20:45Z</time>
      </trkpt>
      <trkpt lat="45.98819" lon="7.18788">
        <ele>1363</ele>
        <time>2018-05-12T02:21:45Z</time>
      </trkpt>
      <trkpt lat="45.98814" lon="7.18793">
        <ele>1364</ele>
        <time>2018-05-12T02:22:45Z</time>
      </trkpt>
      <trkpt lat="45.98809" lon="7.18798">
        <ele>1364</ele>
        <time>2018-05-12T02:23:45Z</time>
      </trkpt>
      <trkpt lat="45.98798" lon="7.18807">
        <ele>1364</ele>
        <time>2018-05-12T02:24:45Z</time>
      </trkpt>
      <trkpt lat="45.98782" lon="7.18821">
        <ele>1364</ele>
        <time>2018-05-12T02:25:45Z</time>
      </trkpt>
      <trkpt lat="45.98734" lon="7.18861">
        <ele>1366</ele>
        <time>2018-05-12T02:26:45Z</time>
      </trkpt>
      <trkpt lat="45.98721" lon="7.18876">
        <ele>1367</ele>
        <time>2018-05-12T02:27:45Z</time>
      </trkpt>
      <trkpt lat="45.98712" lon="7.18887">
        <ele>1367</ele>
        <time>2018-05-12T02:28:45Z</time>
      </trkpt>
      <trkpt lat="45.98701" lon="7.18903">
        <ele>1367</ele>
        <time>2018-05-12T02:29:45Z</time>
      </trkpt>
      <trkpt lat="45.98696" lon="7.1891">
        <ele>1367</ele>
        <time>2018-05-12T02:30:45Z</time>
      </trkpt>
      <trkpt lat="45.98681" lon="7.18935">
        <ele>1377</ele>
        <time>2018-05-12T02:31:45Z</time>
      </trkpt>
      <trkpt lat="45.98674" lon="7.18947">
        <ele>1379</ele>
        <time>2018-05-12T02:32:45Z</time>
      </trkpt>
      <trkpt lat="45.98646" lon="7.18981">
        <ele>1375</ele>
        <time>2018-05-12T02:33:45Z</time>
      </trkpt>
      <trkpt lat="45.98634" lon="7.18994">
        <ele>1375</ele>
        <time>2018-05-12T02:34:45Z</time>
      </trkpt>
      <trkpt lat="45.98614" lon="7.1901">
        <ele>1389</ele>
        <time>2018-05-12T02:35:45Z</time>
      </trkpt>
      <trkpt lat="45.98595" lon="7.19021">
        <ele>1389</ele>
        <time>2018-05-12T02:36:45Z</time>
      </trkpt>
      <trkpt lat="45.98538" lon="7.19057">
        <ele>1385</ele>
        <time>2018-05-12T02:37:45Z</time>
      </trkpt>
      <trkpt lat="45.98499" lon="7.19084">
        <ele>1389</ele>
        <time>2018-05-12T02:38:45Z</time>
      </trkpt>
      <trkpt lat="45.98488" lon="7.19092">
        <ele>1391</ele>
        <time>2018-05-12T02:39:45Z</time>
      </trkpt>
      <trkpt lat="45.98477" lon="7.19101">
        <ele>1393</ele>
        <time>2018-05-12T02:40:45Z</time>
      </trkpt>
      <trkpt lat="45.98467" lon="7.19111">
        <ele>1393</ele>
        <time>2018-05-12T02:41:45Z</time>
      </trkpt>
      <trkpt lat="45.98457" lon="7.19122">
        <ele>1394</ele>
        <time>2018-05-12T02:42:45Z</time>
      </trkpt>
      <trkpt lat="45.98448" lon="7.19135">
        <ele>1395</ele>
        <time>2018-05-12T02:43:45Z</time>
      </trkpt>
      <trkpt lat="45.98438" lon="7.19153">
        <ele>1396</ele>
        <time>2018-05-12T02:44:45Z</time>
      </trkpt>
      <trkpt lat="45.98412" lon="7.19205">
        <ele>1395</ele>
        <time>2018-05-12T02:45:45Z</time>
      </trkpt>
      <trkpt lat="45.98382" lon="7.19265">
        <ele>1410</ele>
        <time>2018-05-12T02:46:45Z</time>
      </trkpt>
      <trkpt lat="45.98347" lon="7.19346">
        <ele>1424</ele>
        <time>2018-05-12T02:47:45Z</time>
      </trkpt>
      <trkpt lat="45.98339" lon="7.19369">
        <ele>1432</ele>
        <time>2018-05-12T02:48:45Z</time>
      </trkpt>
      <trkpt lat="45.9833" lon="7.19388">
        <ele>1414</ele>
        <time>2018-05-12T02:49:45Z</time>
      </trkpt>
      <trkpt lat="45.98317" lon="7.19414">
        <ele>1419</ele>
        <time>2018-05-12T02:50:45Z</time>
      </trkpt>
      <trkpt lat="45.98309" lon="7.19428">
        <ele>1427</ele>
        <time>2018-05-12T02:51:45Z</time>
      </trkpt>
      <trkpt lat="45.98299" lon="7.19445">
        <ele>1426</ele>
        <time>2018-05-12T02:52:45Z</time>
      </trkpt>
      <trkpt lat="45.98279" lon="7.19473">
        <ele>1425</ele>
        <time>2018-05-12T02:53:45Z</time>
      </trkpt>
      <trkpt lat="45.98257" lon="7.195">
        <ele>1425</ele>
        <time>2018-05-12T02:54:45Z</time>
      </trkpt>
      <trkpt lat="45.98248" lon="7.19513">
        <ele>1420</ele>
        <time>2018-05-12T02:55:45Z</time>
      </trkpt>
      <trkpt lat="45.98239" lon="7.19528">
        <ele>1420</ele>
        <time>2018-05-12T02:56:45Z</time>
      </trkpt>
      <trkpt lat="45.9823" lon="7.19542">
        <ele>1421</ele>
        <time>2018-05-12T02:57:45Z</time>
      </trkpt>
      <trkpt lat="45.98218" lon="7.19565">
        <ele>1422</ele>
        <time>2018-05-12T02:58:45Z</time>
      </trkpt>
      <trkpt lat="45.98195" lon="7.19615">
        <ele>1431</ele>
        <time>2018-05-12T02:59:45Z</time>
      </trkpt>
      <trkpt lat="45.98186" lon="7.19633">
        <ele>1432</ele>
        <time>2018-05-12T03:00:45Z</time>
      </trkpt>
      <trkpt lat="45.98177" lon="7.1965">
        <ele>1432</ele>
        <time>2018-05-12T03:01:45Z</time>
      </trkpt>
      <trkpt lat="45.98162" lon="7.1967">
        <ele>1433</ele>
        <time>2018-05-12T03:02:45Z</time>
      </trkpt>
      <trkpt lat="45.98156" lon="7.19677">
        <ele>1434</ele>
        <time>2018-05-12T03:03:45Z</time>
      </trkpt>
      <trkpt lat="45.98149" lon="7.19684">
        <ele>1436</ele>
        <time>2018-05-12T03:04:45Z</time>
      </trkpt>
      <trkpt lat="45.98136" lon="7.19693">
        <ele>1437</ele>
        <time>2018-05-12T03:05:45Z</time>
      </trkpt>
      <trkpt lat="45.98128" lon="7.19698">
        <ele>1437</ele>
        <time>2018-05-12T03:06:45Z</time>
      </trkpt>
      <trkpt lat="45.98118" lon="7.19703">
        <ele>1437</ele>
        <time>2018-05-12T03:07:45Z</time>
      </trkpt>
      <trkpt lat="45.98108" lon="7.19706">
        <ele>1437</ele>
        <time>2018-05-12T03:08:45Z</time>
      </trkpt>
      <trkpt lat="45.98095" lon="7.19709">
        <ele>1437</ele>
        <time>2018-05-12T03:09:45Z</time>
      </trkpt>
      <trkpt lat="45.9806" lon="7.19714">
        <ele>1432</ele>
        <time>2018-05-12T03:10:45Z</time>
      </trkpt>
      <trkpt lat="45.98032" lon="7.19719">
        <ele>1431</ele>
        <time>2018-05-12T03:11:45Z</time>
      </trkpt>
      <trkpt lat="45.98021" lon="7.19722">
        <ele>1432</ele>
        <time>2018-05-12T03:12:45Z</time>
      </trkpt>
      <trkpt lat="45.98011" lon="7.19727">
        <ele>1433</ele>
        <time>2018-05-12T03:13:45Z</time>
      </trkpt>
      <trkpt lat="45.97992" lon="7.19739">
        <ele>1429</ele>
        <time>2018-05-12T03:14:45Z</time>
      </trkpt>
      <trkpt lat="45.97984" lon="7.19746">
        <ele>1427</ele>
        <time>2018-05-12T03:15:45Z</time>
      </trkpt>
      <trkpt lat="45.97968" lon="7.19762">
        <ele>1439</ele>
        <time>2018-05-12T03:16:45Z</time>
      </trkpt>
      <trkpt lat="45.97959" lon="7.19774">
        <ele>1438</ele>
        <time>2018-05-12T03:17:45Z</time>
      </trkpt>
      <trkpt lat="45.97944" lon="7.19798">
        <ele>1439</ele>
        <time>2018-05-12T03:18:45Z</time>
      </trkpt>
      <trkpt lat="45.97926" lon="7.19838">
        <ele>1447</ele>
        <time>2018-05-12T03:19:45Z</time>
      </trkpt>
      <trkpt lat="45.97899" lon="7.19896">
        <ele>1442</ele>
        <time>2018-05-12T03:20:45Z</time>
      </trkpt>
      <trkpt lat="45.97873" lon="7.1994">
        <ele>1462</ele>
        <time>2018-05-12T03:21:45Z</time>
      </trkpt>
      <trkpt lat="45.97839" lon="7.19992">
        <ele>1464</ele>
        <time>2018-05-12T03:22:45Z</time>
      </trkpt>
      <trkpt lat="45.97821" lon="7.20016">
        <ele>1467</ele>
        <time>2018-05-12T03:23:45Z</time>
      </trkpt>
      <trkpt lat="45.97803" lon="7.20037">
        <ele>1470</ele>
        <time>2018-05-12T03:24:45Z</time>
      </trkpt>
      <trkpt lat="45.97778" lon="7.20061">
        <ele>1471</ele>
        <time>2018-05-12T03:25:45Z</time>
      </trkpt>
      <trkpt lat="45.97735" lon="7.20096">
        <ele>1470</ele>
        <time>2018-05-12T03:26:45Z</time>
      </trkpt>
      <trkpt lat="45.97693" lon="7.20139">
        <ele>1471</ele>
        <time>2018-05-12T03:27:45Z</time>
      </trkpt>
      <trkpt lat="45.97647" lon="7.2019">
        <ele>1472</ele>
        <time>2018-05-12T03:28:45Z</time>
      </trkpt>
      <trkpt lat="45.976" lon="7.20236">
        <ele>1471</ele>
        <time>2018-05-12T03:29:45Z</time>
      </trkpt>
      <trkpt lat="45.97582" lon="7.20255">
        <ele>1471</ele>
        <time>2018-05-12T03:30:45Z</time>
      </trkpt>
      <trkpt lat="45.97554" lon="7.20292">
        <ele>1473</ele>
        <time>2018-05-12T03:31:45Z</time>
      </trkpt>
      <trkpt lat="45.97527" lon="7.20332">
        <ele>1473</ele>
        <time>2018-05-12T03:32:45Z</time>
      </trkpt>
      <trkpt lat="45.97517" lon="7.20344">
        <ele>1486</ele>
        <time>2018-05-12T03:33:45Z</time>
      </trkpt>
      <trkpt lat="45.97509" lon="7.20353">
        <ele>1487</ele>
        <time>2018-05-12T03:34:45Z</time>
      </trkpt>
      <trkpt lat="45.975" lon="7.20363">
        <ele>1490</ele>
        <time>2018-05-12T03:35:45Z</time>
      </trkpt>
      <trkpt lat="45.97469" lon="7.2039">
        <ele>1478</ele>
        <time>2018-05-12T03:36:45Z</time>
      </trkpt>
      <trkpt lat="45.97452" lon="7.20406">
        <ele>1478</ele>
        <time>2018-05-12T03:37:45Z</time>
      </trkpt>
      <trkpt lat="45.97448" lon="7.2041">
        <ele>1477</ele>
        <time>2018-05-12T03:38:45Z</time>
      </trkpt>
      <trkpt lat="45.97443" lon="7.20415">
        <ele>1477</ele>
        <time>2018-05-12T03:39:45Z</time>
      </trkpt>
      <trkpt lat="45.97436" lon="7.20424">
        <ele>1489</ele>
        <time>2018-05-12T03:40:45Z</time>
      </trkpt>
      <trkpt lat="45.97432" lon="7.20431">
        <ele>1489</ele>
        <time>2018-05-12T03:41:45Z</time>
      </trkpt>
      <trkpt lat="45.97424" lon="7.20444">
        <ele>1491</ele>
        <time>2018-05-12T03:42:45Z</time>
      </trkpt>
      <trkpt lat="45.97415" lon="7.20462">
        <ele>1480</ele>
        <time>2018-05-12T03:43:45Z</time>
      </trkpt>
      <trkpt lat="45.97406" lon="7.20485">
        <ele>1485</ele>
        <time>2018-05-12T03:44:45Z</time>
      </trkpt>
      <trkpt lat="45.97398" lon="7.20511">
        <ele>1493</ele>
        <time>2018-05-12T03:45:45Z</time>
      </trkpt>
      <trkpt lat="45.97386" lon="7.20557">
        <ele>1494</ele>
        <time>2018-05-12T03:46:45Z</time>
      </trkpt>
      <trkpt lat="45.97384" lon="7.20567">
        <ele>1495</ele>
        <time>2018-05-12T03:47:45Z</time>
      </trkpt>
      <trkpt lat="45.97371" lon="7.20616">
        <ele>1505</ele>
        <time>2018-05-12T03:48:45Z</time>
      </trkpt>
      <trkpt lat="45.97362" lon="7.20648">
        <ele>1506</ele>
        <time>2018-05-12T03:49:45Z</time>
      </trkpt>
      <trkpt lat="45.97353" lon="7.20669">
        <ele>1512</ele>
        <time>2018-05-12T03:50:45Z</time>
      </trkpt>
      <trkpt lat="45.97346" lon="7.20681">
        <ele>1512</ele>
        <time>2018-05-12T03:51:45Z</time>
      </trkpt>
      <trkpt lat="45.97334" lon="7.207">
        <ele>1516</ele>
        <time>2018-05-12T03:52:45Z</time>
      </trkpt>
      <trkpt lat="45.97323" lon="7.20715">
        <ele>1504</ele>
        <time>2018-05-12T03:53:45Z</time>
      </trkpt>
      <trkpt lat="45.97322" lon="7.20717">
        <ele>1504</ele>
        <time>2018-05-12T03:54:45Z</time>
      </trkpt>
      <trkpt lat="45.97308" lon="7.20733">
        <ele>1505</ele>
        <time>2018-05-12T03:55:45Z</time>
      </trkpt>
      <trkpt lat="45.97297" lon="7.20744">
        <ele>1504</ele>
        <time>2018-05-12T03:56:45Z</time>
      </trkpt>
      <trkpt lat="45.97287" lon="7.20753">
        <ele>1517</ele>
        <time>2018-05-12T03:57:45Z</time>
      </trkpt>
      <trkpt lat="45.97272" lon="7.20763">
        <ele>1515</ele>
        <time>2018-05-12T03:58:45Z</time>
      </trkpt>
      <trkpt lat="45.9727" lon="7.20764">
        <ele>1515</ele>
        <time>2018-05-12T03:59:45Z</time>
      </trkpt>
      <trkpt lat="45.97247" lon="7.20777">
        <ele>1510</ele>
        <time>2018-05-12T04:00:45Z</time>
      </trkpt>
      <trkpt lat="45.97234" lon="7.20782">
        <ele>1512</ele>
        <time>2018-05-12T04:01:45Z</time>
      </trkpt>
      <trkpt lat="45.97216" lon="7.20789">
        <ele>1513</ele>
        <time>2018-05-12T04:02:45Z</time>
      </trkpt>
      <trkpt lat="45.97205" lon="7.20794">
        <ele>1513</ele>
        <time>2018-05-12T04:03:45Z</time>
      </trkpt>
      <trkpt lat="45.97194" lon="7.208">
        <ele>1513</ele>
        <time>2018-05-12T04:04:45Z</time>
      </trkpt>
      <trkpt lat="45.97175" lon="7.20812">
        <ele>1515</ele>
        <time>2018-05-12T04:05:45Z</time>
      </trkpt>
      <trkpt lat="45.97128" lon="7.20844">
        <ele>1527</ele>
        <time>2018-05-12T04:06:45Z</time>
      </trkpt>
      <trkpt lat="45.97109" lon="7.20857">
        <ele>1527</ele>
        <time>2018-05-12T04:07:45Z</time>
      </trkpt>
      <trkpt lat="45.97102" lon="7.20862">
        <ele>1527</ele>
        <time>2018-05-12T04:08:45Z</time>
      </trkpt>
      <trkpt lat="45.97089" lon="7.20867">
        <ele>1528</ele>
        <time>2018-05-12T04:09:45Z</time>
      </trkpt>
      <trkpt lat="45.97079" lon="7.20871">
        <ele>1524</ele>
        <time>2018-05-12T04:10:45Z</time>
      </trkpt>
      <trkpt lat="45.9707" lon="7.20874">
        <ele>1525</ele>
        <time>2018-05-12T04:11:45Z</time>
      </trkpt>
      <trkpt lat="45.97042" lon="7.20883">
        <ele>1527</ele>
        <time>2018-05-12T04:12:45Z</time>
      </trkpt>
      <trkpt lat="45.97024" lon="7.20887">
        <ele>1528</ele>
        <time>2018-05-12T04:13:45Z</time>
      </trkpt>
      <trkpt lat="45.96979" lon="7.2089">
        <ele>1533</ele>
        <time>2018-05-12T04:14:45Z</time>
      </trkpt>
      <trkpt lat="45.96951" lon="7.2089">
        <ele>1534</ele>
        <time>2018-05-12T04:15:45Z</time>
      </trkpt>
      <trkpt lat="45.96936" lon="7.2089">
        <ele>1535</ele>
        <time>2018-05-12T04:16:45Z</time>
      </trkpt>
      <trkpt lat="45.96883" lon="7.20885">
        <ele>1540</ele>
        <time>2018-05-12T04:17:45Z</time>
      </trkpt>
      <trkpt lat="45.96837" lon="7.20883">
        <ele>1541</ele>
        <time>2018-05-12T04:18:45Z</time>
      </trkpt>
      <trkpt lat="45.96803" lon="7.20885">
        <ele>1544</ele>
        <time>2018-05-12T04:19:45Z</time>
      </trkpt>
      <trkpt lat="45.96756" lon="7.20895">
        <ele>1547</ele>
        <time>2018-05-12T04:20:45Z</time>
      </trkpt>
      <trkpt lat="45.96698" lon="7.2092">
        <ele>1559</ele>
        <time>2018-05-12T04:21:45Z</time>
      </trkpt>
      <trkpt lat="45.96647" lon="7.20946">
        <ele>1559</ele>
        <time>2018-05-12T04:22:45Z</time>
      </trkpt>
      <trkpt lat="45.96635" lon="7.2095">
        <ele>1559</ele>
        <time>2018-05-12T04:23:45Z</time>
      </trkpt>
      <trkpt lat="45.96617" lon="7.20955">
        <ele>1559</ele>
        <time>2018-05-12T04:24:45Z</time>
      </trkpt>
      <trkpt lat="45.96597" lon="7.20958">
        <ele>1559</ele>
        <time>2018-05-12T04:25:45Z</time>
      </trkpt>
      <trkpt lat="45.96562" lon="7.20962">
        <ele>1561</ele>
        <time>2018-05-12T04:26:45Z</time>
      </trkpt>
      <trkpt lat="45.96528" lon="7.20962">
        <ele>1562</ele>
        <time>2018-05-12T04:27:45Z</time>
      </trkpt>
      <trkpt lat="45.96471" lon="7.20953">
        <ele>1566</ele>
        <time>2018-05-12T04:28:45Z</time>
      </trkpt>
      <trkpt lat="45.9644" lon="7.20951">
        <ele>1567</ele>
        <time>2018-05-12T04:29:45Z</time>
      </trkpt>
      <trkpt lat="45.964" lon="7.20947">
        <ele>1572</ele>
        <time>2018-05-12T04:30:45Z</time>
      </trkpt>
      <trkpt lat="45.96375" lon="7.20948">
        <ele>1574</ele>
        <time>2018-05-12T04:31:45Z</time>
      </trkpt>
      <trkpt lat="45.96365" lon="7.20949">
        <ele>1575</ele>
        <time>2018-05-12T04:32:45Z</time>
      </trkpt>
      <trkpt lat="45.96339" lon="7.20952">
        <ele>1576</ele>
        <time>2018-05-12T04:33:45Z</time>
      </trkpt>
      <trkpt lat="45.96299" lon="7.20959">
        <ele>1582</ele>
        <time>2018-05-12T04:34:45Z</time>
      </trkpt>
      <trkpt lat="45.96277" lon="7.20962">
        <ele>1583</ele>
        <time>2018-05-12T04:35:45Z</time>
      </trkpt>
      <trkpt lat="45.96264" lon="7.20962">
        <ele>1583</ele>
        <time>2018-05-12T04:36:45Z</time>
      </trkpt>
      <trkpt lat="45.96252" lon="7.20962">
        <ele>1584</ele>
        <time>2018-05-12T04:37:45Z</time>
      </trkpt>
      <trkpt lat="45.96234" lon="7.2096">
        <ele>1588</ele>
        <time>2018-05-12T04:38:45Z</time>
      </trkpt>
      <trkpt lat="45.96219" lon="7.20958">
        <ele>1588</ele>
        <time>2018-05-12T04:39:45Z</time>
      </trkpt>
      <trkpt lat="45.96207" lon="7.20955">
        <ele>1589</ele>
        <time>2018-05-12T04:40:45Z</time>
      </trkpt>
      <trkpt lat="45.96188" lon="7.20949">
        <ele>1589</ele>
        <time>2018-05-12T04:41:45Z</time>
      </trkpt>
      <trkpt lat="45.9614" lon="7.2093">
        <ele>1592</ele>
        <time>2018-05-12T04:42:45Z</time>
      </trkpt>
      <trkpt lat="45.96079" lon="7.20903">
        <ele>1591</ele>
        <time>2018-05-12T04:43:45Z</time>
      </trkpt>
      <trkpt lat="45.96027" lon="7.20885">
        <ele>1593</ele>
        <time>2018-05-12T04:44:45Z</time>
      </trkpt>
      <trkpt lat="45.95997" lon="7.20877">
        <ele>1596</ele>
        <time>2018-05-12T04:45:45Z</time>
      </trkpt>
      <trkpt lat="45.95957" lon="7.20871">
        <ele>1595</ele>
        <time>2018-05-12T04:46:45Z</time>
      </trkpt>
      <trkpt lat="45.9589" lon="7.20868">
        <ele>1597</ele>
        <time>2018-05-12T04:47:45Z</time>
      </trkpt>
      <trkpt lat="45.95861" lon="7.20868">
        <ele>1597</ele>
        <time>2018-05-12T04:48:45Z</time>
      </trkpt>
      <trkpt lat="45.95831" lon="7.2087">
        <ele>1598</ele>
        <time>2018-05-12T04:49:45Z</time>
      </trkpt>
      <trkpt lat="45.95807" lon="7.20875">
        <ele>1599</ele>
        <time>2018-05-12T04:50:45Z</time>
      </trkpt>
      <trkpt lat="45.95776" lon="7.20883">
        <ele>1600</ele>
        <time>2018-05-12T04:51:45Z</time>
      </trkpt>
      <trkpt lat="45.95691" lon="7.20917">
        <ele>1611</ele>
        <time>2018-05-12T04:52:45Z</time>
      </trkpt>
      <trkpt lat="45.95676" lon="7.20924">
        <ele>1611</ele>
        <time>2018-05-12T04:53:45Z</time>
      </trkpt>
      <trkpt lat="45.95654" lon="7.20933">
        <ele>1612</ele>
        <time>2018-05-12T04:54:45Z</time>
      </trkpt>
      <trkpt lat="45.95646" lon="7.20937">
        <ele>1612</ele>
        <time>2018-05-12T04:55:45Z</time>
      </trkpt>
      <trkpt lat="45.95586" lon="7.20964">
        <ele>1614</ele>
        <time>2018-05-12T04:56:45Z</time>
      </trkpt>
      <trkpt lat="45.95581" lon="7.20965">
        <ele>1615</ele>
        <time>2018-05-12T04:57:45Z</time>
      </trkpt>
      <trkpt lat="45.95571" lon="7.20968">
        <ele>1615</ele>
        <time>2018-05-12T04:58:45Z</time>
      </trkpt>
      <trkpt lat="45.9555" lon="7.20973">
        <ele>1616</ele>
        <time>2018-05-12T04:59:45Z</time>
      </trkpt>
      <trkpt lat="45.95525" lon="7.2098">
        <ele>1617</ele>
        <time>2018-05-12T05:00:45Z</time>
      </trkpt>
      <trkpt lat="45.95471" lon="7.20979">
        <ele>1621</ele>
        <time>2018-05-12T05:01:45Z</time>
      </trkpt>
      <trkpt lat="45.95457" lon="7.20979">
        <ele>1622</ele>
        <time>2018-05-12T05:02:45Z</time>
      </trkpt>
      <trkpt lat="45.95432" lon="7.20976">
        <ele>1624</ele>
        <time>2018-05-12T05:03:45Z</time>
      </trkpt>
      <trkpt lat="45.95403" lon="7.20971">
        <ele>1630</ele>
        <time>2018-05-12T05:04:45Z</time>
      </trkpt>
      <trkpt lat="45.95376" lon="7.20964">
        <ele>1632</ele>
        <time>2018-05-12T05:05:45Z</time>
      </trkpt>
      <trkpt lat="45.95358" lon="7.20959">
        <ele>1632</ele>
        <time>2018-05-12T05:06:45Z</time>
      </trkpt>
      <trkpt lat="45.95323" lon="7.20949">
        <ele>1638</ele>
        <time>2018-05-12T05:07:45Z</time>
      </trkpt>
      <trkpt lat="45.95299" lon="7.20941">
        <ele>1639</ele>
        <time>2018-05-12T05:08:45Z</time>
      </trkpt>
      <trkpt lat="45.95269" lon="7.20933">
        <ele>1639</ele>
        <time>2018-05-12T05:09:45Z</time>
      </trkpt>
      <trkpt lat="45.95248" lon="7.20929">
        <ele>1640</ele>
        <time>2018-05-12T05:10:45Z</time>
      </trkpt>
      <trkpt lat="45.95228" lon="7.20926">
        <ele>1642</ele>
        <time>2018-05-12T05:11:45Z</time>
      </trkpt>
      <trkpt lat="45.95196" lon="7.20925">
        <ele>1643</ele>
        <time>2018-05-12T05:12:45Z</time>
      </trkpt>
      <trkpt lat="45.95139" lon="7.20925">
        <ele>1647</ele>
        <time>2018-05-12T05:13:45Z</time>
      </trkpt>
      <trkpt lat="45.95077" lon="7.20933">
        <ele>1651</ele>
        <time>2018-05-12T05:14:45Z</time>
      </trkpt>
      <trkpt lat="45.95066" lon="7.20935">
        <ele>1652</ele>
        <time>2018-05-12T05:15:45Z</time>
      </trkpt>
      <trkpt lat="45.95045" lon="7.2094">
        <ele>1653</ele>
        <time>2018-05-12T05:16:45Z</time>
      </trkpt>
      <trkpt lat="45.94996" lon="7.20954">
        <ele>1653</ele>
        <time>2018-05-12T05:17:45Z</time>
      </trkpt>
      <trkpt lat="45.94949" lon="7.20967">
        <ele>1654</ele>
        <time>2018-05-12T05:18:45Z</time>
      </trkpt>
      <trkpt lat="45.94935" lon="7.2097">
        <ele>1655</ele>
        <time>2018-05-12T05:19:45Z</time>
      </trkpt>
      <trkpt lat="45.94926" lon="7.20971">
        <ele>1655</ele>
        <time>2018-05-12T05:20:45Z</time>
      </trkpt>
      <trkpt lat="45.94899" lon="7.20973">
        <ele>1659</ele>
        <time>2018-05-12T05:21:45Z</time>
      </trkpt>
      <trkpt lat="45.94879" lon="7.20972">
        <ele>1660</ele>
        <time>2018-05-12T05:22:45Z</time>
      </trkpt>
      <trkpt lat="45.94871" lon="7.20972">
        <ele>1661</ele>
        <time>2018-05-12T05:23:45Z</time>
      </trkpt>
      <trkpt lat="45.94867" lon="7.20971">
        <ele>1661</ele>
        <time>2018-05-12T05:24:45Z</time>
      </trkpt>
      <trkpt lat="45.94861" lon="7.20971">
        <ele>1662</ele>
        <time>2018-05-12T05:25:45Z</time>
      </trkpt>
      <trkpt lat="45.94852" lon="7.20969">
        <ele>1663</ele>
        <time>2018-05-12T05:26:45Z</time>
      </trkpt>
      <trkpt lat="45.94843" lon="7.20968">
        <ele>1663</ele>
        <time>2018-05-12T05:27:45Z</time>
      </trkpt>
      <trkpt lat="45.94831" lon="7.20966">
        <ele>1669</ele>
        <time>2018-05-12T05:28:45Z</time>
      </trkpt>
      <trkpt lat="45.94795" lon="7.2096">
        <ele>1669</ele>
        <time>2018-05-12T05:29:45Z</time>
      </trkpt>
      <trkpt lat="45.94778" lon="7.20958">
        <ele>1669</ele>
        <time>2018-05-12T05:30:45Z</time>
      </trkpt>
      <trkpt lat="45.9477" lon="7.20958">
        <ele>1670</ele>
        <time>2018-05-12T05:31:45Z</time>
      </trkpt>
      <trkpt lat="45.94754" lon="7.20958">
        <ele>1670</ele>
        <time>2018-05-12T05:32:45Z</time>
      </trkpt>
      <trkpt lat="45.9469" lon="7.20962">
        <ele>1674</ele>
        <time>2018-05-12T05:33:45Z</time>
      </trkpt>
      <trkpt lat="45.94672" lon="7.20962">
        <ele>1674</ele>
        <time>2018-05-12T05:34:45Z</time>
      </trkpt>
      <trkpt lat="45.94651" lon="7.20959">
        <ele>1683</ele>
        <time>2018-05-12T05:35:45Z</time>
      </trkpt>
      <trkpt lat="45.94641" lon="7.20957">
        <ele>1684</ele>
        <time>2018-05-12T05:36:45Z</time>
      </trkpt>
      <trkpt lat="45.94617" lon="7.20947">
        <ele>1686</ele>
        <time>2018-05-12T05:37:45Z</time>
      </trkpt>
      <trkpt lat="45.94609" lon="7.20944">
        <ele>1687</ele>
        <time>2018-05-12T05:38:45Z</time>
      </trkpt>
      <trkpt lat="45.946" lon="7.2094">
        <ele>1687</ele>
        <time>2018-05-12T05:39:45Z</time>
      </trkpt>
      <trkpt lat="45.94598" lon="7.20939">
        <ele>1687</ele>
        <time>2018-05-12T05:40:45Z</time>
      </trkpt>
      <trkpt lat="45.94533" lon="7.20911">
        <ele>1695</ele>
        <time>2018-05-12T05:41:45Z</time>
      </trkpt>
      <trkpt lat="45.9452" lon="7.20906">
        <ele>1700</ele>
        <time>2018-05-12T05:42:45Z</time>
      </trkpt>
      <trkpt lat="45.94503" lon="7.209">
        <ele>1704</ele>
        <time>2018-05-12T05:43:45Z</time>
      </trkpt>
      <trkpt lat="45.94487" lon="7.20896">
        <ele>1708</ele>
        <time>2018-05-12T05:44:45Z</time>
      </trkpt>
      <trkpt lat="45.94465" lon="7.2089">
        <ele>1705</ele>
        <time>2018-05-12T05:45:45Z</time>
      </trkpt>
      <trkpt lat="45.94453" lon="7.20887">
        <ele>1705</ele>
        <time>2018-05-12T05:46:45Z</time>
      </trkpt>
      <trkpt lat="45.94436" lon="7.20884">
        <ele>1706</ele>
        <time>2018-05-12T05:47:45Z</time>
      </trkpt>
      <trkpt lat="45.94428" lon="7.20883">
        <ele>1706</ele>
        <time>2018-05-12T05:48:45Z</time>
      </trkpt>
      <trkpt lat="45.9441" lon="7.20883">
        <ele>1710</ele>
        <time>2018-05-12T05:49:45Z</time>
      </trkpt>
      <trkpt lat="45.94386" lon="7.20882">
        <ele>1708</ele>
        <time>2018-05-12T05:50:45Z</time>
      </trkpt>
      <trkpt lat="45.94361" lon="7.20883">
        <ele>1709</ele>
        <time>2018-05-12T05:51:45Z</time>
      </trkpt>
      <trkpt lat="45.94331" lon="7.20886">
        <ele>1713</ele>
        <time>2018-05-12T05:52:45Z</time>
      </trkpt>
      <trkpt lat="45.94312" lon="7.2089">
        <ele>1713</ele>
        <time>2018-05-12T05:53:45Z</time>
      </trkpt>
      <trkpt lat="45.94251" lon="7.20907">
        <ele>1726</ele>
        <time>2018-05-12T05:54:45Z</time>
      </trkpt>
      <trkpt lat="45.94213" lon="7.20917">
        <ele>1748</ele>
        <time>2018-05-12T05:55:45Z</time>
      </trkpt>
      <trkpt lat="45.94203" lon="7.20919">
        <ele>1748</ele>
        <time>2018-05-12T05:56:45Z</time>
      </trkpt>
      <trkpt lat="45.94196" lon="7.20921">
        <ele>1747</ele>
        <time>2018-05-12T05:57:45Z</time>
      </trkpt>
      <trkpt lat="45.94179" lon="7.20922">
        <ele>1741</ele>
        <time>2018-05-12T05:58:45Z</time>
      </trkpt>
      <trkpt lat="45.94154" lon="7.2092">
        <ele>1742</ele>
        <time>2018-05-12T05:59:45Z</time>
      </trkpt>
      <trkpt lat="45.9413" lon="7.20913">
        <ele>1727</ele>
        <time>2018-05-12T06:00:45Z</time>
      </trkpt>
      <trkpt lat="45.94103" lon="7.20899">
        <ele>1730</ele>
        <time>2018-05-12T06:01:45Z</time>
      </trkpt>
      <trkpt lat="45.94069" lon="7.20878">
        <ele>1737</ele>
        <time>2018-05-12T06:02:45Z</time>
      </trkpt>
      <trkpt lat="45.94055" lon="7.2087">
        <ele>1736</ele>
        <time>2018-05-12T06:03:45Z</time>
      </trkpt>
      <trkpt lat="45.94044" lon="7.20864">
        <ele>1736</ele>
        <time>2018-05-12T06:04:45Z</time>
      </trkpt>
      <trkpt lat="45.94033" lon="7.20859">
        <ele>1736</ele>
        <time>2018-05-12T06:05:45Z</time>
      </trkpt>
      <trkpt lat="45.94017" lon="7.20855">
        <ele>1736</ele>
        <time>2018-05-12T06:06:45Z</time>
      </trkpt>
      <trkpt lat="45.93988" lon="7.20847">
        <ele>1741</ele>
        <time>2018-05-12T06:07:45Z</time>
      </trkpt>
      <trkpt lat="45.93968" lon="7.20845">
        <ele>1745</ele>
        <time>2018-05-12T06:08:45Z</time>
      </trkpt>
      <trkpt lat="45.93952" lon="7.20844">
        <ele>1746</ele>
        <time>2018-05-12T06:09:45Z</time>
      </trkpt>
      <trkpt lat="45.93918" lon="7.20848">
        <ele>1743</ele>
        <time>2018-05-12T06:10:45Z</time>
      </trkpt>
      <trkpt lat="45.93825" lon="7.2086">
        <ele>1771</ele>
        <time>2018-05-12T06:11:45Z</time>
      </trkpt>
      <trkpt lat="45.93804" lon="7.20862">
        <ele>1776</ele>
        <time>2018-05-12T06:12:45Z</time>
      </trkpt>
      <trkpt lat="45.93789" lon="7.20862">
        <ele>1777</ele>
        <time>2018-05-12T06:13:45Z</time>
      </trkpt>
      <trkpt lat="45.93778" lon="7.20862">
        <ele>1778</ele>
        <time>2018-05-12T06:14:45Z</time>
      </trkpt>
      <trkpt lat="45.93761" lon="7.20862">
        <ele>1776</ele>
        <time>2018-05-12T06:15:45Z</time>
      </trkpt>
      <trkpt lat="45.93722" lon="7.20858">
        <ele>1781</ele>
        <time>2018-05-12T06:16:45Z</time>
      </trkpt>
      <trkpt lat="45.93688" lon="7.20851">
        <ele>1778</ele>
        <time>2018-05-12T06:17:45Z</time>
      </trkpt>
      <trkpt lat="45.93672" lon="7.20846">
        <ele>1771</ele>
        <time>2018-05-12T06:18:45Z</time>
      </trkpt>
      <trkpt lat="45.93651" lon="7.2084">
        <ele>1776</ele>
        <time>2018-05-12T06:19:45Z</time>
      </trkpt>
      <trkpt lat="45.93584" lon="7.2081">
        <ele>1764</ele>
        <time>2018-05-12T06:20:45Z</time>
      </trkpt>
      <trkpt lat="45.93549" lon="7.20792">
        <ele>1770</ele>
        <time>2018-05-12T06:21:45Z</time>
      </trkpt>
      <trkpt lat="45.93535" lon="7.20788">
        <ele>1770</ele>
        <time>2018-05-12T06:22:45Z</time>
      </trkpt>
      <trkpt lat="45.93525" lon="7.20785">
        <ele>1769</ele>
        <time>2018-05-12T06:23:45Z</time>
      </trkpt>
      <trkpt lat="45.93513" lon="7.20783">
        <ele>1769</ele>
        <time>2018-05-12T06:24:45Z</time>
      </trkpt>
      <trkpt lat="45.93477" lon="7.20777">
        <ele>1781</ele>
        <time>2018-05-12T06:25:45Z</time>
      </trkpt>
      <trkpt lat="45.93435" lon="7.2077">
        <ele>1785</ele>
        <time>2018-05-12T06:26:45Z</time>
      </trkpt>
      <trkpt lat="45.93412" lon="7.20763">
        <ele>1791</ele>
        <time>2018-05-12T06:27:45Z</time>
      </trkpt>
      <trkpt lat="45.9337" lon="7.20743">
        <ele>1774</ele>
        <time>2018-05-12T06:28:45Z</time>
      </trkpt>
      <trkpt lat="45.93317" lon="7.2071">
        <ele>1785</ele>
        <time>2018-05-12T06:29:45Z</time>
      </trkpt>
      <trkpt lat="45.9329" lon="7.20699">
        <ele>1786</ele>
        <time>2018-05-12T06:30:45Z</time>
      </trkpt>
      <trkpt lat="45.9326" lon="7.20686">
        <ele>1786</ele>
        <time>2018-05-12T06:31:45Z</time>
      </trkpt>
      <trkpt lat="45.93229" lon="7.20673">
        <ele>1801</ele>
        <time>2018-05-12T06:32:45Z</time>
      </trkpt>
      <trkpt lat="45.9321" lon="7.20662">
        <ele>1786</ele>
        <time>2018-05-12T06:33:45Z</time>
      </trkpt>
      <trkpt lat="45.93193" lon="7.20652">
        <ele>1790</ele>
        <time>2018-05-12T06:34:45Z</time>
      </trkpt>
      <trkpt lat="45.93173" lon="7.20639">
        <ele>1791</ele>
        <time>2018-05-12T06:35:45Z</time>
      </trkpt>
      <trkpt lat="45.9314" lon="7.20614">
        <ele>1802</ele>
        <time>2018-05-12T06:36:45Z</time>
      </trkpt>
      <trkpt lat="45.93123" lon="7.20604">
        <ele>1803</ele>
        <time>2018-05-12T06:37:45Z</time>
      </trkpt>
      <trkpt lat="45.93109" lon="7.20595">
        <ele>1803</ele>
        <time>2018-05-12T06:38:45Z</time>
      </trkpt>
      <trkpt lat="45.93097" lon="7.20589">
        <ele>1802</ele>
        <time>2018-05-12T06:39:45Z</time>
      </trkpt>
      <trkpt lat="45.93065" lon="7.20578">
        <ele>1796</ele>
        <time>2018-05-12T06:40:45Z</time>
      </trkpt>
      <trkpt lat="45.93017" lon="7.20563">
        <ele>1801</ele>
        <time>2018-05-12T06:41:45Z</time>
      </trkpt>
      <trkpt lat="45.9299" lon="7.20551">
        <ele>1814</ele>
        <time>2018-05-12T06:42:45Z</time>
      </trkpt>
      <trkpt lat="45.92972" lon="7.20539">
        <ele>1813</ele>
        <time>2018-05-12T06:43:45Z</time>
      </trkpt>
      <trkpt lat="45.92953" lon="7.2052">
        <ele>1814</ele>
        <time>2018-05-12T06:44:45Z</time>
      </trkpt>
      <trkpt lat="45.92913" lon="7.20476">
        <ele>1813</ele>
        <time>2018-05-12T06:45:45Z</time>
      </trkpt>
      <trkpt lat="45.929" lon="7.20461">
        <ele>1811</ele>
        <time>2018-05-12T06:46:45Z</time>
      </trkpt>
      <trkpt lat="45.92888" lon="7.20452">
        <ele>1811</ele>
        <time>2018-05-12T06:47:45Z</time>
      </trkpt>
      <trkpt lat="45.92876" lon="7.20442">
        <ele>1811</ele>
        <time>2018-05-12T06:48:45Z</time>
      </trkpt>
      <trkpt lat="45.92866" lon="7.20436">
        <ele>1812</ele>
        <time>2018-05-12T06:49:45Z</time>
      </trkpt>
      <trkpt lat="45.92858" lon="7.20432">
        <ele>1813</ele>
        <time>2018-05-12T06:50:45Z</time>
      </trkpt>
      <trkpt lat="45.92851" lon="7.20427">
        <ele>1813</ele>
        <time>2018-05-12T06:51:45Z</time>
      </trkpt>
      <trkpt lat="45.92846" lon="7.20425">
        <ele>1813</ele>
        <time>2018-05-12T06:52:45Z</time>
      </trkpt>
      <trkpt lat="45.92838" lon="7.20422">
        <ele>1813</ele>
        <time>2018-05-12T06:53:45Z</time>
      </trkpt>
      <trkpt lat="45.92834" lon="7.20421">
        <ele>1813</ele>
        <time>2018-05-12T06:54:45Z</time>
      </trkpt>
      <trkpt lat="45.92818" lon="7.20415">
        <ele>1809</ele>
        <time>2018-05-12T06:55:45Z</time>
      </trkpt>
      <trkpt lat="45.92808" lon="7.20412">
        <ele>1808</ele>
        <time>2018-05-12T06:56:45Z</time>
      </trkpt>
      <trkpt lat="45.9279" lon="7.20409">
        <ele>1810</ele>
        <time>2018-05-12T06:57:45Z</time>
      </trkpt>
      <trkpt lat="45.92729" lon="7.20392">
        <ele>1826</ele>
        <time>2018-05-12T06:58:45Z</time>
      </trkpt>
      <trkpt lat="45.92686" lon="7.20383">
        <ele>1829</ele>
        <time>2018-05-12T06:59:45Z</time>
      </trkpt>
      <trkpt lat="45.92648" lon="7.2037">
        <ele>1845</ele>
        <time>2018-05-12T07:00:45Z</time>
      </trkpt>
      <trkpt lat="45.92606" lon="7.2035">
        <ele>1849</ele>
        <time>2018-05-12T07:01:45Z</time>
      </trkpt>
      <trkpt lat="45.92584" lon="7.20336">
        <ele>1851</ele>
        <time>2018-05-12T07:02:45Z</time>
      </trkpt>
      <trkpt lat="45.92573" lon="7.20327">
        <ele>1852</ele>
        <time>2018-05-12T07:03:45Z</time>
      </trkpt>
      <trkpt lat="45.92559" lon="7.20315">
        <ele>1853</ele>
        <time>2018-05-12T07:04:45Z</time>
      </trkpt>
      <trkpt lat="45.92539" lon="7.20299">
        <ele>1856</ele>
        <time>2018-05-12T07:05:45Z</time>
      </trkpt>
      <trkpt lat="45.92505" lon="7.20267">
        <ele>1861</ele>
        <time>2018-05-12T07:06:45Z</time>
      </trkpt>
      <trkpt lat="45.9248" lon="7.20232">
        <ele>1868</ele>
        <time>2018-05-12T07:07:45Z</time>
      </trkpt>
      <trkpt lat="45.92468" lon="7.20207">
        <ele>1867</ele>
        <time>2018-05-12T07:08:45Z</time>
      </trkpt>
      <trkpt lat="45.92457" lon="7.20182">
        <ele>1866</ele>
        <time>2018-05-12T07:09:45Z</time>
      </trkpt>
      <trkpt lat="45.92444" lon="7.20159">
        <ele>1848</ele>
        <time>2018-05-12T07:10:45Z</time>
      </trkpt>
      <trkpt lat="45.92428" lon="7.20143">
        <ele>1848</ele>
        <time>2018-05-12T07:11:45Z</time>
      </trkpt>
      <trkpt lat="45.92409" lon="7.20132">
        <ele>1854</ele>
        <time>2018-05-12T07:12:45Z</time>
      </trkpt>
      <trkpt lat="45.92392" lon="7.20128">
        <ele>1852</ele>
        <time>2018-05-12T07:13:45Z</time>
      </trkpt>
      <trkpt lat="45.9238" lon="7.20127">
        <ele>1852</ele>
        <time>2018-05-12T07:14:45Z</time>
      </trkpt>
      <trkpt lat="45.9235" lon="7.20128">
        <ele>1854</ele>
        <time>2018-05-12T07:15:45Z</time>
      </trkpt>
      <trkpt lat="45.92305" lon="7.20128">
        <ele>1857</ele>
        <time>2018-05-12T07:16:45Z</time>
      </trkpt>
      <trkpt lat="45.92243" lon="7.20121">
        <ele>1855</ele>
        <time>2018-05-12T07:17:45Z</time>
      </trkpt>
      <trkpt lat="45.92217" lon="7.20117">
        <ele>1854</ele>
        <time>2018-05-12T07:18:45Z</time>
      </trkpt>
      <trkpt lat="45.92208" lon="7.20116">
        <ele>1854</ele>
        <time>2018-05-12T07:19:45Z</time>
      </trkpt>
      <trkpt lat="45.92179" lon="7.20115">
        <ele>1853</ele>
        <time>2018-05-12T07:20:45Z</time>
      </trkpt>
      <trkpt lat="45.92157" lon="7.20116">
        <ele>1854</ele>
        <time>2018-05-12T07:21:45Z</time>
      </trkpt>
      <trkpt lat="45.92131" lon="7.2012">
        <ele>1857</ele>
        <time>2018-05-12T07:22:45Z</time>
      </trkpt>
      <trkpt lat="45.92087" lon="7.20133">
        <ele>1862</ele>
        <time>2018-05-12T07:23:45Z</time>
      </trkpt>
      <trkpt lat="45.92054" lon="7.20141">
        <ele>1860</ele>
        <time>2018-05-12T07:24:45Z</time>
      </trkpt>
      <trkpt lat="45.92038" lon="7.20145">
        <ele>1860</ele>
        <time>2018-05-12T07:25:45Z</time>
      </trkpt>
      <trkpt lat="45.92024" lon="7.20147">
        <ele>1861</ele>
        <time>2018-05-12T07:26:45Z</time>
      </trkpt>
      <trkpt lat="45.91999" lon="7.20148">
        <ele>1861</ele>
        <time>2018-05-12T07:27:45Z</time>
      </trkpt>
      <trkpt lat="45.91985" lon="7.20148">
        <ele>1859</ele>
        <time>2018-05-12T07:28:45Z</time>
      </trkpt>
      <trkpt lat="45.91944" lon="7.20145">
        <ele>1855</ele>
        <time>2018-05-12T07:29:45Z</time>
      </trkpt>
      <trkpt lat="45.91922" lon="7.20145">
        <ele>1858</ele>
        <time>2018-05-12T07:30:45Z</time>
      </trkpt>
      <trkpt lat="45.91907" lon="7.20145">
        <ele>1853</ele>
        <time>2018-05-12T07:31:45Z</time>
      </trkpt>
      <trkpt lat="45.91893" lon="7.20147">
        <ele>1851</ele>
        <time>2018-05-12T07:32:45Z</time>
      </trkpt>
      <trkpt lat="45.91864" lon="7.20154">
        <ele>1849</ele>
        <time>2018-05-12T07:33:45Z</time>
      </trkpt>
      <trkpt lat="45.91808" lon="7.20175">
        <ele>1875</ele>
        <time>2018-05-12T07:34:45Z</time>
      </trkpt>
      <trkpt lat="45.91777" lon="7.20186">
        <ele>1876</ele>
        <time>2018-05-12T07:35:45Z</time>
      </trkpt>
      <trkpt lat="45.91768" lon="7.20188">
        <ele>1875</ele>
        <time>2018-05-12T07:36:45Z</time>
      </trkpt>
      <trkpt lat="45.91753" lon="7.20191">
        <ele>1874</ele>
        <time>2018-05-12T07:37:45Z</time>
      </trkpt>
      <trkpt lat="45.91738" lon="7.20192">
        <ele>1875</ele>
        <time>2018-05-12T07:38:45Z</time>
      </trkpt>
      <trkpt lat="45.91717" lon="7.20191">
        <ele>1878</ele>
        <time>2018-05-12T07:39:45Z</time>
      </trkpt>
      <trkpt lat="45.91703" lon="7.20188">
        <ele>1878</ele>
        <time>2018-05-12T07:40:45Z</time>
      </trkpt>
      <trkpt lat="45.91651" lon="7.2017">
        <ele>1876</ele>
        <time>2018-05-12T07:41:45Z</time>
      </trkpt>
      <trkpt lat="45.9161" lon="7.20157">
        <ele>1853</ele>
        <time>2018-05-12T07:42:45Z</time>
      </trkpt>
      <trkpt lat="45.91591" lon="7.20154">
        <ele>1857</ele>
        <time>2018-05-12T07:43:45Z</time>
      </trkpt>
      <trkpt lat="45.91576" lon="7.20152">
        <ele>1858</ele>
        <time>2018-05-12T07:44:45Z</time>
      </trkpt>
      <trkpt lat="45.91542" lon="7.20156">
        <ele>1854</ele>
        <time>2018-05-12T07:45:45Z</time>
      </trkpt>
      <trkpt lat="45.91505" lon="7.20162">
        <ele>1865</ele>
        <time>2018-05-12T07:46:45Z</time>
      </trkpt>
      <trkpt lat="45.91491" lon="7.20164">
        <ele>1866</ele>
        <time>2018-05-12T07:47:45Z</time>
      </trkpt>
      <trkpt lat="45.91476" lon="7.20165">
        <ele>1862</ele>
        <time>2018-05-12T07:48:45Z</time>
      </trkpt>
      <trkpt lat="45.91451" lon="7.20165">
        <ele>1863</ele>
        <time>2018-05-12T07:49:45Z</time>
      </trkpt>
      <trkpt lat="45.91426" lon="7.20162">
        <ele>1870</ele>
        <time>2018-05-12T07:50:45Z</time>
      </trkpt>
      <trkpt lat="45.91396" lon="7.20158">
        <ele>1869</ele>
        <time>2018-05-12T07:51:45Z</time>
      </trkpt>
      <trkpt lat="45.91378" lon="7.20156">
        <ele>1867</ele>
        <time>2018-05-12T07:52:45Z</time>
      </trkpt>
      <trkpt lat="45.91355" lon="7.20157">
        <ele>1870</ele>
        <time>2018-05-12T07:53:45Z</time>
      </trkpt>
      <trkpt lat="45.91293" lon="7.20166">
        <ele>1871</ele>
        <time>2018-05-12T07:54:45Z</time>
      </trkpt>
      <trkpt lat="45.91264" lon="7.20171">
        <ele>1891</ele>
        <time>2018-05-12T07:55:45Z</time>
      </trkpt>
      <trkpt lat="45.9124" lon="7.20172">
        <ele>1893</ele>
        <time>2018-05-12T07:56:45Z</time>
      </trkpt>
      <trkpt lat="45.91212" lon="7.20168">
        <ele>1901</ele>
        <time>2018-05-12T07:57:45Z</time>
      </trkpt>
      <trkpt lat="45.91183" lon="7.20159">
        <ele>1886</ele>
        <time>2018-05-12T07:58:45Z</time>
      </trkpt>
      <trkpt lat="45.91131" lon="7.20141">
        <ele>1890</ele>
        <time>2018-05-12T07:59:45Z</time>
      </trkpt>
      <trkpt lat="45.91087" lon="7.20124">
        <ele>1888</ele>
        <time>2018-05-12T08:00:45Z</time>
      </trkpt>
      <trkpt lat="45.91074" lon="7.20119">
        <ele>1895</ele>
        <time>2018-05-12T08:01:45Z</time>
      </trkpt>
      <trkpt lat="45.9106" lon="7.20116">
        <ele>1895</ele>
        <time>2018-05-12T08:02:45Z</time>
      </trkpt>
      <trkpt lat="45.91043" lon="7.20111">
        <ele>1895</ele>
        <time>2018-05-12T08:03:45Z</time>
      </trkpt>
      <trkpt lat="45.91023" lon="7.20108">
        <ele>1895</ele>
        <time>2018-05-12T08:04:45Z</time>
      </trkpt>
      <trkpt lat="45.91005" lon="7.20106">
        <ele>1894</ele>
        <time>2018-05-12T08:05:45Z</time>
      </trkpt>
      <trkpt lat="45.90975" lon="7.20104">
        <ele>1900</ele>
        <time>2018-05-12T08:06:45Z</time>
      </trkpt>
      <trkpt lat="45.90928" lon="7.20104">
        <ele>1898</ele>
        <time>2018-05-12T08:07:45Z</time>
      </trkpt>
      <trkpt lat="45.90886" lon="7.20098">
        <ele>1902</ele>
        <time>2018-05-12T08:08:45Z</time>
      </trkpt>
      <trkpt lat="45.90848" lon="7.20091">
        <ele>1899</ele>
        <time>2018-05-12T08:09:45Z</time>
      </trkpt>
      <trkpt lat="45.90832" lon="7.20089">
        <ele>1896</ele>
        <time>2018-05-12T08:10:45Z</time>
      </trkpt>
      <trkpt lat="45.90816" lon="7.20087">
        <ele>1902</ele>
        <time>2018-05-12T08:11:45Z</time>
      </trkpt>
      <trkpt lat="45.90781" lon="7.20091">
        <ele>1906</ele>
        <time>2018-05-12T08:12:45Z</time>
      </trkpt>
      <trkpt lat="45.90712" lon="7.201">
        <ele>1912</ele>
        <time>2018-05-12T08:13:45Z</time>
      </trkpt>
      <trkpt lat="45.90666" lon="7.20103">
        <ele>1913</ele>
        <time>2018-05-12T08:14:45Z</time>
      </trkpt>
      <trkpt lat="45.90624" lon="7.20101">
        <ele>1920</ele>
        <time>2018-05-12T08:15:45Z</time>
      </trkpt>
      <trkpt lat="45.90598" lon="7.20098">
        <ele>1919</ele>
        <time>2018-05-12T08:16:45Z</time>
      </trkpt>
      <trkpt lat="45.90522" lon="7.20085">
        <ele>1929</ele>
        <time>2018-05-12T08:17:45Z</time>
      </trkpt>
      <trkpt lat="45.90494" lon="7.20079">
        <ele>1920</ele>
        <time>2018-05-12T08:18:45Z</time>
      </trkpt>
      <trkpt lat="45.90466" lon="7.20069">
        <ele>1918</ele>
        <time>2018-05-12T08:19:45Z</time>
      </trkpt>
      <trkpt lat="45.90439" lon="7.20059">
        <ele>1920</ele>
        <time>2018-05-12T08:20:45Z</time>
      </trkpt>
      <trkpt lat="45.90425" lon="7.20052">
        <ele>1920</ele>
        <time>2018-05-12T08:21:45Z</time>
      </trkpt>
      <trkpt lat="45.90415" lon="7.20046">
        <ele>1927</ele>
        <time>2018-05-12T08:22:45Z</time>
      </trkpt>
      <trkpt lat="45.90406" lon="7.20039">
        <ele>1925</ele>
        <time>2018-05-12T08:23:45Z</time>
      </trkpt>
      <trkpt lat="45.90392" lon="7.20027">
        <ele>1924</ele>
        <time>2018-05-12T08:24:45Z</time>
      </trkpt>
      <trkpt lat="45.90381" lon="7.20013">
        <ele>1923</ele>
        <time>2018-05-12T08:25:45Z</time>
      </trkpt>
      <trkpt lat="45.90372" lon="7.20001">
        <ele>1923</ele>
        <time>2018-05-12T08:26:45Z</time>
      </trkpt>
      <trkpt lat="45.90367" lon="7.19993">
        <ele>1913</ele>
        <time>2018-05-12T08:27:45Z</time>
      </trkpt>
      <trkpt lat="45.90365" lon="7.1999">
        <ele>1913</ele>
        <time>2018-05-12T08:28:45Z</time>
      </trkpt>
      <trkpt lat="45.90361" lon="7.19983">
        <ele>1913</ele>
        <time>2018-05-12T08:29:45Z</time>
      </trkpt>
      <trkpt lat="45.90353" lon="7.1997">
        <ele>1913</ele>
        <time>2018-05-12T08:30:45Z</time>
      </trkpt>
      <trkpt lat="45.90336" lon="7.19929">
        <ele>1912</ele>
        <time>2018-05-12T08:31:45Z</time>
      </trkpt>
      <trkpt lat="45.90331" lon="7.19915">
        <ele>1915</ele>
        <time>2018-05-12T08:32:45Z</time>
      </trkpt>
      <trkpt lat="45.90315" lon="7.1988">
        <ele>1917</ele>
        <time>2018-05-12T08:33:45Z</time>
      </trkpt>
      <trkpt lat="45.90306" lon="7.1985">
        <ele>1917</ele>
        <time>2018-05-12T08:34:45Z</time>
      </trkpt>
      <trkpt lat="45.90304" lon="7.19842">
        <ele>1917</ele>
        <time>2018-05-12T08:35:45Z</time>
      </trkpt>
      <trkpt lat="45.90297" lon="7.19818">
        <ele>1916</ele>
        <time>2018-05-12T08:36:45Z</time>
      </trkpt>
      <trkpt lat="45.90289" lon="7.198">
        <ele>1916</ele>
        <time>2018-05-12T08:37:45Z</time>
      </trkpt>
      <trkpt lat="45.90279" lon="7.19778">
        <ele>1917</ele>
        <time>2018-05-12T08:38:45Z</time>
      </trkpt>
      <trkpt lat="45.90279" lon="7.19778">
        <ele>1917</ele>
        <time>2018-05-12T08:39:45Z</time>
      </trkpt>
      <trkpt lat="45.90279" lon="7.19744">
        <ele>1915</ele>
        <time>2018-05-12T08:40:45Z</time>
      </trkpt>
      <trkpt lat="45.90279" lon="7.19744">
        <ele>1915</ele>
        <time>2018-05-12T08:41:45Z</time>
      </trkpt>
      <trkpt lat="45.90276" lon="7.19716">
        <ele>1914</ele>
        <time>2018-05-12T08:42:45Z</time>
      </trkpt>
      <trkpt lat="45.90274" lon="7.19702">
        <ele>1914</ele>
        <time>2018-05-12T08:43:45Z</time>
      </trkpt>
      <trkpt lat="45.9027" lon="7.19687">
        <ele>1914</ele>
        <time>2018-05-12T08:44:45Z</time>
      </trkpt>
      <trkpt lat="45.90266" lon="7.19677">
        <ele>1915</ele>
        <time>2018-05-12T08:45:45Z</time>
      </trkpt>
      <trkpt lat="45.9026" lon="7.19665">
        <ele>1914</ele>
        <time>2018-05-12T08:46:45Z</time>
      </trkpt>
      <trkpt lat="45.90255" lon="7.19653">
        <ele>1913</ele>
        <time>2018-05-12T08:47:45Z</time>
      </trkpt>
      <trkpt lat="45.90246" lon="7.19637">
        <ele>1917</ele>
        <time>2018-05-12T08:48:45Z</time>
      </trkpt>
      <trkpt lat="45.90234" lon="7.19619">
        <ele>1916</ele>
        <time>2018-05-12T08:49:45Z</time>
      </trkpt>
      <trkpt lat="45.90228" lon="7.19611">
        <ele>1916</ele>
        <time>2018-05-12T08:50:45Z</time>
      </trkpt>
      <trkpt lat="45.90219" lon="7.19601">
        <ele>1916</ele>
        <time>2018-05-12T08:51:45Z</time>
      </trkpt>
      <trkpt lat="45.90206" lon="7.19591">
        <ele>1917</ele>
        <time>2018-05-12T08:52:45Z</time>
      </trkpt>
      <trkpt lat="45.90193" lon="7.19584">
        <ele>1917</ele>
        <time>2018-05-12T08:53:45Z</time>
      </trkpt>
      <trkpt lat="45.90177" lon="7.19577">
        <ele>1917</ele>
        <time>2018-05-12T08:54:45Z</time>
      </trkpt>
      <trkpt lat="45.90166" lon="7.19575">
        <ele>1919</ele>
        <time>2018-05-12T08:55:45Z</time>
      </trkpt>
      <trkpt lat="45.90165" lon="7.19574">
        <ele>1919</ele>
        <time>2018-05-12T08:56:45Z</time>
      </trkpt>
      <trkpt lat="45.90157" lon="7.19573">
        <ele>1920</ele>
        <time>2018-05-12T08:57:45Z</time>
      </trkpt>
      <trkpt lat="45.90137" lon="7.19571">
        <ele>1920</ele>
        <time>2018-05-12T08:58:45Z</time>
      </trkpt>
      <trkpt lat="45.90126" lon="7.1957">
        <ele>1921</ele>
        <time>2018-05-12T08:59:45Z</time>
      </trkpt>
      <trkpt lat="45.90078" lon="7.19571">
        <ele>1924</ele>
        <time>2018-05-12T09:00:45Z</time>
      </trkpt>
      <trkpt lat="45.89924" lon="7.19572">
        <ele>1931</ele>
        <time>2018-05-12T09:01:45Z</time>
      </trkpt>
      <trkpt lat="45.89909" lon="7.19567">
        <ele>1936</ele>
        <time>2018-05-12T09:02:45Z</time>
      </trkpt>
      <trkpt lat="45.89905" lon="7.19566">
        <ele>1937</ele>
        <time>2018-05-12T09:03:45Z</time>
      </trkpt>
      <trkpt lat="45.89896" lon="7.19561">
        <ele>1938</ele>
        <time>2018-05-12T09:04:45Z</time>
      </trkpt>
      <trkpt lat="45.89888" lon="7.19555">
        <ele>1938</ele>
        <time>2018-05-12T09:05:45Z</time>
      </trkpt>
      <trkpt lat="45.89882" lon="7.1955">
        <ele>1939</ele>
        <time>2018-05-12T09:06:45Z</time>
      </trkpt>
      <trkpt lat="45.89871" lon="7.1954">
        <ele>1939</ele>
        <time>2018-05-12T09:07:45Z</time>
      </trkpt>
      <trkpt lat="45.89863" lon="7.1953">
        <ele>1939</ele>
        <time>2018-05-12T09:08:45Z</time>
      </trkpt>
      <trkpt lat="45.89855" lon="7.19519">
        <ele>1939</ele>
        <time>2018-05-12T09:09:45Z</time>
      </trkpt>
      <trkpt lat="45.89838" lon="7.19487">
        <ele>1936</ele>
        <time>2018-05-12T09:10:45Z</time>
      </trkpt>
      <trkpt lat="45.89822" lon="7.19452">
        <ele>1950</ele>
        <time>2018-05-12T09:11:45Z</time>
      </trkpt>
      <trkpt lat="45.89817" lon="7.19436">
        <ele>1948</ele>
        <time>2018-05-12T09:12:45Z</time>
      </trkpt>
      <trkpt lat="45.8981" lon="7.19409">
        <ele>1947</ele>
        <time>2018-05-12T09:13:45Z</time>
      </trkpt>
      <trkpt lat="45.89803" lon="7.19382">
        <ele>1951</ele>
        <time>2018-05-12T09:14:45Z</time>
      </trkpt>
      <trkpt lat="45.89802" lon="7.19375">
        <ele>1952</ele>
        <time>2018-05-12T09:15:45Z</time>
      </trkpt>
      <trkpt lat="45.89801" lon="7.19368">
        <ele>1952</ele>
        <time>2018-05-12T09:16:45Z</time>
      </trkpt>
      <trkpt lat="45.898" lon="7.1936">
        <ele>1952</ele>
        <time>2018-05-12T09:17:45Z</time>
      </trkpt>
      <trkpt lat="45.89801" lon="7.1935">
        <ele>1951</ele>
        <time>2018-05-12T09:18:45Z</time>
      </trkpt>
      <trkpt lat="45.89801" lon="7.19345">
        <ele>1951</ele>
        <time>2018-05-12T09:19:45Z</time>
      </trkpt>
      <trkpt lat="45.89803" lon="7.19338">
        <ele>1951</ele>
        <time>2018-05-12T09:20:45Z</time>
      </trkpt>
      <trkpt lat="45.89808" lon="7.1932">
        <ele>1952</ele>
        <time>2018-05-12T09:21:45Z</time>
      </trkpt>
      <trkpt lat="45.89814" lon="7.19288">
        <ele>1954</ele>
        <time>2018-05-12T09:22:45Z</time>
      </trkpt>
      <trkpt lat="45.89816" lon="7.19281">
        <ele>1954</ele>
        <time>2018-05-12T09:23:45Z</time>
      </trkpt>
      <trkpt lat="45.89818" lon="7.19259">
        <ele>1952</ele>
        <time>2018-05-12T09:24:45Z</time>
      </trkpt>
      <trkpt lat="45.89821" lon="7.19248">
        <ele>1953</ele>
        <time>2018-05-12T09:25:45Z</time>
      </trkpt>
      <trkpt lat="45.89822" lon="7.19242">
        <ele>1954</ele>
        <time>2018-05-12T09:26:45Z</time>
      </trkpt>
      <trkpt lat="45.89825" lon="7.19236">
        <ele>1955</ele>
        <time>2018-05-12T09:27:45Z</time>
      </trkpt>
      <trkpt lat="45.89828" lon="7.1923">
        <ele>1957</ele>
        <time>2018-05-12T09:28:45Z</time>
      </trkpt>
      <trkpt lat="45.8984" lon="7.19206">
        <ele>1944</ele>
        <time>2018-05-12T09:29:45Z</time>
      </trkpt>
      <trkpt lat="45.89842" lon="7.19201">
        <ele>1944</ele>
        <time>2018-05-12T09:30:45Z</time>
      </trkpt>
      <trkpt lat="45.89845" lon="7.19189">
        <ele>1946</ele>
        <time>2018-05-12T09:31:45Z</time>
      </trkpt>
      <trkpt lat="45.89848" lon="7.19176">
        <ele>1948</ele>
        <time>2018-05-12T09:32:45Z</time>
      </trkpt>
      <trkpt lat="45.89849" lon="7.19168">
        <ele>1949</ele>
        <time>2018-05-12T09:33:45Z</time>
      </trkpt>
      <trkpt lat="45.89852" lon="7.19157">
        <ele>1954</ele>
        <time>2018-05-12T09:34:45Z</time>
      </trkpt>
      <trkpt lat="45.89853" lon="7.19152">
        <ele>1954</ele>
        <time>2018-05-12T09:35:45Z</time>
      </trkpt>
      <trkpt lat="45.89855" lon="7.19148">
        <ele>1953</ele>
        <time>2018-05-12T09:36:45Z</time>
      </trkpt>
      <trkpt lat="45.89859" lon="7.19143">
        <ele>1953</ele>
        <time>2018-05-12T09:37:45Z</time>
      </trkpt>
      <trkpt lat="45.89864" lon="7.19137">
        <ele>1953</ele>
        <time>2018-05-12T09:38:45Z</time>
      </trkpt>
      <trkpt lat="45.89873" lon="7.19128">
        <ele>1952</ele>
        <time>2018-05-12T09:39:45Z</time>
      </trkpt>
      <trkpt lat="45.89878" lon="7.19121">
        <ele>1952</ele>
        <time>2018-05-12T09:40:45Z</time>
      </trkpt>
      <trkpt lat="45.89881" lon="7.19117">
        <ele>1952</ele>
        <time>2018-05-12T09:41:45Z</time>
      </trkpt>
      <trkpt lat="45.89883" lon="7.19111">
        <ele>1952</ele>
        <time>2018-05-12T09:42:45Z</time>
      </trkpt>
      <trkpt lat="45.89885" lon="7.19104">
        <ele>1952</ele>
        <time>2018-05-12T09:43:45Z</time>
      </trkpt>
      <trkpt lat="45.89887" lon="7.19094">
        <ele>1951</ele>
        <time>2018-05-12T09:44:45Z</time>
      </trkpt>
      <trkpt lat="45.89889" lon="7.1908">
        <ele>1959</ele>
        <time>2018-05-12T09:45:45Z</time>
      </trkpt>
      <trkpt lat="45.89891" lon="7.19062">
        <ele>1961</ele>
        <time>2018-05-12T09:46:45Z</time>
      </trkpt>
      <trkpt lat="45.89893" lon="7.1905">
        <ele>1962</ele>
        <time>2018-05-12T09:47:45Z</time>
      </trkpt>
      <trkpt lat="45.89895" lon="7.19037">
        <ele>1963</ele>
        <time>2018-05-12T09:48:45Z</time>
      </trkpt>
      <trkpt lat="45.89899" lon="7.1902">
        <ele>1962</ele>
        <time>2018-05-12T09:49:45Z</time>
      </trkpt>
      <trkpt lat="45.899" lon="7.1901">
        <ele>1961</ele>
        <time>2018-05-12T09:50:45Z</time>
      </trkpt>
      <trkpt lat="45.899" lon="7.19001">
        <ele>1961</ele>
        <time>2018-05-12T09:51:45Z</time>
      </trkpt>
      <trkpt lat="45.89898" lon="7.18984">
        <ele>1969</ele>
        <time>2018-05-12T09:52:45Z</time>
      </trkpt>
      <trkpt lat="45.89892" lon="7.18958">
        <ele>1973</ele>
        <time>2018-05-12T09:53:45Z</time>
      </trkpt>
      <trkpt lat="45.89879" lon="7.1891">
        <ele>1980</ele>
        <time>2018-05-12T09:54:45Z</time>
      </trkpt>
      <trkpt lat="45.89872" lon="7.18887">
        <ele>1983</ele>
        <time>2018-05-12T09:55:45Z</time>
      </trkpt>
      <trkpt lat="45.89863" lon="7.18861">
        <ele>1985</ele>
        <time>2018-05-12T09:56:45Z</time>
      </trkpt>
      <trkpt lat="45.8985" lon="7.18829">
        <ele>1990</ele>
        <time>2018-05-12T09:57:45Z</time>
      </trkpt>
      <trkpt lat="45.89841" lon="7.18811">
        <ele>1990</ele>
        <time>2018-05-12T09:58:45Z</time>
      </trkpt>
      <trkpt lat="45.89835" lon="7.18798">
        <ele>1989</ele>
        <time>2018-05-12T09:59:45Z</time>
      </trkpt>
      <trkpt lat="45.89826" lon="7.18776">
        <ele>1996</ele>
        <time>2018-05-12T10:00:45Z</time>
      </trkpt>
      <trkpt lat="45.89821" lon="7.18767">
        <ele>1995</ele>
        <time>2018-05-12T10:01:45Z</time>
      </trkpt>
      <trkpt lat="45.89815" lon="7.1876">
        <ele>1994</ele>
        <time>2018-05-12T10:02:45Z</time>
      </trkpt>
      <trkpt lat="45.898" lon="7.18753">
        <ele>1997</ele>
        <time>2018-05-12T10:03:45Z</time>
      </trkpt>
      <trkpt lat="45.89784" lon="7.18748">
        <ele>1993</ele>
        <time>2018-05-12T10:04:45Z</time>
      </trkpt>
      <trkpt lat="45.89772" lon="7.1874">
        <ele>1994</ele>
        <time>2018-05-12T10:05:45Z</time>
      </trkpt>
      <trkpt lat="45.89761" lon="7.18734">
        <ele>1994</ele>
        <time>2018-05-12T10:06:45Z</time>
      </trkpt>
      <trkpt lat="45.89755" lon="7.18731">
        <ele>1994</ele>
        <time>2018-05-12T10:07:45Z</time>
      </trkpt>
      <trkpt lat="45.8975" lon="7.18729">
        <ele>1994</ele>
        <time>2018-05-12T10:08:45Z</time>
      </trkpt>
      <trkpt lat="45.89734" lon="7.18724">
        <ele>1998</ele>
        <time>2018-05-12T10:09:45Z</time>
      </trkpt>
      <trkpt lat="45.89706" lon="7.18721">
        <ele>2000</ele>
        <time>2018-05-12T10:10:45Z</time>
      </trkpt>
      <trkpt lat="45.89671" lon="7.18709">
        <ele>2001</ele>
        <time>2018-05-12T10:11:45Z</time>
      </trkpt>
      <trkpt lat="45.89647" lon="7.18698">
        <ele>2006</ele>
        <time>2018-05-12T10:12:45Z</time>
      </trkpt>
      <trkpt lat="45.89633" lon="7.18693">
        <ele>2006</ele>
        <time>2018-05-12T10:13:45Z</time>
      </trkpt>
      <trkpt lat="45.89608" lon="7.18687">
        <ele>2007</ele>
        <time>2018-05-12T10:14:45Z</time>
      </trkpt>
      <trkpt lat="45.8959" lon="7.18684">
        <ele>2006</ele>
        <time>2018-05-12T10:15:45Z</time>
      </trkpt>
      <trkpt lat="45.89565" lon="7.18682">
        <ele>2012</ele>
        <time>2018-05-12T10:16:45Z</time>
      </trkpt>
      <trkpt lat="45.89559" lon="7.18681">
        <ele>2013</ele>
        <time>2018-05-12T10:17:45Z</time>
      </trkpt>
      <trkpt lat="45.89545" lon="7.18677">
        <ele>2014</ele>
        <time>2018-05-12T10:18:45Z</time>
      </trkpt>
      <trkpt lat="45.89513" lon="7.18667">
        <ele>2014</ele>
        <time>2018-05-12T10:19:45Z</time>
      </trkpt>
      <trkpt lat="45.8949" lon="7.18658">
        <ele>2011</ele>
        <time>2018-05-12T10:20:45Z</time>
      </trkpt>
      <trkpt lat="45.89477" lon="7.18652">
        <ele>2011</ele>
        <time>2018-05-12T10:21:45Z</time>
      </trkpt>
      <trkpt lat="45.89467" lon="7.18648">
        <ele>2012</ele>
        <time>2018-05-12T10:22:45Z</time>
      </trkpt>
      <trkpt lat="45.89457" lon="7.18646">
        <ele>2013</ele>
        <time>2018-05-12T10:23:45Z</time>
      </trkpt>
      <trkpt lat="45.89435" lon="7.18646">
        <ele>2015</ele>
        <time>2018-05-12T10:24:45Z</time>
      </trkpt>
      <trkpt lat="45.8938" lon="7.18649">
        <ele>2023</ele>
        <time>2018-05-12T10:25:45Z</time>
      </trkpt>
      <trkpt lat="45.89338" lon="7.18648">
        <ele>2026</ele>
        <time>2018-05-12T10:26:45Z</time>
      </trkpt>
      <trkpt lat="45.89301" lon="7.18647">
        <ele>2029</ele>
        <time>2018-05-12T10:27:45Z</time>
      </trkpt>
      <trkpt lat="45.89301" lon="7.18647">
        <ele>2029</ele>
        <time>2018-05-12T10:28:45Z</time>
      </trkpt>
      <trkpt lat="45.89244" lon="7.18663">
        <ele>2038</ele>
        <time>2018-05-12T10:29:45Z</time>
      </trkpt>
      <trkpt lat="45.89194" lon="7.1868">
        <ele>2050</ele>
        <time>2018-05-12T10:30:45Z</time>
      </trkpt>
      <trkpt lat="45.89173" lon="7.18687">
        <ele>2050</ele>
        <time>2018-05-12T10:31:45Z</time>
      </trkpt>
      <trkpt lat="45.89167" lon="7.1869">
        <ele>2050</ele>
        <time>2018-05-12T10:32:45Z</time>
      </trkpt>
      <trkpt lat="45.89162" lon="7.18692">
        <ele>2050</ele>
        <time>2018-05-12T10:33:45Z</time>
      </trkpt>
      <trkpt lat="45.89154" lon="7.18698">
        <ele>2051</ele>
        <time>2018-05-12T10:34:45Z</time>
      </trkpt>
      <trkpt lat="45.89098" lon="7.18753">
        <ele>2065</ele>
        <time>2018-05-12T10:35:45Z</time>
      </trkpt>
      <trkpt lat="45.8909" lon="7.18758">
        <ele>2064</ele>
        <time>2018-05-12T10:36:45Z</time>
      </trkpt>
      <trkpt lat="45.8909" lon="7.18758">
        <ele>2064</ele>
        <time>2018-05-12T10:37:45Z</time>
      </trkpt>
      <trkpt lat="45.8905" lon="7.18782">
        <ele>2065</ele>
        <time>2018-05-12T10:38:45Z</time>
      </trkpt>
      <trkpt lat="45.89022" lon="7.18799">
        <ele>2067</ele>
        <time>2018-05-12T10:39:45Z</time>
      </trkpt>
      <trkpt lat="45.88991" lon="7.18831">
        <ele>2070</ele>
        <time>2018-05-12T10:40:45Z</time>
      </trkpt>
      <trkpt lat="45.88972" lon="7.18853">
        <ele>2082</ele>
        <time>2018-05-12T10:41:45Z</time>
      </trkpt>
      <trkpt lat="45.88963" lon="7.18864">
        <ele>2084</ele>
        <time>2018-05-12T10:42:45Z</time>
      </trkpt>
      <trkpt lat="45.88954" lon="7.18868">
        <ele>2084</ele>
        <time>2018-05-12T10:43:45Z</time>
      </trkpt>
      <trkpt lat="45.8895" lon="7.18869">
        <ele>2085</ele>
        <time>2018-05-12T10:44:45Z</time>
      </trkpt>
      <trkpt lat="45.88944" lon="7.1887">
        <ele>2085</ele>
        <time>2018-05-12T10:45:45Z</time>
      </trkpt>
      <trkpt lat="45.88918" lon="7.18872">
        <ele>2085</ele>
        <time>2018-05-12T10:46:45Z</time>
      </trkpt>
      <trkpt lat="45.88874" lon="7.18873">
        <ele>2088</ele>
        <time>2018-05-12T10:47:45Z</time>
      </trkpt>
      <trkpt lat="45.8883" lon="7.1888">
        <ele>2097</ele>
        <time>2018-05-12T10:48:45Z</time>
      </trkpt>
      <trkpt lat="45.88821" lon="7.18881">
        <ele>2097</ele>
        <time>2018-05-12T10:49:45Z</time>
      </trkpt>
      <trkpt lat="45.88788" lon="7.1888">
        <ele>2099</ele>
        <time>2018-05-12T10:50:45Z</time>
      </trkpt>
      <trkpt lat="45.88765" lon="7.18878">
        <ele>2100</ele>
        <time>2018-05-12T10:51:45Z</time>
      </trkpt>
      <trkpt lat="45.88752" lon="7.18876">
        <ele>2100</ele>
        <time>2018-05-12T10:52:45Z</time>
      </trkpt>
      <trkpt lat="45.88745" lon="7.18873">
        <ele>2109</ele>
        <time>2018-05-12T10:53:45Z</time>
      </trkpt>
      <trkpt lat="45.88741" lon="7.18869">
        <ele>2108</ele>
        <time>2018-05-12T10:54:45Z</time>
      </trkpt>
      <trkpt lat="45.88738" lon="7.18865">
        <ele>2108</ele>
        <time>2018-05-12T10:55:45Z</time>
      </trkpt>
      <trkpt lat="45.88734" lon="7.1886">
        <ele>2107</ele>
        <time>2018-05-12T10:56:45Z</time>
      </trkpt>
      <trkpt lat="45.88722" lon="7.18844">
        <ele>2107</ele>
        <time>2018-05-12T10:57:45Z</time>
      </trkpt>
      <trkpt lat="45.887" lon="7.18813">
        <ele>2102</ele>
        <time>2018-05-12T10:58:45Z</time>
      </trkpt>
      <trkpt lat="45.88694" lon="7.18806">
        <ele>2103</ele>
        <time>2018-05-12T10:59:45Z</time>
      </trkpt>
      <trkpt lat="45.88679" lon="7.18792">
        <ele>2103</ele>
        <time>2018-05-12T11:00:45Z</time>
      </trkpt>
      <trkpt lat="45.88666" lon="7.18782">
        <ele>2114</ele>
        <time>2018-05-12T11:01:45Z</time>
      </trkpt>
      <trkpt lat="45.8866" lon="7.18776">
        <ele>2114</ele>
        <time>2018-05-12T11:02:45Z</time>
      </trkpt>
      <trkpt lat="45.88656" lon="7.1877">
        <ele>2113</ele>
        <time>2018-05-12T11:03:45Z</time>
      </trkpt>
      <trkpt lat="45.88655" lon="7.18768">
        <ele>2113</ele>
        <time>2018-05-12T11:04:45Z</time>
      </trkpt>
      <trkpt lat="45.88651" lon="7.18759">
        <ele>2112</ele>
        <time>2018-05-12T11:05:45Z</time>
      </trkpt>
      <trkpt lat="45.88644" lon="7.18739">
        <ele>2112</ele>
        <time>2018-05-12T11:06:45Z</time>
      </trkpt>
      <trkpt lat="45.88637" lon="7.18723">
        <ele>2113</ele>
        <time>2018-05-12T11:07:45Z</time>
      </trkpt>
      <trkpt lat="45.88633" lon="7.18715">
        <ele>2114</ele>
        <time>2018-05-12T11:08:45Z</time>
      </trkpt>
      <trkpt lat="45.88631" lon="7.18713">
        <ele>2114</ele>
        <time>2018-05-12T11:09:45Z</time>
      </trkpt>
      <trkpt lat="45.88629" lon="7.18711">
        <ele>2115</ele>
        <time>2018-05-12T11:10:45Z</time>
      </trkpt>
      <trkpt lat="45.88627" lon="7.1871">
        <ele>2115</ele>
        <time>2018-05-12T11:11:45Z</time>
      </trkpt>
      <trkpt lat="45.88625" lon="7.1871">
        <ele>2115</ele>
        <time>2018-05-12T11:12:45Z</time>
      </trkpt>
      <trkpt lat="45.88622" lon="7.1871">
        <ele>2115</ele>
        <time>2018-05-12T11:13:45Z</time>
      </trkpt>
      <trkpt lat="45.88621" lon="7.18711">
        <ele>2115</ele>
        <time>2018-05-12T11:14:45Z</time>
      </trkpt>
      <trkpt lat="45.8862" lon="7.18714">
        <ele>2115</ele>
        <time>2018-05-12T11:15:45Z</time>
      </trkpt>
      <trkpt lat="45.8862" lon="7.18717">
        <ele>2115</ele>
        <time>2018-05-12T11:16:45Z</time>
      </trkpt>
      <trkpt lat="45.8862" lon="7.18724">
        <ele>2115</ele>
        <time>2018-05-12T11:17:45Z</time>
      </trkpt>
      <trkpt lat="45.88622" lon="7.18733">
        <ele>2115</ele>
        <time>2018-05-12T11:18:45Z</time>
      </trkpt>
      <trkpt lat="45.88623" lon="7.18738">
        <ele>2115</ele>
        <time>2018-05-12T11:19:45Z</time>
      </trkpt>
      <trkpt lat="45.88624" lon="7.18745">
        <ele>2114</ele>
        <time>2018-05-12T11:20:45Z</time>
      </trkpt>
      <trkpt lat="45.88624" lon="7.18754">
        <ele>2117</ele>
        <time>2018-05-12T11:21:45Z</time>
      </trkpt>
      <trkpt lat="45.88626" lon="7.18779">
        <ele>2118</ele>
        <time>2018-05-12T11:22:45Z</time>
      </trkpt>
      <trkpt lat="45.88628" lon="7.18788">
        <ele>2119</ele>
        <time>2018-05-12T11:23:45Z</time>
      </trkpt>
      <trkpt lat="45.8863" lon="7.18796">
        <ele>2119</ele>
        <time>2018-05-12T11:24:45Z</time>
      </trkpt>
      <trkpt lat="45.88633" lon="7.18806">
        <ele>2119</ele>
        <time>2018-05-12T11:25:45Z</time>
      </trkpt>
      <trkpt lat="45.88633" lon="7.1881">
        <ele>2119</ele>
        <time>2018-05-12T11:26:45Z</time>
      </trkpt>
      <trkpt lat="45.88632" lon="7.18812">
        <ele>2119</ele>
        <time>2018-05-12T11:27:45Z</time>
      </trkpt>
      <trkpt lat="45.88632" lon="7.18814">
        <ele>2120</ele>
        <time>2018-05-12T11:28:45Z</time>
      </trkpt>
      <trkpt lat="45.88628" lon="7.18817">
        <ele>2120</ele>
        <time>2018-05-12T11:29:45Z</time>
      </trkpt>
      <trkpt lat="45.88626" lon="7.18817">
        <ele>2121</ele>
        <time>2018-05-12T11:30:45Z</time>
      </trkpt>
      <trkpt lat="45.88624" lon="7.18817">
        <ele>2121</ele>
        <time>2018-05-12T11:31:45Z</time>
      </trkpt>
      <trkpt lat="45.88623" lon="7.18815">
        <ele>2121</ele>
        <time>2018-05-12T11:32:45Z</time>
      </trkpt>
      <trkpt lat="45.8862" lon="7.1881">
        <ele>2121</ele>
        <time>2018-05-12T11:33:45Z</time>
      </trkpt>
      <trkpt lat="45.88609" lon="7.18785">
        <ele>2121</ele>
        <time>2018-05-12T11:34:45Z</time>
      </trkpt>
      <trkpt lat="45.88594" lon="7.18749">
        <ele>2119</ele>
        <time>2018-05-12T11:35:45Z</time>
      </trkpt>
      <trkpt lat="45.88577" lon="7.18717">
        <ele>2138</ele>
        <time>2018-05-12T11:36:45Z</time>
      </trkpt>
      <trkpt lat="45.88558" lon="7.18677">
        <ele>2140</ele>
        <time>2018-05-12T11:37:45Z</time>
      </trkpt>
      <trkpt lat="45.88536" lon="7.18629">
        <ele>2146</ele>
        <time>2018-05-12T11:38:45Z</time>
      </trkpt>
      <trkpt lat="45.88515" lon="7.18586">
        <ele>2146</ele>
        <time>2018-05-12T11:39:45Z</time>
      </trkpt>
      <trkpt lat="45.88505" lon="7.18566">
        <ele>2150</ele>
        <time>2018-05-12T11:40:45Z</time>
      </trkpt>
      <trkpt lat="45.88494" lon="7.18554">
        <ele>2151</ele>
        <time>2018-05-12T11:41:45Z</time>
      </trkpt>
      <trkpt lat="45.8849" lon="7.18549">
        <ele>2152</ele>
        <time>2018-05-12T11:42:45Z</time>
      </trkpt>
      <trkpt lat="45.88484" lon="7.18544">
        <ele>2152</ele>
        <time>2018-05-12T11:43:45Z</time>
      </trkpt>
      <trkpt lat="45.88473" lon="7.18536">
        <ele>2153</ele>
        <time>2018-05-12T11:44:45Z</time>
      </trkpt>
      <trkpt lat="45.88467" lon="7.18534">
        <ele>2153</ele>
        <time>2018-05-12T11:45:45Z</time>
      </trkpt>
      <trkpt lat="45.88458" lon="7.18532">
        <ele>2154</ele>
        <time>2018-05-12T11:46:45Z</time>
      </trkpt>
      <trkpt lat="45.8845" lon="7.18531">
        <ele>2154</ele>
        <time>2018-05-12T11:47:45Z</time>
      </trkpt>
      <trkpt lat="45.88417" lon="7.18529">
        <ele>2155</ele>
        <time>2018-05-12T11:48:45Z</time>
      </trkpt>
      <trkpt lat="45.8836" lon="7.18536">
        <ele>2168</ele>
        <time>2018-05-12T11:49:45Z</time>
      </trkpt>
      <trkpt lat="45.88302" lon="7.18545">
        <ele>2179</ele>
        <time>2018-05-12T11:50:45Z</time>
      </trkpt>
      <trkpt lat="45.88288" lon="7.18546">
        <ele>2180</ele>
        <time>2018-05-12T11:51:45Z</time>
      </trkpt>
      <trkpt lat="45.88282" lon="7.18545">
        <ele>2180</ele>
        <time>2018-05-12T11:52:45Z</time>
      </trkpt>
      <trkpt lat="45.88277" lon="7.18543">
        <ele>2180</ele>
        <time>2018-05-12T11:53:45Z</time>
      </trkpt>
      <trkpt lat="45.88265" lon="7.18537">
        <ele>2180</ele>
        <time>2018-05-12T11:54:45Z</time>
      </trkpt>
      <trkpt lat="45.88256" lon="7.1853">
        <ele>2179</ele>
        <time>2018-05-12T11:55:45Z</time>
      </trkpt>
      <trkpt lat="45.88243" lon="7.18516">
        <ele>2184</ele>
        <time>2018-05-12T11:56:45Z</time>
      </trkpt>
      <trkpt lat="45.88208" lon="7.18476">
        <ele>2184</ele>
        <time>2018-05-12T11:57:45Z</time>
      </trkpt>
      <trkpt lat="45.88188" lon="7.18454">
        <ele>2184</ele>
        <time>2018-05-12T11:58:45Z</time>
      </trkpt>
      <trkpt lat="45.8818" lon="7.18447">
        <ele>2184</ele>
        <time>2018-05-12T11:59:45Z</time>
      </trkpt>
      <trkpt lat="45.88161" lon="7.18434">
        <ele>2188</ele>
        <time>2018-05-12T12:00:45Z</time>
      </trkpt>
      <trkpt lat="45.88127" lon="7.18418">
        <ele>2192</ele>
        <time>2018-05-12T12:01:45Z</time>
      </trkpt>
      <trkpt lat="45.88082" lon="7.18405">
        <ele>2197</ele>
        <time>2018-05-12T12:02:45Z</time>
      </trkpt>
      <trkpt lat="45.88074" lon="7.184">
        <ele>2198</ele>
        <time>2018-05-12T12:03:45Z</time>
      </trkpt>
      <trkpt lat="45.8807" lon="7.18394">
        <ele>2198</ele>
        <time>2018-05-12T12:04:45Z</time>
      </trkpt>
      <trkpt lat="45.88067" lon="7.18369">
        <ele>2198</ele>
        <time>2018-05-12T12:05:45Z</time>
      </trkpt>
      <trkpt lat="45.88064" lon="7.18328">
        <ele>2196</ele>
        <time>2018-05-12T12:06:45Z</time>
      </trkpt>
      <trkpt lat="45.8806" lon="7.18297">
        <ele>2199</ele>
        <time>2018-05-12T12:07:45Z</time>
      </trkpt>
      <trkpt lat="45.88058" lon="7.18275">
        <ele>2200</ele>
        <time>2018-05-12T12:08:45Z</time>
      </trkpt>
      <trkpt lat="45.88055" lon="7.18267">
        <ele>2201</ele>
        <time>2018-05-12T12:09:45Z</time>
      </trkpt>
      <trkpt lat="45.88051" lon="7.18262">
        <ele>2201</ele>
        <time>2018-05-12T12:10:45Z</time>
      </trkpt>
      <trkpt lat="45.88047" lon="7.18262">
        <ele>2201</ele>
        <time>2018-05-12T12:11:45Z</time>
      </trkpt>
      <trkpt lat="45.88045" lon="7.18262">
        <ele>2201</ele>
        <time>2018-05-12T12:12:45Z</time>
      </trkpt>
      <trkpt lat="45.88042" lon="7.18263">
        <ele>2201</ele>
        <time>2018-05-12T12:13:45Z</time>
      </trkpt>
      <trkpt lat="45.8804" lon="7.18266">
        <ele>2201</ele>
        <time>2018-05-12T12:14:45Z</time>
      </trkpt>
      <trkpt lat="45.8803" lon="7.18283">
        <ele>2201</ele>
        <time>2018-05-12T12:15:45Z</time>
      </trkpt>
      <trkpt lat="45.88024" lon="7.18294">
        <ele>2201</ele>
        <time>2018-05-12T12:16:45Z</time>
      </trkpt>
      <trkpt lat="45.88017" lon="7.18307">
        <ele>2200</ele>
        <time>2018-05-12T12:17:45Z</time>
      </trkpt>
      <trkpt lat="45.88013" lon="7.18314">
        <ele>2200</ele>
        <time>2018-05-12T12:18:45Z</time>
      </trkpt>
      <trkpt lat="45.8801" lon="7.18317">
        <ele>2201</ele>
        <time>2018-05-12T12:19:45Z</time>
      </trkpt>
      <trkpt lat="45.88006" lon="7.18318">
        <ele>2201</ele>
        <time>2018-05-12T12:20:45Z</time>
      </trkpt>
      <trkpt lat="45.88002" lon="7.18317">
        <ele>2201</ele>
        <time>2018-05-12T12:21:45Z</time>
      </trkpt>
      <trkpt lat="45.88" lon="7.18316">
        <ele>2201</ele>
        <time>2018-05-12T12:22:45Z</time>
      </trkpt>
      <trkpt lat="45.87997" lon="7.18312">
        <ele>2206</ele>
        <time>2018-05-12T12:23:45Z</time>
      </trkpt>
      <trkpt lat="45.87995" lon="7.18309">
        <ele>2206</ele>
        <time>2018-05-12T12:24:45Z</time>
      </trkpt>
      <trkpt lat="45.8799" lon="7.18294">
        <ele>2208</ele>
        <time>2018-05-12T12:25:45Z</time>
      </trkpt>
      <trkpt lat="45.87986" lon="7.18283">
        <ele>2208</ele>
        <time>2018-05-12T12:26:45Z</time>
      </trkpt>
      <trkpt lat="45.87977" lon="7.18257">
        <ele>2209</ele>
        <time>2018-05-12T12:27:45Z</time>
      </trkpt>
      <trkpt lat="45.87965" lon="7.18247">
        <ele>2215</ele>
        <time>2018-05-12T12:28:45Z</time>
      </trkpt>
      <trkpt lat="45.87958" lon="7.18246">
        <ele>2216</ele>
        <time>2018-05-12T12:29:45Z</time>
      </trkpt>
      <trkpt lat="45.87949" lon="7.18248">
        <ele>2216</ele>
        <time>2018-05-12T12:30:45Z</time>
      </trkpt>
      <trkpt lat="45.8789" lon="7.18278">
        <ele>2221</ele>
        <time>2018-05-12T12:31:45Z</time>
      </trkpt>
      <trkpt lat="45.87856" lon="7.18292">
        <ele>2223</ele>
        <time>2018-05-12T12:32:45Z</time>
      </trkpt>
      <trkpt lat="45.87813" lon="7.18302">
        <ele>2232</ele>
        <time>2018-05-12T12:33:45Z</time>
      </trkpt>
      <trkpt lat="45.87802" lon="7.18304">
        <ele>2232</ele>
        <time>2018-05-12T12:34:45Z</time>
      </trkpt>
      <trkpt lat="45.87775" lon="7.18309">
        <ele>2234</ele>
        <time>2018-05-12T12:35:45Z</time>
      </trkpt>
      <trkpt lat="45.87765" lon="7.18307">
        <ele>2235</ele>
        <time>2018-05-12T12:36:45Z</time>
      </trkpt>
      <trkpt lat="45.8775" lon="7.18297">
        <ele>2241</ele>
        <time>2018-05-12T12:37:45Z</time>
      </trkpt>
      <trkpt lat="45.87714" lon="7.18263">
        <ele>2243</ele>
        <time>2018-05-12T12:38:45Z</time>
      </trkpt>
      <trkpt lat="45.87662" lon="7.18224">
        <ele>2249</ele>
        <time>2018-05-12T12:39:45Z</time>
      </trkpt>
      <trkpt lat="45.8763" lon="7.18197">
        <ele>2251</ele>
        <time>2018-05-12T12:40:45Z</time>
      </trkpt>
      <trkpt lat="45.87607" lon="7.18171">
        <ele>2252</ele>
        <time>2018-05-12T12:41:45Z</time>
      </trkpt>
      <trkpt lat="45.87594" lon="7.18161">
        <ele>2258</ele>
        <time>2018-05-12T12:42:45Z</time>
      </trkpt>
      <trkpt lat="45.87533" lon="7.18131">
        <ele>2263</ele>
        <time>2018-05-12T12:43:45Z</time>
      </trkpt>
      <trkpt lat="45.87489" lon="7.18123">
        <ele>2269</ele>
        <time>2018-05-12T12:44:45Z</time>
      </trkpt>
      <trkpt lat="45.87458" lon="7.18103">
        <ele>2271</ele>
        <time>2018-05-12T12:45:45Z</time>
      </trkpt>
      <trkpt lat="45.87445" lon="7.18095">
        <ele>2273</ele>
        <time>2018-05-12T12:46:45Z</time>
      </trkpt>
      <trkpt lat="45.87438" lon="7.18093">
        <ele>2273</ele>
        <time>2018-05-12T12:47:45Z</time>
      </trkpt>
      <trkpt lat="45.8741" lon="7.18093">
        <ele>2280</ele>
        <time>2018-05-12T12:48:45Z</time>
      </trkpt>
      <trkpt lat="45.87404" lon="7.18092">
        <ele>2281</ele>
        <time>2018-05-12T12:49:45Z</time>
      </trkpt>
      <trkpt lat="45.874" lon="7.18089">
        <ele>2281</ele>
        <time>2018-05-12T12:50:45Z</time>
      </trkpt>
      <trkpt lat="45.87397" lon="7.18086">
        <ele>2282</ele>
        <time>2018-05-12T12:51:45Z</time>
      </trkpt>
      <trkpt lat="45.87396" lon="7.18081">
        <ele>2289</ele>
        <time>2018-05-12T12:52:45Z</time>
      </trkpt>
      <trkpt lat="45.87396" lon="7.18073">
        <ele>2290</ele>
        <time>2018-05-12T12:53:45Z</time>
      </trkpt>
      <trkpt lat="45.87397" lon="7.18069">
        <ele>2290</ele>
        <time>2018-05-12T12:54:45Z</time>
      </trkpt>
      <trkpt lat="45.87403" lon="7.18061">
        <ele>2291</ele>
        <time>2018-05-12T12:55:45Z</time>
      </trkpt>
      <trkpt lat="45.87433" lon="7.18031">
        <ele>2289</ele>
        <time>2018-05-12T12:56:45Z</time>
      </trkpt>
      <trkpt lat="45.87453" lon="7.18015">
        <ele>2289</ele>
        <time>2018-05-12T12:57:45Z</time>
      </trkpt>
      <trkpt lat="45.87471" lon="7.1801">
        <ele>2289</ele>
        <time>2018-05-12T12:58:45Z</time>
      </trkpt>
      <trkpt lat="45.87491" lon="7.1801">
        <ele>2289</ele>
        <time>2018-05-12T12:59:45Z</time>
      </trkpt>
      <trkpt lat="45.87507" lon="7.18014">
        <ele>2288</ele>
        <time>2018-05-12T13:00:45Z</time>
      </trkpt>
      <trkpt lat="45.87515" lon="7.18014">
        <ele>2287</ele>
        <time>2018-05-12T13:01:45Z</time>
      </trkpt>
      <trkpt lat="45.87525" lon="7.18012">
        <ele>2287</ele>
        <time>2018-05-12T13:02:45Z</time>
      </trkpt>
      <trkpt lat="45.87558" lon="7.17995">
        <ele>2309</ele>
        <time>2018-05-12T13:03:45Z</time>
      </trkpt>
      <trkpt lat="45.87571" lon="7.17993">
        <ele>2308</ele>
        <time>2018-05-12T13:04:45Z</time>
      </trkpt>
      <trkpt lat="45.87577" lon="7.17996">
        <ele>2305</ele>
        <time>2018-05-12T13:05:45Z</time>
      </trkpt>
      <trkpt lat="45.87611" lon="7.18018">
        <ele>2294</ele>
        <time>2018-05-12T13:06:45Z</time>
      </trkpt>
      <trkpt lat="45.87645" lon="7.18029">
        <ele>2294</ele>
        <time>2018-05-12T13:07:45Z</time>
      </trkpt>
      <trkpt lat="45.87671" lon="7.18029">
        <ele>2298</ele>
        <time>2018-05-12T13:08:45Z</time>
      </trkpt>
      <trkpt lat="45.87677" lon="7.18028">
        <ele>2298</ele>
        <time>2018-05-12T13:09:45Z</time>
      </trkpt>
      <trkpt lat="45.87679" lon="7.18026">
        <ele>2299</ele>
        <time>2018-05-12T13:10:45Z</time>
      </trkpt>
      <trkpt lat="45.87681" lon="7.18024">
        <ele>2299</ele>
        <time>2018-05-12T13:11:45Z</time>
      </trkpt>
      <trkpt lat="45.87681" lon="7.18021">
        <ele>2300</ele>
        <time>2018-05-12T13:12:45Z</time>
      </trkpt>
      <trkpt lat="45.8768" lon="7.18018">
        <ele>2301</ele>
        <time>2018-05-12T13:13:45Z</time>
      </trkpt>
      <trkpt lat="45.87678" lon="7.18016">
        <ele>2302</ele>
        <time>2018-05-12T13:14:45Z</time>
      </trkpt>
      <trkpt lat="45.87676" lon="7.18015">
        <ele>2303</ele>
        <time>2018-05-12T13:15:45Z</time>
      </trkpt>
      <trkpt lat="45.87669" lon="7.18013">
        <ele>2305</ele>
        <time>2018-05-12T13:16:45Z</time>
      </trkpt>
      <trkpt lat="45.87655" lon="7.18013">
        <ele>2301</ele>
        <time>2018-05-12T13:17:45Z</time>
      </trkpt>
      <trkpt lat="45.87633" lon="7.1801">
        <ele>2297</ele>
        <time>2018-05-12T13:18:45Z</time>
      </trkpt>
      <trkpt lat="45.87623" lon="7.18003">
        <ele>2296</ele>
        <time>2018-05-12T13:19:45Z</time>
      </trkpt>
      <trkpt lat="45.87611" lon="7.17991">
        <ele>2320</ele>
        <time>2018-05-12T13:20:45Z</time>
      </trkpt>
      <trkpt lat="45.87599" lon="7.17976">
        <ele>2322</ele>
        <time>2018-05-12T13:21:45Z</time>
      </trkpt>
      <trkpt lat="45.87586" lon="7.17958">
        <ele>2328</ele>
        <time>2018-05-12T13:22:45Z</time>
      </trkpt>
      <trkpt lat="45.87571" lon="7.17942">
        <ele>2325</ele>
        <time>2018-05-12T13:23:45Z</time>
      </trkpt>
      <trkpt lat="45.87565" lon="7.17937">
        <ele>2325</ele>
        <time>2018-05-12T13:24:45Z</time>
      </trkpt>
      <trkpt lat="45.87559" lon="7.17935">
        <ele>2325</ele>
        <time>2018-05-12T13:25:45Z</time>
      </trkpt>
      <trkpt lat="45.87538" lon="7.17934">
        <ele>2321</ele>
        <time>2018-05-12T13:26:45Z</time>
      </trkpt>
      <trkpt lat="45.87518" lon="7.17938">
        <ele>2320</ele>
        <time>2018-05-12T13:27:45Z</time>
      </trkpt>
      <trkpt lat="45.87513" lon="7.17938">
        <ele>2321</ele>
        <time>2018-05-12T13:28:45Z</time>
      </trkpt>
      <trkpt lat="45.87508" lon="7.17937">
        <ele>2321</ele>
        <time>2018-05-12T13:29:45Z</time>
      </trkpt>
      <trkpt lat="45.87502" lon="7.17934">
        <ele>2322</ele>
        <time>2018-05-12T13:30:45Z</time>
      </trkpt>
      <trkpt lat="45.87491" lon="7.17926">
        <ele>2324</ele>
        <time>2018-05-12T13:31:45Z</time>
      </trkpt>
      <trkpt lat="45.87481" lon="7.1792">
        <ele>2323</ele>
        <time>2018-05-12T13:32:45Z</time>
      </trkpt>
      <trkpt lat="45.87473" lon="7.17918">
        <ele>2323</ele>
        <time>2018-05-12T13:33:45Z</time>
      </trkpt>
      <trkpt lat="45.87468" lon="7.17918">
        <ele>2322</ele>
        <time>2018-05-12T13:34:45Z</time>
      </trkpt>
      <trkpt lat="45.87463" lon="7.17921">
        <ele>2322</ele>
        <time>2018-05-12T13:35:45Z</time>
      </trkpt>
      <trkpt lat="45.87453" lon="7.17929">
        <ele>2322</ele>
        <time>2018-05-12T13:36:45Z</time>
      </trkpt>
      <trkpt lat="45.87443" lon="7.17936">
        <ele>2323</ele>
        <time>2018-05-12T13:37:45Z</time>
      </trkpt>
      <trkpt lat="45.87438" lon="7.17938">
        <ele>2323</ele>
        <time>2018-05-12T13:38:45Z</time>
      </trkpt>
      <trkpt lat="45.87434" lon="7.17939">
        <ele>2323</ele>
        <time>2018-05-12T13:39:45Z</time>
      </trkpt>
      <trkpt lat="45.87423" lon="7.17935">
        <ele>2327</ele>
        <time>2018-05-12T13:40:45Z</time>
      </trkpt>
      <trkpt lat="45.87403" lon="7.17923">
        <ele>2335</ele>
        <time>2018-05-12T13:41:45Z</time>
      </trkpt>
      <trkpt lat="45.87379" lon="7.17912">
        <ele>2359</ele>
        <time>2018-05-12T13:42:45Z</time>
      </trkpt>
      <trkpt lat="45.87368" lon="7.17912">
        <ele>2360</ele>
        <time>2018-05-12T13:43:45Z</time>
      </trkpt>
      <trkpt lat="45.87358" lon="7.17913">
        <ele>2359</ele>
        <time>2018-05-12T13:44:45Z</time>
      </trkpt>
      <trkpt lat="45.87341" lon="7.17919">
        <ele>2346</ele>
        <time>2018-05-12T13:45:45Z</time>
      </trkpt>
      <trkpt lat="45.87329" lon="7.1792">
        <ele>2350</ele>
        <time>2018-05-12T13:46:45Z</time>
      </trkpt>
      <trkpt lat="45.87322" lon="7.1792">
        <ele>2348</ele>
        <time>2018-05-12T13:47:45Z</time>
      </trkpt>
      <trkpt lat="45.87305" lon="7.17917">
        <ele>2346</ele>
        <time>2018-05-12T13:48:45Z</time>
      </trkpt>
      <trkpt lat="45.87295" lon="7.17911">
        <ele>2365</ele>
        <time>2018-05-12T13:49:45Z</time>
      </trkpt>
      <trkpt lat="45.87287" lon="7.17908">
        <ele>2366</ele>
        <time>2018-05-12T13:50:45Z</time>
      </trkpt>
      <trkpt lat="45.87282" lon="7.17907">
        <ele>2366</ele>
        <time>2018-05-12T13:51:45Z</time>
      </trkpt>
      <trkpt lat="45.87276" lon="7.17906">
        <ele>2366</ele>
        <time>2018-05-12T13:52:45Z</time>
      </trkpt>
      <trkpt lat="45.87272" lon="7.17907">
        <ele>2366</ele>
        <time>2018-05-12T13:53:45Z</time>
      </trkpt>
      <trkpt lat="45.87263" lon="7.1791">
        <ele>2365</ele>
        <time>2018-05-12T13:54:45Z</time>
      </trkpt>
      <trkpt lat="45.8724" lon="7.17929">
        <ele>2354</ele>
        <time>2018-05-12T13:55:45Z</time>
      </trkpt>
      <trkpt lat="45.87221" lon="7.17948">
        <ele>2349</ele>
        <time>2018-05-12T13:56:45Z</time>
      </trkpt>
      <trkpt lat="45.87216" lon="7.17952">
        <ele>2348</ele>
        <time>2018-05-12T13:57:45Z</time>
      </trkpt>
      <trkpt lat="45.87212" lon="7.17954">
        <ele>2348</ele>
        <time>2018-05-12T13:58:45Z</time>
      </trkpt>
      <trkpt lat="45.87209" lon="7.17955">
        <ele>2348</ele>
        <time>2018-05-12T13:59:45Z</time>
      </trkpt>
      <trkpt lat="45.87205" lon="7.17954">
        <ele>2348</ele>
        <time>2018-05-12T14:00:45Z</time>
      </trkpt>
      <trkpt lat="45.872" lon="7.17952">
        <ele>2348</ele>
        <time>2018-05-12T14:01:45Z</time>
      </trkpt>
      <trkpt lat="45.87191" lon="7.17943">
        <ele>2350</ele>
        <time>2018-05-12T14:02:45Z</time>
      </trkpt>
      <trkpt lat="45.87149" lon="7.1789">
        <ele>2369</ele>
        <time>2018-05-12T14:03:45Z</time>
      </trkpt>
      <trkpt lat="45.8713" lon="7.17862">
        <ele>2372</ele>
        <time>2018-05-12T14:04:45Z</time>
      </trkpt>
      <trkpt lat="45.87114" lon="7.17839">
        <ele>2373</ele>
        <time>2018-05-12T14:05:45Z</time>
      </trkpt>
      <trkpt lat="45.87052" lon="7.17743">
        <ele>2394</ele>
        <time>2018-05-12T14:06:45Z</time>
      </trkpt>
      <trkpt lat="45.87042" lon="7.17727">
        <ele>2393</ele>
        <time>2018-05-12T14:07:45Z</time>
      </trkpt>
      <trkpt lat="45.8704" lon="7.17722">
        <ele>2393</ele>
        <time>2018-05-12T14:08:45Z</time>
      </trkpt>
      <trkpt lat="45.87039" lon="7.17715">
        <ele>2394</ele>
        <time>2018-05-12T14:09:45Z</time>
      </trkpt>
      <trkpt lat="45.87039" lon="7.17712">
        <ele>2395</ele>
        <time>2018-05-12T14:10:45Z</time>
      </trkpt>
      <trkpt lat="45.8704" lon="7.17708">
        <ele>2395</ele>
        <time>2018-05-12T14:11:45Z</time>
      </trkpt>
      <trkpt lat="45.87043" lon="7.17704">
        <ele>2396</ele>
        <time>2018-05-12T14:12:45Z</time>
      </trkpt>
      <trkpt lat="45.87046" lon="7.17703">
        <ele>2397</ele>
        <time>2018-05-12T14:13:45Z</time>
      </trkpt>
      <trkpt lat="45.87049" lon="7.17703">
        <ele>2398</ele>
        <time>2018-05-12T14:14:45Z</time>
      </trkpt>
      <trkpt lat="45.87051" lon="7.17706">
        <ele>2398</ele>
        <time>2018-05-12T14:15:45Z</time>
      </trkpt>
      <trkpt lat="45.87055" lon="7.17715">
        <ele>2397</ele>
        <time>2018-05-12T14:16:45Z</time>
      </trkpt>
      <trkpt lat="45.87065" lon="7.17737">
        <ele>2396</ele>
        <time>2018-05-12T14:17:45Z</time>
      </trkpt>
      <trkpt lat="45.8708" lon="7.17758">
        <ele>2391</ele>
        <time>2018-05-12T14:18:45Z</time>
      </trkpt>
      <trkpt lat="45.87122" lon="7.17795">
        <ele>2392</ele>
        <time>2018-05-12T14:19:45Z</time>
      </trkpt>
      <trkpt lat="45.87162" lon="7.1784">
        <ele>2386</ele>
        <time>2018-05-12T14:20:45Z</time>
      </trkpt>
      <trkpt lat="45.87168" lon="7.17843">
        <ele>2386</ele>
        <time>2018-05-12T14:21:45Z</time>
      </trkpt>
      <trkpt lat="45.87172" lon="7.17844">
        <ele>2385</ele>
        <time>2018-05-12T14:22:45Z</time>
      </trkpt>
      <trkpt lat="45.87177" lon="7.17841">
        <ele>2385</ele>
        <time>2018-05-12T14:23:45Z</time>
      </trkpt>
      <trkpt lat="45.8718" lon="7.17838">
        <ele>2384</ele>
        <time>2018-05-12T14:24:45Z</time>
      </trkpt>
      <trkpt lat="45.87182" lon="7.17832">
        <ele>2394</ele>
        <time>2018-05-12T14:25:45Z</time>
      </trkpt>
      <trkpt lat="45.87182" lon="7.17825">
        <ele>2395</ele>
        <time>2018-05-12T14:26:45Z</time>
      </trkpt>
      <trkpt lat="45.87181" lon="7.17817">
        <ele>2396</ele>
        <time>2018-05-12T14:27:45Z</time>
      </trkpt>
      <trkpt lat="45.87178" lon="7.17811">
        <ele>2396</ele>
        <time>2018-05-12T14:28:45Z</time>
      </trkpt>
      <trkpt lat="45.87152" lon="7.17787">
        <ele>2397</ele>
        <time>2018-05-12T14:29:45Z</time>
      </trkpt>
      <trkpt lat="45.87114" lon="7.17754">
        <ele>2396</ele>
        <time>2018-05-12T14:30:45Z</time>
      </trkpt>
      <trkpt lat="45.871" lon="7.17738">
        <ele>2409</ele>
        <time>2018-05-12T14:31:45Z</time>
      </trkpt>
      <trkpt lat="45.87085" lon="7.17714">
        <ele>2414</ele>
        <time>2018-05-12T14:32:45Z</time>
      </trkpt>
      <trkpt lat="45.87078" lon="7.17695">
        <ele>2405</ele>
        <time>2018-05-12T14:33:45Z</time>
      </trkpt>
      <trkpt lat="45.87073" lon="7.17661">
        <ele>2422</ele>
        <time>2018-05-12T14:34:45Z</time>
      </trkpt>
      <trkpt lat="45.87067" lon="7.17642">
        <ele>2421</ele>
        <time>2018-05-12T14:35:45Z</time>
      </trkpt>
      <trkpt lat="45.87025" lon="7.17578">
        <ele>2431</ele>
        <time>2018-05-12T14:36:45Z</time>
      </trkpt>
      <trkpt lat="45.87019" lon="7.17568">
        <ele>2430</ele>
        <time>2018-05-12T14:37:45Z</time>
      </trkpt>
      <trkpt lat="45.87015" lon="7.17558">
        <ele>2432</ele>
        <time>2018-05-12T14:38:45Z</time>
      </trkpt>
      <trkpt lat="45.87014" lon="7.17544">
        <ele>2435</ele>
        <time>2018-05-12T14:39:45Z</time>
      </trkpt>
      <trkpt lat="45.87015" lon="7.17524">
        <ele>2437</ele>
        <time>2018-05-12T14:40:45Z</time>
      </trkpt>
      <trkpt lat="45.87013" lon="7.17511">
        <ele>2436</ele>
        <time>2018-05-12T14:41:45Z</time>
      </trkpt>
      <trkpt lat="45.87009" lon="7.17498">
        <ele>2441</ele>
        <time>2018-05-12T14:42:45Z</time>
      </trkpt>
      <trkpt lat="45.86997" lon="7.17456">
        <ele>2431</ele>
        <time>2018-05-12T14:43:45Z</time>
      </trkpt>
      <trkpt lat="45.86997" lon="7.17453">
        <ele>2432</ele>
        <time>2018-05-12T14:44:45Z</time>
      </trkpt>
      <trkpt lat="45.8699" lon="7.17418">
        <ele>2446</ele>
        <time>2018-05-12T14:45:45Z</time>
      </trkpt>
      <trkpt lat="45.86988" lon="7.17408">
        <ele>2453</ele>
        <time>2018-05-12T14:46:45Z</time>
      </trkpt>
      <trkpt lat="45.86983" lon="7.17398">
        <ele>2451</ele>
        <time>2018-05-12T14:47:45Z</time>
      </trkpt>
      <trkpt lat="45.86947" lon="7.17329">
        <ele>2463</ele>
        <time>2018-05-12T14:48:45Z</time>
      </trkpt>
      <trkpt lat="45.8694" lon="7.17313">
        <ele>2463</ele>
        <time>2018-05-12T14:49:45Z</time>
      </trkpt>
      <trkpt lat="45.86939" lon="7.17306">
        <ele>2464</ele>
        <time>2018-05-12T14:50:45Z</time>
      </trkpt>
      <trkpt lat="45.86939" lon="7.17296">
        <ele>2466</ele>
        <time>2018-05-12T14:51:45Z</time>
      </trkpt>
      <trkpt lat="45.86941" lon="7.17267">
        <ele>2469</ele>
        <time>2018-05-12T14:52:45Z</time>
      </trkpt>
      <trkpt lat="45.86943" lon="7.17244">
        <ele>2479</ele>
        <time>2018-05-12T14:53:45Z</time>
      </trkpt>
      <trkpt lat="45.86941" lon="7.17225">
        <ele>2481</ele>
        <time>2018-05-12T14:54:45Z</time>
      </trkpt>
      <trkpt lat="45.86938" lon="7.17212">
        <ele>2483</ele>
        <time>2018-05-12T14:55:45Z</time>
      </trkpt>
      <trkpt lat="45.86933" lon="7.17201">
        <ele>2482</ele>
        <time>2018-05-12T14:56:45Z</time>
      </trkpt>
      <trkpt lat="45.86924" lon="7.17187">
        <ele>2480</ele>
        <time>2018-05-12T14:57:45Z</time>
      </trkpt>
      <trkpt lat="45.86916" lon="7.17173">
        <ele>2472</ele>
        <time>2018-05-12T14:58:45Z</time>
      </trkpt>
      <trkpt lat="45.86908" lon="7.17154">
        <ele>2475</ele>
        <time>2018-05-12T14:59:45Z</time>
      </trkpt>
      <trkpt lat="45.86904" lon="7.17136">
        <ele>2477</ele>
        <time>2018-05-12T15:00:45Z</time>
      </trkpt>
      <trkpt lat="45.86894" lon="7.17091">
        <ele>2478</ele>
        <time>2018-05-12T15:01:45Z</time>
      </trkpt>
      <trkpt lat="45.86898" lon="7.17079">
        <ele>2477</ele>
        <time>2018-05-12T15:02:45Z</time>
      </trkpt>
      <trkpt lat="45.869" lon="7.17071">
        <ele>2476</ele>
        <time>2018-05-12T15:03:45Z</time>
      </trkpt>
      <trkpt lat="45.86905" lon="7.17058">
        <ele>2476</ele>
        <time>2018-05-12T15:04:45Z</time>
      </trkpt>
      <trkpt lat="45.86909" lon="7.17048">
        <ele>2475</ele>
        <time>2018-05-12T15:05:45Z</time>
      </trkpt>
      <trkpt lat="45.86911" lon="7.17043">
        <ele>2475</ele>
        <time>2018-05-12T15:06:45Z</time>
      </trkpt>
      <trkpt lat="45.86918" lon="7.1703">
        <ele>2485</ele>
        <time>2018-05-12T15:07:45Z</time>
      </trkpt>
      <trkpt lat="45.86932" lon="7.17006">
        <ele>2482</ele>
        <time>2018-05-12T15:08:45Z</time>
      </trkpt>
      <trkpt lat="45.86936" lon="7.16993">
        <ele>2479</ele>
        <time>2018-05-12T15:09:45Z</time>
      </trkpt>
      <trkpt lat="45.8694" lon="7.1698">
        <ele>2480</ele>
        <time>2018-05-12T15:10:45Z</time>
      </trkpt>
      <trkpt lat="45.86957" lon="7.16889">
        <ele>2476</ele>
        <time>2018-05-12T15:11:45Z</time>
      </trkpt>
      <trkpt lat="45.86961" lon="7.16862">
        <ele>2476</ele>
        <time>2018-05-12T15:12:45Z</time>
      </trkpt>
      <trkpt lat="45.86962" lon="7.16847">
        <ele>2476</ele>
        <time>2018-05-12T15:13:45Z</time>
      </trkpt>
      <trkpt lat="45.8696" lon="7.16837">
        <ele>2475</ele>
        <time>2018-05-12T15:14:45Z</time>
      </trkpt>
      <trkpt lat="45.8694" lon="7.16755">
        <ele>2469</ele>
        <time>2018-05-12T15:15:45Z</time>
      </trkpt>
      <trkpt lat="45.86932" lon="7.16727">
        <ele>2470</ele>
        <time>2018-05-12T15:16:45Z</time>
      </trkpt>
      <trkpt lat="45.8693" lon="7.16713">
        <ele>2471</ele>
        <time>2018-05-12T15:17:45Z</time>
      </trkpt>
      <trkpt lat="45.86928" lon="7.16659">
        <ele>2465</ele>
        <time>2018-05-12T15:18:45Z</time>
      </trkpt>
      <trkpt lat="45.86927" lon="7.16631">
        <ele>2470</ele>
        <time>2018-05-12T15:19:45Z</time>
      </trkpt>
      <trkpt lat="45.86923" lon="7.16609">
        <ele>2469</ele>
        <time>2018-05-12T15:20:45Z</time>
      </trkpt>
      <trkpt lat="45.86914" lon="7.16583">
        <ele>2459</ele>
        <time>2018-05-12T15:21:45Z</time>
      </trkpt>
      <trkpt lat="45.86909" lon="7.16573">
        <ele>2459</ele>
        <time>2018-05-12T15:22:45Z</time>
      </trkpt>
      <trkpt lat="45.86896" lon="7.16558">
        <ele>2458</ele>
        <time>2018-05-12T15:23:45Z</time>
      </trkpt>
      <trkpt lat="45.86896" lon="7.16558">
        <ele>2458</ele>
        <time>2018-05-12T15:24:45Z</time>
      </trkpt>
      <trkpt lat="45.86887" lon="7.16551">
        <ele>2458</ele>
        <time>2018-05-12T15:25:45Z</time>
      </trkpt>
      <trkpt lat="45.8688" lon="7.16546">
        <ele>2458</ele>
        <time>2018-05-12T15:26:45Z</time>
      </trkpt>
      <trkpt lat="45.86867" lon="7.16538">
        <ele>2457</ele>
        <time>2018-05-12T15:27:45Z</time>
      </trkpt>
      <trkpt lat="45.86845" lon="7.16531">
        <ele>2456</ele>
        <time>2018-05-12T15:28:45Z</time>
      </trkpt>
      <trkpt lat="45.86829" lon="7.16528">
        <ele>2454</ele>
        <time>2018-05-12T15:29:45Z</time>
      </trkpt>
      <trkpt lat="45.86818" lon="7.16528">
        <ele>2454</ele>
        <time>2018-05-12T15:30:45Z</time>
      </trkpt>
      <trkpt lat="45.868" lon="7.16524">
        <ele>2454</ele>
        <time>2018-05-12T15:31:45Z</time>
      </trkpt>
      <trkpt lat="45.86787" lon="7.1652">
        <ele>2454</ele>
        <time>2018-05-12T15:32:45Z</time>
      </trkpt>
      <trkpt lat="45.86769" lon="7.16511">
        <ele>2454</ele>
        <time>2018-05-12T15:33:45Z</time>
      </trkpt>
      <trkpt lat="45.86761" lon="7.16506">
        <ele>2454</ele>
        <time>2018-05-12T15:34:45Z</time>
      </trkpt>
      <trkpt lat="45.86757" lon="7.16504">
        <ele>2453</ele>
        <time>2018-05-12T15:35:45Z</time>
      </trkpt>
      <trkpt lat="45.8675" lon="7.16498">
        <ele>2452</ele>
        <time>2018-05-12T15:36:45Z</time>
      </trkpt>
      <trkpt lat="45.86733" lon="7.16486">
        <ele>2449</ele>
        <time>2018-05-12T15:37:45Z</time>
      </trkpt>
      <trkpt lat="45.86724" lon="7.16475">
        <ele>2447</ele>
        <time>2018-05-12T15:38:45Z</time>
      </trkpt>
      <trkpt lat="45.86718" lon="7.16464">
        <ele>2446</ele>
        <time>2018-05-12T15:39:45Z</time>
      </trkpt>
      <trkpt lat="45.86714" lon="7.16453">
        <ele>2445</ele>
        <time>2018-05-12T15:40:45Z</time>
      </trkpt>
      <trkpt lat="45.8671" lon="7.16437">
        <ele>2444</ele>
        <time>2018-05-12T15:41:45Z</time>
      </trkpt>
      <trkpt lat="45.86706" lon="7.16408">
        <ele>2434</ele>
        <time>2018-05-12T15:42:45Z</time>
      </trkpt>
      <trkpt lat="45.86705" lon="7.16394">
        <ele>2433</ele>
        <time>2018-05-12T15:43:45Z</time>
      </trkpt>
      <trkpt lat="45.86708" lon="7.16385">
        <ele>2433</ele>
        <time>2018-05-12T15:44:45Z</time>
      </trkpt>
      <trkpt lat="45.86717" lon="7.16363">
        <ele>2433</ele>
        <time>2018-05-12T15:45:45Z</time>
      </trkpt>
      <trkpt lat="45.86729" lon="7.16342">
        <ele>2435</ele>
        <time>2018-05-12T15:46:45Z</time>
      </trkpt>
      <trkpt lat="45.86735" lon="7.16328">
        <ele>2429</ele>
        <time>2018-05-12T15:47:45Z</time>
      </trkpt>
      <trkpt lat="45.86738" lon="7.16317">
        <ele>2427</ele>
        <time>2018-05-12T15:48:45Z</time>
      </trkpt>
      <trkpt lat="45.86739" lon="7.16306">
        <ele>2423</ele>
        <time>2018-05-12T15:49:45Z</time>
      </trkpt>
      <trkpt lat="45.86742" lon="7.16276">
        <ele>2419</ele>
        <time>2018-05-12T15:50:45Z</time>
      </trkpt>
      <trkpt lat="45.8675" lon="7.16248">
        <ele>2422</ele>
        <time>2018-05-12T15:51:45Z</time>
      </trkpt>
      <trkpt lat="45.86765" lon="7.16213">
        <ele>2419</ele>
        <time>2018-05-12T15:52:45Z</time>
      </trkpt>
      <trkpt lat="45.86773" lon="7.16197">
        <ele>2415</ele>
        <time>2018-05-12T15:53:45Z</time>
      </trkpt>
      <trkpt lat="45.86781" lon="7.16181">
        <ele>2413</ele>
        <time>2018-05-12T15:54:45Z</time>
      </trkpt>
      <trkpt lat="45.86789" lon="7.16168">
        <ele>2414</ele>
        <time>2018-05-12T15:55:45Z</time>
      </trkpt>
      <trkpt lat="45.86795" lon="7.1616">
        <ele>2388</ele>
        <time>2018-05-12T15:56:45Z</time>
      </trkpt>
      <trkpt lat="45.86802" lon="7.16156">
        <ele>2390</ele>
        <time>2018-05-12T15:57:45Z</time>
      </trkpt>
      <trkpt lat="45.8681" lon="7.16154">
        <ele>2393</ele>
        <time>2018-05-12T15:58:45Z</time>
      </trkpt>
      <trkpt lat="45.86819" lon="7.16154">
        <ele>2397</ele>
        <time>2018-05-12T15:59:45Z</time>
      </trkpt>
      <trkpt lat="45.8686" lon="7.16151">
        <ele>2417</ele>
        <time>2018-05-12T16:00:45Z</time>
      </trkpt>
      <trkpt lat="45.86878" lon="7.16147">
        <ele>2420</ele>
        <time>2018-05-12T16:01:45Z</time>
      </trkpt>
      <trkpt lat="45.86885" lon="7.16142">
        <ele>2421</ele>
        <time>2018-05-12T16:02:45Z</time>
      </trkpt>
      <trkpt lat="45.86895" lon="7.16126">
        <ele>2419</ele>
        <time>2018-05-12T16:03:45Z</time>
      </trkpt>
      <trkpt lat="45.86929" lon="7.16062">
        <ele>2419</ele>
        <time>2018-05-12T16:04:45Z</time>
      </trkpt>
      <trkpt lat="45.86972" lon="7.15982">
        <ele>2402</ele>
        <time>2018-05-12T16:05:45Z</time>
      </trkpt>
      <trkpt lat="45.8701" lon="7.15913">
        <ele>2403</ele>
        <time>2018-05-12T16:06:45Z</time>
      </trkpt>
      <trkpt lat="45.87042" lon="7.15852">
        <ele>2405</ele>
        <time>2018-05-12T16:07:45Z</time>
      </trkpt>
      <trkpt lat="45.87048" lon="7.1584">
        <ele>2406</ele>
        <time>2018-05-12T16:08:45Z</time>
      </trkpt>
      <trkpt lat="45.87051" lon="7.15831">
        <ele>2395</ele>
        <time>2018-05-12T16:09:45Z</time>
      </trkpt>
      <trkpt lat="45.87055" lon="7.15817">
        <ele>2395</ele>
        <time>2018-05-12T16:10:45Z</time>
      </trkpt>
      <trkpt lat="45.87058" lon="7.15803">
        <ele>2394</ele>
        <time>2018-05-12T16:11:45Z</time>
      </trkpt>
      <trkpt lat="45.87058" lon="7.15791">
        <ele>2393</ele>
        <time>2018-05-12T16:12:45Z</time>
      </trkpt>
      <trkpt lat="45.87058" lon="7.1578">
        <ele>2392</ele>
        <time>2018-05-12T16:13:45Z</time>
      </trkpt>
      <trkpt lat="45.87055" lon="7.15764">
        <ele>2391</ele>
        <time>2018-05-12T16:14:45Z</time>
      </trkpt>
      <trkpt lat="45.87054" lon="7.15758">
        <ele>2391</ele>
        <time>2018-05-12T16:15:45Z</time>
      </trkpt>
      <trkpt lat="45.87045" lon="7.15726">
        <ele>2391</ele>
        <time>2018-05-12T16:16:45Z</time>
      </trkpt>
      <trkpt lat="45.87032" lon="7.15694">
        <ele>2392</ele>
        <time>2018-05-12T16:17:45Z</time>
      </trkpt>
      <trkpt lat="45.87026" lon="7.15687">
        <ele>2392</ele>
        <time>2018-05-12T16:18:45Z</time>
      </trkpt>
      <trkpt lat="45.87021" lon="7.15685">
        <ele>2392</ele>
        <time>2018-05-12T16:19:45Z</time>
      </trkpt>
      <trkpt lat="45.87017" lon="7.15685">
        <ele>2392</ele>
        <time>2018-05-12T16:20:45Z</time>
      </trkpt>
      <trkpt lat="45.87002" lon="7.15687">
        <ele>2392</ele>
        <time>2018-05-12T16:21:45Z</time>
      </trkpt>
      <trkpt lat="45.86977" lon="7.15693">
        <ele>2379</ele>
        <time>2018-05-12T16:22:45Z</time>
      </trkpt>
      <trkpt lat="45.86959" lon="7.15697">
        <ele>2375</ele>
        <time>2018-05-12T16:23:45Z</time>
      </trkpt>
      <trkpt lat="45.86942" lon="7.15699">
        <ele>2373</ele>
        <time>2018-05-12T16:24:45Z</time>
      </trkpt>
      <trkpt lat="45.86934" lon="7.15698">
        <ele>2372</ele>
        <time>2018-05-12T16:25:45Z</time>
      </trkpt>
      <trkpt lat="45.86924" lon="7.15692">
        <ele>2371</ele>
        <time>2018-05-12T16:26:45Z</time>
      </trkpt>
      <trkpt lat="45.8692" lon="7.15688">
        <ele>2371</ele>
        <time>2018-05-12T16:27:45Z</time>
      </trkpt>
      <trkpt lat="45.86913" lon="7.15677">
        <ele>2362</ele>
        <time>2018-05-12T16:28:45Z</time>
      </trkpt>
      <trkpt lat="45.86911" lon="7.15672">
        <ele>2364</ele>
        <time>2018-05-12T16:29:45Z</time>
      </trkpt>
      <trkpt lat="45.86907" lon="7.1566">
        <ele>2364</ele>
        <time>2018-05-12T16:30:45Z</time>
      </trkpt>
      <trkpt lat="45.86906" lon="7.1565">
        <ele>2362</ele>
        <time>2018-05-12T16:31:45Z</time>
      </trkpt>
      <trkpt lat="45.86906" lon="7.15632">
        <ele>2360</ele>
        <time>2018-05-12T16:32:45Z</time>
      </trkpt>
      <trkpt lat="45.86909" lon="7.15613">
        <ele>2361</ele>
        <time>2018-05-12T16:33:45Z</time>
      </trkpt>
      <trkpt lat="45.86913" lon="7.15603">
        <ele>2363</ele>
        <time>2018-05-12T16:34:45Z</time>
      </trkpt>
      <trkpt lat="45.86918" lon="7.15587">
        <ele>2373</ele>
        <time>2018-05-12T16:35:45Z</time>
      </trkpt>
      <trkpt lat="45.8692" lon="7.15579">
        <ele>2373</ele>
        <time>2018-05-12T16:36:45Z</time>
      </trkpt>
      <trkpt lat="45.86922" lon="7.15569">
        <ele>2375</ele>
        <time>2018-05-12T16:37:45Z</time>
      </trkpt>
      <trkpt lat="45.86923" lon="7.15563">
        <ele>2376</ele>
        <time>2018-05-12T16:38:45Z</time>
      </trkpt>
      <trkpt lat="45.86923" lon="7.15555">
        <ele>2377</ele>
        <time>2018-05-12T16:39:45Z</time>
      </trkpt>
      <trkpt lat="45.86922" lon="7.15546">
        <ele>2377</ele>
        <time>2018-05-12T16:40:45Z</time>
      </trkpt>
      <trkpt lat="45.8692" lon="7.15538">
        <ele>2376</ele>
        <time>2018-05-12T16:41:45Z</time>
      </trkpt>
      <trkpt lat="45.86918" lon="7.15528">
        <ele>2375</ele>
        <time>2018-05-12T16:42:45Z</time>
      </trkpt>
      <trkpt lat="45.86917" lon="7.15519">
        <ele>2373</ele>
        <time>2018-05-12T16:43:45Z</time>
      </trkpt>
      <trkpt lat="45.86917" lon="7.15505">
        <ele>2369</ele>
        <time>2018-05-12T16:44:45Z</time>
      </trkpt>
      <trkpt lat="45.86918" lon="7.1549">
        <ele>2369</ele>
        <time>2018-05-12T16:45:45Z</time>
      </trkpt>
      <trkpt lat="45.86922" lon="7.15461">
        <ele>2370</ele>
        <time>2018-05-12T16:46:45Z</time>
      </trkpt>
      <trkpt lat="45.86924" lon="7.15439">
        <ele>2368</ele>
        <time>2018-05-12T16:47:45Z</time>
      </trkpt>
      <trkpt lat="45.86927" lon="7.15411">
        <ele>2365</ele>
        <time>2018-05-12T16:48:45Z</time>
      </trkpt>
      <trkpt lat="45.86928" lon="7.15396">
        <ele>2369</ele>
        <time>2018-05-12T16:49:45Z</time>
      </trkpt>
      <trkpt lat="45.86928" lon="7.15388">
        <ele>2370</ele>
        <time>2018-05-12T16:50:45Z</time>
      </trkpt>
      <trkpt lat="45.86926" lon="7.15383">
        <ele>2371</ele>
        <time>2018-05-12T16:51:45Z</time>
      </trkpt>
      <trkpt lat="45.86922" lon="7.15377">
        <ele>2371</ele>
        <time>2018-05-12T16:52:45Z</time>
      </trkpt>
      <trkpt lat="45.86917" lon="7.15374">
        <ele>2371</ele>
        <time>2018-05-12T16:53:45Z</time>
      </trkpt>
      <trkpt lat="45.8691" lon="7.15375">
        <ele>2358</ele>
        <time>2018-05-12T16:54:45Z</time>
      </trkpt>
      <trkpt lat="45.86895" lon="7.15381">
        <ele>2357</ele>
        <time>2018-05-12T16:55:45Z</time>
      </trkpt>
      <trkpt lat="45.86885" lon="7.15386">
        <ele>2357</ele>
        <time>2018-05-12T16:56:45Z</time>
      </trkpt>
      <trkpt lat="45.86876" lon="7.1539">
        <ele>2356</ele>
        <time>2018-05-12T16:57:45Z</time>
      </trkpt>
      <trkpt lat="45.86868" lon="7.15394">
        <ele>2355</ele>
        <time>2018-05-12T16:58:45Z</time>
      </trkpt>
      <trkpt lat="45.86859" lon="7.15399">
        <ele>2354</ele>
        <time>2018-05-12T16:59:45Z</time>
      </trkpt>
      <trkpt lat="45.8685" lon="7.15404">
        <ele>2352</ele>
        <time>2018-05-12T17:00:45Z</time>
      </trkpt>
      <trkpt lat="45.8684" lon="7.15408">
        <ele>2350</ele>
        <time>2018-05-12T17:01:45Z</time>
      </trkpt>
      <trkpt lat="45.86828" lon="7.15411">
        <ele>2344</ele>
        <time>2018-05-12T17:02:45Z</time>
      </trkpt>
      <trkpt lat="45.86818" lon="7.15412">
        <ele>2343</ele>
        <time>2018-05-12T17:03:45Z</time>
      </trkpt>
      <trkpt lat="45.8681" lon="7.15409">
        <ele>2341</ele>
        <time>2018-05-12T17:04:45Z</time>
      </trkpt>
      <trkpt lat="45.86803" lon="7.15404">
        <ele>2340</ele>
        <time>2018-05-12T17:05:45Z</time>
      </trkpt>
      <trkpt lat="45.86796" lon="7.15397">
        <ele>2339</ele>
        <time>2018-05-12T17:06:45Z</time>
      </trkpt>
      <trkpt lat="45.86791" lon="7.15389">
        <ele>2339</ele>
        <time>2018-05-12T17:07:45Z</time>
      </trkpt>
      <trkpt lat="45.86783" lon="7.1537">
        <ele>2339</ele>
        <time>2018-05-12T17:08:45Z</time>
      </trkpt>
      <trkpt lat="45.86779" lon="7.15354">
        <ele>2338</ele>
        <time>2018-05-12T17:09:45Z</time>
      </trkpt>
      <trkpt lat="45.86778" lon="7.15344">
        <ele>2338</ele>
        <time>2018-05-12T17:10:45Z</time>
      </trkpt>
      <trkpt lat="45.86776" lon="7.1533">
        <ele>2338</ele>
        <time>2018-05-12T17:11:45Z</time>
      </trkpt>
      <trkpt lat="45.86773" lon="7.15315">
        <ele>2338</ele>
        <time>2018-05-12T17:12:45Z</time>
      </trkpt>
      <trkpt lat="45.86771" lon="7.153">
        <ele>2338</ele>
        <time>2018-05-12T17:13:45Z</time>
      </trkpt>
      <trkpt lat="45.86771" lon="7.15286">
        <ele>2338</ele>
        <time>2018-05-12T17:14:45Z</time>
      </trkpt>
      <trkpt lat="45.86774" lon="7.1527">
        <ele>2337</ele>
        <time>2018-05-12T17:15:45Z</time>
      </trkpt>
      <trkpt lat="45.8678" lon="7.15249">
        <ele>2339</ele>
        <time>2018-05-12T17:16:45Z</time>
      </trkpt>
      <trkpt lat="45.86784" lon="7.15234">
        <ele>2340</ele>
        <time>2018-05-12T17:17:45Z</time>
      </trkpt>
      <trkpt lat="45.86786" lon="7.15224">
        <ele>2341</ele>
        <time>2018-05-12T17:18:45Z</time>
      </trkpt>
      <trkpt lat="45.86786" lon="7.15217">
        <ele>2341</ele>
        <time>2018-05-12T17:19:45Z</time>
      </trkpt>
      <trkpt lat="45.86786" lon="7.15211">
        <ele>2341</ele>
        <time>2018-05-12T17:20:45Z</time>
      </trkpt>
      <trkpt lat="45.86785" lon="7.15205">
        <ele>2341</ele>
        <time>2018-05-12T17:21:45Z</time>
      </trkpt>
      <trkpt lat="45.86778" lon="7.15193">
        <ele>2341</ele>
        <time>2018-05-12T17:22:45Z</time>
      </trkpt>
      <trkpt lat="45.86767" lon="7.15181">
        <ele>2339</ele>
        <time>2018-05-12T17:23:45Z</time>
      </trkpt>
      <trkpt lat="45.86749" lon="7.15164">
        <ele>2334</ele>
        <time>2018-05-12T17:24:45Z</time>
      </trkpt>
      <trkpt lat="45.86737" lon="7.15155">
        <ele>2335</ele>
        <time>2018-05-12T17:25:45Z</time>
      </trkpt>
      <trkpt lat="45.86732" lon="7.15153">
        <ele>2335</ele>
        <time>2018-05-12T17:26:45Z</time>
      </trkpt>
      <trkpt lat="45.86727" lon="7.15151">
        <ele>2335</ele>
        <time>2018-05-12T17:27:45Z</time>
      </trkpt>
      <trkpt lat="45.86722" lon="7.15152">
        <ele>2335</ele>
        <time>2018-05-12T17:28:45Z</time>
      </trkpt>
      <trkpt lat="45.86715" lon="7.15155">
        <ele>2334</ele>
        <time>2018-05-12T17:29:45Z</time>
      </trkpt>
      <trkpt lat="45.86701" lon="7.15164">
        <ele>2332</ele>
        <time>2018-05-12T17:30:45Z</time>
      </trkpt>
      <trkpt lat="45.86693" lon="7.15168">
        <ele>2323</ele>
        <time>2018-05-12T17:31:45Z</time>
      </trkpt>
      <trkpt lat="45.86688" lon="7.15168">
        <ele>2322</ele>
        <time>2018-05-12T17:32:45Z</time>
      </trkpt>
      <trkpt lat="45.86683" lon="7.15164">
        <ele>2327</ele>
        <time>2018-05-12T17:33:45Z</time>
      </trkpt>
      <trkpt lat="45.86677" lon="7.15156">
        <ele>2327</ele>
        <time>2018-05-12T17:34:45Z</time>
      </trkpt>
      <trkpt lat="45.8667" lon="7.15146">
        <ele>2329</ele>
        <time>2018-05-12T17:35:45Z</time>
      </trkpt>
      <trkpt lat="45.86665" lon="7.15143">
        <ele>2327</ele>
        <time>2018-05-12T17:36:45Z</time>
      </trkpt>
      <trkpt lat="45.8666" lon="7.15143">
        <ele>2327</ele>
        <time>2018-05-12T17:37:45Z</time>
      </trkpt>
      <trkpt lat="45.86655" lon="7.15147">
        <ele>2327</ele>
        <time>2018-05-12T17:38:45Z</time>
      </trkpt>
      <trkpt lat="45.86649" lon="7.15157">
        <ele>2326</ele>
        <time>2018-05-12T17:39:45Z</time>
      </trkpt>
      <trkpt lat="45.86643" lon="7.15172">
        <ele>2320</ele>
        <time>2018-05-12T17:40:45Z</time>
      </trkpt>
      <trkpt lat="45.86635" lon="7.1519">
        <ele>2320</ele>
        <time>2018-05-12T17:41:45Z</time>
      </trkpt>
      <trkpt lat="45.86618" lon="7.15225">
        <ele>2318</ele>
        <time>2018-05-12T17:42:45Z</time>
      </trkpt>
      <trkpt lat="45.86608" lon="7.15244">
        <ele>2317</ele>
        <time>2018-05-12T17:43:45Z</time>
      </trkpt>
      <trkpt lat="45.86585" lon="7.15286">
        <ele>2309</ele>
        <time>2018-05-12T17:44:45Z</time>
      </trkpt>
      <trkpt lat="45.86553" lon="7.15344">
        <ele>2306</ele>
        <time>2018-05-12T17:45:45Z</time>
      </trkpt>
      <trkpt lat="45.8654" lon="7.15365">
        <ele>2306</ele>
        <time>2018-05-12T17:46:45Z</time>
      </trkpt>
      <trkpt lat="45.86535" lon="7.15372">
        <ele>2306</ele>
        <time>2018-05-12T17:47:45Z</time>
      </trkpt>
      <trkpt lat="45.86526" lon="7.15381">
        <ele>2305</ele>
        <time>2018-05-12T17:48:45Z</time>
      </trkpt>
      <trkpt lat="45.86506" lon="7.15397">
        <ele>2304</ele>
        <time>2018-05-12T17:49:45Z</time>
      </trkpt>
      <trkpt lat="45.86497" lon="7.15404">
        <ele>2305</ele>
        <time>2018-05-12T17:50:45Z</time>
      </trkpt>
      <trkpt lat="45.86472" lon="7.1542">
        <ele>2297</ele>
        <time>2018-05-12T17:51:45Z</time>
      </trkpt>
      <trkpt lat="45.86454" lon="7.15425">
        <ele>2297</ele>
        <time>2018-05-12T17:52:45Z</time>
      </trkpt>
      <trkpt lat="45.86444" lon="7.15427">
        <ele>2297</ele>
        <time>2018-05-12T17:53:45Z</time>
      </trkpt>
      <trkpt lat="45.86435" lon="7.15431">
        <ele>2298</ele>
        <time>2018-05-12T17:54:45Z</time>
      </trkpt>
      <trkpt lat="45.86431" lon="7.15434">
        <ele>2298</ele>
        <time>2018-05-12T17:55:45Z</time>
      </trkpt>
      <trkpt lat="45.86429" lon="7.15438">
        <ele>2297</ele>
        <time>2018-05-12T17:56:45Z</time>
      </trkpt>
      <trkpt lat="45.86427" lon="7.15443">
        <ele>2297</ele>
        <time>2018-05-12T17:57:45Z</time>
      </trkpt>
      <trkpt lat="45.86427" lon="7.15448">
        <ele>2296</ele>
        <time>2018-05-12T17:58:45Z</time>
      </trkpt>
      <trkpt lat="45.86428" lon="7.15455">
        <ele>2295</ele>
        <time>2018-05-12T17:59:45Z</time>
      </trkpt>
      <trkpt lat="45.86433" lon="7.15475">
        <ele>2294</ele>
        <time>2018-05-12T18:00:45Z</time>
      </trkpt>
      <trkpt lat="45.86439" lon="7.15494">
        <ele>2292</ele>
        <time>2018-05-12T18:01:45Z</time>
      </trkpt>
      <trkpt lat="45.86442" lon="7.15508">
        <ele>2287</ele>
        <time>2018-05-12T18:02:45Z</time>
      </trkpt>
      <trkpt lat="45.86443" lon="7.15518">
        <ele>2286</ele>
        <time>2018-05-12T18:03:45Z</time>
      </trkpt>
      <trkpt lat="45.86442" lon="7.15528">
        <ele>2286</ele>
        <time>2018-05-12T18:04:45Z</time>
      </trkpt>
      <trkpt lat="45.8644" lon="7.15542">
        <ele>2285</ele>
        <time>2018-05-12T18:05:45Z</time>
      </trkpt>
      <trkpt lat="45.86435" lon="7.15558">
        <ele>2283</ele>
        <time>2018-05-12T18:06:45Z</time>
      </trkpt>
      <trkpt lat="45.86431" lon="7.15568">
        <ele>2282</ele>
        <time>2018-05-12T18:07:45Z</time>
      </trkpt>
      <trkpt lat="45.86428" lon="7.15573">
        <ele>2281</ele>
        <time>2018-05-12T18:08:45Z</time>
      </trkpt>
      <trkpt lat="45.86424" lon="7.15577">
        <ele>2280</ele>
        <time>2018-05-12T18:09:45Z</time>
      </trkpt>
      <trkpt lat="45.8642" lon="7.15578">
        <ele>2280</ele>
        <time>2018-05-12T18:10:45Z</time>
      </trkpt>
      <trkpt lat="45.86415" lon="7.15577">
        <ele>2278</ele>
        <time>2018-05-12T18:11:45Z</time>
      </trkpt>
      <trkpt lat="45.8641" lon="7.15573">
        <ele>2277</ele>
        <time>2018-05-12T18:12:45Z</time>
      </trkpt>
      <trkpt lat="45.86404" lon="7.15567">
        <ele>2277</ele>
        <time>2018-05-12T18:13:45Z</time>
      </trkpt>
      <trkpt lat="45.86397" lon="7.15561">
        <ele>2277</ele>
        <time>2018-05-12T18:14:45Z</time>
      </trkpt>
      <trkpt lat="45.86387" lon="7.15557">
        <ele>2276</ele>
        <time>2018-05-12T18:15:45Z</time>
      </trkpt>
      <trkpt lat="45.86361" lon="7.15548">
        <ele>2275</ele>
        <time>2018-05-12T18:16:45Z</time>
      </trkpt>
      <trkpt lat="45.86348" lon="7.15546">
        <ele>2274</ele>
        <time>2018-05-12T18:17:45Z</time>
      </trkpt>
      <trkpt lat="45.86342" lon="7.15548">
        <ele>2273</ele>
        <time>2018-05-12T18:18:45Z</time>
      </trkpt>
      <trkpt lat="45.86338" lon="7.15551">
        <ele>2273</ele>
        <time>2018-05-12T18:19:45Z</time>
      </trkpt>
      <trkpt lat="45.86337" lon="7.15559">
        <ele>2271</ele>
        <time>2018-05-12T18:20:45Z</time>
      </trkpt>
      <trkpt lat="45.86337" lon="7.15566">
        <ele>2270</ele>
        <time>2018-05-12T18:21:45Z</time>
      </trkpt>
      <trkpt lat="45.86339" lon="7.15573">
        <ele>2269</ele>
        <time>2018-05-12T18:22:45Z</time>
      </trkpt>
      <trkpt lat="45.86343" lon="7.15579">
        <ele>2268</ele>
        <time>2018-05-12T18:23:45Z</time>
      </trkpt>
      <trkpt lat="45.86353" lon="7.15583">
        <ele>2271</ele>
        <time>2018-05-12T18:24:45Z</time>
      </trkpt>
      <trkpt lat="45.86368" lon="7.15587">
        <ele>2268</ele>
        <time>2018-05-12T18:25:45Z</time>
      </trkpt>
      <trkpt lat="45.86375" lon="7.15591">
        <ele>2268</ele>
        <time>2018-05-12T18:26:45Z</time>
      </trkpt>
      <trkpt lat="45.86389" lon="7.15606">
        <ele>2269</ele>
        <time>2018-05-12T18:27:45Z</time>
      </trkpt>
      <trkpt lat="45.86397" lon="7.15619">
        <ele>2269</ele>
        <time>2018-05-12T18:28:45Z</time>
      </trkpt>
      <trkpt lat="45.86411" lon="7.1565">
        <ele>2269</ele>
        <time>2018-05-12T18:29:45Z</time>
      </trkpt>
      <trkpt lat="45.8643" lon="7.15719">
        <ele>2268</ele>
        <time>2018-05-12T18:30:45Z</time>
      </trkpt>
      <trkpt lat="45.86431" lon="7.15724">
        <ele>2268</ele>
        <time>2018-05-12T18:31:45Z</time>
      </trkpt>
      <trkpt lat="45.86436" lon="7.15732">
        <ele>2267</ele>
        <time>2018-05-12T18:32:45Z</time>
      </trkpt>
      <trkpt lat="45.86443" lon="7.15741">
        <ele>2267</ele>
        <time>2018-05-12T18:33:45Z</time>
      </trkpt>
      <trkpt lat="45.86465" lon="7.15758">
        <ele>2262</ele>
        <time>2018-05-12T18:34:45Z</time>
      </trkpt>
      <trkpt lat="45.86503" lon="7.15788">
        <ele>2266</ele>
        <time>2018-05-12T18:35:45Z</time>
      </trkpt>
      <trkpt lat="45.86538" lon="7.1581">
        <ele>2265</ele>
        <time>2018-05-12T18:36:45Z</time>
      </trkpt>
      <trkpt lat="45.86549" lon="7.15821">
        <ele>2265</ele>
        <time>2018-05-12T18:37:45Z</time>
      </trkpt>
      <trkpt lat="45.86552" lon="7.15827">
        <ele>2265</ele>
        <time>2018-05-12T18:38:45Z</time>
      </trkpt>
      <trkpt lat="45.86554" lon="7.15834">
        <ele>2260</ele>
        <time>2018-05-12T18:39:45Z</time>
      </trkpt>
      <trkpt lat="45.86554" lon="7.15841">
        <ele>2260</ele>
        <time>2018-05-12T18:40:45Z</time>
      </trkpt>
      <trkpt lat="45.86551" lon="7.15858">
        <ele>2259</ele>
        <time>2018-05-12T18:41:45Z</time>
      </trkpt>
      <trkpt lat="45.86542" lon="7.159">
        <ele>2256</ele>
        <time>2018-05-12T18:42:45Z</time>
      </trkpt>
      <trkpt lat="45.86536" lon="7.15914">
        <ele>2255</ele>
        <time>2018-05-12T18:43:45Z</time>
      </trkpt>
      <trkpt lat="45.86532" lon="7.15918">
        <ele>2251</ele>
        <time>2018-05-12T18:44:45Z</time>
      </trkpt>
      <trkpt lat="45.86483" lon="7.15921">
        <ele>2246</ele>
        <time>2018-05-12T18:45:45Z</time>
      </trkpt>
      <trkpt lat="45.86457" lon="7.1592">
        <ele>2244</ele>
        <time>2018-05-12T18:46:45Z</time>
      </trkpt>
      <trkpt lat="45.86445" lon="7.15918">
        <ele>2244</ele>
        <time>2018-05-12T18:47:45Z</time>
      </trkpt>
      <trkpt lat="45.86435" lon="7.15915">
        <ele>2246</ele>
        <time>2018-05-12T18:48:45Z</time>
      </trkpt>
      <trkpt lat="45.86425" lon="7.15914">
        <ele>2244</ele>
        <time>2018-05-12T18:49:45Z</time>
      </trkpt>
      <trkpt lat="45.86412" lon="7.15921">
        <ele>2241</ele>
        <time>2018-05-12T18:50:45Z</time>
      </trkpt>
      <trkpt lat="45.86399" lon="7.15932">
        <ele>2238</ele>
        <time>2018-05-12T18:51:45Z</time>
      </trkpt>
      <trkpt lat="45.8639" lon="7.15937">
        <ele>2237</ele>
        <time>2018-05-12T18:52:45Z</time>
      </trkpt>
      <trkpt lat="45.86368" lon="7.1594">
        <ele>2236</ele>
        <time>2018-05-12T18:53:45Z</time>
      </trkpt>
      <trkpt lat="45.86326" lon="7.15946">
        <ele>2227</ele>
        <time>2018-05-12T18:54:45Z</time>
      </trkpt>
      <trkpt lat="45.86315" lon="7.1595">
        <ele>2226</ele>
        <time>2018-05-12T18:55:45Z</time>
      </trkpt>
      <trkpt lat="45.86312" lon="7.15951">
        <ele>2226</ele>
        <time>2018-05-12T18:56:45Z</time>
      </trkpt>
      <trkpt lat="45.8631" lon="7.15954">
        <ele>2226</ele>
        <time>2018-05-12T18:57:45Z</time>
      </trkpt>
      <trkpt lat="45.86308" lon="7.15959">
        <ele>2226</ele>
        <time>2018-05-12T18:58:45Z</time>
      </trkpt>
      <trkpt lat="45.86308" lon="7.15969">
        <ele>2226</ele>
        <time>2018-05-12T18:59:45Z</time>
      </trkpt>
      <trkpt lat="45.86308" lon="7.15985">
        <ele>2227</ele>
        <time>2018-05-12T19:00:45Z</time>
      </trkpt>
      <trkpt lat="45.86307" lon="7.16006">
        <ele>2229</ele>
        <time>2018-05-12T19:01:45Z</time>
      </trkpt>
      <trkpt lat="45.86306" lon="7.1602">
        <ele>2229</ele>
        <time>2018-05-12T19:02:45Z</time>
      </trkpt>
      <trkpt lat="45.86302" lon="7.16029">
        <ele>2229</ele>
        <time>2018-05-12T19:03:45Z</time>
      </trkpt>
      <trkpt lat="45.8629" lon="7.1604">
        <ele>2229</ele>
        <time>2018-05-12T19:04:45Z</time>
      </trkpt>
      <trkpt lat="45.86276" lon="7.16054">
        <ele>2228</ele>
        <time>2018-05-12T19:05:45Z</time>
      </trkpt>
      <trkpt lat="45.86265" lon="7.16068">
        <ele>2228</ele>
        <time>2018-05-12T19:06:45Z</time>
      </trkpt>
      <trkpt lat="45.86249" lon="7.16082">
        <ele>2226</ele>
        <time>2018-05-12T19:07:45Z</time>
      </trkpt>
      <trkpt lat="45.86242" lon="7.16086">
        <ele>2227</ele>
        <time>2018-05-12T19:08:45Z</time>
      </trkpt>
      <trkpt lat="45.86221" lon="7.16088">
        <ele>2227</ele>
        <time>2018-05-12T19:09:45Z</time>
      </trkpt>
      <trkpt lat="45.86198" lon="7.16087">
        <ele>2225</ele>
        <time>2018-05-12T19:10:45Z</time>
      </trkpt>
      <trkpt lat="45.86183" lon="7.16078">
        <ele>2218</ele>
        <time>2018-05-12T19:11:45Z</time>
      </trkpt>
      <trkpt lat="45.86171" lon="7.16067">
        <ele>2217</ele>
        <time>2018-05-12T19:12:45Z</time>
      </trkpt>
      <trkpt lat="45.86157" lon="7.16057">
        <ele>2209</ele>
        <time>2018-05-12T19:13:45Z</time>
      </trkpt>
      <trkpt lat="45.86148" lon="7.16053">
        <ele>2208</ele>
        <time>2018-05-12T19:14:45Z</time>
      </trkpt>
      <trkpt lat="45.86138" lon="7.16049">
        <ele>2207</ele>
        <time>2018-05-12T19:15:45Z</time>
      </trkpt>
      <trkpt lat="45.86127" lon="7.16044">
        <ele>2206</ele>
        <time>2018-05-12T19:16:45Z</time>
      </trkpt>
      <trkpt lat="45.8612" lon="7.16039">
        <ele>2205</ele>
        <time>2018-05-12T19:17:45Z</time>
      </trkpt>
      <trkpt lat="45.86116" lon="7.16032">
        <ele>2204</ele>
        <time>2018-05-12T19:18:45Z</time>
      </trkpt>
      <trkpt lat="45.86115" lon="7.1603">
        <ele>2204</ele>
        <time>2018-05-12T19:19:45Z</time>
      </trkpt>
      <trkpt lat="45.86115" lon="7.16025">
        <ele>2203</ele>
        <time>2018-05-12T19:20:45Z</time>
      </trkpt>
      <trkpt lat="45.86115" lon="7.16015">
        <ele>2203</ele>
        <time>2018-05-12T19:21:45Z</time>
      </trkpt>
      <trkpt lat="45.86118" lon="7.16002">
        <ele>2203</ele>
        <time>2018-05-12T19:22:45Z</time>
      </trkpt>
      <trkpt lat="45.86124" lon="7.15992">
        <ele>2201</ele>
        <time>2018-05-12T19:23:45Z</time>
      </trkpt>
      <trkpt lat="45.86138" lon="7.15974">
        <ele>2203</ele>
        <time>2018-05-12T19:24:45Z</time>
      </trkpt>
      <trkpt lat="45.86154" lon="7.15952">
        <ele>2203</ele>
        <time>2018-05-12T19:25:45Z</time>
      </trkpt>
      <trkpt lat="45.86168" lon="7.15934">
        <ele>2209</ele>
        <time>2018-05-12T19:26:45Z</time>
      </trkpt>
      <trkpt lat="45.86171" lon="7.15928">
        <ele>2208</ele>
        <time>2018-05-12T19:27:45Z</time>
      </trkpt>
      <trkpt lat="45.86172" lon="7.15923">
        <ele>2208</ele>
        <time>2018-05-12T19:28:45Z</time>
      </trkpt>
      <trkpt lat="45.86171" lon="7.15916">
        <ele>2206</ele>
        <time>2018-05-12T19:29:45Z</time>
      </trkpt>
      <trkpt lat="45.86169" lon="7.15907">
        <ele>2208</ele>
        <time>2018-05-12T19:30:45Z</time>
      </trkpt>
      <trkpt lat="45.86165" lon="7.15898">
        <ele>2203</ele>
        <time>2018-05-12T19:31:45Z</time>
      </trkpt>
      <trkpt lat="45.86163" lon="7.15895">
        <ele>2203</ele>
        <time>2018-05-12T19:32:45Z</time>
      </trkpt>
      <trkpt lat="45.86161" lon="7.15892">
        <ele>2203</ele>
        <time>2018-05-12T19:33:45Z</time>
      </trkpt>
      <trkpt lat="45.86158" lon="7.15891">
        <ele>2203</ele>
        <time>2018-05-12T19:34:45Z</time>
      </trkpt>
      <trkpt lat="45.86144" lon="7.15889">
        <ele>2202</ele>
        <time>2018-05-12T19:35:45Z</time>
      </trkpt>
      <trkpt lat="45.86125" lon="7.15883">
        <ele>2200</ele>
        <time>2018-05-12T19:36:45Z</time>
      </trkpt>
      <trkpt lat="45.86114" lon="7.15875">
        <ele>2200</ele>
        <time>2018-05-12T19:37:45Z</time>
      </trkpt>
      <trkpt lat="45.86107" lon="7.15874">
        <ele>2199</ele>
        <time>2018-05-12T19:38:45Z</time>
      </trkpt>
      <trkpt lat="45.86091" lon="7.15875">
        <ele>2198</ele>
        <time>2018-05-12T19:39:45Z</time>
      </trkpt>
      <trkpt lat="45.86082" lon="7.15873">
        <ele>2188</ele>
        <time>2018-05-12T19:40:45Z</time>
      </trkpt>
      <trkpt lat="45.86074" lon="7.15868">
        <ele>2187</ele>
        <time>2018-05-12T19:41:45Z</time>
      </trkpt>
      <trkpt lat="45.86059" lon="7.1585">
        <ele>2187</ele>
        <time>2018-05-12T19:42:45Z</time>
      </trkpt>
      <trkpt lat="45.86047" lon="7.15829">
        <ele>2179</ele>
        <time>2018-05-12T19:43:45Z</time>
      </trkpt>
      <trkpt lat="45.86044" lon="7.1582">
        <ele>2177</ele>
        <time>2018-05-12T19:44:45Z</time>
      </trkpt>
      <trkpt lat="45.86043" lon="7.15814">
        <ele>2177</ele>
        <time>2018-05-12T19:45:45Z</time>
      </trkpt>
      <trkpt lat="45.86042" lon="7.15808">
        <ele>2176</ele>
        <time>2018-05-12T19:46:45Z</time>
      </trkpt>
      <trkpt lat="45.86043" lon="7.15802">
        <ele>2175</ele>
        <time>2018-05-12T19:47:45Z</time>
      </trkpt>
      <trkpt lat="45.86045" lon="7.15796">
        <ele>2175</ele>
        <time>2018-05-12T19:48:45Z</time>
      </trkpt>
      <trkpt lat="45.86049" lon="7.1579">
        <ele>2175</ele>
        <time>2018-05-12T19:49:45Z</time>
      </trkpt>
      <trkpt lat="45.86073" lon="7.15765">
        <ele>2176</ele>
        <time>2018-05-12T19:50:45Z</time>
      </trkpt>
      <trkpt lat="45.86098" lon="7.15743">
        <ele>2181</ele>
        <time>2018-05-12T19:51:45Z</time>
      </trkpt>
      <trkpt lat="45.86113" lon="7.15729">
        <ele>2183</ele>
        <time>2018-05-12T19:52:45Z</time>
      </trkpt>
      <trkpt lat="45.86123" lon="7.15709">
        <ele>2182</ele>
        <time>2018-05-12T19:53:45Z</time>
      </trkpt>
      <trkpt lat="45.86129" lon="7.15682">
        <ele>2181</ele>
        <time>2018-05-12T19:54:45Z</time>
      </trkpt>
      <trkpt lat="45.86137" lon="7.15651">
        <ele>2177</ele>
        <time>2018-05-12T19:55:45Z</time>
      </trkpt>
      <trkpt lat="45.86141" lon="7.15625">
        <ele>2178</ele>
        <time>2018-05-12T19:56:45Z</time>
      </trkpt>
      <trkpt lat="45.86141" lon="7.15616">
        <ele>2178</ele>
        <time>2018-05-12T19:57:45Z</time>
      </trkpt>
      <trkpt lat="45.86139" lon="7.15604">
        <ele>2178</ele>
        <time>2018-05-12T19:58:45Z</time>
      </trkpt>
      <trkpt lat="45.86133" lon="7.15589">
        <ele>2177</ele>
        <time>2018-05-12T19:59:45Z</time>
      </trkpt>
      <trkpt lat="45.86128" lon="7.1558">
        <ele>2183</ele>
        <time>2018-05-12T20:00:45Z</time>
      </trkpt>
      <trkpt lat="45.8612" lon="7.15572">
        <ele>2181</ele>
        <time>2018-05-12T20:01:45Z</time>
      </trkpt>
      <trkpt lat="45.86107" lon="7.15561">
        <ele>2179</ele>
        <time>2018-05-12T20:02:45Z</time>
      </trkpt>
      <trkpt lat="45.861" lon="7.15552">
        <ele>2179</ele>
        <time>2018-05-12T20:03:45Z</time>
      </trkpt>
      <trkpt lat="45.86085" lon="7.1554">
        <ele>2180</ele>
        <time>2018-05-12T20:04:45Z</time>
      </trkpt>
      <trkpt lat="45.86066" lon="7.15527">
        <ele>2163</ele>
        <time>2018-05-12T20:05:45Z</time>
      </trkpt>
      <trkpt lat="45.86046" lon="7.15514">
        <ele>2160</ele>
        <time>2018-05-12T20:06:45Z</time>
      </trkpt>
      <trkpt lat="45.86035" lon="7.15511">
        <ele>2158</ele>
        <time>2018-05-12T20:07:45Z</time>
      </trkpt>
      <trkpt lat="45.86015" lon="7.15503">
        <ele>2155</ele>
        <time>2018-05-12T20:08:45Z</time>
      </trkpt>
      <trkpt lat="45.85991" lon="7.15489">
        <ele>2152</ele>
        <time>2018-05-12T20:09:45Z</time>
      </trkpt>
      <trkpt lat="45.85981" lon="7.15474">
        <ele>2151</ele>
        <time>2018-05-12T20:10:45Z</time>
      </trkpt>
      <trkpt lat="45.85972" lon="7.15464">
        <ele>2151</ele>
        <time>2018-05-12T20:11:45Z</time>
      </trkpt>
      <trkpt lat="45.85967" lon="7.15457">
        <ele>2151</ele>
        <time>2018-05-12T20:12:45Z</time>
      </trkpt>
      <trkpt lat="45.85959" lon="7.15451">
        <ele>2150</ele>
        <time>2018-05-12T20:13:45Z</time>
      </trkpt>
      <trkpt lat="45.85938" lon="7.15441">
        <ele>2146</ele>
        <time>2018-05-12T20:14:45Z</time>
      </trkpt>
      <trkpt lat="45.85918" lon="7.15426">
        <ele>2142</ele>
        <time>2018-05-12T20:15:45Z</time>
      </trkpt>
      <trkpt lat="45.8591" lon="7.15417">
        <ele>2131</ele>
        <time>2018-05-12T20:16:45Z</time>
      </trkpt>
      <trkpt lat="45.85904" lon="7.15409">
        <ele>2133</ele>
        <time>2018-05-12T20:17:45Z</time>
      </trkpt>
      <trkpt lat="45.8589" lon="7.15379">
        <ele>2129</ele>
        <time>2018-05-12T20:18:45Z</time>
      </trkpt>
      <trkpt lat="45.85881" lon="7.15355">
        <ele>2129</ele>
        <time>2018-05-12T20:19:45Z</time>
      </trkpt>
      <trkpt lat="45.85877" lon="7.15347">
        <ele>2127</ele>
        <time>2018-05-12T20:20:45Z</time>
      </trkpt>
      <trkpt lat="45.85867" lon="7.15335">
        <ele>2121</ele>
        <time>2018-05-12T20:21:45Z</time>
      </trkpt>
      <trkpt lat="45.85859" lon="7.15328">
        <ele>2131</ele>
        <time>2018-05-12T20:22:45Z</time>
      </trkpt>
      <trkpt lat="45.85851" lon="7.15314">
        <ele>2130</ele>
        <time>2018-05-12T20:23:45Z</time>
      </trkpt>
      <trkpt lat="45.85848" lon="7.15304">
        <ele>2133</ele>
        <time>2018-05-12T20:24:45Z</time>
      </trkpt>
      <trkpt lat="45.85845" lon="7.15288">
        <ele>2136</ele>
        <time>2018-05-12T20:25:45Z</time>
      </trkpt>
      <trkpt lat="45.85845" lon="7.15271">
        <ele>2134</ele>
        <time>2018-05-12T20:26:45Z</time>
      </trkpt>
      <trkpt lat="45.85847" lon="7.15244">
        <ele>2138</ele>
        <time>2018-05-12T20:27:45Z</time>
      </trkpt>
      <trkpt lat="45.85849" lon="7.15225">
        <ele>2152</ele>
        <time>2018-05-12T20:28:45Z</time>
      </trkpt>
      <trkpt lat="45.85851" lon="7.15204">
        <ele>2159</ele>
        <time>2018-05-12T20:29:45Z</time>
      </trkpt>
      <trkpt lat="45.85849" lon="7.15193">
        <ele>2157</ele>
        <time>2018-05-12T20:30:45Z</time>
      </trkpt>
      <trkpt lat="45.85842" lon="7.15166">
        <ele>2141</ele>
        <time>2018-05-12T20:31:45Z</time>
      </trkpt>
      <trkpt lat="45.85832" lon="7.15135">
        <ele>2107</ele>
        <time>2018-05-12T20:32:45Z</time>
      </trkpt>
      <trkpt lat="45.8583" lon="7.15102">
        <ele>2111</ele>
        <time>2018-05-12T20:33:45Z</time>
      </trkpt>
      <trkpt lat="45.85819" lon="7.15015">
        <ele>2108</ele>
        <time>2018-05-12T20:34:45Z</time>
      </trkpt>
      <trkpt lat="45.85811" lon="7.14925">
        <ele>2109</ele>
        <time>2018-05-12T20:35:45Z</time>
      </trkpt>
      <trkpt lat="45.85809" lon="7.14898">
        <ele>2110</ele>
        <time>2018-05-12T20:36:45Z</time>
      </trkpt>
      <trkpt lat="45.85807" lon="7.14875">
        <ele>2108</ele>
        <time>2018-05-12T20:37:45Z</time>
      </trkpt>
      <trkpt lat="45.85794" lon="7.14805">
        <ele>2109</ele>
        <time>2018-05-12T20:38:45Z</time>
      </trkpt>
      <trkpt lat="45.8578" lon="7.1472">
        <ele>2111</ele>
        <time>2018-05-12T20:39:45Z</time>
      </trkpt>
      <trkpt lat="45.8577" lon="7.14669">
        <ele>2107</ele>
        <time>2018-05-12T20:40:45Z</time>
      </trkpt>
      <trkpt lat="45.85766" lon="7.14658">
        <ele>2110</ele>
        <time>2018-05-12T20:41:45Z</time>
      </trkpt>
      <trkpt lat="45.85763" lon="7.14651">
        <ele>2111</ele>
        <time>2018-05-12T20:42:45Z</time>
      </trkpt>
      <trkpt lat="45.85759" lon="7.14645">
        <ele>2112</ele>
        <time>2018-05-12T20:43:45Z</time>
      </trkpt>
      <trkpt lat="45.85747" lon="7.14627">
        <ele>2089</ele>
        <time>2018-05-12T20:44:45Z</time>
      </trkpt>
      <trkpt lat="45.85722" lon="7.1459">
        <ele>2090</ele>
        <time>2018-05-12T20:45:45Z</time>
      </trkpt>
      <trkpt lat="45.85715" lon="7.1458">
        <ele>2099</ele>
        <time>2018-05-12T20:46:45Z</time>
      </trkpt>
      <trkpt lat="45.85709" lon="7.14565">
        <ele>2098</ele>
        <time>2018-05-12T20:47:45Z</time>
      </trkpt>
      <trkpt lat="45.85703" lon="7.14549">
        <ele>2099</ele>
        <time>2018-05-12T20:48:45Z</time>
      </trkpt>
      <trkpt lat="45.85698" lon="7.14534">
        <ele>2100</ele>
        <time>2018-05-12T20:49:45Z</time>
      </trkpt>
      <trkpt lat="45.85693" lon="7.14524">
        <ele>2101</ele>
        <time>2018-05-12T20:50:45Z</time>
      </trkpt>
      <trkpt lat="45.85688" lon="7.14521">
        <ele>2100</ele>
        <time>2018-05-12T20:51:45Z</time>
      </trkpt>
      <trkpt lat="45.85652" lon="7.14507">
        <ele>2086</ele>
        <time>2018-05-12T20:52:45Z</time>
      </trkpt>
      <trkpt lat="45.85635" lon="7.145">
        <ele>2096</ele>
        <time>2018-05-12T20:53:45Z</time>
      </trkpt>
      <trkpt lat="45.85615" lon="7.14492">
        <ele>2092</ele>
        <time>2018-05-12T20:54:45Z</time>
      </trkpt>
      <trkpt lat="45.85605" lon="7.14486">
        <ele>2089</ele>
        <time>2018-05-12T20:55:45Z</time>
      </trkpt>
      <trkpt lat="45.85598" lon="7.14481">
        <ele>2089</ele>
        <time>2018-05-12T20:56:45Z</time>
      </trkpt>
      <trkpt lat="45.85592" lon="7.14475">
        <ele>2090</ele>
        <time>2018-05-12T20:57:45Z</time>
      </trkpt>
      <trkpt lat="45.85586" lon="7.14472">
        <ele>2090</ele>
        <time>2018-05-12T20:58:45Z</time>
      </trkpt>
      <trkpt lat="45.8558" lon="7.14468">
        <ele>2078</ele>
        <time>2018-05-12T20:59:45Z</time>
      </trkpt>
      <trkpt lat="45.85569" lon="7.14464">
        <ele>2079</ele>
        <time>2018-05-12T21:00:45Z</time>
      </trkpt>
      <trkpt lat="45.85561" lon="7.14459">
        <ele>2080</ele>
        <time>2018-05-12T21:01:45Z</time>
      </trkpt>
      <trkpt lat="45.85553" lon="7.14452">
        <ele>2080</ele>
        <time>2018-05-12T21:02:45Z</time>
      </trkpt>
      <trkpt lat="45.85549" lon="7.14447">
        <ele>2081</ele>
        <time>2018-05-12T21:03:45Z</time>
      </trkpt>
      <trkpt lat="45.85543" lon="7.14441">
        <ele>2081</ele>
        <time>2018-05-12T21:04:45Z</time>
      </trkpt>
      <trkpt lat="45.85539" lon="7.1444">
        <ele>2081</ele>
        <time>2018-05-12T21:05:45Z</time>
      </trkpt>
      <trkpt lat="45.85535" lon="7.14441">
        <ele>2080</ele>
        <time>2018-05-12T21:06:45Z</time>
      </trkpt>
      <trkpt lat="45.85532" lon="7.14442">
        <ele>2080</ele>
        <time>2018-05-12T21:07:45Z</time>
      </trkpt>
      <trkpt lat="45.8553" lon="7.14446">
        <ele>2079</ele>
        <time>2018-05-12T21:08:45Z</time>
      </trkpt>
      <trkpt lat="45.85529" lon="7.14449">
        <ele>2079</ele>
        <time>2018-05-12T21:09:45Z</time>
      </trkpt>
      <trkpt lat="45.85529" lon="7.14454">
        <ele>2078</ele>
        <time>2018-05-12T21:10:45Z</time>
      </trkpt>
      <trkpt lat="45.8553" lon="7.1446">
        <ele>2077</ele>
        <time>2018-05-12T21:11:45Z</time>
      </trkpt>
      <trkpt lat="45.85537" lon="7.14468">
        <ele>2076</ele>
        <time>2018-05-12T21:12:45Z</time>
      </trkpt>
      <trkpt lat="45.8555" lon="7.14474">
        <ele>2077</ele>
        <time>2018-05-12T21:13:45Z</time>
      </trkpt>
      <trkpt lat="45.8556" lon="7.14478">
        <ele>2076</ele>
        <time>2018-05-12T21:14:45Z</time>
      </trkpt>
      <trkpt lat="45.85566" lon="7.14482">
        <ele>2076</ele>
        <time>2018-05-12T21:15:45Z</time>
      </trkpt>
      <trkpt lat="45.85593" lon="7.14511">
        <ele>2071</ele>
        <time>2018-05-12T21:16:45Z</time>
      </trkpt>
      <trkpt lat="45.85608" lon="7.14526">
        <ele>2072</ele>
        <time>2018-05-12T21:17:45Z</time>
      </trkpt>
      <trkpt lat="45.85633" lon="7.14542">
        <ele>2073</ele>
        <time>2018-05-12T21:18:45Z</time>
      </trkpt>
      <trkpt lat="45.85642" lon="7.14552">
        <ele>2073</ele>
        <time>2018-05-12T21:19:45Z</time>
      </trkpt>
      <trkpt lat="45.85652" lon="7.14566">
        <ele>2072</ele>
        <time>2018-05-12T21:20:45Z</time>
      </trkpt>
      <trkpt lat="45.85659" lon="7.14581">
        <ele>2072</ele>
        <time>2018-05-12T21:21:45Z</time>
      </trkpt>
      <trkpt lat="45.85664" lon="7.14595">
        <ele>2064</ele>
        <time>2018-05-12T21:22:45Z</time>
      </trkpt>
      <trkpt lat="45.85666" lon="7.14608">
        <ele>2060</ele>
        <time>2018-05-12T21:23:45Z</time>
      </trkpt>
      <trkpt lat="45.85668" lon="7.14636">
        <ele>2073</ele>
        <time>2018-05-12T21:24:45Z</time>
      </trkpt>
      <trkpt lat="45.85672" lon="7.1466">
        <ele>2063</ele>
        <time>2018-05-12T21:25:45Z</time>
      </trkpt>
      <trkpt lat="45.8568" lon="7.14693">
        <ele>2064</ele>
        <time>2018-05-12T21:26:45Z</time>
      </trkpt>
      <trkpt lat="45.85686" lon="7.14716">
        <ele>2063</ele>
        <time>2018-05-12T21:27:45Z</time>
      </trkpt>
      <trkpt lat="45.8569" lon="7.14739">
        <ele>2060</ele>
        <time>2018-05-12T21:28:45Z</time>
      </trkpt>
      <trkpt lat="45.85694" lon="7.1476">
        <ele>2054</ele>
        <time>2018-05-12T21:29:45Z</time>
      </trkpt>
      <trkpt lat="45.85698" lon="7.14778">
        <ele>2055</ele>
        <time>2018-05-12T21:30:45Z</time>
      </trkpt>
      <trkpt lat="45.85699" lon="7.14795">
        <ele>2055</ele>
        <time>2018-05-12T21:31:45Z</time>
      </trkpt>
      <trkpt lat="45.85699" lon="7.14809">
        <ele>2053</ele>
        <time>2018-05-12T21:32:45Z</time>
      </trkpt>
      <trkpt lat="45.85698" lon="7.14831">
        <ele>2050</ele>
        <time>2018-05-12T21:33:45Z</time>
      </trkpt>
      <trkpt lat="45.85696" lon="7.14853">
        <ele>2044</ele>
        <time>2018-05-12T21:34:45Z</time>
      </trkpt>
      <trkpt lat="45.85695" lon="7.14874">
        <ele>2043</ele>
        <time>2018-05-12T21:35:45Z</time>
      </trkpt>
      <trkpt lat="45.85697" lon="7.14892">
        <ele>2043</ele>
        <time>2018-05-12T21:36:45Z</time>
      </trkpt>
      <trkpt lat="45.857" lon="7.14918">
        <ele>2037</ele>
        <time>2018-05-12T21:37:45Z</time>
      </trkpt>
      <trkpt lat="45.85705" lon="7.14953">
        <ele>2039</ele>
        <time>2018-05-12T21:38:45Z</time>
      </trkpt>
      <trkpt lat="45.8571" lon="7.14986">
        <ele>2039</ele>
        <time>2018-05-12T21:39:45Z</time>
      </trkpt>
      <trkpt lat="45.85711" lon="7.15003">
        <ele>2035</ele>
        <time>2018-05-12T21:40:45Z</time>
      </trkpt>
      <trkpt lat="45.85711" lon="7.15022">
        <ele>2034</ele>
        <time>2018-05-12T21:41:45Z</time>
      </trkpt>
      <trkpt lat="45.85708" lon="7.15046">
        <ele>2032</ele>
        <time>2018-05-12T21:42:45Z</time>
      </trkpt>
      <trkpt lat="45.85706" lon="7.15072">
        <ele>2031</ele>
        <time>2018-05-12T21:43:45Z</time>
      </trkpt>
      <trkpt lat="45.85706" lon="7.15092">
        <ele>2028</ele>
        <time>2018-05-12T21:44:45Z</time>
      </trkpt>
      <trkpt lat="45.85708" lon="7.15109">
        <ele>2029</ele>
        <time>2018-05-12T21:45:45Z</time>
      </trkpt>
      <trkpt lat="45.85709" lon="7.15123">
        <ele>2030</ele>
        <time>2018-05-12T21:46:45Z</time>
      </trkpt>
      <trkpt lat="45.85709" lon="7.15141">
        <ele>2029</ele>
        <time>2018-05-12T21:47:45Z</time>
      </trkpt>
      <trkpt lat="45.85705" lon="7.15174">
        <ele>2027</ele>
        <time>2018-05-12T21:48:45Z</time>
      </trkpt>
      <trkpt lat="45.85702" lon="7.15193">
        <ele>2026</ele>
        <time>2018-05-12T21:49:45Z</time>
      </trkpt>
      <trkpt lat="45.85697" lon="7.15219">
        <ele>2025</ele>
        <time>2018-05-12T21:50:45Z</time>
      </trkpt>
      <trkpt lat="45.85692" lon="7.15249">
        <ele>2021</ele>
        <time>2018-05-12T21:51:45Z</time>
      </trkpt>
      <trkpt lat="45.85688" lon="7.15271">
        <ele>2018</ele>
        <time>2018-05-12T21:52:45Z</time>
      </trkpt>
      <trkpt lat="45.85687" lon="7.15285">
        <ele>2018</ele>
        <time>2018-05-12T21:53:45Z</time>
      </trkpt>
      <trkpt lat="45.85687" lon="7.15294">
        <ele>2017</ele>
        <time>2018-05-12T21:54:45Z</time>
      </trkpt>
      <trkpt lat="45.85689" lon="7.15303">
        <ele>2017</ele>
        <time>2018-05-12T21:55:45Z</time>
      </trkpt>
      <trkpt lat="45.85698" lon="7.15324">
        <ele>2017</ele>
        <time>2018-05-12T21:56:45Z</time>
      </trkpt>
      <trkpt lat="45.85708" lon="7.15341">
        <ele>2014</ele>
        <time>2018-05-12T21:57:45Z</time>
      </trkpt>
      <trkpt lat="45.85714" lon="7.15356">
        <ele>2015</ele>
        <time>2018-05-12T21:58:45Z</time>
      </trkpt>
      <trkpt lat="45.85718" lon="7.15372">
        <ele>2015</ele>
        <time>2018-05-12T21:59:45Z</time>
      </trkpt>
      <trkpt lat="45.85721" lon="7.15384">
        <ele>2015</ele>
        <time>2018-05-12T22:00:45Z</time>
      </trkpt>
      <trkpt lat="45.85722" lon="7.15407">
        <ele>2016</ele>
        <time>2018-05-12T22:01:45Z</time>
      </trkpt>
      <trkpt lat="45.85722" lon="7.15436">
        <ele>2007</ele>
        <time>2018-05-12T22:02:45Z</time>
      </trkpt>
      <trkpt lat="45.85721" lon="7.15454">
        <ele>2004</ele>
        <time>2018-05-12T22:03:45Z</time>
      </trkpt>
      <trkpt lat="45.8572" lon="7.15466">
        <ele>2002</ele>
        <time>2018-05-12T22:04:45Z</time>
      </trkpt>
      <trkpt lat="45.85719" lon="7.15473">
        <ele>2001</ele>
        <time>2018-05-12T22:05:45Z</time>
      </trkpt>
      <trkpt lat="45.85716" lon="7.1548">
        <ele>2000</ele>
        <time>2018-05-12T22:06:45Z</time>
      </trkpt>
      <trkpt lat="45.85713" lon="7.15482">
        <ele>1999</ele>
        <time>2018-05-12T22:07:45Z</time>
      </trkpt>
      <trkpt lat="45.8571" lon="7.15482">
        <ele>1998</ele>
        <time>2018-05-12T22:08:45Z</time>
      </trkpt>
      <trkpt lat="45.85707" lon="7.15481">
        <ele>1996</ele>
        <time>2018-05-12T22:09:45Z</time>
      </trkpt>
      <trkpt lat="45.85704" lon="7.15478">
        <ele>1995</ele>
        <time>2018-05-12T22:10:45Z</time>
      </trkpt>
      <trkpt lat="45.85702" lon="7.15474">
        <ele>1995</ele>
        <time>2018-05-12T22:11:45Z</time>
      </trkpt>
      <trkpt lat="45.85702" lon="7.15464">
        <ele>1996</ele>
        <time>2018-05-12T22:12:45Z</time>
      </trkpt>
      <trkpt lat="45.85703" lon="7.15454">
        <ele>1998</ele>
        <time>2018-05-12T22:13:45Z</time>
      </trkpt>
      <trkpt lat="45.85705" lon="7.15439">
        <ele>1999</ele>
        <time>2018-05-12T22:14:45Z</time>
      </trkpt>
      <trkpt lat="45.85705" lon="7.15427">
        <ele>2000</ele>
        <time>2018-05-12T22:15:45Z</time>
      </trkpt>
      <trkpt lat="45.85704" lon="7.15417">
        <ele>2000</ele>
        <time>2018-05-12T22:16:45Z</time>
      </trkpt>
      <trkpt lat="45.85704" lon="7.15416">
        <ele>2008</ele>
        <time>2018-05-12T22:17:45Z</time>
      </trkpt>
      <trkpt lat="45.85701" lon="7.15404">
        <ele>2007</ele>
        <time>2018-05-12T22:18:45Z</time>
      </trkpt>
      <trkpt lat="45.85694" lon="7.15385">
        <ele>2007</ele>
        <time>2018-05-12T22:19:45Z</time>
      </trkpt>
      <trkpt lat="45.85684" lon="7.1536">
        <ele>2006</ele>
        <time>2018-05-12T22:20:45Z</time>
      </trkpt>
      <trkpt lat="45.85678" lon="7.1535">
        <ele>2003</ele>
        <time>2018-05-12T22:21:45Z</time>
      </trkpt>
      <trkpt lat="45.85668" lon="7.15334">
        <ele>1995</ele>
        <time>2018-05-12T22:22:45Z</time>
      </trkpt>
      <trkpt lat="45.85658" lon="7.15318">
        <ele>1985</ele>
        <time>2018-05-12T22:23:45Z</time>
      </trkpt>
      <trkpt lat="45.85654" lon="7.15309">
        <ele>1983</ele>
        <time>2018-05-12T22:24:45Z</time>
      </trkpt>
      <trkpt lat="45.85651" lon="7.15293">
        <ele>1982</ele>
        <time>2018-05-12T22:25:45Z</time>
      </trkpt>
      <trkpt lat="45.85651" lon="7.15275">
        <ele>1984</ele>
        <time>2018-05-12T22:26:45Z</time>
      </trkpt>
      <trkpt lat="45.85651" lon="7.15252">
        <ele>1990</ele>
        <time>2018-05-12T22:27:45Z</time>
      </trkpt>
      <trkpt lat="45.85652" lon="7.15223">
        <ele>1988</ele>
        <time>2018-05-12T22:28:45Z</time>
      </trkpt>
      <trkpt lat="45.85653" lon="7.15194">
        <ele>1987</ele>
        <time>2018-05-12T22:29:45Z</time>
      </trkpt>
      <trkpt lat="45.85653" lon="7.15166">
        <ele>1992</ele>
        <time>2018-05-12T22:30:45Z</time>
      </trkpt>
      <trkpt lat="45.85652" lon="7.15139">
        <ele>1989</ele>
        <time>2018-05-12T22:31:45Z</time>
      </trkpt>
      <trkpt lat="45.8565" lon="7.15127">
        <ele>1988</ele>
        <time>2018-05-12T22:32:45Z</time>
      </trkpt>
      <trkpt lat="45.85639" lon="7.15085">
        <ele>1989</ele>
        <time>2018-05-12T22:33:45Z</time>
      </trkpt>
      <trkpt lat="45.8563" lon="7.15058">
        <ele>1992</ele>
        <time>2018-05-12T22:34:45Z</time>
      </trkpt>
      <trkpt lat="45.85626" lon="7.15051">
        <ele>1991</ele>
        <time>2018-05-12T22:35:45Z</time>
      </trkpt>
      <trkpt lat="45.85622" lon="7.15049">
        <ele>1991</ele>
        <time>2018-05-12T22:36:45Z</time>
      </trkpt>
      <trkpt lat="45.85617" lon="7.15049">
        <ele>1990</ele>
        <time>2018-05-12T22:37:45Z</time>
      </trkpt>
      <trkpt lat="45.85613" lon="7.15053">
        <ele>1989</ele>
        <time>2018-05-12T22:38:45Z</time>
      </trkpt>
      <trkpt lat="45.85607" lon="7.15063">
        <ele>1986</ele>
        <time>2018-05-12T22:39:45Z</time>
      </trkpt>
      <trkpt lat="45.85602" lon="7.15079">
        <ele>1983</ele>
        <time>2018-05-12T22:40:45Z</time>
      </trkpt>
      <trkpt lat="45.8559" lon="7.15109">
        <ele>1979</ele>
        <time>2018-05-12T22:41:45Z</time>
      </trkpt>
      <trkpt lat="45.85583" lon="7.15124">
        <ele>1964</ele>
        <time>2018-05-12T22:42:45Z</time>
      </trkpt>
      <trkpt lat="45.85577" lon="7.1513">
        <ele>1963</ele>
        <time>2018-05-12T22:43:45Z</time>
      </trkpt>
      <trkpt lat="45.85574" lon="7.15132">
        <ele>1963</ele>
        <time>2018-05-12T22:44:45Z</time>
      </trkpt>
      <trkpt lat="45.8557" lon="7.15132">
        <ele>1963</ele>
        <time>2018-05-12T22:45:45Z</time>
      </trkpt>
      <trkpt lat="45.85564" lon="7.15131">
        <ele>1962</ele>
        <time>2018-05-12T22:46:45Z</time>
      </trkpt>
      <trkpt lat="45.85553" lon="7.1512">
        <ele>1962</ele>
        <time>2018-05-12T22:47:45Z</time>
      </trkpt>
      <trkpt lat="45.85528" lon="7.15096">
        <ele>1961</ele>
        <time>2018-05-12T22:48:45Z</time>
      </trkpt>
      <trkpt lat="45.85511" lon="7.15079">
        <ele>1964</ele>
        <time>2018-05-12T22:49:45Z</time>
      </trkpt>
      <trkpt lat="45.855" lon="7.15071">
        <ele>1964</ele>
        <time>2018-05-12T22:50:45Z</time>
      </trkpt>
      <trkpt lat="45.85492" lon="7.15066">
        <ele>1966</ele>
        <time>2018-05-12T22:51:45Z</time>
      </trkpt>
      <trkpt lat="45.85475" lon="7.15056">
        <ele>1969</ele>
        <time>2018-05-12T22:52:45Z</time>
      </trkpt>
      <trkpt lat="45.85466" lon="7.15048">
        <ele>1971</ele>
        <time>2018-05-12T22:53:45Z</time>
      </trkpt>
      <trkpt lat="45.85456" lon="7.15044">
        <ele>1972</ele>
        <time>2018-05-12T22:54:45Z</time>
      </trkpt>
      <trkpt lat="45.85451" lon="7.15043">
        <ele>1972</ele>
        <time>2018-05-12T22:55:45Z</time>
      </trkpt>
      <trkpt lat="45.85447" lon="7.15044">
        <ele>1972</ele>
        <time>2018-05-12T22:56:45Z</time>
      </trkpt>
      <trkpt lat="45.85445" lon="7.15046">
        <ele>1972</ele>
        <time>2018-05-12T22:57:45Z</time>
      </trkpt>
      <trkpt lat="45.85441" lon="7.1505">
        <ele>1971</ele>
        <time>2018-05-12T22:58:45Z</time>
      </trkpt>
      <trkpt lat="45.85439" lon="7.15053">
        <ele>1971</ele>
        <time>2018-05-12T22:59:45Z</time>
      </trkpt>
      <trkpt lat="45.85435" lon="7.15061">
        <ele>1970</ele>
        <time>2018-05-12T23:00:45Z</time>
      </trkpt>
      <trkpt lat="45.85432" lon="7.15071">
        <ele>1969</ele>
        <time>2018-05-12T23:01:45Z</time>
      </trkpt>
      <trkpt lat="45.8543" lon="7.1508">
        <ele>1968</ele>
        <time>2018-05-12T23:02:45Z</time>
      </trkpt>
      <trkpt lat="45.85421" lon="7.15097">
        <ele>1960</ele>
        <time>2018-05-12T23:03:45Z</time>
      </trkpt>
      <trkpt lat="45.85413" lon="7.15107">
        <ele>1966</ele>
        <time>2018-05-12T23:04:45Z</time>
      </trkpt>
      <trkpt lat="45.85407" lon="7.1512">
        <ele>1965</ele>
        <time>2018-05-12T23:05:45Z</time>
      </trkpt>
      <trkpt lat="45.85404" lon="7.15127">
        <ele>1965</ele>
        <time>2018-05-12T23:06:45Z</time>
      </trkpt>
      <trkpt lat="45.85401" lon="7.15137">
        <ele>1963</ele>
        <time>2018-05-12T23:07:45Z</time>
      </trkpt>
      <trkpt lat="45.85396" lon="7.1515">
        <ele>1960</ele>
        <time>2018-05-12T23:08:45Z</time>
      </trkpt>
      <trkpt lat="45.85387" lon="7.15166">
        <ele>1961</ele>
        <time>2018-05-12T23:09:45Z</time>
      </trkpt>
      <trkpt lat="45.85372" lon="7.1519">
        <ele>1946</ele>
        <time>2018-05-12T23:10:45Z</time>
      </trkpt>
      <trkpt lat="45.85358" lon="7.15209">
        <ele>1945</ele>
        <time>2018-05-12T23:11:45Z</time>
      </trkpt>
      <trkpt lat="45.85349" lon="7.15221">
        <ele>1943</ele>
        <time>2018-05-12T23:12:45Z</time>
      </trkpt>
      <trkpt lat="45.85341" lon="7.1523">
        <ele>1941</ele>
        <time>2018-05-12T23:13:45Z</time>
      </trkpt>
      <trkpt lat="45.85333" lon="7.15234">
        <ele>1947</ele>
        <time>2018-05-12T23:14:45Z</time>
      </trkpt>
      <trkpt lat="45.85325" lon="7.15238">
        <ele>1947</ele>
        <time>2018-05-12T23:15:45Z</time>
      </trkpt>
      <trkpt lat="45.85317" lon="7.15239">
        <ele>1949</ele>
        <time>2018-05-12T23:16:45Z</time>
      </trkpt>
      <trkpt lat="45.85309" lon="7.1524">
        <ele>1951</ele>
        <time>2018-05-12T23:17:45Z</time>
      </trkpt>
      <trkpt lat="45.85294" lon="7.15238">
        <ele>1954</ele>
        <time>2018-05-12T23:18:45Z</time>
      </trkpt>
      <trkpt lat="45.85273" lon="7.15236">
        <ele>1955</ele>
        <time>2018-05-12T23:19:45Z</time>
      </trkpt>
      <trkpt lat="45.85266" lon="7.15236">
        <ele>1955</ele>
        <time>2018-05-12T23:20:45Z</time>
      </trkpt>
      <trkpt lat="45.85262" lon="7.15239">
        <ele>1954</ele>
        <time>2018-05-12T23:21:45Z</time>
      </trkpt>
      <trkpt lat="45.85256" lon="7.15244">
        <ele>1953</ele>
        <time>2018-05-12T23:22:45Z</time>
      </trkpt>
      <trkpt lat="45.8525" lon="7.15252">
        <ele>1952</ele>
        <time>2018-05-12T23:23:45Z</time>
      </trkpt>
      <trkpt lat="45.85247" lon="7.15258">
        <ele>1954</ele>
        <time>2018-05-12T23:24:45Z</time>
      </trkpt>
      <trkpt lat="45.85245" lon="7.15264">
        <ele>1956</ele>
        <time>2018-05-12T23:25:45Z</time>
      </trkpt>
      <trkpt lat="45.85244" lon="7.15271">
        <ele>1957</ele>
        <time>2018-05-12T23:26:45Z</time>
      </trkpt>
      <trkpt lat="45.85245" lon="7.15283">
        <ele>1957</ele>
        <time>2018-05-12T23:27:45Z</time>
      </trkpt>
      <trkpt lat="45.85246" lon="7.1529">
        <ele>1956</ele>
        <time>2018-05-12T23:28:45Z</time>
      </trkpt>
      <trkpt lat="45.8525" lon="7.15301">
        <ele>1953</ele>
        <time>2018-05-12T23:29:45Z</time>
      </trkpt>
      <trkpt lat="45.85252" lon="7.15313">
        <ele>1934</ele>
        <time>2018-05-12T23:30:45Z</time>
      </trkpt>
      <trkpt lat="45.85252" lon="7.15323">
        <ele>1933</ele>
        <time>2018-05-12T23:31:45Z</time>
      </trkpt>
      <trkpt lat="45.85252" lon="7.15331">
        <ele>1933</ele>
        <time>2018-05-12T23:32:45Z</time>
      </trkpt>
      <trkpt lat="45.85252" lon="7.15338">
        <ele>1929</ele>
        <time>2018-05-12T23:33:45Z</time>
      </trkpt>
      <trkpt lat="45.85251" lon="7.15342">
        <ele>1927</ele>
        <time>2018-05-12T23:34:45Z</time>
      </trkpt>
      <trkpt lat="45.85248" lon="7.15347">
        <ele>1937</ele>
        <time>2018-05-12T23:35:45Z</time>
      </trkpt>
      <trkpt lat="45.85243" lon="7.15355">
        <ele>1938</ele>
        <time>2018-05-12T23:36:45Z</time>
      </trkpt>
      <trkpt lat="45.85239" lon="7.15359">
        <ele>1939</ele>
        <time>2018-05-12T23:37:45Z</time>
      </trkpt>
      <trkpt lat="45.85231" lon="7.15364">
        <ele>1940</ele>
        <time>2018-05-12T23:38:45Z</time>
      </trkpt>
      <trkpt lat="45.85223" lon="7.1537">
        <ele>1941</ele>
        <time>2018-05-12T23:39:45Z</time>
      </trkpt>
      <trkpt lat="45.85216" lon="7.15375">
        <ele>1942</ele>
        <time>2018-05-12T23:40:45Z</time>
      </trkpt>
      <trkpt lat="45.85211" lon="7.15382">
        <ele>1943</ele>
        <time>2018-05-12T23:41:45Z</time>
      </trkpt>
      <trkpt lat="45.85206" lon="7.15393">
        <ele>1943</ele>
        <time>2018-05-12T23:42:45Z</time>
      </trkpt>
      <trkpt lat="45.85202" lon="7.15407">
        <ele>1943</ele>
        <time>2018-05-12T23:43:45Z</time>
      </trkpt>
      <trkpt lat="45.85199" lon="7.15422">
        <ele>1931</ele>
        <time>2018-05-12T23:44:45Z</time>
      </trkpt>
      <trkpt lat="45.85196" lon="7.15435">
        <ele>1930</ele>
        <time>2018-05-12T23:45:45Z</time>
      </trkpt>
      <trkpt lat="45.85189" lon="7.15453">
        <ele>1929</ele>
        <time>2018-05-12T23:46:45Z</time>
      </trkpt>
      <trkpt lat="45.85179" lon="7.15477">
        <ele>1928</ele>
        <time>2018-05-12T23:47:45Z</time>
      </trkpt>
      <trkpt lat="45.85169" lon="7.15502">
        <ele>1929</ele>
        <time>2018-05-12T23:48:45Z</time>
      </trkpt>
      <trkpt lat="45.85159" lon="7.15527">
        <ele>1936</ele>
        <time>2018-05-12T23:49:45Z</time>
      </trkpt>
      <trkpt lat="45.85146" lon="7.15551">
        <ele>1934</ele>
        <time>2018-05-12T23:50:45Z</time>
      </trkpt>
      <trkpt lat="45.85134" lon="7.1557">
        <ele>1934</ele>
        <time>2018-05-12T23:51:45Z</time>
      </trkpt>
      <trkpt lat="45.85122" lon="7.15591">
        <ele>1921</ele>
        <time>2018-05-12T23:52:45Z</time>
      </trkpt>
      <trkpt lat="45.85104" lon="7.15626">
        <ele>1920</ele>
        <time>2018-05-12T23:53:45Z</time>
      </trkpt>
      <trkpt lat="45.85092" lon="7.15646">
        <ele>1920</ele>
        <time>2018-05-12T23:54:45Z</time>
      </trkpt>
      <trkpt lat="45.85078" lon="7.15665">
        <ele>1930</ele>
        <time>2018-05-12T23:55:45Z</time>
      </trkpt>
      <trkpt lat="45.85072" lon="7.15675">
        <ele>1929</ele>
        <time>2018-05-12T23:56:45Z</time>
      </trkpt>
      <trkpt lat="45.85061" lon="7.15702">
        <ele>1932</ele>
        <time>2018-05-12T23:57:45Z</time>
      </trkpt>
      <trkpt lat="45.85053" lon="7.15726">
        <ele>1930</ele>
        <time>2018-05-12T23:58:45Z</time>
      </trkpt>
      <trkpt lat="45.85047" lon="7.15753">
        <ele>1917</ele>
        <time>2018-05-12T23:59:45Z</time>
      </trkpt>
      <trkpt lat="45.85043" lon="7.15782">
        <ele>1916</ele>
        <time>2018-05-13T00:00:45Z</time>
      </trkpt>
      <trkpt lat="45.8504" lon="7.15807">
        <ele>1915</ele>
        <time>2018-05-13T00:01:45Z</time>
      </trkpt>
      <trkpt lat="45.85033" lon="7.15837">
        <ele>1907</ele>
        <time>2018-05-13T00:02:45Z</time>
      </trkpt>
      <trkpt lat="45.8503" lon="7.15859">
        <ele>1905</ele>
        <time>2018-05-13T00:03:45Z</time>
      </trkpt>
      <trkpt lat="45.85029" lon="7.15877">
        <ele>1904</ele>
        <time>2018-05-13T00:04:45Z</time>
      </trkpt>
      <trkpt lat="45.85026" lon="7.15896">
        <ele>1904</ele>
        <time>2018-05-13T00:05:45Z</time>
      </trkpt>
      <trkpt lat="45.85019" lon="7.15913">
        <ele>1907</ele>
        <time>2018-05-13T00:06:45Z</time>
      </trkpt>
      <trkpt lat="45.85011" lon="7.15931">
        <ele>1902</ele>
        <time>2018-05-13T00:07:45Z</time>
      </trkpt>
      <trkpt lat="45.84999" lon="7.1596">
        <ele>1915</ele>
        <time>2018-05-13T00:08:45Z</time>
      </trkpt>
      <trkpt lat="45.84998" lon="7.15963">
        <ele>1915</ele>
        <time>2018-05-13T00:09:45Z</time>
      </trkpt>
      <trkpt lat="45.84989" lon="7.16007">
        <ele>1902</ele>
        <time>2018-05-13T00:10:45Z</time>
      </trkpt>
      <trkpt lat="45.84982" lon="7.16037">
        <ele>1901</ele>
        <time>2018-05-13T00:11:45Z</time>
      </trkpt>
      <trkpt lat="45.84976" lon="7.1605">
        <ele>1899</ele>
        <time>2018-05-13T00:12:45Z</time>
      </trkpt>
      <trkpt lat="45.84969" lon="7.16062">
        <ele>1899</ele>
        <time>2018-05-13T00:13:45Z</time>
      </trkpt>
      <trkpt lat="45.84963" lon="7.16073">
        <ele>1899</ele>
        <time>2018-05-13T00:14:45Z</time>
      </trkpt>
      <trkpt lat="45.84955" lon="7.1608">
        <ele>1900</ele>
        <time>2018-05-13T00:15:45Z</time>
      </trkpt>
      <trkpt lat="45.84949" lon="7.16084">
        <ele>1890</ele>
        <time>2018-05-13T00:16:45Z</time>
      </trkpt>
      <trkpt lat="45.84931" lon="7.16102">
        <ele>1893</ele>
        <time>2018-05-13T00:17:45Z</time>
      </trkpt>
      <trkpt lat="45.84919" lon="7.16118">
        <ele>1891</ele>
        <time>2018-05-13T00:18:45Z</time>
      </trkpt>
      <trkpt lat="45.84903" lon="7.16139">
        <ele>1909</ele>
        <time>2018-05-13T00:19:45Z</time>
      </trkpt>
      <trkpt lat="45.84897" lon="7.16147">
        <ele>1908</ele>
        <time>2018-05-13T00:20:45Z</time>
      </trkpt>
      <trkpt lat="45.84894" lon="7.16157">
        <ele>1907</ele>
        <time>2018-05-13T00:21:45Z</time>
      </trkpt>
      <trkpt lat="45.84892" lon="7.16164">
        <ele>1907</ele>
        <time>2018-05-13T00:22:45Z</time>
      </trkpt>
      <trkpt lat="45.84891" lon="7.16177">
        <ele>1897</ele>
        <time>2018-05-13T00:23:45Z</time>
      </trkpt>
      <trkpt lat="45.84889" lon="7.16186">
        <ele>1898</ele>
        <time>2018-05-13T00:24:45Z</time>
      </trkpt>
      <trkpt lat="45.84886" lon="7.16195">
        <ele>1898</ele>
        <time>2018-05-13T00:25:45Z</time>
      </trkpt>
      <trkpt lat="45.84868" lon="7.16248">
        <ele>1898</ele>
        <time>2018-05-13T00:26:45Z</time>
      </trkpt>
      <trkpt lat="45.84861" lon="7.16267">
        <ele>1886</ele>
        <time>2018-05-13T00:27:45Z</time>
      </trkpt>
      <trkpt lat="45.84854" lon="7.16284">
        <ele>1884</ele>
        <time>2018-05-13T00:28:45Z</time>
      </trkpt>
      <trkpt lat="45.84846" lon="7.16296">
        <ele>1883</ele>
        <time>2018-05-13T00:29:45Z</time>
      </trkpt>
      <trkpt lat="45.84838" lon="7.16307">
        <ele>1883</ele>
        <time>2018-05-13T00:30:45Z</time>
      </trkpt>
      <trkpt lat="45.84834" lon="7.16316">
        <ele>1884</ele>
        <time>2018-05-13T00:31:45Z</time>
      </trkpt>
      <trkpt lat="45.84828" lon="7.16335">
        <ele>1890</ele>
        <time>2018-05-13T00:32:45Z</time>
      </trkpt>
      <trkpt lat="45.84824" lon="7.16351">
        <ele>1894</ele>
        <time>2018-05-13T00:33:45Z</time>
      </trkpt>
      <trkpt lat="45.84812" lon="7.16386">
        <ele>1894</ele>
        <time>2018-05-13T00:34:45Z</time>
      </trkpt>
      <trkpt lat="45.848" lon="7.16415">
        <ele>1893</ele>
        <time>2018-05-13T00:35:45Z</time>
      </trkpt>
      <trkpt lat="45.84788" lon="7.16446">
        <ele>1880</ele>
        <time>2018-05-13T00:36:45Z</time>
      </trkpt>
      <trkpt lat="45.84779" lon="7.16468">
        <ele>1878</ele>
        <time>2018-05-13T00:37:45Z</time>
      </trkpt>
      <trkpt lat="45.84764" lon="7.16496">
        <ele>1880</ele>
        <time>2018-05-13T00:38:45Z</time>
      </trkpt>
      <trkpt lat="45.84749" lon="7.16516">
        <ele>1888</ele>
        <time>2018-05-13T00:39:45Z</time>
      </trkpt>
      <trkpt lat="45.84738" lon="7.16537">
        <ele>1890</ele>
        <time>2018-05-13T00:40:45Z</time>
      </trkpt>
      <trkpt lat="45.84736" lon="7.16549">
        <ele>1888</ele>
        <time>2018-05-13T00:41:45Z</time>
      </trkpt>
      <trkpt lat="45.84735" lon="7.16562">
        <ele>1885</ele>
        <time>2018-05-13T00:42:45Z</time>
      </trkpt>
      <trkpt lat="45.84736" lon="7.16576">
        <ele>1880</ele>
        <time>2018-05-13T00:43:45Z</time>
      </trkpt>
      <trkpt lat="45.84736" lon="7.16584">
        <ele>1873</ele>
        <time>2018-05-13T00:44:45Z</time>
      </trkpt>
      <trkpt lat="45.84736" lon="7.16601">
        <ele>1874</ele>
        <time>2018-05-13T00:45:45Z</time>
      </trkpt>
      <trkpt lat="45.84735" lon="7.16627">
        <ele>1874</ele>
        <time>2018-05-13T00:46:45Z</time>
      </trkpt>
      <trkpt lat="45.84732" lon="7.16656">
        <ele>1870</ele>
        <time>2018-05-13T00:47:45Z</time>
      </trkpt>
      <trkpt lat="45.84731" lon="7.16679">
        <ele>1864</ele>
        <time>2018-05-13T00:48:45Z</time>
      </trkpt>
      <trkpt lat="45.84728" lon="7.1672">
        <ele>1863</ele>
        <time>2018-05-13T00:49:45Z</time>
      </trkpt>
      <trkpt lat="45.84722" lon="7.16739">
        <ele>1863</ele>
        <time>2018-05-13T00:50:45Z</time>
      </trkpt>
      <trkpt lat="45.84717" lon="7.16751">
        <ele>1855</ele>
        <time>2018-05-13T00:51:45Z</time>
      </trkpt>
      <trkpt lat="45.84699" lon="7.1678">
        <ele>1857</ele>
        <time>2018-05-13T00:52:45Z</time>
      </trkpt>
      <trkpt lat="45.84685" lon="7.16799">
        <ele>1857</ele>
        <time>2018-05-13T00:53:45Z</time>
      </trkpt>
      <trkpt lat="45.84683" lon="7.16804">
        <ele>1857</ele>
        <time>2018-05-13T00:54:45Z</time>
      </trkpt>
      <trkpt lat="45.84678" lon="7.16821">
        <ele>1857</ele>
        <time>2018-05-13T00:55:45Z</time>
      </trkpt>
      <trkpt lat="45.8467" lon="7.16841">
        <ele>1853</ele>
        <time>2018-05-13T00:56:45Z</time>
      </trkpt>
      <trkpt lat="45.84659" lon="7.16856">
        <ele>1867</ele>
        <time>2018-05-13T00:57:45Z</time>
      </trkpt>
      <trkpt lat="45.84648" lon="7.16883">
        <ele>1866</ele>
        <time>2018-05-13T00:58:45Z</time>
      </trkpt>
      <trkpt lat="45.84634" lon="7.16928">
        <ele>1854</ele>
        <time>2018-05-13T00:59:45Z</time>
      </trkpt>
      <trkpt lat="45.84622" lon="7.16962">
        <ele>1854</ele>
        <time>2018-05-13T01:00:45Z</time>
      </trkpt>
      <trkpt lat="45.84618" lon="7.16977">
        <ele>1854</ele>
        <time>2018-05-13T01:01:45Z</time>
      </trkpt>
      <trkpt lat="45.84617" lon="7.16993">
        <ele>1853</ele>
        <time>2018-05-13T01:02:45Z</time>
      </trkpt>
      <trkpt lat="45.84615" lon="7.17018">
        <ele>1840</ele>
        <time>2018-05-13T01:03:45Z</time>
      </trkpt>
      <trkpt lat="45.84612" lon="7.17033">
        <ele>1839</ele>
        <time>2018-05-13T01:04:45Z</time>
      </trkpt>
      <trkpt lat="45.84607" lon="7.17043">
        <ele>1838</ele>
        <time>2018-05-13T01:05:45Z</time>
      </trkpt>
      <trkpt lat="45.84605" lon="7.17049">
        <ele>1838</ele>
        <time>2018-05-13T01:06:45Z</time>
      </trkpt>
      <trkpt lat="45.84597" lon="7.17059">
        <ele>1839</ele>
        <time>2018-05-13T01:07:45Z</time>
      </trkpt>
      <trkpt lat="45.84589" lon="7.17069">
        <ele>1841</ele>
        <time>2018-05-13T01:08:45Z</time>
      </trkpt>
      <trkpt lat="45.84583" lon="7.17082">
        <ele>1847</ele>
        <time>2018-05-13T01:09:45Z</time>
      </trkpt>
      <trkpt lat="45.84578" lon="7.17097">
        <ele>1846</ele>
        <time>2018-05-13T01:10:45Z</time>
      </trkpt>
      <trkpt lat="45.84569" lon="7.17123">
        <ele>1844</ele>
        <time>2018-05-13T01:11:45Z</time>
      </trkpt>
      <trkpt lat="45.84562" lon="7.17141">
        <ele>1841</ele>
        <time>2018-05-13T01:12:45Z</time>
      </trkpt>
      <trkpt lat="45.84553" lon="7.1716">
        <ele>1841</ele>
        <time>2018-05-13T01:13:45Z</time>
      </trkpt>
      <trkpt lat="45.84544" lon="7.17176">
        <ele>1827</ele>
        <time>2018-05-13T01:14:45Z</time>
      </trkpt>
      <trkpt lat="45.84531" lon="7.17197">
        <ele>1828</ele>
        <time>2018-05-13T01:15:45Z</time>
      </trkpt>
      <trkpt lat="45.84518" lon="7.17212">
        <ele>1829</ele>
        <time>2018-05-13T01:16:45Z</time>
      </trkpt>
      <trkpt lat="45.84505" lon="7.17234">
        <ele>1829</ele>
        <time>2018-05-13T01:17:45Z</time>
      </trkpt>
      <trkpt lat="45.84485" lon="7.17277">
        <ele>1835</ele>
        <time>2018-05-13T01:18:45Z</time>
      </trkpt>
      <trkpt lat="45.84463" lon="7.1732">
        <ele>1834</ele>
        <time>2018-05-13T01:19:45Z</time>
      </trkpt>
      <trkpt lat="45.8445" lon="7.17353">
        <ele>1822</ele>
        <time>2018-05-13T01:20:45Z</time>
      </trkpt>
      <trkpt lat="45.84441" lon="7.17379">
        <ele>1819</ele>
        <time>2018-05-13T01:21:45Z</time>
      </trkpt>
      <trkpt lat="45.84432" lon="7.17404">
        <ele>1819</ele>
        <time>2018-05-13T01:22:45Z</time>
      </trkpt>
      <trkpt lat="45.84425" lon="7.17419">
        <ele>1814</ele>
        <time>2018-05-13T01:23:45Z</time>
      </trkpt>
      <trkpt lat="45.84417" lon="7.17432">
        <ele>1810</ele>
        <time>2018-05-13T01:24:45Z</time>
      </trkpt>
      <trkpt lat="45.84405" lon="7.17447">
        <ele>1822</ele>
        <time>2018-05-13T01:25:45Z</time>
      </trkpt>
      <trkpt lat="45.84394" lon="7.17458">
        <ele>1821</ele>
        <time>2018-05-13T01:26:45Z</time>
      </trkpt>
      <trkpt lat="45.84383" lon="7.17475">
        <ele>1820</ele>
        <time>2018-05-13T01:27:45Z</time>
      </trkpt>
      <trkpt lat="45.84376" lon="7.17492">
        <ele>1820</ele>
        <time>2018-05-13T01:28:45Z</time>
      </trkpt>
      <trkpt lat="45.84367" lon="7.1751">
        <ele>1807</ele>
        <time>2018-05-13T01:29:45Z</time>
      </trkpt>
      <trkpt lat="45.84357" lon="7.17527">
        <ele>1806</ele>
        <time>2018-05-13T01:30:45Z</time>
      </trkpt>
      <trkpt lat="45.84338" lon="7.17551">
        <ele>1805</ele>
        <time>2018-05-13T01:31:45Z</time>
      </trkpt>
      <trkpt lat="45.84323" lon="7.17581">
        <ele>1813</ele>
        <time>2018-05-13T01:32:45Z</time>
      </trkpt>
      <trkpt lat="45.84304" lon="7.17607">
        <ele>1803</ele>
        <time>2018-05-13T01:33:45Z</time>
      </trkpt>
      <trkpt lat="45.84281" lon="7.17632">
        <ele>1802</ele>
        <time>2018-05-13T01:34:45Z</time>
      </trkpt>
      <trkpt lat="45.8425" lon="7.1766">
        <ele>1801</ele>
        <time>2018-05-13T01:35:45Z</time>
      </trkpt>
      <trkpt lat="45.84218" lon="7.17693">
        <ele>1795</ele>
        <time>2018-05-13T01:36:45Z</time>
      </trkpt>
      <trkpt lat="45.84187" lon="7.1772">
        <ele>1794</ele>
        <time>2018-05-13T01:37:45Z</time>
      </trkpt>
      <trkpt lat="45.84157" lon="7.1775">
        <ele>1786</ele>
        <time>2018-05-13T01:38:45Z</time>
      </trkpt>
      <trkpt lat="45.84139" lon="7.17769">
        <ele>1783</ele>
        <time>2018-05-13T01:39:45Z</time>
      </trkpt>
      <trkpt lat="45.84126" lon="7.17776">
        <ele>1783</ele>
        <time>2018-05-13T01:40:45Z</time>
      </trkpt>
      <trkpt lat="45.84113" lon="7.1778">
        <ele>1784</ele>
        <time>2018-05-13T01:41:45Z</time>
      </trkpt>
      <trkpt lat="45.84096" lon="7.17781">
        <ele>1786</ele>
        <time>2018-05-13T01:42:45Z</time>
      </trkpt>
      <trkpt lat="45.8409" lon="7.17782">
        <ele>1786</ele>
        <time>2018-05-13T01:43:45Z</time>
      </trkpt>
      <trkpt lat="45.84086" lon="7.17785">
        <ele>1785</ele>
        <time>2018-05-13T01:44:45Z</time>
      </trkpt>
      <trkpt lat="45.84082" lon="7.1779">
        <ele>1796</ele>
        <time>2018-05-13T01:45:45Z</time>
      </trkpt>
      <trkpt lat="45.84082" lon="7.17796">
        <ele>1794</ele>
        <time>2018-05-13T01:46:45Z</time>
      </trkpt>
      <trkpt lat="45.84083" lon="7.17802">
        <ele>1793</ele>
        <time>2018-05-13T01:47:45Z</time>
      </trkpt>
      <trkpt lat="45.84084" lon="7.17805">
        <ele>1780</ele>
        <time>2018-05-13T01:48:45Z</time>
      </trkpt>
      <trkpt lat="45.84086" lon="7.17806">
        <ele>1780</ele>
        <time>2018-05-13T01:49:45Z</time>
      </trkpt>
      <trkpt lat="45.84088" lon="7.17807">
        <ele>1780</ele>
        <time>2018-05-13T01:50:45Z</time>
      </trkpt>
      <trkpt lat="45.84097" lon="7.17807">
        <ele>1780</ele>
        <time>2018-05-13T01:51:45Z</time>
      </trkpt>
      <trkpt lat="45.84137" lon="7.17794">
        <ele>1780</ele>
        <time>2018-05-13T01:52:45Z</time>
      </trkpt>
      <trkpt lat="45.84166" lon="7.17778">
        <ele>1782</ele>
        <time>2018-05-13T01:53:45Z</time>
      </trkpt>
      <trkpt lat="45.84188" lon="7.17764">
        <ele>1773</ele>
        <time>2018-05-13T01:54:45Z</time>
      </trkpt>
      <trkpt lat="45.84203" lon="7.17758">
        <ele>1770</ele>
        <time>2018-05-13T01:55:45Z</time>
      </trkpt>
      <trkpt lat="45.84229" lon="7.1775">
        <ele>1768</ele>
        <time>2018-05-13T01:56:45Z</time>
      </trkpt>
      <trkpt lat="45.84259" lon="7.17732">
        <ele>1771</ele>
        <time>2018-05-13T01:57:45Z</time>
      </trkpt>
      <trkpt lat="45.84275" lon="7.17722">
        <ele>1771</ele>
        <time>2018-05-13T01:58:45Z</time>
      </trkpt>
      <trkpt lat="45.84297" lon="7.17707">
        <ele>1770</ele>
        <time>2018-05-13T01:59:45Z</time>
      </trkpt>
      <trkpt lat="45.84312" lon="7.17701">
        <ele>1770</ele>
        <time>2018-05-13T02:00:45Z</time>
      </trkpt>
      <trkpt lat="45.84328" lon="7.17696">
        <ele>1769</ele>
        <time>2018-05-13T02:01:45Z</time>
      </trkpt>
      <trkpt lat="45.84342" lon="7.17693">
        <ele>1756</ele>
        <time>2018-05-13T02:02:45Z</time>
      </trkpt>
      <trkpt lat="45.84354" lon="7.1769">
        <ele>1755</ele>
        <time>2018-05-13T02:03:45Z</time>
      </trkpt>
      <trkpt lat="45.84371" lon="7.17684">
        <ele>1752</ele>
        <time>2018-05-13T02:04:45Z</time>
      </trkpt>
      <trkpt lat="45.84376" lon="7.1768">
        <ele>1752</ele>
        <time>2018-05-13T02:05:45Z</time>
      </trkpt>
      <trkpt lat="45.8439" lon="7.17667">
        <ele>1750</ele>
        <time>2018-05-13T02:06:45Z</time>
      </trkpt>
      <trkpt lat="45.84417" lon="7.17637">
        <ele>1751</ele>
        <time>2018-05-13T02:07:45Z</time>
      </trkpt>
      <trkpt lat="45.84427" lon="7.17627">
        <ele>1753</ele>
        <time>2018-05-13T02:08:45Z</time>
      </trkpt>
      <trkpt lat="45.84436" lon="7.17614">
        <ele>1754</ele>
        <time>2018-05-13T02:09:45Z</time>
      </trkpt>
      <trkpt lat="45.8444" lon="7.17605">
        <ele>1755</ele>
        <time>2018-05-13T02:10:45Z</time>
      </trkpt>
      <trkpt lat="45.84447" lon="7.17594">
        <ele>1755</ele>
        <time>2018-05-13T02:11:45Z</time>
      </trkpt>
      <trkpt lat="45.84462" lon="7.17575">
        <ele>1763</ele>
        <time>2018-05-13T02:12:45Z</time>
      </trkpt>
      <trkpt lat="45.84484" lon="7.17556">
        <ele>1760</ele>
        <time>2018-05-13T02:13:45Z</time>
      </trkpt>
      <trkpt lat="45.84505" lon="7.17537">
        <ele>1747</ele>
        <time>2018-05-13T02:14:45Z</time>
      </trkpt>
      <trkpt lat="45.84516" lon="7.17528">
        <ele>1748</ele>
        <time>2018-05-13T02:15:45Z</time>
      </trkpt>
      <trkpt lat="45.84521" lon="7.17525">
        <ele>1748</ele>
        <time>2018-05-13T02:16:45Z</time>
      </trkpt>
      <trkpt lat="45.84525" lon="7.17523">
        <ele>1747</ele>
        <time>2018-05-13T02:17:45Z</time>
      </trkpt>
      <trkpt lat="45.84527" lon="7.17524">
        <ele>1747</ele>
        <time>2018-05-13T02:18:45Z</time>
      </trkpt>
      <trkpt lat="45.84531" lon="7.17525">
        <ele>1746</ele>
        <time>2018-05-13T02:19:45Z</time>
      </trkpt>
      <trkpt lat="45.84534" lon="7.17528">
        <ele>1745</ele>
        <time>2018-05-13T02:20:45Z</time>
      </trkpt>
      <trkpt lat="45.84539" lon="7.17533">
        <ele>1744</ele>
        <time>2018-05-13T02:21:45Z</time>
      </trkpt>
      <trkpt lat="45.8455" lon="7.17548">
        <ele>1743</ele>
        <time>2018-05-13T02:22:45Z</time>
      </trkpt>
      <trkpt lat="45.8456" lon="7.17563">
        <ele>1742</ele>
        <time>2018-05-13T02:23:45Z</time>
      </trkpt>
      <trkpt lat="45.84563" lon="7.17569">
        <ele>1742</ele>
        <time>2018-05-13T02:24:45Z</time>
      </trkpt>
      <trkpt lat="45.84564" lon="7.17574">
        <ele>1742</ele>
        <time>2018-05-13T02:25:45Z</time>
      </trkpt>
      <trkpt lat="45.84563" lon="7.17582">
        <ele>1742</ele>
        <time>2018-05-13T02:26:45Z</time>
      </trkpt>
      <trkpt lat="45.8456" lon="7.17591">
        <ele>1745</ele>
        <time>2018-05-13T02:27:45Z</time>
      </trkpt>
      <trkpt lat="45.84556" lon="7.17598">
        <ele>1746</ele>
        <time>2018-05-13T02:28:45Z</time>
      </trkpt>
      <trkpt lat="45.84543" lon="7.17609">
        <ele>1747</ele>
        <time>2018-05-13T02:29:45Z</time>
      </trkpt>
      <trkpt lat="45.84525" lon="7.17619">
        <ele>1746</ele>
        <time>2018-05-13T02:30:45Z</time>
      </trkpt>
      <trkpt lat="45.84507" lon="7.17633">
        <ele>1746</ele>
        <time>2018-05-13T02:31:45Z</time>
      </trkpt>
      <trkpt lat="45.84492" lon="7.17647">
        <ele>1745</ele>
        <time>2018-05-13T02:32:45Z</time>
      </trkpt>
      <trkpt lat="45.8448" lon="7.17659">
        <ele>1746</ele>
        <time>2018-05-13T02:33:45Z</time>
      </trkpt>
      <trkpt lat="45.84458" lon="7.17678">
        <ele>1746</ele>
        <time>2018-05-13T02:34:45Z</time>
      </trkpt>
      <trkpt lat="45.84441" lon="7.17692">
        <ele>1746</ele>
        <time>2018-05-13T02:35:45Z</time>
      </trkpt>
      <trkpt lat="45.8442" lon="7.17713">
        <ele>1744</ele>
        <time>2018-05-13T02:36:45Z</time>
      </trkpt>
      <trkpt lat="45.84399" lon="7.17735">
        <ele>1742</ele>
        <time>2018-05-13T02:37:45Z</time>
      </trkpt>
      <trkpt lat="45.8438" lon="7.17756">
        <ele>1739</ele>
        <time>2018-05-13T02:38:45Z</time>
      </trkpt>
      <trkpt lat="45.84368" lon="7.17772">
        <ele>1739</ele>
        <time>2018-05-13T02:39:45Z</time>
      </trkpt>
      <trkpt lat="45.84359" lon="7.17791">
        <ele>1739</ele>
        <time>2018-05-13T02:40:45Z</time>
      </trkpt>
      <trkpt lat="45.8435" lon="7.17814">
        <ele>1736</ele>
        <time>2018-05-13T02:41:45Z</time>
      </trkpt>
      <trkpt lat="45.84342" lon="7.17827">
        <ele>1732</ele>
        <time>2018-05-13T02:42:45Z</time>
      </trkpt>
      <trkpt lat="45.8433" lon="7.17844">
        <ele>1728</ele>
        <time>2018-05-13T02:43:45Z</time>
      </trkpt>
      <trkpt lat="45.84316" lon="7.1786">
        <ele>1729</ele>
        <time>2018-05-13T02:44:45Z</time>
      </trkpt>
      <trkpt lat="45.84307" lon="7.17875">
        <ele>1729</ele>
        <time>2018-05-13T02:45:45Z</time>
      </trkpt>
      <trkpt lat="45.84302" lon="7.17891">
        <ele>1729</ele>
        <time>2018-05-13T02:46:45Z</time>
      </trkpt>
      <trkpt lat="45.84295" lon="7.1792">
        <ele>1729</ele>
        <time>2018-05-13T02:47:45Z</time>
      </trkpt>
      <trkpt lat="45.84291" lon="7.17942">
        <ele>1729</ele>
        <time>2018-05-13T02:48:45Z</time>
      </trkpt>
      <trkpt lat="45.84285" lon="7.17958">
        <ele>1728</ele>
        <time>2018-05-13T02:49:45Z</time>
      </trkpt>
      <trkpt lat="45.84277" lon="7.17973">
        <ele>1727</ele>
        <time>2018-05-13T02:50:45Z</time>
      </trkpt>
      <trkpt lat="45.84268" lon="7.17983">
        <ele>1725</ele>
        <time>2018-05-13T02:51:45Z</time>
      </trkpt>
      <trkpt lat="45.84258" lon="7.1799">
        <ele>1721</ele>
        <time>2018-05-13T02:52:45Z</time>
      </trkpt>
      <trkpt lat="45.84244" lon="7.17996">
        <ele>1715</ele>
        <time>2018-05-13T02:53:45Z</time>
      </trkpt>
      <trkpt lat="45.84227" lon="7.18">
        <ele>1714</ele>
        <time>2018-05-13T02:54:45Z</time>
      </trkpt>
      <trkpt lat="45.8421" lon="7.18004">
        <ele>1720</ele>
        <time>2018-05-13T02:55:45Z</time>
      </trkpt>
      <trkpt lat="45.8419" lon="7.18008">
        <ele>1718</ele>
        <time>2018-05-13T02:56:45Z</time>
      </trkpt>
      <trkpt lat="45.84167" lon="7.18013">
        <ele>1714</ele>
        <time>2018-05-13T02:57:45Z</time>
      </trkpt>
      <trkpt lat="45.84135" lon="7.18022">
        <ele>1713</ele>
        <time>2018-05-13T02:58:45Z</time>
      </trkpt>
      <trkpt lat="45.84099" lon="7.18037">
        <ele>1713</ele>
        <time>2018-05-13T02:59:45Z</time>
      </trkpt>
      <trkpt lat="45.84081" lon="7.18045">
        <ele>1711</ele>
        <time>2018-05-13T03:00:45Z</time>
      </trkpt>
      <trkpt lat="45.84066" lon="7.18058">
        <ele>1711</ele>
        <time>2018-05-13T03:01:45Z</time>
      </trkpt>
      <trkpt lat="45.84054" lon="7.18069">
        <ele>1710</ele>
        <time>2018-05-13T03:02:45Z</time>
      </trkpt>
      <trkpt lat="45.84039" lon="7.18084">
        <ele>1714</ele>
        <time>2018-05-13T03:03:45Z</time>
      </trkpt>
      <trkpt lat="45.84023" lon="7.18096">
        <ele>1712</ele>
        <time>2018-05-13T03:04:45Z</time>
      </trkpt>
      <trkpt lat="45.84003" lon="7.1811">
        <ele>1712</ele>
        <time>2018-05-13T03:05:45Z</time>
      </trkpt>
      <trkpt lat="45.83983" lon="7.18129">
        <ele>1704</ele>
        <time>2018-05-13T03:06:45Z</time>
      </trkpt>
      <trkpt lat="45.83962" lon="7.18152">
        <ele>1703</ele>
        <time>2018-05-13T03:07:45Z</time>
      </trkpt>
      <trkpt lat="45.83945" lon="7.18166">
        <ele>1699</ele>
        <time>2018-05-13T03:08:45Z</time>
      </trkpt>
      <trkpt lat="45.83929" lon="7.18181">
        <ele>1703</ele>
        <time>2018-05-13T03:09:45Z</time>
      </trkpt>
      <trkpt lat="45.83911" lon="7.18204">
        <ele>1695</ele>
        <time>2018-05-13T03:10:45Z</time>
      </trkpt>
      <trkpt lat="45.83888" lon="7.18236">
        <ele>1696</ele>
        <time>2018-05-13T03:11:45Z</time>
      </trkpt>
      <trkpt lat="45.83881" lon="7.18243">
        <ele>1695</ele>
        <time>2018-05-13T03:12:45Z</time>
      </trkpt>
      <trkpt lat="45.83876" lon="7.18247">
        <ele>1694</ele>
        <time>2018-05-13T03:13:45Z</time>
      </trkpt>
      <trkpt lat="45.83869" lon="7.1825">
        <ele>1701</ele>
        <time>2018-05-13T03:14:45Z</time>
      </trkpt>
      <trkpt lat="45.83848" lon="7.1826">
        <ele>1694</ele>
        <time>2018-05-13T03:15:45Z</time>
      </trkpt>
      <trkpt lat="45.83832" lon="7.18271">
        <ele>1683</ele>
        <time>2018-05-13T03:16:45Z</time>
      </trkpt>
      <trkpt lat="45.83797" lon="7.18298">
        <ele>1684</ele>
        <time>2018-05-13T03:17:45Z</time>
      </trkpt>
      <trkpt lat="45.83778" lon="7.18315">
        <ele>1682</ele>
        <time>2018-05-13T03:18:45Z</time>
      </trkpt>
      <trkpt lat="45.83759" lon="7.18336">
        <ele>1682</ele>
        <time>2018-05-13T03:19:45Z</time>
      </trkpt>
      <trkpt lat="45.83742" lon="7.18355">
        <ele>1674</ele>
        <time>2018-05-13T03:20:45Z</time>
      </trkpt>
      <trkpt lat="45.83713" lon="7.18379">
        <ele>1675</ele>
        <time>2018-05-13T03:21:45Z</time>
      </trkpt>
      <trkpt lat="45.83692" lon="7.18397">
        <ele>1673</ele>
        <time>2018-05-13T03:22:45Z</time>
      </trkpt>
      <trkpt lat="45.83676" lon="7.18409">
        <ele>1670</ele>
        <time>2018-05-13T03:23:45Z</time>
      </trkpt>
      <trkpt lat="45.83646" lon="7.18421">
        <ele>1667</ele>
        <time>2018-05-13T03:24:45Z</time>
      </trkpt>
      <trkpt lat="45.83628" lon="7.1843">
        <ele>1665</ele>
        <time>2018-05-13T03:25:45Z</time>
      </trkpt>
      <trkpt lat="45.8361" lon="7.18442">
        <ele>1663</ele>
        <time>2018-05-13T03:26:45Z</time>
      </trkpt>
      <trkpt lat="45.83567" lon="7.18478">
        <ele>1649</ele>
        <time>2018-05-13T03:27:45Z</time>
      </trkpt>
      <trkpt lat="45.83508" lon="7.18526">
        <ele>1659</ele>
        <time>2018-05-13T03:28:45Z</time>
      </trkpt>
      <trkpt lat="45.83502" lon="7.18531">
        <ele>1661</ele>
        <time>2018-05-13T03:29:45Z</time>
      </trkpt>
      <trkpt lat="45.83499" lon="7.18533">
        <ele>1640</ele>
        <time>2018-05-13T03:30:45Z</time>
      </trkpt>
      <trkpt lat="45.83497" lon="7.18534">
        <ele>1641</ele>
        <time>2018-05-13T03:31:45Z</time>
      </trkpt>
      <trkpt lat="45.83494" lon="7.18535">
        <ele>1641</ele>
        <time>2018-05-13T03:32:45Z</time>
      </trkpt>
      <trkpt lat="45.83478" lon="7.18541">
        <ele>1641</ele>
        <time>2018-05-13T03:33:45Z</time>
      </trkpt>
      <trkpt lat="45.83467" lon="7.18546">
        <ele>1640</ele>
        <time>2018-05-13T03:34:45Z</time>
      </trkpt>
      <trkpt lat="45.83434" lon="7.18567">
        <ele>1637</ele>
        <time>2018-05-13T03:35:45Z</time>
      </trkpt>
      <trkpt lat="45.83387" lon="7.18602">
        <ele>1630</ele>
        <time>2018-05-13T03:36:45Z</time>
      </trkpt>
      <trkpt lat="45.83376" lon="7.18611">
        <ele>1628</ele>
        <time>2018-05-13T03:37:45Z</time>
      </trkpt>
      <trkpt lat="45.83366" lon="7.1862">
        <ele>1627</ele>
        <time>2018-05-13T03:38:45Z</time>
      </trkpt>
      <trkpt lat="45.83353" lon="7.18642">
        <ele>1627</ele>
        <time>2018-05-13T03:39:45Z</time>
      </trkpt>
      <trkpt lat="45.83344" lon="7.18663">
        <ele>1625</ele>
        <time>2018-05-13T03:40:45Z</time>
      </trkpt>
      <trkpt lat="45.83339" lon="7.18674">
        <ele>1631</ele>
        <time>2018-05-13T03:41:45Z</time>
      </trkpt>
      <trkpt lat="45.83333" lon="7.1869">
        <ele>1618</ele>
        <time>2018-05-13T03:42:45Z</time>
      </trkpt>
      <trkpt lat="45.8333" lon="7.18701">
        <ele>1619</ele>
        <time>2018-05-13T03:43:45Z</time>
      </trkpt>
      <trkpt lat="45.83327" lon="7.18717">
        <ele>1621</ele>
        <time>2018-05-13T03:44:45Z</time>
      </trkpt>
      <trkpt lat="45.83325" lon="7.18732">
        <ele>1625</ele>
        <time>2018-05-13T03:45:45Z</time>
      </trkpt>
      <trkpt lat="45.83325" lon="7.18735">
        <ele>1627</ele>
        <time>2018-05-13T03:46:45Z</time>
      </trkpt>
      <trkpt lat="45.83324" lon="7.18737">
        <ele>1627</ele>
        <time>2018-05-13T03:47:45Z</time>
      </trkpt>
      <trkpt lat="45.83323" lon="7.1874">
        <ele>1628</ele>
        <time>2018-05-13T03:48:45Z</time>
      </trkpt>
      <trkpt lat="45.83322" lon="7.18742">
        <ele>1628</ele>
        <time>2018-05-13T03:49:45Z</time>
      </trkpt>
      <trkpt lat="45.8332" lon="7.18744">
        <ele>1628</ele>
        <time>2018-05-13T03:50:45Z</time>
      </trkpt>
      <trkpt lat="45.83319" lon="7.18746">
        <ele>1628</ele>
        <time>2018-05-13T03:51:45Z</time>
      </trkpt>
      <trkpt lat="45.83317" lon="7.18748">
        <ele>1627</ele>
        <time>2018-05-13T03:52:45Z</time>
      </trkpt>
      <trkpt lat="45.83316" lon="7.18748">
        <ele>1626</ele>
        <time>2018-05-13T03:53:45Z</time>
      </trkpt>
      <trkpt lat="45.83315" lon="7.18749">
        <ele>1626</ele>
        <time>2018-05-13T03:54:45Z</time>
      </trkpt>
      <trkpt lat="45.83314" lon="7.18749">
        <ele>1625</ele>
        <time>2018-05-13T03:55:45Z</time>
      </trkpt>
      <trkpt lat="45.83313" lon="7.18749">
        <ele>1625</ele>
        <time>2018-05-13T03:56:45Z</time>
      </trkpt>
      <trkpt lat="45.83312" lon="7.18748">
        <ele>1624</ele>
        <time>2018-05-13T03:57:45Z</time>
      </trkpt>
      <trkpt lat="45.83311" lon="7.18748">
        <ele>1624</ele>
        <time>2018-05-13T03:58:45Z</time>
      </trkpt>
      <trkpt lat="45.83309" lon="7.18746">
        <ele>1623</ele>
        <time>2018-05-13T03:59:45Z</time>
      </trkpt>
      <trkpt lat="45.83308" lon="7.18745">
        <ele>1623</ele>
        <time>2018-05-13T04:00:45Z</time>
      </trkpt>
      <trkpt lat="45.83308" lon="7.18744">
        <ele>1622</ele>
        <time>2018-05-13T04:01:45Z</time>
      </trkpt>
      <trkpt lat="45.83307" lon="7.18743">
        <ele>1622</ele>
        <time>2018-05-13T04:02:45Z</time>
      </trkpt>
      <trkpt lat="45.83307" lon="7.18741">
        <ele>1622</ele>
        <time>2018-05-13T04:03:45Z</time>
      </trkpt>
      <trkpt lat="45.83307" lon="7.18738">
        <ele>1621</ele>
        <time>2018-05-13T04:04:45Z</time>
      </trkpt>
      <trkpt lat="45.83307" lon="7.18735">
        <ele>1621</ele>
        <time>2018-05-13T04:05:45Z</time>
      </trkpt>
      <trkpt lat="45.83307" lon="7.18734">
        <ele>1621</ele>
        <time>2018-05-13T04:06:45Z</time>
      </trkpt>
      <trkpt lat="45.83307" lon="7.18733">
        <ele>1620</ele>
        <time>2018-05-13T04:07:45Z</time>
      </trkpt>
      <trkpt lat="45.83308" lon="7.18731">
        <ele>1620</ele>
        <time>2018-05-13T04:08:45Z</time>
      </trkpt>
      <trkpt lat="45.83308" lon="7.1873">
        <ele>1620</ele>
        <time>2018-05-13T04:09:45Z</time>
      </trkpt>
      <trkpt lat="45.83309" lon="7.18727">
        <ele>1620</ele>
        <time>2018-05-13T04:10:45Z</time>
      </trkpt>
      <trkpt lat="45.83315" lon="7.18717">
        <ele>1619</ele>
        <time>2018-05-13T04:11:45Z</time>
      </trkpt>
      <trkpt lat="45.83319" lon="7.18711">
        <ele>1619</ele>
        <time>2018-05-13T04:12:45Z</time>
      </trkpt>
      <trkpt lat="45.8332" lon="7.18708">
        <ele>1619</ele>
        <time>2018-05-13T04:13:45Z</time>
      </trkpt>
      <trkpt lat="45.8332" lon="7.18705">
        <ele>1618</ele>
        <time>2018-05-13T04:14:45Z</time>
      </trkpt>
      <trkpt lat="45.83321" lon="7.18701">
        <ele>1618</ele>
        <time>2018-05-13T04:15:45Z</time>
      </trkpt>
      <trkpt lat="45.83322" lon="7.18691">
        <ele>1617</ele>
        <time>2018-05-13T04:16:45Z</time>
      </trkpt>
      <trkpt lat="45.83329" lon="7.18662">
        <ele>1615</ele>
        <time>2018-05-13T04:17:45Z</time>
      </trkpt>
      <trkpt lat="45.83336" lon="7.18633">
        <ele>1624</ele>
        <time>2018-05-13T04:18:45Z</time>
      </trkpt>
      <trkpt lat="45.83344" lon="7.18612">
        <ele>1620</ele>
        <time>2018-05-13T04:19:45Z</time>
      </trkpt>
      <trkpt lat="45.83352" lon="7.18593">
        <ele>1616</ele>
        <time>2018-05-13T04:20:45Z</time>
      </trkpt>
      <trkpt lat="45.83354" lon="7.18589">
        <ele>1616</ele>
        <time>2018-05-13T04:21:45Z</time>
      </trkpt>
      <trkpt lat="45.83357" lon="7.18586">
        <ele>1617</ele>
        <time>2018-05-13T04:22:45Z</time>
      </trkpt>
      <trkpt lat="45.83366" lon="7.18575">
        <ele>1606</ele>
        <time>2018-05-13T04:23:45Z</time>
      </trkpt>
      <trkpt lat="45.83383" lon="7.18558">
        <ele>1609</ele>
        <time>2018-05-13T04:24:45Z</time>
      </trkpt>
      <trkpt lat="45.83394" lon="7.18549">
        <ele>1610</ele>
        <time>2018-05-13T04:25:45Z</time>
      </trkpt>
      <trkpt lat="45.83405" lon="7.1854">
        <ele>1609</ele>
        <time>2018-05-13T04:26:45Z</time>
      </trkpt>
      <trkpt lat="45.83453" lon="7.18501">
        <ele>1627</ele>
        <time>2018-05-13T04:27:45Z</time>
      </trkpt>
      <trkpt lat="45.83455" lon="7.18499">
        <ele>1615</ele>
        <time>2018-05-13T04:28:45Z</time>
      </trkpt>
      <trkpt lat="45.83456" lon="7.18498">
        <ele>1615</ele>
        <time>2018-05-13T04:29:45Z</time>
      </trkpt>
      <trkpt lat="45.83456" lon="7.18496">
        <ele>1615</ele>
        <time>2018-05-13T04:30:45Z</time>
      </trkpt>
      <trkpt lat="45.83456" lon="7.18495">
        <ele>1615</ele>
        <time>2018-05-13T04:31:45Z</time>
      </trkpt>
      <trkpt lat="45.83456" lon="7.18494">
        <ele>1615</ele>
        <time>2018-05-13T04:32:45Z</time>
      </trkpt>
      <trkpt lat="45.83456" lon="7.18493">
        <ele>1615</ele>
        <time>2018-05-13T04:33:45Z</time>
      </trkpt>
      <trkpt lat="45.83454" lon="7.18487">
        <ele>1615</ele>
        <time>2018-05-13T04:34:45Z</time>
      </trkpt>
      <trkpt lat="45.83453" lon="7.18481">
        <ele>1615</ele>
        <time>2018-05-13T04:35:45Z</time>
      </trkpt>
      <trkpt lat="45.83452" lon="7.18481">
        <ele>1615</ele>
        <time>2018-05-13T04:36:45Z</time>
      </trkpt>
      <trkpt lat="45.83452" lon="7.1848">
        <ele>1615</ele>
        <time>2018-05-13T04:37:45Z</time>
      </trkpt>
      <trkpt lat="45.83451" lon="7.1848">
        <ele>1615</ele>
        <time>2018-05-13T04:38:45Z</time>
      </trkpt>
      <trkpt lat="45.83451" lon="7.18479">
        <ele>1615</ele>
        <time>2018-05-13T04:39:45Z</time>
      </trkpt>
      <trkpt lat="45.8345" lon="7.18479">
        <ele>1614</ele>
        <time>2018-05-13T04:40:45Z</time>
      </trkpt>
      <trkpt lat="45.83448" lon="7.18479">
        <ele>1614</ele>
        <time>2018-05-13T04:41:45Z</time>
      </trkpt>
      <trkpt lat="45.83446" lon="7.1848">
        <ele>1614</ele>
        <time>2018-05-13T04:42:45Z</time>
      </trkpt>
      <trkpt lat="45.83444" lon="7.1848">
        <ele>1613</ele>
        <time>2018-05-13T04:43:45Z</time>
      </trkpt>
      <trkpt lat="45.83441" lon="7.18482">
        <ele>1612</ele>
        <time>2018-05-13T04:44:45Z</time>
      </trkpt>
      <trkpt lat="45.83422" lon="7.18502">
        <ele>1608</ele>
        <time>2018-05-13T04:45:45Z</time>
      </trkpt>
      <trkpt lat="45.83394" lon="7.18527">
        <ele>1605</ele>
        <time>2018-05-13T04:46:45Z</time>
      </trkpt>
      <trkpt lat="45.83374" lon="7.18546">
        <ele>1606</ele>
        <time>2018-05-13T04:47:45Z</time>
      </trkpt>
      <trkpt lat="45.83356" lon="7.18562">
        <ele>1604</ele>
        <time>2018-05-13T04:48:45Z</time>
      </trkpt>
      <trkpt lat="45.83347" lon="7.18572">
        <ele>1601</ele>
        <time>2018-05-13T04:49:45Z</time>
      </trkpt>
      <trkpt lat="45.83335" lon="7.18587">
        <ele>1601</ele>
        <time>2018-05-13T04:50:45Z</time>
      </trkpt>
      <trkpt lat="45.83321" lon="7.18611">
        <ele>1596</ele>
        <time>2018-05-13T04:51:45Z</time>
      </trkpt>
      <trkpt lat="45.83312" lon="7.18626">
        <ele>1598</ele>
        <time>2018-05-13T04:52:45Z</time>
      </trkpt>
      <trkpt lat="45.83305" lon="7.18642">
        <ele>1599</ele>
        <time>2018-05-13T04:53:45Z</time>
      </trkpt>
      <trkpt lat="45.833" lon="7.18651">
        <ele>1599</ele>
        <time>2018-05-13T04:54:45Z</time>
      </trkpt>
      <trkpt lat="45.83293" lon="7.18661">
        <ele>1598</ele>
        <time>2018-05-13T04:55:45Z</time>
      </trkpt>
      <trkpt lat="45.83261" lon="7.1869">
        <ele>1604</ele>
        <time>2018-05-13T04:56:45Z</time>
      </trkpt>
      <trkpt lat="45.83242" lon="7.1871">
        <ele>1589</ele>
        <time>2018-05-13T04:57:45Z</time>
      </trkpt>
      <trkpt lat="45.83238" lon="7.18714">
        <ele>1590</ele>
        <time>2018-05-13T04:58:45Z</time>
      </trkpt>
      <trkpt lat="45.83235" lon="7.18718">
        <ele>1590</ele>
        <time>2018-05-13T04:59:45Z</time>
      </trkpt>
      <trkpt lat="45.83228" lon="7.18731">
        <ele>1592</ele>
        <time>2018-05-13T05:00:45Z</time>
      </trkpt>
      <trkpt lat="45.83216" lon="7.18752">
        <ele>1608</ele>
        <time>2018-05-13T05:01:45Z</time>
      </trkpt>
      <trkpt lat="45.83211" lon="7.18761">
        <ele>1608</ele>
        <time>2018-05-13T05:02:45Z</time>
      </trkpt>
      <trkpt lat="45.83205" lon="7.18768">
        <ele>1608</ele>
        <time>2018-05-13T05:03:45Z</time>
      </trkpt>
      <trkpt lat="45.83198" lon="7.18774">
        <ele>1608</ele>
        <time>2018-05-13T05:04:45Z</time>
      </trkpt>
      <trkpt lat="45.83185" lon="7.18779">
        <ele>1607</ele>
        <time>2018-05-13T05:05:45Z</time>
      </trkpt>
      <trkpt lat="45.83152" lon="7.18785">
        <ele>1598</ele>
        <time>2018-05-13T05:06:45Z</time>
      </trkpt>
      <trkpt lat="45.83045" lon="7.18789">
        <ele>1587</ele>
        <time>2018-05-13T05:07:45Z</time>
      </trkpt>
      <trkpt lat="45.83019" lon="7.1879">
        <ele>1586</ele>
        <time>2018-05-13T05:08:45Z</time>
      </trkpt>
      <trkpt lat="45.82974" lon="7.18792">
        <ele>1578</ele>
        <time>2018-05-13T05:09:45Z</time>
      </trkpt>
      <trkpt lat="45.82957" lon="7.18793">
        <ele>1577</ele>
        <time>2018-05-13T05:10:45Z</time>
      </trkpt>
      <trkpt lat="45.8294" lon="7.18796">
        <ele>1577</ele>
        <time>2018-05-13T05:11:45Z</time>
      </trkpt>
      <trkpt lat="45.82899" lon="7.18805">
        <ele>1570</ele>
        <time>2018-05-13T05:12:45Z</time>
      </trkpt>
      <trkpt lat="45.82849" lon="7.18812">
        <ele>1567</ele>
        <time>2018-05-13T05:13:45Z</time>
      </trkpt>
      <trkpt lat="45.8283" lon="7.18815">
        <ele>1563</ele>
        <time>2018-05-13T05:14:45Z</time>
      </trkpt>
      <trkpt lat="45.82818" lon="7.18816">
        <ele>1561</ele>
        <time>2018-05-13T05:15:45Z</time>
      </trkpt>
      <trkpt lat="45.82812" lon="7.18818">
        <ele>1560</ele>
        <time>2018-05-13T05:16:45Z</time>
      </trkpt>
      <trkpt lat="45.82805" lon="7.18821">
        <ele>1560</ele>
        <time>2018-05-13T05:17:45Z</time>
      </trkpt>
      <trkpt lat="45.82797" lon="7.18825">
        <ele>1559</ele>
        <time>2018-05-13T05:18:45Z</time>
      </trkpt>
      <trkpt lat="45.82792" lon="7.18827">
        <ele>1559</ele>
        <time>2018-05-13T05:19:45Z</time>
      </trkpt>
      <trkpt lat="45.82786" lon="7.18829">
        <ele>1559</ele>
        <time>2018-05-13T05:20:45Z</time>
      </trkpt>
      <trkpt lat="45.8278" lon="7.1883">
        <ele>1559</ele>
        <time>2018-05-13T05:21:45Z</time>
      </trkpt>
      <trkpt lat="45.82749" lon="7.18828">
        <ele>1562</ele>
        <time>2018-05-13T05:22:45Z</time>
      </trkpt>
      <trkpt lat="45.82693" lon="7.18823">
        <ele>1550</ele>
        <time>2018-05-13T05:23:45Z</time>
      </trkpt>
      <trkpt lat="45.82616" lon="7.18817">
        <ele>1545</ele>
        <time>2018-05-13T05:24:45Z</time>
      </trkpt>
      <trkpt lat="45.82534" lon="7.18817">
        <ele>1539</ele>
        <time>2018-05-13T05:25:45Z</time>
      </trkpt>
      <trkpt lat="45.82529" lon="7.18816">
        <ele>1539</ele>
        <time>2018-05-13T05:26:45Z</time>
      </trkpt>
      <trkpt lat="45.82523" lon="7.18815">
        <ele>1539</ele>
        <time>2018-05-13T05:27:45Z</time>
      </trkpt>
      <trkpt lat="45.82519" lon="7.18813">
        <ele>1539</ele>
        <time>2018-05-13T05:28:45Z</time>
      </trkpt>
      <trkpt lat="45.82507" lon="7.18808">
        <ele>1538</ele>
        <time>2018-05-13T05:29:45Z</time>
      </trkpt>
      <trkpt lat="45.82502" lon="7.18807">
        <ele>1538</ele>
        <time>2018-05-13T05:30:45Z</time>
      </trkpt>
      <trkpt lat="45.82497" lon="7.18807">
        <ele>1528</ele>
        <time>2018-05-13T05:31:45Z</time>
      </trkpt>
      <trkpt lat="45.82493" lon="7.18808">
        <ele>1528</ele>
        <time>2018-05-13T05:32:45Z</time>
      </trkpt>
      <trkpt lat="45.82489" lon="7.18809">
        <ele>1528</ele>
        <time>2018-05-13T05:33:45Z</time>
      </trkpt>
      <trkpt lat="45.82487" lon="7.1881">
        <ele>1528</ele>
        <time>2018-05-13T05:34:45Z</time>
      </trkpt>
      <trkpt lat="45.82484" lon="7.18811">
        <ele>1527</ele>
        <time>2018-05-13T05:35:45Z</time>
      </trkpt>
      <trkpt lat="45.8248" lon="7.18815">
        <ele>1527</ele>
        <time>2018-05-13T05:36:45Z</time>
      </trkpt>
      <trkpt lat="45.82474" lon="7.1882">
        <ele>1527</ele>
        <time>2018-05-13T05:37:45Z</time>
      </trkpt>
      <trkpt lat="45.82468" lon="7.18828">
        <ele>1526</ele>
        <time>2018-05-13T05:38:45Z</time>
      </trkpt>
      <trkpt lat="45.82465" lon="7.18832">
        <ele>1525</ele>
        <time>2018-05-13T05:39:45Z</time>
      </trkpt>
      <trkpt lat="45.82462" lon="7.18835">
        <ele>1544</ele>
        <time>2018-05-13T05:40:45Z</time>
      </trkpt>
      <trkpt lat="45.8246" lon="7.18836">
        <ele>1544</ele>
        <time>2018-05-13T05:41:45Z</time>
      </trkpt>
      <trkpt lat="45.82458" lon="7.18837">
        <ele>1543</ele>
        <time>2018-05-13T05:42:45Z</time>
      </trkpt>
      <trkpt lat="45.82456" lon="7.18837">
        <ele>1543</ele>
        <time>2018-05-13T05:43:45Z</time>
      </trkpt>
      <trkpt lat="45.82455" lon="7.18837">
        <ele>1542</ele>
        <time>2018-05-13T05:44:45Z</time>
      </trkpt>
      <trkpt lat="45.82453" lon="7.18836">
        <ele>1542</ele>
        <time>2018-05-13T05:45:45Z</time>
      </trkpt>
      <trkpt lat="45.82451" lon="7.18834">
        <ele>1541</ele>
        <time>2018-05-13T05:46:45Z</time>
      </trkpt>
      <trkpt lat="45.82451" lon="7.18832">
        <ele>1521</ele>
        <time>2018-05-13T05:47:45Z</time>
      </trkpt>
      <trkpt lat="45.82451" lon="7.18828">
        <ele>1521</ele>
        <time>2018-05-13T05:48:45Z</time>
      </trkpt>
      <trkpt lat="45.82451" lon="7.18823">
        <ele>1520</ele>
        <time>2018-05-13T05:49:45Z</time>
      </trkpt>
      <trkpt lat="45.82452" lon="7.18819">
        <ele>1520</ele>
        <time>2018-05-13T05:50:45Z</time>
      </trkpt>
      <trkpt lat="45.82454" lon="7.18816">
        <ele>1520</ele>
        <time>2018-05-13T05:51:45Z</time>
      </trkpt>
      <trkpt lat="45.82456" lon="7.18813">
        <ele>1520</ele>
        <time>2018-05-13T05:52:45Z</time>
      </trkpt>
      <trkpt lat="45.82471" lon="7.18805">
        <ele>1522</ele>
        <time>2018-05-13T05:53:45Z</time>
      </trkpt>
      <trkpt lat="45.82482" lon="7.188">
        <ele>1523</ele>
        <time>2018-05-13T05:54:45Z</time>
      </trkpt>
      <trkpt lat="45.82497" lon="7.18796">
        <ele>1523</ele>
        <time>2018-05-13T05:55:45Z</time>
      </trkpt>
      <trkpt lat="45.82516" lon="7.18797">
        <ele>1534</ele>
        <time>2018-05-13T05:56:45Z</time>
      </trkpt>
      <trkpt lat="45.82528" lon="7.18798">
        <ele>1535</ele>
        <time>2018-05-13T05:57:45Z</time>
      </trkpt>
      <trkpt lat="45.82542" lon="7.18796">
        <ele>1535</ele>
        <time>2018-05-13T05:58:45Z</time>
      </trkpt>
      <trkpt lat="45.82557" lon="7.18791">
        <ele>1534</ele>
        <time>2018-05-13T05:59:45Z</time>
      </trkpt>
      <trkpt lat="45.82582" lon="7.18778">
        <ele>1530</ele>
        <time>2018-05-13T06:00:45Z</time>
      </trkpt>
      <trkpt lat="45.82616" lon="7.18768">
        <ele>1533</ele>
        <time>2018-05-13T06:01:45Z</time>
      </trkpt>
      <trkpt lat="45.82643" lon="7.18763">
        <ele>1532</ele>
        <time>2018-05-13T06:02:45Z</time>
      </trkpt>
      <trkpt lat="45.82649" lon="7.18763">
        <ele>1531</ele>
        <time>2018-05-13T06:03:45Z</time>
      </trkpt>
      <trkpt lat="45.82654" lon="7.18764">
        <ele>1531</ele>
        <time>2018-05-13T06:04:45Z</time>
      </trkpt>
      <trkpt lat="45.8267" lon="7.18767">
        <ele>1533</ele>
        <time>2018-05-13T06:05:45Z</time>
      </trkpt>
      <trkpt lat="45.8268" lon="7.18771">
        <ele>1536</ele>
        <time>2018-05-13T06:06:45Z</time>
      </trkpt>
      <trkpt lat="45.82699" lon="7.18773">
        <ele>1539</ele>
        <time>2018-05-13T06:07:45Z</time>
      </trkpt>
      <trkpt lat="45.82701" lon="7.18772">
        <ele>1539</ele>
        <time>2018-05-13T06:08:45Z</time>
      </trkpt>
      <trkpt lat="45.82703" lon="7.18771">
        <ele>1539</ele>
        <time>2018-05-13T06:09:45Z</time>
      </trkpt>
      <trkpt lat="45.82704" lon="7.1877">
        <ele>1539</ele>
        <time>2018-05-13T06:10:45Z</time>
      </trkpt>
      <trkpt lat="45.82705" lon="7.18767">
        <ele>1539</ele>
        <time>2018-05-13T06:11:45Z</time>
      </trkpt>
      <trkpt lat="45.82705" lon="7.18765">
        <ele>1539</ele>
        <time>2018-05-13T06:12:45Z</time>
      </trkpt>
      <trkpt lat="45.82706" lon="7.18762">
        <ele>1538</ele>
        <time>2018-05-13T06:13:45Z</time>
      </trkpt>
      <trkpt lat="45.82706" lon="7.1876">
        <ele>1538</ele>
        <time>2018-05-13T06:14:45Z</time>
      </trkpt>
      <trkpt lat="45.82706" lon="7.18759">
        <ele>1538</ele>
        <time>2018-05-13T06:15:45Z</time>
      </trkpt>
      <trkpt lat="45.82705" lon="7.18757">
        <ele>1537</ele>
        <time>2018-05-13T06:16:45Z</time>
      </trkpt>
      <trkpt lat="45.82704" lon="7.18755">
        <ele>1537</ele>
        <time>2018-05-13T06:17:45Z</time>
      </trkpt>
      <trkpt lat="45.82701" lon="7.18753">
        <ele>1537</ele>
        <time>2018-05-13T06:18:45Z</time>
      </trkpt>
      <trkpt lat="45.82624" lon="7.18753">
        <ele>1532</ele>
        <time>2018-05-13T06:19:45Z</time>
      </trkpt>
      <trkpt lat="45.82597" lon="7.18755">
        <ele>1526</ele>
        <time>2018-05-13T06:20:45Z</time>
      </trkpt>
      <trkpt lat="45.82555" lon="7.18764">
        <ele>1527</ele>
        <time>2018-05-13T06:21:45Z</time>
      </trkpt>
      <trkpt lat="45.82546" lon="7.18764">
        <ele>1528</ele>
        <time>2018-05-13T06:22:45Z</time>
      </trkpt>
      <trkpt lat="45.82534" lon="7.18761">
        <ele>1526</ele>
        <time>2018-05-13T06:23:45Z</time>
      </trkpt>
      <trkpt lat="45.82522" lon="7.18755">
        <ele>1523</ele>
        <time>2018-05-13T06:24:45Z</time>
      </trkpt>
      <trkpt lat="45.82514" lon="7.18752">
        <ele>1519</ele>
        <time>2018-05-13T06:25:45Z</time>
      </trkpt>
      <trkpt lat="45.82504" lon="7.18751">
        <ele>1513</ele>
        <time>2018-05-13T06:26:45Z</time>
      </trkpt>
      <trkpt lat="45.82462" lon="7.18756">
        <ele>1512</ele>
        <time>2018-05-13T06:27:45Z</time>
      </trkpt>
      <trkpt lat="45.82417" lon="7.18787">
        <ele>1511</ele>
        <time>2018-05-13T06:28:45Z</time>
      </trkpt>
      <trkpt lat="45.82416" lon="7.18788">
        <ele>1492</ele>
        <time>2018-05-13T06:29:45Z</time>
      </trkpt>
      <trkpt lat="45.82413" lon="7.18789">
        <ele>1492</ele>
        <time>2018-05-13T06:30:45Z</time>
      </trkpt>
      <trkpt lat="45.8241" lon="7.1879">
        <ele>1491</ele>
        <time>2018-05-13T06:31:45Z</time>
      </trkpt>
      <trkpt lat="45.82409" lon="7.18791">
        <ele>1492</ele>
        <time>2018-05-13T06:32:45Z</time>
      </trkpt>
      <trkpt lat="45.82404" lon="7.18791">
        <ele>1491</ele>
        <time>2018-05-13T06:33:45Z</time>
      </trkpt>
      <trkpt lat="45.82397" lon="7.18788">
        <ele>1489</ele>
        <time>2018-05-13T06:34:45Z</time>
      </trkpt>
      <trkpt lat="45.82397" lon="7.18788">
        <ele>1489</ele>
        <time>2018-05-13T06:35:45Z</time>
      </trkpt>
      <trkpt lat="45.82392" lon="7.18797">
        <ele>1490</ele>
        <time>2018-05-13T06:36:45Z</time>
      </trkpt>
      <trkpt lat="45.82361" lon="7.1886">
        <ele>1502</ele>
        <time>2018-05-13T06:37:45Z</time>
      </trkpt>
      <trkpt lat="45.82344" lon="7.18895">
        <ele>1503</ele>
        <time>2018-05-13T06:38:45Z</time>
      </trkpt>
      <trkpt lat="45.8234" lon="7.18904">
        <ele>1501</ele>
        <time>2018-05-13T06:39:45Z</time>
      </trkpt>
      <trkpt lat="45.82338" lon="7.18908">
        <ele>1499</ele>
        <time>2018-05-13T06:40:45Z</time>
      </trkpt>
      <trkpt lat="45.82307" lon="7.18968">
        <ele>1485</ele>
        <time>2018-05-13T06:41:45Z</time>
      </trkpt>
      <trkpt lat="45.82286" lon="7.19015">
        <ele>1489</ele>
        <time>2018-05-13T06:42:45Z</time>
      </trkpt>
      <trkpt lat="45.82278" lon="7.19043">
        <ele>1489</ele>
        <time>2018-05-13T06:43:45Z</time>
      </trkpt>
      <trkpt lat="45.82271" lon="7.19069">
        <ele>1485</ele>
        <time>2018-05-13T06:44:45Z</time>
      </trkpt>
      <trkpt lat="45.82264" lon="7.19112">
        <ele>1493</ele>
        <time>2018-05-13T06:45:45Z</time>
      </trkpt>
      <trkpt lat="45.8226" lon="7.19142">
        <ele>1493</ele>
        <time>2018-05-13T06:46:45Z</time>
      </trkpt>
      <trkpt lat="45.82253" lon="7.19206">
        <ele>1497</ele>
        <time>2018-05-13T06:47:45Z</time>
      </trkpt>
      <trkpt lat="45.82238" lon="7.19312">
        <ele>1462</ele>
        <time>2018-05-13T06:48:45Z</time>
      </trkpt>
      <trkpt lat="45.82229" lon="7.19342">
        <ele>1463</ele>
        <time>2018-05-13T06:49:45Z</time>
      </trkpt>
      <trkpt lat="45.82228" lon="7.19347">
        <ele>1462</ele>
        <time>2018-05-13T06:50:45Z</time>
      </trkpt>
      <trkpt lat="45.82223" lon="7.19369">
        <ele>1458</ele>
        <time>2018-05-13T06:51:45Z</time>
      </trkpt>
      <trkpt lat="45.82222" lon="7.19398">
        <ele>1460</ele>
        <time>2018-05-13T06:52:45Z</time>
      </trkpt>
      <trkpt lat="45.82223" lon="7.19453">
        <ele>1459</ele>
        <time>2018-05-13T06:53:45Z</time>
      </trkpt>
      <trkpt lat="45.82217" lon="7.19596">
        <ele>1458</ele>
        <time>2018-05-13T06:54:45Z</time>
      </trkpt>
      <trkpt lat="45.82212" lon="7.19665">
        <ele>1456</ele>
        <time>2018-05-13T06:55:45Z</time>
      </trkpt>
      <trkpt lat="45.82212" lon="7.19704">
        <ele>1455</ele>
        <time>2018-05-13T06:56:45Z</time>
      </trkpt>
      <trkpt lat="45.82212" lon="7.19743">
        <ele>1455</ele>
        <time>2018-05-13T06:57:45Z</time>
      </trkpt>
      <trkpt lat="45.82213" lon="7.19773">
        <ele>1449</ele>
        <time>2018-05-13T06:58:45Z</time>
      </trkpt>
      <trkpt lat="45.82214" lon="7.19803">
        <ele>1447</ele>
        <time>2018-05-13T06:59:45Z</time>
      </trkpt>
      <trkpt lat="45.82215" lon="7.19816">
        <ele>1447</ele>
        <time>2018-05-13T07:00:45Z</time>
      </trkpt>
      <trkpt lat="45.82223" lon="7.19854">
        <ele>1439</ele>
        <time>2018-05-13T07:01:45Z</time>
      </trkpt>
      <trkpt lat="45.82231" lon="7.19893">
        <ele>1437</ele>
        <time>2018-05-13T07:02:45Z</time>
      </trkpt>
      <trkpt lat="45.82237" lon="7.19914">
        <ele>1441</ele>
        <time>2018-05-13T07:03:45Z</time>
      </trkpt>
      <trkpt lat="45.82244" lon="7.1993">
        <ele>1432</ele>
        <time>2018-05-13T07:04:45Z</time>
      </trkpt>
      <trkpt lat="45.82255" lon="7.19958">
        <ele>1458</ele>
        <time>2018-05-13T07:05:45Z</time>
      </trkpt>
      <trkpt lat="45.8226" lon="7.19973">
        <ele>1455</ele>
        <time>2018-05-13T07:06:45Z</time>
      </trkpt>
      <trkpt lat="45.82263" lon="7.19984">
        <ele>1451</ele>
        <time>2018-05-13T07:07:45Z</time>
      </trkpt>
      <trkpt lat="45.82266" lon="7.19998">
        <ele>1448</ele>
        <time>2018-05-13T07:08:45Z</time>
      </trkpt>
      <trkpt lat="45.82272" lon="7.20044">
        <ele>1445</ele>
        <time>2018-05-13T07:09:45Z</time>
      </trkpt>
      <trkpt lat="45.82284" lon="7.20124">
        <ele>1435</ele>
        <time>2018-05-13T07:10:45Z</time>
      </trkpt>
      <trkpt lat="45.82285" lon="7.20145">
        <ele>1434</ele>
        <time>2018-05-13T07:11:45Z</time>
      </trkpt>
      <trkpt lat="45.82282" lon="7.20187">
        <ele>1424</ele>
        <time>2018-05-13T07:12:45Z</time>
      </trkpt>
      <trkpt lat="45.82282" lon="7.202">
        <ele>1423</ele>
        <time>2018-05-13T07:13:45Z</time>
      </trkpt>
      <trkpt lat="45.82284" lon="7.20219">
        <ele>1423</ele>
        <time>2018-05-13T07:14:45Z</time>
      </trkpt>
      <trkpt lat="45.82295" lon="7.20269">
        <ele>1416</ele>
        <time>2018-05-13T07:15:45Z</time>
      </trkpt>
      <trkpt lat="45.823" lon="7.20299">
        <ele>1414</ele>
        <time>2018-05-13T07:16:45Z</time>
      </trkpt>
      <trkpt lat="45.82306" lon="7.20315">
        <ele>1415</ele>
        <time>2018-05-13T07:17:45Z</time>
      </trkpt>
      <trkpt lat="45.82332" lon="7.20372">
        <ele>1408</ele>
        <time>2018-05-13T07:18:45Z</time>
      </trkpt>
      <trkpt lat="45.82333" lon="7.20378">
        <ele>1408</ele>
        <time>2018-05-13T07:19:45Z</time>
      </trkpt>
      <trkpt lat="45.82334" lon="7.20385">
        <ele>1437</ele>
        <time>2018-05-13T07:20:45Z</time>
      </trkpt>
      <trkpt lat="45.82332" lon="7.20408">
        <ele>1412</ele>
        <time>2018-05-13T07:21:45Z</time>
      </trkpt>
      <trkpt lat="45.82329" lon="7.20421">
        <ele>1411</ele>
        <time>2018-05-13T07:22:45Z</time>
      </trkpt>
      <trkpt lat="45.82313" lon="7.20461">
        <ele>1398</ele>
        <time>2018-05-13T07:23:45Z</time>
      </trkpt>
      <trkpt lat="45.8231" lon="7.20477">
        <ele>1398</ele>
        <time>2018-05-13T07:24:45Z</time>
      </trkpt>
      <trkpt lat="45.8231" lon="7.20484">
        <ele>1399</ele>
        <time>2018-05-13T07:25:45Z</time>
      </trkpt>
      <trkpt lat="45.82311" lon="7.2049">
        <ele>1400</ele>
        <time>2018-05-13T07:26:45Z</time>
      </trkpt>
      <trkpt lat="45.82312" lon="7.20497">
        <ele>1401</ele>
        <time>2018-05-13T07:27:45Z</time>
      </trkpt>
      <trkpt lat="45.82329" lon="7.20534">
        <ele>1395</ele>
        <time>2018-05-13T07:28:45Z</time>
      </trkpt>
      <trkpt lat="45.82344" lon="7.20584">
        <ele>1406</ele>
        <time>2018-05-13T07:29:45Z</time>
      </trkpt>
      <trkpt lat="45.82345" lon="7.20591">
        <ele>1407</ele>
        <time>2018-05-13T07:30:45Z</time>
      </trkpt>
      <trkpt lat="45.82354" lon="7.20641">
        <ele>1408</ele>
        <time>2018-05-13T07:31:45Z</time>
      </trkpt>
      <trkpt lat="45.82361" lon="7.20667">
        <ele>1401</ele>
        <time>2018-05-13T07:32:45Z</time>
      </trkpt>
      <trkpt lat="45.82382" lon="7.20761">
        <ele>1396</ele>
        <time>2018-05-13T07:33:45Z</time>
      </trkpt>
      <trkpt lat="45.82391" lon="7.20789">
        <ele>1395</ele>
        <time>2018-05-13T07:34:45Z</time>
      </trkpt>
      <trkpt lat="45.82396" lon="7.20815">
        <ele>1395</ele>
        <time>2018-05-13T07:35:45Z</time>
      </trkpt>
      <trkpt lat="45.82397" lon="7.20829">
        <ele>1395</ele>
        <time>2018-05-13T07:36:45Z</time>
      </trkpt>
      <trkpt lat="45.82397" lon="7.20843">
        <ele>1390</ele>
        <time>2018-05-13T07:37:45Z</time>
      </trkpt>
      <trkpt lat="45.82395" lon="7.20852">
        <ele>1389</ele>
        <time>2018-05-13T07:38:45Z</time>
      </trkpt>
      <trkpt lat="45.82394" lon="7.20863">
        <ele>1387</ele>
        <time>2018-05-13T07:39:45Z</time>
      </trkpt>
      <trkpt lat="45.82391" lon="7.20874">
        <ele>1386</ele>
        <time>2018-05-13T07:40:45Z</time>
      </trkpt>
      <trkpt lat="45.82389" lon="7.20882">
        <ele>1385</ele>
        <time>2018-05-13T07:41:45Z</time>
      </trkpt>
      <trkpt lat="45.82387" lon="7.2089">
        <ele>1385</ele>
        <time>2018-05-13T07:42:45Z</time>
      </trkpt>
      <trkpt lat="45.82386" lon="7.20896">
        <ele>1385</ele>
        <time>2018-05-13T07:43:45Z</time>
      </trkpt>
      <trkpt lat="45.82386" lon="7.20903">
        <ele>1385</ele>
        <time>2018-05-13T07:44:45Z</time>
      </trkpt>
      <trkpt lat="45.82388" lon="7.20917">
        <ele>1382</ele>
        <time>2018-05-13T07:45:45Z</time>
      </trkpt>
      <trkpt lat="45.82398" lon="7.20964">
        <ele>1380</ele>
        <time>2018-05-13T07:46:45Z</time>
      </trkpt>
      <trkpt lat="45.82406" lon="7.21008">
        <ele>1380</ele>
        <time>2018-05-13T07:47:45Z</time>
      </trkpt>
      <trkpt lat="45.82407" lon="7.21014">
        <ele>1379</ele>
        <time>2018-05-13T07:48:45Z</time>
      </trkpt>
      <trkpt lat="45.82423" lon="7.21104">
        <ele>1384</ele>
        <time>2018-05-13T07:49:45Z</time>
      </trkpt>
      <trkpt lat="45.82435" lon="7.21207">
        <ele>1381</ele>
        <time>2018-05-13T07:50:45Z</time>
      </trkpt>
      <trkpt lat="45.82438" lon="7.21236">
        <ele>1380</ele>
        <time>2018-05-13T07:51:45Z</time>
      </trkpt>
      <trkpt lat="45.82441" lon="7.21261">
        <ele>1377</ele>
        <time>2018-05-13T07:52:45Z</time>
      </trkpt>
      <trkpt lat="45.82449" lon="7.21318">
        <ele>1376</ele>
        <time>2018-05-13T07:53:45Z</time>
      </trkpt>
      <trkpt lat="45.82469" lon="7.21376">
        <ele>1371</ele>
        <time>2018-05-13T07:54:45Z</time>
      </trkpt>
      <trkpt lat="45.82482" lon="7.21414">
        <ele>1371</ele>
        <time>2018-05-13T07:55:45Z</time>
      </trkpt>
      <trkpt lat="45.82493" lon="7.21447">
        <ele>1365</ele>
        <time>2018-05-13T07:56:45Z</time>
      </trkpt>
      <trkpt lat="45.82499" lon="7.21478">
        <ele>1364</ele>
        <time>2018-05-13T07:57:45Z</time>
      </trkpt>
      <trkpt lat="45.825" lon="7.21486">
        <ele>1374</ele>
        <time>2018-05-13T07:58:45Z</time>
      </trkpt>
      <trkpt lat="45.825" lon="7.2149">
        <ele>1373</ele>
        <time>2018-05-13T07:59:45Z</time>
      </trkpt>
      <trkpt lat="45.825" lon="7.21495">
        <ele>1370</ele>
        <time>2018-05-13T08:00:45Z</time>
      </trkpt>
      <trkpt lat="45.82499" lon="7.21502">
        <ele>1366</ele>
        <time>2018-05-13T08:01:45Z</time>
      </trkpt>
      <trkpt lat="45.82482" lon="7.2155">
        <ele>1360</ele>
        <time>2018-05-13T08:02:45Z</time>
      </trkpt>
      <trkpt lat="45.82469" lon="7.21593">
        <ele>1357</ele>
        <time>2018-05-13T08:03:45Z</time>
      </trkpt>
      <trkpt lat="45.82466" lon="7.21615">
        <ele>1356</ele>
        <time>2018-05-13T08:04:45Z</time>
      </trkpt>
      <trkpt lat="45.82464" lon="7.2165">
        <ele>1355</ele>
        <time>2018-05-13T08:05:45Z</time>
      </trkpt>
      <trkpt lat="45.82466" lon="7.21674">
        <ele>1354</ele>
        <time>2018-05-13T08:06:45Z</time>
      </trkpt>
      <trkpt lat="45.8248" lon="7.21796">
        <ele>1351</ele>
        <time>2018-05-13T08:07:45Z</time>
      </trkpt>
      <trkpt lat="45.82484" lon="7.21826">
        <ele>1353</ele>
        <time>2018-05-13T08:08:45Z</time>
      </trkpt>
      <trkpt lat="45.82484" lon="7.21842">
        <ele>1352</ele>
        <time>2018-05-13T08:09:45Z</time>
      </trkpt>
      <trkpt lat="45.82484" lon="7.21853">
        <ele>1351</ele>
        <time>2018-05-13T08:10:45Z</time>
      </trkpt>
      <trkpt lat="45.82483" lon="7.21859">
        <ele>1350</ele>
        <time>2018-05-13T08:11:45Z</time>
      </trkpt>
      <trkpt lat="45.8248" lon="7.21879">
        <ele>1349</ele>
        <time>2018-05-13T08:12:45Z</time>
      </trkpt>
      <trkpt lat="45.8247" lon="7.21918">
        <ele>1348</ele>
        <time>2018-05-13T08:13:45Z</time>
      </trkpt>
      <trkpt lat="45.82467" lon="7.21923">
        <ele>1348</ele>
        <time>2018-05-13T08:14:45Z</time>
      </trkpt>
      <trkpt lat="45.82407" lon="7.22027">
        <ele>1331</ele>
        <time>2018-05-13T08:15:45Z</time>
      </trkpt>
      <trkpt lat="45.82395" lon="7.22047">
        <ele>1331</ele>
        <time>2018-05-13T08:16:45Z</time>
      </trkpt>
      <trkpt lat="45.82369" lon="7.22091">
        <ele>1334</ele>
        <time>2018-05-13T08:17:45Z</time>
      </trkpt>
      <trkpt lat="45.82367" lon="7.22094">
        <ele>1334</ele>
        <time>2018-05-13T08:18:45Z</time>
      </trkpt>
      <trkpt lat="45.82365" lon="7.22099">
        <ele>1333</ele>
        <time>2018-05-13T08:19:45Z</time>
      </trkpt>
      <trkpt lat="45.82308" lon="7.22195">
        <ele>1325</ele>
        <time>2018-05-13T08:20:45Z</time>
      </trkpt>
      <trkpt lat="45.82254" lon="7.22284">
        <ele>1326</ele>
        <time>2018-05-13T08:21:45Z</time>
      </trkpt>
      <trkpt lat="45.82247" lon="7.22301">
        <ele>1315</ele>
        <time>2018-05-13T08:22:45Z</time>
      </trkpt>
      <trkpt lat="45.82239" lon="7.22324">
        <ele>1318</ele>
        <time>2018-05-13T08:23:45Z</time>
      </trkpt>
      <trkpt lat="45.82233" lon="7.22351">
        <ele>1317</ele>
        <time>2018-05-13T08:24:45Z</time>
      </trkpt>
      <trkpt lat="45.82176" lon="7.2273">
        <ele>1297</ele>
        <time>2018-05-13T08:25:45Z</time>
      </trkpt>
      <trkpt lat="45.82165" lon="7.22803">
        <ele>1284</ele>
        <time>2018-05-13T08:26:45Z</time>
      </trkpt>
      <trkpt lat="45.82148" lon="7.22927">
        <ele>1281</ele>
        <time>2018-05-13T08:27:45Z</time>
      </trkpt>
      <trkpt lat="45.82142" lon="7.22963">
        <ele>1280</ele>
        <time>2018-05-13T08:28:45Z</time>
      </trkpt>
      <trkpt lat="45.82136" lon="7.22986">
        <ele>1280</ele>
        <time>2018-05-13T08:29:45Z</time>
      </trkpt>
      <trkpt lat="45.82124" lon="7.23021">
        <ele>1280</ele>
        <time>2018-05-13T08:30:45Z</time>
      </trkpt>
      <trkpt lat="45.82121" lon="7.23032">
        <ele>1280</ele>
        <time>2018-05-13T08:31:45Z</time>
      </trkpt>
      <trkpt lat="45.82116" lon="7.23041">
        <ele>1280</ele>
        <time>2018-05-13T08:32:45Z</time>
      </trkpt>
      <trkpt lat="45.82115" lon="7.23043">
        <ele>1280</ele>
        <time>2018-05-13T08:33:45Z</time>
      </trkpt>
      <trkpt lat="45.82114" lon="7.23045">
        <ele>1280</ele>
        <time>2018-05-13T08:34:45Z</time>
      </trkpt>
      <trkpt lat="45.82112" lon="7.23046">
        <ele>1280</ele>
        <time>2018-05-13T08:35:45Z</time>
      </trkpt>
      <trkpt lat="45.8211" lon="7.23047">
        <ele>1279</ele>
        <time>2018-05-13T08:36:45Z</time>
      </trkpt>
      <trkpt lat="45.82107" lon="7.23047">
        <ele>1279</ele>
        <time>2018-05-13T08:37:45Z</time>
      </trkpt>
      <trkpt lat="45.82102" lon="7.23046">
        <ele>1279</ele>
        <time>2018-05-13T08:38:45Z</time>
      </trkpt>
      <trkpt lat="45.821" lon="7.23046">
        <ele>1278</ele>
        <time>2018-05-13T08:39:45Z</time>
      </trkpt>
      <trkpt lat="45.82098" lon="7.23044">
        <ele>1278</ele>
        <time>2018-05-13T08:40:45Z</time>
      </trkpt>
      <trkpt lat="45.82097" lon="7.23041">
        <ele>1278</ele>
        <time>2018-05-13T08:41:45Z</time>
      </trkpt>
      <trkpt lat="45.82096" lon="7.23037">
        <ele>1278</ele>
        <time>2018-05-13T08:42:45Z</time>
      </trkpt>
      <trkpt lat="45.82095" lon="7.23033">
        <ele>1277</ele>
        <time>2018-05-13T08:43:45Z</time>
      </trkpt>
      <trkpt lat="45.82095" lon="7.2303">
        <ele>1277</ele>
        <time>2018-05-13T08:44:45Z</time>
      </trkpt>
      <trkpt lat="45.82095" lon="7.23025">
        <ele>1277</ele>
        <time>2018-05-13T08:45:45Z</time>
      </trkpt>
      <trkpt lat="45.82095" lon="7.23022">
        <ele>1276</ele>
        <time>2018-05-13T08:46:45Z</time>
      </trkpt>
      <trkpt lat="45.82096" lon="7.23018">
        <ele>1276</ele>
        <time>2018-05-13T08:47:45Z</time>
      </trkpt>
      <trkpt lat="45.82097" lon="7.23014">
        <ele>1276</ele>
        <time>2018-05-13T08:48:45Z</time>
      </trkpt>
      <trkpt lat="45.82102" lon="7.23003">
        <ele>1276</ele>
        <time>2018-05-13T08:49:45Z</time>
      </trkpt>
      <trkpt lat="45.82123" lon="7.22957">
        <ele>1278</ele>
        <time>2018-05-13T08:50:45Z</time>
      </trkpt>
      <trkpt lat="45.82125" lon="7.22952">
        <ele>1278</ele>
        <time>2018-05-13T08:51:45Z</time>
      </trkpt>
      <trkpt lat="45.82126" lon="7.22946">
        <ele>1278</ele>
        <time>2018-05-13T08:52:45Z</time>
      </trkpt>
      <trkpt lat="45.82127" lon="7.22943">
        <ele>1278</ele>
        <time>2018-05-13T08:53:45Z</time>
      </trkpt>
      <trkpt lat="45.82128" lon="7.22939">
        <ele>1278</ele>
        <time>2018-05-13T08:54:45Z</time>
      </trkpt>
      <trkpt lat="45.82128" lon="7.22934">
        <ele>1278</ele>
        <time>2018-05-13T08:55:45Z</time>
      </trkpt>
      <trkpt lat="45.82128" lon="7.2293">
        <ele>1278</ele>
        <time>2018-05-13T08:56:45Z</time>
      </trkpt>
      <trkpt lat="45.82128" lon="7.22925">
        <ele>1278</ele>
        <time>2018-05-13T08:57:45Z</time>
      </trkpt>
      <trkpt lat="45.82127" lon="7.22923">
        <ele>1278</ele>
        <time>2018-05-13T08:58:45Z</time>
      </trkpt>
      <trkpt lat="45.82127" lon="7.22921">
        <ele>1278</ele>
        <time>2018-05-13T08:59:45Z</time>
      </trkpt>
      <trkpt lat="45.82125" lon="7.22918">
        <ele>1277</ele>
        <time>2018-05-13T09:00:45Z</time>
      </trkpt>
      <trkpt lat="45.82124" lon="7.22916">
        <ele>1277</ele>
        <time>2018-05-13T09:01:45Z</time>
      </trkpt>
      <trkpt lat="45.82122" lon="7.22914">
        <ele>1277</ele>
        <time>2018-05-13T09:02:45Z</time>
      </trkpt>
      <trkpt lat="45.8212" lon="7.22913">
        <ele>1277</ele>
        <time>2018-05-13T09:03:45Z</time>
      </trkpt>
      <trkpt lat="45.82118" lon="7.22913">
        <ele>1276</ele>
        <time>2018-05-13T09:04:45Z</time>
      </trkpt>
      <trkpt lat="45.82117" lon="7.22914">
        <ele>1276</ele>
        <time>2018-05-13T09:05:45Z</time>
      </trkpt>
      <trkpt lat="45.82113" lon="7.22915">
        <ele>1275</ele>
        <time>2018-05-13T09:06:45Z</time>
      </trkpt>
      <trkpt lat="45.82109" lon="7.22918">
        <ele>1275</ele>
        <time>2018-05-13T09:07:45Z</time>
      </trkpt>
      <trkpt lat="45.82107" lon="7.2292">
        <ele>1274</ele>
        <time>2018-05-13T09:08:45Z</time>
      </trkpt>
      <trkpt lat="45.82104" lon="7.22923">
        <ele>1274</ele>
        <time>2018-05-13T09:09:45Z</time>
      </trkpt>
      <trkpt lat="45.82076" lon="7.22966">
        <ele>1267</ele>
        <time>2018-05-13T09:10:45Z</time>
      </trkpt>
      <trkpt lat="45.82067" lon="7.22978">
        <ele>1267</ele>
        <time>2018-05-13T09:11:45Z</time>
      </trkpt>
      <trkpt lat="45.82065" lon="7.2298">
        <ele>1267</ele>
        <time>2018-05-13T09:12:45Z</time>
      </trkpt>
      <trkpt lat="45.82057" lon="7.22986">
        <ele>1266</ele>
        <time>2018-05-13T09:13:45Z</time>
      </trkpt>
      <trkpt lat="45.82049" lon="7.22989">
        <ele>1266</ele>
        <time>2018-05-13T09:14:45Z</time>
      </trkpt>
      <trkpt lat="45.82028" lon="7.22996">
        <ele>1265</ele>
        <time>2018-05-13T09:15:45Z</time>
      </trkpt>
      <trkpt lat="45.82027" lon="7.22996">
        <ele>1265</ele>
        <time>2018-05-13T09:16:45Z</time>
      </trkpt>
      <trkpt lat="45.82006" lon="7.22996">
        <ele>1263</ele>
        <time>2018-05-13T09:17:45Z</time>
      </trkpt>
      <trkpt lat="45.82004" lon="7.22996">
        <ele>1263</ele>
        <time>2018-05-13T09:18:45Z</time>
      </trkpt>
      <trkpt lat="45.81948" lon="7.22997">
        <ele>1265</ele>
        <time>2018-05-13T09:19:45Z</time>
      </trkpt>
      <trkpt lat="45.81943" lon="7.22994">
        <ele>1265</ele>
        <time>2018-05-13T09:20:45Z</time>
      </trkpt>
      <trkpt lat="45.81932" lon="7.22994">
        <ele>1266</ele>
        <time>2018-05-13T09:21:45Z</time>
      </trkpt>
      <trkpt lat="45.81927" lon="7.23">
        <ele>1266</ele>
        <time>2018-05-13T09:22:45Z</time>
      </trkpt>
      <trkpt lat="45.81926" lon="7.23003">
        <ele>1266</ele>
        <time>2018-05-13T09:23:45Z</time>
      </trkpt>
      <trkpt lat="45.81925" lon="7.23006">
        <ele>1266</ele>
        <time>2018-05-13T09:24:45Z</time>
      </trkpt>
      <trkpt lat="45.81924" lon="7.2301">
        <ele>1266</ele>
        <time>2018-05-13T09:25:45Z</time>
      </trkpt>
      <trkpt lat="45.81923" lon="7.23018">
        <ele>1266</ele>
        <time>2018-05-13T09:26:45Z</time>
      </trkpt>
      <trkpt lat="45.81923" lon="7.23022">
        <ele>1266</ele>
        <time>2018-05-13T09:27:45Z</time>
      </trkpt>
      <trkpt lat="45.8192" lon="7.23065">
        <ele>1267</ele>
        <time>2018-05-13T09:28:45Z</time>
      </trkpt>
      <trkpt lat="45.81919" lon="7.23096">
        <ele>1268</ele>
        <time>2018-05-13T09:29:45Z</time>
      </trkpt>
      <trkpt lat="45.81919" lon="7.23109">
        <ele>1267</ele>
        <time>2018-05-13T09:30:45Z</time>
      </trkpt>
      <trkpt lat="45.81911" lon="7.23156">
        <ele>1273</ele>
        <time>2018-05-13T09:31:45Z</time>
      </trkpt>
      <trkpt lat="45.81911" lon="7.23159">
        <ele>1272</ele>
        <time>2018-05-13T09:32:45Z</time>
      </trkpt>
      <trkpt lat="45.81909" lon="7.23164">
        <ele>1271</ele>
        <time>2018-05-13T09:33:45Z</time>
      </trkpt>
      <trkpt lat="45.81908" lon="7.23171">
        <ele>1271</ele>
        <time>2018-05-13T09:34:45Z</time>
      </trkpt>
      <trkpt lat="45.81906" lon="7.23178">
        <ele>1273</ele>
        <time>2018-05-13T09:35:45Z</time>
      </trkpt>
      <trkpt lat="45.81849" lon="7.23317">
        <ele>1272</ele>
        <time>2018-05-13T09:36:45Z</time>
      </trkpt>
      <trkpt lat="45.81686" lon="7.23686">
        <ele>1261</ele>
        <time>2018-05-13T09:37:45Z</time>
      </trkpt>
      <trkpt lat="45.81683" lon="7.23693">
        <ele>1260</ele>
        <time>2018-05-13T09:38:45Z</time>
      </trkpt>
      <trkpt lat="45.81673" lon="7.2371">
        <ele>1259</ele>
        <time>2018-05-13T09:39:45Z</time>
      </trkpt>
      <trkpt lat="45.81656" lon="7.23741">
        <ele>1264</ele>
        <time>2018-05-13T09:40:45Z</time>
      </trkpt>
      <trkpt lat="45.81635" lon="7.23762">
        <ele>1254</ele>
        <time>2018-05-13T09:41:45Z</time>
      </trkpt>
      <trkpt lat="45.81621" lon="7.23772">
        <ele>1253</ele>
        <time>2018-05-13T09:42:45Z</time>
      </trkpt>
      <trkpt lat="45.81603" lon="7.23779">
        <ele>1253</ele>
        <time>2018-05-13T09:43:45Z</time>
      </trkpt>
      <trkpt lat="45.81585" lon="7.23784">
        <ele>1252</ele>
        <time>2018-05-13T09:44:45Z</time>
      </trkpt>
      <trkpt lat="45.8153" lon="7.23785">
        <ele>1255</ele>
        <time>2018-05-13T09:45:45Z</time>
      </trkpt>
      <trkpt lat="45.81466" lon="7.23779">
        <ele>1256</ele>
        <time>2018-05-13T09:46:45Z</time>
      </trkpt>
      <trkpt lat="45.81392" lon="7.23775">
        <ele>1254</ele>
        <time>2018-05-13T09:47:45Z</time>
      </trkpt>
      <trkpt lat="45.81358" lon="7.23774">
        <ele>1254</ele>
        <time>2018-05-13T09:48:45Z</time>
      </trkpt>
      <trkpt lat="45.81328" lon="7.23775">
        <ele>1254</ele>
        <time>2018-05-13T09:49:45Z</time>
      </trkpt>
      <trkpt lat="45.81319" lon="7.23776">
        <ele>1253</ele>
        <time>2018-05-13T09:50:45Z</time>
      </trkpt>
      <trkpt lat="45.8131" lon="7.23778">
        <ele>1253</ele>
        <time>2018-05-13T09:51:45Z</time>
      </trkpt>
      <trkpt lat="45.81298" lon="7.23782">
        <ele>1252</ele>
        <time>2018-05-13T09:52:45Z</time>
      </trkpt>
      <trkpt lat="45.81287" lon="7.23786">
        <ele>1252</ele>
        <time>2018-05-13T09:53:45Z</time>
      </trkpt>
      <trkpt lat="45.81273" lon="7.23794">
        <ele>1252</ele>
        <time>2018-05-13T09:54:45Z</time>
      </trkpt>
      <trkpt lat="45.8118" lon="7.23843">
        <ele>1245</ele>
        <time>2018-05-13T09:55:45Z</time>
      </trkpt>
      <trkpt lat="45.81146" lon="7.23863">
        <ele>1246</ele>
        <time>2018-05-13T09:56:45Z</time>
      </trkpt>
      <trkpt lat="45.81136" lon="7.23869">
        <ele>1246</ele>
        <time>2018-05-13T09:57:45Z</time>
      </trkpt>
      <trkpt lat="45.81113" lon="7.23885">
        <ele>1245</ele>
        <time>2018-05-13T09:58:45Z</time>
      </trkpt>
      <trkpt lat="45.81096" lon="7.23896">
        <ele>1244</ele>
        <time>2018-05-13T09:59:45Z</time>
      </trkpt>
      <trkpt lat="45.81085" lon="7.23906">
        <ele>1242</ele>
        <time>2018-05-13T10:00:45Z</time>
      </trkpt>
      <trkpt lat="45.8108" lon="7.23912">
        <ele>1244</ele>
        <time>2018-05-13T10:01:45Z</time>
      </trkpt>
      <trkpt lat="45.81069" lon="7.23924">
        <ele>1241</ele>
        <time>2018-05-13T10:02:45Z</time>
      </trkpt>
      <trkpt lat="45.81059" lon="7.23938">
        <ele>1241</ele>
        <time>2018-05-13T10:03:45Z</time>
      </trkpt>
      <trkpt lat="45.81042" lon="7.23963">
        <ele>1241</ele>
        <time>2018-05-13T10:04:45Z</time>
      </trkpt>
      <trkpt lat="45.81034" lon="7.23976">
        <ele>1240</ele>
        <time>2018-05-13T10:05:45Z</time>
      </trkpt>
      <trkpt lat="45.81008" lon="7.24029">
        <ele>1232</ele>
        <time>2018-05-13T10:06:45Z</time>
      </trkpt>
      <trkpt lat="45.80999" lon="7.2405">
        <ele>1237</ele>
        <time>2018-05-13T10:07:45Z</time>
      </trkpt>
      <trkpt lat="45.80936" lon="7.24208">
        <ele>1223</ele>
        <time>2018-05-13T10:08:45Z</time>
      </trkpt>
      <trkpt lat="45.80898" lon="7.24301">
        <ele>1229</ele>
        <time>2018-05-13T10:09:45Z</time>
      </trkpt>
      <trkpt lat="45.8089" lon="7.24321">
        <ele>1229</ele>
        <time>2018-05-13T10:10:45Z</time>
      </trkpt>
      <trkpt lat="45.80861" lon="7.24395">
        <ele>1226</ele>
        <time>2018-05-13T10:11:45Z</time>
      </trkpt>
      <trkpt lat="45.80858" lon="7.24403">
        <ele>1227</ele>
        <time>2018-05-13T10:12:45Z</time>
      </trkpt>
      <trkpt lat="45.80839" lon="7.24446">
        <ele>1219</ele>
        <time>2018-05-13T10:13:45Z</time>
      </trkpt>
      <trkpt lat="45.80833" lon="7.2445">
        <ele>1232</ele>
        <time>2018-05-13T10:14:45Z</time>
      </trkpt>
      <trkpt lat="45.80821" lon="7.24477">
        <ele>1229</ele>
        <time>2018-05-13T10:15:45Z</time>
      </trkpt>
      <trkpt lat="45.80802" lon="7.24524">
        <ele>1223</ele>
        <time>2018-05-13T10:16:45Z</time>
      </trkpt>
      <trkpt lat="45.80791" lon="7.24559">
        <ele>1224</ele>
        <time>2018-05-13T10:17:45Z</time>
      </trkpt>
      <trkpt lat="45.80788" lon="7.24569">
        <ele>1224</ele>
        <time>2018-05-13T10:18:45Z</time>
      </trkpt>
      <trkpt lat="45.80781" lon="7.24603">
        <ele>1222</ele>
        <time>2018-05-13T10:19:45Z</time>
      </trkpt>
      <trkpt lat="45.80777" lon="7.24631">
        <ele>1222</ele>
        <time>2018-05-13T10:20:45Z</time>
      </trkpt>
      <trkpt lat="45.80775" lon="7.24663">
        <ele>1224</ele>
        <time>2018-05-13T10:21:45Z</time>
      </trkpt>
      <trkpt lat="45.80776" lon="7.24693">
        <ele>1221</ele>
        <time>2018-05-13T10:22:45Z</time>
      </trkpt>
      <trkpt lat="45.80778" lon="7.24713">
        <ele>1221</ele>
        <time>2018-05-13T10:23:45Z</time>
      </trkpt>
      <trkpt lat="45.80781" lon="7.2472">
        <ele>1220</ele>
        <time>2018-05-13T10:24:45Z</time>
      </trkpt>
      <trkpt lat="45.80788" lon="7.24811">
        <ele>1219</ele>
        <time>2018-05-13T10:25:45Z</time>
      </trkpt>
      <trkpt lat="45.80788" lon="7.24821">
        <ele>1219</ele>
        <time>2018-05-13T10:26:45Z</time>
      </trkpt>
      <trkpt lat="45.80788" lon="7.24849">
        <ele>1217</ele>
        <time>2018-05-13T10:27:45Z</time>
      </trkpt>
      <trkpt lat="45.80788" lon="7.24863">
        <ele>1217</ele>
        <time>2018-05-13T10:28:45Z</time>
      </trkpt>
      <trkpt lat="45.80787" lon="7.24872">
        <ele>1217</ele>
        <time>2018-05-13T10:29:45Z</time>
      </trkpt>
      <trkpt lat="45.80787" lon="7.2488">
        <ele>1217</ele>
        <time>2018-05-13T10:30:45Z</time>
      </trkpt>
      <trkpt lat="45.80774" lon="7.24951">
        <ele>1213</ele>
        <time>2018-05-13T10:31:45Z</time>
      </trkpt>
      <trkpt lat="45.80773" lon="7.24953">
        <ele>1212</ele>
        <time>2018-05-13T10:32:45Z</time>
      </trkpt>
      <trkpt lat="45.80767" lon="7.24974">
        <ele>1213</ele>
        <time>2018-05-13T10:33:45Z</time>
      </trkpt>
      <trkpt lat="45.80754" lon="7.25016">
        <ele>1210</ele>
        <time>2018-05-13T10:34:45Z</time>
      </trkpt>
      <trkpt lat="45.8074" lon="7.25053">
        <ele>1220</ele>
        <time>2018-05-13T10:35:45Z</time>
      </trkpt>
      <trkpt lat="45.80702" lon="7.25145">
        <ele>1213</ele>
        <time>2018-05-13T10:36:45Z</time>
      </trkpt>
      <trkpt lat="45.80689" lon="7.25177">
        <ele>1207</ele>
        <time>2018-05-13T10:37:45Z</time>
      </trkpt>
      <trkpt lat="45.80645" lon="7.25265">
        <ele>1217</ele>
        <time>2018-05-13T10:38:45Z</time>
      </trkpt>
      <trkpt lat="45.80581" lon="7.25392">
        <ele>1227</ele>
        <time>2018-05-13T10:39:45Z</time>
      </trkpt>
      <trkpt lat="45.80552" lon="7.25446">
        <ele>1216</ele>
        <time>2018-05-13T10:40:45Z</time>
      </trkpt>
      <trkpt lat="45.80501" lon="7.25537">
        <ele>1202</ele>
        <time>2018-05-13T10:41:45Z</time>
      </trkpt>
      <trkpt lat="45.80465" lon="7.25615">
        <ele>1219</ele>
        <time>2018-05-13T10:42:45Z</time>
      </trkpt>
      <trkpt lat="45.80414" lon="7.25766">
        <ele>1228</ele>
        <time>2018-05-13T10:43:45Z</time>
      </trkpt>
      <trkpt lat="45.80386" lon="7.25865">
        <ele>1225</ele>
        <time>2018-05-13T10:44:45Z</time>
      </trkpt>
      <trkpt lat="45.80354" lon="7.2599">
        <ele>1222</ele>
        <time>2018-05-13T10:45:45Z</time>
      </trkpt>
      <trkpt lat="45.80334" lon="7.26106">
        <ele>1202</ele>
        <time>2018-05-13T10:46:45Z</time>
      </trkpt>
      <trkpt lat="45.80328" lon="7.2615">
        <ele>1222</ele>
        <time>2018-05-13T10:47:45Z</time>
      </trkpt>
      <trkpt lat="45.80318" lon="7.26223">
        <ele>1218</ele>
        <time>2018-05-13T10:48:45Z</time>
      </trkpt>
      <trkpt lat="45.803" lon="7.2632">
        <ele>1208</ele>
        <time>2018-05-13T10:49:45Z</time>
      </trkpt>
      <trkpt lat="45.80262" lon="7.26495">
        <ele>1196</ele>
        <time>2018-05-13T10:50:45Z</time>
      </trkpt>
      <trkpt lat="45.80248" lon="7.26571">
        <ele>1193</ele>
        <time>2018-05-13T10:51:45Z</time>
      </trkpt>
      <trkpt lat="45.80211" lon="7.26762">
        <ele>1172</ele>
        <time>2018-05-13T10:52:45Z</time>
      </trkpt>
      <trkpt lat="45.80187" lon="7.2689">
        <ele>1176</ele>
        <time>2018-05-13T10:53:45Z</time>
      </trkpt>
      <trkpt lat="45.80173" lon="7.26937">
        <ele>1175</ele>
        <time>2018-05-13T10:54:45Z</time>
      </trkpt>
      <trkpt lat="45.80148" lon="7.26996">
        <ele>1196</ele>
        <time>2018-05-13T10:55:45Z</time>
      </trkpt>
      <trkpt lat="45.80097" lon="7.27144">
        <ele>1181</ele>
        <time>2018-05-13T10:56:45Z</time>
      </trkpt>
      <trkpt lat="45.80078" lon="7.27232">
        <ele>1183</ele>
        <time>2018-05-13T10:57:45Z</time>
      </trkpt>
      <trkpt lat="45.80068" lon="7.27257">
        <ele>1175</ele>
        <time>2018-05-13T10:58:45Z</time>
      </trkpt>
      <trkpt lat="45.80051" lon="7.27296">
        <ele>1177</ele>
        <time>2018-05-13T10:59:45Z</time>
      </trkpt>
      <trkpt lat="45.80011" lon="7.27369">
        <ele>1170</ele>
        <time>2018-05-13T11:00:45Z</time>
      </trkpt>
      <trkpt lat="45.7997" lon="7.27426">
        <ele>1178</ele>
        <time>2018-05-13T11:01:45Z</time>
      </trkpt>
      <trkpt lat="45.79951" lon="7.27448">
        <ele>1181</ele>
        <time>2018-05-13T11:02:45Z</time>
      </trkpt>
      <trkpt lat="45.79915" lon="7.27501">
        <ele>1183</ele>
        <time>2018-05-13T11:03:45Z</time>
      </trkpt>
      <trkpt lat="45.79901" lon="7.27536">
        <ele>1190</ele>
        <time>2018-05-13T11:04:45Z</time>
      </trkpt>
      <trkpt lat="45.79861" lon="7.27662">
        <ele>1183</ele>
        <time>2018-05-13T11:05:45Z</time>
      </trkpt>
      <trkpt lat="45.79826" lon="7.27778">
        <ele>1185</ele>
        <time>2018-05-13T11:06:45Z</time>
      </trkpt>
      <trkpt lat="45.79813" lon="7.27812">
        <ele>1181</ele>
        <time>2018-05-13T11:07:45Z</time>
      </trkpt>
      <trkpt lat="45.79796" lon="7.2786">
        <ele>1168</ele>
        <time>2018-05-13T11:08:45Z</time>
      </trkpt>
      <trkpt lat="45.79784" lon="7.27885">
        <ele>1168</ele>
        <time>2018-05-13T11:09:45Z</time>
      </trkpt>
      <trkpt lat="45.79739" lon="7.2796">
        <ele>1172</ele>
        <time>2018-05-13T11:10:45Z</time>
      </trkpt>
      <trkpt lat="45.79711" lon="7.28002">
        <ele>1156</ele>
        <time>2018-05-13T11:11:45Z</time>
      </trkpt>
      <trkpt lat="45.79693" lon="7.28034">
        <ele>1158</ele>
        <time>2018-05-13T11:12:45Z</time>
      </trkpt>
      <trkpt lat="45.7968" lon="7.28063">
        <ele>1156</ele>
        <time>2018-05-13T11:13:45Z</time>
      </trkpt>
      <trkpt lat="45.7967" lon="7.28083">
        <ele>1157</ele>
        <time>2018-05-13T11:14:45Z</time>
      </trkpt>
      <trkpt lat="45.79665" lon="7.28098">
        <ele>1160</ele>
        <time>2018-05-13T11:15:45Z</time>
      </trkpt>
      <trkpt lat="45.79649" lon="7.28147">
        <ele>1155</ele>
        <time>2018-05-13T11:16:45Z</time>
      </trkpt>
      <trkpt lat="45.79623" lon="7.28248">
        <ele>1139</ele>
        <time>2018-05-13T11:17:45Z</time>
      </trkpt>
      <trkpt lat="45.79615" lon="7.28276">
        <ele>1130</ele>
        <time>2018-05-13T11:18:45Z</time>
      </trkpt>
      <trkpt lat="45.79605" lon="7.28301">
        <ele>1129</ele>
        <time>2018-05-13T11:19:45Z</time>
      </trkpt>
      <trkpt lat="45.79594" lon="7.28329">
        <ele>1129</ele>
        <time>2018-05-13T11:20:45Z</time>
      </trkpt>
      <trkpt lat="45.79569" lon="7.28367">
        <ele>1129</ele>
        <time>2018-05-13T11:21:45Z</time>
      </trkpt>
      <trkpt lat="45.79519" lon="7.28446">
        <ele>1117</ele>
        <time>2018-05-13T11:22:45Z</time>
      </trkpt>
      <trkpt lat="45.79509" lon="7.2846">
        <ele>1116</ele>
        <time>2018-05-13T11:23:45Z</time>
      </trkpt>
      <trkpt lat="45.79426" lon="7.28589">
        <ele>1107</ele>
        <time>2018-05-13T11:24:45Z</time>
      </trkpt>
      <trkpt lat="45.7939" lon="7.28651">
        <ele>1108</ele>
        <time>2018-05-13T11:25:45Z</time>
      </trkpt>
      <trkpt lat="45.79389" lon="7.28654">
        <ele>1108</ele>
        <time>2018-05-13T11:26:45Z</time>
      </trkpt>
      <trkpt lat="45.79355" lon="7.2871">
        <ele>1099</ele>
        <time>2018-05-13T11:27:45Z</time>
      </trkpt>
      <trkpt lat="45.79344" lon="7.2873">
        <ele>1098</ele>
        <time>2018-05-13T11:28:45Z</time>
      </trkpt>
      <trkpt lat="45.79337" lon="7.28738">
        <ele>1097</ele>
        <time>2018-05-13T11:29:45Z</time>
      </trkpt>
      <trkpt lat="45.79331" lon="7.28745">
        <ele>1096</ele>
        <time>2018-05-13T11:30:45Z</time>
      </trkpt>
      <trkpt lat="45.79325" lon="7.28749">
        <ele>1096</ele>
        <time>2018-05-13T11:31:45Z</time>
      </trkpt>
      <trkpt lat="45.79319" lon="7.28754">
        <ele>1089</ele>
        <time>2018-05-13T11:32:45Z</time>
      </trkpt>
      <trkpt lat="45.79309" lon="7.28755">
        <ele>1086</ele>
        <time>2018-05-13T11:33:45Z</time>
      </trkpt>
      <trkpt lat="45.79302" lon="7.28755">
        <ele>1084</ele>
        <time>2018-05-13T11:34:45Z</time>
      </trkpt>
      <trkpt lat="45.79294" lon="7.28753">
        <ele>1083</ele>
        <time>2018-05-13T11:35:45Z</time>
      </trkpt>
      <trkpt lat="45.79285" lon="7.28748">
        <ele>1092</ele>
        <time>2018-05-13T11:36:45Z</time>
      </trkpt>
      <trkpt lat="45.79282" lon="7.28745">
        <ele>1092</ele>
        <time>2018-05-13T11:37:45Z</time>
      </trkpt>
      <trkpt lat="45.79274" lon="7.28734">
        <ele>1091</ele>
        <time>2018-05-13T11:38:45Z</time>
      </trkpt>
      <trkpt lat="45.79264" lon="7.28709">
        <ele>1093</ele>
        <time>2018-05-13T11:39:45Z</time>
      </trkpt>
      <trkpt lat="45.79249" lon="7.28639">
        <ele>1090</ele>
        <time>2018-05-13T11:40:45Z</time>
      </trkpt>
      <trkpt lat="45.79233" lon="7.28583">
        <ele>1100</ele>
        <time>2018-05-13T11:41:45Z</time>
      </trkpt>
      <trkpt lat="45.79223" lon="7.28563">
        <ele>1099</ele>
        <time>2018-05-13T11:42:45Z</time>
      </trkpt>
      <trkpt lat="45.79192" lon="7.28513">
        <ele>1098</ele>
        <time>2018-05-13T11:43:45Z</time>
      </trkpt>
      <trkpt lat="45.79167" lon="7.28478">
        <ele>1109</ele>
        <time>2018-05-13T11:44:45Z</time>
      </trkpt>
      <trkpt lat="45.79161" lon="7.28471">
        <ele>1106</ele>
        <time>2018-05-13T11:45:45Z</time>
      </trkpt>
      <trkpt lat="45.79157" lon="7.28468">
        <ele>1107</ele>
        <time>2018-05-13T11:46:45Z</time>
      </trkpt>
      <trkpt lat="45.79154" lon="7.28466">
        <ele>1107</ele>
        <time>2018-05-13T11:47:45Z</time>
      </trkpt>
      <trkpt lat="45.79149" lon="7.28464">
        <ele>1108</ele>
        <time>2018-05-13T11:48:45Z</time>
      </trkpt>
      <trkpt lat="45.79144" lon="7.28463">
        <ele>1109</ele>
        <time>2018-05-13T11:49:45Z</time>
      </trkpt>
      <trkpt lat="45.79139" lon="7.28465">
        <ele>1108</ele>
        <time>2018-05-13T11:50:45Z</time>
      </trkpt>
      <trkpt lat="45.79137" lon="7.28465">
        <ele>1109</ele>
        <time>2018-05-13T11:51:45Z</time>
      </trkpt>
      <trkpt lat="45.79133" lon="7.28467">
        <ele>1108</ele>
        <time>2018-05-13T11:52:45Z</time>
      </trkpt>
      <trkpt lat="45.79129" lon="7.2847">
        <ele>1108</ele>
        <time>2018-05-13T11:53:45Z</time>
      </trkpt>
      <trkpt lat="45.79125" lon="7.28475">
        <ele>1108</ele>
        <time>2018-05-13T11:54:45Z</time>
      </trkpt>
      <trkpt lat="45.7912" lon="7.28483">
        <ele>1108</ele>
        <time>2018-05-13T11:55:45Z</time>
      </trkpt>
      <trkpt lat="45.79118" lon="7.2849">
        <ele>1107</ele>
        <time>2018-05-13T11:56:45Z</time>
      </trkpt>
      <trkpt lat="45.79115" lon="7.285">
        <ele>1099</ele>
        <time>2018-05-13T11:57:45Z</time>
      </trkpt>
      <trkpt lat="45.79114" lon="7.28505">
        <ele>1099</ele>
        <time>2018-05-13T11:58:45Z</time>
      </trkpt>
      <trkpt lat="45.79115" lon="7.28511">
        <ele>1098</ele>
        <time>2018-05-13T11:59:45Z</time>
      </trkpt>
      <trkpt lat="45.79118" lon="7.28521">
        <ele>1097</ele>
        <time>2018-05-13T12:00:45Z</time>
      </trkpt>
      <trkpt lat="45.79124" lon="7.28535">
        <ele>1096</ele>
        <time>2018-05-13T12:01:45Z</time>
      </trkpt>
      <trkpt lat="45.79128" lon="7.28547">
        <ele>1095</ele>
        <time>2018-05-13T12:02:45Z</time>
      </trkpt>
      <trkpt lat="45.79133" lon="7.28568">
        <ele>1093</ele>
        <time>2018-05-13T12:03:45Z</time>
      </trkpt>
      <trkpt lat="45.79135" lon="7.28581">
        <ele>1092</ele>
        <time>2018-05-13T12:04:45Z</time>
      </trkpt>
      <trkpt lat="45.79136" lon="7.28591">
        <ele>1085</ele>
        <time>2018-05-13T12:05:45Z</time>
      </trkpt>
      <trkpt lat="45.79136" lon="7.28606">
        <ele>1084</ele>
        <time>2018-05-13T12:06:45Z</time>
      </trkpt>
      <trkpt lat="45.79135" lon="7.28627">
        <ele>1083</ele>
        <time>2018-05-13T12:07:45Z</time>
      </trkpt>
      <trkpt lat="45.79128" lon="7.28654">
        <ele>1082</ele>
        <time>2018-05-13T12:08:45Z</time>
      </trkpt>
      <trkpt lat="45.79109" lon="7.28709">
        <ele>1076</ele>
        <time>2018-05-13T12:09:45Z</time>
      </trkpt>
      <trkpt lat="45.79101" lon="7.28735">
        <ele>1076</ele>
        <time>2018-05-13T12:10:45Z</time>
      </trkpt>
      <trkpt lat="45.79092" lon="7.2876">
        <ele>1074</ele>
        <time>2018-05-13T12:11:45Z</time>
      </trkpt>
      <trkpt lat="45.79088" lon="7.28777">
        <ele>1071</ele>
        <time>2018-05-13T12:12:45Z</time>
      </trkpt>
      <trkpt lat="45.7908" lon="7.28807">
        <ele>1091</ele>
        <time>2018-05-13T12:13:45Z</time>
      </trkpt>
      <trkpt lat="45.79077" lon="7.28837">
        <ele>1079</ele>
        <time>2018-05-13T12:14:45Z</time>
      </trkpt>
      <trkpt lat="45.79076" lon="7.28857">
        <ele>1087</ele>
        <time>2018-05-13T12:15:45Z</time>
      </trkpt>
      <trkpt lat="45.79076" lon="7.28886">
        <ele>1088</ele>
        <time>2018-05-13T12:16:45Z</time>
      </trkpt>
      <trkpt lat="45.79079" lon="7.28914">
        <ele>1074</ele>
        <time>2018-05-13T12:17:45Z</time>
      </trkpt>
      <trkpt lat="45.79084" lon="7.28948">
        <ele>1058</ele>
        <time>2018-05-13T12:18:45Z</time>
      </trkpt>
      <trkpt lat="45.79102" lon="7.29032">
        <ele>1057</ele>
        <time>2018-05-13T12:19:45Z</time>
      </trkpt>
      <trkpt lat="45.79121" lon="7.29149">
        <ele>1054</ele>
        <time>2018-05-13T12:20:45Z</time>
      </trkpt>
      <trkpt lat="45.79126" lon="7.29175">
        <ele>1051</ele>
        <time>2018-05-13T12:21:45Z</time>
      </trkpt>
      <trkpt lat="45.79126" lon="7.29184">
        <ele>1051</ele>
        <time>2018-05-13T12:22:45Z</time>
      </trkpt>
      <trkpt lat="45.79127" lon="7.29195">
        <ele>1050</ele>
        <time>2018-05-13T12:23:45Z</time>
      </trkpt>
      <trkpt lat="45.79127" lon="7.29203">
        <ele>1050</ele>
        <time>2018-05-13T12:24:45Z</time>
      </trkpt>
      <trkpt lat="45.79126" lon="7.29209">
        <ele>1050</ele>
        <time>2018-05-13T12:25:45Z</time>
      </trkpt>
      <trkpt lat="45.79124" lon="7.29229">
        <ele>1049</ele>
        <time>2018-05-13T12:26:45Z</time>
      </trkpt>
      <trkpt lat="45.79119" lon="7.29246">
        <ele>1049</ele>
        <time>2018-05-13T12:27:45Z</time>
      </trkpt>
      <trkpt lat="45.79114" lon="7.29261">
        <ele>1041</ele>
        <time>2018-05-13T12:28:45Z</time>
      </trkpt>
      <trkpt lat="45.79105" lon="7.29277">
        <ele>1040</ele>
        <time>2018-05-13T12:29:45Z</time>
      </trkpt>
      <trkpt lat="45.79095" lon="7.29289">
        <ele>1039</ele>
        <time>2018-05-13T12:30:45Z</time>
      </trkpt>
      <trkpt lat="45.79085" lon="7.293">
        <ele>1038</ele>
        <time>2018-05-13T12:31:45Z</time>
      </trkpt>
      <trkpt lat="45.7902" lon="7.29344">
        <ele>1036</ele>
        <time>2018-05-13T12:32:45Z</time>
      </trkpt>
      <trkpt lat="45.78898" lon="7.29432">
        <ele>1030</ele>
        <time>2018-05-13T12:33:45Z</time>
      </trkpt>
      <trkpt lat="45.78861" lon="7.29455">
        <ele>1027</ele>
        <time>2018-05-13T12:34:45Z</time>
      </trkpt>
      <trkpt lat="45.7882" lon="7.29479">
        <ele>1026</ele>
        <time>2018-05-13T12:35:45Z</time>
      </trkpt>
      <trkpt lat="45.78792" lon="7.29491">
        <ele>1026</ele>
        <time>2018-05-13T12:36:45Z</time>
      </trkpt>
      <trkpt lat="45.78513" lon="7.29574">
        <ele>1001</ele>
        <time>2018-05-13T12:37:45Z</time>
      </trkpt>
      <trkpt lat="45.78454" lon="7.29595">
        <ele>991</ele>
        <time>2018-05-13T12:38:45Z</time>
      </trkpt>
      <trkpt lat="45.78431" lon="7.296">
        <ele>993</ele>
        <time>2018-05-13T12:39:45Z</time>
      </trkpt>
      <trkpt lat="45.78419" lon="7.29604">
        <ele>993</ele>
        <time>2018-05-13T12:40:45Z</time>
      </trkpt>
      <trkpt lat="45.78407" lon="7.29609">
        <ele>995</ele>
        <time>2018-05-13T12:41:45Z</time>
      </trkpt>
      <trkpt lat="45.78395" lon="7.29616">
        <ele>994</ele>
        <time>2018-05-13T12:42:45Z</time>
      </trkpt>
      <trkpt lat="45.78386" lon="7.29621">
        <ele>993</ele>
        <time>2018-05-13T12:43:45Z</time>
      </trkpt>
      <trkpt lat="45.78377" lon="7.29629">
        <ele>993</ele>
        <time>2018-05-13T12:44:45Z</time>
      </trkpt>
      <trkpt lat="45.7837" lon="7.29635">
        <ele>993</ele>
        <time>2018-05-13T12:45:45Z</time>
      </trkpt>
      <trkpt lat="45.78348" lon="7.29662">
        <ele>992</ele>
        <time>2018-05-13T12:46:45Z</time>
      </trkpt>
      <trkpt lat="45.78333" lon="7.29682">
        <ele>988</ele>
        <time>2018-05-13T12:47:45Z</time>
      </trkpt>
      <trkpt lat="45.78317" lon="7.29708">
        <ele>983</ele>
        <time>2018-05-13T12:48:45Z</time>
      </trkpt>
      <trkpt lat="45.78291" lon="7.29741">
        <ele>981</ele>
        <time>2018-05-13T12:49:45Z</time>
      </trkpt>
      <trkpt lat="45.78286" lon="7.29746">
        <ele>981</ele>
        <time>2018-05-13T12:50:45Z</time>
      </trkpt>
      <trkpt lat="45.78279" lon="7.29752">
        <ele>971</ele>
        <time>2018-05-13T12:51:45Z</time>
      </trkpt>
      <trkpt lat="45.78275" lon="7.29754">
        <ele>971</ele>
        <time>2018-05-13T12:52:45Z</time>
      </trkpt>
      <trkpt lat="45.7827" lon="7.29758">
        <ele>972</ele>
        <time>2018-05-13T12:53:45Z</time>
      </trkpt>
      <trkpt lat="45.78263" lon="7.29761">
        <ele>973</ele>
        <time>2018-05-13T12:54:45Z</time>
      </trkpt>
      <trkpt lat="45.78257" lon="7.29764">
        <ele>973</ele>
        <time>2018-05-13T12:55:45Z</time>
      </trkpt>
      <trkpt lat="45.7824" lon="7.29772">
        <ele>973</ele>
        <time>2018-05-13T12:56:45Z</time>
      </trkpt>
      <trkpt lat="45.78237" lon="7.29774">
        <ele>972</ele>
        <time>2018-05-13T12:57:45Z</time>
      </trkpt>
      <trkpt lat="45.7822" lon="7.2978">
        <ele>971</ele>
        <time>2018-05-13T12:58:45Z</time>
      </trkpt>
      <trkpt lat="45.78198" lon="7.29789">
        <ele>969</ele>
        <time>2018-05-13T12:59:45Z</time>
      </trkpt>
      <trkpt lat="45.78184" lon="7.29794">
        <ele>969</ele>
        <time>2018-05-13T13:00:45Z</time>
      </trkpt>
      <trkpt lat="45.78183" lon="7.29794">
        <ele>969</ele>
        <time>2018-05-13T13:01:45Z</time>
      </trkpt>
      <trkpt lat="45.78173" lon="7.29797">
        <ele>968</ele>
        <time>2018-05-13T13:02:45Z</time>
      </trkpt>
      <trkpt lat="45.78167" lon="7.29799">
        <ele>968</ele>
        <time>2018-05-13T13:03:45Z</time>
      </trkpt>
      <trkpt lat="45.78164" lon="7.29799">
        <ele>964</ele>
        <time>2018-05-13T13:04:45Z</time>
      </trkpt>
      <trkpt lat="45.7816" lon="7.298">
        <ele>963</ele>
        <time>2018-05-13T13:05:45Z</time>
      </trkpt>
      <trkpt lat="45.78157" lon="7.298">
        <ele>963</ele>
        <time>2018-05-13T13:06:45Z</time>
      </trkpt>
      <trkpt lat="45.78153" lon="7.298">
        <ele>963</ele>
        <time>2018-05-13T13:07:45Z</time>
      </trkpt>
      <trkpt lat="45.78145" lon="7.29798">
        <ele>963</ele>
        <time>2018-05-13T13:08:45Z</time>
      </trkpt>
      <trkpt lat="45.7814" lon="7.29795">
        <ele>963</ele>
        <time>2018-05-13T13:09:45Z</time>
      </trkpt>
      <trkpt lat="45.78137" lon="7.29794">
        <ele>963</ele>
        <time>2018-05-13T13:10:45Z</time>
      </trkpt>
      <trkpt lat="45.78132" lon="7.2979">
        <ele>963</ele>
        <time>2018-05-13T13:11:45Z</time>
      </trkpt>
      <trkpt lat="45.78128" lon="7.29786">
        <ele>963</ele>
        <time>2018-05-13T13:12:45Z</time>
      </trkpt>
      <trkpt lat="45.78125" lon="7.29782">
        <ele>963</ele>
        <time>2018-05-13T13:13:45Z</time>
      </trkpt>
      <trkpt lat="45.78118" lon="7.29769">
        <ele>964</ele>
        <time>2018-05-13T13:14:45Z</time>
      </trkpt>
      <trkpt lat="45.78114" lon="7.29757">
        <ele>964</ele>
        <time>2018-05-13T13:15:45Z</time>
      </trkpt>
      <trkpt lat="45.7811" lon="7.29747">
        <ele>967</ele>
        <time>2018-05-13T13:16:45Z</time>
      </trkpt>
      <trkpt lat="45.78109" lon="7.29737">
        <ele>967</ele>
        <time>2018-05-13T13:17:45Z</time>
      </trkpt>
      <trkpt lat="45.78108" lon="7.29726">
        <ele>967</ele>
        <time>2018-05-13T13:18:45Z</time>
      </trkpt>
      <trkpt lat="45.78108" lon="7.29717">
        <ele>967</ele>
        <time>2018-05-13T13:19:45Z</time>
      </trkpt>
      <trkpt lat="45.78108" lon="7.2971">
        <ele>967</ele>
        <time>2018-05-13T13:20:45Z</time>
      </trkpt>
      <trkpt lat="45.7811" lon="7.29701">
        <ele>967</ele>
        <time>2018-05-13T13:21:45Z</time>
      </trkpt>
      <trkpt lat="45.78115" lon="7.29682">
        <ele>967</ele>
        <time>2018-05-13T13:22:45Z</time>
      </trkpt>
      <trkpt lat="45.78121" lon="7.29658">
        <ele>966</ele>
        <time>2018-05-13T13:23:45Z</time>
      </trkpt>
      <trkpt lat="45.78125" lon="7.29642">
        <ele>966</ele>
        <time>2018-05-13T13:24:45Z</time>
      </trkpt>
      <trkpt lat="45.78127" lon="7.29628">
        <ele>966</ele>
        <time>2018-05-13T13:25:45Z</time>
      </trkpt>
      <trkpt lat="45.78128" lon="7.29619">
        <ele>966</ele>
        <time>2018-05-13T13:26:45Z</time>
      </trkpt>
      <trkpt lat="45.78127" lon="7.29607">
        <ele>966</ele>
        <time>2018-05-13T13:27:45Z</time>
      </trkpt>
      <trkpt lat="45.78126" lon="7.29599">
        <ele>966</ele>
        <time>2018-05-13T13:28:45Z</time>
      </trkpt>
      <trkpt lat="45.78125" lon="7.29593">
        <ele>966</ele>
        <time>2018-05-13T13:29:45Z</time>
      </trkpt>
      <trkpt lat="45.78122" lon="7.2958">
        <ele>967</ele>
        <time>2018-05-13T13:30:45Z</time>
      </trkpt>
      <trkpt lat="45.78122" lon="7.29579">
        <ele>967</ele>
        <time>2018-05-13T13:31:45Z</time>
      </trkpt>
      <trkpt lat="45.78114" lon="7.29564">
        <ele>966</ele>
        <time>2018-05-13T13:32:45Z</time>
      </trkpt>
      <trkpt lat="45.78108" lon="7.29558">
        <ele>966</ele>
        <time>2018-05-13T13:33:45Z</time>
      </trkpt>
      <trkpt lat="45.781" lon="7.29551">
        <ele>966</ele>
        <time>2018-05-13T13:34:45Z</time>
      </trkpt>
      <trkpt lat="45.78051" lon="7.29521">
        <ele>958</ele>
        <time>2018-05-13T13:35:45Z</time>
      </trkpt>
      <trkpt lat="45.78029" lon="7.29511">
        <ele>957</ele>
        <time>2018-05-13T13:36:45Z</time>
      </trkpt>
      <trkpt lat="45.78011" lon="7.29502">
        <ele>957</ele>
        <time>2018-05-13T13:37:45Z</time>
      </trkpt>
      <trkpt lat="45.78009" lon="7.29502">
        <ele>957</ele>
        <time>2018-05-13T13:38:45Z</time>
      </trkpt>
      <trkpt lat="45.78006" lon="7.295">
        <ele>960</ele>
        <time>2018-05-13T13:39:45Z</time>
      </trkpt>
      <trkpt lat="45.78001" lon="7.295">
        <ele>958</ele>
        <time>2018-05-13T13:40:45Z</time>
      </trkpt>
      <trkpt lat="45.77995" lon="7.29501">
        <ele>956</ele>
        <time>2018-05-13T13:41:45Z</time>
      </trkpt>
      <trkpt lat="45.77971" lon="7.29508">
        <ele>952</ele>
        <time>2018-05-13T13:42:45Z</time>
      </trkpt>
      <trkpt lat="45.77949" lon="7.2952">
        <ele>951</ele>
        <time>2018-05-13T13:43:45Z</time>
      </trkpt>
      <trkpt lat="45.77938" lon="7.29525">
        <ele>950</ele>
        <time>2018-05-13T13:44:45Z</time>
      </trkpt>
      <trkpt lat="45.77929" lon="7.2953">
        <ele>950</ele>
        <time>2018-05-13T13:45:45Z</time>
      </trkpt>
      <trkpt lat="45.77919" lon="7.29535">
        <ele>950</ele>
        <time>2018-05-13T13:46:45Z</time>
      </trkpt>
      <trkpt lat="45.77897" lon="7.2954">
        <ele>947</ele>
        <time>2018-05-13T13:47:45Z</time>
      </trkpt>
      <trkpt lat="45.77873" lon="7.29542">
        <ele>947</ele>
        <time>2018-05-13T13:48:45Z</time>
      </trkpt>
      <trkpt lat="45.77864" lon="7.29542">
        <ele>947</ele>
        <time>2018-05-13T13:49:45Z</time>
      </trkpt>
      <trkpt lat="45.77837" lon="7.29544">
        <ele>947</ele>
        <time>2018-05-13T13:50:45Z</time>
      </trkpt>
      <trkpt lat="45.77827" lon="7.29546">
        <ele>947</ele>
        <time>2018-05-13T13:51:45Z</time>
      </trkpt>
      <trkpt lat="45.77821" lon="7.29547">
        <ele>947</ele>
        <time>2018-05-13T13:52:45Z</time>
      </trkpt>
      <trkpt lat="45.77813" lon="7.29548">
        <ele>947</ele>
        <time>2018-05-13T13:53:45Z</time>
      </trkpt>
      <trkpt lat="45.77798" lon="7.29553">
        <ele>947</ele>
        <time>2018-05-13T13:54:45Z</time>
      </trkpt>
      <trkpt lat="45.77786" lon="7.29558">
        <ele>947</ele>
        <time>2018-05-13T13:55:45Z</time>
      </trkpt>
      <trkpt lat="45.77776" lon="7.29566">
        <ele>947</ele>
        <time>2018-05-13T13:56:45Z</time>
      </trkpt>
      <trkpt lat="45.77764" lon="7.29581">
        <ele>947</ele>
        <time>2018-05-13T13:57:45Z</time>
      </trkpt>
      <trkpt lat="45.77715" lon="7.29637">
        <ele>949</ele>
        <time>2018-05-13T13:58:45Z</time>
      </trkpt>
      <trkpt lat="45.77666" lon="7.29683">
        <ele>951</ele>
        <time>2018-05-13T13:59:45Z</time>
      </trkpt>
      <trkpt lat="45.77628" lon="7.29718">
        <ele>953</ele>
        <time>2018-05-13T14:00:45Z</time>
      </trkpt>
      <trkpt lat="45.77543" lon="7.29796">
        <ele>937</ele>
        <time>2018-05-13T14:01:45Z</time>
      </trkpt>
      <trkpt lat="45.77538" lon="7.29801">
        <ele>936</ele>
        <time>2018-05-13T14:02:45Z</time>
      </trkpt>
      <trkpt lat="45.77513" lon="7.29829">
        <ele>931</ele>
        <time>2018-05-13T14:03:45Z</time>
      </trkpt>
      <trkpt lat="45.77492" lon="7.29856">
        <ele>928</ele>
        <time>2018-05-13T14:04:45Z</time>
      </trkpt>
      <trkpt lat="45.77466" lon="7.29899">
        <ele>927</ele>
        <time>2018-05-13T14:05:45Z</time>
      </trkpt>
      <trkpt lat="45.77414" lon="7.2999">
        <ele>923</ele>
        <time>2018-05-13T14:06:45Z</time>
      </trkpt>
      <trkpt lat="45.7741" lon="7.29997">
        <ele>923</ele>
        <time>2018-05-13T14:07:45Z</time>
      </trkpt>
      <trkpt lat="45.77409" lon="7.29998">
        <ele>923</ele>
        <time>2018-05-13T14:08:45Z</time>
      </trkpt>
      <trkpt lat="45.77408" lon="7.29999">
        <ele>923</ele>
        <time>2018-05-13T14:09:45Z</time>
      </trkpt>
      <trkpt lat="45.77403" lon="7.30004">
        <ele>919</ele>
        <time>2018-05-13T14:10:45Z</time>
      </trkpt>
      <trkpt lat="45.77336" lon="7.30074">
        <ele>915</ele>
        <time>2018-05-13T14:11:45Z</time>
      </trkpt>
      <trkpt lat="45.77117" lon="7.30267">
        <ele>904</ele>
        <time>2018-05-13T14:12:45Z</time>
      </trkpt>
      <trkpt lat="45.76996" lon="7.30387">
        <ele>907</ele>
        <time>2018-05-13T14:13:45Z</time>
      </trkpt>
      <trkpt lat="45.76963" lon="7.3042">
        <ele>898</ele>
        <time>2018-05-13T14:14:45Z</time>
      </trkpt>
      <trkpt lat="45.76951" lon="7.3043">
        <ele>899</ele>
        <time>2018-05-13T14:15:45Z</time>
      </trkpt>
      <trkpt lat="45.76932" lon="7.30446">
        <ele>899</ele>
        <time>2018-05-13T14:16:45Z</time>
      </trkpt>
      <trkpt lat="45.76906" lon="7.30464">
        <ele>901</ele>
        <time>2018-05-13T14:17:45Z</time>
      </trkpt>
      <trkpt lat="45.7689" lon="7.30474">
        <ele>900</ele>
        <time>2018-05-13T14:18:45Z</time>
      </trkpt>
      <trkpt lat="45.76879" lon="7.3048">
        <ele>900</ele>
        <time>2018-05-13T14:19:45Z</time>
      </trkpt>
      <trkpt lat="45.76864" lon="7.30488">
        <ele>899</ele>
        <time>2018-05-13T14:20:45Z</time>
      </trkpt>
      <trkpt lat="45.7675" lon="7.30528">
        <ele>904</ele>
        <time>2018-05-13T14:21:45Z</time>
      </trkpt>
      <trkpt lat="45.76741" lon="7.30533">
        <ele>904</ele>
        <time>2018-05-13T14:22:45Z</time>
      </trkpt>
      <trkpt lat="45.76736" lon="7.30538">
        <ele>904</ele>
        <time>2018-05-13T14:23:45Z</time>
      </trkpt>
      <trkpt lat="45.76727" lon="7.30549">
        <ele>903</ele>
        <time>2018-05-13T14:24:45Z</time>
      </trkpt>
      <trkpt lat="45.76723" lon="7.30557">
        <ele>903</ele>
        <time>2018-05-13T14:25:45Z</time>
      </trkpt>
      <trkpt lat="45.76721" lon="7.30564">
        <ele>902</ele>
        <time>2018-05-13T14:26:45Z</time>
      </trkpt>
      <trkpt lat="45.76719" lon="7.30573">
        <ele>901</ele>
        <time>2018-05-13T14:27:45Z</time>
      </trkpt>
      <trkpt lat="45.76718" lon="7.30584">
        <ele>890</ele>
        <time>2018-05-13T14:28:45Z</time>
      </trkpt>
      <trkpt lat="45.76717" lon="7.30593">
        <ele>889</ele>
        <time>2018-05-13T14:29:45Z</time>
      </trkpt>
      <trkpt lat="45.76718" lon="7.30602">
        <ele>889</ele>
        <time>2018-05-13T14:30:45Z</time>
      </trkpt>
      <trkpt lat="45.76719" lon="7.30609">
        <ele>888</ele>
        <time>2018-05-13T14:31:45Z</time>
      </trkpt>
      <trkpt lat="45.76721" lon="7.30618">
        <ele>887</ele>
        <time>2018-05-13T14:32:45Z</time>
      </trkpt>
      <trkpt lat="45.76723" lon="7.30625">
        <ele>886</ele>
        <time>2018-05-13T14:33:45Z</time>
      </trkpt>
      <trkpt lat="45.76726" lon="7.30632">
        <ele>885</ele>
        <time>2018-05-13T14:34:45Z</time>
      </trkpt>
      <trkpt lat="45.76729" lon="7.30636">
        <ele>884</ele>
        <time>2018-05-13T14:35:45Z</time>
      </trkpt>
      <trkpt lat="45.76733" lon="7.30644">
        <ele>883</ele>
        <time>2018-05-13T14:36:45Z</time>
      </trkpt>
      <trkpt lat="45.76738" lon="7.3065">
        <ele>881</ele>
        <time>2018-05-13T14:37:45Z</time>
      </trkpt>
      <trkpt lat="45.76744" lon="7.30654">
        <ele>879</ele>
        <time>2018-05-13T14:38:45Z</time>
      </trkpt>
      <trkpt lat="45.7675" lon="7.30657">
        <ele>877</ele>
        <time>2018-05-13T14:39:45Z</time>
      </trkpt>
      <trkpt lat="45.76756" lon="7.30658">
        <ele>874</ele>
        <time>2018-05-13T14:40:45Z</time>
      </trkpt>
      <trkpt lat="45.76765" lon="7.30659">
        <ele>875</ele>
        <time>2018-05-13T14:41:45Z</time>
      </trkpt>
      <trkpt lat="45.76772" lon="7.30658">
        <ele>875</ele>
        <time>2018-05-13T14:42:45Z</time>
      </trkpt>
      <trkpt lat="45.76779" lon="7.30657">
        <ele>875</ele>
        <time>2018-05-13T14:43:45Z</time>
      </trkpt>
      <trkpt lat="45.76784" lon="7.30654">
        <ele>875</ele>
        <time>2018-05-13T14:44:45Z</time>
      </trkpt>
      <trkpt lat="45.76792" lon="7.30648">
        <ele>875</ele>
        <time>2018-05-13T14:45:45Z</time>
      </trkpt>
      <trkpt lat="45.76819" lon="7.3063">
        <ele>875</ele>
        <time>2018-05-13T14:46:45Z</time>
      </trkpt>
      <trkpt lat="45.76898" lon="7.30581">
        <ele>878</ele>
        <time>2018-05-13T14:47:45Z</time>
      </trkpt>
      <trkpt lat="45.7696" lon="7.30543">
        <ele>880</ele>
        <time>2018-05-13T14:48:45Z</time>
      </trkpt>
      <trkpt lat="45.76986" lon="7.30527">
        <ele>881</ele>
        <time>2018-05-13T14:49:45Z</time>
      </trkpt>
      <trkpt lat="45.77012" lon="7.3051">
        <ele>882</ele>
        <time>2018-05-13T14:50:45Z</time>
      </trkpt>
      <trkpt lat="45.77036" lon="7.30494">
        <ele>885</ele>
        <time>2018-05-13T14:51:45Z</time>
      </trkpt>
      <trkpt lat="45.77041" lon="7.30494">
        <ele>885</ele>
        <time>2018-05-13T14:52:45Z</time>
      </trkpt>
      <trkpt lat="45.77042" lon="7.30493">
        <ele>885</ele>
        <time>2018-05-13T14:53:45Z</time>
      </trkpt>
      <trkpt lat="45.77051" lon="7.30489">
        <ele>884</ele>
        <time>2018-05-13T14:54:45Z</time>
      </trkpt>
      <trkpt lat="45.77134" lon="7.30442">
        <ele>878</ele>
        <time>2018-05-13T14:55:45Z</time>
      </trkpt>
      <trkpt lat="45.7715" lon="7.30439">
        <ele>877</ele>
        <time>2018-05-13T14:56:45Z</time>
      </trkpt>
      <trkpt lat="45.77158" lon="7.3044">
        <ele>877</ele>
        <time>2018-05-13T14:57:45Z</time>
      </trkpt>
      <trkpt lat="45.77164" lon="7.30442">
        <ele>877</ele>
        <time>2018-05-13T14:58:45Z</time>
      </trkpt>
      <trkpt lat="45.7717" lon="7.30446">
        <ele>873</ele>
        <time>2018-05-13T14:59:45Z</time>
      </trkpt>
      <trkpt lat="45.77175" lon="7.3045">
        <ele>873</ele>
        <time>2018-05-13T15:00:45Z</time>
      </trkpt>
      <trkpt lat="45.77179" lon="7.30454">
        <ele>873</ele>
        <time>2018-05-13T15:01:45Z</time>
      </trkpt>
      <trkpt lat="45.77186" lon="7.30466">
        <ele>872</ele>
        <time>2018-05-13T15:02:45Z</time>
      </trkpt>
      <trkpt lat="45.7719" lon="7.30476">
        <ele>872</ele>
        <time>2018-05-13T15:03:45Z</time>
      </trkpt>
      <trkpt lat="45.77192" lon="7.30489">
        <ele>872</ele>
        <time>2018-05-13T15:04:45Z</time>
      </trkpt>
      <trkpt lat="45.77193" lon="7.30514">
        <ele>871</ele>
        <time>2018-05-13T15:05:45Z</time>
      </trkpt>
      <trkpt lat="45.77193" lon="7.3053">
        <ele>870</ele>
        <time>2018-05-13T15:06:45Z</time>
      </trkpt>
      <trkpt lat="45.77193" lon="7.30547">
        <ele>870</ele>
        <time>2018-05-13T15:07:45Z</time>
      </trkpt>
      <trkpt lat="45.77192" lon="7.30558">
        <ele>870</ele>
        <time>2018-05-13T15:08:45Z</time>
      </trkpt>
      <trkpt lat="45.77192" lon="7.30573">
        <ele>870</ele>
        <time>2018-05-13T15:09:45Z</time>
      </trkpt>
      <trkpt lat="45.7719" lon="7.30587">
        <ele>866</ele>
        <time>2018-05-13T15:10:45Z</time>
      </trkpt>
      <trkpt lat="45.77188" lon="7.30606">
        <ele>865</ele>
        <time>2018-05-13T15:11:45Z</time>
      </trkpt>
      <trkpt lat="45.77185" lon="7.30628">
        <ele>863</ele>
        <time>2018-05-13T15:12:45Z</time>
      </trkpt>
      <trkpt lat="45.77184" lon="7.30634">
        <ele>862</ele>
        <time>2018-05-13T15:13:45Z</time>
      </trkpt>
      <trkpt lat="45.77184" lon="7.30642">
        <ele>862</ele>
        <time>2018-05-13T15:14:45Z</time>
      </trkpt>
      <trkpt lat="45.77182" lon="7.30648">
        <ele>862</ele>
        <time>2018-05-13T15:15:45Z</time>
      </trkpt>
      <trkpt lat="45.77175" lon="7.30661">
        <ele>862</ele>
        <time>2018-05-13T15:16:45Z</time>
      </trkpt>
      <trkpt lat="45.77158" lon="7.30681">
        <ele>859</ele>
        <time>2018-05-13T15:17:45Z</time>
      </trkpt>
      <trkpt lat="45.77145" lon="7.30693">
        <ele>857</ele>
        <time>2018-05-13T15:18:45Z</time>
      </trkpt>
      <trkpt lat="45.77128" lon="7.30699">
        <ele>857</ele>
        <time>2018-05-13T15:19:45Z</time>
      </trkpt>
      <trkpt lat="45.77114" lon="7.30701">
        <ele>857</ele>
        <time>2018-05-13T15:20:45Z</time>
      </trkpt>
      <trkpt lat="45.77098" lon="7.30699">
        <ele>858</ele>
        <time>2018-05-13T15:21:45Z</time>
      </trkpt>
      <trkpt lat="45.7706" lon="7.30688">
        <ele>862</ele>
        <time>2018-05-13T15:22:45Z</time>
      </trkpt>
      <trkpt lat="45.77044" lon="7.30688">
        <ele>861</ele>
        <time>2018-05-13T15:23:45Z</time>
      </trkpt>
      <trkpt lat="45.77039" lon="7.30689">
        <ele>861</ele>
        <time>2018-05-13T15:24:45Z</time>
      </trkpt>
      <trkpt lat="45.77035" lon="7.30691">
        <ele>861</ele>
        <time>2018-05-13T15:25:45Z</time>
      </trkpt>
      <trkpt lat="45.7703" lon="7.30694">
        <ele>861</ele>
        <time>2018-05-13T15:26:45Z</time>
      </trkpt>
      <trkpt lat="45.77027" lon="7.30697">
        <ele>861</ele>
        <time>2018-05-13T15:27:45Z</time>
      </trkpt>
      <trkpt lat="45.77024" lon="7.30702">
        <ele>860</ele>
        <time>2018-05-13T15:28:45Z</time>
      </trkpt>
      <trkpt lat="45.7702" lon="7.3071">
        <ele>860</ele>
        <time>2018-05-13T15:29:45Z</time>
      </trkpt>
      <trkpt lat="45.77018" lon="7.30717">
        <ele>859</ele>
        <time>2018-05-13T15:30:45Z</time>
      </trkpt>
      <trkpt lat="45.77017" lon="7.30721">
        <ele>859</ele>
        <time>2018-05-13T15:31:45Z</time>
      </trkpt>
      <trkpt lat="45.77017" lon="7.30723">
        <ele>858</ele>
        <time>2018-05-13T15:32:45Z</time>
      </trkpt>
      <trkpt lat="45.77017" lon="7.30726">
        <ele>858</ele>
        <time>2018-05-13T15:33:45Z</time>
      </trkpt>
      <trkpt lat="45.77017" lon="7.30729">
        <ele>858</ele>
        <time>2018-05-13T15:34:45Z</time>
      </trkpt>
      <trkpt lat="45.77017" lon="7.30733">
        <ele>857</ele>
        <time>2018-05-13T15:35:45Z</time>
      </trkpt>
      <trkpt lat="45.77018" lon="7.30736">
        <ele>857</ele>
        <time>2018-05-13T15:36:45Z</time>
      </trkpt>
      <trkpt lat="45.7702" lon="7.30741">
        <ele>857</ele>
        <time>2018-05-13T15:37:45Z</time>
      </trkpt>
      <trkpt lat="45.77022" lon="7.30746">
        <ele>857</ele>
        <time>2018-05-13T15:38:45Z</time>
      </trkpt>
      <trkpt lat="45.77029" lon="7.30759">
        <ele>846</ele>
        <time>2018-05-13T15:39:45Z</time>
      </trkpt>
      <trkpt lat="45.77032" lon="7.30762">
        <ele>845</ele>
        <time>2018-05-13T15:40:45Z</time>
      </trkpt>
      <trkpt lat="45.77034" lon="7.30763">
        <ele>845</ele>
        <time>2018-05-13T15:41:45Z</time>
      </trkpt>
      <trkpt lat="45.77035" lon="7.30764">
        <ele>845</ele>
        <time>2018-05-13T15:42:45Z</time>
      </trkpt>
      <trkpt lat="45.77039" lon="7.30765">
        <ele>845</ele>
        <time>2018-05-13T15:43:45Z</time>
      </trkpt>
      <trkpt lat="45.77045" lon="7.30765">
        <ele>845</ele>
        <time>2018-05-13T15:44:45Z</time>
      </trkpt>
      <trkpt lat="45.77051" lon="7.30765">
        <ele>845</ele>
        <time>2018-05-13T15:45:45Z</time>
      </trkpt>
      <trkpt lat="45.77057" lon="7.30765">
        <ele>845</ele>
        <time>2018-05-13T15:46:45Z</time>
      </trkpt>
      <trkpt lat="45.77115" lon="7.30754">
        <ele>840</ele>
        <time>2018-05-13T15:47:45Z</time>
      </trkpt>
      <trkpt lat="45.77148" lon="7.30744">
        <ele>849</ele>
        <time>2018-05-13T15:48:45Z</time>
      </trkpt>
      <trkpt lat="45.77194" lon="7.3073">
        <ele>845</ele>
        <time>2018-05-13T15:49:45Z</time>
      </trkpt>
      <trkpt lat="45.77196" lon="7.30729">
        <ele>845</ele>
        <time>2018-05-13T15:50:45Z</time>
      </trkpt>
      <trkpt lat="45.77213" lon="7.30721">
        <ele>844</ele>
        <time>2018-05-13T15:51:45Z</time>
      </trkpt>
      <trkpt lat="45.77264" lon="7.30695">
        <ele>840</ele>
        <time>2018-05-13T15:52:45Z</time>
      </trkpt>
      <trkpt lat="45.77279" lon="7.30688">
        <ele>840</ele>
        <time>2018-05-13T15:53:45Z</time>
      </trkpt>
      <trkpt lat="45.773" lon="7.30677">
        <ele>840</ele>
        <time>2018-05-13T15:54:45Z</time>
      </trkpt>
      <trkpt lat="45.77312" lon="7.30673">
        <ele>840</ele>
        <time>2018-05-13T15:55:45Z</time>
      </trkpt>
      <trkpt lat="45.77321" lon="7.30673">
        <ele>840</ele>
        <time>2018-05-13T15:56:45Z</time>
      </trkpt>
      <trkpt lat="45.77328" lon="7.30674">
        <ele>841</ele>
        <time>2018-05-13T15:57:45Z</time>
      </trkpt>
      <trkpt lat="45.77334" lon="7.30675">
        <ele>838</ele>
        <time>2018-05-13T15:58:45Z</time>
      </trkpt>
      <trkpt lat="45.77343" lon="7.30679">
        <ele>835</ele>
        <time>2018-05-13T15:59:45Z</time>
      </trkpt>
      <trkpt lat="45.77349" lon="7.30684">
        <ele>833</ele>
        <time>2018-05-13T16:00:45Z</time>
      </trkpt>
      <trkpt lat="45.77355" lon="7.3069">
        <ele>831</ele>
        <time>2018-05-13T16:01:45Z</time>
      </trkpt>
      <trkpt lat="45.77358" lon="7.30699">
        <ele>830</ele>
        <time>2018-05-13T16:02:45Z</time>
      </trkpt>
      <trkpt lat="45.7736" lon="7.30712">
        <ele>828</ele>
        <time>2018-05-13T16:03:45Z</time>
      </trkpt>
      <trkpt lat="45.7736" lon="7.30719">
        <ele>828</ele>
        <time>2018-05-13T16:04:45Z</time>
      </trkpt>
      <trkpt lat="45.77359" lon="7.30728">
        <ele>828</ele>
        <time>2018-05-13T16:05:45Z</time>
      </trkpt>
      <trkpt lat="45.77357" lon="7.30736">
        <ele>827</ele>
        <time>2018-05-13T16:06:45Z</time>
      </trkpt>
      <trkpt lat="45.77354" lon="7.30742">
        <ele>827</ele>
        <time>2018-05-13T16:07:45Z</time>
      </trkpt>
      <trkpt lat="45.77348" lon="7.30752">
        <ele>822</ele>
        <time>2018-05-13T16:08:45Z</time>
      </trkpt>
      <trkpt lat="45.77342" lon="7.30759">
        <ele>823</ele>
        <time>2018-05-13T16:09:45Z</time>
      </trkpt>
      <trkpt lat="45.77329" lon="7.30766">
        <ele>824</ele>
        <time>2018-05-13T16:10:45Z</time>
      </trkpt>
      <trkpt lat="45.77316" lon="7.3077">
        <ele>823</ele>
        <time>2018-05-13T16:11:45Z</time>
      </trkpt>
      <trkpt lat="45.77285" lon="7.30777">
        <ele>822</ele>
        <time>2018-05-13T16:12:45Z</time>
      </trkpt>
      <trkpt lat="45.77233" lon="7.30791">
        <ele>825</ele>
        <time>2018-05-13T16:13:45Z</time>
      </trkpt>
      <trkpt lat="45.77116" lon="7.3084">
        <ele>815</ele>
        <time>2018-05-13T16:14:45Z</time>
      </trkpt>
      <trkpt lat="45.7708" lon="7.30858">
        <ele>819</ele>
        <time>2018-05-13T16:15:45Z</time>
      </trkpt>
      <trkpt lat="45.76974" lon="7.30926">
        <ele>802</ele>
        <time>2018-05-13T16:16:45Z</time>
      </trkpt>
      <trkpt lat="45.76901" lon="7.30975">
        <ele>805</ele>
        <time>2018-05-13T16:17:45Z</time>
      </trkpt>
      <trkpt lat="45.7689" lon="7.30985">
        <ele>805</ele>
        <time>2018-05-13T16:18:45Z</time>
      </trkpt>
      <trkpt lat="45.76848" lon="7.31015">
        <ele>796</ele>
        <time>2018-05-13T16:19:45Z</time>
      </trkpt>
      <trkpt lat="45.76743" lon="7.31081">
        <ele>795</ele>
        <time>2018-05-13T16:20:45Z</time>
      </trkpt>
      <trkpt lat="45.76709" lon="7.31104">
        <ele>790</ele>
        <time>2018-05-13T16:21:45Z</time>
      </trkpt>
      <trkpt lat="45.76701" lon="7.31109">
        <ele>790</ele>
        <time>2018-05-13T16:22:45Z</time>
      </trkpt>
      <trkpt lat="45.76686" lon="7.31118">
        <ele>790</ele>
        <time>2018-05-13T16:23:45Z</time>
      </trkpt>
      <trkpt lat="45.76648" lon="7.31142">
        <ele>792</ele>
        <time>2018-05-13T16:24:45Z</time>
      </trkpt>
      <trkpt lat="45.7662" lon="7.31157">
        <ele>792</ele>
        <time>2018-05-13T16:25:45Z</time>
      </trkpt>
      <trkpt lat="45.76574" lon="7.31177">
        <ele>785</ele>
        <time>2018-05-13T16:26:45Z</time>
      </trkpt>
      <trkpt lat="45.76566" lon="7.31179">
        <ele>784</ele>
        <time>2018-05-13T16:27:45Z</time>
      </trkpt>
      <trkpt lat="45.76559" lon="7.31181">
        <ele>784</ele>
        <time>2018-05-13T16:28:45Z</time>
      </trkpt>
      <trkpt lat="45.76528" lon="7.31187">
        <ele>784</ele>
        <time>2018-05-13T16:29:45Z</time>
      </trkpt>
      <trkpt lat="45.76497" lon="7.31192">
        <ele>786</ele>
        <time>2018-05-13T16:30:45Z</time>
      </trkpt>
      <trkpt lat="45.76481" lon="7.31196">
        <ele>785</ele>
        <time>2018-05-13T16:31:45Z</time>
      </trkpt>
      <trkpt lat="45.76481" lon="7.31196">
        <ele>785</ele>
        <time>2018-05-13T16:32:45Z</time>
      </trkpt>
      <trkpt lat="45.76477" lon="7.31194">
        <ele>786</ele>
        <time>2018-05-13T16:33:45Z</time>
      </trkpt>
      <trkpt lat="45.7647" lon="7.31194">
        <ele>786</ele>
        <time>2018-05-13T16:34:45Z</time>
      </trkpt>
      <trkpt lat="45.76462" lon="7.31195">
        <ele>786</ele>
        <time>2018-05-13T16:35:45Z</time>
      </trkpt>
      <trkpt lat="45.76458" lon="7.31196">
        <ele>786</ele>
        <time>2018-05-13T16:36:45Z</time>
      </trkpt>
      <trkpt lat="45.76458" lon="7.31196">
        <ele>786</ele>
        <time>2018-05-13T16:37:45Z</time>
      </trkpt>
      <trkpt lat="45.76443" lon="7.31208">
        <ele>785</ele>
        <time>2018-05-13T16:38:45Z</time>
      </trkpt>
      <trkpt lat="45.76435" lon="7.31213">
        <ele>785</ele>
        <time>2018-05-13T16:39:45Z</time>
      </trkpt>
      <trkpt lat="45.76435" lon="7.31214">
        <ele>785</ele>
        <time>2018-05-13T16:40:45Z</time>
      </trkpt>
      <trkpt lat="45.76428" lon="7.3122">
        <ele>784</ele>
        <time>2018-05-13T16:41:45Z</time>
      </trkpt>
      <trkpt lat="45.76377" lon="7.31268">
        <ele>778</ele>
        <time>2018-05-13T16:42:45Z</time>
      </trkpt>
      <trkpt lat="45.76341" lon="7.31303">
        <ele>776</ele>
        <time>2018-05-13T16:43:45Z</time>
      </trkpt>
      <trkpt lat="45.76313" lon="7.31321">
        <ele>785</ele>
        <time>2018-05-13T16:44:45Z</time>
      </trkpt>
      <trkpt lat="45.76303" lon="7.3133">
        <ele>786</ele>
        <time>2018-05-13T16:45:45Z</time>
      </trkpt>
      <trkpt lat="45.76287" lon="7.31343">
        <ele>775</ele>
        <time>2018-05-13T16:46:45Z</time>
      </trkpt>
      <trkpt lat="45.76269" lon="7.31362">
        <ele>776</ele>
        <time>2018-05-13T16:47:45Z</time>
      </trkpt>
      <trkpt lat="45.7626" lon="7.31378">
        <ele>773</ele>
        <time>2018-05-13T16:48:45Z</time>
      </trkpt>
      <trkpt lat="45.76256" lon="7.31388">
        <ele>772</ele>
        <time>2018-05-13T16:49:45Z</time>
      </trkpt>
      <trkpt lat="45.76252" lon="7.31396">
        <ele>771</ele>
        <time>2018-05-13T16:50:45Z</time>
      </trkpt>
      <trkpt lat="45.76246" lon="7.31404">
        <ele>773</ele>
        <time>2018-05-13T16:51:45Z</time>
      </trkpt>
      <trkpt lat="45.76238" lon="7.31413">
        <ele>772</ele>
        <time>2018-05-13T16:52:45Z</time>
      </trkpt>
      <trkpt lat="45.76224" lon="7.31427">
        <ele>764</ele>
        <time>2018-05-13T16:53:45Z</time>
      </trkpt>
      <trkpt lat="45.76218" lon="7.31433">
        <ele>764</ele>
        <time>2018-05-13T16:54:45Z</time>
      </trkpt>
      <trkpt lat="45.76203" lon="7.31444">
        <ele>764</ele>
        <time>2018-05-13T16:55:45Z</time>
      </trkpt>
      <trkpt lat="45.76189" lon="7.31452">
        <ele>763</ele>
        <time>2018-05-13T16:56:45Z</time>
      </trkpt>
      <trkpt lat="45.76165" lon="7.31462">
        <ele>762</ele>
        <time>2018-05-13T16:57:45Z</time>
      </trkpt>
      <trkpt lat="45.7614" lon="7.31473">
        <ele>761</ele>
        <time>2018-05-13T16:58:45Z</time>
      </trkpt>
      <trkpt lat="45.76093" lon="7.31487">
        <ele>758</ele>
        <time>2018-05-13T16:59:45Z</time>
      </trkpt>
      <trkpt lat="45.76053" lon="7.31496">
        <ele>756</ele>
        <time>2018-05-13T17:00:45Z</time>
      </trkpt>
      <trkpt lat="45.76016" lon="7.31505">
        <ele>748</ele>
        <time>2018-05-13T17:01:45Z</time>
      </trkpt>
      <trkpt lat="45.75997" lon="7.31512">
        <ele>747</ele>
        <time>2018-05-13T17:02:45Z</time>
      </trkpt>
      <trkpt lat="45.75989" lon="7.31515">
        <ele>747</ele>
        <time>2018-05-13T17:03:45Z</time>
      </trkpt>
      <trkpt lat="45.75984" lon="7.31518">
        <ele>746</ele>
        <time>2018-05-13T17:04:45Z</time>
      </trkpt>
      <trkpt lat="45.75982" lon="7.31523">
        <ele>746</ele>
        <time>2018-05-13T17:05:45Z</time>
      </trkpt>
      <trkpt lat="45.75916" lon="7.31543">
        <ele>744</ele>
        <time>2018-05-13T17:06:45Z</time>
      </trkpt>
      <trkpt lat="45.75862" lon="7.31563">
        <ele>742</ele>
        <time>2018-05-13T17:07:45Z</time>
      </trkpt>
      <trkpt lat="45.75827" lon="7.31582">
        <ele>739</ele>
        <time>2018-05-13T17:08:45Z</time>
      </trkpt>
      <trkpt lat="45.75792" lon="7.31606">
        <ele>736</ele>
        <time>2018-05-13T17:09:45Z</time>
      </trkpt>
      <trkpt lat="45.7573" lon="7.31645">
        <ele>734</ele>
        <time>2018-05-13T17:10:45Z</time>
      </trkpt>
      <trkpt lat="45.75723" lon="7.3165">
        <ele>733</ele>
        <time>2018-05-13T17:11:45Z</time>
      </trkpt>
      <trkpt lat="45.75678" lon="7.31678">
        <ele>727</ele>
        <time>2018-05-13T17:12:45Z</time>
      </trkpt>
      <trkpt lat="45.75651" lon="7.31692">
        <ele>724</ele>
        <time>2018-05-13T17:13:45Z</time>
      </trkpt>
      <trkpt lat="45.75622" lon="7.31699">
        <ele>723</ele>
        <time>2018-05-13T17:14:45Z</time>
      </trkpt>
      <trkpt lat="45.7558" lon="7.31709">
        <ele>720</ele>
        <time>2018-05-13T17:15:45Z</time>
      </trkpt>
      <trkpt lat="45.75559" lon="7.31714">
        <ele>720</ele>
        <time>2018-05-13T17:16:45Z</time>
      </trkpt>
      <trkpt lat="45.75548" lon="7.31717">
        <ele>720</ele>
        <time>2018-05-13T17:17:45Z</time>
      </trkpt>
      <trkpt lat="45.75479" lon="7.31725">
        <ele>720</ele>
        <time>2018-05-13T17:18:45Z</time>
      </trkpt>
      <trkpt lat="45.7547" lon="7.31726">
        <ele>720</ele>
        <time>2018-05-13T17:19:45Z</time>
      </trkpt>
      <trkpt lat="45.75464" lon="7.31727">
        <ele>720</ele>
        <time>2018-05-13T17:20:45Z</time>
      </trkpt>
      <trkpt lat="45.7545" lon="7.31729">
        <ele>720</ele>
        <time>2018-05-13T17:21:45Z</time>
      </trkpt>
      <trkpt lat="45.75448" lon="7.31729">
        <ele>720</ele>
        <time>2018-05-13T17:22:45Z</time>
      </trkpt>
      <trkpt lat="45.75433" lon="7.31736">
        <ele>719</ele>
        <time>2018-05-13T17:23:45Z</time>
      </trkpt>
      <trkpt lat="45.75427" lon="7.3174">
        <ele>718</ele>
        <time>2018-05-13T17:24:45Z</time>
      </trkpt>
      <trkpt lat="45.75411" lon="7.31755">
        <ele>714</ele>
        <time>2018-05-13T17:25:45Z</time>
      </trkpt>
      <trkpt lat="45.75405" lon="7.31762">
        <ele>712</ele>
        <time>2018-05-13T17:26:45Z</time>
      </trkpt>
      <trkpt lat="45.75396" lon="7.31769">
        <ele>711</ele>
        <time>2018-05-13T17:27:45Z</time>
      </trkpt>
      <trkpt lat="45.75393" lon="7.3177">
        <ele>710</ele>
        <time>2018-05-13T17:28:45Z</time>
      </trkpt>
      <trkpt lat="45.75388" lon="7.31771">
        <ele>710</ele>
        <time>2018-05-13T17:29:45Z</time>
      </trkpt>
      <trkpt lat="45.75381" lon="7.31771">
        <ele>710</ele>
        <time>2018-05-13T17:30:45Z</time>
      </trkpt>
      <trkpt lat="45.75375" lon="7.3177">
        <ele>710</ele>
        <time>2018-05-13T17:31:45Z</time>
      </trkpt>
      <trkpt lat="45.75371" lon="7.31768">
        <ele>710</ele>
        <time>2018-05-13T17:32:45Z</time>
      </trkpt>
      <trkpt lat="45.75365" lon="7.31765">
        <ele>711</ele>
        <time>2018-05-13T17:33:45Z</time>
      </trkpt>
      <trkpt lat="45.75358" lon="7.31759">
        <ele>712</ele>
        <time>2018-05-13T17:34:45Z</time>
      </trkpt>
      <trkpt lat="45.75348" lon="7.31755">
        <ele>714</ele>
        <time>2018-05-13T17:35:45Z</time>
      </trkpt>
      <trkpt lat="45.75344" lon="7.31753">
        <ele>714</ele>
        <time>2018-05-13T17:36:45Z</time>
      </trkpt>
      <trkpt lat="45.75342" lon="7.31753">
        <ele>715</ele>
        <time>2018-05-13T17:37:45Z</time>
      </trkpt>
      <trkpt lat="45.75336" lon="7.31754">
        <ele>716</ele>
        <time>2018-05-13T17:38:45Z</time>
      </trkpt>
      <trkpt lat="45.75325" lon="7.31759">
        <ele>714</ele>
        <time>2018-05-13T17:39:45Z</time>
      </trkpt>
      <trkpt lat="45.75312" lon="7.31765">
        <ele>712</ele>
        <time>2018-05-13T17:40:45Z</time>
      </trkpt>
      <trkpt lat="45.753" lon="7.31771">
        <ele>710</ele>
        <time>2018-05-13T17:41:45Z</time>
      </trkpt>
      <trkpt lat="45.75288" lon="7.31777">
        <ele>710</ele>
        <time>2018-05-13T17:42:45Z</time>
      </trkpt>
      <trkpt lat="45.75275" lon="7.31779">
        <ele>710</ele>
        <time>2018-05-13T17:43:45Z</time>
      </trkpt>
      <trkpt lat="45.75252" lon="7.31778">
        <ele>710</ele>
        <time>2018-05-13T17:44:45Z</time>
      </trkpt>
      <trkpt lat="45.75227" lon="7.31774">
        <ele>710</ele>
        <time>2018-05-13T17:45:45Z</time>
      </trkpt>
      <trkpt lat="45.75209" lon="7.31773">
        <ele>709</ele>
        <time>2018-05-13T17:46:45Z</time>
      </trkpt>
      <trkpt lat="45.752" lon="7.31773">
        <ele>709</ele>
        <time>2018-05-13T17:47:45Z</time>
      </trkpt>
      <trkpt lat="45.75194" lon="7.31775">
        <ele>709</ele>
        <time>2018-05-13T17:48:45Z</time>
      </trkpt>
      <trkpt lat="45.75185" lon="7.31778">
        <ele>709</ele>
        <time>2018-05-13T17:49:45Z</time>
      </trkpt>
      <trkpt lat="45.75178" lon="7.31781">
        <ele>709</ele>
        <time>2018-05-13T17:50:45Z</time>
      </trkpt>
      <trkpt lat="45.75163" lon="7.31794">
        <ele>705</ele>
        <time>2018-05-13T17:51:45Z</time>
      </trkpt>
      <trkpt lat="45.75139" lon="7.3182">
        <ele>703</ele>
        <time>2018-05-13T17:52:45Z</time>
      </trkpt>
      <trkpt lat="45.75126" lon="7.3183">
        <ele>702</ele>
        <time>2018-05-13T17:53:45Z</time>
      </trkpt>
      <trkpt lat="45.75114" lon="7.31833">
        <ele>702</ele>
        <time>2018-05-13T17:54:45Z</time>
      </trkpt>
      <trkpt lat="45.75109" lon="7.31834">
        <ele>695</ele>
        <time>2018-05-13T17:55:45Z</time>
      </trkpt>
      <trkpt lat="45.75104" lon="7.31834">
        <ele>695</ele>
        <time>2018-05-13T17:56:45Z</time>
      </trkpt>
      <trkpt lat="45.75089" lon="7.31836">
        <ele>696</ele>
        <time>2018-05-13T17:57:45Z</time>
      </trkpt>
      <trkpt lat="45.75077" lon="7.31837">
        <ele>695</ele>
        <time>2018-05-13T17:58:45Z</time>
      </trkpt>
      <trkpt lat="45.75061" lon="7.3184">
        <ele>694</ele>
        <time>2018-05-13T17:59:45Z</time>
      </trkpt>
      <trkpt lat="45.75061" lon="7.3184">
        <ele>694</ele>
        <time>2018-05-13T18:00:45Z</time>
      </trkpt>
      <trkpt lat="45.75058" lon="7.31841">
        <ele>694</ele>
        <time>2018-05-13T18:01:45Z</time>
      </trkpt>
      <trkpt lat="45.75044" lon="7.31841">
        <ele>694</ele>
        <time>2018-05-13T18:02:45Z</time>
      </trkpt>
      <trkpt lat="45.7504" lon="7.31842">
        <ele>694</ele>
        <time>2018-05-13T18:03:45Z</time>
      </trkpt>
      <trkpt lat="45.75035" lon="7.31842">
        <ele>694</ele>
        <time>2018-05-13T18:04:45Z</time>
      </trkpt>
      <trkpt lat="45.75032" lon="7.31843">
        <ele>694</ele>
        <time>2018-05-13T18:05:45Z</time>
      </trkpt>
      <trkpt lat="45.75029" lon="7.31845">
        <ele>694</ele>
        <time>2018-05-13T18:06:45Z</time>
      </trkpt>
      <trkpt lat="45.75023" lon="7.31851">
        <ele>694</ele>
        <time>2018-05-13T18:07:45Z</time>
      </trkpt>
      <trkpt lat="45.75015" lon="7.3186">
        <ele>694</ele>
        <time>2018-05-13T18:08:45Z</time>
      </trkpt>
      <trkpt lat="45.75012" lon="7.31864">
        <ele>694</ele>
        <time>2018-05-13T18:09:45Z</time>
      </trkpt>
      <trkpt lat="45.75002" lon="7.31878">
        <ele>693</ele>
        <time>2018-05-13T18:10:45Z</time>
      </trkpt>
      <trkpt lat="45.74987" lon="7.31898">
        <ele>693</ele>
        <time>2018-05-13T18:11:45Z</time>
      </trkpt>
      <trkpt lat="45.74942" lon="7.31915">
        <ele>693</ele>
        <time>2018-05-13T18:12:45Z</time>
      </trkpt>
      <trkpt lat="45.74931" lon="7.3192">
        <ele>690</ele>
        <time>2018-05-13T18:13:45Z</time>
      </trkpt>
      <trkpt lat="45.74919" lon="7.31925">
        <ele>691</ele>
        <time>2018-05-13T18:14:45Z</time>
      </trkpt>
      <trkpt lat="45.74909" lon="7.31929">
        <ele>688</ele>
        <time>2018-05-13T18:15:45Z</time>
      </trkpt>
      <trkpt lat="45.74899" lon="7.31933">
        <ele>686</ele>
        <time>2018-05-13T18:16:45Z</time>
      </trkpt>
      <trkpt lat="45.74894" lon="7.31934">
        <ele>685</ele>
        <time>2018-05-13T18:17:45Z</time>
      </trkpt>
      <trkpt lat="45.7489" lon="7.31934">
        <ele>684</ele>
        <time>2018-05-13T18:18:45Z</time>
      </trkpt>
      <trkpt lat="45.74888" lon="7.31935">
        <ele>684</ele>
        <time>2018-05-13T18:19:45Z</time>
      </trkpt>
      <trkpt lat="45.74885" lon="7.31934">
        <ele>684</ele>
        <time>2018-05-13T18:20:45Z</time>
      </trkpt>
      <trkpt lat="45.74881" lon="7.31934">
        <ele>683</ele>
        <time>2018-05-13T18:21:45Z</time>
      </trkpt>
      <trkpt lat="45.74878" lon="7.31933">
        <ele>683</ele>
        <time>2018-05-13T18:22:45Z</time>
      </trkpt>
      <trkpt lat="45.74873" lon="7.31931">
        <ele>683</ele>
        <time>2018-05-13T18:23:45Z</time>
      </trkpt>
      <trkpt lat="45.74871" lon="7.31929">
        <ele>683</ele>
        <time>2018-05-13T18:24:45Z</time>
      </trkpt>
      <trkpt lat="45.74866" lon="7.31925">
        <ele>682</ele>
        <time>2018-05-13T18:25:45Z</time>
      </trkpt>
      <trkpt lat="45.74853" lon="7.31911">
        <ele>684</ele>
        <time>2018-05-13T18:26:45Z</time>
      </trkpt>
      <trkpt lat="45.74845" lon="7.319">
        <ele>684</ele>
        <time>2018-05-13T18:27:45Z</time>
      </trkpt>
      <trkpt lat="45.74832" lon="7.31878">
        <ele>678</ele>
        <time>2018-05-13T18:28:45Z</time>
      </trkpt>
      <trkpt lat="45.74825" lon="7.31865">
        <ele>678</ele>
        <time>2018-05-13T18:29:45Z</time>
      </trkpt>
      <trkpt lat="45.74797" lon="7.31814">
        <ele>680</ele>
        <time>2018-05-13T18:30:45Z</time>
      </trkpt>
      <trkpt lat="45.74786" lon="7.31796">
        <ele>680</ele>
        <time>2018-05-13T18:31:45Z</time>
      </trkpt>
      <trkpt lat="45.74758" lon="7.31741">
        <ele>679</ele>
        <time>2018-05-13T18:32:45Z</time>
      </trkpt>
      <trkpt lat="45.74747" lon="7.31722">
        <ele>672</ele>
        <time>2018-05-13T18:33:45Z</time>
      </trkpt>
      <trkpt lat="45.74736" lon="7.31704">
        <ele>672</ele>
        <time>2018-05-13T18:34:45Z</time>
      </trkpt>
      <trkpt lat="45.74727" lon="7.3169">
        <ele>672</ele>
        <time>2018-05-13T18:35:45Z</time>
      </trkpt>
      <trkpt lat="45.74724" lon="7.31687">
        <ele>671</ele>
        <time>2018-05-13T18:36:45Z</time>
      </trkpt>
      <trkpt lat="45.74718" lon="7.31684">
        <ele>671</ele>
        <time>2018-05-13T18:37:45Z</time>
      </trkpt>
      <trkpt lat="45.74716" lon="7.31683">
        <ele>671</ele>
        <time>2018-05-13T18:38:45Z</time>
      </trkpt>
      <trkpt lat="45.74711" lon="7.31683">
        <ele>670</ele>
        <time>2018-05-13T18:39:45Z</time>
      </trkpt>
      <trkpt lat="45.74706" lon="7.31685">
        <ele>669</ele>
        <time>2018-05-13T18:40:45Z</time>
      </trkpt>
      <trkpt lat="45.74704" lon="7.31686">
        <ele>669</ele>
        <time>2018-05-13T18:41:45Z</time>
      </trkpt>
      <trkpt lat="45.74702" lon="7.31688">
        <ele>669</ele>
        <time>2018-05-13T18:42:45Z</time>
      </trkpt>
      <trkpt lat="45.747" lon="7.31691">
        <ele>669</ele>
        <time>2018-05-13T18:43:45Z</time>
      </trkpt>
      <trkpt lat="45.74699" lon="7.31695">
        <ele>669</ele>
        <time>2018-05-13T18:44:45Z</time>
      </trkpt>
      <trkpt lat="45.74698" lon="7.317">
        <ele>669</ele>
        <time>2018-05-13T18:45:45Z</time>
      </trkpt>
      <trkpt lat="45.74698" lon="7.31709">
        <ele>669</ele>
        <time>2018-05-13T18:46:45Z</time>
      </trkpt>
      <trkpt lat="45.74701" lon="7.31724">
        <ele>669</ele>
        <time>2018-05-13T18:47:45Z</time>
      </trkpt>
      <trkpt lat="45.74704" lon="7.31737">
        <ele>669</ele>
        <time>2018-05-13T18:48:45Z</time>
      </trkpt>
      <trkpt lat="45.74714" lon="7.31777">
        <ele>668</ele>
        <time>2018-05-13T18:49:45Z</time>
      </trkpt>
      <trkpt lat="45.74717" lon="7.31788">
        <ele>668</ele>
        <time>2018-05-13T18:50:45Z</time>
      </trkpt>
      <trkpt lat="45.74717" lon="7.31796">
        <ele>668</ele>
        <time>2018-05-13T18:51:45Z</time>
      </trkpt>
      <trkpt lat="45.74717" lon="7.31807">
        <ele>667</ele>
        <time>2018-05-13T18:52:45Z</time>
      </trkpt>
      <trkpt lat="45.74715" lon="7.31817">
        <ele>667</ele>
        <time>2018-05-13T18:53:45Z</time>
      </trkpt>
      <trkpt lat="45.74712" lon="7.3183">
        <ele>667</ele>
        <time>2018-05-13T18:54:45Z</time>
      </trkpt>
      <trkpt lat="45.74707" lon="7.31844">
        <ele>664</ele>
        <time>2018-05-13T18:55:45Z</time>
      </trkpt>
      <trkpt lat="45.74704" lon="7.3185">
        <ele>663</ele>
        <time>2018-05-13T18:56:45Z</time>
      </trkpt>
      <trkpt lat="45.74702" lon="7.31854">
        <ele>663</ele>
        <time>2018-05-13T18:57:45Z</time>
      </trkpt>
      <trkpt lat="45.74698" lon="7.31864">
        <ele>663</ele>
        <time>2018-05-13T18:58:45Z</time>
      </trkpt>
      <trkpt lat="45.74697" lon="7.3187">
        <ele>662</ele>
        <time>2018-05-13T18:59:45Z</time>
      </trkpt>
      <trkpt lat="45.74696" lon="7.31878">
        <ele>662</ele>
        <time>2018-05-13T19:00:45Z</time>
      </trkpt>
      <trkpt lat="45.74696" lon="7.31879">
        <ele>662</ele>
        <time>2018-05-13T19:01:45Z</time>
      </trkpt>
      <trkpt lat="45.74694" lon="7.31888">
        <ele>662</ele>
        <time>2018-05-13T19:02:45Z</time>
      </trkpt>
      <trkpt lat="45.74694" lon="7.31895">
        <ele>662</ele>
        <time>2018-05-13T19:03:45Z</time>
      </trkpt>
      <trkpt lat="45.74695" lon="7.31899">
        <ele>661</ele>
        <time>2018-05-13T19:04:45Z</time>
      </trkpt>
      <trkpt lat="45.74696" lon="7.31903">
        <ele>661</ele>
        <time>2018-05-13T19:05:45Z</time>
      </trkpt>
      <trkpt lat="45.74697" lon="7.3191">
        <ele>661</ele>
        <time>2018-05-13T19:06:45Z</time>
      </trkpt>
      <trkpt lat="45.74702" lon="7.31926">
        <ele>659</ele>
        <time>2018-05-13T19:07:45Z</time>
      </trkpt>
      <trkpt lat="45.74711" lon="7.31959">
        <ele>659</ele>
        <time>2018-05-13T19:08:45Z</time>
      </trkpt>
      <trkpt lat="45.74716" lon="7.31976">
        <ele>658</ele>
        <time>2018-05-13T19:09:45Z</time>
      </trkpt>
      <trkpt lat="45.74717" lon="7.31985">
        <ele>658</ele>
        <time>2018-05-13T19:10:45Z</time>
      </trkpt>
      <trkpt lat="45.74718" lon="7.31993">
        <ele>658</ele>
        <time>2018-05-13T19:11:45Z</time>
      </trkpt>
      <trkpt lat="45.74718" lon="7.31998">
        <ele>658</ele>
        <time>2018-05-13T19:12:45Z</time>
      </trkpt>
      <trkpt lat="45.74718" lon="7.32001">
        <ele>657</ele>
        <time>2018-05-13T19:13:45Z</time>
      </trkpt>
      <trkpt lat="45.74718" lon="7.32017">
        <ele>657</ele>
        <time>2018-05-13T19:14:45Z</time>
      </trkpt>
      <trkpt lat="45.74713" lon="7.3207">
        <ele>657</ele>
        <time>2018-05-13T19:15:45Z</time>
      </trkpt>
      <trkpt lat="45.74712" lon="7.32091">
        <ele>652</ele>
        <time>2018-05-13T19:16:45Z</time>
      </trkpt>
      <trkpt lat="45.7471" lon="7.32106">
        <ele>651</ele>
        <time>2018-05-13T19:17:45Z</time>
      </trkpt>
      <trkpt lat="45.74709" lon="7.32115">
        <ele>650</ele>
        <time>2018-05-13T19:18:45Z</time>
      </trkpt>
      <trkpt lat="45.74707" lon="7.32121">
        <ele>650</ele>
        <time>2018-05-13T19:19:45Z</time>
      </trkpt>
      <trkpt lat="45.74705" lon="7.32125">
        <ele>649</ele>
        <time>2018-05-13T19:20:45Z</time>
      </trkpt>
      <trkpt lat="45.74701" lon="7.32131">
        <ele>648</ele>
        <time>2018-05-13T19:21:45Z</time>
      </trkpt>
      <trkpt lat="45.74695" lon="7.32137">
        <ele>648</ele>
        <time>2018-05-13T19:22:45Z</time>
      </trkpt>
      <trkpt lat="45.74682" lon="7.32144">
        <ele>646</ele>
        <time>2018-05-13T19:23:45Z</time>
      </trkpt>
      <trkpt lat="45.74648" lon="7.32155">
        <ele>643</ele>
        <time>2018-05-13T19:24:45Z</time>
      </trkpt>
      <trkpt lat="45.74642" lon="7.32156">
        <ele>644</ele>
        <time>2018-05-13T19:25:45Z</time>
      </trkpt>
      <trkpt lat="45.74631" lon="7.32163">
        <ele>644</ele>
        <time>2018-05-13T19:26:45Z</time>
      </trkpt>
      <trkpt lat="45.74627" lon="7.32167">
        <ele>634</ele>
        <time>2018-05-13T19:27:45Z</time>
      </trkpt>
      <trkpt lat="45.74618" lon="7.32176">
        <ele>633</ele>
        <time>2018-05-13T19:28:45Z</time>
      </trkpt>
      <trkpt lat="45.74608" lon="7.32187">
        <ele>633</ele>
        <time>2018-05-13T19:29:45Z</time>
      </trkpt>
      <trkpt lat="45.74599" lon="7.32194">
        <ele>632</ele>
        <time>2018-05-13T19:30:45Z</time>
      </trkpt>
      <trkpt lat="45.74586" lon="7.32203">
        <ele>631</ele>
        <time>2018-05-13T19:31:45Z</time>
      </trkpt>
      <trkpt lat="45.74567" lon="7.3222">
        <ele>628</ele>
        <time>2018-05-13T19:32:45Z</time>
      </trkpt>
      <trkpt lat="45.74534" lon="7.32234">
        <ele>627</ele>
        <time>2018-05-13T19:33:45Z</time>
      </trkpt>
      <trkpt lat="45.74528" lon="7.32236">
        <ele>627</ele>
        <time>2018-05-13T19:34:45Z</time>
      </trkpt>
      <trkpt lat="45.74513" lon="7.32237">
        <ele>626</ele>
        <time>2018-05-13T19:35:45Z</time>
      </trkpt>
      <trkpt lat="45.74494" lon="7.32233">
        <ele>619</ele>
        <time>2018-05-13T19:36:45Z</time>
      </trkpt>
      <trkpt lat="45.74483" lon="7.32229">
        <ele>618</ele>
        <time>2018-05-13T19:37:45Z</time>
      </trkpt>
      <trkpt lat="45.74478" lon="7.32225">
        <ele>618</ele>
        <time>2018-05-13T19:38:45Z</time>
      </trkpt>
      <trkpt lat="45.74475" lon="7.3222">
        <ele>618</ele>
        <time>2018-05-13T19:39:45Z</time>
      </trkpt>
      <trkpt lat="45.74472" lon="7.32212">
        <ele>618</ele>
        <time>2018-05-13T19:40:45Z</time>
      </trkpt>
      <trkpt lat="45.74471" lon="7.32203">
        <ele>619</ele>
        <time>2018-05-13T19:41:45Z</time>
      </trkpt>
      <trkpt lat="45.7447" lon="7.32176">
        <ele>621</ele>
        <time>2018-05-13T19:42:45Z</time>
      </trkpt>
      <trkpt lat="45.74471" lon="7.32117">
        <ele>624</ele>
        <time>2018-05-13T19:43:45Z</time>
      </trkpt>
      <trkpt lat="45.74471" lon="7.32106">
        <ele>624</ele>
        <time>2018-05-13T19:44:45Z</time>
      </trkpt>
      <trkpt lat="45.74473" lon="7.31992">
        <ele>626</ele>
        <time>2018-05-13T19:45:45Z</time>
      </trkpt>
      <trkpt lat="45.74473" lon="7.31961">
        <ele>625</ele>
        <time>2018-05-13T19:46:45Z</time>
      </trkpt>
      <trkpt lat="45.74469" lon="7.3193">
        <ele>625</ele>
        <time>2018-05-13T19:47:45Z</time>
      </trkpt>
      <trkpt lat="45.74469" lon="7.31926">
        <ele>625</ele>
        <time>2018-05-13T19:48:45Z</time>
      </trkpt>
      <trkpt lat="45.74451" lon="7.31849">
        <ele>622</ele>
        <time>2018-05-13T19:49:45Z</time>
      </trkpt>
      <trkpt lat="45.74444" lon="7.31807">
        <ele>622</ele>
        <time>2018-05-13T19:50:45Z</time>
      </trkpt>
      <trkpt lat="45.7444" lon="7.31786">
        <ele>623</ele>
        <time>2018-05-13T19:51:45Z</time>
      </trkpt>
      <trkpt lat="45.74435" lon="7.3177">
        <ele>622</ele>
        <time>2018-05-13T19:52:45Z</time>
      </trkpt>
      <trkpt lat="45.74427" lon="7.31751">
        <ele>620</ele>
        <time>2018-05-13T19:53:45Z</time>
      </trkpt>
      <trkpt lat="45.74424" lon="7.31747">
        <ele>620</ele>
        <time>2018-05-13T19:54:45Z</time>
      </trkpt>
      <trkpt lat="45.74416" lon="7.31734">
        <ele>615</ele>
        <time>2018-05-13T19:55:45Z</time>
      </trkpt>
      <trkpt lat="45.74387" lon="7.31691">
        <ele>612</ele>
        <time>2018-05-13T19:56:45Z</time>
      </trkpt>
      <trkpt lat="45.74362" lon="7.31645">
        <ele>612</ele>
        <time>2018-05-13T19:57:45Z</time>
      </trkpt>
      <trkpt lat="45.7436" lon="7.31642">
        <ele>612</ele>
        <time>2018-05-13T19:58:45Z</time>
      </trkpt>
      <trkpt lat="45.74356" lon="7.31633">
        <ele>612</ele>
        <time>2018-05-13T19:59:45Z</time>
      </trkpt>
      <trkpt lat="45.74349" lon="7.31621">
        <ele>612</ele>
        <time>2018-05-13T20:00:45Z</time>
      </trkpt>
      <trkpt lat="45.74344" lon="7.31615">
        <ele>612</ele>
        <time>2018-05-13T20:01:45Z</time>
      </trkpt>
      <trkpt lat="45.74338" lon="7.31611">
        <ele>612</ele>
        <time>2018-05-13T20:02:45Z</time>
      </trkpt>
      <trkpt lat="45.7433" lon="7.31608">
        <ele>606</ele>
        <time>2018-05-13T20:03:45Z</time>
      </trkpt>
      <trkpt lat="45.74297" lon="7.31601">
        <ele>605</ele>
        <time>2018-05-13T20:04:45Z</time>
      </trkpt>
      <trkpt lat="45.74287" lon="7.31597">
        <ele>604</ele>
        <time>2018-05-13T20:05:45Z</time>
      </trkpt>
      <trkpt lat="45.74281" lon="7.31592">
        <ele>604</ele>
        <time>2018-05-13T20:06:45Z</time>
      </trkpt>
      <trkpt lat="45.74275" lon="7.31584">
        <ele>604</ele>
        <time>2018-05-13T20:07:45Z</time>
      </trkpt>
      <trkpt lat="45.7427" lon="7.31571">
        <ele>605</ele>
        <time>2018-05-13T20:08:45Z</time>
      </trkpt>
      <trkpt lat="45.74265" lon="7.31557">
        <ele>605</ele>
        <time>2018-05-13T20:09:45Z</time>
      </trkpt>
      <trkpt lat="45.74255" lon="7.31525">
        <ele>605</ele>
        <time>2018-05-13T20:10:45Z</time>
      </trkpt>
      <trkpt lat="45.74246" lon="7.31504">
        <ele>602</ele>
        <time>2018-05-13T20:11:45Z</time>
      </trkpt>
      <trkpt lat="45.74237" lon="7.3149">
        <ele>601</ele>
        <time>2018-05-13T20:12:45Z</time>
      </trkpt>
      <trkpt lat="45.74191" lon="7.31441">
        <ele>598</ele>
        <time>2018-05-13T20:13:45Z</time>
      </trkpt>
      <trkpt lat="45.74187" lon="7.31433">
        <ele>598</ele>
        <time>2018-05-13T20:14:45Z</time>
      </trkpt>
      <trkpt lat="45.74179" lon="7.31427">
        <ele>597</ele>
        <time>2018-05-13T20:15:45Z</time>
      </trkpt>
      <trkpt lat="45.74175" lon="7.31425">
        <ele>597</ele>
        <time>2018-05-13T20:16:45Z</time>
      </trkpt>
      <trkpt lat="45.74172" lon="7.31424">
        <ele>596</ele>
        <time>2018-05-13T20:17:45Z</time>
      </trkpt>
      <trkpt lat="45.74165" lon="7.31424">
        <ele>594</ele>
        <time>2018-05-13T20:18:45Z</time>
      </trkpt>
      <trkpt lat="45.74165" lon="7.31424">
        <ele>594</ele>
        <time>2018-05-13T20:19:45Z</time>
      </trkpt>
      <trkpt lat="45.74165" lon="7.31423">
        <ele>594</ele>
        <time>2018-05-13T20:20:45Z</time>
      </trkpt>
      <trkpt lat="45.74165" lon="7.31422">
        <ele>594</ele>
        <time>2018-05-13T20:21:45Z</time>
      </trkpt>
      <trkpt lat="45.74164" lon="7.31421">
        <ele>594</ele>
        <time>2018-05-13T20:22:45Z</time>
      </trkpt>
      <trkpt lat="45.74164" lon="7.3142">
        <ele>594</ele>
        <time>2018-05-13T20:23:45Z</time>
      </trkpt>
      <trkpt lat="45.74164" lon="7.31419">
        <ele>595</ele>
        <time>2018-05-13T20:24:45Z</time>
      </trkpt>
      <trkpt lat="45.74164" lon="7.31418">
        <ele>595</ele>
        <time>2018-05-13T20:25:45Z</time>
      </trkpt>
      <trkpt lat="45.74164" lon="7.31417">
        <ele>595</ele>
        <time>2018-05-13T20:26:45Z</time>
      </trkpt>
      <trkpt lat="45.74163" lon="7.31416">
        <ele>595</ele>
        <time>2018-05-13T20:27:45Z</time>
      </trkpt>
      <trkpt lat="45.74163" lon="7.31415">
        <ele>595</ele>
        <time>2018-05-13T20:28:45Z</time>
      </trkpt>
      <trkpt lat="45.74162" lon="7.31414">
        <ele>595</ele>
        <time>2018-05-13T20:29:45Z</time>
      </trkpt>
      <trkpt lat="45.74162" lon="7.31413">
        <ele>595</ele>
        <time>2018-05-13T20:30:45Z</time>
      </trkpt>
      <trkpt lat="45.74161" lon="7.31412">
        <ele>595</ele>
        <time>2018-05-13T20:31:45Z</time>
      </trkpt>
      <trkpt lat="45.74161" lon="7.31411">
        <ele>595</ele>
        <time>2018-05-13T20:32:45Z</time>
      </trkpt>
      <trkpt lat="45.7416" lon="7.31411">
        <ele>595</ele>
        <time>2018-05-13T20:33:45Z</time>
      </trkpt>
      <trkpt lat="45.7416" lon="7.3141">
        <ele>595</ele>
        <time>2018-05-13T20:34:45Z</time>
      </trkpt>
      <trkpt lat="45.74159" lon="7.3141">
        <ele>595</ele>
        <time>2018-05-13T20:35:45Z</time>
      </trkpt>
      <trkpt lat="45.74159" lon="7.31409">
        <ele>595</ele>
        <time>2018-05-13T20:36:45Z</time>
      </trkpt>
      <trkpt lat="45.74158" lon="7.31409">
        <ele>595</ele>
        <time>2018-05-13T20:37:45Z</time>
      </trkpt>
      <trkpt lat="45.74157" lon="7.31408">
        <ele>595</ele>
        <time>2018-05-13T20:38:45Z</time>
      </trkpt>
      <trkpt lat="45.74156" lon="7.31408">
        <ele>595</ele>
        <time>2018-05-13T20:39:45Z</time>
      </trkpt>
      <trkpt lat="45.74155" lon="7.31408">
        <ele>595</ele>
        <time>2018-05-13T20:40:45Z</time>
      </trkpt>
      <trkpt lat="45.74155" lon="7.31407">
        <ele>595</ele>
        <time>2018-05-13T20:41:45Z</time>
      </trkpt>
      <trkpt lat="45.74154" lon="7.31407">
        <ele>595</ele>
        <time>2018-05-13T20:42:45Z</time>
      </trkpt>
      <trkpt lat="45.74153" lon="7.31407">
        <ele>595</ele>
        <time>2018-05-13T20:43:45Z</time>
      </trkpt>
      <trkpt lat="45.74152" lon="7.31407">
        <ele>595</ele>
        <time>2018-05-13T20:44:45Z</time>
      </trkpt>
      <trkpt lat="45.74151" lon="7.31408">
        <ele>594</ele>
        <time>2018-05-13T20:45:45Z</time>
      </trkpt>
      <trkpt lat="45.74155" lon="7.31361">
        <ele>595</ele>
        <time>2018-05-13T20:46:45Z</time>
      </trkpt>
      <trkpt lat="45.74153" lon="7.31355">
        <ele>595</ele>
        <time>2018-05-13T20:47:45Z</time>
      </trkpt>
      <trkpt lat="45.74153" lon="7.31349">
        <ele>596</ele>
        <time>2018-05-13T20:48:45Z</time>
      </trkpt>
      <trkpt lat="45.74154" lon="7.3132">
        <ele>596</ele>
        <time>2018-05-13T20:49:45Z</time>
      </trkpt>
      <trkpt lat="45.74154" lon="7.31298">
        <ele>596</ele>
        <time>2018-05-13T20:50:45Z</time>
      </trkpt>
      <trkpt lat="45.7415" lon="7.31281">
        <ele>596</ele>
        <time>2018-05-13T20:51:45Z</time>
      </trkpt>
      <trkpt lat="45.74142" lon="7.31261">
        <ele>596</ele>
        <time>2018-05-13T20:52:45Z</time>
      </trkpt>
      <trkpt lat="45.7413" lon="7.31237">
        <ele>596</ele>
        <time>2018-05-13T20:53:45Z</time>
      </trkpt>
      <trkpt lat="45.74128" lon="7.31232">
        <ele>596</ele>
        <time>2018-05-13T20:54:45Z</time>
      </trkpt>
      <trkpt lat="45.74127" lon="7.31232">
        <ele>596</ele>
        <time>2018-05-13T20:55:45Z</time>
      </trkpt>
      <trkpt lat="45.74103" lon="7.31192">
        <ele>595</ele>
        <time>2018-05-13T20:56:45Z</time>
      </trkpt>
      <trkpt lat="45.7408" lon="7.31155">
        <ele>591</ele>
        <time>2018-05-13T20:57:45Z</time>
      </trkpt>
      <trkpt lat="45.74076" lon="7.31148">
        <ele>591</ele>
        <time>2018-05-13T20:58:45Z</time>
      </trkpt>
      <trkpt lat="45.74037" lon="7.31091">
        <ele>590</ele>
        <time>2018-05-13T20:59:45Z</time>
      </trkpt>
      <trkpt lat="45.74034" lon="7.31082">
        <ele>593</ele>
        <time>2018-05-13T21:00:45Z</time>
      </trkpt>
      <trkpt lat="45.74006" lon="7.31043">
        <ele>593</ele>
        <time>2018-05-13T21:01:45Z</time>
      </trkpt>
      <trkpt lat="45.74006" lon="7.31042">
        <ele>593</ele>
        <time>2018-05-13T21:02:45Z</time>
      </trkpt>
      <trkpt lat="45.74006" lon="7.31041">
        <ele>593</ele>
        <time>2018-05-13T21:03:45Z</time>
      </trkpt>
      <trkpt lat="45.74007" lon="7.31041">
        <ele>593</ele>
        <time>2018-05-13T21:04:45Z</time>
      </trkpt>
      <trkpt lat="45.74007" lon="7.3104">
        <ele>593</ele>
        <time>2018-05-13T21:05:45Z</time>
      </trkpt>
      <trkpt lat="45.74007" lon="7.31039">
        <ele>593</ele>
        <time>2018-05-13T21:06:45Z</time>
      </trkpt>
      <trkpt lat="45.74007" lon="7.31038">
        <ele>593</ele>
        <time>2018-05-13T21:07:45Z</time>
      </trkpt>
      <trkpt lat="45.74007" lon="7.31037">
        <ele>593</ele>
        <time>2018-05-13T21:08:45Z</time>
      </trkpt>
      <trkpt lat="45.74007" lon="7.31036">
        <ele>593</ele>
        <time>2018-05-13T21:09:45Z</time>
      </trkpt>
      <trkpt lat="45.74006" lon="7.31036">
        <ele>593</ele>
        <time>2018-05-13T21:10:45Z</time>
      </trkpt>
      <trkpt lat="45.74006" lon="7.31035">
        <ele>593</ele>
        <time>2018-05-13T21:11:45Z</time>
      </trkpt>
      <trkpt lat="45.74006" lon="7.31034">
        <ele>593</ele>
        <time>2018-05-13T21:12:45Z</time>
      </trkpt>
      <trkpt lat="45.74006" lon="7.31033">
        <ele>593</ele>
        <time>2018-05-13T21:13:45Z</time>
      </trkpt>
      <trkpt lat="45.74005" lon="7.31032">
        <ele>593</ele>
        <time>2018-05-13T21:14:45Z</time>
      </trkpt>
      <trkpt lat="45.74005" lon="7.31031">
        <ele>593</ele>
        <time>2018-05-13T21:15:45Z</time>
      </trkpt>
      <trkpt lat="45.74004" lon="7.31031">
        <ele>593</ele>
        <time>2018-05-13T21:16:45Z</time>
      </trkpt>
      <trkpt lat="45.74004" lon="7.3103">
        <ele>593</ele>
        <time>2018-05-13T21:17:45Z</time>
      </trkpt>
      <trkpt lat="45.74003" lon="7.31029">
        <ele>593</ele>
        <time>2018-05-13T21:18:45Z</time>
      </trkpt>
      <trkpt lat="45.74002" lon="7.31029">
        <ele>593</ele>
        <time>2018-05-13T21:19:45Z</time>
      </trkpt>
      <trkpt lat="45.74002" lon="7.31028">
        <ele>593</ele>
        <time>2018-05-13T21:20:45Z</time>
      </trkpt>
      <trkpt lat="45.74001" lon="7.31028">
        <ele>593</ele>
        <time>2018-05-13T21:21:45Z</time>
      </trkpt>
      <trkpt lat="45.74" lon="7.31028">
        <ele>593</ele>
        <time>2018-05-13T21:22:45Z</time>
      </trkpt>
      <trkpt lat="45.73999" lon="7.31028">
        <ele>590</ele>
        <time>2018-05-13T21:23:45Z</time>
      </trkpt>
      <trkpt lat="45.73998" lon="7.31028">
        <ele>590</ele>
        <time>2018-05-13T21:24:45Z</time>
      </trkpt>
      <trkpt lat="45.73997" lon="7.31028">
        <ele>590</ele>
        <time>2018-05-13T21:25:45Z</time>
      </trkpt>
      <trkpt lat="45.73996" lon="7.31029">
        <ele>590</ele>
        <time>2018-05-13T21:26:45Z</time>
      </trkpt>
      <trkpt lat="45.73975" lon="7.30996">
        <ele>591</ele>
        <time>2018-05-13T21:27:45Z</time>
      </trkpt>
      <trkpt lat="45.73971" lon="7.30994">
        <ele>591</ele>
        <time>2018-05-13T21:28:45Z</time>
      </trkpt>
      <trkpt lat="45.73955" lon="7.30968">
        <ele>591</ele>
        <time>2018-05-13T21:29:45Z</time>
      </trkpt>
      <trkpt lat="45.73934" lon="7.30935">
        <ele>590</ele>
        <time>2018-05-13T21:30:45Z</time>
      </trkpt>
      <trkpt lat="45.73926" lon="7.30913">
        <ele>589</ele>
        <time>2018-05-13T21:31:45Z</time>
      </trkpt>
      <trkpt lat="45.73921" lon="7.30893">
        <ele>590</ele>
        <time>2018-05-13T21:32:45Z</time>
      </trkpt>
      <trkpt lat="45.73919" lon="7.30866">
        <ele>590</ele>
        <time>2018-05-13T21:33:45Z</time>
      </trkpt>
      <trkpt lat="45.73919" lon="7.30865">
        <ele>590</ele>
        <time>2018-05-13T21:34:45Z</time>
      </trkpt>
      <trkpt lat="45.73919" lon="7.30839">
        <ele>588</ele>
        <time>2018-05-13T21:35:45Z</time>
      </trkpt>
      <trkpt lat="45.73921" lon="7.30801">
        <ele>590</ele>
        <time>2018-05-13T21:36:45Z</time>
      </trkpt>
      <trkpt lat="45.73921" lon="7.30797">
        <ele>590</ele>
        <time>2018-05-13T21:37:45Z</time>
      </trkpt>
      <trkpt lat="45.73922" lon="7.30756">
        <ele>588</ele>
        <time>2018-05-13T21:38:45Z</time>
      </trkpt>
      <trkpt lat="45.73921" lon="7.30714">
        <ele>592</ele>
        <time>2018-05-13T21:39:45Z</time>
      </trkpt>
      <trkpt lat="45.73921" lon="7.30708">
        <ele>592</ele>
        <time>2018-05-13T21:40:45Z</time>
      </trkpt>
      <trkpt lat="45.7392" lon="7.30693">
        <ele>592</ele>
        <time>2018-05-13T21:41:45Z</time>
      </trkpt>
      <trkpt lat="45.73918" lon="7.30675">
        <ele>590</ele>
        <time>2018-05-13T21:42:45Z</time>
      </trkpt>
      <trkpt lat="45.7391" lon="7.30648">
        <ele>588</ele>
        <time>2018-05-13T21:43:45Z</time>
      </trkpt>
      <trkpt lat="45.739" lon="7.30622">
        <ele>589</ele>
        <time>2018-05-13T21:44:45Z</time>
      </trkpt>
      <trkpt lat="45.73896" lon="7.30614">
        <ele>589</ele>
        <time>2018-05-13T21:45:45Z</time>
      </trkpt>
      <trkpt lat="45.73887" lon="7.30595">
        <ele>589</ele>
        <time>2018-05-13T21:46:45Z</time>
      </trkpt>
      <trkpt lat="45.73881" lon="7.30583">
        <ele>591</ele>
        <time>2018-05-13T21:47:45Z</time>
      </trkpt>
      <trkpt lat="45.73857" lon="7.30546">
        <ele>591</ele>
        <time>2018-05-13T21:48:45Z</time>
      </trkpt>
      <trkpt lat="45.7385" lon="7.30536">
        <ele>591</ele>
        <time>2018-05-13T21:49:45Z</time>
      </trkpt>
      <trkpt lat="45.73831" lon="7.30506">
        <ele>588</ele>
        <time>2018-05-13T21:50:45Z</time>
      </trkpt>
      <trkpt lat="45.73812" lon="7.30474">
        <ele>587</ele>
        <time>2018-05-13T21:51:45Z</time>
      </trkpt>
      <trkpt lat="45.73789" lon="7.30419">
        <ele>586</ele>
        <time>2018-05-13T21:52:45Z</time>
      </trkpt>
      <trkpt lat="45.73771" lon="7.30371">
        <ele>586</ele>
        <time>2018-05-13T21:53:45Z</time>
      </trkpt>
      <trkpt lat="45.73747" lon="7.30315">
        <ele>585</ele>
        <time>2018-05-13T21:54:45Z</time>
      </trkpt>
      <trkpt lat="45.73745" lon="7.30312">
        <ele>586</ele>
        <time>2018-05-13T21:55:45Z</time>
      </trkpt>
      <trkpt lat="45.73722" lon="7.30259">
        <ele>586</ele>
        <time>2018-05-13T21:56:45Z</time>
      </trkpt>
      <trkpt lat="45.7371" lon="7.30234">
        <ele>587</ele>
        <time>2018-05-13T21:57:45Z</time>
      </trkpt>
      <trkpt lat="45.73699" lon="7.30205">
        <ele>587</ele>
        <time>2018-05-13T21:58:45Z</time>
      </trkpt>
      <trkpt lat="45.73697" lon="7.30193">
        <ele>587</ele>
        <time>2018-05-13T21:59:45Z</time>
      </trkpt>
      <trkpt lat="45.7368" lon="7.3015">
        <ele>588</ele>
        <time>2018-05-13T22:00:45Z</time>
      </trkpt>
      <trkpt lat="45.73684" lon="7.30146">
        <ele>588</ele>
        <time>2018-05-13T22:01:45Z</time>
      </trkpt>
      <trkpt lat="45.73685" lon="7.30145">
        <ele>588</ele>
        <time>2018-05-13T22:02:45Z</time>
      </trkpt>
      <trkpt lat="45.73686" lon="7.30144">
        <ele>588</ele>
        <time>2018-05-13T22:03:45Z</time>
      </trkpt>
      <trkpt lat="45.73687" lon="7.30141">
        <ele>588</ele>
        <time>2018-05-13T22:04:45Z</time>
      </trkpt>
      <trkpt lat="45.73687" lon="7.3014">
        <ele>588</ele>
        <time>2018-05-13T22:05:45Z</time>
      </trkpt>
      <trkpt lat="45.73687" lon="7.30138">
        <ele>588</ele>
        <time>2018-05-13T22:06:45Z</time>
      </trkpt>
      <trkpt lat="45.73687" lon="7.30134">
        <ele>588</ele>
        <time>2018-05-13T22:07:45Z</time>
      </trkpt>
      <trkpt lat="45.73684" lon="7.30124">
        <ele>589</ele>
        <time>2018-05-13T22:08:45Z</time>
      </trkpt>
      <trkpt lat="45.73683" lon="7.3012">
        <ele>589</ele>
        <time>2018-05-13T22:09:45Z</time>
      </trkpt>
      <trkpt lat="45.73683" lon="7.30119">
        <ele>589</ele>
        <time>2018-05-13T22:10:45Z</time>
      </trkpt>
      <trkpt lat="45.73681" lon="7.30115">
        <ele>589</ele>
        <time>2018-05-13T22:11:45Z</time>
      </trkpt>
      <trkpt lat="45.73676" lon="7.30105">
        <ele>588</ele>
        <time>2018-05-13T22:12:45Z</time>
      </trkpt>
      <trkpt lat="45.73673" lon="7.30102">
        <ele>588</ele>
        <time>2018-05-13T22:13:45Z</time>
      </trkpt>
      <trkpt lat="45.73671" lon="7.301">
        <ele>588</ele>
        <time>2018-05-13T22:14:45Z</time>
      </trkpt>
      <trkpt lat="45.73669" lon="7.30098">
        <ele>588</ele>
        <time>2018-05-13T22:15:45Z</time>
      </trkpt>
      <trkpt lat="45.73667" lon="7.30098">
        <ele>588</ele>
        <time>2018-05-13T22:16:45Z</time>
      </trkpt>
      <trkpt lat="45.73662" lon="7.30097">
        <ele>586</ele>
        <time>2018-05-13T22:17:45Z</time>
      </trkpt>
      <trkpt lat="45.73649" lon="7.3007">
        <ele>586</ele>
        <time>2018-05-13T22:18:45Z</time>
      </trkpt>
      <trkpt lat="45.73644" lon="7.30066">
        <ele>586</ele>
        <time>2018-05-13T22:19:45Z</time>
      </trkpt>
      <trkpt lat="45.73638" lon="7.3005">
        <ele>586</ele>
        <time>2018-05-13T22:20:45Z</time>
      </trkpt>
      <trkpt lat="45.73627" lon="7.30004">
        <ele>585</ele>
        <time>2018-05-13T22:21:45Z</time>
      </trkpt>
      <trkpt lat="45.73619" lon="7.29943">
        <ele>585</ele>
        <time>2018-05-13T22:22:45Z</time>
      </trkpt>
      <trkpt lat="45.73614" lon="7.29917">
        <ele>585</ele>
        <time>2018-05-13T22:23:45Z</time>
      </trkpt>
      <trkpt lat="45.7361" lon="7.29895">
        <ele>584</ele>
        <time>2018-05-13T22:24:45Z</time>
      </trkpt>
      <trkpt lat="45.73604" lon="7.29851">
        <ele>584</ele>
        <time>2018-05-13T22:25:45Z</time>
      </trkpt>
      <trkpt lat="45.73597" lon="7.29801">
        <ele>584</ele>
        <time>2018-05-13T22:26:45Z</time>
      </trkpt>
      <trkpt lat="45.73594" lon="7.29788">
        <ele>584</ele>
        <time>2018-05-13T22:27:45Z</time>
      </trkpt>
      <trkpt lat="45.73561" lon="7.29574">
        <ele>589</ele>
        <time>2018-05-13T22:28:45Z</time>
      </trkpt>
      <trkpt lat="45.73555" lon="7.29536">
        <ele>589</ele>
        <time>2018-05-13T22:29:45Z</time>
      </trkpt>
      <trkpt lat="45.73552" lon="7.29527">
        <ele>589</ele>
        <time>2018-05-13T22:30:45Z</time>
      </trkpt>
      <trkpt lat="45.73544" lon="7.29495">
        <ele>592</ele>
        <time>2018-05-13T22:31:45Z</time>
      </trkpt>
      <trkpt lat="45.73528" lon="7.29457">
        <ele>592</ele>
        <time>2018-05-13T22:32:45Z</time>
      </trkpt>
      <trkpt lat="45.73464" lon="7.29355">
        <ele>592</ele>
        <time>2018-05-13T22:33:45Z</time>
      </trkpt>
      <trkpt lat="45.73453" lon="7.29342">
        <ele>591</ele>
        <time>2018-05-13T22:34:45Z</time>
      </trkpt>
      <trkpt lat="45.73423" lon="7.29296">
        <ele>593</ele>
        <time>2018-05-13T22:35:45Z</time>
      </trkpt>
      <trkpt lat="45.73376" lon="7.29229">
        <ele>592</ele>
        <time>2018-05-13T22:36:45Z</time>
      </trkpt>
      <trkpt lat="45.73354" lon="7.29197">
        <ele>592</ele>
        <time>2018-05-13T22:37:45Z</time>
      </trkpt>
      <trkpt lat="45.73332" lon="7.29168">
        <ele>592</ele>
        <time>2018-05-13T22:38:45Z</time>
      </trkpt>
      <trkpt lat="45.73308" lon="7.29148">
        <ele>592</ele>
        <time>2018-05-13T22:39:45Z</time>
      </trkpt>
      <trkpt lat="45.73174" lon="7.29027">
        <ele>594</ele>
        <time>2018-05-13T22:40:45Z</time>
      </trkpt>
      <trkpt lat="45.73074" lon="7.28934">
        <ele>592</ele>
        <time>2018-05-13T22:41:45Z</time>
      </trkpt>
      <trkpt lat="45.73056" lon="7.2892">
        <ele>592</ele>
        <time>2018-05-13T22:42:45Z</time>
      </trkpt>
      <trkpt lat="45.73044" lon="7.28907">
        <ele>593</ele>
        <time>2018-05-13T22:43:45Z</time>
      </trkpt>
      <trkpt lat="45.73035" lon="7.289">
        <ele>593</ele>
        <time>2018-05-13T22:44:45Z</time>
      </trkpt>
      <trkpt lat="45.73026" lon="7.28893">
        <ele>593</ele>
        <time>2018-05-13T22:45:45Z</time>
      </trkpt>
      <trkpt lat="45.7302" lon="7.28887">
        <ele>593</ele>
        <time>2018-05-13T22:46:45Z</time>
      </trkpt>
      <trkpt lat="45.73017" lon="7.28884">
        <ele>593</ele>
        <time>2018-05-13T22:47:45Z</time>
      </trkpt>
      <trkpt lat="45.73012" lon="7.28878">
        <ele>593</ele>
        <time>2018-05-13T22:48:45Z</time>
      </trkpt>
      <trkpt lat="45.73006" lon="7.28871">
        <ele>593</ele>
        <time>2018-05-13T22:49:45Z</time>
      </trkpt>
      <trkpt lat="45.72999" lon="7.2886">
        <ele>589</ele>
        <time>2018-05-13T22:50:45Z</time>
      </trkpt>
      <trkpt lat="45.72994" lon="7.28849">
        <ele>590</ele>
        <time>2018-05-13T22:51:45Z</time>
      </trkpt>
      <trkpt lat="45.72984" lon="7.28825">
        <ele>591</ele>
        <time>2018-05-13T22:52:45Z</time>
      </trkpt>
      <trkpt lat="45.72978" lon="7.28804">
        <ele>590</ele>
        <time>2018-05-13T22:53:45Z</time>
      </trkpt>
      <trkpt lat="45.72974" lon="7.28788">
        <ele>590</ele>
        <time>2018-05-13T22:54:45Z</time>
      </trkpt>
      <trkpt lat="45.7297" lon="7.28765">
        <ele>590</ele>
        <time>2018-05-13T22:55:45Z</time>
      </trkpt>
      <trkpt lat="45.72969" lon="7.28734">
        <ele>589</ele>
        <time>2018-05-13T22:56:45Z</time>
      </trkpt>
      <trkpt lat="45.7297" lon="7.28695">
        <ele>588</ele>
        <time>2018-05-13T22:57:45Z</time>
      </trkpt>
      <trkpt lat="45.72976" lon="7.28581">
        <ele>588</ele>
        <time>2018-05-13T22:58:45Z</time>
      </trkpt>
      <trkpt lat="45.72977" lon="7.28558">
        <ele>588</ele>
        <time>2018-05-13T22:59:45Z</time>
      </trkpt>
      <trkpt lat="45.72979" lon="7.28515">
        <ele>589</ele>
        <time>2018-05-13T23:00:45Z</time>
      </trkpt>
      <trkpt lat="45.72977" lon="7.28498">
        <ele>589</ele>
        <time>2018-05-13T23:01:45Z</time>
      </trkpt>
      <trkpt lat="45.72975" lon="7.28485">
        <ele>589</ele>
        <time>2018-05-13T23:02:45Z</time>
      </trkpt>
      <trkpt lat="45.72974" lon="7.28474">
        <ele>589</ele>
        <time>2018-05-13T23:03:45Z</time>
      </trkpt>
      <trkpt lat="45.7297" lon="7.28446">
        <ele>588</ele>
        <time>2018-05-13T23:04:45Z</time>
      </trkpt>
      <trkpt lat="45.72964" lon="7.28415">
        <ele>589</ele>
        <time>2018-05-13T23:05:45Z</time>
      </trkpt>
      <trkpt lat="45.72961" lon="7.28404">
        <ele>589</ele>
        <time>2018-05-13T23:06:45Z</time>
      </trkpt>
      <trkpt lat="45.72955" lon="7.28383">
        <ele>589</ele>
        <time>2018-05-13T23:07:45Z</time>
      </trkpt>
      <trkpt lat="45.72945" lon="7.2835">
        <ele>589</ele>
        <time>2018-05-13T23:08:45Z</time>
      </trkpt>
      <trkpt lat="45.72945" lon="7.28349">
        <ele>589</ele>
        <time>2018-05-13T23:09:45Z</time>
      </trkpt>
      <trkpt lat="45.72941" lon="7.28339">
        <ele>588</ele>
        <time>2018-05-13T23:10:45Z</time>
      </trkpt>
      <trkpt lat="45.72936" lon="7.28326">
        <ele>589</ele>
        <time>2018-05-13T23:11:45Z</time>
      </trkpt>
      <trkpt lat="45.72933" lon="7.2832">
        <ele>589</ele>
        <time>2018-05-13T23:12:45Z</time>
      </trkpt>
      <trkpt lat="45.7293" lon="7.28312">
        <ele>589</ele>
        <time>2018-05-13T23:13:45Z</time>
      </trkpt>
      <trkpt lat="45.72927" lon="7.28304">
        <ele>590</ele>
        <time>2018-05-13T23:14:45Z</time>
      </trkpt>
      <trkpt lat="45.72926" lon="7.28304">
        <ele>590</ele>
        <time>2018-05-13T23:15:45Z</time>
      </trkpt>
      <trkpt lat="45.72924" lon="7.283">
        <ele>590</ele>
        <time>2018-05-13T23:16:45Z</time>
      </trkpt>
      <trkpt lat="45.72911" lon="7.28277">
        <ele>587</ele>
        <time>2018-05-13T23:17:45Z</time>
      </trkpt>
      <trkpt lat="45.7291" lon="7.28276">
        <ele>587</ele>
        <time>2018-05-13T23:18:45Z</time>
      </trkpt>
      <trkpt lat="45.72873" lon="7.28214">
        <ele>587</ele>
        <time>2018-05-13T23:19:45Z</time>
      </trkpt>
      <trkpt lat="45.72871" lon="7.2821">
        <ele>587</ele>
        <time>2018-05-13T23:20:45Z</time>
      </trkpt>
      <trkpt lat="45.72851" lon="7.28175">
        <ele>587</ele>
        <time>2018-05-13T23:21:45Z</time>
      </trkpt>
      <trkpt lat="45.7283" lon="7.28141">
        <ele>586</ele>
        <time>2018-05-13T23:22:45Z</time>
      </trkpt>
      <trkpt lat="45.72824" lon="7.28131">
        <ele>585</ele>
        <time>2018-05-13T23:23:45Z</time>
      </trkpt>
      <trkpt lat="45.72819" lon="7.28123">
        <ele>585</ele>
        <time>2018-05-13T23:24:45Z</time>
      </trkpt>
      <trkpt lat="45.72792" lon="7.2808">
        <ele>586</ele>
        <time>2018-05-13T23:25:45Z</time>
      </trkpt>
      <trkpt lat="45.72784" lon="7.28067">
        <ele>586</ele>
        <time>2018-05-13T23:26:45Z</time>
      </trkpt>
      <trkpt lat="45.72689" lon="7.27916">
        <ele>592</ele>
        <time>2018-05-13T23:27:45Z</time>
      </trkpt>
      <trkpt lat="45.72668" lon="7.2788">
        <ele>593</ele>
        <time>2018-05-13T23:28:45Z</time>
      </trkpt>
      <trkpt lat="45.72659" lon="7.27866">
        <ele>594</ele>
        <time>2018-05-13T23:29:45Z</time>
      </trkpt>
      <trkpt lat="45.72629" lon="7.27818">
        <ele>597</ele>
        <time>2018-05-13T23:30:45Z</time>
      </trkpt>
      <trkpt lat="45.7258" lon="7.27735">
        <ele>599</ele>
        <time>2018-05-13T23:31:45Z</time>
      </trkpt>
      <trkpt lat="45.72574" lon="7.27725">
        <ele>599</ele>
        <time>2018-05-13T23:32:45Z</time>
      </trkpt>
      <trkpt lat="45.72498" lon="7.27601">
        <ele>599</ele>
        <time>2018-05-13T23:33:45Z</time>
      </trkpt>
      <trkpt lat="45.72466" lon="7.27548">
        <ele>599</ele>
        <time>2018-05-13T23:34:45Z</time>
      </trkpt>
      <trkpt lat="45.72458" lon="7.27533">
        <ele>599</ele>
        <time>2018-05-13T23:35:45Z</time>
      </trkpt>
      <trkpt lat="45.72446" lon="7.27508">
        <ele>599</ele>
        <time>2018-05-13T23:36:45Z</time>
      </trkpt>
      <trkpt lat="45.72439" lon="7.27491">
        <ele>601</ele>
        <time>2018-05-13T23:37:45Z</time>
      </trkpt>
      <trkpt lat="45.72435" lon="7.27481">
        <ele>601</ele>
        <time>2018-05-13T23:38:45Z</time>
      </trkpt>
      <trkpt lat="45.72434" lon="7.2748">
        <ele>601</ele>
        <time>2018-05-13T23:39:45Z</time>
      </trkpt>
      <trkpt lat="45.7243" lon="7.27467">
        <ele>602</ele>
        <time>2018-05-13T23:40:45Z</time>
      </trkpt>
      <trkpt lat="45.72422" lon="7.27441">
        <ele>602</ele>
        <time>2018-05-13T23:41:45Z</time>
      </trkpt>
      <trkpt lat="45.72419" lon="7.27425">
        <ele>602</ele>
        <time>2018-05-13T23:42:45Z</time>
      </trkpt>
      <trkpt lat="45.72415" lon="7.27401">
        <ele>600</ele>
        <time>2018-05-13T23:43:45Z</time>
      </trkpt>
      <trkpt lat="45.7241" lon="7.27349">
        <ele>600</ele>
        <time>2018-05-13T23:44:45Z</time>
      </trkpt>
      <trkpt lat="45.72408" lon="7.27315">
        <ele>600</ele>
        <time>2018-05-13T23:45:45Z</time>
      </trkpt>
      <trkpt lat="45.72404" lon="7.27269">
        <ele>600</ele>
        <time>2018-05-13T23:46:45Z</time>
      </trkpt>
      <trkpt lat="45.72401" lon="7.2721">
        <ele>600</ele>
        <time>2018-05-13T23:47:45Z</time>
      </trkpt>
      <trkpt lat="45.72397" lon="7.27179">
        <ele>601</ele>
        <time>2018-05-13T23:48:45Z</time>
      </trkpt>
      <trkpt lat="45.72393" lon="7.27148">
        <ele>600</ele>
        <time>2018-05-13T23:49:45Z</time>
      </trkpt>
      <trkpt lat="45.7239" lon="7.27132">
        <ele>599</ele>
        <time>2018-05-13T23:50:45Z</time>
      </trkpt>
      <trkpt lat="45.7239" lon="7.27129">
        <ele>599</ele>
        <time>2018-05-13T23:51:45Z</time>
      </trkpt>
      <trkpt lat="45.72387" lon="7.2712">
        <ele>599</ele>
        <time>2018-05-13T23:52:45Z</time>
      </trkpt>
      <trkpt lat="45.72383" lon="7.27103">
        <ele>599</ele>
        <time>2018-05-13T23:53:45Z</time>
      </trkpt>
      <trkpt lat="45.72377" lon="7.27085">
        <ele>598</ele>
        <time>2018-05-13T23:54:45Z</time>
      </trkpt>
      <trkpt lat="45.72367" lon="7.27056">
        <ele>599</ele>
        <time>2018-05-13T23:55:45Z</time>
      </trkpt>
      <trkpt lat="45.7236" lon="7.27039">
        <ele>599</ele>
        <time>2018-05-13T23:56:45Z</time>
      </trkpt>
      <trkpt lat="45.72349" lon="7.27018">
        <ele>599</ele>
        <time>2018-05-13T23:57:45Z</time>
      </trkpt>
      <trkpt lat="45.72336" lon="7.26994">
        <ele>599</ele>
        <time>2018-05-13T23:58:45Z</time>
      </trkpt>
      <trkpt lat="45.72307" lon="7.26952">
        <ele>598</ele>
        <time>2018-05-13T23:59:45Z</time>
      </trkpt>
      <trkpt lat="45.72289" lon="7.26924">
        <ele>598</ele>
        <time>2018-05-14T00:00:45Z</time>
      </trkpt>
      <trkpt lat="45.72256" lon="7.26873">
        <ele>603</ele>
        <time>2018-05-14T00:01:45Z</time>
      </trkpt>
      <trkpt lat="45.72247" lon="7.26859">
        <ele>599</ele>
        <time>2018-05-14T00:02:45Z</time>
      </trkpt>
      <trkpt lat="45.722" lon="7.26789">
        <ele>600</ele>
        <time>2018-05-14T00:03:45Z</time>
      </trkpt>
      <trkpt lat="45.72192" lon="7.26774">
        <ele>600</ele>
        <time>2018-05-14T00:04:45Z</time>
      </trkpt>
      <trkpt lat="45.72185" lon="7.2676">
        <ele>600</ele>
        <time>2018-05-14T00:05:45Z</time>
      </trkpt>
      <trkpt lat="45.72178" lon="7.26743">
        <ele>601</ele>
        <time>2018-05-14T00:06:45Z</time>
      </trkpt>
      <trkpt lat="45.72171" lon="7.26727">
        <ele>602</ele>
        <time>2018-05-14T00:07:45Z</time>
      </trkpt>
      <trkpt lat="45.72168" lon="7.26717">
        <ele>602</ele>
        <time>2018-05-14T00:08:45Z</time>
      </trkpt>
      <trkpt lat="45.72158" lon="7.26684">
        <ele>600</ele>
        <time>2018-05-14T00:09:45Z</time>
      </trkpt>
      <trkpt lat="45.72143" lon="7.26636">
        <ele>601</ele>
        <time>2018-05-14T00:10:45Z</time>
      </trkpt>
      <trkpt lat="45.72129" lon="7.26596">
        <ele>601</ele>
        <time>2018-05-14T00:11:45Z</time>
      </trkpt>
      <trkpt lat="45.7212" lon="7.26578">
        <ele>603</ele>
        <time>2018-05-14T00:12:45Z</time>
      </trkpt>
      <trkpt lat="45.72115" lon="7.26568">
        <ele>603</ele>
        <time>2018-05-14T00:13:45Z</time>
      </trkpt>
      <trkpt lat="45.72109" lon="7.26558">
        <ele>603</ele>
        <time>2018-05-14T00:14:45Z</time>
      </trkpt>
      <trkpt lat="45.72097" lon="7.26542">
        <ele>603</ele>
        <time>2018-05-14T00:15:45Z</time>
      </trkpt>
      <trkpt lat="45.72039" lon="7.26474">
        <ele>602</ele>
        <time>2018-05-14T00:16:45Z</time>
      </trkpt>
      <trkpt lat="45.72012" lon="7.26441">
        <ele>602</ele>
        <time>2018-05-14T00:17:45Z</time>
      </trkpt>
      <trkpt lat="45.71933" lon="7.26352">
        <ele>604</ele>
        <time>2018-05-14T00:18:45Z</time>
      </trkpt>
      <trkpt lat="45.71845" lon="7.26251">
        <ele>603</ele>
        <time>2018-05-14T00:19:45Z</time>
      </trkpt>
      <trkpt lat="45.71772" lon="7.26165">
        <ele>612</ele>
        <time>2018-05-14T00:20:45Z</time>
      </trkpt>
      <trkpt lat="45.71752" lon="7.26141">
        <ele>612</ele>
        <time>2018-05-14T00:21:45Z</time>
      </trkpt>
      <trkpt lat="45.71664" lon="7.26028">
        <ele>609</ele>
        <time>2018-05-14T00:22:45Z</time>
      </trkpt>
      <trkpt lat="45.71609" lon="7.25958">
        <ele>610</ele>
        <time>2018-05-14T00:23:45Z</time>
      </trkpt>
      <trkpt lat="45.71604" lon="7.25952">
        <ele>610</ele>
        <time>2018-05-14T00:24:45Z</time>
      </trkpt>
      <trkpt lat="45.71586" lon="7.25928">
        <ele>609</ele>
        <time>2018-05-14T00:25:45Z</time>
      </trkpt>
      <trkpt lat="45.71455" lon="7.25762">
        <ele>610</ele>
        <time>2018-05-14T00:26:45Z</time>
      </trkpt>
      <trkpt lat="45.71435" lon="7.25737">
        <ele>613</ele>
        <time>2018-05-14T00:27:45Z</time>
      </trkpt>
      <trkpt lat="45.7143" lon="7.25722">
        <ele>614</ele>
        <time>2018-05-14T00:28:45Z</time>
      </trkpt>
      <trkpt lat="45.71418" lon="7.25706">
        <ele>615</ele>
        <time>2018-05-14T00:29:45Z</time>
      </trkpt>
      <trkpt lat="45.71347" lon="7.25617">
        <ele>618</ele>
        <time>2018-05-14T00:30:45Z</time>
      </trkpt>
      <trkpt lat="45.71318" lon="7.2558">
        <ele>619</ele>
        <time>2018-05-14T00:31:45Z</time>
      </trkpt>
      <trkpt lat="45.713" lon="7.2556">
        <ele>619</ele>
        <time>2018-05-14T00:32:45Z</time>
      </trkpt>
      <trkpt lat="45.71286" lon="7.25544">
        <ele>619</ele>
        <time>2018-05-14T00:33:45Z</time>
      </trkpt>
      <trkpt lat="45.71273" lon="7.25527">
        <ele>619</ele>
        <time>2018-05-14T00:34:45Z</time>
      </trkpt>
      <trkpt lat="45.71244" lon="7.25494">
        <ele>620</ele>
        <time>2018-05-14T00:35:45Z</time>
      </trkpt>
      <trkpt lat="45.71233" lon="7.25487">
        <ele>619</ele>
        <time>2018-05-14T00:36:45Z</time>
      </trkpt>
      <trkpt lat="45.71231" lon="7.25486">
        <ele>619</ele>
        <time>2018-05-14T00:37:45Z</time>
      </trkpt>
      <trkpt lat="45.71217" lon="7.25466">
        <ele>618</ele>
        <time>2018-05-14T00:38:45Z</time>
      </trkpt>
      <trkpt lat="45.71202" lon="7.25438">
        <ele>617</ele>
        <time>2018-05-14T00:39:45Z</time>
      </trkpt>
      <trkpt lat="45.71197" lon="7.2542">
        <ele>617</ele>
        <time>2018-05-14T00:40:45Z</time>
      </trkpt>
      <trkpt lat="45.71192" lon="7.25399">
        <ele>619</ele>
        <time>2018-05-14T00:41:45Z</time>
      </trkpt>
      <trkpt lat="45.71189" lon="7.25382">
        <ele>619</ele>
        <time>2018-05-14T00:42:45Z</time>
      </trkpt>
      <trkpt lat="45.71187" lon="7.25364">
        <ele>619</ele>
        <time>2018-05-14T00:43:45Z</time>
      </trkpt>
      <trkpt lat="45.71187" lon="7.25346">
        <ele>617</ele>
        <time>2018-05-14T00:44:45Z</time>
      </trkpt>
      <trkpt lat="45.71188" lon="7.25324">
        <ele>618</ele>
        <time>2018-05-14T00:45:45Z</time>
      </trkpt>
      <trkpt lat="45.7119" lon="7.25298">
        <ele>620</ele>
        <time>2018-05-14T00:46:45Z</time>
      </trkpt>
      <trkpt lat="45.71192" lon="7.25282">
        <ele>620</ele>
        <time>2018-05-14T00:47:45Z</time>
      </trkpt>
      <trkpt lat="45.71194" lon="7.25266">
        <ele>620</ele>
        <time>2018-05-14T00:48:45Z</time>
      </trkpt>
      <trkpt lat="45.71197" lon="7.25249">
        <ele>620</ele>
        <time>2018-05-14T00:49:45Z</time>
      </trkpt>
      <trkpt lat="45.71199" lon="7.2524">
        <ele>620</ele>
        <time>2018-05-14T00:50:45Z</time>
      </trkpt>
      <trkpt lat="45.71203" lon="7.25228">
        <ele>622</ele>
        <time>2018-05-14T00:51:45Z</time>
      </trkpt>
      <trkpt lat="45.71214" lon="7.25196">
        <ele>623</ele>
        <time>2018-05-14T00:52:45Z</time>
      </trkpt>
      <trkpt lat="45.71229" lon="7.25163">
        <ele>626</ele>
        <time>2018-05-14T00:53:45Z</time>
      </trkpt>
      <trkpt lat="45.71234" lon="7.25154">
        <ele>626</ele>
        <time>2018-05-14T00:54:45Z</time>
      </trkpt>
      <trkpt lat="45.71244" lon="7.25133">
        <ele>624</ele>
        <time>2018-05-14T00:55:45Z</time>
      </trkpt>
      <trkpt lat="45.71255" lon="7.2511">
        <ele>636</ele>
        <time>2018-05-14T00:56:45Z</time>
      </trkpt>
      <trkpt lat="45.71262" lon="7.25093">
        <ele>634</ele>
        <time>2018-05-14T00:57:45Z</time>
      </trkpt>
      <trkpt lat="45.71267" lon="7.25075">
        <ele>634</ele>
        <time>2018-05-14T00:58:45Z</time>
      </trkpt>
      <trkpt lat="45.71271" lon="7.25051">
        <ele>637</ele>
        <time>2018-05-14T00:59:45Z</time>
      </trkpt>
      <trkpt lat="45.71273" lon="7.25033">
        <ele>637</ele>
        <time>2018-05-14T01:00:45Z</time>
      </trkpt>
      <trkpt lat="45.71274" lon="7.25015">
        <ele>636</ele>
        <time>2018-05-14T01:01:45Z</time>
      </trkpt>
      <trkpt lat="45.71274" lon="7.25001">
        <ele>636</ele>
        <time>2018-05-14T01:02:45Z</time>
      </trkpt>
      <trkpt lat="45.71274" lon="7.24991">
        <ele>638</ele>
        <time>2018-05-14T01:03:45Z</time>
      </trkpt>
      <trkpt lat="45.71272" lon="7.24972">
        <ele>639</ele>
        <time>2018-05-14T01:04:45Z</time>
      </trkpt>
      <trkpt lat="45.71268" lon="7.24929">
        <ele>638</ele>
        <time>2018-05-14T01:05:45Z</time>
      </trkpt>
      <trkpt lat="45.71267" lon="7.24917">
        <ele>636</ele>
        <time>2018-05-14T01:06:45Z</time>
      </trkpt>
      <trkpt lat="45.71264" lon="7.24878">
        <ele>644</ele>
        <time>2018-05-14T01:07:45Z</time>
      </trkpt>
      <trkpt lat="45.71257" lon="7.24809">
        <ele>646</ele>
        <time>2018-05-14T01:08:45Z</time>
      </trkpt>
      <trkpt lat="45.71255" lon="7.24787">
        <ele>648</ele>
        <time>2018-05-14T01:09:45Z</time>
      </trkpt>
      <trkpt lat="45.71252" lon="7.24766">
        <ele>645</ele>
        <time>2018-05-14T01:10:45Z</time>
      </trkpt>
      <trkpt lat="45.71246" lon="7.24733">
        <ele>635</ele>
        <time>2018-05-14T01:11:45Z</time>
      </trkpt>
      <trkpt lat="45.71242" lon="7.24718">
        <ele>635</ele>
        <time>2018-05-14T01:12:45Z</time>
      </trkpt>
      <trkpt lat="45.71236" lon="7.24693">
        <ele>638</ele>
        <time>2018-05-14T01:13:45Z</time>
      </trkpt>
      <trkpt lat="45.71228" lon="7.24662">
        <ele>646</ele>
        <time>2018-05-14T01:14:45Z</time>
      </trkpt>
      <trkpt lat="45.71222" lon="7.24638">
        <ele>645</ele>
        <time>2018-05-14T01:15:45Z</time>
      </trkpt>
      <trkpt lat="45.71211" lon="7.24583">
        <ele>658</ele>
        <time>2018-05-14T01:16:45Z</time>
      </trkpt>
      <trkpt lat="45.71207" lon="7.24564">
        <ele>658</ele>
        <time>2018-05-14T01:17:45Z</time>
      </trkpt>
      <trkpt lat="45.71198" lon="7.24496">
        <ele>673</ele>
        <time>2018-05-14T01:18:45Z</time>
      </trkpt>
      <trkpt lat="45.71192" lon="7.24456">
        <ele>677</ele>
        <time>2018-05-14T01:19:45Z</time>
      </trkpt>
      <trkpt lat="45.71182" lon="7.24413">
        <ele>684</ele>
        <time>2018-05-14T01:20:45Z</time>
      </trkpt>
      <trkpt lat="45.71177" lon="7.24396">
        <ele>688</ele>
        <time>2018-05-14T01:21:45Z</time>
      </trkpt>
      <trkpt lat="45.71169" lon="7.24375">
        <ele>693</ele>
        <time>2018-05-14T01:22:45Z</time>
      </trkpt>
      <trkpt lat="45.71158" lon="7.24352">
        <ele>668</ele>
        <time>2018-05-14T01:23:45Z</time>
      </trkpt>
      <trkpt lat="45.7115" lon="7.24335">
        <ele>669</ele>
        <time>2018-05-14T01:24:45Z</time>
      </trkpt>
      <trkpt lat="45.71135" lon="7.24314">
        <ele>675</ele>
        <time>2018-05-14T01:25:45Z</time>
      </trkpt>
      <trkpt lat="45.71126" lon="7.24305">
        <ele>673</ele>
        <time>2018-05-14T01:26:45Z</time>
      </trkpt>
      <trkpt lat="45.71112" lon="7.2429">
        <ele>671</ele>
        <time>2018-05-14T01:27:45Z</time>
      </trkpt>
      <trkpt lat="45.71075" lon="7.24257">
        <ele>655</ele>
        <time>2018-05-14T01:28:45Z</time>
      </trkpt>
      <trkpt lat="45.71066" lon="7.24247">
        <ele>660</ele>
        <time>2018-05-14T01:29:45Z</time>
      </trkpt>
      <trkpt lat="45.71051" lon="7.24233">
        <ele>658</ele>
        <time>2018-05-14T01:30:45Z</time>
      </trkpt>
      <trkpt lat="45.71035" lon="7.24222">
        <ele>657</ele>
        <time>2018-05-14T01:31:45Z</time>
      </trkpt>
      <trkpt lat="45.71021" lon="7.24215">
        <ele>656</ele>
        <time>2018-05-14T01:32:45Z</time>
      </trkpt>
      <trkpt lat="45.71001" lon="7.24213">
        <ele>655</ele>
        <time>2018-05-14T01:33:45Z</time>
      </trkpt>
      <trkpt lat="45.70998" lon="7.24213">
        <ele>651</ele>
        <time>2018-05-14T01:34:45Z</time>
      </trkpt>
      <trkpt lat="45.70982" lon="7.24213">
        <ele>652</ele>
        <time>2018-05-14T01:35:45Z</time>
      </trkpt>
      <trkpt lat="45.70967" lon="7.24214">
        <ele>652</ele>
        <time>2018-05-14T01:36:45Z</time>
      </trkpt>
      <trkpt lat="45.70932" lon="7.24217">
        <ele>652</ele>
        <time>2018-05-14T01:37:45Z</time>
      </trkpt>
      <trkpt lat="45.70914" lon="7.24216">
        <ele>653</ele>
        <time>2018-05-14T01:38:45Z</time>
      </trkpt>
      <trkpt lat="45.70898" lon="7.24212">
        <ele>654</ele>
        <time>2018-05-14T01:39:45Z</time>
      </trkpt>
      <trkpt lat="45.70877" lon="7.24202">
        <ele>655</ele>
        <time>2018-05-14T01:40:45Z</time>
      </trkpt>
      <trkpt lat="45.70859" lon="7.2419">
        <ele>656</ele>
        <time>2018-05-14T01:41:45Z</time>
      </trkpt>
      <trkpt lat="45.70837" lon="7.24165">
        <ele>660</ele>
        <time>2018-05-14T01:42:45Z</time>
      </trkpt>
      <trkpt lat="45.70824" lon="7.24146">
        <ele>655</ele>
        <time>2018-05-14T01:43:45Z</time>
      </trkpt>
      <trkpt lat="45.70815" lon="7.2413">
        <ele>654</ele>
        <time>2018-05-14T01:44:45Z</time>
      </trkpt>
      <trkpt lat="45.70811" lon="7.24119">
        <ele>654</ele>
        <time>2018-05-14T01:45:45Z</time>
      </trkpt>
      <trkpt lat="45.70807" lon="7.24109">
        <ele>654</ele>
        <time>2018-05-14T01:46:45Z</time>
      </trkpt>
      <trkpt lat="45.70803" lon="7.24096">
        <ele>654</ele>
        <time>2018-05-14T01:47:45Z</time>
      </trkpt>
      <trkpt lat="45.70799" lon="7.24079">
        <ele>657</ele>
        <time>2018-05-14T01:48:45Z</time>
      </trkpt>
      <trkpt lat="45.70796" lon="7.24056">
        <ele>657</ele>
        <time>2018-05-14T01:49:45Z</time>
      </trkpt>
      <trkpt lat="45.70795" lon="7.24045">
        <ele>657</ele>
        <time>2018-05-14T01:50:45Z</time>
      </trkpt>
      <trkpt lat="45.70795" lon="7.24027">
        <ele>658</ele>
        <time>2018-05-14T01:51:45Z</time>
      </trkpt>
      <trkpt lat="45.70795" lon="7.24014">
        <ele>658</ele>
        <time>2018-05-14T01:52:45Z</time>
      </trkpt>
      <trkpt lat="45.70796" lon="7.23971">
        <ele>661</ele>
        <time>2018-05-14T01:53:45Z</time>
      </trkpt>
      <trkpt lat="45.70798" lon="7.2392">
        <ele>662</ele>
        <time>2018-05-14T01:54:45Z</time>
      </trkpt>
      <trkpt lat="45.70802" lon="7.23839">
        <ele>665</ele>
        <time>2018-05-14T01:55:45Z</time>
      </trkpt>
      <trkpt lat="45.70806" lon="7.23788">
        <ele>667</ele>
        <time>2018-05-14T01:56:45Z</time>
      </trkpt>
      <trkpt lat="45.70808" lon="7.23767">
        <ele>668</ele>
        <time>2018-05-14T01:57:45Z</time>
      </trkpt>
      <trkpt lat="45.70809" lon="7.23749">
        <ele>669</ele>
        <time>2018-05-14T01:58:45Z</time>
      </trkpt>
      <trkpt lat="45.70812" lon="7.23734">
        <ele>669</ele>
        <time>2018-05-14T01:59:45Z</time>
      </trkpt>
      <trkpt lat="45.70816" lon="7.2371">
        <ele>669</ele>
        <time>2018-05-14T02:00:45Z</time>
      </trkpt>
      <trkpt lat="45.70824" lon="7.23689">
        <ele>669</ele>
        <time>2018-05-14T02:01:45Z</time>
      </trkpt>
      <trkpt lat="45.7084" lon="7.23642">
        <ele>670</ele>
        <time>2018-05-14T02:02:45Z</time>
      </trkpt>
      <trkpt lat="45.70854" lon="7.23609">
        <ele>671</ele>
        <time>2018-05-14T02:03:45Z</time>
      </trkpt>
      <trkpt lat="45.70901" lon="7.23501">
        <ele>668</ele>
        <time>2018-05-14T02:04:45Z</time>
      </trkpt>
      <trkpt lat="45.70924" lon="7.23444">
        <ele>671</ele>
        <time>2018-05-14T02:05:45Z</time>
      </trkpt>
      <trkpt lat="45.7096" lon="7.23349">
        <ele>672</ele>
        <time>2018-05-14T02:06:45Z</time>
      </trkpt>
      <trkpt lat="45.70981" lon="7.23298">
        <ele>673</ele>
        <time>2018-05-14T02:07:45Z</time>
      </trkpt>
      <trkpt lat="45.70994" lon="7.23263">
        <ele>673</ele>
        <time>2018-05-14T02:08:45Z</time>
      </trkpt>
      <trkpt lat="45.70997" lon="7.23255">
        <ele>674</ele>
        <time>2018-05-14T02:09:45Z</time>
      </trkpt>
      <trkpt lat="45.71001" lon="7.2324">
        <ele>677</ele>
        <time>2018-05-14T02:10:45Z</time>
      </trkpt>
      <trkpt lat="45.71004" lon="7.23221">
        <ele>679</ele>
        <time>2018-05-14T02:11:45Z</time>
      </trkpt>
      <trkpt lat="45.71009" lon="7.23191">
        <ele>679</ele>
        <time>2018-05-14T02:12:45Z</time>
      </trkpt>
      <trkpt lat="45.71012" lon="7.23158">
        <ele>680</ele>
        <time>2018-05-14T02:13:45Z</time>
      </trkpt>
      <trkpt lat="45.71012" lon="7.23157">
        <ele>680</ele>
        <time>2018-05-14T02:14:45Z</time>
      </trkpt>
      <trkpt lat="45.71013" lon="7.23136">
        <ele>683</ele>
        <time>2018-05-14T02:15:45Z</time>
      </trkpt>
      <trkpt lat="45.71012" lon="7.23122">
        <ele>683</ele>
        <time>2018-05-14T02:16:45Z</time>
      </trkpt>
      <trkpt lat="45.7101" lon="7.23102">
        <ele>682</ele>
        <time>2018-05-14T02:17:45Z</time>
      </trkpt>
      <trkpt lat="45.71003" lon="7.23048">
        <ele>685</ele>
        <time>2018-05-14T02:18:45Z</time>
      </trkpt>
      <trkpt lat="45.70997" lon="7.23011">
        <ele>678</ele>
        <time>2018-05-14T02:19:45Z</time>
      </trkpt>
      <trkpt lat="45.70987" lon="7.22949">
        <ele>678</ele>
        <time>2018-05-14T02:20:45Z</time>
      </trkpt>
      <trkpt lat="45.7098" lon="7.22901">
        <ele>680</ele>
        <time>2018-05-14T02:21:45Z</time>
      </trkpt>
      <trkpt lat="45.70977" lon="7.22882">
        <ele>680</ele>
        <time>2018-05-14T02:22:45Z</time>
      </trkpt>
      <trkpt lat="45.70975" lon="7.22866">
        <ele>681</ele>
        <time>2018-05-14T02:23:45Z</time>
      </trkpt>
      <trkpt lat="45.70974" lon="7.22863">
        <ele>681</ele>
        <time>2018-05-14T02:24:45Z</time>
      </trkpt>
      <trkpt lat="45.70972" lon="7.22846">
        <ele>681</ele>
        <time>2018-05-14T02:25:45Z</time>
      </trkpt>
      <trkpt lat="45.7097" lon="7.2284">
        <ele>681</ele>
        <time>2018-05-14T02:26:45Z</time>
      </trkpt>
      <trkpt lat="45.7097" lon="7.22836">
        <ele>681</ele>
        <time>2018-05-14T02:27:45Z</time>
      </trkpt>
      <trkpt lat="45.70965" lon="7.22798">
        <ele>684</ele>
        <time>2018-05-14T02:28:45Z</time>
      </trkpt>
      <trkpt lat="45.70963" lon="7.22779">
        <ele>684</ele>
        <time>2018-05-14T02:29:45Z</time>
      </trkpt>
      <trkpt lat="45.70953" lon="7.2275">
        <ele>685</ele>
        <time>2018-05-14T02:30:45Z</time>
      </trkpt>
      <trkpt lat="45.70945" lon="7.22724">
        <ele>685</ele>
        <time>2018-05-14T02:31:45Z</time>
      </trkpt>
      <trkpt lat="45.70937" lon="7.22705">
        <ele>685</ele>
        <time>2018-05-14T02:32:45Z</time>
      </trkpt>
      <trkpt lat="45.70928" lon="7.22686">
        <ele>683</ele>
        <time>2018-05-14T02:33:45Z</time>
      </trkpt>
      <trkpt lat="45.70924" lon="7.22679">
        <ele>681</ele>
        <time>2018-05-14T02:34:45Z</time>
      </trkpt>
      <trkpt lat="45.70919" lon="7.2267">
        <ele>679</ele>
        <time>2018-05-14T02:35:45Z</time>
      </trkpt>
      <trkpt lat="45.70917" lon="7.22666">
        <ele>677</ele>
        <time>2018-05-14T02:36:45Z</time>
      </trkpt>
      <trkpt lat="45.70914" lon="7.22662">
        <ele>677</ele>
        <time>2018-05-14T02:37:45Z</time>
      </trkpt>
      <trkpt lat="45.70906" lon="7.22649">
        <ele>677</ele>
        <time>2018-05-14T02:38:45Z</time>
      </trkpt>
      <trkpt lat="45.70894" lon="7.22633">
        <ele>677</ele>
        <time>2018-05-14T02:39:45Z</time>
      </trkpt>
      <trkpt lat="45.70884" lon="7.22622">
        <ele>677</ele>
        <time>2018-05-14T02:40:45Z</time>
      </trkpt>
      <trkpt lat="45.70866" lon="7.22604">
        <ele>677</ele>
        <time>2018-05-14T02:41:45Z</time>
      </trkpt>
      <trkpt lat="45.70842" lon="7.22582">
        <ele>678</ele>
        <time>2018-05-14T02:42:45Z</time>
      </trkpt>
      <trkpt lat="45.70826" lon="7.22568">
        <ele>677</ele>
        <time>2018-05-14T02:43:45Z</time>
      </trkpt>
      <trkpt lat="45.7082" lon="7.22561">
        <ele>678</ele>
        <time>2018-05-14T02:44:45Z</time>
      </trkpt>
      <trkpt lat="45.70752" lon="7.22501">
        <ele>680</ele>
        <time>2018-05-14T02:45:45Z</time>
      </trkpt>
      <trkpt lat="45.70701" lon="7.22456">
        <ele>679</ele>
        <time>2018-05-14T02:46:45Z</time>
      </trkpt>
      <trkpt lat="45.70669" lon="7.22427">
        <ele>678</ele>
        <time>2018-05-14T02:47:45Z</time>
      </trkpt>
      <trkpt lat="45.70665" lon="7.22423">
        <ele>676</ele>
        <time>2018-05-14T02:48:45Z</time>
      </trkpt>
      <trkpt lat="45.70664" lon="7.22422">
        <ele>676</ele>
        <time>2018-05-14T02:49:45Z</time>
      </trkpt>
      <trkpt lat="45.70647" lon="7.22404">
        <ele>676</ele>
        <time>2018-05-14T02:50:45Z</time>
      </trkpt>
      <trkpt lat="45.70638" lon="7.2239">
        <ele>675</ele>
        <time>2018-05-14T02:51:45Z</time>
      </trkpt>
      <trkpt lat="45.70633" lon="7.22383">
        <ele>675</ele>
        <time>2018-05-14T02:52:45Z</time>
      </trkpt>
      <trkpt lat="45.70623" lon="7.22363">
        <ele>675</ele>
        <time>2018-05-14T02:53:45Z</time>
      </trkpt>
      <trkpt lat="45.70617" lon="7.22347">
        <ele>675</ele>
        <time>2018-05-14T02:54:45Z</time>
      </trkpt>
      <trkpt lat="45.70608" lon="7.22321">
        <ele>676</ele>
        <time>2018-05-14T02:55:45Z</time>
      </trkpt>
      <trkpt lat="45.70603" lon="7.223">
        <ele>677</ele>
        <time>2018-05-14T02:56:45Z</time>
      </trkpt>
      <trkpt lat="45.70596" lon="7.22264">
        <ele>677</ele>
        <time>2018-05-14T02:57:45Z</time>
      </trkpt>
      <trkpt lat="45.70596" lon="7.22259">
        <ele>676</ele>
        <time>2018-05-14T02:58:45Z</time>
      </trkpt>
      <trkpt lat="45.70594" lon="7.22242">
        <ele>677</ele>
        <time>2018-05-14T02:59:45Z</time>
      </trkpt>
      <trkpt lat="45.70594" lon="7.22176">
        <ele>677</ele>
        <time>2018-05-14T03:00:45Z</time>
      </trkpt>
      <trkpt lat="45.70595" lon="7.22097">
        <ele>675</ele>
        <time>2018-05-14T03:01:45Z</time>
      </trkpt>
      <trkpt lat="45.70596" lon="7.2202">
        <ele>674</ele>
        <time>2018-05-14T03:02:45Z</time>
      </trkpt>
      <trkpt lat="45.70596" lon="7.22001">
        <ele>672</ele>
        <time>2018-05-14T03:03:45Z</time>
      </trkpt>
      <trkpt lat="45.70599" lon="7.21895">
        <ele>671</ele>
        <time>2018-05-14T03:04:45Z</time>
      </trkpt>
      <trkpt lat="45.70599" lon="7.21889">
        <ele>671</ele>
        <time>2018-05-14T03:05:45Z</time>
      </trkpt>
      <trkpt lat="45.70599" lon="7.21841">
        <ele>670</ele>
        <time>2018-05-14T03:06:45Z</time>
      </trkpt>
      <trkpt lat="45.70598" lon="7.21815">
        <ele>669</ele>
        <time>2018-05-14T03:07:45Z</time>
      </trkpt>
      <trkpt lat="45.70598" lon="7.21808">
        <ele>669</ele>
        <time>2018-05-14T03:08:45Z</time>
      </trkpt>
      <trkpt lat="45.70597" lon="7.21721">
        <ele>669</ele>
        <time>2018-05-14T03:09:45Z</time>
      </trkpt>
      <trkpt lat="45.70597" lon="7.217">
        <ele>669</ele>
        <time>2018-05-14T03:10:45Z</time>
      </trkpt>
      <trkpt lat="45.70597" lon="7.21667">
        <ele>668</ele>
        <time>2018-05-14T03:11:45Z</time>
      </trkpt>
      <trkpt lat="45.70597" lon="7.21628">
        <ele>666</ele>
        <time>2018-05-14T03:12:45Z</time>
      </trkpt>
      <trkpt lat="45.70599" lon="7.21594">
        <ele>664</ele>
        <time>2018-05-14T03:13:45Z</time>
      </trkpt>
      <trkpt lat="45.706" lon="7.21587">
        <ele>663</ele>
        <time>2018-05-14T03:14:45Z</time>
      </trkpt>
      <trkpt lat="45.70603" lon="7.21558">
        <ele>660</ele>
        <time>2018-05-14T03:15:45Z</time>
      </trkpt>
      <trkpt lat="45.70609" lon="7.21528">
        <ele>659</ele>
        <time>2018-05-14T03:16:45Z</time>
      </trkpt>
      <trkpt lat="45.70624" lon="7.2145">
        <ele>656</ele>
        <time>2018-05-14T03:17:45Z</time>
      </trkpt>
      <trkpt lat="45.70624" lon="7.21434">
        <ele>656</ele>
        <time>2018-05-14T03:18:45Z</time>
      </trkpt>
      <trkpt lat="45.70624" lon="7.21417">
        <ele>656</ele>
        <time>2018-05-14T03:19:45Z</time>
      </trkpt>
      <trkpt lat="45.70621" lon="7.21384">
        <ele>656</ele>
        <time>2018-05-14T03:20:45Z</time>
      </trkpt>
      <trkpt lat="45.70617" lon="7.2136">
        <ele>656</ele>
        <time>2018-05-14T03:21:45Z</time>
      </trkpt>
      <trkpt lat="45.7061" lon="7.21305">
        <ele>658</ele>
        <time>2018-05-14T03:22:45Z</time>
      </trkpt>
      <trkpt lat="45.70606" lon="7.2128">
        <ele>659</ele>
        <time>2018-05-14T03:23:45Z</time>
      </trkpt>
      <trkpt lat="45.706" lon="7.21259">
        <ele>658</ele>
        <time>2018-05-14T03:24:45Z</time>
      </trkpt>
      <trkpt lat="45.70595" lon="7.21244">
        <ele>660</ele>
        <time>2018-05-14T03:25:45Z</time>
      </trkpt>
      <trkpt lat="45.70585" lon="7.21221">
        <ele>663</ele>
        <time>2018-05-14T03:26:45Z</time>
      </trkpt>
      <trkpt lat="45.70575" lon="7.21202">
        <ele>657</ele>
        <time>2018-05-14T03:27:45Z</time>
      </trkpt>
      <trkpt lat="45.7056" lon="7.21178">
        <ele>657</ele>
        <time>2018-05-14T03:28:45Z</time>
      </trkpt>
      <trkpt lat="45.70535" lon="7.21139">
        <ele>660</ele>
        <time>2018-05-14T03:29:45Z</time>
      </trkpt>
      <trkpt lat="45.70511" lon="7.21105">
        <ele>660</ele>
        <time>2018-05-14T03:30:45Z</time>
      </trkpt>
      <trkpt lat="45.70477" lon="7.21053">
        <ele>660</ele>
        <time>2018-05-14T03:31:45Z</time>
      </trkpt>
      <trkpt lat="45.70475" lon="7.21051">
        <ele>660</ele>
        <time>2018-05-14T03:32:45Z</time>
      </trkpt>
      <trkpt lat="45.70443" lon="7.21">
        <ele>663</ele>
        <time>2018-05-14T03:33:45Z</time>
      </trkpt>
      <trkpt lat="45.70437" lon="7.20991">
        <ele>662</ele>
        <time>2018-05-14T03:34:45Z</time>
      </trkpt>
      <trkpt lat="45.7043" lon="7.20974">
        <ele>663</ele>
        <time>2018-05-14T03:35:45Z</time>
      </trkpt>
      <trkpt lat="45.70423" lon="7.20953">
        <ele>664</ele>
        <time>2018-05-14T03:36:45Z</time>
      </trkpt>
      <trkpt lat="45.70418" lon="7.2093">
        <ele>663</ele>
        <time>2018-05-14T03:37:45Z</time>
      </trkpt>
      <trkpt lat="45.70415" lon="7.20915">
        <ele>660</ele>
        <time>2018-05-14T03:38:45Z</time>
      </trkpt>
      <trkpt lat="45.70412" lon="7.20858">
        <ele>662</ele>
        <time>2018-05-14T03:39:45Z</time>
      </trkpt>
      <trkpt lat="45.70408" lon="7.20805">
        <ele>666</ele>
        <time>2018-05-14T03:40:45Z</time>
      </trkpt>
      <trkpt lat="45.70404" lon="7.20743">
        <ele>673</ele>
        <time>2018-05-14T03:41:45Z</time>
      </trkpt>
      <trkpt lat="45.704" lon="7.2068">
        <ele>677</ele>
        <time>2018-05-14T03:42:45Z</time>
      </trkpt>
      <trkpt lat="45.70398" lon="7.20653">
        <ele>679</ele>
        <time>2018-05-14T03:43:45Z</time>
      </trkpt>
      <trkpt lat="45.70397" lon="7.20625">
        <ele>677</ele>
        <time>2018-05-14T03:44:45Z</time>
      </trkpt>
      <trkpt lat="45.70396" lon="7.20577">
        <ele>684</ele>
        <time>2018-05-14T03:45:45Z</time>
      </trkpt>
      <trkpt lat="45.70394" lon="7.20562">
        <ele>683</ele>
        <time>2018-05-14T03:46:45Z</time>
      </trkpt>
      <trkpt lat="45.70392" lon="7.20553">
        <ele>682</ele>
        <time>2018-05-14T03:47:45Z</time>
      </trkpt>
      <trkpt lat="45.70389" lon="7.20542">
        <ele>682</ele>
        <time>2018-05-14T03:48:45Z</time>
      </trkpt>
      <trkpt lat="45.70384" lon="7.20526">
        <ele>683</ele>
        <time>2018-05-14T03:49:45Z</time>
      </trkpt>
      <trkpt lat="45.70378" lon="7.20512">
        <ele>682</ele>
        <time>2018-05-14T03:50:45Z</time>
      </trkpt>
      <trkpt lat="45.7037" lon="7.205">
        <ele>679</ele>
        <time>2018-05-14T03:51:45Z</time>
      </trkpt>
      <trkpt lat="45.70357" lon="7.20486">
        <ele>681</ele>
        <time>2018-05-14T03:52:45Z</time>
      </trkpt>
      <trkpt lat="45.70324" lon="7.20457">
        <ele>667</ele>
        <time>2018-05-14T03:53:45Z</time>
      </trkpt>
      <trkpt lat="45.70306" lon="7.20441">
        <ele>667</ele>
        <time>2018-05-14T03:54:45Z</time>
      </trkpt>
      <trkpt lat="45.70287" lon="7.20416">
        <ele>669</ele>
        <time>2018-05-14T03:55:45Z</time>
      </trkpt>
      <trkpt lat="45.70275" lon="7.20396">
        <ele>669</ele>
        <time>2018-05-14T03:56:45Z</time>
      </trkpt>
      <trkpt lat="45.7027" lon="7.20382">
        <ele>669</ele>
        <time>2018-05-14T03:57:45Z</time>
      </trkpt>
      <trkpt lat="45.7026" lon="7.20354">
        <ele>670</ele>
        <time>2018-05-14T03:58:45Z</time>
      </trkpt>
      <trkpt lat="45.70253" lon="7.20329">
        <ele>670</ele>
        <time>2018-05-14T03:59:45Z</time>
      </trkpt>
      <trkpt lat="45.70235" lon="7.20261">
        <ele>670</ele>
        <time>2018-05-14T04:00:45Z</time>
      </trkpt>
      <trkpt lat="45.70216" lon="7.20185">
        <ele>672</ele>
        <time>2018-05-14T04:01:45Z</time>
      </trkpt>
      <trkpt lat="45.702" lon="7.20122">
        <ele>674</ele>
        <time>2018-05-14T04:02:45Z</time>
      </trkpt>
      <trkpt lat="45.7019" lon="7.20082">
        <ele>675</ele>
        <time>2018-05-14T04:03:45Z</time>
      </trkpt>
      <trkpt lat="45.7016" lon="7.19969">
        <ele>676</ele>
        <time>2018-05-14T04:04:45Z</time>
      </trkpt>
      <trkpt lat="45.70152" lon="7.19937">
        <ele>676</ele>
        <time>2018-05-14T04:05:45Z</time>
      </trkpt>
      <trkpt lat="45.7014" lon="7.19891">
        <ele>677</ele>
        <time>2018-05-14T04:06:45Z</time>
      </trkpt>
      <trkpt lat="45.70119" lon="7.19809">
        <ele>676</ele>
        <time>2018-05-14T04:07:45Z</time>
      </trkpt>
      <trkpt lat="45.70085" lon="7.19681">
        <ele>678</ele>
        <time>2018-05-14T04:08:45Z</time>
      </trkpt>
      <trkpt lat="45.70064" lon="7.196">
        <ele>680</ele>
        <time>2018-05-14T04:09:45Z</time>
      </trkpt>
      <trkpt lat="45.70045" lon="7.19529">
        <ele>678</ele>
        <time>2018-05-14T04:10:45Z</time>
      </trkpt>
      <trkpt lat="45.70028" lon="7.19464">
        <ele>675</ele>
        <time>2018-05-14T04:11:45Z</time>
      </trkpt>
      <trkpt lat="45.7001" lon="7.19393">
        <ele>674</ele>
        <time>2018-05-14T04:12:45Z</time>
      </trkpt>
      <trkpt lat="45.70009" lon="7.1939">
        <ele>674</ele>
        <time>2018-05-14T04:13:45Z</time>
      </trkpt>
      <trkpt lat="45.70005" lon="7.19379">
        <ele>673</ele>
        <time>2018-05-14T04:14:45Z</time>
      </trkpt>
      <trkpt lat="45.69998" lon="7.19354">
        <ele>678</ele>
        <time>2018-05-14T04:15:45Z</time>
      </trkpt>
      <trkpt lat="45.69972" lon="7.19256">
        <ele>677</ele>
        <time>2018-05-14T04:16:45Z</time>
      </trkpt>
      <trkpt lat="45.69967" lon="7.19229">
        <ele>676</ele>
        <time>2018-05-14T04:17:45Z</time>
      </trkpt>
      <trkpt lat="45.69966" lon="7.19217">
        <ele>676</ele>
        <time>2018-05-14T04:18:45Z</time>
      </trkpt>
      <trkpt lat="45.69964" lon="7.19195">
        <ele>676</ele>
        <time>2018-05-14T04:19:45Z</time>
      </trkpt>
      <trkpt lat="45.69965" lon="7.19175">
        <ele>676</ele>
        <time>2018-05-14T04:20:45Z</time>
      </trkpt>
      <trkpt lat="45.69965" lon="7.19167">
        <ele>676</ele>
        <time>2018-05-14T04:21:45Z</time>
      </trkpt>
      <trkpt lat="45.69966" lon="7.19156">
        <ele>675</ele>
        <time>2018-05-14T04:22:45Z</time>
      </trkpt>
      <trkpt lat="45.69967" lon="7.19141">
        <ele>675</ele>
        <time>2018-05-14T04:23:45Z</time>
      </trkpt>
      <trkpt lat="45.69968" lon="7.1913">
        <ele>676</ele>
        <time>2018-05-14T04:24:45Z</time>
      </trkpt>
      <trkpt lat="45.69976" lon="7.191">
        <ele>676</ele>
        <time>2018-05-14T04:25:45Z</time>
      </trkpt>
      <trkpt lat="45.69989" lon="7.19061">
        <ele>677</ele>
        <time>2018-05-14T04:26:45Z</time>
      </trkpt>
      <trkpt lat="45.69989" lon="7.1906">
        <ele>677</ele>
        <time>2018-05-14T04:27:45Z</time>
      </trkpt>
      <trkpt lat="45.69995" lon="7.19047">
        <ele>678</ele>
        <time>2018-05-14T04:28:45Z</time>
      </trkpt>
      <trkpt lat="45.69999" lon="7.19037">
        <ele>678</ele>
        <time>2018-05-14T04:29:45Z</time>
      </trkpt>
      <trkpt lat="45.70001" lon="7.19034">
        <ele>674</ele>
        <time>2018-05-14T04:30:45Z</time>
      </trkpt>
      <trkpt lat="45.70085" lon="7.18884">
        <ele>679</ele>
        <time>2018-05-14T04:31:45Z</time>
      </trkpt>
      <trkpt lat="45.7012" lon="7.18822">
        <ele>690</ele>
        <time>2018-05-14T04:32:45Z</time>
      </trkpt>
      <trkpt lat="45.70123" lon="7.18816">
        <ele>690</ele>
        <time>2018-05-14T04:33:45Z</time>
      </trkpt>
      <trkpt lat="45.70133" lon="7.18798">
        <ele>691</ele>
        <time>2018-05-14T04:34:45Z</time>
      </trkpt>
      <trkpt lat="45.70143" lon="7.1878">
        <ele>692</ele>
        <time>2018-05-14T04:35:45Z</time>
      </trkpt>
      <trkpt lat="45.70185" lon="7.18707">
        <ele>694</ele>
        <time>2018-05-14T04:36:45Z</time>
      </trkpt>
      <trkpt lat="45.70244" lon="7.18598">
        <ele>712</ele>
        <time>2018-05-14T04:37:45Z</time>
      </trkpt>
      <trkpt lat="45.70254" lon="7.18581">
        <ele>712</ele>
        <time>2018-05-14T04:38:45Z</time>
      </trkpt>
      <trkpt lat="45.70288" lon="7.18523">
        <ele>713</ele>
        <time>2018-05-14T04:39:45Z</time>
      </trkpt>
      <trkpt lat="45.70294" lon="7.18511">
        <ele>713</ele>
        <time>2018-05-14T04:40:45Z</time>
      </trkpt>
      <trkpt lat="45.70298" lon="7.18502">
        <ele>712</ele>
        <time>2018-05-14T04:41:45Z</time>
      </trkpt>
      <trkpt lat="45.70303" lon="7.18486">
        <ele>718</ele>
        <time>2018-05-14T04:42:45Z</time>
      </trkpt>
      <trkpt lat="45.70309" lon="7.18465">
        <ele>718</ele>
        <time>2018-05-14T04:43:45Z</time>
      </trkpt>
      <trkpt lat="45.70311" lon="7.18452">
        <ele>718</ele>
        <time>2018-05-14T04:44:45Z</time>
      </trkpt>
      <trkpt lat="45.70314" lon="7.18432">
        <ele>718</ele>
        <time>2018-05-14T04:45:45Z</time>
      </trkpt>
      <trkpt lat="45.70316" lon="7.18414">
        <ele>720</ele>
        <time>2018-05-14T04:46:45Z</time>
      </trkpt>
      <trkpt lat="45.70315" lon="7.1838">
        <ele>726</ele>
        <time>2018-05-14T04:47:45Z</time>
      </trkpt>
      <trkpt lat="45.70312" lon="7.18347">
        <ele>726</ele>
        <time>2018-05-14T04:48:45Z</time>
      </trkpt>
      <trkpt lat="45.70309" lon="7.18267">
        <ele>733</ele>
        <time>2018-05-14T04:49:45Z</time>
      </trkpt>
      <trkpt lat="45.7031" lon="7.18241">
        <ele>737</ele>
        <time>2018-05-14T04:50:45Z</time>
      </trkpt>
      <trkpt lat="45.70312" lon="7.18215">
        <ele>741</ele>
        <time>2018-05-14T04:51:45Z</time>
      </trkpt>
      <trkpt lat="45.70317" lon="7.1819">
        <ele>740</ele>
        <time>2018-05-14T04:52:45Z</time>
      </trkpt>
      <trkpt lat="45.70325" lon="7.18165">
        <ele>736</ele>
        <time>2018-05-14T04:53:45Z</time>
      </trkpt>
      <trkpt lat="45.70329" lon="7.18156">
        <ele>739</ele>
        <time>2018-05-14T04:54:45Z</time>
      </trkpt>
      <trkpt lat="45.70337" lon="7.18141">
        <ele>728</ele>
        <time>2018-05-14T04:55:45Z</time>
      </trkpt>
      <trkpt lat="45.70343" lon="7.18132">
        <ele>729</ele>
        <time>2018-05-14T04:56:45Z</time>
      </trkpt>
      <trkpt lat="45.7035" lon="7.18123">
        <ele>729</ele>
        <time>2018-05-14T04:57:45Z</time>
      </trkpt>
      <trkpt lat="45.70355" lon="7.18116">
        <ele>730</ele>
        <time>2018-05-14T04:58:45Z</time>
      </trkpt>
      <trkpt lat="45.70361" lon="7.18111">
        <ele>730</ele>
        <time>2018-05-14T04:59:45Z</time>
      </trkpt>
      <trkpt lat="45.70371" lon="7.18104">
        <ele>729</ele>
        <time>2018-05-14T05:00:45Z</time>
      </trkpt>
      <trkpt lat="45.7039" lon="7.18089">
        <ele>727</ele>
        <time>2018-05-14T05:01:45Z</time>
      </trkpt>
      <trkpt lat="45.70442" lon="7.18043">
        <ele>728</ele>
        <time>2018-05-14T05:02:45Z</time>
      </trkpt>
      <trkpt lat="45.70456" lon="7.18028">
        <ele>728</ele>
        <time>2018-05-14T05:03:45Z</time>
      </trkpt>
      <trkpt lat="45.70484" lon="7.17995">
        <ele>732</ele>
        <time>2018-05-14T05:04:45Z</time>
      </trkpt>
      <trkpt lat="45.70507" lon="7.1796">
        <ele>725</ele>
        <time>2018-05-14T05:05:45Z</time>
      </trkpt>
      <trkpt lat="45.70557" lon="7.17885">
        <ele>731</ele>
        <time>2018-05-14T05:06:45Z</time>
      </trkpt>
      <trkpt lat="45.70567" lon="7.17868">
        <ele>732</ele>
        <time>2018-05-14T05:07:45Z</time>
      </trkpt>
      <trkpt lat="45.70573" lon="7.17851">
        <ele>733</ele>
        <time>2018-05-14T05:08:45Z</time>
      </trkpt>
      <trkpt lat="45.70579" lon="7.17833">
        <ele>736</ele>
        <time>2018-05-14T05:09:45Z</time>
      </trkpt>
      <trkpt lat="45.70581" lon="7.17823">
        <ele>738</ele>
        <time>2018-05-14T05:10:45Z</time>
      </trkpt>
      <trkpt lat="45.70584" lon="7.17809">
        <ele>733</ele>
        <time>2018-05-14T05:11:45Z</time>
      </trkpt>
      <trkpt lat="45.70587" lon="7.17792">
        <ele>734</ele>
        <time>2018-05-14T05:12:45Z</time>
      </trkpt>
      <trkpt lat="45.70588" lon="7.17775">
        <ele>737</ele>
        <time>2018-05-14T05:13:45Z</time>
      </trkpt>
      <trkpt lat="45.70588" lon="7.1777">
        <ele>739</ele>
        <time>2018-05-14T05:14:45Z</time>
      </trkpt>
      <trkpt lat="45.70588" lon="7.17757">
        <ele>744</ele>
        <time>2018-05-14T05:15:45Z</time>
      </trkpt>
      <trkpt lat="45.70585" lon="7.17724">
        <ele>743</ele>
        <time>2018-05-14T05:16:45Z</time>
      </trkpt>
      <trkpt lat="45.70577" lon="7.17665">
        <ele>758</ele>
        <time>2018-05-14T05:17:45Z</time>
      </trkpt>
      <trkpt lat="45.70571" lon="7.17624">
        <ele>761</ele>
        <time>2018-05-14T05:18:45Z</time>
      </trkpt>
      <trkpt lat="45.70557" lon="7.17549">
        <ele>755</ele>
        <time>2018-05-14T05:19:45Z</time>
      </trkpt>
      <trkpt lat="45.70546" lon="7.17498">
        <ele>745</ele>
        <time>2018-05-14T05:20:45Z</time>
      </trkpt>
      <trkpt lat="45.70536" lon="7.17449">
        <ele>745</ele>
        <time>2018-05-14T05:21:45Z</time>
      </trkpt>
      <trkpt lat="45.70521" lon="7.17396">
        <ele>740</ele>
        <time>2018-05-14T05:22:45Z</time>
      </trkpt>
      <trkpt lat="45.70503" lon="7.17335">
        <ele>745</ele>
        <time>2018-05-14T05:23:45Z</time>
      </trkpt>
      <trkpt lat="45.7048" lon="7.17254">
        <ele>755</ele>
        <time>2018-05-14T05:24:45Z</time>
      </trkpt>
      <trkpt lat="45.70469" lon="7.17215">
        <ele>757</ele>
        <time>2018-05-14T05:25:45Z</time>
      </trkpt>
      <trkpt lat="45.70457" lon="7.17185">
        <ele>759</ele>
        <time>2018-05-14T05:26:45Z</time>
      </trkpt>
      <trkpt lat="45.70449" lon="7.17164">
        <ele>754</ele>
        <time>2018-05-14T05:27:45Z</time>
      </trkpt>
      <trkpt lat="45.70438" lon="7.17143">
        <ele>755</ele>
        <time>2018-05-14T05:28:45Z</time>
      </trkpt>
      <trkpt lat="45.7042" lon="7.17118">
        <ele>753</ele>
        <time>2018-05-14T05:29:45Z</time>
      </trkpt>
      <trkpt lat="45.70407" lon="7.17103">
        <ele>772</ele>
        <time>2018-05-14T05:30:45Z</time>
      </trkpt>
      <trkpt lat="45.70391" lon="7.17085">
        <ele>775</ele>
        <time>2018-05-14T05:31:45Z</time>
      </trkpt>
      <trkpt lat="45.70374" lon="7.1706">
        <ele>768</ele>
        <time>2018-05-14T05:32:45Z</time>
      </trkpt>
      <trkpt lat="45.70357" lon="7.1703">
        <ele>767</ele>
        <time>2018-05-14T05:33:45Z</time>
      </trkpt>
      <trkpt lat="45.70354" lon="7.17022">
        <ele>766</ele>
        <time>2018-05-14T05:34:45Z</time>
      </trkpt>
      <trkpt lat="45.70351" lon="7.17012">
        <ele>765</ele>
        <time>2018-05-14T05:35:45Z</time>
      </trkpt>
      <trkpt lat="45.70345" lon="7.16991">
        <ele>759</ele>
        <time>2018-05-14T05:36:45Z</time>
      </trkpt>
      <trkpt lat="45.7034" lon="7.16972">
        <ele>757</ele>
        <time>2018-05-14T05:37:45Z</time>
      </trkpt>
      <trkpt lat="45.70339" lon="7.16967">
        <ele>756</ele>
        <time>2018-05-14T05:38:45Z</time>
      </trkpt>
      <trkpt lat="45.70334" lon="7.16942">
        <ele>754</ele>
        <time>2018-05-14T05:39:45Z</time>
      </trkpt>
      <trkpt lat="45.70334" lon="7.1694">
        <ele>754</ele>
        <time>2018-05-14T05:40:45Z</time>
      </trkpt>
      <trkpt lat="45.70331" lon="7.16913">
        <ele>756</ele>
        <time>2018-05-14T05:41:45Z</time>
      </trkpt>
      <trkpt lat="45.7033" lon="7.1689">
        <ele>760</ele>
        <time>2018-05-14T05:42:45Z</time>
      </trkpt>
      <trkpt lat="45.7033" lon="7.16873">
        <ele>760</ele>
        <time>2018-05-14T05:43:45Z</time>
      </trkpt>
      <trkpt lat="45.70332" lon="7.16848">
        <ele>758</ele>
        <time>2018-05-14T05:44:45Z</time>
      </trkpt>
      <trkpt lat="45.70357" lon="7.16709">
        <ele>752</ele>
        <time>2018-05-14T05:45:45Z</time>
      </trkpt>
      <trkpt lat="45.70381" lon="7.16581">
        <ele>753</ele>
        <time>2018-05-14T05:46:45Z</time>
      </trkpt>
      <trkpt lat="45.70387" lon="7.16544">
        <ele>753</ele>
        <time>2018-05-14T05:47:45Z</time>
      </trkpt>
      <trkpt lat="45.70388" lon="7.1653">
        <ele>753</ele>
        <time>2018-05-14T05:48:45Z</time>
      </trkpt>
      <trkpt lat="45.70389" lon="7.16511">
        <ele>753</ele>
        <time>2018-05-14T05:49:45Z</time>
      </trkpt>
      <trkpt lat="45.70389" lon="7.16488">
        <ele>752</ele>
        <time>2018-05-14T05:50:45Z</time>
      </trkpt>
      <trkpt lat="45.70386" lon="7.1647">
        <ele>752</ele>
        <time>2018-05-14T05:51:45Z</time>
      </trkpt>
      <trkpt lat="45.70381" lon="7.16449">
        <ele>752</ele>
        <time>2018-05-14T05:52:45Z</time>
      </trkpt>
      <trkpt lat="45.70375" lon="7.1643">
        <ele>752</ele>
        <time>2018-05-14T05:53:45Z</time>
      </trkpt>
      <trkpt lat="45.70368" lon="7.16413">
        <ele>747</ele>
        <time>2018-05-14T05:54:45Z</time>
      </trkpt>
      <trkpt lat="45.7036" lon="7.164">
        <ele>747</ele>
        <time>2018-05-14T05:55:45Z</time>
      </trkpt>
      <trkpt lat="45.70346" lon="7.1638">
        <ele>746</ele>
        <time>2018-05-14T05:56:45Z</time>
      </trkpt>
      <trkpt lat="45.70333" lon="7.16364">
        <ele>750</ele>
        <time>2018-05-14T05:57:45Z</time>
      </trkpt>
      <trkpt lat="45.70329" lon="7.16358">
        <ele>749</ele>
        <time>2018-05-14T05:58:45Z</time>
      </trkpt>
      <trkpt lat="45.7032" lon="7.16348">
        <ele>748</ele>
        <time>2018-05-14T05:59:45Z</time>
      </trkpt>
      <trkpt lat="45.70271" lon="7.16292">
        <ele>742</ele>
        <time>2018-05-14T06:00:45Z</time>
      </trkpt>
      <trkpt lat="45.70249" lon="7.16269">
        <ele>749</ele>
        <time>2018-05-14T06:01:45Z</time>
      </trkpt>
      <trkpt lat="45.7025" lon="7.16268">
        <ele>743</ele>
        <time>2018-05-14T06:02:45Z</time>
      </trkpt>
      <trkpt lat="45.7025" lon="7.16267">
        <ele>743</ele>
        <time>2018-05-14T06:03:45Z</time>
      </trkpt>
      <trkpt lat="45.7025" lon="7.16266">
        <ele>743</ele>
        <time>2018-05-14T06:04:45Z</time>
      </trkpt>
      <trkpt lat="45.70251" lon="7.16265">
        <ele>743</ele>
        <time>2018-05-14T06:05:45Z</time>
      </trkpt>
      <trkpt lat="45.70251" lon="7.16263">
        <ele>743</ele>
        <time>2018-05-14T06:06:45Z</time>
      </trkpt>
      <trkpt lat="45.70252" lon="7.16261">
        <ele>743</ele>
        <time>2018-05-14T06:07:45Z</time>
      </trkpt>
      <trkpt lat="45.70252" lon="7.1626">
        <ele>743</ele>
        <time>2018-05-14T06:08:45Z</time>
      </trkpt>
      <trkpt lat="45.70252" lon="7.16259">
        <ele>743</ele>
        <time>2018-05-14T06:09:45Z</time>
      </trkpt>
      <trkpt lat="45.70252" lon="7.16258">
        <ele>743</ele>
        <time>2018-05-14T06:10:45Z</time>
      </trkpt>
      <trkpt lat="45.70252" lon="7.16257">
        <ele>744</ele>
        <time>2018-05-14T06:11:45Z</time>
      </trkpt>
      <trkpt lat="45.70252" lon="7.16256">
        <ele>744</ele>
        <time>2018-05-14T06:12:45Z</time>
      </trkpt>
      <trkpt lat="45.70252" lon="7.16255">
        <ele>744</ele>
        <time>2018-05-14T06:13:45Z</time>
      </trkpt>
      <trkpt lat="45.70252" lon="7.16254">
        <ele>744</ele>
        <time>2018-05-14T06:14:45Z</time>
      </trkpt>
      <trkpt lat="45.70251" lon="7.16252">
        <ele>744</ele>
        <time>2018-05-14T06:15:45Z</time>
      </trkpt>
      <trkpt lat="45.70251" lon="7.16251">
        <ele>745</ele>
        <time>2018-05-14T06:16:45Z</time>
      </trkpt>
      <trkpt lat="45.70251" lon="7.1625">
        <ele>744</ele>
        <time>2018-05-14T06:17:45Z</time>
      </trkpt>
      <trkpt lat="45.70251" lon="7.16249">
        <ele>744</ele>
        <time>2018-05-14T06:18:45Z</time>
      </trkpt>
      <trkpt lat="45.7025" lon="7.16248">
        <ele>744</ele>
        <time>2018-05-14T06:19:45Z</time>
      </trkpt>
      <trkpt lat="45.7025" lon="7.16247">
        <ele>743</ele>
        <time>2018-05-14T06:20:45Z</time>
      </trkpt>
      <trkpt lat="45.70249" lon="7.16246">
        <ele>745</ele>
        <time>2018-05-14T06:21:45Z</time>
      </trkpt>
      <trkpt lat="45.70249" lon="7.16245">
        <ele>745</ele>
        <time>2018-05-14T06:22:45Z</time>
      </trkpt>
      <trkpt lat="45.70248" lon="7.16244">
        <ele>745</ele>
        <time>2018-05-14T06:23:45Z</time>
      </trkpt>
      <trkpt lat="45.70247" lon="7.16243">
        <ele>745</ele>
        <time>2018-05-14T06:24:45Z</time>
      </trkpt>
      <trkpt lat="45.70246" lon="7.16242">
        <ele>745</ele>
        <time>2018-05-14T06:25:45Z</time>
      </trkpt>
      <trkpt lat="45.70246" lon="7.16241">
        <ele>745</ele>
        <time>2018-05-14T06:26:45Z</time>
      </trkpt>
      <trkpt lat="45.70245" lon="7.16241">
        <ele>745</ele>
        <time>2018-05-14T06:27:45Z</time>
      </trkpt>
      <trkpt lat="45.70244" lon="7.1624">
        <ele>745</ele>
        <time>2018-05-14T06:28:45Z</time>
      </trkpt>
      <trkpt lat="45.70243" lon="7.16239">
        <ele>745</ele>
        <time>2018-05-14T06:29:45Z</time>
      </trkpt>
      <trkpt lat="45.70242" lon="7.16239">
        <ele>745</ele>
        <time>2018-05-14T06:30:45Z</time>
      </trkpt>
      <trkpt lat="45.70241" lon="7.16239">
        <ele>745</ele>
        <time>2018-05-14T06:31:45Z</time>
      </trkpt>
      <trkpt lat="45.7024" lon="7.16238">
        <ele>745</ele>
        <time>2018-05-14T06:32:45Z</time>
      </trkpt>
      <trkpt lat="45.70239" lon="7.16238">
        <ele>745</ele>
        <time>2018-05-14T06:33:45Z</time>
      </trkpt>
      <trkpt lat="45.70238" lon="7.16238">
        <ele>745</ele>
        <time>2018-05-14T06:34:45Z</time>
      </trkpt>
      <trkpt lat="45.70237" lon="7.16238">
        <ele>745</ele>
        <time>2018-05-14T06:35:45Z</time>
      </trkpt>
      <trkpt lat="45.70236" lon="7.16239">
        <ele>745</ele>
        <time>2018-05-14T06:36:45Z</time>
      </trkpt>
      <trkpt lat="45.70235" lon="7.16239">
        <ele>745</ele>
        <time>2018-05-14T06:37:45Z</time>
      </trkpt>
      <trkpt lat="45.70234" lon="7.16239">
        <ele>745</ele>
        <time>2018-05-14T06:38:45Z</time>
      </trkpt>
      <trkpt lat="45.70234" lon="7.1624">
        <ele>745</ele>
        <time>2018-05-14T06:39:45Z</time>
      </trkpt>
      <trkpt lat="45.70233" lon="7.1624">
        <ele>745</ele>
        <time>2018-05-14T06:40:45Z</time>
      </trkpt>
      <trkpt lat="45.70232" lon="7.1624">
        <ele>745</ele>
        <time>2018-05-14T06:41:45Z</time>
      </trkpt>
      <trkpt lat="45.70231" lon="7.16241">
        <ele>745</ele>
        <time>2018-05-14T06:42:45Z</time>
      </trkpt>
      <trkpt lat="45.70218" lon="7.1621">
        <ele>744</ele>
        <time>2018-05-14T06:43:45Z</time>
      </trkpt>
      <trkpt lat="45.70209" lon="7.16185">
        <ele>743</ele>
        <time>2018-05-14T06:44:45Z</time>
      </trkpt>
      <trkpt lat="45.70199" lon="7.16149">
        <ele>738</ele>
        <time>2018-05-14T06:45:45Z</time>
      </trkpt>
      <trkpt lat="45.70194" lon="7.16123">
        <ele>738</ele>
        <time>2018-05-14T06:46:45Z</time>
      </trkpt>
      <trkpt lat="45.70191" lon="7.16096">
        <ele>737</ele>
        <time>2018-05-14T06:47:45Z</time>
      </trkpt>
      <trkpt lat="45.70191" lon="7.16082">
        <ele>732</ele>
        <time>2018-05-14T06:48:45Z</time>
      </trkpt>
      <trkpt lat="45.70191" lon="7.16062">
        <ele>730</ele>
        <time>2018-05-14T06:49:45Z</time>
      </trkpt>
      <trkpt lat="45.70193" lon="7.16042">
        <ele>728</ele>
        <time>2018-05-14T06:50:45Z</time>
      </trkpt>
      <trkpt lat="45.70198" lon="7.15997">
        <ele>722</ele>
        <time>2018-05-14T06:51:45Z</time>
      </trkpt>
      <trkpt lat="45.70209" lon="7.15891">
        <ele>725</ele>
        <time>2018-05-14T06:52:45Z</time>
      </trkpt>
      <trkpt lat="45.70221" lon="7.158">
        <ele>732</ele>
        <time>2018-05-14T06:53:45Z</time>
      </trkpt>
      <trkpt lat="45.7023" lon="7.15717">
        <ele>736</ele>
        <time>2018-05-14T06:54:45Z</time>
      </trkpt>
      <trkpt lat="45.7024" lon="7.15648">
        <ele>739</ele>
        <time>2018-05-14T06:55:45Z</time>
      </trkpt>
      <trkpt lat="45.70244" lon="7.15624">
        <ele>740</ele>
        <time>2018-05-14T06:56:45Z</time>
      </trkpt>
      <trkpt lat="45.70249" lon="7.15604">
        <ele>741</ele>
        <time>2018-05-14T06:57:45Z</time>
      </trkpt>
      <trkpt lat="45.70253" lon="7.15593">
        <ele>738</ele>
        <time>2018-05-14T06:58:45Z</time>
      </trkpt>
      <trkpt lat="45.70271" lon="7.15546">
        <ele>737</ele>
        <time>2018-05-14T06:59:45Z</time>
      </trkpt>
      <trkpt lat="45.70276" lon="7.15533">
        <ele>737</ele>
        <time>2018-05-14T07:00:45Z</time>
      </trkpt>
      <trkpt lat="45.703" lon="7.15475">
        <ele>740</ele>
        <time>2018-05-14T07:01:45Z</time>
      </trkpt>
      <trkpt lat="45.70317" lon="7.15436">
        <ele>742</ele>
        <time>2018-05-14T07:02:45Z</time>
      </trkpt>
      <trkpt lat="45.70335" lon="7.15389">
        <ele>744</ele>
        <time>2018-05-14T07:03:45Z</time>
      </trkpt>
      <trkpt lat="45.70344" lon="7.15361">
        <ele>748</ele>
        <time>2018-05-14T07:04:45Z</time>
      </trkpt>
      <trkpt lat="45.70346" lon="7.15353">
        <ele>750</ele>
        <time>2018-05-14T07:05:45Z</time>
      </trkpt>
      <trkpt lat="45.70349" lon="7.15336">
        <ele>753</ele>
        <time>2018-05-14T07:06:45Z</time>
      </trkpt>
      <trkpt lat="45.70361" lon="7.15259">
        <ele>773</ele>
        <time>2018-05-14T07:07:45Z</time>
      </trkpt>
      <trkpt lat="45.70378" lon="7.15165">
        <ele>803</ele>
        <time>2018-05-14T07:08:45Z</time>
      </trkpt>
      <trkpt lat="45.70392" lon="7.15083">
        <ele>803</ele>
        <time>2018-05-14T07:09:45Z</time>
      </trkpt>
      <trkpt lat="45.70406" lon="7.14997">
        <ele>794</ele>
        <time>2018-05-14T07:10:45Z</time>
      </trkpt>
      <trkpt lat="45.70414" lon="7.14943">
        <ele>800</ele>
        <time>2018-05-14T07:11:45Z</time>
      </trkpt>
      <trkpt lat="45.70422" lon="7.1491">
        <ele>775</ele>
        <time>2018-05-14T07:12:45Z</time>
      </trkpt>
      <trkpt lat="45.70435" lon="7.14847">
        <ele>770</ele>
        <time>2018-05-14T07:13:45Z</time>
      </trkpt>
      <trkpt lat="45.70458" lon="7.14766">
        <ele>765</ele>
        <time>2018-05-14T07:14:45Z</time>
      </trkpt>
      <trkpt lat="45.70506" lon="7.14607">
        <ele>754</ele>
        <time>2018-05-14T07:15:45Z</time>
      </trkpt>
      <trkpt lat="45.70507" lon="7.14602">
        <ele>755</ele>
        <time>2018-05-14T07:16:45Z</time>
      </trkpt>
      <trkpt lat="45.70515" lon="7.14576">
        <ele>761</ele>
        <time>2018-05-14T07:17:45Z</time>
      </trkpt>
      <trkpt lat="45.70528" lon="7.14517">
        <ele>760</ele>
        <time>2018-05-14T07:18:45Z</time>
      </trkpt>
      <trkpt lat="45.70538" lon="7.14481">
        <ele>766</ele>
        <time>2018-05-14T07:19:45Z</time>
      </trkpt>
      <trkpt lat="45.70544" lon="7.1445">
        <ele>767</ele>
        <time>2018-05-14T07:20:45Z</time>
      </trkpt>
      <trkpt lat="45.7055" lon="7.14418">
        <ele>765</ele>
        <time>2018-05-14T07:21:45Z</time>
      </trkpt>
      <trkpt lat="45.70551" lon="7.14412">
        <ele>772</ele>
        <time>2018-05-14T07:22:45Z</time>
      </trkpt>
      <trkpt lat="45.70558" lon="7.14371">
        <ele>773</ele>
        <time>2018-05-14T07:23:45Z</time>
      </trkpt>
      <trkpt lat="45.70572" lon="7.14294">
        <ele>776</ele>
        <time>2018-05-14T07:24:45Z</time>
      </trkpt>
      <trkpt lat="45.70615" lon="7.14065">
        <ele>768</ele>
        <time>2018-05-14T07:25:45Z</time>
      </trkpt>
      <trkpt lat="45.70636" lon="7.1397">
        <ele>774</ele>
        <time>2018-05-14T07:26:45Z</time>
      </trkpt>
      <trkpt lat="45.70653" lon="7.13908">
        <ele>776</ele>
        <time>2018-05-14T07:27:45Z</time>
      </trkpt>
      <trkpt lat="45.7066" lon="7.13878">
        <ele>783</ele>
        <time>2018-05-14T07:28:45Z</time>
      </trkpt>
      <trkpt lat="45.70663" lon="7.13857">
        <ele>784</ele>
        <time>2018-05-14T07:29:45Z</time>
      </trkpt>
      <trkpt lat="45.70663" lon="7.1384">
        <ele>784</ele>
        <time>2018-05-14T07:30:45Z</time>
      </trkpt>
      <trkpt lat="45.70665" lon="7.138">
        <ele>796</ele>
        <time>2018-05-14T07:31:45Z</time>
      </trkpt>
      <trkpt lat="45.70664" lon="7.1374">
        <ele>800</ele>
        <time>2018-05-14T07:32:45Z</time>
      </trkpt>
      <trkpt lat="45.70661" lon="7.13702">
        <ele>802</ele>
        <time>2018-05-14T07:33:45Z</time>
      </trkpt>
      <trkpt lat="45.70653" lon="7.13658">
        <ele>796</ele>
        <time>2018-05-14T07:34:45Z</time>
      </trkpt>
      <trkpt lat="45.70652" lon="7.13655">
        <ele>796</ele>
        <time>2018-05-14T07:35:45Z</time>
      </trkpt>
      <trkpt lat="45.70652" lon="7.13653">
        <ele>797</ele>
        <time>2018-05-14T07:36:45Z</time>
      </trkpt>
      <trkpt lat="45.70639" lon="7.13595">
        <ele>796</ele>
        <time>2018-05-14T07:37:45Z</time>
      </trkpt>
      <trkpt lat="45.7064" lon="7.13595">
        <ele>796</ele>
        <time>2018-05-14T07:38:45Z</time>
      </trkpt>
      <trkpt lat="45.70641" lon="7.13595">
        <ele>796</ele>
        <time>2018-05-14T07:39:45Z</time>
      </trkpt>
      <trkpt lat="45.70642" lon="7.13595">
        <ele>795</ele>
        <time>2018-05-14T07:40:45Z</time>
      </trkpt>
      <trkpt lat="45.70642" lon="7.13594">
        <ele>795</ele>
        <time>2018-05-14T07:41:45Z</time>
      </trkpt>
      <trkpt lat="45.70643" lon="7.13594">
        <ele>795</ele>
        <time>2018-05-14T07:42:45Z</time>
      </trkpt>
      <trkpt lat="45.70644" lon="7.13593">
        <ele>794</ele>
        <time>2018-05-14T07:43:45Z</time>
      </trkpt>
      <trkpt lat="45.70645" lon="7.13593">
        <ele>794</ele>
        <time>2018-05-14T07:44:45Z</time>
      </trkpt>
      <trkpt lat="45.70645" lon="7.13592">
        <ele>794</ele>
        <time>2018-05-14T07:45:45Z</time>
      </trkpt>
      <trkpt lat="45.70646" lon="7.13591">
        <ele>793</ele>
        <time>2018-05-14T07:46:45Z</time>
      </trkpt>
      <trkpt lat="45.70647" lon="7.1359">
        <ele>793</ele>
        <time>2018-05-14T07:47:45Z</time>
      </trkpt>
      <trkpt lat="45.70648" lon="7.13589">
        <ele>792</ele>
        <time>2018-05-14T07:48:45Z</time>
      </trkpt>
      <trkpt lat="45.70648" lon="7.13588">
        <ele>792</ele>
        <time>2018-05-14T07:49:45Z</time>
      </trkpt>
      <trkpt lat="45.70649" lon="7.13587">
        <ele>791</ele>
        <time>2018-05-14T07:50:45Z</time>
      </trkpt>
      <trkpt lat="45.70649" lon="7.13586">
        <ele>791</ele>
        <time>2018-05-14T07:51:45Z</time>
      </trkpt>
      <trkpt lat="45.70649" lon="7.13585">
        <ele>791</ele>
        <time>2018-05-14T07:52:45Z</time>
      </trkpt>
      <trkpt lat="45.7065" lon="7.13584">
        <ele>791</ele>
        <time>2018-05-14T07:53:45Z</time>
      </trkpt>
      <trkpt lat="45.7065" lon="7.13583">
        <ele>788</ele>
        <time>2018-05-14T07:54:45Z</time>
      </trkpt>
      <trkpt lat="45.7065" lon="7.13582">
        <ele>788</ele>
        <time>2018-05-14T07:55:45Z</time>
      </trkpt>
      <trkpt lat="45.70651" lon="7.13581">
        <ele>787</ele>
        <time>2018-05-14T07:56:45Z</time>
      </trkpt>
      <trkpt lat="45.70651" lon="7.1358">
        <ele>787</ele>
        <time>2018-05-14T07:57:45Z</time>
      </trkpt>
      <trkpt lat="45.70651" lon="7.13579">
        <ele>787</ele>
        <time>2018-05-14T07:58:45Z</time>
      </trkpt>
      <trkpt lat="45.70651" lon="7.13577">
        <ele>788</ele>
        <time>2018-05-14T07:59:45Z</time>
      </trkpt>
      <trkpt lat="45.70651" lon="7.13576">
        <ele>788</ele>
        <time>2018-05-14T08:00:45Z</time>
      </trkpt>
      <trkpt lat="45.70651" lon="7.13575">
        <ele>788</ele>
        <time>2018-05-14T08:01:45Z</time>
      </trkpt>
      <trkpt lat="45.70651" lon="7.13574">
        <ele>788</ele>
        <time>2018-05-14T08:02:45Z</time>
      </trkpt>
      <trkpt lat="45.70651" lon="7.13573">
        <ele>788</ele>
        <time>2018-05-14T08:03:45Z</time>
      </trkpt>
      <trkpt lat="45.70651" lon="7.13572">
        <ele>788</ele>
        <time>2018-05-14T08:04:45Z</time>
      </trkpt>
      <trkpt lat="45.7065" lon="7.13571">
        <ele>789</ele>
        <time>2018-05-14T08:05:45Z</time>
      </trkpt>
      <trkpt lat="45.7065" lon="7.1357">
        <ele>789</ele>
        <time>2018-05-14T08:06:45Z</time>
      </trkpt>
      <trkpt lat="45.7065" lon="7.13569">
        <ele>789</ele>
        <time>2018-05-14T08:07:45Z</time>
      </trkpt>
      <trkpt lat="45.70649" lon="7.13568">
        <ele>789</ele>
        <time>2018-05-14T08:08:45Z</time>
      </trkpt>
      <trkpt lat="45.70649" lon="7.13567">
        <ele>790</ele>
        <time>2018-05-14T08:09:45Z</time>
      </trkpt>
      <trkpt lat="45.70649" lon="7.13566">
        <ele>790</ele>
        <time>2018-05-14T08:10:45Z</time>
      </trkpt>
      <trkpt lat="45.70648" lon="7.13565">
        <ele>790</ele>
        <time>2018-05-14T08:11:45Z</time>
      </trkpt>
      <trkpt lat="45.70648" lon="7.13564">
        <ele>790</ele>
        <time>2018-05-14T08:12:45Z</time>
      </trkpt>
      <trkpt lat="45.70647" lon="7.13563">
        <ele>791</ele>
        <time>2018-05-14T08:13:45Z</time>
      </trkpt>
      <trkpt lat="45.70646" lon="7.13562">
        <ele>791</ele>
        <time>2018-05-14T08:14:45Z</time>
      </trkpt>
      <trkpt lat="45.70646" lon="7.13561">
        <ele>791</ele>
        <time>2018-05-14T08:15:45Z</time>
      </trkpt>
      <trkpt lat="45.70645" lon="7.13561">
        <ele>791</ele>
        <time>2018-05-14T08:16:45Z</time>
      </trkpt>
      <trkpt lat="45.70645" lon="7.1356">
        <ele>791</ele>
        <time>2018-05-14T08:17:45Z</time>
      </trkpt>
      <trkpt lat="45.70644" lon="7.13559">
        <ele>792</ele>
        <time>2018-05-14T08:18:45Z</time>
      </trkpt>
      <trkpt lat="45.70643" lon="7.13559">
        <ele>792</ele>
        <time>2018-05-14T08:19:45Z</time>
      </trkpt>
      <trkpt lat="45.70642" lon="7.13558">
        <ele>792</ele>
        <time>2018-05-14T08:20:45Z</time>
      </trkpt>
      <trkpt lat="45.70641" lon="7.13558">
        <ele>792</ele>
        <time>2018-05-14T08:21:45Z</time>
      </trkpt>
      <trkpt lat="45.7064" lon="7.13558">
        <ele>792</ele>
        <time>2018-05-14T08:22:45Z</time>
      </trkpt>
      <trkpt lat="45.70639" lon="7.13557">
        <ele>793</ele>
        <time>2018-05-14T08:23:45Z</time>
      </trkpt>
      <trkpt lat="45.70638" lon="7.13557">
        <ele>793</ele>
        <time>2018-05-14T08:24:45Z</time>
      </trkpt>
      <trkpt lat="45.70637" lon="7.13557">
        <ele>793</ele>
        <time>2018-05-14T08:25:45Z</time>
      </trkpt>
      <trkpt lat="45.70636" lon="7.13557">
        <ele>793</ele>
        <time>2018-05-14T08:26:45Z</time>
      </trkpt>
      <trkpt lat="45.70635" lon="7.13557">
        <ele>793</ele>
        <time>2018-05-14T08:27:45Z</time>
      </trkpt>
      <trkpt lat="45.70635" lon="7.13558">
        <ele>793</ele>
        <time>2018-05-14T08:28:45Z</time>
      </trkpt>
      <trkpt lat="45.70634" lon="7.13558">
        <ele>794</ele>
        <time>2018-05-14T08:29:45Z</time>
      </trkpt>
      <trkpt lat="45.70633" lon="7.13558">
        <ele>794</ele>
        <time>2018-05-14T08:30:45Z</time>
      </trkpt>
      <trkpt lat="45.70632" lon="7.13559">
        <ele>794</ele>
        <time>2018-05-14T08:31:45Z</time>
      </trkpt>
      <trkpt lat="45.70631" lon="7.1356">
        <ele>794</ele>
        <time>2018-05-14T08:32:45Z</time>
      </trkpt>
      <trkpt lat="45.7063" lon="7.1356">
        <ele>794</ele>
        <time>2018-05-14T08:33:45Z</time>
      </trkpt>
      <trkpt lat="45.70629" lon="7.13561">
        <ele>795</ele>
        <time>2018-05-14T08:34:45Z</time>
      </trkpt>
      <trkpt lat="45.70629" lon="7.13562">
        <ele>795</ele>
        <time>2018-05-14T08:35:45Z</time>
      </trkpt>
      <trkpt lat="45.70628" lon="7.13562">
        <ele>795</ele>
        <time>2018-05-14T08:36:45Z</time>
      </trkpt>
      <trkpt lat="45.70628" lon="7.13563">
        <ele>795</ele>
        <time>2018-05-14T08:37:45Z</time>
      </trkpt>
      <trkpt lat="45.70627" lon="7.13564">
        <ele>795</ele>
        <time>2018-05-14T08:38:45Z</time>
      </trkpt>
      <trkpt lat="45.70627" lon="7.13565">
        <ele>795</ele>
        <time>2018-05-14T08:39:45Z</time>
      </trkpt>
      <trkpt lat="45.70626" lon="7.13566">
        <ele>795</ele>
        <time>2018-05-14T08:40:45Z</time>
      </trkpt>
      <trkpt lat="45.70626" lon="7.13567">
        <ele>795</ele>
        <time>2018-05-14T08:41:45Z</time>
      </trkpt>
      <trkpt lat="45.70612" lon="7.13555">
        <ele>798</ele>
        <time>2018-05-14T08:42:45Z</time>
      </trkpt>
      <trkpt lat="45.70609" lon="7.13552">
        <ele>798</ele>
        <time>2018-05-14T08:43:45Z</time>
      </trkpt>
      <trkpt lat="45.70596" lon="7.13531">
        <ele>798</ele>
        <time>2018-05-14T08:44:45Z</time>
      </trkpt>
      <trkpt lat="45.70583" lon="7.13489">
        <ele>806</ele>
        <time>2018-05-14T08:45:45Z</time>
      </trkpt>
      <trkpt lat="45.70572" lon="7.13444">
        <ele>810</ele>
        <time>2018-05-14T08:46:45Z</time>
      </trkpt>
      <trkpt lat="45.70571" lon="7.13444">
        <ele>810</ele>
        <time>2018-05-14T08:47:45Z</time>
      </trkpt>
      <trkpt lat="45.70566" lon="7.13386">
        <ele>808</ele>
        <time>2018-05-14T08:48:45Z</time>
      </trkpt>
      <trkpt lat="45.70566" lon="7.13379">
        <ele>808</ele>
        <time>2018-05-14T08:49:45Z</time>
      </trkpt>
      <trkpt lat="45.70559" lon="7.13304">
        <ele>810</ele>
        <time>2018-05-14T08:50:45Z</time>
      </trkpt>
      <trkpt lat="45.70549" lon="7.13163">
        <ele>813</ele>
        <time>2018-05-14T08:51:45Z</time>
      </trkpt>
      <trkpt lat="45.70548" lon="7.13104">
        <ele>812</ele>
        <time>2018-05-14T08:52:45Z</time>
      </trkpt>
      <trkpt lat="45.70547" lon="7.13088">
        <ele>811</ele>
        <time>2018-05-14T08:53:45Z</time>
      </trkpt>
      <trkpt lat="45.70549" lon="7.13053">
        <ele>809</ele>
        <time>2018-05-14T08:54:45Z</time>
      </trkpt>
      <trkpt lat="45.7055" lon="7.13041">
        <ele>810</ele>
        <time>2018-05-14T08:55:45Z</time>
      </trkpt>
      <trkpt lat="45.70557" lon="7.13002">
        <ele>807</ele>
        <time>2018-05-14T08:56:45Z</time>
      </trkpt>
      <trkpt lat="45.70564" lon="7.12971">
        <ele>809</ele>
        <time>2018-05-14T08:57:45Z</time>
      </trkpt>
      <trkpt lat="45.70678" lon="7.12561">
        <ele>795</ele>
        <time>2018-05-14T08:58:45Z</time>
      </trkpt>
      <trkpt lat="45.70682" lon="7.1255">
        <ele>794</ele>
        <time>2018-05-14T08:59:45Z</time>
      </trkpt>
      <trkpt lat="45.70683" lon="7.12546">
        <ele>794</ele>
        <time>2018-05-14T09:00:45Z</time>
      </trkpt>
      <trkpt lat="45.70726" lon="7.12444">
        <ele>800</ele>
        <time>2018-05-14T09:01:45Z</time>
      </trkpt>
      <trkpt lat="45.70748" lon="7.12408">
        <ele>803</ele>
        <time>2018-05-14T09:02:45Z</time>
      </trkpt>
      <trkpt lat="45.70764" lon="7.12385">
        <ele>807</ele>
        <time>2018-05-14T09:03:45Z</time>
      </trkpt>
      <trkpt lat="45.70765" lon="7.12383">
        <ele>807</ele>
        <time>2018-05-14T09:04:45Z</time>
      </trkpt>
      <trkpt lat="45.70778" lon="7.12365">
        <ele>810</ele>
        <time>2018-05-14T09:05:45Z</time>
      </trkpt>
      <trkpt lat="45.70781" lon="7.12361">
        <ele>811</ele>
        <time>2018-05-14T09:06:45Z</time>
      </trkpt>
      <trkpt lat="45.70887" lon="7.12244">
        <ele>860</ele>
        <time>2018-05-14T09:07:45Z</time>
      </trkpt>
      <trkpt lat="45.71049" lon="7.11995">
        <ele>825</ele>
        <time>2018-05-14T09:08:45Z</time>
      </trkpt>
      <trkpt lat="45.71066" lon="7.11956">
        <ele>823</ele>
        <time>2018-05-14T09:09:45Z</time>
      </trkpt>
      <trkpt lat="45.71075" lon="7.11929">
        <ele>818</ele>
        <time>2018-05-14T09:10:45Z</time>
      </trkpt>
      <trkpt lat="45.71079" lon="7.1192">
        <ele>811</ele>
        <time>2018-05-14T09:11:45Z</time>
      </trkpt>
      <trkpt lat="45.7114" lon="7.11747">
        <ele>819</ele>
        <time>2018-05-14T09:12:45Z</time>
      </trkpt>
      <trkpt lat="45.71172" lon="7.1168">
        <ele>801</ele>
        <time>2018-05-14T09:13:45Z</time>
      </trkpt>
      <trkpt lat="45.71185" lon="7.11659">
        <ele>806</ele>
        <time>2018-05-14T09:14:45Z</time>
      </trkpt>
      <trkpt lat="45.71193" lon="7.11645">
        <ele>805</ele>
        <time>2018-05-14T09:15:45Z</time>
      </trkpt>
      <trkpt lat="45.71207" lon="7.11624">
        <ele>804</ele>
        <time>2018-05-14T09:16:45Z</time>
      </trkpt>
      <trkpt lat="45.71222" lon="7.11598">
        <ele>802</ele>
        <time>2018-05-14T09:17:45Z</time>
      </trkpt>
      <trkpt lat="45.71233" lon="7.11577">
        <ele>806</ele>
        <time>2018-05-14T09:18:45Z</time>
      </trkpt>
      <trkpt lat="45.71259" lon="7.1152">
        <ele>795</ele>
        <time>2018-05-14T09:19:45Z</time>
      </trkpt>
      <trkpt lat="45.71301" lon="7.11416">
        <ele>809</ele>
        <time>2018-05-14T09:20:45Z</time>
      </trkpt>
      <trkpt lat="45.71315" lon="7.11388">
        <ele>809</ele>
        <time>2018-05-14T09:21:45Z</time>
      </trkpt>
      <trkpt lat="45.71357" lon="7.11324">
        <ele>804</ele>
        <time>2018-05-14T09:22:45Z</time>
      </trkpt>
      <trkpt lat="45.71475" lon="7.11165">
        <ele>811</ele>
        <time>2018-05-14T09:23:45Z</time>
      </trkpt>
      <trkpt lat="45.71494" lon="7.1114">
        <ele>811</ele>
        <time>2018-05-14T09:24:45Z</time>
      </trkpt>
      <trkpt lat="45.71509" lon="7.11124">
        <ele>797</ele>
        <time>2018-05-14T09:25:45Z</time>
      </trkpt>
      <trkpt lat="45.7153" lon="7.11113">
        <ele>797</ele>
        <time>2018-05-14T09:26:45Z</time>
      </trkpt>
      <trkpt lat="45.7154" lon="7.11109">
        <ele>796</ele>
        <time>2018-05-14T09:27:45Z</time>
      </trkpt>
      <trkpt lat="45.71547" lon="7.11106">
        <ele>795</ele>
        <time>2018-05-14T09:28:45Z</time>
      </trkpt>
      <trkpt lat="45.71554" lon="7.11105">
        <ele>794</ele>
        <time>2018-05-14T09:29:45Z</time>
      </trkpt>
      <trkpt lat="45.71562" lon="7.11105">
        <ele>793</ele>
        <time>2018-05-14T09:30:45Z</time>
      </trkpt>
      <trkpt lat="45.71567" lon="7.11105">
        <ele>792</ele>
        <time>2018-05-14T09:31:45Z</time>
      </trkpt>
      <trkpt lat="45.71577" lon="7.11107">
        <ele>791</ele>
        <time>2018-05-14T09:32:45Z</time>
      </trkpt>
      <trkpt lat="45.71583" lon="7.11107">
        <ele>791</ele>
        <time>2018-05-14T09:33:45Z</time>
      </trkpt>
      <trkpt lat="45.71589" lon="7.11108">
        <ele>790</ele>
        <time>2018-05-14T09:34:45Z</time>
      </trkpt>
      <trkpt lat="45.71601" lon="7.11107">
        <ele>790</ele>
        <time>2018-05-14T09:35:45Z</time>
      </trkpt>
      <trkpt lat="45.71611" lon="7.11105">
        <ele>791</ele>
        <time>2018-05-14T09:36:45Z</time>
      </trkpt>
      <trkpt lat="45.71618" lon="7.11102">
        <ele>791</ele>
        <time>2018-05-14T09:37:45Z</time>
      </trkpt>
      <trkpt lat="45.71624" lon="7.11098">
        <ele>792</ele>
        <time>2018-05-14T09:38:45Z</time>
      </trkpt>
      <trkpt lat="45.71632" lon="7.11092">
        <ele>792</ele>
        <time>2018-05-14T09:39:45Z</time>
      </trkpt>
      <trkpt lat="45.7164" lon="7.11086">
        <ele>792</ele>
        <time>2018-05-14T09:40:45Z</time>
      </trkpt>
      <trkpt lat="45.71651" lon="7.11076">
        <ele>791</ele>
        <time>2018-05-14T09:41:45Z</time>
      </trkpt>
      <trkpt lat="45.71661" lon="7.11064">
        <ele>791</ele>
        <time>2018-05-14T09:42:45Z</time>
      </trkpt>
      <trkpt lat="45.71668" lon="7.11055">
        <ele>796</ele>
        <time>2018-05-14T09:43:45Z</time>
      </trkpt>
      <trkpt lat="45.71673" lon="7.11049">
        <ele>796</ele>
        <time>2018-05-14T09:44:45Z</time>
      </trkpt>
      <trkpt lat="45.7168" lon="7.11039">
        <ele>796</ele>
        <time>2018-05-14T09:45:45Z</time>
      </trkpt>
      <trkpt lat="45.71691" lon="7.11024">
        <ele>796</ele>
        <time>2018-05-14T09:46:45Z</time>
      </trkpt>
      <trkpt lat="45.71699" lon="7.11013">
        <ele>796</ele>
        <time>2018-05-14T09:47:45Z</time>
      </trkpt>
      <trkpt lat="45.7171" lon="7.10994">
        <ele>792</ele>
        <time>2018-05-14T09:48:45Z</time>
      </trkpt>
      <trkpt lat="45.71721" lon="7.10977">
        <ele>792</ele>
        <time>2018-05-14T09:49:45Z</time>
      </trkpt>
      <trkpt lat="45.71729" lon="7.10961">
        <ele>792</ele>
        <time>2018-05-14T09:50:45Z</time>
      </trkpt>
      <trkpt lat="45.71733" lon="7.10953">
        <ele>791</ele>
        <time>2018-05-14T09:51:45Z</time>
      </trkpt>
      <trkpt lat="45.71736" lon="7.10945">
        <ele>791</ele>
        <time>2018-05-14T09:52:45Z</time>
      </trkpt>
      <trkpt lat="45.71741" lon="7.10935">
        <ele>790</ele>
        <time>2018-05-14T09:53:45Z</time>
      </trkpt>
      <trkpt lat="45.71743" lon="7.10928">
        <ele>789</ele>
        <time>2018-05-14T09:54:45Z</time>
      </trkpt>
      <trkpt lat="45.71748" lon="7.10915">
        <ele>788</ele>
        <time>2018-05-14T09:55:45Z</time>
      </trkpt>
      <trkpt lat="45.7175" lon="7.10906">
        <ele>795</ele>
        <time>2018-05-14T09:56:45Z</time>
      </trkpt>
      <trkpt lat="45.71768" lon="7.10835">
        <ele>801</ele>
        <time>2018-05-14T09:57:45Z</time>
      </trkpt>
      <trkpt lat="45.71777" lon="7.10801">
        <ele>802</ele>
        <time>2018-05-14T09:58:45Z</time>
      </trkpt>
      <trkpt lat="45.71786" lon="7.10774">
        <ele>801</ele>
        <time>2018-05-14T09:59:45Z</time>
      </trkpt>
      <trkpt lat="45.7179" lon="7.10764">
        <ele>801</ele>
        <time>2018-05-14T10:00:45Z</time>
      </trkpt>
      <trkpt lat="45.71799" lon="7.10743">
        <ele>794</ele>
        <time>2018-05-14T10:01:45Z</time>
      </trkpt>
      <trkpt lat="45.71808" lon="7.10723">
        <ele>794</ele>
        <time>2018-05-14T10:02:45Z</time>
      </trkpt>
      <trkpt lat="45.7184" lon="7.10665">
        <ele>795</ele>
        <time>2018-05-14T10:03:45Z</time>
      </trkpt>
      <trkpt lat="45.71856" lon="7.10635">
        <ele>798</ele>
        <time>2018-05-14T10:04:45Z</time>
      </trkpt>
      <trkpt lat="45.71862" lon="7.10622">
        <ele>798</ele>
        <time>2018-05-14T10:05:45Z</time>
      </trkpt>
      <trkpt lat="45.71871" lon="7.10606">
        <ele>798</ele>
        <time>2018-05-14T10:06:45Z</time>
      </trkpt>
      <trkpt lat="45.71902" lon="7.10549">
        <ele>792</ele>
        <time>2018-05-14T10:07:45Z</time>
      </trkpt>
      <trkpt lat="45.71921" lon="7.10514">
        <ele>798</ele>
        <time>2018-05-14T10:08:45Z</time>
      </trkpt>
      <trkpt lat="45.71936" lon="7.10487">
        <ele>796</ele>
        <time>2018-05-14T10:09:45Z</time>
      </trkpt>
      <trkpt lat="45.71956" lon="7.1045">
        <ele>798</ele>
        <time>2018-05-14T10:10:45Z</time>
      </trkpt>
      <trkpt lat="45.7198" lon="7.10406">
        <ele>795</ele>
        <time>2018-05-14T10:11:45Z</time>
      </trkpt>
      <trkpt lat="45.71982" lon="7.10402">
        <ele>795</ele>
        <time>2018-05-14T10:12:45Z</time>
      </trkpt>
      <trkpt lat="45.72015" lon="7.10341">
        <ele>800</ele>
        <time>2018-05-14T10:13:45Z</time>
      </trkpt>
      <trkpt lat="45.7203" lon="7.10315">
        <ele>798</ele>
        <time>2018-05-14T10:14:45Z</time>
      </trkpt>
      <trkpt lat="45.7204" lon="7.10299">
        <ele>799</ele>
        <time>2018-05-14T10:15:45Z</time>
      </trkpt>
      <trkpt lat="45.72047" lon="7.10287">
        <ele>799</ele>
        <time>2018-05-14T10:16:45Z</time>
      </trkpt>
      <trkpt lat="45.72052" lon="7.1028">
        <ele>799</ele>
        <time>2018-05-14T10:17:45Z</time>
      </trkpt>
      <trkpt lat="45.72058" lon="7.10272">
        <ele>799</ele>
        <time>2018-05-14T10:18:45Z</time>
      </trkpt>
      <trkpt lat="45.72082" lon="7.10242">
        <ele>798</ele>
        <time>2018-05-14T10:19:45Z</time>
      </trkpt>
      <trkpt lat="45.72093" lon="7.10229">
        <ele>803</ele>
        <time>2018-05-14T10:20:45Z</time>
      </trkpt>
      <trkpt lat="45.72109" lon="7.10209">
        <ele>803</ele>
        <time>2018-05-14T10:21:45Z</time>
      </trkpt>
      <trkpt lat="45.72122" lon="7.1019">
        <ele>803</ele>
        <time>2018-05-14T10:22:45Z</time>
      </trkpt>
      <trkpt lat="45.72133" lon="7.10173">
        <ele>803</ele>
        <time>2018-05-14T10:23:45Z</time>
      </trkpt>
      <trkpt lat="45.72161" lon="7.10127">
        <ele>798</ele>
        <time>2018-05-14T10:24:45Z</time>
      </trkpt>
      <trkpt lat="45.72173" lon="7.10107">
        <ele>805</ele>
        <time>2018-05-14T10:25:45Z</time>
      </trkpt>
      <trkpt lat="45.72218" lon="7.1003">
        <ele>801</ele>
        <time>2018-05-14T10:26:45Z</time>
      </trkpt>
      <trkpt lat="45.72263" lon="7.09955">
        <ele>799</ele>
        <time>2018-05-14T10:27:45Z</time>
      </trkpt>
      <trkpt lat="45.72274" lon="7.09937">
        <ele>799</ele>
        <time>2018-05-14T10:28:45Z</time>
      </trkpt>
      <trkpt lat="45.72312" lon="7.09871">
        <ele>797</ele>
        <time>2018-05-14T10:29:45Z</time>
      </trkpt>
      <trkpt lat="45.72317" lon="7.09863">
        <ele>797</ele>
        <time>2018-05-14T10:30:45Z</time>
      </trkpt>
      <trkpt lat="45.72344" lon="7.09818">
        <ele>799</ele>
        <time>2018-05-14T10:31:45Z</time>
      </trkpt>
      <trkpt lat="45.72346" lon="7.09814">
        <ele>799</ele>
        <time>2018-05-14T10:32:45Z</time>
      </trkpt>
      <trkpt lat="45.72388" lon="7.09742">
        <ele>800</ele>
        <time>2018-05-14T10:33:45Z</time>
      </trkpt>
      <trkpt lat="45.72432" lon="7.0967">
        <ele>804</ele>
        <time>2018-05-14T10:34:45Z</time>
      </trkpt>
      <trkpt lat="45.72483" lon="7.09583">
        <ele>805</ele>
        <time>2018-05-14T10:35:45Z</time>
      </trkpt>
      <trkpt lat="45.72486" lon="7.09579">
        <ele>805</ele>
        <time>2018-05-14T10:36:45Z</time>
      </trkpt>
      <trkpt lat="45.72494" lon="7.09565">
        <ele>804</ele>
        <time>2018-05-14T10:37:45Z</time>
      </trkpt>
      <trkpt lat="45.7259" lon="7.09404">
        <ele>820</ele>
        <time>2018-05-14T10:38:45Z</time>
      </trkpt>
      <trkpt lat="45.72599" lon="7.0939">
        <ele>821</ele>
        <time>2018-05-14T10:39:45Z</time>
      </trkpt>
      <trkpt lat="45.72612" lon="7.09368">
        <ele>821</ele>
        <time>2018-05-14T10:40:45Z</time>
      </trkpt>
      <trkpt lat="45.72631" lon="7.09331">
        <ele>815</ele>
        <time>2018-05-14T10:41:45Z</time>
      </trkpt>
      <trkpt lat="45.72687" lon="7.09225">
        <ele>820</ele>
        <time>2018-05-14T10:42:45Z</time>
      </trkpt>
      <trkpt lat="45.72727" lon="7.09151">
        <ele>818</ele>
        <time>2018-05-14T10:43:45Z</time>
      </trkpt>
      <trkpt lat="45.72769" lon="7.09074">
        <ele>821</ele>
        <time>2018-05-14T10:44:45Z</time>
      </trkpt>
      <trkpt lat="45.7278" lon="7.09055">
        <ele>823</ele>
        <time>2018-05-14T10:45:45Z</time>
      </trkpt>
      <trkpt lat="45.72789" lon="7.0904">
        <ele>823</ele>
        <time>2018-05-14T10:46:45Z</time>
      </trkpt>
      <trkpt lat="45.72795" lon="7.09031">
        <ele>823</ele>
        <time>2018-05-14T10:47:45Z</time>
      </trkpt>
      <trkpt lat="45.728" lon="7.09023">
        <ele>823</ele>
        <time>2018-05-14T10:48:45Z</time>
      </trkpt>
      <trkpt lat="45.72812" lon="7.0901">
        <ele>824</ele>
        <time>2018-05-14T10:49:45Z</time>
      </trkpt>
      <trkpt lat="45.72818" lon="7.09004">
        <ele>824</ele>
        <time>2018-05-14T10:50:45Z</time>
      </trkpt>
      <trkpt lat="45.72825" lon="7.08998">
        <ele>822</ele>
        <time>2018-05-14T10:51:45Z</time>
      </trkpt>
      <trkpt lat="45.72835" lon="7.08989">
        <ele>825</ele>
        <time>2018-05-14T10:52:45Z</time>
      </trkpt>
      <trkpt lat="45.72843" lon="7.08981">
        <ele>825</ele>
        <time>2018-05-14T10:53:45Z</time>
      </trkpt>
      <trkpt lat="45.7285" lon="7.08974">
        <ele>825</ele>
        <time>2018-05-14T10:54:45Z</time>
      </trkpt>
      <trkpt lat="45.72853" lon="7.08972">
        <ele>826</ele>
        <time>2018-05-14T10:55:45Z</time>
      </trkpt>
      <trkpt lat="45.72857" lon="7.08967">
        <ele>826</ele>
        <time>2018-05-14T10:56:45Z</time>
      </trkpt>
      <trkpt lat="45.72865" lon="7.08956">
        <ele>825</ele>
        <time>2018-05-14T10:57:45Z</time>
      </trkpt>
      <trkpt lat="45.72871" lon="7.08947">
        <ele>825</ele>
        <time>2018-05-14T10:58:45Z</time>
      </trkpt>
      <trkpt lat="45.72875" lon="7.08941">
        <ele>825</ele>
        <time>2018-05-14T10:59:45Z</time>
      </trkpt>
      <trkpt lat="45.72882" lon="7.08928">
        <ele>825</ele>
        <time>2018-05-14T11:00:45Z</time>
      </trkpt>
      <trkpt lat="45.72887" lon="7.08916">
        <ele>820</ele>
        <time>2018-05-14T11:01:45Z</time>
      </trkpt>
      <trkpt lat="45.7289" lon="7.08908">
        <ele>820</ele>
        <time>2018-05-14T11:02:45Z</time>
      </trkpt>
      <trkpt lat="45.72892" lon="7.08903">
        <ele>820</ele>
        <time>2018-05-14T11:03:45Z</time>
      </trkpt>
      <trkpt lat="45.72894" lon="7.08894">
        <ele>820</ele>
        <time>2018-05-14T11:04:45Z</time>
      </trkpt>
      <trkpt lat="45.72899" lon="7.08877">
        <ele>820</ele>
        <time>2018-05-14T11:05:45Z</time>
      </trkpt>
      <trkpt lat="45.72904" lon="7.08849">
        <ele>820</ele>
        <time>2018-05-14T11:06:45Z</time>
      </trkpt>
      <trkpt lat="45.72911" lon="7.08815">
        <ele>819</ele>
        <time>2018-05-14T11:07:45Z</time>
      </trkpt>
      <trkpt lat="45.72915" lon="7.08789">
        <ele>818</ele>
        <time>2018-05-14T11:08:45Z</time>
      </trkpt>
      <trkpt lat="45.72923" lon="7.08749">
        <ele>819</ele>
        <time>2018-05-14T11:09:45Z</time>
      </trkpt>
      <trkpt lat="45.72928" lon="7.08731">
        <ele>821</ele>
        <time>2018-05-14T11:10:45Z</time>
      </trkpt>
      <trkpt lat="45.72931" lon="7.08721">
        <ele>822</ele>
        <time>2018-05-14T11:11:45Z</time>
      </trkpt>
      <trkpt lat="45.72935" lon="7.08706">
        <ele>822</ele>
        <time>2018-05-14T11:12:45Z</time>
      </trkpt>
      <trkpt lat="45.72942" lon="7.08688">
        <ele>822</ele>
        <time>2018-05-14T11:13:45Z</time>
      </trkpt>
      <trkpt lat="45.72954" lon="7.08665">
        <ele>822</ele>
        <time>2018-05-14T11:14:45Z</time>
      </trkpt>
      <trkpt lat="45.7298" lon="7.08615">
        <ele>823</ele>
        <time>2018-05-14T11:15:45Z</time>
      </trkpt>
      <trkpt lat="45.72984" lon="7.08606">
        <ele>823</ele>
        <time>2018-05-14T11:16:45Z</time>
      </trkpt>
      <trkpt lat="45.72988" lon="7.08604">
        <ele>823</ele>
        <time>2018-05-14T11:17:45Z</time>
      </trkpt>
      <trkpt lat="45.72993" lon="7.08594">
        <ele>824</ele>
        <time>2018-05-14T11:18:45Z</time>
      </trkpt>
      <trkpt lat="45.73004" lon="7.08573">
        <ele>827</ele>
        <time>2018-05-14T11:19:45Z</time>
      </trkpt>
      <trkpt lat="45.7303" lon="7.08515">
        <ele>828</ele>
        <time>2018-05-14T11:20:45Z</time>
      </trkpt>
      <trkpt lat="45.73036" lon="7.08504">
        <ele>828</ele>
        <time>2018-05-14T11:21:45Z</time>
      </trkpt>
      <trkpt lat="45.7305" lon="7.08467">
        <ele>828</ele>
        <time>2018-05-14T11:22:45Z</time>
      </trkpt>
      <trkpt lat="45.73058" lon="7.08438">
        <ele>829</ele>
        <time>2018-05-14T11:23:45Z</time>
      </trkpt>
      <trkpt lat="45.73059" lon="7.08436">
        <ele>829</ele>
        <time>2018-05-14T11:24:45Z</time>
      </trkpt>
      <trkpt lat="45.7307" lon="7.08354">
        <ele>833</ele>
        <time>2018-05-14T11:25:45Z</time>
      </trkpt>
      <trkpt lat="45.73081" lon="7.08258">
        <ele>836</ele>
        <time>2018-05-14T11:26:45Z</time>
      </trkpt>
      <trkpt lat="45.73085" lon="7.08221">
        <ele>845</ele>
        <time>2018-05-14T11:27:45Z</time>
      </trkpt>
      <trkpt lat="45.73087" lon="7.08203">
        <ele>845</ele>
        <time>2018-05-14T11:28:45Z</time>
      </trkpt>
      <trkpt lat="45.73088" lon="7.08189">
        <ele>843</ele>
        <time>2018-05-14T11:29:45Z</time>
      </trkpt>
      <trkpt lat="45.73087" lon="7.08183">
        <ele>842</ele>
        <time>2018-05-14T11:30:45Z</time>
      </trkpt>
      <trkpt lat="45.73088" lon="7.0817">
        <ele>838</ele>
        <time>2018-05-14T11:31:45Z</time>
      </trkpt>
      <trkpt lat="45.73091" lon="7.08143">
        <ele>842</ele>
        <time>2018-05-14T11:32:45Z</time>
      </trkpt>
      <trkpt lat="45.73094" lon="7.08127">
        <ele>843</ele>
        <time>2018-05-14T11:33:45Z</time>
      </trkpt>
      <trkpt lat="45.73097" lon="7.08113">
        <ele>842</ele>
        <time>2018-05-14T11:34:45Z</time>
      </trkpt>
      <trkpt lat="45.73101" lon="7.08094">
        <ele>840</ele>
        <time>2018-05-14T11:35:45Z</time>
      </trkpt>
      <trkpt lat="45.73118" lon="7.08028">
        <ele>845</ele>
        <time>2018-05-14T11:36:45Z</time>
      </trkpt>
      <trkpt lat="45.73123" lon="7.08009">
        <ele>845</ele>
        <time>2018-05-14T11:37:45Z</time>
      </trkpt>
      <trkpt lat="45.73129" lon="7.07979">
        <ele>847</ele>
        <time>2018-05-14T11:38:45Z</time>
      </trkpt>
      <trkpt lat="45.73134" lon="7.0795">
        <ele>847</ele>
        <time>2018-05-14T11:39:45Z</time>
      </trkpt>
      <trkpt lat="45.73135" lon="7.0794">
        <ele>847</ele>
        <time>2018-05-14T11:40:45Z</time>
      </trkpt>
      <trkpt lat="45.73137" lon="7.07926">
        <ele>848</ele>
        <time>2018-05-14T11:41:45Z</time>
      </trkpt>
      <trkpt lat="45.73139" lon="7.07891">
        <ele>847</ele>
        <time>2018-05-14T11:42:45Z</time>
      </trkpt>
      <trkpt lat="45.7314" lon="7.07868">
        <ele>846</ele>
        <time>2018-05-14T11:43:45Z</time>
      </trkpt>
      <trkpt lat="45.7314" lon="7.07823">
        <ele>846</ele>
        <time>2018-05-14T11:44:45Z</time>
      </trkpt>
      <trkpt lat="45.7314" lon="7.07766">
        <ele>846</ele>
        <time>2018-05-14T11:45:45Z</time>
      </trkpt>
      <trkpt lat="45.7314" lon="7.07758">
        <ele>846</ele>
        <time>2018-05-14T11:46:45Z</time>
      </trkpt>
      <trkpt lat="45.73141" lon="7.07748">
        <ele>848</ele>
        <time>2018-05-14T11:47:45Z</time>
      </trkpt>
      <trkpt lat="45.73142" lon="7.07738">
        <ele>848</ele>
        <time>2018-05-14T11:48:45Z</time>
      </trkpt>
      <trkpt lat="45.73143" lon="7.07728">
        <ele>848</ele>
        <time>2018-05-14T11:49:45Z</time>
      </trkpt>
      <trkpt lat="45.73145" lon="7.07719">
        <ele>848</ele>
        <time>2018-05-14T11:50:45Z</time>
      </trkpt>
      <trkpt lat="45.73148" lon="7.07707">
        <ele>848</ele>
        <time>2018-05-14T11:51:45Z</time>
      </trkpt>
      <trkpt lat="45.73151" lon="7.07695">
        <ele>847</ele>
        <time>2018-05-14T11:52:45Z</time>
      </trkpt>
      <trkpt lat="45.73156" lon="7.07682">
        <ele>846</ele>
        <time>2018-05-14T11:53:45Z</time>
      </trkpt>
      <trkpt lat="45.7316" lon="7.07672">
        <ele>844</ele>
        <time>2018-05-14T11:54:45Z</time>
      </trkpt>
      <trkpt lat="45.73164" lon="7.07664">
        <ele>844</ele>
        <time>2018-05-14T11:55:45Z</time>
      </trkpt>
      <trkpt lat="45.73172" lon="7.0765">
        <ele>847</ele>
        <time>2018-05-14T11:56:45Z</time>
      </trkpt>
      <trkpt lat="45.73176" lon="7.07644">
        <ele>848</ele>
        <time>2018-05-14T11:57:45Z</time>
      </trkpt>
      <trkpt lat="45.7318" lon="7.07639">
        <ele>849</ele>
        <time>2018-05-14T11:58:45Z</time>
      </trkpt>
      <trkpt lat="45.73187" lon="7.0763">
        <ele>850</ele>
        <time>2018-05-14T11:59:45Z</time>
      </trkpt>
      <trkpt lat="45.73203" lon="7.0761">
        <ele>850</ele>
        <time>2018-05-14T12:00:45Z</time>
      </trkpt>
      <trkpt lat="45.73231" lon="7.07574">
        <ele>851</ele>
        <time>2018-05-14T12:01:45Z</time>
      </trkpt>
      <trkpt lat="45.73244" lon="7.07558">
        <ele>852</ele>
        <time>2018-05-14T12:02:45Z</time>
      </trkpt>
      <trkpt lat="45.7328" lon="7.07514">
        <ele>854</ele>
        <time>2018-05-14T12:03:45Z</time>
      </trkpt>
      <trkpt lat="45.73293" lon="7.07498">
        <ele>854</ele>
        <time>2018-05-14T12:04:45Z</time>
      </trkpt>
      <trkpt lat="45.73304" lon="7.07483">
        <ele>855</ele>
        <time>2018-05-14T12:05:45Z</time>
      </trkpt>
      <trkpt lat="45.73315" lon="7.07471">
        <ele>855</ele>
        <time>2018-05-14T12:06:45Z</time>
      </trkpt>
      <trkpt lat="45.73329" lon="7.07454">
        <ele>853</ele>
        <time>2018-05-14T12:07:45Z</time>
      </trkpt>
      <trkpt lat="45.73333" lon="7.0745">
        <ele>853</ele>
        <time>2018-05-14T12:08:45Z</time>
      </trkpt>
      <trkpt lat="45.73335" lon="7.07446">
        <ele>855</ele>
        <time>2018-05-14T12:09:45Z</time>
      </trkpt>
      <trkpt lat="45.73342" lon="7.07438">
        <ele>854</ele>
        <time>2018-05-14T12:10:45Z</time>
      </trkpt>
      <trkpt lat="45.73343" lon="7.07436">
        <ele>854</ele>
        <time>2018-05-14T12:11:45Z</time>
      </trkpt>
      <trkpt lat="45.73361" lon="7.07412">
        <ele>851</ele>
        <time>2018-05-14T12:12:45Z</time>
      </trkpt>
      <trkpt lat="45.73381" lon="7.07384">
        <ele>853</ele>
        <time>2018-05-14T12:13:45Z</time>
      </trkpt>
      <trkpt lat="45.73401" lon="7.07355">
        <ele>852</ele>
        <time>2018-05-14T12:14:45Z</time>
      </trkpt>
      <trkpt lat="45.73421" lon="7.07326">
        <ele>851</ele>
        <time>2018-05-14T12:15:45Z</time>
      </trkpt>
      <trkpt lat="45.73435" lon="7.07307">
        <ele>856</ele>
        <time>2018-05-14T12:16:45Z</time>
      </trkpt>
      <trkpt lat="45.73449" lon="7.07288">
        <ele>857</ele>
        <time>2018-05-14T12:17:45Z</time>
      </trkpt>
      <trkpt lat="45.73457" lon="7.07279">
        <ele>857</ele>
        <time>2018-05-14T12:18:45Z</time>
      </trkpt>
      <trkpt lat="45.73464" lon="7.0727">
        <ele>857</ele>
        <time>2018-05-14T12:19:45Z</time>
      </trkpt>
      <trkpt lat="45.73474" lon="7.0726">
        <ele>858</ele>
        <time>2018-05-14T12:20:45Z</time>
      </trkpt>
      <trkpt lat="45.73481" lon="7.07253">
        <ele>858</ele>
        <time>2018-05-14T12:21:45Z</time>
      </trkpt>
      <trkpt lat="45.73497" lon="7.07239">
        <ele>856</ele>
        <time>2018-05-14T12:22:45Z</time>
      </trkpt>
      <trkpt lat="45.73524" lon="7.07216">
        <ele>861</ele>
        <time>2018-05-14T12:23:45Z</time>
      </trkpt>
      <trkpt lat="45.73531" lon="7.0721">
        <ele>861</ele>
        <time>2018-05-14T12:24:45Z</time>
      </trkpt>
      <trkpt lat="45.73541" lon="7.07203">
        <ele>861</ele>
        <time>2018-05-14T12:25:45Z</time>
      </trkpt>
      <trkpt lat="45.73547" lon="7.07197">
        <ele>861</ele>
        <time>2018-05-14T12:26:45Z</time>
      </trkpt>
      <trkpt lat="45.73597" lon="7.07156">
        <ele>858</ele>
        <time>2018-05-14T12:27:45Z</time>
      </trkpt>
      <trkpt lat="45.73623" lon="7.07135">
        <ele>860</ele>
        <time>2018-05-14T12:28:45Z</time>
      </trkpt>
      <trkpt lat="45.73648" lon="7.07113">
        <ele>860</ele>
        <time>2018-05-14T12:29:45Z</time>
      </trkpt>
      <trkpt lat="45.7366" lon="7.07102">
        <ele>860</ele>
        <time>2018-05-14T12:30:45Z</time>
      </trkpt>
      <trkpt lat="45.73661" lon="7.07102">
        <ele>860</ele>
        <time>2018-05-14T12:31:45Z</time>
      </trkpt>
      <trkpt lat="45.7367" lon="7.07093">
        <ele>862</ele>
        <time>2018-05-14T12:32:45Z</time>
      </trkpt>
      <trkpt lat="45.73679" lon="7.07085">
        <ele>863</ele>
        <time>2018-05-14T12:33:45Z</time>
      </trkpt>
      <trkpt lat="45.73679" lon="7.07084">
        <ele>863</ele>
        <time>2018-05-14T12:34:45Z</time>
      </trkpt>
      <trkpt lat="45.73681" lon="7.07083">
        <ele>861</ele>
        <time>2018-05-14T12:35:45Z</time>
      </trkpt>
      <trkpt lat="45.73717" lon="7.07046">
        <ele>865</ele>
        <time>2018-05-14T12:36:45Z</time>
      </trkpt>
      <trkpt lat="45.73745" lon="7.07017">
        <ele>864</ele>
        <time>2018-05-14T12:37:45Z</time>
      </trkpt>
      <trkpt lat="45.73767" lon="7.06993">
        <ele>868</ele>
        <time>2018-05-14T12:38:45Z</time>
      </trkpt>
      <trkpt lat="45.7379" lon="7.06968">
        <ele>872</ele>
        <time>2018-05-14T12:39:45Z</time>
      </trkpt>
      <trkpt lat="45.73805" lon="7.06952">
        <ele>872</ele>
        <time>2018-05-14T12:40:45Z</time>
      </trkpt>
      <trkpt lat="45.73816" lon="7.06942">
        <ele>872</ele>
        <time>2018-05-14T12:41:45Z</time>
      </trkpt>
      <trkpt lat="45.73838" lon="7.06919">
        <ele>872</ele>
        <time>2018-05-14T12:42:45Z</time>
      </trkpt>
      <trkpt lat="45.73852" lon="7.06906">
        <ele>871</ele>
        <time>2018-05-14T12:43:45Z</time>
      </trkpt>
      <trkpt lat="45.7386" lon="7.06899">
        <ele>871</ele>
        <time>2018-05-14T12:44:45Z</time>
      </trkpt>
      <trkpt lat="45.73869" lon="7.06893">
        <ele>872</ele>
        <time>2018-05-14T12:45:45Z</time>
      </trkpt>
      <trkpt lat="45.73878" lon="7.06888">
        <ele>872</ele>
        <time>2018-05-14T12:46:45Z</time>
      </trkpt>
      <trkpt lat="45.7389" lon="7.06881">
        <ele>873</ele>
        <time>2018-05-14T12:47:45Z</time>
      </trkpt>
      <trkpt lat="45.73895" lon="7.06879">
        <ele>873</ele>
        <time>2018-05-14T12:48:45Z</time>
      </trkpt>
      <trkpt lat="45.73902" lon="7.06877">
        <ele>873</ele>
        <time>2018-05-14T12:49:45Z</time>
      </trkpt>
      <trkpt lat="45.7391" lon="7.06874">
        <ele>873</ele>
        <time>2018-05-14T12:50:45Z</time>
      </trkpt>
      <trkpt lat="45.73924" lon="7.0687">
        <ele>879</ele>
        <time>2018-05-14T12:51:45Z</time>
      </trkpt>
      <trkpt lat="45.73946" lon="7.06864">
        <ele>879</ele>
        <time>2018-05-14T12:52:45Z</time>
      </trkpt>
      <trkpt lat="45.73999" lon="7.06848">
        <ele>875</ele>
        <time>2018-05-14T12:53:45Z</time>
      </trkpt>
      <trkpt lat="45.74009" lon="7.06844">
        <ele>881</ele>
        <time>2018-05-14T12:54:45Z</time>
      </trkpt>
      <trkpt lat="45.74016" lon="7.06841">
        <ele>883</ele>
        <time>2018-05-14T12:55:45Z</time>
      </trkpt>
      <trkpt lat="45.7402" lon="7.06839">
        <ele>885</ele>
        <time>2018-05-14T12:56:45Z</time>
      </trkpt>
      <trkpt lat="45.74027" lon="7.06834">
        <ele>887</ele>
        <time>2018-05-14T12:57:45Z</time>
      </trkpt>
      <trkpt lat="45.74033" lon="7.0683">
        <ele>875</ele>
        <time>2018-05-14T12:58:45Z</time>
      </trkpt>
      <trkpt lat="45.74038" lon="7.06826">
        <ele>876</ele>
        <time>2018-05-14T12:59:45Z</time>
      </trkpt>
      <trkpt lat="45.74041" lon="7.06823">
        <ele>877</ele>
        <time>2018-05-14T13:00:45Z</time>
      </trkpt>
      <trkpt lat="45.74051" lon="7.06812">
        <ele>878</ele>
        <time>2018-05-14T13:01:45Z</time>
      </trkpt>
      <trkpt lat="45.74054" lon="7.06808">
        <ele>878</ele>
        <time>2018-05-14T13:02:45Z</time>
      </trkpt>
      <trkpt lat="45.74058" lon="7.06802">
        <ele>878</ele>
        <time>2018-05-14T13:03:45Z</time>
      </trkpt>
      <trkpt lat="45.74062" lon="7.06797">
        <ele>878</ele>
        <time>2018-05-14T13:04:45Z</time>
      </trkpt>
      <trkpt lat="45.74066" lon="7.06791">
        <ele>878</ele>
        <time>2018-05-14T13:05:45Z</time>
      </trkpt>
      <trkpt lat="45.74071" lon="7.06783">
        <ele>877</ele>
        <time>2018-05-14T13:06:45Z</time>
      </trkpt>
      <trkpt lat="45.74076" lon="7.06774">
        <ele>877</ele>
        <time>2018-05-14T13:07:45Z</time>
      </trkpt>
      <trkpt lat="45.74082" lon="7.06761">
        <ele>877</ele>
        <time>2018-05-14T13:08:45Z</time>
      </trkpt>
      <trkpt lat="45.74083" lon="7.06756">
        <ele>877</ele>
        <time>2018-05-14T13:09:45Z</time>
      </trkpt>
      <trkpt lat="45.74088" lon="7.06744">
        <ele>882</ele>
        <time>2018-05-14T13:10:45Z</time>
      </trkpt>
      <trkpt lat="45.7409" lon="7.06737">
        <ele>885</ele>
        <time>2018-05-14T13:11:45Z</time>
      </trkpt>
      <trkpt lat="45.74091" lon="7.06731">
        <ele>886</ele>
        <time>2018-05-14T13:12:45Z</time>
      </trkpt>
      <trkpt lat="45.74094" lon="7.06722">
        <ele>888</ele>
        <time>2018-05-14T13:13:45Z</time>
      </trkpt>
      <trkpt lat="45.74095" lon="7.06714">
        <ele>889</ele>
        <time>2018-05-14T13:14:45Z</time>
      </trkpt>
      <trkpt lat="45.74097" lon="7.067">
        <ele>889</ele>
        <time>2018-05-14T13:15:45Z</time>
      </trkpt>
      <trkpt lat="45.741" lon="7.0668">
        <ele>886</ele>
        <time>2018-05-14T13:16:45Z</time>
      </trkpt>
      <trkpt lat="45.74105" lon="7.06649">
        <ele>885</ele>
        <time>2018-05-14T13:17:45Z</time>
      </trkpt>
      <trkpt lat="45.74107" lon="7.06633">
        <ele>886</ele>
        <time>2018-05-14T13:18:45Z</time>
      </trkpt>
      <trkpt lat="45.7411" lon="7.06621">
        <ele>886</ele>
        <time>2018-05-14T13:19:45Z</time>
      </trkpt>
      <trkpt lat="45.74112" lon="7.06611">
        <ele>886</ele>
        <time>2018-05-14T13:20:45Z</time>
      </trkpt>
      <trkpt lat="45.74115" lon="7.066">
        <ele>886</ele>
        <time>2018-05-14T13:21:45Z</time>
      </trkpt>
      <trkpt lat="45.74117" lon="7.06592">
        <ele>886</ele>
        <time>2018-05-14T13:22:45Z</time>
      </trkpt>
      <trkpt lat="45.7412" lon="7.06583">
        <ele>883</ele>
        <time>2018-05-14T13:23:45Z</time>
      </trkpt>
      <trkpt lat="45.74124" lon="7.06572">
        <ele>884</ele>
        <time>2018-05-14T13:24:45Z</time>
      </trkpt>
      <trkpt lat="45.74129" lon="7.06561">
        <ele>884</ele>
        <time>2018-05-14T13:25:45Z</time>
      </trkpt>
      <trkpt lat="45.74136" lon="7.06547">
        <ele>885</ele>
        <time>2018-05-14T13:26:45Z</time>
      </trkpt>
      <trkpt lat="45.74146" lon="7.0653">
        <ele>885</ele>
        <time>2018-05-14T13:27:45Z</time>
      </trkpt>
      <trkpt lat="45.74152" lon="7.0652">
        <ele>885</ele>
        <time>2018-05-14T13:28:45Z</time>
      </trkpt>
      <trkpt lat="45.74166" lon="7.06494">
        <ele>886</ele>
        <time>2018-05-14T13:29:45Z</time>
      </trkpt>
      <trkpt lat="45.74172" lon="7.06483">
        <ele>889</ele>
        <time>2018-05-14T13:30:45Z</time>
      </trkpt>
      <trkpt lat="45.74182" lon="7.06465">
        <ele>890</ele>
        <time>2018-05-14T13:31:45Z</time>
      </trkpt>
      <trkpt lat="45.7419" lon="7.06449">
        <ele>889</ele>
        <time>2018-05-14T13:32:45Z</time>
      </trkpt>
      <trkpt lat="45.74194" lon="7.06437">
        <ele>889</ele>
        <time>2018-05-14T13:33:45Z</time>
      </trkpt>
      <trkpt lat="45.742" lon="7.0642">
        <ele>889</ele>
        <time>2018-05-14T13:34:45Z</time>
      </trkpt>
      <trkpt lat="45.74204" lon="7.06404">
        <ele>887</ele>
        <time>2018-05-14T13:35:45Z</time>
      </trkpt>
      <trkpt lat="45.74206" lon="7.06394">
        <ele>887</ele>
        <time>2018-05-14T13:36:45Z</time>
      </trkpt>
      <trkpt lat="45.74209" lon="7.06379">
        <ele>888</ele>
        <time>2018-05-14T13:37:45Z</time>
      </trkpt>
      <trkpt lat="45.74216" lon="7.06338">
        <ele>889</ele>
        <time>2018-05-14T13:38:45Z</time>
      </trkpt>
      <trkpt lat="45.7422" lon="7.06319">
        <ele>889</ele>
        <time>2018-05-14T13:39:45Z</time>
      </trkpt>
      <trkpt lat="45.74227" lon="7.06299">
        <ele>889</ele>
        <time>2018-05-14T13:40:45Z</time>
      </trkpt>
      <trkpt lat="45.74232" lon="7.06287">
        <ele>889</ele>
        <time>2018-05-14T13:41:45Z</time>
      </trkpt>
      <trkpt lat="45.74237" lon="7.06274">
        <ele>889</ele>
        <time>2018-05-14T13:42:45Z</time>
      </trkpt>
      <trkpt lat="45.74243" lon="7.0626">
        <ele>890</ele>
        <time>2018-05-14T13:43:45Z</time>
      </trkpt>
      <trkpt lat="45.74247" lon="7.06253">
        <ele>891</ele>
        <time>2018-05-14T13:44:45Z</time>
      </trkpt>
      <trkpt lat="45.74252" lon="7.06245">
        <ele>891</ele>
        <time>2018-05-14T13:45:45Z</time>
      </trkpt>
      <trkpt lat="45.74256" lon="7.06239">
        <ele>892</ele>
        <time>2018-05-14T13:46:45Z</time>
      </trkpt>
      <trkpt lat="45.74259" lon="7.06234">
        <ele>892</ele>
        <time>2018-05-14T13:47:45Z</time>
      </trkpt>
      <trkpt lat="45.74268" lon="7.06224">
        <ele>892</ele>
        <time>2018-05-14T13:48:45Z</time>
      </trkpt>
      <trkpt lat="45.74272" lon="7.06219">
        <ele>892</ele>
        <time>2018-05-14T13:49:45Z</time>
      </trkpt>
      <trkpt lat="45.74282" lon="7.0621">
        <ele>892</ele>
        <time>2018-05-14T13:50:45Z</time>
      </trkpt>
      <trkpt lat="45.74289" lon="7.06204">
        <ele>892</ele>
        <time>2018-05-14T13:51:45Z</time>
      </trkpt>
      <trkpt lat="45.74295" lon="7.062">
        <ele>892</ele>
        <time>2018-05-14T13:52:45Z</time>
      </trkpt>
      <trkpt lat="45.74302" lon="7.06195">
        <ele>892</ele>
        <time>2018-05-14T13:53:45Z</time>
      </trkpt>
      <trkpt lat="45.74309" lon="7.06192">
        <ele>892</ele>
        <time>2018-05-14T13:54:45Z</time>
      </trkpt>
      <trkpt lat="45.74317" lon="7.06189">
        <ele>892</ele>
        <time>2018-05-14T13:55:45Z</time>
      </trkpt>
      <trkpt lat="45.74322" lon="7.06186">
        <ele>892</ele>
        <time>2018-05-14T13:56:45Z</time>
      </trkpt>
      <trkpt lat="45.74337" lon="7.06181">
        <ele>893</ele>
        <time>2018-05-14T13:57:45Z</time>
      </trkpt>
      <trkpt lat="45.7438" lon="7.06168">
        <ele>895</ele>
        <time>2018-05-14T13:58:45Z</time>
      </trkpt>
      <trkpt lat="45.74384" lon="7.06171">
        <ele>895</ele>
        <time>2018-05-14T13:59:45Z</time>
      </trkpt>
      <trkpt lat="45.74397" lon="7.06166">
        <ele>892</ele>
        <time>2018-05-14T14:00:45Z</time>
      </trkpt>
      <trkpt lat="45.74434" lon="7.06156">
        <ele>893</ele>
        <time>2018-05-14T14:01:45Z</time>
      </trkpt>
      <trkpt lat="45.74449" lon="7.0615">
        <ele>892</ele>
        <time>2018-05-14T14:02:45Z</time>
      </trkpt>
      <trkpt lat="45.74449" lon="7.06151">
        <ele>892</ele>
        <time>2018-05-14T14:03:45Z</time>
      </trkpt>
      <trkpt lat="45.74449" lon="7.06152">
        <ele>892</ele>
        <time>2018-05-14T14:04:45Z</time>
      </trkpt>
      <trkpt lat="45.7445" lon="7.06152">
        <ele>892</ele>
        <time>2018-05-14T14:05:45Z</time>
      </trkpt>
      <trkpt lat="45.7445" lon="7.06153">
        <ele>892</ele>
        <time>2018-05-14T14:06:45Z</time>
      </trkpt>
      <trkpt lat="45.7445" lon="7.06154">
        <ele>892</ele>
        <time>2018-05-14T14:07:45Z</time>
      </trkpt>
      <trkpt lat="45.74451" lon="7.06154">
        <ele>892</ele>
        <time>2018-05-14T14:08:45Z</time>
      </trkpt>
      <trkpt lat="45.74451" lon="7.06155">
        <ele>892</ele>
        <time>2018-05-14T14:09:45Z</time>
      </trkpt>
      <trkpt lat="45.74452" lon="7.06155">
        <ele>892</ele>
        <time>2018-05-14T14:10:45Z</time>
      </trkpt>
      <trkpt lat="45.74452" lon="7.06156">
        <ele>892</ele>
        <time>2018-05-14T14:11:45Z</time>
      </trkpt>
      <trkpt lat="45.74453" lon="7.06156">
        <ele>892</ele>
        <time>2018-05-14T14:12:45Z</time>
      </trkpt>
      <trkpt lat="45.74454" lon="7.06156">
        <ele>892</ele>
        <time>2018-05-14T14:13:45Z</time>
      </trkpt>
      <trkpt lat="45.74455" lon="7.06157">
        <ele>892</ele>
        <time>2018-05-14T14:14:45Z</time>
      </trkpt>
      <trkpt lat="45.74456" lon="7.06157">
        <ele>892</ele>
        <time>2018-05-14T14:15:45Z</time>
      </trkpt>
      <trkpt lat="45.74457" lon="7.06157">
        <ele>892</ele>
        <time>2018-05-14T14:16:45Z</time>
      </trkpt>
      <trkpt lat="45.74458" lon="7.06157">
        <ele>892</ele>
        <time>2018-05-14T14:17:45Z</time>
      </trkpt>
      <trkpt lat="45.74459" lon="7.06157">
        <ele>892</ele>
        <time>2018-05-14T14:18:45Z</time>
      </trkpt>
      <trkpt lat="45.74459" lon="7.06156">
        <ele>892</ele>
        <time>2018-05-14T14:19:45Z</time>
      </trkpt>
      <trkpt lat="45.7446" lon="7.06156">
        <ele>892</ele>
        <time>2018-05-14T14:20:45Z</time>
      </trkpt>
      <trkpt lat="45.74461" lon="7.06155">
        <ele>892</ele>
        <time>2018-05-14T14:21:45Z</time>
      </trkpt>
      <trkpt lat="45.74462" lon="7.06155">
        <ele>892</ele>
        <time>2018-05-14T14:22:45Z</time>
      </trkpt>
      <trkpt lat="45.74462" lon="7.06154">
        <ele>892</ele>
        <time>2018-05-14T14:23:45Z</time>
      </trkpt>
      <trkpt lat="45.74463" lon="7.06153">
        <ele>892</ele>
        <time>2018-05-14T14:24:45Z</time>
      </trkpt>
      <trkpt lat="45.74463" lon="7.06152">
        <ele>892</ele>
        <time>2018-05-14T14:25:45Z</time>
      </trkpt>
      <trkpt lat="45.74464" lon="7.06152">
        <ele>892</ele>
        <time>2018-05-14T14:26:45Z</time>
      </trkpt>
      <trkpt lat="45.74464" lon="7.06151">
        <ele>892</ele>
        <time>2018-05-14T14:27:45Z</time>
      </trkpt>
      <trkpt lat="45.74464" lon="7.0615">
        <ele>892</ele>
        <time>2018-05-14T14:28:45Z</time>
      </trkpt>
      <trkpt lat="45.74465" lon="7.06149">
        <ele>892</ele>
        <time>2018-05-14T14:29:45Z</time>
      </trkpt>
      <trkpt lat="45.74465" lon="7.06148">
        <ele>892</ele>
        <time>2018-05-14T14:30:45Z</time>
      </trkpt>
      <trkpt lat="45.74482" lon="7.06145">
        <ele>892</ele>
        <time>2018-05-14T14:31:45Z</time>
      </trkpt>
      <trkpt lat="45.74496" lon="7.06139">
        <ele>892</ele>
        <time>2018-05-14T14:32:45Z</time>
      </trkpt>
      <trkpt lat="45.74518" lon="7.0613">
        <ele>894</ele>
        <time>2018-05-14T14:33:45Z</time>
      </trkpt>
      <trkpt lat="45.74525" lon="7.06127">
        <ele>894</ele>
        <time>2018-05-14T14:34:45Z</time>
      </trkpt>
      <trkpt lat="45.74538" lon="7.06118">
        <ele>894</ele>
        <time>2018-05-14T14:35:45Z</time>
      </trkpt>
      <trkpt lat="45.74559" lon="7.06102">
        <ele>895</ele>
        <time>2018-05-14T14:36:45Z</time>
      </trkpt>
      <trkpt lat="45.74573" lon="7.06087">
        <ele>895</ele>
        <time>2018-05-14T14:37:45Z</time>
      </trkpt>
      <trkpt lat="45.74578" lon="7.06081">
        <ele>894</ele>
        <time>2018-05-14T14:38:45Z</time>
      </trkpt>
      <trkpt lat="45.74606" lon="7.06039">
        <ele>896</ele>
        <time>2018-05-14T14:39:45Z</time>
      </trkpt>
      <trkpt lat="45.74619" lon="7.06017">
        <ele>896</ele>
        <time>2018-05-14T14:40:45Z</time>
      </trkpt>
      <trkpt lat="45.7462" lon="7.06011">
        <ele>896</ele>
        <time>2018-05-14T14:41:45Z</time>
      </trkpt>
      <trkpt lat="45.74628" lon="7.05999">
        <ele>895</ele>
        <time>2018-05-14T14:42:45Z</time>
      </trkpt>
      <trkpt lat="45.74666" lon="7.05944">
        <ele>894</ele>
        <time>2018-05-14T14:43:45Z</time>
      </trkpt>
      <trkpt lat="45.7469" lon="7.05908">
        <ele>895</ele>
        <time>2018-05-14T14:44:45Z</time>
      </trkpt>
      <trkpt lat="45.74705" lon="7.05884">
        <ele>895</ele>
        <time>2018-05-14T14:45:45Z</time>
      </trkpt>
      <trkpt lat="45.7472" lon="7.05858">
        <ele>895</ele>
        <time>2018-05-14T14:46:45Z</time>
      </trkpt>
      <trkpt lat="45.74751" lon="7.05791">
        <ele>895</ele>
        <time>2018-05-14T14:47:45Z</time>
      </trkpt>
      <trkpt lat="45.74756" lon="7.0578">
        <ele>895</ele>
        <time>2018-05-14T14:48:45Z</time>
      </trkpt>
      <trkpt lat="45.74904" lon="7.05445">
        <ele>897</ele>
        <time>2018-05-14T14:49:45Z</time>
      </trkpt>
      <trkpt lat="45.7495" lon="7.05342">
        <ele>899</ele>
        <time>2018-05-14T14:50:45Z</time>
      </trkpt>
      <trkpt lat="45.74956" lon="7.05327">
        <ele>898</ele>
        <time>2018-05-14T14:51:45Z</time>
      </trkpt>
      <trkpt lat="45.74964" lon="7.05308">
        <ele>898</ele>
        <time>2018-05-14T14:52:45Z</time>
      </trkpt>
      <trkpt lat="45.7497" lon="7.05303">
        <ele>898</ele>
        <time>2018-05-14T14:53:45Z</time>
      </trkpt>
      <trkpt lat="45.75048" lon="7.0513">
        <ele>902</ele>
        <time>2018-05-14T14:54:45Z</time>
      </trkpt>
      <trkpt lat="45.75054" lon="7.0512">
        <ele>902</ele>
        <time>2018-05-14T14:55:45Z</time>
      </trkpt>
      <trkpt lat="45.75064" lon="7.05096">
        <ele>902</ele>
        <time>2018-05-14T14:56:45Z</time>
      </trkpt>
      <trkpt lat="45.75072" lon="7.05077">
        <ele>903</ele>
        <time>2018-05-14T14:57:45Z</time>
      </trkpt>
      <trkpt lat="45.75078" lon="7.0506">
        <ele>903</ele>
        <time>2018-05-14T14:58:45Z</time>
      </trkpt>
      <trkpt lat="45.75166" lon="7.04855">
        <ele>907</ele>
        <time>2018-05-14T14:59:45Z</time>
      </trkpt>
      <trkpt lat="45.75169" lon="7.04842">
        <ele>910</ele>
        <time>2018-05-14T15:00:45Z</time>
      </trkpt>
      <trkpt lat="45.75256" lon="7.04644">
        <ele>914</ele>
        <time>2018-05-14T15:01:45Z</time>
      </trkpt>
      <trkpt lat="45.75315" lon="7.04508">
        <ele>914</ele>
        <time>2018-05-14T15:02:45Z</time>
      </trkpt>
      <trkpt lat="45.75357" lon="7.04417">
        <ele>917</ele>
        <time>2018-05-14T15:03:45Z</time>
      </trkpt>
      <trkpt lat="45.75358" lon="7.04418">
        <ele>917</ele>
        <time>2018-05-14T15:04:45Z</time>
      </trkpt>
      <trkpt lat="45.7536" lon="7.04418">
        <ele>917</ele>
        <time>2018-05-14T15:05:45Z</time>
      </trkpt>
      <trkpt lat="45.75361" lon="7.04418">
        <ele>917</ele>
        <time>2018-05-14T15:06:45Z</time>
      </trkpt>
      <trkpt lat="45.75362" lon="7.04418">
        <ele>917</ele>
        <time>2018-05-14T15:07:45Z</time>
      </trkpt>
      <trkpt lat="45.75363" lon="7.04418">
        <ele>917</ele>
        <time>2018-05-14T15:08:45Z</time>
      </trkpt>
      <trkpt lat="45.75364" lon="7.04418">
        <ele>917</ele>
        <time>2018-05-14T15:09:45Z</time>
      </trkpt>
      <trkpt lat="45.75365" lon="7.04418">
        <ele>917</ele>
        <time>2018-05-14T15:10:45Z</time>
      </trkpt>
      <trkpt lat="45.75366" lon="7.04418">
        <ele>917</ele>
        <time>2018-05-14T15:11:45Z</time>
      </trkpt>
      <trkpt lat="45.75367" lon="7.04418">
        <ele>917</ele>
        <time>2018-05-14T15:12:45Z</time>
      </trkpt>
      <trkpt lat="45.7537" lon="7.04416">
        <ele>917</ele>
        <time>2018-05-14T15:13:45Z</time>
      </trkpt>
      <trkpt lat="45.75372" lon="7.04415">
        <ele>917</ele>
        <time>2018-05-14T15:14:45Z</time>
      </trkpt>
      <trkpt lat="45.75373" lon="7.04414">
        <ele>917</ele>
        <time>2018-05-14T15:15:45Z</time>
      </trkpt>
      <trkpt lat="45.75374" lon="7.04413">
        <ele>917</ele>
        <time>2018-05-14T15:16:45Z</time>
      </trkpt>
      <trkpt lat="45.75375" lon="7.04411">
        <ele>917</ele>
        <time>2018-05-14T15:17:45Z</time>
      </trkpt>
      <trkpt lat="45.75376" lon="7.0441">
        <ele>917</ele>
        <time>2018-05-14T15:18:45Z</time>
      </trkpt>
      <trkpt lat="45.75377" lon="7.04408">
        <ele>917</ele>
        <time>2018-05-14T15:19:45Z</time>
      </trkpt>
      <trkpt lat="45.75378" lon="7.04406">
        <ele>917</ele>
        <time>2018-05-14T15:20:45Z</time>
      </trkpt>
      <trkpt lat="45.75379" lon="7.04404">
        <ele>917</ele>
        <time>2018-05-14T15:21:45Z</time>
      </trkpt>
      <trkpt lat="45.75379" lon="7.04402">
        <ele>917</ele>
        <time>2018-05-14T15:22:45Z</time>
      </trkpt>
      <trkpt lat="45.7538" lon="7.044">
        <ele>917</ele>
        <time>2018-05-14T15:23:45Z</time>
      </trkpt>
      <trkpt lat="45.7538" lon="7.04398">
        <ele>917</ele>
        <time>2018-05-14T15:24:45Z</time>
      </trkpt>
      <trkpt lat="45.7538" lon="7.04396">
        <ele>917</ele>
        <time>2018-05-14T15:25:45Z</time>
      </trkpt>
      <trkpt lat="45.75381" lon="7.04394">
        <ele>917</ele>
        <time>2018-05-14T15:26:45Z</time>
      </trkpt>
      <trkpt lat="45.75381" lon="7.04391">
        <ele>917</ele>
        <time>2018-05-14T15:27:45Z</time>
      </trkpt>
      <trkpt lat="45.7538" lon="7.04389">
        <ele>917</ele>
        <time>2018-05-14T15:28:45Z</time>
      </trkpt>
      <trkpt lat="45.7538" lon="7.04387">
        <ele>917</ele>
        <time>2018-05-14T15:29:45Z</time>
      </trkpt>
      <trkpt lat="45.7538" lon="7.04385">
        <ele>917</ele>
        <time>2018-05-14T15:30:45Z</time>
      </trkpt>
      <trkpt lat="45.7538" lon="7.04382">
        <ele>917</ele>
        <time>2018-05-14T15:31:45Z</time>
      </trkpt>
      <trkpt lat="45.75379" lon="7.0438">
        <ele>917</ele>
        <time>2018-05-14T15:32:45Z</time>
      </trkpt>
      <trkpt lat="45.75378" lon="7.04378">
        <ele>917</ele>
        <time>2018-05-14T15:33:45Z</time>
      </trkpt>
      <trkpt lat="45.75378" lon="7.04376">
        <ele>917</ele>
        <time>2018-05-14T15:34:45Z</time>
      </trkpt>
      <trkpt lat="45.75377" lon="7.04374">
        <ele>917</ele>
        <time>2018-05-14T15:35:45Z</time>
      </trkpt>
      <trkpt lat="45.75376" lon="7.04372">
        <ele>917</ele>
        <time>2018-05-14T15:36:45Z</time>
      </trkpt>
      <trkpt lat="45.75375" lon="7.04372">
        <ele>916</ele>
        <time>2018-05-14T15:37:45Z</time>
      </trkpt>
      <trkpt lat="45.75383" lon="7.04358">
        <ele>917</ele>
        <time>2018-05-14T15:38:45Z</time>
      </trkpt>
      <trkpt lat="45.75401" lon="7.04315">
        <ele>916</ele>
        <time>2018-05-14T15:39:45Z</time>
      </trkpt>
      <trkpt lat="45.7547" lon="7.04156">
        <ele>918</ele>
        <time>2018-05-14T15:40:45Z</time>
      </trkpt>
      <trkpt lat="45.75484" lon="7.04125">
        <ele>918</ele>
        <time>2018-05-14T15:41:45Z</time>
      </trkpt>
      <trkpt lat="45.75491" lon="7.04109">
        <ele>919</ele>
        <time>2018-05-14T15:42:45Z</time>
      </trkpt>
      <trkpt lat="45.75505" lon="7.0408">
        <ele>921</ele>
        <time>2018-05-14T15:43:45Z</time>
      </trkpt>
      <trkpt lat="45.75574" lon="7.03923">
        <ele>922</ele>
        <time>2018-05-14T15:44:45Z</time>
      </trkpt>
      <trkpt lat="45.75609" lon="7.03844">
        <ele>923</ele>
        <time>2018-05-14T15:45:45Z</time>
      </trkpt>
      <trkpt lat="45.75612" lon="7.03836">
        <ele>923</ele>
        <time>2018-05-14T15:46:45Z</time>
      </trkpt>
      <trkpt lat="45.75615" lon="7.03832">
        <ele>923</ele>
        <time>2018-05-14T15:47:45Z</time>
      </trkpt>
      <trkpt lat="45.75635" lon="7.03808">
        <ele>924</ele>
        <time>2018-05-14T15:48:45Z</time>
      </trkpt>
      <trkpt lat="45.75774" lon="7.03646">
        <ele>926</ele>
        <time>2018-05-14T15:49:45Z</time>
      </trkpt>
      <trkpt lat="45.75787" lon="7.03632">
        <ele>925</ele>
        <time>2018-05-14T15:50:45Z</time>
      </trkpt>
      <trkpt lat="45.75801" lon="7.03612">
        <ele>925</ele>
        <time>2018-05-14T15:51:45Z</time>
      </trkpt>
      <trkpt lat="45.75803" lon="7.03609">
        <ele>925</ele>
        <time>2018-05-14T15:52:45Z</time>
      </trkpt>
      <trkpt lat="45.7581" lon="7.03598">
        <ele>925</ele>
        <time>2018-05-14T15:53:45Z</time>
      </trkpt>
      <trkpt lat="45.7581" lon="7.03597">
        <ele>925</ele>
        <time>2018-05-14T15:54:45Z</time>
      </trkpt>
      <trkpt lat="45.75816" lon="7.03587">
        <ele>925</ele>
        <time>2018-05-14T15:55:45Z</time>
      </trkpt>
      <trkpt lat="45.75817" lon="7.03586">
        <ele>925</ele>
        <time>2018-05-14T15:56:45Z</time>
      </trkpt>
      <trkpt lat="45.75824" lon="7.03573">
        <ele>925</ele>
        <time>2018-05-14T15:57:45Z</time>
      </trkpt>
      <trkpt lat="45.75831" lon="7.03558">
        <ele>925</ele>
        <time>2018-05-14T15:58:45Z</time>
      </trkpt>
      <trkpt lat="45.75838" lon="7.0354">
        <ele>926</ele>
        <time>2018-05-14T15:59:45Z</time>
      </trkpt>
      <trkpt lat="45.75845" lon="7.03525">
        <ele>927</ele>
        <time>2018-05-14T16:00:45Z</time>
      </trkpt>
      <trkpt lat="45.7585" lon="7.03511">
        <ele>927</ele>
        <time>2018-05-14T16:01:45Z</time>
      </trkpt>
      <trkpt lat="45.75861" lon="7.03471">
        <ele>928</ele>
        <time>2018-05-14T16:02:45Z</time>
      </trkpt>
      <trkpt lat="45.75864" lon="7.03461">
        <ele>929</ele>
        <time>2018-05-14T16:03:45Z</time>
      </trkpt>
      <trkpt lat="45.75898" lon="7.03312">
        <ele>929</ele>
        <time>2018-05-14T16:04:45Z</time>
      </trkpt>
      <trkpt lat="45.75925" lon="7.03196">
        <ele>930</ele>
        <time>2018-05-14T16:05:45Z</time>
      </trkpt>
      <trkpt lat="45.75953" lon="7.03082">
        <ele>930</ele>
        <time>2018-05-14T16:06:45Z</time>
      </trkpt>
      <trkpt lat="45.75955" lon="7.03083">
        <ele>930</ele>
        <time>2018-05-14T16:07:45Z</time>
      </trkpt>
      <trkpt lat="45.75956" lon="7.03083">
        <ele>930</ele>
        <time>2018-05-14T16:08:45Z</time>
      </trkpt>
      <trkpt lat="45.75957" lon="7.03083">
        <ele>930</ele>
        <time>2018-05-14T16:09:45Z</time>
      </trkpt>
      <trkpt lat="45.75958" lon="7.03083">
        <ele>930</ele>
        <time>2018-05-14T16:10:45Z</time>
      </trkpt>
      <trkpt lat="45.75959" lon="7.03083">
        <ele>931</ele>
        <time>2018-05-14T16:11:45Z</time>
      </trkpt>
      <trkpt lat="45.7596" lon="7.03083">
        <ele>931</ele>
        <time>2018-05-14T16:12:45Z</time>
      </trkpt>
      <trkpt lat="45.75961" lon="7.03083">
        <ele>931</ele>
        <time>2018-05-14T16:13:45Z</time>
      </trkpt>
      <trkpt lat="45.75962" lon="7.03082">
        <ele>931</ele>
        <time>2018-05-14T16:14:45Z</time>
      </trkpt>
      <trkpt lat="45.75963" lon="7.03082">
        <ele>931</ele>
        <time>2018-05-14T16:15:45Z</time>
      </trkpt>
      <trkpt lat="45.75964" lon="7.03081">
        <ele>931</ele>
        <time>2018-05-14T16:16:45Z</time>
      </trkpt>
      <trkpt lat="45.75965" lon="7.03081">
        <ele>931</ele>
        <time>2018-05-14T16:17:45Z</time>
      </trkpt>
      <trkpt lat="45.75965" lon="7.0308">
        <ele>931</ele>
        <time>2018-05-14T16:18:45Z</time>
      </trkpt>
      <trkpt lat="45.75966" lon="7.03079">
        <ele>931</ele>
        <time>2018-05-14T16:19:45Z</time>
      </trkpt>
      <trkpt lat="45.75967" lon="7.03078">
        <ele>931</ele>
        <time>2018-05-14T16:20:45Z</time>
      </trkpt>
      <trkpt lat="45.75968" lon="7.03077">
        <ele>931</ele>
        <time>2018-05-14T16:21:45Z</time>
      </trkpt>
      <trkpt lat="45.75969" lon="7.03076">
        <ele>931</ele>
        <time>2018-05-14T16:22:45Z</time>
      </trkpt>
      <trkpt lat="45.75969" lon="7.03075">
        <ele>931</ele>
        <time>2018-05-14T16:23:45Z</time>
      </trkpt>
      <trkpt lat="45.7597" lon="7.03074">
        <ele>931</ele>
        <time>2018-05-14T16:24:45Z</time>
      </trkpt>
      <trkpt lat="45.7597" lon="7.03073">
        <ele>931</ele>
        <time>2018-05-14T16:25:45Z</time>
      </trkpt>
      <trkpt lat="45.75971" lon="7.03072">
        <ele>931</ele>
        <time>2018-05-14T16:26:45Z</time>
      </trkpt>
      <trkpt lat="45.75971" lon="7.0307">
        <ele>931</ele>
        <time>2018-05-14T16:27:45Z</time>
      </trkpt>
      <trkpt lat="45.75972" lon="7.03069">
        <ele>931</ele>
        <time>2018-05-14T16:28:45Z</time>
      </trkpt>
      <trkpt lat="45.75972" lon="7.03068">
        <ele>931</ele>
        <time>2018-05-14T16:29:45Z</time>
      </trkpt>
      <trkpt lat="45.75972" lon="7.03066">
        <ele>931</ele>
        <time>2018-05-14T16:30:45Z</time>
      </trkpt>
      <trkpt lat="45.75972" lon="7.03065">
        <ele>931</ele>
        <time>2018-05-14T16:31:45Z</time>
      </trkpt>
      <trkpt lat="45.75973" lon="7.03063">
        <ele>931</ele>
        <time>2018-05-14T16:32:45Z</time>
      </trkpt>
      <trkpt lat="45.75973" lon="7.03062">
        <ele>931</ele>
        <time>2018-05-14T16:33:45Z</time>
      </trkpt>
      <trkpt lat="45.75973" lon="7.0306">
        <ele>931</ele>
        <time>2018-05-14T16:34:45Z</time>
      </trkpt>
      <trkpt lat="45.75973" lon="7.03059">
        <ele>931</ele>
        <time>2018-05-14T16:35:45Z</time>
      </trkpt>
      <trkpt lat="45.75972" lon="7.03057">
        <ele>931</ele>
        <time>2018-05-14T16:36:45Z</time>
      </trkpt>
      <trkpt lat="45.75972" lon="7.03056">
        <ele>931</ele>
        <time>2018-05-14T16:37:45Z</time>
      </trkpt>
      <trkpt lat="45.75972" lon="7.03055">
        <ele>931</ele>
        <time>2018-05-14T16:38:45Z</time>
      </trkpt>
      <trkpt lat="45.75972" lon="7.03053">
        <ele>931</ele>
        <time>2018-05-14T16:39:45Z</time>
      </trkpt>
      <trkpt lat="45.75971" lon="7.03052">
        <ele>931</ele>
        <time>2018-05-14T16:40:45Z</time>
      </trkpt>
      <trkpt lat="45.75971" lon="7.03051">
        <ele>931</ele>
        <time>2018-05-14T16:41:45Z</time>
      </trkpt>
      <trkpt lat="45.7597" lon="7.0305">
        <ele>931</ele>
        <time>2018-05-14T16:42:45Z</time>
      </trkpt>
      <trkpt lat="45.7597" lon="7.03048">
        <ele>931</ele>
        <time>2018-05-14T16:43:45Z</time>
      </trkpt>
      <trkpt lat="45.75969" lon="7.03047">
        <ele>931</ele>
        <time>2018-05-14T16:44:45Z</time>
      </trkpt>
      <trkpt lat="45.75968" lon="7.03046">
        <ele>931</ele>
        <time>2018-05-14T16:45:45Z</time>
      </trkpt>
      <trkpt lat="45.75967" lon="7.03045">
        <ele>931</ele>
        <time>2018-05-14T16:46:45Z</time>
      </trkpt>
      <trkpt lat="45.7597" lon="7.03039">
        <ele>931</ele>
        <time>2018-05-14T16:47:45Z</time>
      </trkpt>
      <trkpt lat="45.7597" lon="7.03037">
        <ele>931</ele>
        <time>2018-05-14T16:48:45Z</time>
      </trkpt>
      <trkpt lat="45.75973" lon="7.03032">
        <ele>931</ele>
        <time>2018-05-14T16:49:45Z</time>
      </trkpt>
      <trkpt lat="45.75987" lon="7.03004">
        <ele>932</ele>
        <time>2018-05-14T16:50:45Z</time>
      </trkpt>
      <trkpt lat="45.75989" lon="7.02998">
        <ele>932</ele>
        <time>2018-05-14T16:51:45Z</time>
      </trkpt>
      <trkpt lat="45.76018" lon="7.02928">
        <ele>934</ele>
        <time>2018-05-14T16:52:45Z</time>
      </trkpt>
      <trkpt lat="45.76023" lon="7.02913">
        <ele>935</ele>
        <time>2018-05-14T16:53:45Z</time>
      </trkpt>
      <trkpt lat="45.76027" lon="7.02899">
        <ele>935</ele>
        <time>2018-05-14T16:54:45Z</time>
      </trkpt>
      <trkpt lat="45.7603" lon="7.02886">
        <ele>936</ele>
        <time>2018-05-14T16:55:45Z</time>
      </trkpt>
      <trkpt lat="45.76033" lon="7.02867">
        <ele>936</ele>
        <time>2018-05-14T16:56:45Z</time>
      </trkpt>
      <trkpt lat="45.76035" lon="7.02851">
        <ele>936</ele>
        <time>2018-05-14T16:57:45Z</time>
      </trkpt>
      <trkpt lat="45.76037" lon="7.02837">
        <ele>936</ele>
        <time>2018-05-14T16:58:45Z</time>
      </trkpt>
      <trkpt lat="45.76038" lon="7.02809">
        <ele>938</ele>
        <time>2018-05-14T16:59:45Z</time>
      </trkpt>
      <trkpt lat="45.76037" lon="7.02791">
        <ele>938</ele>
        <time>2018-05-14T17:00:45Z</time>
      </trkpt>
      <trkpt lat="45.76036" lon="7.02769">
        <ele>938</ele>
        <time>2018-05-14T17:01:45Z</time>
      </trkpt>
      <trkpt lat="45.76029" lon="7.0271">
        <ele>940</ele>
        <time>2018-05-14T17:02:45Z</time>
      </trkpt>
      <trkpt lat="45.76026" lon="7.02682">
        <ele>940</ele>
        <time>2018-05-14T17:03:45Z</time>
      </trkpt>
      <trkpt lat="45.76024" lon="7.02668">
        <ele>940</ele>
        <time>2018-05-14T17:04:45Z</time>
      </trkpt>
      <trkpt lat="45.76023" lon="7.02658">
        <ele>941</ele>
        <time>2018-05-14T17:05:45Z</time>
      </trkpt>
      <trkpt lat="45.76022" lon="7.02644">
        <ele>941</ele>
        <time>2018-05-14T17:06:45Z</time>
      </trkpt>
      <trkpt lat="45.76021" lon="7.02633">
        <ele>941</ele>
        <time>2018-05-14T17:07:45Z</time>
      </trkpt>
      <trkpt lat="45.7602" lon="7.02617">
        <ele>941</ele>
        <time>2018-05-14T17:08:45Z</time>
      </trkpt>
      <trkpt lat="45.7602" lon="7.02592">
        <ele>940</ele>
        <time>2018-05-14T17:09:45Z</time>
      </trkpt>
      <trkpt lat="45.76023" lon="7.02532">
        <ele>943</ele>
        <time>2018-05-14T17:10:45Z</time>
      </trkpt>
      <trkpt lat="45.76025" lon="7.02468">
        <ele>944</ele>
        <time>2018-05-14T17:11:45Z</time>
      </trkpt>
      <trkpt lat="45.76027" lon="7.02404">
        <ele>946</ele>
        <time>2018-05-14T17:12:45Z</time>
      </trkpt>
      <trkpt lat="45.76032" lon="7.02267">
        <ele>948</ele>
        <time>2018-05-14T17:13:45Z</time>
      </trkpt>
      <trkpt lat="45.76036" lon="7.0224">
        <ele>948</ele>
        <time>2018-05-14T17:14:45Z</time>
      </trkpt>
      <trkpt lat="45.76039" lon="7.02218">
        <ele>948</ele>
        <time>2018-05-14T17:15:45Z</time>
      </trkpt>
      <trkpt lat="45.76046" lon="7.02189">
        <ele>949</ele>
        <time>2018-05-14T17:16:45Z</time>
      </trkpt>
      <trkpt lat="45.76066" lon="7.02085">
        <ele>950</ele>
        <time>2018-05-14T17:17:45Z</time>
      </trkpt>
      <trkpt lat="45.76067" lon="7.02061">
        <ele>950</ele>
        <time>2018-05-14T17:18:45Z</time>
      </trkpt>
      <trkpt lat="45.76067" lon="7.02035">
        <ele>951</ele>
        <time>2018-05-14T17:19:45Z</time>
      </trkpt>
      <trkpt lat="45.76067" lon="7.02034">
        <ele>951</ele>
        <time>2018-05-14T17:20:45Z</time>
      </trkpt>
      <trkpt lat="45.76067" lon="7.02015">
        <ele>953</ele>
        <time>2018-05-14T17:21:45Z</time>
      </trkpt>
      <trkpt lat="45.76066" lon="7.01988">
        <ele>956</ele>
        <time>2018-05-14T17:22:45Z</time>
      </trkpt>
      <trkpt lat="45.76058" lon="7.0192">
        <ele>958</ele>
        <time>2018-05-14T17:23:45Z</time>
      </trkpt>
      <trkpt lat="45.76046" lon="7.01861">
        <ele>959</ele>
        <time>2018-05-14T17:24:45Z</time>
      </trkpt>
      <trkpt lat="45.76034" lon="7.0177">
        <ele>962</ele>
        <time>2018-05-14T17:25:45Z</time>
      </trkpt>
      <trkpt lat="45.76034" lon="7.01738">
        <ele>963</ele>
        <time>2018-05-14T17:26:45Z</time>
      </trkpt>
      <trkpt lat="45.76046" lon="7.01651">
        <ele>964</ele>
        <time>2018-05-14T17:27:45Z</time>
      </trkpt>
      <trkpt lat="45.76052" lon="7.01611">
        <ele>964</ele>
        <time>2018-05-14T17:28:45Z</time>
      </trkpt>
      <trkpt lat="45.76092" lon="7.01391">
        <ele>978</ele>
        <time>2018-05-14T17:29:45Z</time>
      </trkpt>
      <trkpt lat="45.7612" lon="7.01291">
        <ele>977</ele>
        <time>2018-05-14T17:30:45Z</time>
      </trkpt>
      <trkpt lat="45.76138" lon="7.01199">
        <ele>974</ele>
        <time>2018-05-14T17:31:45Z</time>
      </trkpt>
      <trkpt lat="45.76148" lon="7.01106">
        <ele>973</ele>
        <time>2018-05-14T17:32:45Z</time>
      </trkpt>
      <trkpt lat="45.76152" lon="7.01047">
        <ele>971</ele>
        <time>2018-05-14T17:33:45Z</time>
      </trkpt>
      <trkpt lat="45.76154" lon="7.01017">
        <ele>970</ele>
        <time>2018-05-14T17:34:45Z</time>
      </trkpt>
      <trkpt lat="45.76155" lon="7.00979">
        <ele>968</ele>
        <time>2018-05-14T17:35:45Z</time>
      </trkpt>
      <trkpt lat="45.76155" lon="7.00967">
        <ele>967</ele>
        <time>2018-05-14T17:36:45Z</time>
      </trkpt>
      <trkpt lat="45.76153" lon="7.00941">
        <ele>966</ele>
        <time>2018-05-14T17:37:45Z</time>
      </trkpt>
      <trkpt lat="45.76146" lon="7.00894">
        <ele>966</ele>
        <time>2018-05-14T17:38:45Z</time>
      </trkpt>
      <trkpt lat="45.76141" lon="7.00864">
        <ele>967</ele>
        <time>2018-05-14T17:39:45Z</time>
      </trkpt>
      <trkpt lat="45.76143" lon="7.00775">
        <ele>974</ele>
        <time>2018-05-14T17:40:45Z</time>
      </trkpt>
      <trkpt lat="45.7616" lon="7.00684">
        <ele>979</ele>
        <time>2018-05-14T17:41:45Z</time>
      </trkpt>
      <trkpt lat="45.76176" lon="7.0063">
        <ele>973</ele>
        <time>2018-05-14T17:42:45Z</time>
      </trkpt>
      <trkpt lat="45.76185" lon="7.00603">
        <ele>975</ele>
        <time>2018-05-14T17:43:45Z</time>
      </trkpt>
      <trkpt lat="45.76197" lon="7.00578">
        <ele>978</ele>
        <time>2018-05-14T17:44:45Z</time>
      </trkpt>
      <trkpt lat="45.76207" lon="7.00547">
        <ele>978</ele>
        <time>2018-05-14T17:45:45Z</time>
      </trkpt>
      <trkpt lat="45.76218" lon="7.00518">
        <ele>978</ele>
        <time>2018-05-14T17:46:45Z</time>
      </trkpt>
      <trkpt lat="45.76226" lon="7.00491">
        <ele>981</ele>
        <time>2018-05-14T17:47:45Z</time>
      </trkpt>
      <trkpt lat="45.76231" lon="7.00467">
        <ele>983</ele>
        <time>2018-05-14T17:48:45Z</time>
      </trkpt>
      <trkpt lat="45.76236" lon="7.00447">
        <ele>983</ele>
        <time>2018-05-14T17:49:45Z</time>
      </trkpt>
      <trkpt lat="45.76243" lon="7.0041">
        <ele>984</ele>
        <time>2018-05-14T17:50:45Z</time>
      </trkpt>
      <trkpt lat="45.76246" lon="7.0039">
        <ele>988</ele>
        <time>2018-05-14T17:51:45Z</time>
      </trkpt>
      <trkpt lat="45.76247" lon="7.00374">
        <ele>989</ele>
        <time>2018-05-14T17:52:45Z</time>
      </trkpt>
      <trkpt lat="45.76251" lon="7.00331">
        <ele>988</ele>
        <time>2018-05-14T17:53:45Z</time>
      </trkpt>
      <trkpt lat="45.76253" lon="7.0031">
        <ele>987</ele>
        <time>2018-05-14T17:54:45Z</time>
      </trkpt>
      <trkpt lat="45.76252" lon="7.00296">
        <ele>987</ele>
        <time>2018-05-14T17:55:45Z</time>
      </trkpt>
      <trkpt lat="45.76251" lon="7.00273">
        <ele>988</ele>
        <time>2018-05-14T17:56:45Z</time>
      </trkpt>
      <trkpt lat="45.76248" lon="7.00239">
        <ele>998</ele>
        <time>2018-05-14T17:57:45Z</time>
      </trkpt>
      <trkpt lat="45.76243" lon="7.00193">
        <ele>1006</ele>
        <time>2018-05-14T17:58:45Z</time>
      </trkpt>
      <trkpt lat="45.76246" lon="7.00166">
        <ele>1002</ele>
        <time>2018-05-14T17:59:45Z</time>
      </trkpt>
      <trkpt lat="45.7625" lon="7.00148">
        <ele>996</ele>
        <time>2018-05-14T18:00:45Z</time>
      </trkpt>
      <trkpt lat="45.76253" lon="7.00133">
        <ele>997</ele>
        <time>2018-05-14T18:01:45Z</time>
      </trkpt>
      <trkpt lat="45.76259" lon="7.00119">
        <ele>999</ele>
        <time>2018-05-14T18:02:45Z</time>
      </trkpt>
      <trkpt lat="45.76266" lon="7.00101">
        <ele>1002</ele>
        <time>2018-05-14T18:03:45Z</time>
      </trkpt>
      <trkpt lat="45.7627" lon="7.00089">
        <ele>1003</ele>
        <time>2018-05-14T18:04:45Z</time>
      </trkpt>
      <trkpt lat="45.76298" lon="7.0002">
        <ele>1011</ele>
        <time>2018-05-14T18:05:45Z</time>
      </trkpt>
      <trkpt lat="45.76319" lon="6.99969">
        <ele>1021</ele>
        <time>2018-05-14T18:06:45Z</time>
      </trkpt>
      <trkpt lat="45.76343" lon="6.99901">
        <ele>1016</ele>
        <time>2018-05-14T18:07:45Z</time>
      </trkpt>
      <trkpt lat="45.76359" lon="6.99842">
        <ele>1015</ele>
        <time>2018-05-14T18:08:45Z</time>
      </trkpt>
      <trkpt lat="45.76362" lon="6.99822">
        <ele>1014</ele>
        <time>2018-05-14T18:09:45Z</time>
      </trkpt>
      <trkpt lat="45.76362" lon="6.99808">
        <ele>1014</ele>
        <time>2018-05-14T18:10:45Z</time>
      </trkpt>
      <trkpt lat="45.76362" lon="6.99787">
        <ele>1014</ele>
        <time>2018-05-14T18:11:45Z</time>
      </trkpt>
      <trkpt lat="45.7636" lon="6.99762">
        <ele>1014</ele>
        <time>2018-05-14T18:12:45Z</time>
      </trkpt>
      <trkpt lat="45.76353" lon="6.99725">
        <ele>1012</ele>
        <time>2018-05-14T18:13:45Z</time>
      </trkpt>
      <trkpt lat="45.76348" lon="6.99701">
        <ele>1010</ele>
        <time>2018-05-14T18:14:45Z</time>
      </trkpt>
      <trkpt lat="45.7634" lon="6.99673">
        <ele>1008</ele>
        <time>2018-05-14T18:15:45Z</time>
      </trkpt>
      <trkpt lat="45.7633" lon="6.99642">
        <ele>1012</ele>
        <time>2018-05-14T18:16:45Z</time>
      </trkpt>
      <trkpt lat="45.76321" lon="6.99623">
        <ele>1012</ele>
        <time>2018-05-14T18:17:45Z</time>
      </trkpt>
      <trkpt lat="45.7629" lon="6.99562">
        <ele>1011</ele>
        <time>2018-05-14T18:18:45Z</time>
      </trkpt>
      <trkpt lat="45.76283" lon="6.99546">
        <ele>1012</ele>
        <time>2018-05-14T18:19:45Z</time>
      </trkpt>
      <trkpt lat="45.76278" lon="6.99529">
        <ele>1012</ele>
        <time>2018-05-14T18:20:45Z</time>
      </trkpt>
      <trkpt lat="45.76273" lon="6.99513">
        <ele>1013</ele>
        <time>2018-05-14T18:21:45Z</time>
      </trkpt>
      <trkpt lat="45.76269" lon="6.99499">
        <ele>1014</ele>
        <time>2018-05-14T18:22:45Z</time>
      </trkpt>
      <trkpt lat="45.76267" lon="6.99485">
        <ele>1013</ele>
        <time>2018-05-14T18:23:45Z</time>
      </trkpt>
      <trkpt lat="45.76265" lon="6.99455">
        <ele>1013</ele>
        <time>2018-05-14T18:24:45Z</time>
      </trkpt>
      <trkpt lat="45.76265" lon="6.99438">
        <ele>1014</ele>
        <time>2018-05-14T18:25:45Z</time>
      </trkpt>
      <trkpt lat="45.76271" lon="6.9934">
        <ele>1018</ele>
        <time>2018-05-14T18:26:45Z</time>
      </trkpt>
      <trkpt lat="45.76272" lon="6.99319">
        <ele>1018</ele>
        <time>2018-05-14T18:27:45Z</time>
      </trkpt>
      <trkpt lat="45.76273" lon="6.99299">
        <ele>1016</ele>
        <time>2018-05-14T18:28:45Z</time>
      </trkpt>
      <trkpt lat="45.76274" lon="6.99291">
        <ele>1016</ele>
        <time>2018-05-14T18:29:45Z</time>
      </trkpt>
      <trkpt lat="45.76273" lon="6.99269">
        <ele>1017</ele>
        <time>2018-05-14T18:30:45Z</time>
      </trkpt>
      <trkpt lat="45.76272" lon="6.9925">
        <ele>1018</ele>
        <time>2018-05-14T18:31:45Z</time>
      </trkpt>
      <trkpt lat="45.76271" lon="6.99241">
        <ele>1018</ele>
        <time>2018-05-14T18:32:45Z</time>
      </trkpt>
      <trkpt lat="45.7627" lon="6.9923">
        <ele>1017</ele>
        <time>2018-05-14T18:33:45Z</time>
      </trkpt>
      <trkpt lat="45.76266" lon="6.99213">
        <ele>1016</ele>
        <time>2018-05-14T18:34:45Z</time>
      </trkpt>
      <trkpt lat="45.76257" lon="6.99185">
        <ele>1016</ele>
        <time>2018-05-14T18:35:45Z</time>
      </trkpt>
      <trkpt lat="45.76242" lon="6.99134">
        <ele>1033</ele>
        <time>2018-05-14T18:36:45Z</time>
      </trkpt>
      <trkpt lat="45.76238" lon="6.99122">
        <ele>1033</ele>
        <time>2018-05-14T18:37:45Z</time>
      </trkpt>
      <trkpt lat="45.76234" lon="6.99111">
        <ele>1031</ele>
        <time>2018-05-14T18:38:45Z</time>
      </trkpt>
      <trkpt lat="45.76234" lon="6.99108">
        <ele>1031</ele>
        <time>2018-05-14T18:39:45Z</time>
      </trkpt>
      <trkpt lat="45.76232" lon="6.99097">
        <ele>1028</ele>
        <time>2018-05-14T18:40:45Z</time>
      </trkpt>
      <trkpt lat="45.76231" lon="6.99082">
        <ele>1023</ele>
        <time>2018-05-14T18:41:45Z</time>
      </trkpt>
      <trkpt lat="45.76231" lon="6.99072">
        <ele>1024</ele>
        <time>2018-05-14T18:42:45Z</time>
      </trkpt>
      <trkpt lat="45.76231" lon="6.99063">
        <ele>1025</ele>
        <time>2018-05-14T18:43:45Z</time>
      </trkpt>
      <trkpt lat="45.76232" lon="6.99054">
        <ele>1026</ele>
        <time>2018-05-14T18:44:45Z</time>
      </trkpt>
      <trkpt lat="45.76236" lon="6.99042">
        <ele>1026</ele>
        <time>2018-05-14T18:45:45Z</time>
      </trkpt>
      <trkpt lat="45.76241" lon="6.99028">
        <ele>1024</ele>
        <time>2018-05-14T18:46:45Z</time>
      </trkpt>
      <trkpt lat="45.76249" lon="6.9901">
        <ele>1016</ele>
        <time>2018-05-14T18:47:45Z</time>
      </trkpt>
      <trkpt lat="45.76249" lon="6.99009">
        <ele>1016</ele>
        <time>2018-05-14T18:48:45Z</time>
      </trkpt>
      <trkpt lat="45.76261" lon="6.98991">
        <ele>1008</ele>
        <time>2018-05-14T18:49:45Z</time>
      </trkpt>
      <trkpt lat="45.76282" lon="6.98967">
        <ele>1007</ele>
        <time>2018-05-14T18:50:45Z</time>
      </trkpt>
      <trkpt lat="45.76304" lon="6.98943">
        <ele>1007</ele>
        <time>2018-05-14T18:51:45Z</time>
      </trkpt>
      <trkpt lat="45.76327" lon="6.98923">
        <ele>1007</ele>
        <time>2018-05-14T18:52:45Z</time>
      </trkpt>
      <trkpt lat="45.76332" lon="6.98918">
        <ele>1007</ele>
        <time>2018-05-14T18:53:45Z</time>
      </trkpt>
      <trkpt lat="45.76346" lon="6.98898">
        <ele>1009</ele>
        <time>2018-05-14T18:54:45Z</time>
      </trkpt>
      <trkpt lat="45.76346" lon="6.98898">
        <ele>1009</ele>
        <time>2018-05-14T18:55:45Z</time>
      </trkpt>
      <trkpt lat="45.76346" lon="6.9889">
        <ele>1009</ele>
        <time>2018-05-14T18:56:45Z</time>
      </trkpt>
      <trkpt lat="45.76345" lon="6.98887">
        <ele>1009</ele>
        <time>2018-05-14T18:57:45Z</time>
      </trkpt>
      <trkpt lat="45.76345" lon="6.98885">
        <ele>1009</ele>
        <time>2018-05-14T18:58:45Z</time>
      </trkpt>
      <trkpt lat="45.76345" lon="6.98882">
        <ele>1009</ele>
        <time>2018-05-14T18:59:45Z</time>
      </trkpt>
      <trkpt lat="45.76345" lon="6.98879">
        <ele>1009</ele>
        <time>2018-05-14T19:00:45Z</time>
      </trkpt>
      <trkpt lat="45.76345" lon="6.98871">
        <ele>1009</ele>
        <time>2018-05-14T19:01:45Z</time>
      </trkpt>
      <trkpt lat="45.76346" lon="6.9886">
        <ele>1010</ele>
        <time>2018-05-14T19:02:45Z</time>
      </trkpt>
      <trkpt lat="45.76348" lon="6.98852">
        <ele>1010</ele>
        <time>2018-05-14T19:03:45Z</time>
      </trkpt>
      <trkpt lat="45.76361" lon="6.98792">
        <ele>1012</ele>
        <time>2018-05-14T19:04:45Z</time>
      </trkpt>
      <trkpt lat="45.7637" lon="6.98751">
        <ele>1013</ele>
        <time>2018-05-14T19:05:45Z</time>
      </trkpt>
      <trkpt lat="45.76379" lon="6.9871">
        <ele>1015</ele>
        <time>2018-05-14T19:06:45Z</time>
      </trkpt>
      <trkpt lat="45.76379" lon="6.98706">
        <ele>1016</ele>
        <time>2018-05-14T19:07:45Z</time>
      </trkpt>
      <trkpt lat="45.76388" lon="6.98664">
        <ele>1018</ele>
        <time>2018-05-14T19:08:45Z</time>
      </trkpt>
      <trkpt lat="45.76392" lon="6.98651">
        <ele>1019</ele>
        <time>2018-05-14T19:09:45Z</time>
      </trkpt>
      <trkpt lat="45.76393" lon="6.98648">
        <ele>1019</ele>
        <time>2018-05-14T19:10:45Z</time>
      </trkpt>
      <trkpt lat="45.76396" lon="6.98642">
        <ele>1019</ele>
        <time>2018-05-14T19:11:45Z</time>
      </trkpt>
      <trkpt lat="45.76397" lon="6.98638">
        <ele>1019</ele>
        <time>2018-05-14T19:12:45Z</time>
      </trkpt>
      <trkpt lat="45.76399" lon="6.98636">
        <ele>1019</ele>
        <time>2018-05-14T19:13:45Z</time>
      </trkpt>
      <trkpt lat="45.76402" lon="6.98631">
        <ele>1019</ele>
        <time>2018-05-14T19:14:45Z</time>
      </trkpt>
      <trkpt lat="45.76405" lon="6.98626">
        <ele>1019</ele>
        <time>2018-05-14T19:15:45Z</time>
      </trkpt>
      <trkpt lat="45.76408" lon="6.98621">
        <ele>1019</ele>
        <time>2018-05-14T19:16:45Z</time>
      </trkpt>
      <trkpt lat="45.76422" lon="6.98597">
        <ele>1020</ele>
        <time>2018-05-14T19:17:45Z</time>
      </trkpt>
      <trkpt lat="45.76428" lon="6.98587">
        <ele>1020</ele>
        <time>2018-05-14T19:18:45Z</time>
      </trkpt>
      <trkpt lat="45.76448" lon="6.98536">
        <ele>1023</ele>
        <time>2018-05-14T19:19:45Z</time>
      </trkpt>
      <trkpt lat="45.7645" lon="6.9853">
        <ele>1023</ele>
        <time>2018-05-14T19:20:45Z</time>
      </trkpt>
      <trkpt lat="45.76457" lon="6.98514">
        <ele>1024</ele>
        <time>2018-05-14T19:21:45Z</time>
      </trkpt>
      <trkpt lat="45.76464" lon="6.98498">
        <ele>1029</ele>
        <time>2018-05-14T19:22:45Z</time>
      </trkpt>
      <trkpt lat="45.76469" lon="6.98488">
        <ele>1029</ele>
        <time>2018-05-14T19:23:45Z</time>
      </trkpt>
      <trkpt lat="45.76474" lon="6.98479">
        <ele>1029</ele>
        <time>2018-05-14T19:24:45Z</time>
      </trkpt>
      <trkpt lat="45.7648" lon="6.98468">
        <ele>1029</ele>
        <time>2018-05-14T19:25:45Z</time>
      </trkpt>
      <trkpt lat="45.76484" lon="6.98463">
        <ele>1029</ele>
        <time>2018-05-14T19:26:45Z</time>
      </trkpt>
      <trkpt lat="45.76487" lon="6.98459">
        <ele>1030</ele>
        <time>2018-05-14T19:27:45Z</time>
      </trkpt>
      <trkpt lat="45.76491" lon="6.98455">
        <ele>1030</ele>
        <time>2018-05-14T19:28:45Z</time>
      </trkpt>
      <trkpt lat="45.76498" lon="6.98448">
        <ele>1030</ele>
        <time>2018-05-14T19:29:45Z</time>
      </trkpt>
      <trkpt lat="45.76499" lon="6.98446">
        <ele>1030</ele>
        <time>2018-05-14T19:30:45Z</time>
      </trkpt>
      <trkpt lat="45.76505" lon="6.9844">
        <ele>1026</ele>
        <time>2018-05-14T19:31:45Z</time>
      </trkpt>
      <trkpt lat="45.76551" lon="6.98393">
        <ele>1033</ele>
        <time>2018-05-14T19:32:45Z</time>
      </trkpt>
      <trkpt lat="45.76559" lon="6.98384">
        <ele>1033</ele>
        <time>2018-05-14T19:33:45Z</time>
      </trkpt>
      <trkpt lat="45.76623" lon="6.9832">
        <ele>1044</ele>
        <time>2018-05-14T19:34:45Z</time>
      </trkpt>
      <trkpt lat="45.76627" lon="6.98315">
        <ele>1044</ele>
        <time>2018-05-14T19:35:45Z</time>
      </trkpt>
      <trkpt lat="45.7663" lon="6.98311">
        <ele>1044</ele>
        <time>2018-05-14T19:36:45Z</time>
      </trkpt>
      <trkpt lat="45.76631" lon="6.98308">
        <ele>1045</ele>
        <time>2018-05-14T19:37:45Z</time>
      </trkpt>
      <trkpt lat="45.76631" lon="6.98304">
        <ele>1045</ele>
        <time>2018-05-14T19:38:45Z</time>
      </trkpt>
      <trkpt lat="45.7663" lon="6.983">
        <ele>1046</ele>
        <time>2018-05-14T19:39:45Z</time>
      </trkpt>
      <trkpt lat="45.7663" lon="6.983">
        <ele>1046</ele>
        <time>2018-05-14T19:40:45Z</time>
      </trkpt>
      <trkpt lat="45.76628" lon="6.98298">
        <ele>1047</ele>
        <time>2018-05-14T19:41:45Z</time>
      </trkpt>
      <trkpt lat="45.76626" lon="6.98296">
        <ele>1047</ele>
        <time>2018-05-14T19:42:45Z</time>
      </trkpt>
      <trkpt lat="45.76625" lon="6.98296">
        <ele>1047</ele>
        <time>2018-05-14T19:43:45Z</time>
      </trkpt>
      <trkpt lat="45.76623" lon="6.98296">
        <ele>1047</ele>
        <time>2018-05-14T19:44:45Z</time>
      </trkpt>
      <trkpt lat="45.76618" lon="6.98299">
        <ele>1047</ele>
        <time>2018-05-14T19:45:45Z</time>
      </trkpt>
      <trkpt lat="45.76614" lon="6.983">
        <ele>1047</ele>
        <time>2018-05-14T19:46:45Z</time>
      </trkpt>
      <trkpt lat="45.7661" lon="6.98302">
        <ele>1047</ele>
        <time>2018-05-14T19:47:45Z</time>
      </trkpt>
      <trkpt lat="45.76604" lon="6.98305">
        <ele>1047</ele>
        <time>2018-05-14T19:48:45Z</time>
      </trkpt>
      <trkpt lat="45.76588" lon="6.98316">
        <ele>1045</ele>
        <time>2018-05-14T19:49:45Z</time>
      </trkpt>
      <trkpt lat="45.7658" lon="6.98321">
        <ele>1047</ele>
        <time>2018-05-14T19:50:45Z</time>
      </trkpt>
      <trkpt lat="45.76574" lon="6.98322">
        <ele>1048</ele>
        <time>2018-05-14T19:51:45Z</time>
      </trkpt>
      <trkpt lat="45.76569" lon="6.98323">
        <ele>1049</ele>
        <time>2018-05-14T19:52:45Z</time>
      </trkpt>
      <trkpt lat="45.7656" lon="6.98324">
        <ele>1051</ele>
        <time>2018-05-14T19:53:45Z</time>
      </trkpt>
      <trkpt lat="45.76439" lon="6.98331">
        <ele>1061</ele>
        <time>2018-05-14T19:54:45Z</time>
      </trkpt>
      <trkpt lat="45.76388" lon="6.98332">
        <ele>1064</ele>
        <time>2018-05-14T19:55:45Z</time>
      </trkpt>
      <trkpt lat="45.76383" lon="6.98332">
        <ele>1065</ele>
        <time>2018-05-14T19:56:45Z</time>
      </trkpt>
      <trkpt lat="45.76376" lon="6.98331">
        <ele>1065</ele>
        <time>2018-05-14T19:57:45Z</time>
      </trkpt>
      <trkpt lat="45.76355" lon="6.98326">
        <ele>1065</ele>
        <time>2018-05-14T19:58:45Z</time>
      </trkpt>
      <trkpt lat="45.7635" lon="6.98324">
        <ele>1064</ele>
        <time>2018-05-14T19:59:45Z</time>
      </trkpt>
      <trkpt lat="45.76343" lon="6.98321">
        <ele>1064</ele>
        <time>2018-05-14T20:00:45Z</time>
      </trkpt>
      <trkpt lat="45.76334" lon="6.98319">
        <ele>1063</ele>
        <time>2018-05-14T20:01:45Z</time>
      </trkpt>
      <trkpt lat="45.76325" lon="6.98315">
        <ele>1068</ele>
        <time>2018-05-14T20:02:45Z</time>
      </trkpt>
      <trkpt lat="45.76319" lon="6.98313">
        <ele>1069</ele>
        <time>2018-05-14T20:03:45Z</time>
      </trkpt>
      <trkpt lat="45.76316" lon="6.98312">
        <ele>1070</ele>
        <time>2018-05-14T20:04:45Z</time>
      </trkpt>
      <trkpt lat="45.76311" lon="6.98311">
        <ele>1071</ele>
        <time>2018-05-14T20:05:45Z</time>
      </trkpt>
      <trkpt lat="45.76306" lon="6.98311">
        <ele>1072</ele>
        <time>2018-05-14T20:06:45Z</time>
      </trkpt>
      <trkpt lat="45.76302" lon="6.9831">
        <ele>1072</ele>
        <time>2018-05-14T20:07:45Z</time>
      </trkpt>
      <trkpt lat="45.76298" lon="6.9831">
        <ele>1073</ele>
        <time>2018-05-14T20:08:45Z</time>
      </trkpt>
      <trkpt lat="45.76295" lon="6.9831">
        <ele>1073</ele>
        <time>2018-05-14T20:09:45Z</time>
      </trkpt>
      <trkpt lat="45.7629" lon="6.9831">
        <ele>1073</ele>
        <time>2018-05-14T20:10:45Z</time>
      </trkpt>
      <trkpt lat="45.76287" lon="6.9831">
        <ele>1074</ele>
        <time>2018-05-14T20:11:45Z</time>
      </trkpt>
      <trkpt lat="45.76282" lon="6.98311">
        <ele>1074</ele>
        <time>2018-05-14T20:12:45Z</time>
      </trkpt>
      <trkpt lat="45.7624" lon="6.98326">
        <ele>1077</ele>
        <time>2018-05-14T20:13:45Z</time>
      </trkpt>
      <trkpt lat="45.76234" lon="6.98329">
        <ele>1079</ele>
        <time>2018-05-14T20:14:45Z</time>
      </trkpt>
      <trkpt lat="45.76222" lon="6.98334">
        <ele>1072</ele>
        <time>2018-05-14T20:15:45Z</time>
      </trkpt>
      <trkpt lat="45.76213" lon="6.98338">
        <ele>1073</ele>
        <time>2018-05-14T20:16:45Z</time>
      </trkpt>
      <trkpt lat="45.76153" lon="6.98379">
        <ele>1092</ele>
        <time>2018-05-14T20:17:45Z</time>
      </trkpt>
      <trkpt lat="45.76129" lon="6.98396">
        <ele>1093</ele>
        <time>2018-05-14T20:18:45Z</time>
      </trkpt>
      <trkpt lat="45.76124" lon="6.98401">
        <ele>1093</ele>
        <time>2018-05-14T20:19:45Z</time>
      </trkpt>
      <trkpt lat="45.76121" lon="6.98406">
        <ele>1093</ele>
        <time>2018-05-14T20:20:45Z</time>
      </trkpt>
      <trkpt lat="45.76114" lon="6.98416">
        <ele>1094</ele>
        <time>2018-05-14T20:21:45Z</time>
      </trkpt>
      <trkpt lat="45.76112" lon="6.98419">
        <ele>1078</ele>
        <time>2018-05-14T20:22:45Z</time>
      </trkpt>
      <trkpt lat="45.76107" lon="6.98423">
        <ele>1080</ele>
        <time>2018-05-14T20:23:45Z</time>
      </trkpt>
      <trkpt lat="45.76097" lon="6.98432">
        <ele>1081</ele>
        <time>2018-05-14T20:24:45Z</time>
      </trkpt>
      <trkpt lat="45.76088" lon="6.98439">
        <ele>1080</ele>
        <time>2018-05-14T20:25:45Z</time>
      </trkpt>
      <trkpt lat="45.76084" lon="6.98443">
        <ele>1079</ele>
        <time>2018-05-14T20:26:45Z</time>
      </trkpt>
      <trkpt lat="45.7608" lon="6.98446">
        <ele>1098</ele>
        <time>2018-05-14T20:27:45Z</time>
      </trkpt>
      <trkpt lat="45.76076" lon="6.98447">
        <ele>1098</ele>
        <time>2018-05-14T20:28:45Z</time>
      </trkpt>
      <trkpt lat="45.76073" lon="6.98448">
        <ele>1098</ele>
        <time>2018-05-14T20:29:45Z</time>
      </trkpt>
      <trkpt lat="45.7607" lon="6.98448">
        <ele>1098</ele>
        <time>2018-05-14T20:30:45Z</time>
      </trkpt>
      <trkpt lat="45.76067" lon="6.98446">
        <ele>1099</ele>
        <time>2018-05-14T20:31:45Z</time>
      </trkpt>
      <trkpt lat="45.76065" lon="6.98441">
        <ele>1100</ele>
        <time>2018-05-14T20:32:45Z</time>
      </trkpt>
      <trkpt lat="45.76065" lon="6.98433">
        <ele>1101</ele>
        <time>2018-05-14T20:33:45Z</time>
      </trkpt>
      <trkpt lat="45.76067" lon="6.9843">
        <ele>1100</ele>
        <time>2018-05-14T20:34:45Z</time>
      </trkpt>
      <trkpt lat="45.76074" lon="6.98426">
        <ele>1100</ele>
        <time>2018-05-14T20:35:45Z</time>
      </trkpt>
      <trkpt lat="45.76079" lon="6.98424">
        <ele>1099</ele>
        <time>2018-05-14T20:36:45Z</time>
      </trkpt>
      <trkpt lat="45.76083" lon="6.98424">
        <ele>1099</ele>
        <time>2018-05-14T20:37:45Z</time>
      </trkpt>
      <trkpt lat="45.76089" lon="6.98422">
        <ele>1090</ele>
        <time>2018-05-14T20:38:45Z</time>
      </trkpt>
      <trkpt lat="45.76092" lon="6.98421">
        <ele>1089</ele>
        <time>2018-05-14T20:39:45Z</time>
      </trkpt>
      <trkpt lat="45.76097" lon="6.98418">
        <ele>1086</ele>
        <time>2018-05-14T20:40:45Z</time>
      </trkpt>
      <trkpt lat="45.76101" lon="6.98415">
        <ele>1096</ele>
        <time>2018-05-14T20:41:45Z</time>
      </trkpt>
      <trkpt lat="45.76104" lon="6.98411">
        <ele>1096</ele>
        <time>2018-05-14T20:42:45Z</time>
      </trkpt>
      <trkpt lat="45.76108" lon="6.98404">
        <ele>1096</ele>
        <time>2018-05-14T20:43:45Z</time>
      </trkpt>
      <trkpt lat="45.76113" lon="6.9839">
        <ele>1096</ele>
        <time>2018-05-14T20:44:45Z</time>
      </trkpt>
      <trkpt lat="45.76115" lon="6.98381">
        <ele>1097</ele>
        <time>2018-05-14T20:45:45Z</time>
      </trkpt>
      <trkpt lat="45.76118" lon="6.98373">
        <ele>1098</ele>
        <time>2018-05-14T20:46:45Z</time>
      </trkpt>
      <trkpt lat="45.76119" lon="6.98366">
        <ele>1098</ele>
        <time>2018-05-14T20:47:45Z</time>
      </trkpt>
      <trkpt lat="45.76122" lon="6.98359">
        <ele>1099</ele>
        <time>2018-05-14T20:48:45Z</time>
      </trkpt>
      <trkpt lat="45.76125" lon="6.98354">
        <ele>1099</ele>
        <time>2018-05-14T20:49:45Z</time>
      </trkpt>
      <trkpt lat="45.76127" lon="6.9835">
        <ele>1099</ele>
        <time>2018-05-14T20:50:45Z</time>
      </trkpt>
      <trkpt lat="45.7613" lon="6.98345">
        <ele>1099</ele>
        <time>2018-05-14T20:51:45Z</time>
      </trkpt>
      <trkpt lat="45.76152" lon="6.98333">
        <ele>1104</ele>
        <time>2018-05-14T20:52:45Z</time>
      </trkpt>
      <trkpt lat="45.76161" lon="6.98324">
        <ele>1102</ele>
        <time>2018-05-14T20:53:45Z</time>
      </trkpt>
      <trkpt lat="45.76169" lon="6.98315">
        <ele>1094</ele>
        <time>2018-05-14T20:54:45Z</time>
      </trkpt>
      <trkpt lat="45.76181" lon="6.98303">
        <ele>1094</ele>
        <time>2018-05-14T20:55:45Z</time>
      </trkpt>
      <trkpt lat="45.76186" lon="6.983">
        <ele>1094</ele>
        <time>2018-05-14T20:56:45Z</time>
      </trkpt>
      <trkpt lat="45.76189" lon="6.98296">
        <ele>1094</ele>
        <time>2018-05-14T20:57:45Z</time>
      </trkpt>
      <trkpt lat="45.76193" lon="6.98291">
        <ele>1094</ele>
        <time>2018-05-14T20:58:45Z</time>
      </trkpt>
      <trkpt lat="45.76194" lon="6.98288">
        <ele>1095</ele>
        <time>2018-05-14T20:59:45Z</time>
      </trkpt>
      <trkpt lat="45.76196" lon="6.98285">
        <ele>1095</ele>
        <time>2018-05-14T21:00:45Z</time>
      </trkpt>
      <trkpt lat="45.76195" lon="6.9828">
        <ele>1096</ele>
        <time>2018-05-14T21:01:45Z</time>
      </trkpt>
      <trkpt lat="45.76193" lon="6.98277">
        <ele>1097</ele>
        <time>2018-05-14T21:02:45Z</time>
      </trkpt>
      <trkpt lat="45.7619" lon="6.98276">
        <ele>1097</ele>
        <time>2018-05-14T21:03:45Z</time>
      </trkpt>
      <trkpt lat="45.76184" lon="6.98275">
        <ele>1098</ele>
        <time>2018-05-14T21:04:45Z</time>
      </trkpt>
      <trkpt lat="45.76179" lon="6.98276">
        <ele>1099</ele>
        <time>2018-05-14T21:05:45Z</time>
      </trkpt>
      <trkpt lat="45.76173" lon="6.98282">
        <ele>1098</ele>
        <time>2018-05-14T21:06:45Z</time>
      </trkpt>
      <trkpt lat="45.76168" lon="6.98289">
        <ele>1097</ele>
        <time>2018-05-14T21:07:45Z</time>
      </trkpt>
      <trkpt lat="45.76156" lon="6.98306">
        <ele>1110</ele>
        <time>2018-05-14T21:08:45Z</time>
      </trkpt>
      <trkpt lat="45.76146" lon="6.98315">
        <ele>1110</ele>
        <time>2018-05-14T21:09:45Z</time>
      </trkpt>
      <trkpt lat="45.76142" lon="6.98318">
        <ele>1110</ele>
        <time>2018-05-14T21:10:45Z</time>
      </trkpt>
      <trkpt lat="45.76135" lon="6.98321">
        <ele>1112</ele>
        <time>2018-05-14T21:11:45Z</time>
      </trkpt>
      <trkpt lat="45.76127" lon="6.98324">
        <ele>1114</ele>
        <time>2018-05-14T21:12:45Z</time>
      </trkpt>
      <trkpt lat="45.7612" lon="6.98329">
        <ele>1115</ele>
        <time>2018-05-14T21:13:45Z</time>
      </trkpt>
      <trkpt lat="45.76117" lon="6.98334">
        <ele>1103</ele>
        <time>2018-05-14T21:14:45Z</time>
      </trkpt>
      <trkpt lat="45.76113" lon="6.98339">
        <ele>1104</ele>
        <time>2018-05-14T21:15:45Z</time>
      </trkpt>
      <trkpt lat="45.76109" lon="6.98346">
        <ele>1104</ele>
        <time>2018-05-14T21:16:45Z</time>
      </trkpt>
      <trkpt lat="45.76107" lon="6.98352">
        <ele>1103</ele>
        <time>2018-05-14T21:17:45Z</time>
      </trkpt>
      <trkpt lat="45.76104" lon="6.9836">
        <ele>1102</ele>
        <time>2018-05-14T21:18:45Z</time>
      </trkpt>
      <trkpt lat="45.76101" lon="6.98366">
        <ele>1102</ele>
        <time>2018-05-14T21:19:45Z</time>
      </trkpt>
      <trkpt lat="45.76097" lon="6.98374">
        <ele>1100</ele>
        <time>2018-05-14T21:20:45Z</time>
      </trkpt>
      <trkpt lat="45.76089" lon="6.98386">
        <ele>1099</ele>
        <time>2018-05-14T21:21:45Z</time>
      </trkpt>
      <trkpt lat="45.76084" lon="6.9839">
        <ele>1099</ele>
        <time>2018-05-14T21:22:45Z</time>
      </trkpt>
      <trkpt lat="45.76079" lon="6.98392">
        <ele>1114</ele>
        <time>2018-05-14T21:23:45Z</time>
      </trkpt>
      <trkpt lat="45.76073" lon="6.98395">
        <ele>1113</ele>
        <time>2018-05-14T21:24:45Z</time>
      </trkpt>
      <trkpt lat="45.76068" lon="6.98396">
        <ele>1114</ele>
        <time>2018-05-14T21:25:45Z</time>
      </trkpt>
      <trkpt lat="45.76063" lon="6.98397">
        <ele>1115</ele>
        <time>2018-05-14T21:26:45Z</time>
      </trkpt>
      <trkpt lat="45.7606" lon="6.98397">
        <ele>1116</ele>
        <time>2018-05-14T21:27:45Z</time>
      </trkpt>
      <trkpt lat="45.76054" lon="6.98395">
        <ele>1118</ele>
        <time>2018-05-14T21:28:45Z</time>
      </trkpt>
      <trkpt lat="45.76053" lon="6.98392">
        <ele>1119</ele>
        <time>2018-05-14T21:29:45Z</time>
      </trkpt>
      <trkpt lat="45.76052" lon="6.98388">
        <ele>1120</ele>
        <time>2018-05-14T21:30:45Z</time>
      </trkpt>
      <trkpt lat="45.76052" lon="6.98383">
        <ele>1120</ele>
        <time>2018-05-14T21:31:45Z</time>
      </trkpt>
      <trkpt lat="45.76053" lon="6.9838">
        <ele>1121</ele>
        <time>2018-05-14T21:32:45Z</time>
      </trkpt>
      <trkpt lat="45.76057" lon="6.98375">
        <ele>1121</ele>
        <time>2018-05-14T21:33:45Z</time>
      </trkpt>
      <trkpt lat="45.76061" lon="6.98374">
        <ele>1120</ele>
        <time>2018-05-14T21:34:45Z</time>
      </trkpt>
      <trkpt lat="45.76066" lon="6.98373">
        <ele>1120</ele>
        <time>2018-05-14T21:35:45Z</time>
      </trkpt>
      <trkpt lat="45.76076" lon="6.9837">
        <ele>1119</ele>
        <time>2018-05-14T21:36:45Z</time>
      </trkpt>
      <trkpt lat="45.76081" lon="6.98368">
        <ele>1119</ele>
        <time>2018-05-14T21:37:45Z</time>
      </trkpt>
      <trkpt lat="45.76084" lon="6.98366">
        <ele>1103</ele>
        <time>2018-05-14T21:38:45Z</time>
      </trkpt>
      <trkpt lat="45.76086" lon="6.98365">
        <ele>1104</ele>
        <time>2018-05-14T21:39:45Z</time>
      </trkpt>
      <trkpt lat="45.76089" lon="6.98363">
        <ele>1104</ele>
        <time>2018-05-14T21:40:45Z</time>
      </trkpt>
      <trkpt lat="45.76091" lon="6.9836">
        <ele>1105</ele>
        <time>2018-05-14T21:41:45Z</time>
      </trkpt>
      <trkpt lat="45.76092" lon="6.9836">
        <ele>1104</ele>
        <time>2018-05-14T21:42:45Z</time>
      </trkpt>
      <trkpt lat="45.76095" lon="6.98352">
        <ele>1107</ele>
        <time>2018-05-14T21:43:45Z</time>
      </trkpt>
      <trkpt lat="45.76098" lon="6.98345">
        <ele>1108</ele>
        <time>2018-05-14T21:44:45Z</time>
      </trkpt>
      <trkpt lat="45.761" lon="6.98339">
        <ele>1109</ele>
        <time>2018-05-14T21:45:45Z</time>
      </trkpt>
      <trkpt lat="45.76101" lon="6.98332">
        <ele>1118</ele>
        <time>2018-05-14T21:46:45Z</time>
      </trkpt>
      <trkpt lat="45.76102" lon="6.98329">
        <ele>1118</ele>
        <time>2018-05-14T21:47:45Z</time>
      </trkpt>
      <trkpt lat="45.76104" lon="6.98321">
        <ele>1118</ele>
        <time>2018-05-14T21:48:45Z</time>
      </trkpt>
      <trkpt lat="45.76106" lon="6.98316">
        <ele>1118</ele>
        <time>2018-05-14T21:49:45Z</time>
      </trkpt>
      <trkpt lat="45.76108" lon="6.98311">
        <ele>1118</ele>
        <time>2018-05-14T21:50:45Z</time>
      </trkpt>
      <trkpt lat="45.76112" lon="6.98304">
        <ele>1118</ele>
        <time>2018-05-14T21:51:45Z</time>
      </trkpt>
      <trkpt lat="45.76128" lon="6.98287">
        <ele>1117</ele>
        <time>2018-05-14T21:52:45Z</time>
      </trkpt>
      <trkpt lat="45.76152" lon="6.98267">
        <ele>1115</ele>
        <time>2018-05-14T21:53:45Z</time>
      </trkpt>
      <trkpt lat="45.76158" lon="6.98258">
        <ele>1115</ele>
        <time>2018-05-14T21:54:45Z</time>
      </trkpt>
      <trkpt lat="45.76161" lon="6.98253">
        <ele>1114</ele>
        <time>2018-05-14T21:55:45Z</time>
      </trkpt>
      <trkpt lat="45.76166" lon="6.98246">
        <ele>1118</ele>
        <time>2018-05-14T21:56:45Z</time>
      </trkpt>
      <trkpt lat="45.76169" lon="6.98243">
        <ele>1115</ele>
        <time>2018-05-14T21:57:45Z</time>
      </trkpt>
      <trkpt lat="45.76175" lon="6.98236">
        <ele>1117</ele>
        <time>2018-05-14T21:58:45Z</time>
      </trkpt>
      <trkpt lat="45.76175" lon="6.98234">
        <ele>1117</ele>
        <time>2018-05-14T21:59:45Z</time>
      </trkpt>
      <trkpt lat="45.76178" lon="6.98227">
        <ele>1119</ele>
        <time>2018-05-14T22:00:45Z</time>
      </trkpt>
      <trkpt lat="45.76178" lon="6.98225">
        <ele>1119</ele>
        <time>2018-05-14T22:01:45Z</time>
      </trkpt>
      <trkpt lat="45.76177" lon="6.98221">
        <ele>1120</ele>
        <time>2018-05-14T22:02:45Z</time>
      </trkpt>
      <trkpt lat="45.76171" lon="6.98216">
        <ele>1122</ele>
        <time>2018-05-14T22:03:45Z</time>
      </trkpt>
      <trkpt lat="45.76166" lon="6.98215">
        <ele>1138</ele>
        <time>2018-05-14T22:04:45Z</time>
      </trkpt>
      <trkpt lat="45.76161" lon="6.9822">
        <ele>1136</ele>
        <time>2018-05-14T22:05:45Z</time>
      </trkpt>
      <trkpt lat="45.76154" lon="6.98232">
        <ele>1132</ele>
        <time>2018-05-14T22:06:45Z</time>
      </trkpt>
      <trkpt lat="45.76149" lon="6.9824">
        <ele>1131</ele>
        <time>2018-05-14T22:07:45Z</time>
      </trkpt>
      <trkpt lat="45.76139" lon="6.98258">
        <ele>1118</ele>
        <time>2018-05-14T22:08:45Z</time>
      </trkpt>
      <trkpt lat="45.76137" lon="6.98262">
        <ele>1118</ele>
        <time>2018-05-14T22:09:45Z</time>
      </trkpt>
      <trkpt lat="45.76132" lon="6.98267">
        <ele>1118</ele>
        <time>2018-05-14T22:10:45Z</time>
      </trkpt>
      <trkpt lat="45.76128" lon="6.98271">
        <ele>1119</ele>
        <time>2018-05-14T22:11:45Z</time>
      </trkpt>
      <trkpt lat="45.76122" lon="6.98276">
        <ele>1120</ele>
        <time>2018-05-14T22:12:45Z</time>
      </trkpt>
      <trkpt lat="45.76114" lon="6.98279">
        <ele>1121</ele>
        <time>2018-05-14T22:13:45Z</time>
      </trkpt>
      <trkpt lat="45.76108" lon="6.98281">
        <ele>1122</ele>
        <time>2018-05-14T22:14:45Z</time>
      </trkpt>
      <trkpt lat="45.76103" lon="6.98284">
        <ele>1122</ele>
        <time>2018-05-14T22:15:45Z</time>
      </trkpt>
      <trkpt lat="45.76098" lon="6.98288">
        <ele>1122</ele>
        <time>2018-05-14T22:16:45Z</time>
      </trkpt>
      <trkpt lat="45.76095" lon="6.98292">
        <ele>1122</ele>
        <time>2018-05-14T22:17:45Z</time>
      </trkpt>
      <trkpt lat="45.76092" lon="6.98298">
        <ele>1121</ele>
        <time>2018-05-14T22:18:45Z</time>
      </trkpt>
      <trkpt lat="45.76085" lon="6.98313">
        <ele>1120</ele>
        <time>2018-05-14T22:19:45Z</time>
      </trkpt>
      <trkpt lat="45.76084" lon="6.98316">
        <ele>1120</ele>
        <time>2018-05-14T22:20:45Z</time>
      </trkpt>
      <trkpt lat="45.76081" lon="6.98321">
        <ele>1129</ele>
        <time>2018-05-14T22:21:45Z</time>
      </trkpt>
      <trkpt lat="45.76079" lon="6.98325">
        <ele>1127</ele>
        <time>2018-05-14T22:22:45Z</time>
      </trkpt>
      <trkpt lat="45.76077" lon="6.98327">
        <ele>1127</ele>
        <time>2018-05-14T22:23:45Z</time>
      </trkpt>
      <trkpt lat="45.76072" lon="6.98329">
        <ele>1129</ele>
        <time>2018-05-14T22:24:45Z</time>
      </trkpt>
      <trkpt lat="45.7606" lon="6.98329">
        <ele>1133</ele>
        <time>2018-05-14T22:25:45Z</time>
      </trkpt>
      <trkpt lat="45.76052" lon="6.9833">
        <ele>1136</ele>
        <time>2018-05-14T22:26:45Z</time>
      </trkpt>
      <trkpt lat="45.76048" lon="6.9833">
        <ele>1137</ele>
        <time>2018-05-14T22:27:45Z</time>
      </trkpt>
      <trkpt lat="45.76043" lon="6.9833">
        <ele>1138</ele>
        <time>2018-05-14T22:28:45Z</time>
      </trkpt>
      <trkpt lat="45.76038" lon="6.98333">
        <ele>1139</ele>
        <time>2018-05-14T22:29:45Z</time>
      </trkpt>
      <trkpt lat="45.76026" lon="6.98342">
        <ele>1130</ele>
        <time>2018-05-14T22:30:45Z</time>
      </trkpt>
      <trkpt lat="45.76019" lon="6.98348">
        <ele>1131</ele>
        <time>2018-05-14T22:31:45Z</time>
      </trkpt>
      <trkpt lat="45.76009" lon="6.98357">
        <ele>1131</ele>
        <time>2018-05-14T22:32:45Z</time>
      </trkpt>
      <trkpt lat="45.76004" lon="6.9836">
        <ele>1131</ele>
        <time>2018-05-14T22:33:45Z</time>
      </trkpt>
      <trkpt lat="45.75998" lon="6.98364">
        <ele>1152</ele>
        <time>2018-05-14T22:34:45Z</time>
      </trkpt>
      <trkpt lat="45.75994" lon="6.9837">
        <ele>1152</ele>
        <time>2018-05-14T22:35:45Z</time>
      </trkpt>
      <trkpt lat="45.7599" lon="6.98379">
        <ele>1152</ele>
        <time>2018-05-14T22:36:45Z</time>
      </trkpt>
      <trkpt lat="45.75988" lon="6.98389">
        <ele>1150</ele>
        <time>2018-05-14T22:37:45Z</time>
      </trkpt>
      <trkpt lat="45.75987" lon="6.98405">
        <ele>1145</ele>
        <time>2018-05-14T22:38:45Z</time>
      </trkpt>
      <trkpt lat="45.75986" lon="6.98414">
        <ele>1143</ele>
        <time>2018-05-14T22:39:45Z</time>
      </trkpt>
      <trkpt lat="45.75985" lon="6.98422">
        <ele>1141</ele>
        <time>2018-05-14T22:40:45Z</time>
      </trkpt>
      <trkpt lat="45.75984" lon="6.9843">
        <ele>1143</ele>
        <time>2018-05-14T22:41:45Z</time>
      </trkpt>
      <trkpt lat="45.75984" lon="6.98435">
        <ele>1143</ele>
        <time>2018-05-14T22:42:45Z</time>
      </trkpt>
      <trkpt lat="45.75983" lon="6.98441">
        <ele>1145</ele>
        <time>2018-05-14T22:43:45Z</time>
      </trkpt>
      <trkpt lat="45.7598" lon="6.98447">
        <ele>1146</ele>
        <time>2018-05-14T22:44:45Z</time>
      </trkpt>
      <trkpt lat="45.75979" lon="6.98448">
        <ele>1146</ele>
        <time>2018-05-14T22:45:45Z</time>
      </trkpt>
      <trkpt lat="45.75976" lon="6.98448">
        <ele>1147</ele>
        <time>2018-05-14T22:46:45Z</time>
      </trkpt>
      <trkpt lat="45.75973" lon="6.98446">
        <ele>1148</ele>
        <time>2018-05-14T22:47:45Z</time>
      </trkpt>
      <trkpt lat="45.75972" lon="6.98442">
        <ele>1148</ele>
        <time>2018-05-14T22:48:45Z</time>
      </trkpt>
      <trkpt lat="45.75971" lon="6.98433">
        <ele>1148</ele>
        <time>2018-05-14T22:49:45Z</time>
      </trkpt>
      <trkpt lat="45.75972" lon="6.98409">
        <ele>1152</ele>
        <time>2018-05-14T22:50:45Z</time>
      </trkpt>
      <trkpt lat="45.75983" lon="6.98365">
        <ele>1154</ele>
        <time>2018-05-14T22:51:45Z</time>
      </trkpt>
      <trkpt lat="45.76001" lon="6.98319">
        <ele>1143</ele>
        <time>2018-05-14T22:52:45Z</time>
      </trkpt>
      <trkpt lat="45.76005" lon="6.98309">
        <ele>1143</ele>
        <time>2018-05-14T22:53:45Z</time>
      </trkpt>
      <trkpt lat="45.76007" lon="6.98303">
        <ele>1144</ele>
        <time>2018-05-14T22:54:45Z</time>
      </trkpt>
      <trkpt lat="45.76009" lon="6.98301">
        <ele>1144</ele>
        <time>2018-05-14T22:55:45Z</time>
      </trkpt>
      <trkpt lat="45.76012" lon="6.98297">
        <ele>1144</ele>
        <time>2018-05-14T22:56:45Z</time>
      </trkpt>
      <trkpt lat="45.76016" lon="6.98294">
        <ele>1144</ele>
        <time>2018-05-14T22:57:45Z</time>
      </trkpt>
      <trkpt lat="45.76027" lon="6.98288">
        <ele>1144</ele>
        <time>2018-05-14T22:58:45Z</time>
      </trkpt>
      <trkpt lat="45.76065" lon="6.98269">
        <ele>1141</ele>
        <time>2018-05-14T22:59:45Z</time>
      </trkpt>
      <trkpt lat="45.76072" lon="6.98264">
        <ele>1141</ele>
        <time>2018-05-14T23:00:45Z</time>
      </trkpt>
      <trkpt lat="45.76085" lon="6.98243">
        <ele>1142</ele>
        <time>2018-05-14T23:01:45Z</time>
      </trkpt>
      <trkpt lat="45.76111" lon="6.98206">
        <ele>1148</ele>
        <time>2018-05-14T23:02:45Z</time>
      </trkpt>
      <trkpt lat="45.76117" lon="6.98199">
        <ele>1149</ele>
        <time>2018-05-14T23:03:45Z</time>
      </trkpt>
      <trkpt lat="45.76126" lon="6.98194">
        <ele>1148</ele>
        <time>2018-05-14T23:04:45Z</time>
      </trkpt>
      <trkpt lat="45.76141" lon="6.98186">
        <ele>1147</ele>
        <time>2018-05-14T23:05:45Z</time>
      </trkpt>
      <trkpt lat="45.76143" lon="6.98185">
        <ele>1147</ele>
        <time>2018-05-14T23:06:45Z</time>
      </trkpt>
      <trkpt lat="45.76148" lon="6.98182">
        <ele>1147</ele>
        <time>2018-05-14T23:07:45Z</time>
      </trkpt>
      <trkpt lat="45.76148" lon="6.9818">
        <ele>1147</ele>
        <time>2018-05-14T23:08:45Z</time>
      </trkpt>
      <trkpt lat="45.76148" lon="6.98175">
        <ele>1148</ele>
        <time>2018-05-14T23:09:45Z</time>
      </trkpt>
      <trkpt lat="45.76147" lon="6.98173">
        <ele>1148</ele>
        <time>2018-05-14T23:10:45Z</time>
      </trkpt>
      <trkpt lat="45.76145" lon="6.98167">
        <ele>1149</ele>
        <time>2018-05-14T23:11:45Z</time>
      </trkpt>
      <trkpt lat="45.76143" lon="6.98166">
        <ele>1168</ele>
        <time>2018-05-14T23:12:45Z</time>
      </trkpt>
      <trkpt lat="45.7614" lon="6.98164">
        <ele>1170</ele>
        <time>2018-05-14T23:13:45Z</time>
      </trkpt>
      <trkpt lat="45.76135" lon="6.98164">
        <ele>1172</ele>
        <time>2018-05-14T23:14:45Z</time>
      </trkpt>
      <trkpt lat="45.7613" lon="6.98168">
        <ele>1151</ele>
        <time>2018-05-14T23:15:45Z</time>
      </trkpt>
      <trkpt lat="45.76124" lon="6.98174">
        <ele>1152</ele>
        <time>2018-05-14T23:16:45Z</time>
      </trkpt>
      <trkpt lat="45.76116" lon="6.98186">
        <ele>1152</ele>
        <time>2018-05-14T23:17:45Z</time>
      </trkpt>
      <trkpt lat="45.76103" lon="6.98199">
        <ele>1152</ele>
        <time>2018-05-14T23:18:45Z</time>
      </trkpt>
      <trkpt lat="45.76086" lon="6.98214">
        <ele>1149</ele>
        <time>2018-05-14T23:19:45Z</time>
      </trkpt>
      <trkpt lat="45.76078" lon="6.9822">
        <ele>1161</ele>
        <time>2018-05-14T23:20:45Z</time>
      </trkpt>
      <trkpt lat="45.76072" lon="6.98223">
        <ele>1161</ele>
        <time>2018-05-14T23:21:45Z</time>
      </trkpt>
      <trkpt lat="45.76065" lon="6.98227">
        <ele>1160</ele>
        <time>2018-05-14T23:22:45Z</time>
      </trkpt>
      <trkpt lat="45.76051" lon="6.98231">
        <ele>1162</ele>
        <time>2018-05-14T23:23:45Z</time>
      </trkpt>
      <trkpt lat="45.75999" lon="6.98245">
        <ele>1166</ele>
        <time>2018-05-14T23:24:45Z</time>
      </trkpt>
      <trkpt lat="45.75992" lon="6.98248">
        <ele>1169</ele>
        <time>2018-05-14T23:25:45Z</time>
      </trkpt>
      <trkpt lat="45.75981" lon="6.98254">
        <ele>1166</ele>
        <time>2018-05-14T23:26:45Z</time>
      </trkpt>
      <trkpt lat="45.75975" lon="6.98261">
        <ele>1168</ele>
        <time>2018-05-14T23:27:45Z</time>
      </trkpt>
      <trkpt lat="45.75966" lon="6.98273">
        <ele>1169</ele>
        <time>2018-05-14T23:28:45Z</time>
      </trkpt>
      <trkpt lat="45.75955" lon="6.98293">
        <ele>1170</ele>
        <time>2018-05-14T23:29:45Z</time>
      </trkpt>
      <trkpt lat="45.75951" lon="6.98304">
        <ele>1171</ele>
        <time>2018-05-14T23:30:45Z</time>
      </trkpt>
      <trkpt lat="45.7595" lon="6.98312">
        <ele>1170</ele>
        <time>2018-05-14T23:31:45Z</time>
      </trkpt>
      <trkpt lat="45.75949" lon="6.98323">
        <ele>1171</ele>
        <time>2018-05-14T23:32:45Z</time>
      </trkpt>
      <trkpt lat="45.75947" lon="6.98339">
        <ele>1165</ele>
        <time>2018-05-14T23:33:45Z</time>
      </trkpt>
      <trkpt lat="45.75946" lon="6.98363">
        <ele>1164</ele>
        <time>2018-05-14T23:34:45Z</time>
      </trkpt>
      <trkpt lat="45.75944" lon="6.98381">
        <ele>1164</ele>
        <time>2018-05-14T23:35:45Z</time>
      </trkpt>
      <trkpt lat="45.75943" lon="6.98389">
        <ele>1164</ele>
        <time>2018-05-14T23:36:45Z</time>
      </trkpt>
      <trkpt lat="45.75942" lon="6.984">
        <ele>1165</ele>
        <time>2018-05-14T23:37:45Z</time>
      </trkpt>
      <trkpt lat="45.75941" lon="6.98409">
        <ele>1166</ele>
        <time>2018-05-14T23:38:45Z</time>
      </trkpt>
      <trkpt lat="45.75941" lon="6.98417">
        <ele>1163</ele>
        <time>2018-05-14T23:39:45Z</time>
      </trkpt>
      <trkpt lat="45.7594" lon="6.98422">
        <ele>1163</ele>
        <time>2018-05-14T23:40:45Z</time>
      </trkpt>
      <trkpt lat="45.7594" lon="6.98428">
        <ele>1162</ele>
        <time>2018-05-14T23:41:45Z</time>
      </trkpt>
      <trkpt lat="45.75939" lon="6.98433">
        <ele>1162</ele>
        <time>2018-05-14T23:42:45Z</time>
      </trkpt>
      <trkpt lat="45.75938" lon="6.98437">
        <ele>1162</ele>
        <time>2018-05-14T23:43:45Z</time>
      </trkpt>
      <trkpt lat="45.75934" lon="6.9844">
        <ele>1162</ele>
        <time>2018-05-14T23:44:45Z</time>
      </trkpt>
      <trkpt lat="45.75931" lon="6.98441">
        <ele>1163</ele>
        <time>2018-05-14T23:45:45Z</time>
      </trkpt>
      <trkpt lat="45.75927" lon="6.9844">
        <ele>1165</ele>
        <time>2018-05-14T23:46:45Z</time>
      </trkpt>
      <trkpt lat="45.75925" lon="6.98435">
        <ele>1167</ele>
        <time>2018-05-14T23:47:45Z</time>
      </trkpt>
      <trkpt lat="45.75925" lon="6.98429">
        <ele>1170</ele>
        <time>2018-05-14T23:48:45Z</time>
      </trkpt>
      <trkpt lat="45.75926" lon="6.98405">
        <ele>1172</ele>
        <time>2018-05-14T23:49:45Z</time>
      </trkpt>
      <trkpt lat="45.75928" lon="6.9839">
        <ele>1168</ele>
        <time>2018-05-14T23:50:45Z</time>
      </trkpt>
      <trkpt lat="45.7593" lon="6.98377">
        <ele>1167</ele>
        <time>2018-05-14T23:51:45Z</time>
      </trkpt>
      <trkpt lat="45.75934" lon="6.98351">
        <ele>1169</ele>
        <time>2018-05-14T23:52:45Z</time>
      </trkpt>
      <trkpt lat="45.75935" lon="6.98332">
        <ele>1175</ele>
        <time>2018-05-14T23:53:45Z</time>
      </trkpt>
      <trkpt lat="45.75935" lon="6.98324">
        <ele>1175</ele>
        <time>2018-05-14T23:54:45Z</time>
      </trkpt>
      <trkpt lat="45.75934" lon="6.9831">
        <ele>1174</ele>
        <time>2018-05-14T23:55:45Z</time>
      </trkpt>
      <trkpt lat="45.75934" lon="6.98295">
        <ele>1174</ele>
        <time>2018-05-14T23:56:45Z</time>
      </trkpt>
      <trkpt lat="45.75934" lon="6.98286">
        <ele>1175</ele>
        <time>2018-05-14T23:57:45Z</time>
      </trkpt>
      <trkpt lat="45.75934" lon="6.98279">
        <ele>1176</ele>
        <time>2018-05-14T23:58:45Z</time>
      </trkpt>
      <trkpt lat="45.75934" lon="6.98269">
        <ele>1178</ele>
        <time>2018-05-14T23:59:45Z</time>
      </trkpt>
      <trkpt lat="45.75942" lon="6.98255">
        <ele>1177</ele>
        <time>2018-05-15T00:00:45Z</time>
      </trkpt>
      <trkpt lat="45.75968" lon="6.98224">
        <ele>1185</ele>
        <time>2018-05-15T00:01:45Z</time>
      </trkpt>
      <trkpt lat="45.75977" lon="6.98215">
        <ele>1185</ele>
        <time>2018-05-15T00:02:45Z</time>
      </trkpt>
      <trkpt lat="45.75986" lon="6.9821">
        <ele>1185</ele>
        <time>2018-05-15T00:03:45Z</time>
      </trkpt>
      <trkpt lat="45.76006" lon="6.98201">
        <ele>1173</ele>
        <time>2018-05-15T00:04:45Z</time>
      </trkpt>
      <trkpt lat="45.76025" lon="6.98196">
        <ele>1173</ele>
        <time>2018-05-15T00:05:45Z</time>
      </trkpt>
      <trkpt lat="45.76031" lon="6.98195">
        <ele>1172</ele>
        <time>2018-05-15T00:06:45Z</time>
      </trkpt>
      <trkpt lat="45.76036" lon="6.98193">
        <ele>1172</ele>
        <time>2018-05-15T00:07:45Z</time>
      </trkpt>
      <trkpt lat="45.76038" lon="6.98192">
        <ele>1172</ele>
        <time>2018-05-15T00:08:45Z</time>
      </trkpt>
      <trkpt lat="45.7604" lon="6.98189">
        <ele>1172</ele>
        <time>2018-05-15T00:09:45Z</time>
      </trkpt>
      <trkpt lat="45.76041" lon="6.98187">
        <ele>1172</ele>
        <time>2018-05-15T00:10:45Z</time>
      </trkpt>
      <trkpt lat="45.76041" lon="6.98183">
        <ele>1173</ele>
        <time>2018-05-15T00:11:45Z</time>
      </trkpt>
      <trkpt lat="45.76041" lon="6.9818">
        <ele>1174</ele>
        <time>2018-05-15T00:12:45Z</time>
      </trkpt>
      <trkpt lat="45.7604" lon="6.98175">
        <ele>1174</ele>
        <time>2018-05-15T00:13:45Z</time>
      </trkpt>
      <trkpt lat="45.76036" lon="6.98172">
        <ele>1175</ele>
        <time>2018-05-15T00:14:45Z</time>
      </trkpt>
      <trkpt lat="45.76032" lon="6.98172">
        <ele>1176</ele>
        <time>2018-05-15T00:15:45Z</time>
      </trkpt>
      <trkpt lat="45.76028" lon="6.98174">
        <ele>1177</ele>
        <time>2018-05-15T00:16:45Z</time>
      </trkpt>
      <trkpt lat="45.76022" lon="6.98179">
        <ele>1177</ele>
        <time>2018-05-15T00:17:45Z</time>
      </trkpt>
      <trkpt lat="45.76016" lon="6.98184">
        <ele>1178</ele>
        <time>2018-05-15T00:18:45Z</time>
      </trkpt>
      <trkpt lat="45.7601" lon="6.98187">
        <ele>1178</ele>
        <time>2018-05-15T00:19:45Z</time>
      </trkpt>
      <trkpt lat="45.76001" lon="6.9819">
        <ele>1178</ele>
        <time>2018-05-15T00:20:45Z</time>
      </trkpt>
      <trkpt lat="45.75985" lon="6.98194">
        <ele>1188</ele>
        <time>2018-05-15T00:21:45Z</time>
      </trkpt>
      <trkpt lat="45.75981" lon="6.98195">
        <ele>1189</ele>
        <time>2018-05-15T00:22:45Z</time>
      </trkpt>
      <trkpt lat="45.75973" lon="6.98196">
        <ele>1189</ele>
        <time>2018-05-15T00:23:45Z</time>
      </trkpt>
      <trkpt lat="45.75965" lon="6.982">
        <ele>1190</ele>
        <time>2018-05-15T00:24:45Z</time>
      </trkpt>
      <trkpt lat="45.75956" lon="6.98206">
        <ele>1190</ele>
        <time>2018-05-15T00:25:45Z</time>
      </trkpt>
      <trkpt lat="45.75945" lon="6.98213">
        <ele>1191</ele>
        <time>2018-05-15T00:26:45Z</time>
      </trkpt>
      <trkpt lat="45.7593" lon="6.98226">
        <ele>1191</ele>
        <time>2018-05-15T00:27:45Z</time>
      </trkpt>
      <trkpt lat="45.75925" lon="6.98232">
        <ele>1191</ele>
        <time>2018-05-15T00:28:45Z</time>
      </trkpt>
      <trkpt lat="45.75921" lon="6.98238">
        <ele>1191</ele>
        <time>2018-05-15T00:29:45Z</time>
      </trkpt>
      <trkpt lat="45.75917" lon="6.9825">
        <ele>1192</ele>
        <time>2018-05-15T00:30:45Z</time>
      </trkpt>
      <trkpt lat="45.75913" lon="6.98271">
        <ele>1199</ele>
        <time>2018-05-15T00:31:45Z</time>
      </trkpt>
      <trkpt lat="45.7591" lon="6.98292">
        <ele>1200</ele>
        <time>2018-05-15T00:32:45Z</time>
      </trkpt>
      <trkpt lat="45.75908" lon="6.98298">
        <ele>1199</ele>
        <time>2018-05-15T00:33:45Z</time>
      </trkpt>
      <trkpt lat="45.75905" lon="6.98308">
        <ele>1198</ele>
        <time>2018-05-15T00:34:45Z</time>
      </trkpt>
      <trkpt lat="45.75902" lon="6.98314">
        <ele>1197</ele>
        <time>2018-05-15T00:35:45Z</time>
      </trkpt>
      <trkpt lat="45.75898" lon="6.98319">
        <ele>1197</ele>
        <time>2018-05-15T00:36:45Z</time>
      </trkpt>
      <trkpt lat="45.75893" lon="6.98326">
        <ele>1198</ele>
        <time>2018-05-15T00:37:45Z</time>
      </trkpt>
      <trkpt lat="45.75893" lon="6.98327">
        <ele>1198</ele>
        <time>2018-05-15T00:38:45Z</time>
      </trkpt>
      <trkpt lat="45.75888" lon="6.98332">
        <ele>1200</ele>
        <time>2018-05-15T00:39:45Z</time>
      </trkpt>
      <trkpt lat="45.75883" lon="6.98334">
        <ele>1196</ele>
        <time>2018-05-15T00:40:45Z</time>
      </trkpt>
      <trkpt lat="45.7588" lon="6.98337">
        <ele>1197</ele>
        <time>2018-05-15T00:41:45Z</time>
      </trkpt>
      <trkpt lat="45.75801" lon="6.98361">
        <ele>1204</ele>
        <time>2018-05-15T00:42:45Z</time>
      </trkpt>
      <trkpt lat="45.7579" lon="6.98366">
        <ele>1202</ele>
        <time>2018-05-15T00:43:45Z</time>
      </trkpt>
      <trkpt lat="45.75755" lon="6.98382">
        <ele>1193</ele>
        <time>2018-05-15T00:44:45Z</time>
      </trkpt>
      <trkpt lat="45.75752" lon="6.98383">
        <ele>1192</ele>
        <time>2018-05-15T00:45:45Z</time>
      </trkpt>
      <trkpt lat="45.75744" lon="6.98384">
        <ele>1180</ele>
        <time>2018-05-15T00:46:45Z</time>
      </trkpt>
      <trkpt lat="45.75734" lon="6.98384">
        <ele>1180</ele>
        <time>2018-05-15T00:47:45Z</time>
      </trkpt>
      <trkpt lat="45.75723" lon="6.98379">
        <ele>1181</ele>
        <time>2018-05-15T00:48:45Z</time>
      </trkpt>
      <trkpt lat="45.75718" lon="6.98375">
        <ele>1182</ele>
        <time>2018-05-15T00:49:45Z</time>
      </trkpt>
      <trkpt lat="45.75711" lon="6.98369">
        <ele>1183</ele>
        <time>2018-05-15T00:50:45Z</time>
      </trkpt>
      <trkpt lat="45.75707" lon="6.98364">
        <ele>1184</ele>
        <time>2018-05-15T00:51:45Z</time>
      </trkpt>
      <trkpt lat="45.75701" lon="6.98356">
        <ele>1186</ele>
        <time>2018-05-15T00:52:45Z</time>
      </trkpt>
      <trkpt lat="45.75677" lon="6.98318">
        <ele>1207</ele>
        <time>2018-05-15T00:53:45Z</time>
      </trkpt>
      <trkpt lat="45.75659" lon="6.98289">
        <ele>1203</ele>
        <time>2018-05-15T00:54:45Z</time>
      </trkpt>
      <trkpt lat="45.75654" lon="6.98283">
        <ele>1204</ele>
        <time>2018-05-15T00:55:45Z</time>
      </trkpt>
      <trkpt lat="45.75648" lon="6.98277">
        <ele>1204</ele>
        <time>2018-05-15T00:56:45Z</time>
      </trkpt>
      <trkpt lat="45.75643" lon="6.98275">
        <ele>1204</ele>
        <time>2018-05-15T00:57:45Z</time>
      </trkpt>
      <trkpt lat="45.75631" lon="6.9827">
        <ele>1202</ele>
        <time>2018-05-15T00:58:45Z</time>
      </trkpt>
      <trkpt lat="45.75622" lon="6.98267">
        <ele>1201</ele>
        <time>2018-05-15T00:59:45Z</time>
      </trkpt>
      <trkpt lat="45.75611" lon="6.98265">
        <ele>1199</ele>
        <time>2018-05-15T01:00:45Z</time>
      </trkpt>
      <trkpt lat="45.75603" lon="6.98262">
        <ele>1198</ele>
        <time>2018-05-15T01:01:45Z</time>
      </trkpt>
      <trkpt lat="45.75598" lon="6.98257">
        <ele>1197</ele>
        <time>2018-05-15T01:02:45Z</time>
      </trkpt>
      <trkpt lat="45.75594" lon="6.9825">
        <ele>1201</ele>
        <time>2018-05-15T01:03:45Z</time>
      </trkpt>
      <trkpt lat="45.75588" lon="6.98241">
        <ele>1201</ele>
        <time>2018-05-15T01:04:45Z</time>
      </trkpt>
      <trkpt lat="45.75585" lon="6.98234">
        <ele>1204</ele>
        <time>2018-05-15T01:05:45Z</time>
      </trkpt>
      <trkpt lat="45.75571" lon="6.98206">
        <ele>1203</ele>
        <time>2018-05-15T01:06:45Z</time>
      </trkpt>
      <trkpt lat="45.75561" lon="6.98181">
        <ele>1206</ele>
        <time>2018-05-15T01:07:45Z</time>
      </trkpt>
      <trkpt lat="45.75552" lon="6.98156">
        <ele>1211</ele>
        <time>2018-05-15T01:08:45Z</time>
      </trkpt>
      <trkpt lat="45.75545" lon="6.98141">
        <ele>1210</ele>
        <time>2018-05-15T01:09:45Z</time>
      </trkpt>
      <trkpt lat="45.7553" lon="6.98108">
        <ele>1208</ele>
        <time>2018-05-15T01:10:45Z</time>
      </trkpt>
      <trkpt lat="45.75519" lon="6.98078">
        <ele>1211</ele>
        <time>2018-05-15T01:11:45Z</time>
      </trkpt>
      <trkpt lat="45.75516" lon="6.98069">
        <ele>1212</ele>
        <time>2018-05-15T01:12:45Z</time>
      </trkpt>
      <trkpt lat="45.75507" lon="6.98051">
        <ele>1217</ele>
        <time>2018-05-15T01:13:45Z</time>
      </trkpt>
      <trkpt lat="45.75497" lon="6.98028">
        <ele>1207</ele>
        <time>2018-05-15T01:14:45Z</time>
      </trkpt>
      <trkpt lat="45.75489" lon="6.98009">
        <ele>1211</ele>
        <time>2018-05-15T01:15:45Z</time>
      </trkpt>
      <trkpt lat="45.75484" lon="6.98001">
        <ele>1210</ele>
        <time>2018-05-15T01:16:45Z</time>
      </trkpt>
      <trkpt lat="45.75474" lon="6.97984">
        <ele>1221</ele>
        <time>2018-05-15T01:17:45Z</time>
      </trkpt>
      <trkpt lat="45.75465" lon="6.97976">
        <ele>1222</ele>
        <time>2018-05-15T01:18:45Z</time>
      </trkpt>
      <trkpt lat="45.75461" lon="6.97973">
        <ele>1221</ele>
        <time>2018-05-15T01:19:45Z</time>
      </trkpt>
      <trkpt lat="45.75454" lon="6.97968">
        <ele>1221</ele>
        <time>2018-05-15T01:20:45Z</time>
      </trkpt>
      <trkpt lat="45.75443" lon="6.9796">
        <ele>1220</ele>
        <time>2018-05-15T01:21:45Z</time>
      </trkpt>
      <trkpt lat="45.75432" lon="6.97953">
        <ele>1220</ele>
        <time>2018-05-15T01:22:45Z</time>
      </trkpt>
      <trkpt lat="45.75424" lon="6.97947">
        <ele>1220</ele>
        <time>2018-05-15T01:23:45Z</time>
      </trkpt>
      <trkpt lat="45.75416" lon="6.9794">
        <ele>1210</ele>
        <time>2018-05-15T01:24:45Z</time>
      </trkpt>
      <trkpt lat="45.7541" lon="6.97932">
        <ele>1211</ele>
        <time>2018-05-15T01:25:45Z</time>
      </trkpt>
      <trkpt lat="45.75404" lon="6.97921">
        <ele>1212</ele>
        <time>2018-05-15T01:26:45Z</time>
      </trkpt>
      <trkpt lat="45.75399" lon="6.97911">
        <ele>1218</ele>
        <time>2018-05-15T01:27:45Z</time>
      </trkpt>
      <trkpt lat="45.75398" lon="6.97909">
        <ele>1218</ele>
        <time>2018-05-15T01:28:45Z</time>
      </trkpt>
      <trkpt lat="45.75391" lon="6.97894">
        <ele>1219</ele>
        <time>2018-05-15T01:29:45Z</time>
      </trkpt>
      <trkpt lat="45.75227" lon="6.97689">
        <ele>1222</ele>
        <time>2018-05-15T01:30:45Z</time>
      </trkpt>
      <trkpt lat="45.75209" lon="6.97657">
        <ele>1235</ele>
        <time>2018-05-15T01:31:45Z</time>
      </trkpt>
      <trkpt lat="45.7517" lon="6.9759">
        <ele>1228</ele>
        <time>2018-05-15T01:32:45Z</time>
      </trkpt>
      <trkpt lat="45.7516" lon="6.97573">
        <ele>1224</ele>
        <time>2018-05-15T01:33:45Z</time>
      </trkpt>
      <trkpt lat="45.75149" lon="6.97557">
        <ele>1226</ele>
        <time>2018-05-15T01:34:45Z</time>
      </trkpt>
      <trkpt lat="45.75121" lon="6.97518">
        <ele>1227</ele>
        <time>2018-05-15T01:35:45Z</time>
      </trkpt>
      <trkpt lat="45.75115" lon="6.97509">
        <ele>1226</ele>
        <time>2018-05-15T01:36:45Z</time>
      </trkpt>
      <trkpt lat="45.7511" lon="6.975">
        <ele>1238</ele>
        <time>2018-05-15T01:37:45Z</time>
      </trkpt>
      <trkpt lat="45.75101" lon="6.9748">
        <ele>1238</ele>
        <time>2018-05-15T01:38:45Z</time>
      </trkpt>
      <trkpt lat="45.75093" lon="6.97463">
        <ele>1241</ele>
        <time>2018-05-15T01:39:45Z</time>
      </trkpt>
      <trkpt lat="45.75088" lon="6.97448">
        <ele>1243</ele>
        <time>2018-05-15T01:40:45Z</time>
      </trkpt>
      <trkpt lat="45.75081" lon="6.97434">
        <ele>1230</ele>
        <time>2018-05-15T01:41:45Z</time>
      </trkpt>
      <trkpt lat="45.75059" lon="6.97401">
        <ele>1233</ele>
        <time>2018-05-15T01:42:45Z</time>
      </trkpt>
      <trkpt lat="45.75048" lon="6.97381">
        <ele>1232</ele>
        <time>2018-05-15T01:43:45Z</time>
      </trkpt>
      <trkpt lat="45.75046" lon="6.97378">
        <ele>1232</ele>
        <time>2018-05-15T01:44:45Z</time>
      </trkpt>
      <trkpt lat="45.75039" lon="6.97363">
        <ele>1232</ele>
        <time>2018-05-15T01:45:45Z</time>
      </trkpt>
      <trkpt lat="45.75031" lon="6.97338">
        <ele>1231</ele>
        <time>2018-05-15T01:46:45Z</time>
      </trkpt>
      <trkpt lat="45.75024" lon="6.97314">
        <ele>1242</ele>
        <time>2018-05-15T01:47:45Z</time>
      </trkpt>
      <trkpt lat="45.7502" lon="6.97303">
        <ele>1243</ele>
        <time>2018-05-15T01:48:45Z</time>
      </trkpt>
      <trkpt lat="45.75015" lon="6.97292">
        <ele>1244</ele>
        <time>2018-05-15T01:49:45Z</time>
      </trkpt>
      <trkpt lat="45.75006" lon="6.97275">
        <ele>1245</ele>
        <time>2018-05-15T01:50:45Z</time>
      </trkpt>
      <trkpt lat="45.74999" lon="6.97262">
        <ele>1236</ele>
        <time>2018-05-15T01:51:45Z</time>
      </trkpt>
      <trkpt lat="45.74984" lon="6.97244">
        <ele>1244</ele>
        <time>2018-05-15T01:52:45Z</time>
      </trkpt>
      <trkpt lat="45.74969" lon="6.97232">
        <ele>1245</ele>
        <time>2018-05-15T01:53:45Z</time>
      </trkpt>
      <trkpt lat="45.74956" lon="6.97225">
        <ele>1245</ele>
        <time>2018-05-15T01:54:45Z</time>
      </trkpt>
      <trkpt lat="45.74929" lon="6.97218">
        <ele>1242</ele>
        <time>2018-05-15T01:55:45Z</time>
      </trkpt>
      <trkpt lat="45.74919" lon="6.97214">
        <ele>1243</ele>
        <time>2018-05-15T01:56:45Z</time>
      </trkpt>
      <trkpt lat="45.74896" lon="6.97207">
        <ele>1244</ele>
        <time>2018-05-15T01:57:45Z</time>
      </trkpt>
      <trkpt lat="45.74879" lon="6.97197">
        <ele>1246</ele>
        <time>2018-05-15T01:58:45Z</time>
      </trkpt>
      <trkpt lat="45.74862" lon="6.97179">
        <ele>1247</ele>
        <time>2018-05-15T01:59:45Z</time>
      </trkpt>
      <trkpt lat="45.74802" lon="6.97108">
        <ele>1260</ele>
        <time>2018-05-15T02:00:45Z</time>
      </trkpt>
      <trkpt lat="45.74783" lon="6.97085">
        <ele>1259</ele>
        <time>2018-05-15T02:01:45Z</time>
      </trkpt>
      <trkpt lat="45.74771" lon="6.97068">
        <ele>1263</ele>
        <time>2018-05-15T02:02:45Z</time>
      </trkpt>
      <trkpt lat="45.7474" lon="6.97022">
        <ele>1264</ele>
        <time>2018-05-15T02:03:45Z</time>
      </trkpt>
      <trkpt lat="45.74722" lon="6.96993">
        <ele>1267</ele>
        <time>2018-05-15T02:04:45Z</time>
      </trkpt>
      <trkpt lat="45.747" lon="6.96956">
        <ele>1269</ele>
        <time>2018-05-15T02:05:45Z</time>
      </trkpt>
      <trkpt lat="45.74686" lon="6.96934">
        <ele>1268</ele>
        <time>2018-05-15T02:06:45Z</time>
      </trkpt>
      <trkpt lat="45.74674" lon="6.96913">
        <ele>1271</ele>
        <time>2018-05-15T02:07:45Z</time>
      </trkpt>
      <trkpt lat="45.74665" lon="6.969">
        <ele>1268</ele>
        <time>2018-05-15T02:08:45Z</time>
      </trkpt>
      <trkpt lat="45.74661" lon="6.96896">
        <ele>1269</ele>
        <time>2018-05-15T02:09:45Z</time>
      </trkpt>
      <trkpt lat="45.74658" lon="6.96892">
        <ele>1269</ele>
        <time>2018-05-15T02:10:45Z</time>
      </trkpt>
      <trkpt lat="45.74619" lon="6.9686">
        <ele>1272</ele>
        <time>2018-05-15T02:11:45Z</time>
      </trkpt>
      <trkpt lat="45.74603" lon="6.96849">
        <ele>1272</ele>
        <time>2018-05-15T02:12:45Z</time>
      </trkpt>
      <trkpt lat="45.74518" lon="6.96787">
        <ele>1277</ele>
        <time>2018-05-15T02:13:45Z</time>
      </trkpt>
      <trkpt lat="45.74509" lon="6.96781">
        <ele>1277</ele>
        <time>2018-05-15T02:14:45Z</time>
      </trkpt>
      <trkpt lat="45.745" lon="6.96778">
        <ele>1273</ele>
        <time>2018-05-15T02:15:45Z</time>
      </trkpt>
      <trkpt lat="45.74437" lon="6.96764">
        <ele>1271</ele>
        <time>2018-05-15T02:16:45Z</time>
      </trkpt>
      <trkpt lat="45.74415" lon="6.96757">
        <ele>1272</ele>
        <time>2018-05-15T02:17:45Z</time>
      </trkpt>
      <trkpt lat="45.74407" lon="6.96755">
        <ele>1272</ele>
        <time>2018-05-15T02:18:45Z</time>
      </trkpt>
      <trkpt lat="45.744" lon="6.96753">
        <ele>1272</ele>
        <time>2018-05-15T02:19:45Z</time>
      </trkpt>
      <trkpt lat="45.74392" lon="6.96746">
        <ele>1274</ele>
        <time>2018-05-15T02:20:45Z</time>
      </trkpt>
      <trkpt lat="45.74383" lon="6.96737">
        <ele>1274</ele>
        <time>2018-05-15T02:21:45Z</time>
      </trkpt>
      <trkpt lat="45.74368" lon="6.96718">
        <ele>1275</ele>
        <time>2018-05-15T02:22:45Z</time>
      </trkpt>
      <trkpt lat="45.74347" lon="6.96687">
        <ele>1274</ele>
        <time>2018-05-15T02:23:45Z</time>
      </trkpt>
      <trkpt lat="45.74335" lon="6.96667">
        <ele>1272</ele>
        <time>2018-05-15T02:24:45Z</time>
      </trkpt>
      <trkpt lat="45.74331" lon="6.96655">
        <ele>1275</ele>
        <time>2018-05-15T02:25:45Z</time>
      </trkpt>
      <trkpt lat="45.74328" lon="6.96645">
        <ele>1276</ele>
        <time>2018-05-15T02:26:45Z</time>
      </trkpt>
      <trkpt lat="45.74324" lon="6.96631">
        <ele>1278</ele>
        <time>2018-05-15T02:27:45Z</time>
      </trkpt>
      <trkpt lat="45.74321" lon="6.96621">
        <ele>1279</ele>
        <time>2018-05-15T02:28:45Z</time>
      </trkpt>
      <trkpt lat="45.74316" lon="6.96606">
        <ele>1280</ele>
        <time>2018-05-15T02:29:45Z</time>
      </trkpt>
      <trkpt lat="45.74312" lon="6.96599">
        <ele>1280</ele>
        <time>2018-05-15T02:30:45Z</time>
      </trkpt>
      <trkpt lat="45.74304" lon="6.96581">
        <ele>1285</ele>
        <time>2018-05-15T02:31:45Z</time>
      </trkpt>
      <trkpt lat="45.74279" lon="6.96538">
        <ele>1287</ele>
        <time>2018-05-15T02:32:45Z</time>
      </trkpt>
      <trkpt lat="45.74267" lon="6.96522">
        <ele>1288</ele>
        <time>2018-05-15T02:33:45Z</time>
      </trkpt>
      <trkpt lat="45.74252" lon="6.96504">
        <ele>1290</ele>
        <time>2018-05-15T02:34:45Z</time>
      </trkpt>
      <trkpt lat="45.74226" lon="6.96479">
        <ele>1296</ele>
        <time>2018-05-15T02:35:45Z</time>
      </trkpt>
      <trkpt lat="45.74196" lon="6.9645">
        <ele>1297</ele>
        <time>2018-05-15T02:36:45Z</time>
      </trkpt>
      <trkpt lat="45.74191" lon="6.96444">
        <ele>1298</ele>
        <time>2018-05-15T02:37:45Z</time>
      </trkpt>
      <trkpt lat="45.74182" lon="6.96433">
        <ele>1297</ele>
        <time>2018-05-15T02:38:45Z</time>
      </trkpt>
      <trkpt lat="45.74159" lon="6.96409">
        <ele>1299</ele>
        <time>2018-05-15T02:39:45Z</time>
      </trkpt>
      <trkpt lat="45.74132" lon="6.96386">
        <ele>1302</ele>
        <time>2018-05-15T02:40:45Z</time>
      </trkpt>
      <trkpt lat="45.7411" lon="6.9637">
        <ele>1302</ele>
        <time>2018-05-15T02:41:45Z</time>
      </trkpt>
      <trkpt lat="45.74084" lon="6.96354">
        <ele>1303</ele>
        <time>2018-05-15T02:42:45Z</time>
      </trkpt>
      <trkpt lat="45.7401" lon="6.96329">
        <ele>1301</ele>
        <time>2018-05-15T02:43:45Z</time>
      </trkpt>
      <trkpt lat="45.73986" lon="6.96324">
        <ele>1301</ele>
        <time>2018-05-15T02:44:45Z</time>
      </trkpt>
      <trkpt lat="45.7398" lon="6.96323">
        <ele>1303</ele>
        <time>2018-05-15T02:45:45Z</time>
      </trkpt>
      <trkpt lat="45.73974" lon="6.9632">
        <ele>1304</ele>
        <time>2018-05-15T02:46:45Z</time>
      </trkpt>
      <trkpt lat="45.73967" lon="6.96315">
        <ele>1305</ele>
        <time>2018-05-15T02:47:45Z</time>
      </trkpt>
      <trkpt lat="45.73955" lon="6.96305">
        <ele>1307</ele>
        <time>2018-05-15T02:48:45Z</time>
      </trkpt>
      <trkpt lat="45.73948" lon="6.96295">
        <ele>1307</ele>
        <time>2018-05-15T02:49:45Z</time>
      </trkpt>
      <trkpt lat="45.73938" lon="6.96278">
        <ele>1307</ele>
        <time>2018-05-15T02:50:45Z</time>
      </trkpt>
      <trkpt lat="45.73925" lon="6.96245">
        <ele>1309</ele>
        <time>2018-05-15T02:51:45Z</time>
      </trkpt>
      <trkpt lat="45.73907" lon="6.96195">
        <ele>1310</ele>
        <time>2018-05-15T02:52:45Z</time>
      </trkpt>
      <trkpt lat="45.73902" lon="6.96183">
        <ele>1311</ele>
        <time>2018-05-15T02:53:45Z</time>
      </trkpt>
      <trkpt lat="45.73898" lon="6.96176">
        <ele>1311</ele>
        <time>2018-05-15T02:54:45Z</time>
      </trkpt>
      <trkpt lat="45.73892" lon="6.96168">
        <ele>1311</ele>
        <time>2018-05-15T02:55:45Z</time>
      </trkpt>
      <trkpt lat="45.7387" lon="6.96144">
        <ele>1316</ele>
        <time>2018-05-15T02:56:45Z</time>
      </trkpt>
      <trkpt lat="45.73829" lon="6.96099">
        <ele>1313</ele>
        <time>2018-05-15T02:57:45Z</time>
      </trkpt>
      <trkpt lat="45.73814" lon="6.96078">
        <ele>1321</ele>
        <time>2018-05-15T02:58:45Z</time>
      </trkpt>
      <trkpt lat="45.73793" lon="6.96052">
        <ele>1324</ele>
        <time>2018-05-15T02:59:45Z</time>
      </trkpt>
      <trkpt lat="45.73766" lon="6.96017">
        <ele>1327</ele>
        <time>2018-05-15T03:00:45Z</time>
      </trkpt>
      <trkpt lat="45.73754" lon="6.96006">
        <ele>1326</ele>
        <time>2018-05-15T03:01:45Z</time>
      </trkpt>
      <trkpt lat="45.73742" lon="6.95995">
        <ele>1329</ele>
        <time>2018-05-15T03:02:45Z</time>
      </trkpt>
      <trkpt lat="45.73732" lon="6.95991">
        <ele>1332</ele>
        <time>2018-05-15T03:03:45Z</time>
      </trkpt>
      <trkpt lat="45.73727" lon="6.9599">
        <ele>1332</ele>
        <time>2018-05-15T03:04:45Z</time>
      </trkpt>
      <trkpt lat="45.73726" lon="6.95991">
        <ele>1332</ele>
        <time>2018-05-15T03:05:45Z</time>
      </trkpt>
      <trkpt lat="45.73719" lon="6.95991">
        <ele>1332</ele>
        <time>2018-05-15T03:06:45Z</time>
      </trkpt>
      <trkpt lat="45.73714" lon="6.95991">
        <ele>1332</ele>
        <time>2018-05-15T03:07:45Z</time>
      </trkpt>
      <trkpt lat="45.73699" lon="6.95999">
        <ele>1330</ele>
        <time>2018-05-15T03:08:45Z</time>
      </trkpt>
      <trkpt lat="45.7368" lon="6.96016">
        <ele>1315</ele>
        <time>2018-05-15T03:09:45Z</time>
      </trkpt>
      <trkpt lat="45.73671" lon="6.96021">
        <ele>1315</ele>
        <time>2018-05-15T03:10:45Z</time>
      </trkpt>
      <trkpt lat="45.73665" lon="6.96023">
        <ele>1314</ele>
        <time>2018-05-15T03:11:45Z</time>
      </trkpt>
      <trkpt lat="45.7366" lon="6.96023">
        <ele>1314</ele>
        <time>2018-05-15T03:12:45Z</time>
      </trkpt>
      <trkpt lat="45.73649" lon="6.9602">
        <ele>1314</ele>
        <time>2018-05-15T03:13:45Z</time>
      </trkpt>
      <trkpt lat="45.73629" lon="6.9601">
        <ele>1314</ele>
        <time>2018-05-15T03:14:45Z</time>
      </trkpt>
      <trkpt lat="45.73614" lon="6.95998">
        <ele>1321</ele>
        <time>2018-05-15T03:15:45Z</time>
      </trkpt>
      <trkpt lat="45.73598" lon="6.95986">
        <ele>1320</ele>
        <time>2018-05-15T03:16:45Z</time>
      </trkpt>
      <trkpt lat="45.73591" lon="6.95982">
        <ele>1320</ele>
        <time>2018-05-15T03:17:45Z</time>
      </trkpt>
      <trkpt lat="45.73584" lon="6.95979">
        <ele>1320</ele>
        <time>2018-05-15T03:18:45Z</time>
      </trkpt>
      <trkpt lat="45.73547" lon="6.95969">
        <ele>1317</ele>
        <time>2018-05-15T03:19:45Z</time>
      </trkpt>
      <trkpt lat="45.73541" lon="6.95967">
        <ele>1317</ele>
        <time>2018-05-15T03:20:45Z</time>
      </trkpt>
      <trkpt lat="45.73531" lon="6.95964">
        <ele>1317</ele>
        <time>2018-05-15T03:21:45Z</time>
      </trkpt>
      <trkpt lat="45.73527" lon="6.95964">
        <ele>1317</ele>
        <time>2018-05-15T03:22:45Z</time>
      </trkpt>
      <trkpt lat="45.73524" lon="6.95964">
        <ele>1317</ele>
        <time>2018-05-15T03:23:45Z</time>
      </trkpt>
      <trkpt lat="45.7352" lon="6.95965">
        <ele>1317</ele>
        <time>2018-05-15T03:24:45Z</time>
      </trkpt>
      <trkpt lat="45.73516" lon="6.95972">
        <ele>1316</ele>
        <time>2018-05-15T03:25:45Z</time>
      </trkpt>
      <trkpt lat="45.73514" lon="6.95976">
        <ele>1315</ele>
        <time>2018-05-15T03:26:45Z</time>
      </trkpt>
      <trkpt lat="45.73511" lon="6.95983">
        <ele>1314</ele>
        <time>2018-05-15T03:27:45Z</time>
      </trkpt>
      <trkpt lat="45.73506" lon="6.96008">
        <ele>1311</ele>
        <time>2018-05-15T03:28:45Z</time>
      </trkpt>
      <trkpt lat="45.73503" lon="6.96024">
        <ele>1313</ele>
        <time>2018-05-15T03:29:45Z</time>
      </trkpt>
      <trkpt lat="45.73501" lon="6.96047">
        <ele>1314</ele>
        <time>2018-05-15T03:30:45Z</time>
      </trkpt>
      <trkpt lat="45.73501" lon="6.96054">
        <ele>1315</ele>
        <time>2018-05-15T03:31:45Z</time>
      </trkpt>
      <trkpt lat="45.73502" lon="6.96059">
        <ele>1315</ele>
        <time>2018-05-15T03:32:45Z</time>
      </trkpt>
      <trkpt lat="45.73504" lon="6.96064">
        <ele>1316</ele>
        <time>2018-05-15T03:33:45Z</time>
      </trkpt>
      <trkpt lat="45.73506" lon="6.96067">
        <ele>1316</ele>
        <time>2018-05-15T03:34:45Z</time>
      </trkpt>
      <trkpt lat="45.73509" lon="6.96073">
        <ele>1317</ele>
        <time>2018-05-15T03:35:45Z</time>
      </trkpt>
      <trkpt lat="45.73512" lon="6.96076">
        <ele>1317</ele>
        <time>2018-05-15T03:36:45Z</time>
      </trkpt>
      <trkpt lat="45.73517" lon="6.96081">
        <ele>1316</ele>
        <time>2018-05-15T03:37:45Z</time>
      </trkpt>
      <trkpt lat="45.73542" lon="6.96093">
        <ele>1326</ele>
        <time>2018-05-15T03:38:45Z</time>
      </trkpt>
      <trkpt lat="45.73576" lon="6.96107">
        <ele>1324</ele>
        <time>2018-05-15T03:39:45Z</time>
      </trkpt>
      <trkpt lat="45.73578" lon="6.96109">
        <ele>1324</ele>
        <time>2018-05-15T03:40:45Z</time>
      </trkpt>
      <trkpt lat="45.7358" lon="6.96113">
        <ele>1326</ele>
        <time>2018-05-15T03:41:45Z</time>
      </trkpt>
      <trkpt lat="45.73581" lon="6.96118">
        <ele>1327</ele>
        <time>2018-05-15T03:42:45Z</time>
      </trkpt>
      <trkpt lat="45.73582" lon="6.96122">
        <ele>1328</ele>
        <time>2018-05-15T03:43:45Z</time>
      </trkpt>
      <trkpt lat="45.73582" lon="6.96125">
        <ele>1329</ele>
        <time>2018-05-15T03:44:45Z</time>
      </trkpt>
      <trkpt lat="45.73581" lon="6.96128">
        <ele>1329</ele>
        <time>2018-05-15T03:45:45Z</time>
      </trkpt>
      <trkpt lat="45.7358" lon="6.96131">
        <ele>1330</ele>
        <time>2018-05-15T03:46:45Z</time>
      </trkpt>
      <trkpt lat="45.73577" lon="6.96135">
        <ele>1331</ele>
        <time>2018-05-15T03:47:45Z</time>
      </trkpt>
      <trkpt lat="45.73573" lon="6.96137">
        <ele>1331</ele>
        <time>2018-05-15T03:48:45Z</time>
      </trkpt>
      <trkpt lat="45.7357" lon="6.96139">
        <ele>1332</ele>
        <time>2018-05-15T03:49:45Z</time>
      </trkpt>
      <trkpt lat="45.73565" lon="6.96139">
        <ele>1332</ele>
        <time>2018-05-15T03:50:45Z</time>
      </trkpt>
      <trkpt lat="45.73555" lon="6.9613">
        <ele>1331</ele>
        <time>2018-05-15T03:51:45Z</time>
      </trkpt>
      <trkpt lat="45.73531" lon="6.96113">
        <ele>1329</ele>
        <time>2018-05-15T03:52:45Z</time>
      </trkpt>
      <trkpt lat="45.73509" lon="6.96104">
        <ele>1327</ele>
        <time>2018-05-15T03:53:45Z</time>
      </trkpt>
      <trkpt lat="45.73476" lon="6.96093">
        <ele>1338</ele>
        <time>2018-05-15T03:54:45Z</time>
      </trkpt>
      <trkpt lat="45.73455" lon="6.96083">
        <ele>1326</ele>
        <time>2018-05-15T03:55:45Z</time>
      </trkpt>
      <trkpt lat="45.7344" lon="6.96072">
        <ele>1329</ele>
        <time>2018-05-15T03:56:45Z</time>
      </trkpt>
      <trkpt lat="45.73424" lon="6.96061">
        <ele>1330</ele>
        <time>2018-05-15T03:57:45Z</time>
      </trkpt>
      <trkpt lat="45.7336" lon="6.96031">
        <ele>1334</ele>
        <time>2018-05-15T03:58:45Z</time>
      </trkpt>
      <trkpt lat="45.73329" lon="6.96016">
        <ele>1338</ele>
        <time>2018-05-15T03:59:45Z</time>
      </trkpt>
      <trkpt lat="45.73316" lon="6.96011">
        <ele>1339</ele>
        <time>2018-05-15T04:00:45Z</time>
      </trkpt>
      <trkpt lat="45.73297" lon="6.96006">
        <ele>1342</ele>
        <time>2018-05-15T04:01:45Z</time>
      </trkpt>
      <trkpt lat="45.73277" lon="6.96005">
        <ele>1344</ele>
        <time>2018-05-15T04:02:45Z</time>
      </trkpt>
      <trkpt lat="45.73268" lon="6.96005">
        <ele>1344</ele>
        <time>2018-05-15T04:03:45Z</time>
      </trkpt>
      <trkpt lat="45.73264" lon="6.96004">
        <ele>1344</ele>
        <time>2018-05-15T04:04:45Z</time>
      </trkpt>
      <trkpt lat="45.73257" lon="6.96002">
        <ele>1343</ele>
        <time>2018-05-15T04:05:45Z</time>
      </trkpt>
      <trkpt lat="45.73252" lon="6.95999">
        <ele>1341</ele>
        <time>2018-05-15T04:06:45Z</time>
      </trkpt>
      <trkpt lat="45.73241" lon="6.9599">
        <ele>1343</ele>
        <time>2018-05-15T04:07:45Z</time>
      </trkpt>
      <trkpt lat="45.73229" lon="6.9598">
        <ele>1344</ele>
        <time>2018-05-15T04:08:45Z</time>
      </trkpt>
      <trkpt lat="45.73213" lon="6.95966">
        <ele>1344</ele>
        <time>2018-05-15T04:09:45Z</time>
      </trkpt>
      <trkpt lat="45.73203" lon="6.9596">
        <ele>1345</ele>
        <time>2018-05-15T04:10:45Z</time>
      </trkpt>
      <trkpt lat="45.73192" lon="6.95956">
        <ele>1345</ele>
        <time>2018-05-15T04:11:45Z</time>
      </trkpt>
      <trkpt lat="45.73165" lon="6.95951">
        <ele>1357</ele>
        <time>2018-05-15T04:12:45Z</time>
      </trkpt>
      <trkpt lat="45.73147" lon="6.95945">
        <ele>1358</ele>
        <time>2018-05-15T04:13:45Z</time>
      </trkpt>
      <trkpt lat="45.73138" lon="6.9594">
        <ele>1358</ele>
        <time>2018-05-15T04:14:45Z</time>
      </trkpt>
      <trkpt lat="45.73129" lon="6.95936">
        <ele>1359</ele>
        <time>2018-05-15T04:15:45Z</time>
      </trkpt>
      <trkpt lat="45.73045" lon="6.95868">
        <ele>1365</ele>
        <time>2018-05-15T04:16:45Z</time>
      </trkpt>
      <trkpt lat="45.73004" lon="6.95827">
        <ele>1363</ele>
        <time>2018-05-15T04:17:45Z</time>
      </trkpt>
      <trkpt lat="45.72972" lon="6.95794">
        <ele>1372</ele>
        <time>2018-05-15T04:18:45Z</time>
      </trkpt>
      <trkpt lat="45.72967" lon="6.95786">
        <ele>1372</ele>
        <time>2018-05-15T04:19:45Z</time>
      </trkpt>
      <trkpt lat="45.72949" lon="6.95759">
        <ele>1373</ele>
        <time>2018-05-15T04:20:45Z</time>
      </trkpt>
      <trkpt lat="45.72939" lon="6.95744">
        <ele>1366</ele>
        <time>2018-05-15T04:21:45Z</time>
      </trkpt>
      <trkpt lat="45.72925" lon="6.95722">
        <ele>1365</ele>
        <time>2018-05-15T04:22:45Z</time>
      </trkpt>
      <trkpt lat="45.72922" lon="6.95714">
        <ele>1364</ele>
        <time>2018-05-15T04:23:45Z</time>
      </trkpt>
      <trkpt lat="45.72919" lon="6.957">
        <ele>1363</ele>
        <time>2018-05-15T04:24:45Z</time>
      </trkpt>
      <trkpt lat="45.72916" lon="6.95681">
        <ele>1378</ele>
        <time>2018-05-15T04:25:45Z</time>
      </trkpt>
      <trkpt lat="45.72914" lon="6.95658">
        <ele>1370</ele>
        <time>2018-05-15T04:26:45Z</time>
      </trkpt>
      <trkpt lat="45.72912" lon="6.95647">
        <ele>1373</ele>
        <time>2018-05-15T04:27:45Z</time>
      </trkpt>
      <trkpt lat="45.72911" lon="6.95639">
        <ele>1374</ele>
        <time>2018-05-15T04:28:45Z</time>
      </trkpt>
      <trkpt lat="45.72907" lon="6.95629">
        <ele>1374</ele>
        <time>2018-05-15T04:29:45Z</time>
      </trkpt>
      <trkpt lat="45.72904" lon="6.9562">
        <ele>1373</ele>
        <time>2018-05-15T04:30:45Z</time>
      </trkpt>
      <trkpt lat="45.72893" lon="6.95594">
        <ele>1370</ele>
        <time>2018-05-15T04:31:45Z</time>
      </trkpt>
      <trkpt lat="45.72891" lon="6.95591">
        <ele>1371</ele>
        <time>2018-05-15T04:32:45Z</time>
      </trkpt>
      <trkpt lat="45.7289" lon="6.95589">
        <ele>1371</ele>
        <time>2018-05-15T04:33:45Z</time>
      </trkpt>
      <trkpt lat="45.72888" lon="6.95588">
        <ele>1372</ele>
        <time>2018-05-15T04:34:45Z</time>
      </trkpt>
      <trkpt lat="45.72887" lon="6.95588">
        <ele>1373</ele>
        <time>2018-05-15T04:35:45Z</time>
      </trkpt>
      <trkpt lat="45.72886" lon="6.95588">
        <ele>1373</ele>
        <time>2018-05-15T04:36:45Z</time>
      </trkpt>
      <trkpt lat="45.72885" lon="6.95588">
        <ele>1374</ele>
        <time>2018-05-15T04:37:45Z</time>
      </trkpt>
      <trkpt lat="45.72884" lon="6.95589">
        <ele>1374</ele>
        <time>2018-05-15T04:38:45Z</time>
      </trkpt>
      <trkpt lat="45.72883" lon="6.95591">
        <ele>1375</ele>
        <time>2018-05-15T04:39:45Z</time>
      </trkpt>
      <trkpt lat="45.72882" lon="6.95593">
        <ele>1375</ele>
        <time>2018-05-15T04:40:45Z</time>
      </trkpt>
      <trkpt lat="45.72882" lon="6.95594">
        <ele>1376</ele>
        <time>2018-05-15T04:41:45Z</time>
      </trkpt>
      <trkpt lat="45.72882" lon="6.95596">
        <ele>1376</ele>
        <time>2018-05-15T04:42:45Z</time>
      </trkpt>
      <trkpt lat="45.72882" lon="6.95599">
        <ele>1376</ele>
        <time>2018-05-15T04:43:45Z</time>
      </trkpt>
      <trkpt lat="45.72885" lon="6.95635">
        <ele>1379</ele>
        <time>2018-05-15T04:44:45Z</time>
      </trkpt>
      <trkpt lat="45.72887" lon="6.95668">
        <ele>1388</ele>
        <time>2018-05-15T04:45:45Z</time>
      </trkpt>
      <trkpt lat="45.72887" lon="6.95688">
        <ele>1390</ele>
        <time>2018-05-15T04:46:45Z</time>
      </trkpt>
      <trkpt lat="45.72887" lon="6.95702">
        <ele>1392</ele>
        <time>2018-05-15T04:47:45Z</time>
      </trkpt>
      <trkpt lat="45.72889" lon="6.95722">
        <ele>1393</ele>
        <time>2018-05-15T04:48:45Z</time>
      </trkpt>
      <trkpt lat="45.72891" lon="6.95732">
        <ele>1392</ele>
        <time>2018-05-15T04:49:45Z</time>
      </trkpt>
      <trkpt lat="45.72893" lon="6.95743">
        <ele>1391</ele>
        <time>2018-05-15T04:50:45Z</time>
      </trkpt>
      <trkpt lat="45.72901" lon="6.95763">
        <ele>1397</ele>
        <time>2018-05-15T04:51:45Z</time>
      </trkpt>
      <trkpt lat="45.7291" lon="6.95778">
        <ele>1400</ele>
        <time>2018-05-15T04:52:45Z</time>
      </trkpt>
      <trkpt lat="45.72921" lon="6.95796">
        <ele>1381</ele>
        <time>2018-05-15T04:53:45Z</time>
      </trkpt>
      <trkpt lat="45.72921" lon="6.95797">
        <ele>1381</ele>
        <time>2018-05-15T04:54:45Z</time>
      </trkpt>
      <trkpt lat="45.72922" lon="6.95798">
        <ele>1381</ele>
        <time>2018-05-15T04:55:45Z</time>
      </trkpt>
      <trkpt lat="45.72922" lon="6.958">
        <ele>1382</ele>
        <time>2018-05-15T04:56:45Z</time>
      </trkpt>
      <trkpt lat="45.72922" lon="6.95801">
        <ele>1382</ele>
        <time>2018-05-15T04:57:45Z</time>
      </trkpt>
      <trkpt lat="45.72922" lon="6.95803">
        <ele>1383</ele>
        <time>2018-05-15T04:58:45Z</time>
      </trkpt>
      <trkpt lat="45.72922" lon="6.95806">
        <ele>1384</ele>
        <time>2018-05-15T04:59:45Z</time>
      </trkpt>
      <trkpt lat="45.72921" lon="6.95809">
        <ele>1385</ele>
        <time>2018-05-15T05:00:45Z</time>
      </trkpt>
      <trkpt lat="45.7292" lon="6.95811">
        <ele>1386</ele>
        <time>2018-05-15T05:01:45Z</time>
      </trkpt>
      <trkpt lat="45.72919" lon="6.95812">
        <ele>1386</ele>
        <time>2018-05-15T05:02:45Z</time>
      </trkpt>
      <trkpt lat="45.72918" lon="6.95813">
        <ele>1387</ele>
        <time>2018-05-15T05:03:45Z</time>
      </trkpt>
      <trkpt lat="45.72917" lon="6.95814">
        <ele>1388</ele>
        <time>2018-05-15T05:04:45Z</time>
      </trkpt>
      <trkpt lat="45.72916" lon="6.95814">
        <ele>1405</ele>
        <time>2018-05-15T05:05:45Z</time>
      </trkpt>
      <trkpt lat="45.72914" lon="6.95813">
        <ele>1405</ele>
        <time>2018-05-15T05:06:45Z</time>
      </trkpt>
      <trkpt lat="45.72912" lon="6.95813">
        <ele>1406</ele>
        <time>2018-05-15T05:07:45Z</time>
      </trkpt>
      <trkpt lat="45.7291" lon="6.95812">
        <ele>1406</ele>
        <time>2018-05-15T05:08:45Z</time>
      </trkpt>
      <trkpt lat="45.72896" lon="6.95793">
        <ele>1406</ele>
        <time>2018-05-15T05:09:45Z</time>
      </trkpt>
      <trkpt lat="45.72891" lon="6.95786">
        <ele>1406</ele>
        <time>2018-05-15T05:10:45Z</time>
      </trkpt>
      <trkpt lat="45.72885" lon="6.95775">
        <ele>1406</ele>
        <time>2018-05-15T05:11:45Z</time>
      </trkpt>
      <trkpt lat="45.72876" lon="6.95756">
        <ele>1408</ele>
        <time>2018-05-15T05:12:45Z</time>
      </trkpt>
      <trkpt lat="45.72869" lon="6.95732">
        <ele>1400</ele>
        <time>2018-05-15T05:13:45Z</time>
      </trkpt>
      <trkpt lat="45.72838" lon="6.95592">
        <ele>1391</ele>
        <time>2018-05-15T05:14:45Z</time>
      </trkpt>
      <trkpt lat="45.72827" lon="6.95553">
        <ele>1403</ele>
        <time>2018-05-15T05:15:45Z</time>
      </trkpt>
      <trkpt lat="45.72825" lon="6.95542">
        <ele>1401</ele>
        <time>2018-05-15T05:16:45Z</time>
      </trkpt>
      <trkpt lat="45.72821" lon="6.95532">
        <ele>1400</ele>
        <time>2018-05-15T05:17:45Z</time>
      </trkpt>
      <trkpt lat="45.72815" lon="6.95521">
        <ele>1398</ele>
        <time>2018-05-15T05:18:45Z</time>
      </trkpt>
      <trkpt lat="45.72808" lon="6.95509">
        <ele>1398</ele>
        <time>2018-05-15T05:19:45Z</time>
      </trkpt>
      <trkpt lat="45.72799" lon="6.95496">
        <ele>1392</ele>
        <time>2018-05-15T05:20:45Z</time>
      </trkpt>
      <trkpt lat="45.72776" lon="6.95468">
        <ele>1399</ele>
        <time>2018-05-15T05:21:45Z</time>
      </trkpt>
      <trkpt lat="45.72722" lon="6.95406">
        <ele>1409</ele>
        <time>2018-05-15T05:22:45Z</time>
      </trkpt>
      <trkpt lat="45.72698" lon="6.9538">
        <ele>1413</ele>
        <time>2018-05-15T05:23:45Z</time>
      </trkpt>
      <trkpt lat="45.72639" lon="6.95287">
        <ele>1421</ele>
        <time>2018-05-15T05:24:45Z</time>
      </trkpt>
      <trkpt lat="45.72492" lon="6.95091">
        <ele>1442</ele>
        <time>2018-05-15T05:25:45Z</time>
      </trkpt>
      <trkpt lat="45.72482" lon="6.95077">
        <ele>1432</ele>
        <time>2018-05-15T05:26:45Z</time>
      </trkpt>
      <trkpt lat="45.72477" lon="6.9507">
        <ele>1434</ele>
        <time>2018-05-15T05:27:45Z</time>
      </trkpt>
      <trkpt lat="45.72364" lon="6.94911">
        <ele>1465</ele>
        <time>2018-05-15T05:28:45Z</time>
      </trkpt>
      <trkpt lat="45.72297" lon="6.94831">
        <ele>1501</ele>
        <time>2018-05-15T05:29:45Z</time>
      </trkpt>
      <trkpt lat="45.72267" lon="6.94793">
        <ele>1501</ele>
        <time>2018-05-15T05:30:45Z</time>
      </trkpt>
      <trkpt lat="45.72243" lon="6.94766">
        <ele>1491</ele>
        <time>2018-05-15T05:31:45Z</time>
      </trkpt>
      <trkpt lat="45.72232" lon="6.94758">
        <ele>1491</ele>
        <time>2018-05-15T05:32:45Z</time>
      </trkpt>
      <trkpt lat="45.72215" lon="6.94746">
        <ele>1456</ele>
        <time>2018-05-15T05:33:45Z</time>
      </trkpt>
      <trkpt lat="45.722" lon="6.94742">
        <ele>1457</ele>
        <time>2018-05-15T05:34:45Z</time>
      </trkpt>
      <trkpt lat="45.72188" lon="6.9474">
        <ele>1458</ele>
        <time>2018-05-15T05:35:45Z</time>
      </trkpt>
      <trkpt lat="45.7217" lon="6.94739">
        <ele>1462</ele>
        <time>2018-05-15T05:36:45Z</time>
      </trkpt>
      <trkpt lat="45.72104" lon="6.94748">
        <ele>1448</ele>
        <time>2018-05-15T05:37:45Z</time>
      </trkpt>
      <trkpt lat="45.72071" lon="6.94753">
        <ele>1453</ele>
        <time>2018-05-15T05:38:45Z</time>
      </trkpt>
      <trkpt lat="45.72036" lon="6.9476">
        <ele>1461</ele>
        <time>2018-05-15T05:39:45Z</time>
      </trkpt>
      <trkpt lat="45.72033" lon="6.94761">
        <ele>1460</ele>
        <time>2018-05-15T05:40:45Z</time>
      </trkpt>
      <trkpt lat="45.7202" lon="6.94761">
        <ele>1458</ele>
        <time>2018-05-15T05:41:45Z</time>
      </trkpt>
      <trkpt lat="45.72017" lon="6.94761">
        <ele>1457</ele>
        <time>2018-05-15T05:42:45Z</time>
      </trkpt>
      <trkpt lat="45.72011" lon="6.9476">
        <ele>1454</ele>
        <time>2018-05-15T05:43:45Z</time>
      </trkpt>
      <trkpt lat="45.71979" lon="6.9475">
        <ele>1440</ele>
        <time>2018-05-15T05:44:45Z</time>
      </trkpt>
      <trkpt lat="45.7191" lon="6.94728">
        <ele>1439</ele>
        <time>2018-05-15T05:45:45Z</time>
      </trkpt>
      <trkpt lat="45.71901" lon="6.94724">
        <ele>1439</ele>
        <time>2018-05-15T05:46:45Z</time>
      </trkpt>
      <trkpt lat="45.71887" lon="6.94721">
        <ele>1439</ele>
        <time>2018-05-15T05:47:45Z</time>
      </trkpt>
      <trkpt lat="45.71877" lon="6.9472">
        <ele>1439</ele>
        <time>2018-05-15T05:48:45Z</time>
      </trkpt>
      <trkpt lat="45.71872" lon="6.94719">
        <ele>1440</ele>
        <time>2018-05-15T05:49:45Z</time>
      </trkpt>
      <trkpt lat="45.71864" lon="6.9472">
        <ele>1440</ele>
        <time>2018-05-15T05:50:45Z</time>
      </trkpt>
      <trkpt lat="45.71859" lon="6.9472">
        <ele>1440</ele>
        <time>2018-05-15T05:51:45Z</time>
      </trkpt>
      <trkpt lat="45.71855" lon="6.94721">
        <ele>1440</ele>
        <time>2018-05-15T05:52:45Z</time>
      </trkpt>
      <trkpt lat="45.71843" lon="6.94726">
        <ele>1440</ele>
        <time>2018-05-15T05:53:45Z</time>
      </trkpt>
      <trkpt lat="45.71816" lon="6.9474">
        <ele>1442</ele>
        <time>2018-05-15T05:54:45Z</time>
      </trkpt>
      <trkpt lat="45.71782" lon="6.94766">
        <ele>1445</ele>
        <time>2018-05-15T05:55:45Z</time>
      </trkpt>
      <trkpt lat="45.71734" lon="6.94813">
        <ele>1448</ele>
        <time>2018-05-15T05:56:45Z</time>
      </trkpt>
      <trkpt lat="45.7169" lon="6.94862">
        <ele>1452</ele>
        <time>2018-05-15T05:57:45Z</time>
      </trkpt>
      <trkpt lat="45.71686" lon="6.94866">
        <ele>1452</ele>
        <time>2018-05-15T05:58:45Z</time>
      </trkpt>
      <trkpt lat="45.71676" lon="6.94876">
        <ele>1453</ele>
        <time>2018-05-15T05:59:45Z</time>
      </trkpt>
      <trkpt lat="45.71673" lon="6.94878">
        <ele>1453</ele>
        <time>2018-05-15T06:00:45Z</time>
      </trkpt>
      <trkpt lat="45.71671" lon="6.94879">
        <ele>1453</ele>
        <time>2018-05-15T06:01:45Z</time>
      </trkpt>
      <trkpt lat="45.71668" lon="6.94879">
        <ele>1453</ele>
        <time>2018-05-15T06:02:45Z</time>
      </trkpt>
      <trkpt lat="45.71667" lon="6.94879">
        <ele>1453</ele>
        <time>2018-05-15T06:03:45Z</time>
      </trkpt>
      <trkpt lat="45.71666" lon="6.94879">
        <ele>1452</ele>
        <time>2018-05-15T06:04:45Z</time>
      </trkpt>
      <trkpt lat="45.71665" lon="6.94878">
        <ele>1452</ele>
        <time>2018-05-15T06:05:45Z</time>
      </trkpt>
      <trkpt lat="45.71664" lon="6.94877">
        <ele>1452</ele>
        <time>2018-05-15T06:06:45Z</time>
      </trkpt>
      <trkpt lat="45.71662" lon="6.9487">
        <ele>1452</ele>
        <time>2018-05-15T06:07:45Z</time>
      </trkpt>
      <trkpt lat="45.71655" lon="6.94834">
        <ele>1451</ele>
        <time>2018-05-15T06:08:45Z</time>
      </trkpt>
      <trkpt lat="45.71654" lon="6.94827">
        <ele>1451</ele>
        <time>2018-05-15T06:09:45Z</time>
      </trkpt>
      <trkpt lat="45.71652" lon="6.94821">
        <ele>1452</ele>
        <time>2018-05-15T06:10:45Z</time>
      </trkpt>
      <trkpt lat="45.71651" lon="6.94815">
        <ele>1452</ele>
        <time>2018-05-15T06:11:45Z</time>
      </trkpt>
      <trkpt lat="45.71649" lon="6.94807">
        <ele>1452</ele>
        <time>2018-05-15T06:12:45Z</time>
      </trkpt>
      <trkpt lat="45.71646" lon="6.94791">
        <ele>1453</ele>
        <time>2018-05-15T06:13:45Z</time>
      </trkpt>
      <trkpt lat="45.71646" lon="6.94788">
        <ele>1453</ele>
        <time>2018-05-15T06:14:45Z</time>
      </trkpt>
      <trkpt lat="45.71646" lon="6.94784">
        <ele>1453</ele>
        <time>2018-05-15T06:15:45Z</time>
      </trkpt>
      <trkpt lat="45.71648" lon="6.94777">
        <ele>1453</ele>
        <time>2018-05-15T06:16:45Z</time>
      </trkpt>
      <trkpt lat="45.71654" lon="6.94747">
        <ele>1454</ele>
        <time>2018-05-15T06:17:45Z</time>
      </trkpt>
      <trkpt lat="45.71656" lon="6.94736">
        <ele>1455</ele>
        <time>2018-05-15T06:18:45Z</time>
      </trkpt>
      <trkpt lat="45.71673" lon="6.94679">
        <ele>1452</ele>
        <time>2018-05-15T06:19:45Z</time>
      </trkpt>
      <trkpt lat="45.71675" lon="6.94668">
        <ele>1453</ele>
        <time>2018-05-15T06:20:45Z</time>
      </trkpt>
      <trkpt lat="45.71675" lon="6.94661">
        <ele>1453</ele>
        <time>2018-05-15T06:21:45Z</time>
      </trkpt>
      <trkpt lat="45.71675" lon="6.94656">
        <ele>1453</ele>
        <time>2018-05-15T06:22:45Z</time>
      </trkpt>
      <trkpt lat="45.71674" lon="6.9465">
        <ele>1452</ele>
        <time>2018-05-15T06:23:45Z</time>
      </trkpt>
      <trkpt lat="45.71672" lon="6.94645">
        <ele>1452</ele>
        <time>2018-05-15T06:24:45Z</time>
      </trkpt>
      <trkpt lat="45.71669" lon="6.94638">
        <ele>1452</ele>
        <time>2018-05-15T06:25:45Z</time>
      </trkpt>
      <trkpt lat="45.7166" lon="6.94626">
        <ele>1458</ele>
        <time>2018-05-15T06:26:45Z</time>
      </trkpt>
      <trkpt lat="45.71649" lon="6.94618">
        <ele>1458</ele>
        <time>2018-05-15T06:27:45Z</time>
      </trkpt>
      <trkpt lat="45.716" lon="6.94577">
        <ele>1462</ele>
        <time>2018-05-15T06:28:45Z</time>
      </trkpt>
      <trkpt lat="45.71571" lon="6.94552">
        <ele>1466</ele>
        <time>2018-05-15T06:29:45Z</time>
      </trkpt>
      <trkpt lat="45.71565" lon="6.94547">
        <ele>1466</ele>
        <time>2018-05-15T06:30:45Z</time>
      </trkpt>
      <trkpt lat="45.71537" lon="6.94523">
        <ele>1466</ele>
        <time>2018-05-15T06:31:45Z</time>
      </trkpt>
      <trkpt lat="45.71479" lon="6.94488">
        <ele>1470</ele>
        <time>2018-05-15T06:32:45Z</time>
      </trkpt>
      <trkpt lat="45.71419" lon="6.94456">
        <ele>1473</ele>
        <time>2018-05-15T06:33:45Z</time>
      </trkpt>
      <trkpt lat="45.71408" lon="6.94448">
        <ele>1477</ele>
        <time>2018-05-15T06:34:45Z</time>
      </trkpt>
      <trkpt lat="45.71407" lon="6.94446">
        <ele>1477</ele>
        <time>2018-05-15T06:35:45Z</time>
      </trkpt>
      <trkpt lat="45.71393" lon="6.94432">
        <ele>1477</ele>
        <time>2018-05-15T06:36:45Z</time>
      </trkpt>
      <trkpt lat="45.7138" lon="6.94417">
        <ele>1478</ele>
        <time>2018-05-15T06:37:45Z</time>
      </trkpt>
      <trkpt lat="45.71379" lon="6.94415">
        <ele>1479</ele>
        <time>2018-05-15T06:38:45Z</time>
      </trkpt>
      <trkpt lat="45.71331" lon="6.9436">
        <ele>1485</ele>
        <time>2018-05-15T06:39:45Z</time>
      </trkpt>
      <trkpt lat="45.71326" lon="6.94355">
        <ele>1485</ele>
        <time>2018-05-15T06:40:45Z</time>
      </trkpt>
      <trkpt lat="45.71312" lon="6.94334">
        <ele>1485</ele>
        <time>2018-05-15T06:41:45Z</time>
      </trkpt>
      <trkpt lat="45.7131" lon="6.9433">
        <ele>1487</ele>
        <time>2018-05-15T06:42:45Z</time>
      </trkpt>
      <trkpt lat="45.71309" lon="6.94325">
        <ele>1487</ele>
        <time>2018-05-15T06:43:45Z</time>
      </trkpt>
      <trkpt lat="45.71309" lon="6.94322">
        <ele>1487</ele>
        <time>2018-05-15T06:44:45Z</time>
      </trkpt>
      <trkpt lat="45.7131" lon="6.94319">
        <ele>1487</ele>
        <time>2018-05-15T06:45:45Z</time>
      </trkpt>
      <trkpt lat="45.71329" lon="6.94285">
        <ele>1488</ele>
        <time>2018-05-15T06:46:45Z</time>
      </trkpt>
      <trkpt lat="45.71331" lon="6.94283">
        <ele>1488</ele>
        <time>2018-05-15T06:47:45Z</time>
      </trkpt>
      <trkpt lat="45.71335" lon="6.94278">
        <ele>1487</ele>
        <time>2018-05-15T06:48:45Z</time>
      </trkpt>
      <trkpt lat="45.71338" lon="6.94276">
        <ele>1487</ele>
        <time>2018-05-15T06:49:45Z</time>
      </trkpt>
      <trkpt lat="45.71345" lon="6.9427">
        <ele>1488</ele>
        <time>2018-05-15T06:50:45Z</time>
      </trkpt>
      <trkpt lat="45.71356" lon="6.94264">
        <ele>1488</ele>
        <time>2018-05-15T06:51:45Z</time>
      </trkpt>
      <trkpt lat="45.71369" lon="6.94256">
        <ele>1488</ele>
        <time>2018-05-15T06:52:45Z</time>
      </trkpt>
      <trkpt lat="45.71388" lon="6.94245">
        <ele>1496</ele>
        <time>2018-05-15T06:53:45Z</time>
      </trkpt>
      <trkpt lat="45.7139" lon="6.94244">
        <ele>1496</ele>
        <time>2018-05-15T06:54:45Z</time>
      </trkpt>
      <trkpt lat="45.71398" lon="6.9424">
        <ele>1495</ele>
        <time>2018-05-15T06:55:45Z</time>
      </trkpt>
      <trkpt lat="45.71405" lon="6.94238">
        <ele>1495</ele>
        <time>2018-05-15T06:56:45Z</time>
      </trkpt>
      <trkpt lat="45.71412" lon="6.94237">
        <ele>1495</ele>
        <time>2018-05-15T06:57:45Z</time>
      </trkpt>
      <trkpt lat="45.7142" lon="6.94237">
        <ele>1496</ele>
        <time>2018-05-15T06:58:45Z</time>
      </trkpt>
      <trkpt lat="45.7144" lon="6.94245">
        <ele>1497</ele>
        <time>2018-05-15T06:59:45Z</time>
      </trkpt>
      <trkpt lat="45.71451" lon="6.9425">
        <ele>1498</ele>
        <time>2018-05-15T07:00:45Z</time>
      </trkpt>
      <trkpt lat="45.71455" lon="6.9425">
        <ele>1498</ele>
        <time>2018-05-15T07:01:45Z</time>
      </trkpt>
      <trkpt lat="45.71458" lon="6.9425">
        <ele>1498</ele>
        <time>2018-05-15T07:02:45Z</time>
      </trkpt>
      <trkpt lat="45.71461" lon="6.94249">
        <ele>1498</ele>
        <time>2018-05-15T07:03:45Z</time>
      </trkpt>
      <trkpt lat="45.71466" lon="6.94246">
        <ele>1498</ele>
        <time>2018-05-15T07:04:45Z</time>
      </trkpt>
      <trkpt lat="45.71467" lon="6.94244">
        <ele>1498</ele>
        <time>2018-05-15T07:05:45Z</time>
      </trkpt>
      <trkpt lat="45.71473" lon="6.94239">
        <ele>1498</ele>
        <time>2018-05-15T07:06:45Z</time>
      </trkpt>
      <trkpt lat="45.71483" lon="6.94233">
        <ele>1498</ele>
        <time>2018-05-15T07:07:45Z</time>
      </trkpt>
      <trkpt lat="45.71488" lon="6.94231">
        <ele>1499</ele>
        <time>2018-05-15T07:08:45Z</time>
      </trkpt>
      <trkpt lat="45.71496" lon="6.9423">
        <ele>1498</ele>
        <time>2018-05-15T07:09:45Z</time>
      </trkpt>
      <trkpt lat="45.71502" lon="6.94231">
        <ele>1501</ele>
        <time>2018-05-15T07:10:45Z</time>
      </trkpt>
      <trkpt lat="45.71544" lon="6.94247">
        <ele>1503</ele>
        <time>2018-05-15T07:11:45Z</time>
      </trkpt>
      <trkpt lat="45.71559" lon="6.94252">
        <ele>1491</ele>
        <time>2018-05-15T07:12:45Z</time>
      </trkpt>
      <trkpt lat="45.71566" lon="6.94254">
        <ele>1492</ele>
        <time>2018-05-15T07:13:45Z</time>
      </trkpt>
      <trkpt lat="45.71569" lon="6.94254">
        <ele>1492</ele>
        <time>2018-05-15T07:14:45Z</time>
      </trkpt>
      <trkpt lat="45.71571" lon="6.94254">
        <ele>1493</ele>
        <time>2018-05-15T07:15:45Z</time>
      </trkpt>
      <trkpt lat="45.71572" lon="6.94253">
        <ele>1493</ele>
        <time>2018-05-15T07:16:45Z</time>
      </trkpt>
      <trkpt lat="45.71573" lon="6.94252">
        <ele>1493</ele>
        <time>2018-05-15T07:17:45Z</time>
      </trkpt>
      <trkpt lat="45.71575" lon="6.94251">
        <ele>1494</ele>
        <time>2018-05-15T07:18:45Z</time>
      </trkpt>
      <trkpt lat="45.71575" lon="6.9425">
        <ele>1500</ele>
        <time>2018-05-15T07:19:45Z</time>
      </trkpt>
      <trkpt lat="45.71575" lon="6.94249">
        <ele>1500</ele>
        <time>2018-05-15T07:20:45Z</time>
      </trkpt>
      <trkpt lat="45.71576" lon="6.94247">
        <ele>1500</ele>
        <time>2018-05-15T07:21:45Z</time>
      </trkpt>
      <trkpt lat="45.71576" lon="6.94246">
        <ele>1500</ele>
        <time>2018-05-15T07:22:45Z</time>
      </trkpt>
      <trkpt lat="45.71576" lon="6.94244">
        <ele>1500</ele>
        <time>2018-05-15T07:23:45Z</time>
      </trkpt>
      <trkpt lat="45.71575" lon="6.94243">
        <ele>1501</ele>
        <time>2018-05-15T07:24:45Z</time>
      </trkpt>
      <trkpt lat="45.71575" lon="6.94242">
        <ele>1501</ele>
        <time>2018-05-15T07:25:45Z</time>
      </trkpt>
      <trkpt lat="45.71574" lon="6.94241">
        <ele>1501</ele>
        <time>2018-05-15T07:26:45Z</time>
      </trkpt>
      <trkpt lat="45.71572" lon="6.94238">
        <ele>1502</ele>
        <time>2018-05-15T07:27:45Z</time>
      </trkpt>
      <trkpt lat="45.7157" lon="6.94236">
        <ele>1503</ele>
        <time>2018-05-15T07:28:45Z</time>
      </trkpt>
      <trkpt lat="45.71549" lon="6.94227">
        <ele>1505</ele>
        <time>2018-05-15T07:29:45Z</time>
      </trkpt>
      <trkpt lat="45.71525" lon="6.94215">
        <ele>1506</ele>
        <time>2018-05-15T07:30:45Z</time>
      </trkpt>
      <trkpt lat="45.71481" lon="6.94185">
        <ele>1505</ele>
        <time>2018-05-15T07:31:45Z</time>
      </trkpt>
      <trkpt lat="45.7146" lon="6.94172">
        <ele>1504</ele>
        <time>2018-05-15T07:32:45Z</time>
      </trkpt>
      <trkpt lat="45.71454" lon="6.94169">
        <ele>1504</ele>
        <time>2018-05-15T07:33:45Z</time>
      </trkpt>
      <trkpt lat="45.71437" lon="6.94164">
        <ele>1512</ele>
        <time>2018-05-15T07:34:45Z</time>
      </trkpt>
      <trkpt lat="45.71407" lon="6.94156">
        <ele>1508</ele>
        <time>2018-05-15T07:35:45Z</time>
      </trkpt>
      <trkpt lat="45.71403" lon="6.94154">
        <ele>1508</ele>
        <time>2018-05-15T07:36:45Z</time>
      </trkpt>
      <trkpt lat="45.714" lon="6.94153">
        <ele>1508</ele>
        <time>2018-05-15T07:37:45Z</time>
      </trkpt>
      <trkpt lat="45.71397" lon="6.9415">
        <ele>1509</ele>
        <time>2018-05-15T07:38:45Z</time>
      </trkpt>
      <trkpt lat="45.71395" lon="6.94147">
        <ele>1509</ele>
        <time>2018-05-15T07:39:45Z</time>
      </trkpt>
      <trkpt lat="45.71393" lon="6.94144">
        <ele>1509</ele>
        <time>2018-05-15T07:40:45Z</time>
      </trkpt>
      <trkpt lat="45.7139" lon="6.94138">
        <ele>1510</ele>
        <time>2018-05-15T07:41:45Z</time>
      </trkpt>
      <trkpt lat="45.71379" lon="6.94102">
        <ele>1512</ele>
        <time>2018-05-15T07:42:45Z</time>
      </trkpt>
      <trkpt lat="45.71367" lon="6.94058">
        <ele>1520</ele>
        <time>2018-05-15T07:43:45Z</time>
      </trkpt>
      <trkpt lat="45.71362" lon="6.94045">
        <ele>1520</ele>
        <time>2018-05-15T07:44:45Z</time>
      </trkpt>
      <trkpt lat="45.71359" lon="6.94038">
        <ele>1520</ele>
        <time>2018-05-15T07:45:45Z</time>
      </trkpt>
      <trkpt lat="45.71353" lon="6.94028">
        <ele>1520</ele>
        <time>2018-05-15T07:46:45Z</time>
      </trkpt>
      <trkpt lat="45.71348" lon="6.9402">
        <ele>1520</ele>
        <time>2018-05-15T07:47:45Z</time>
      </trkpt>
      <trkpt lat="45.71339" lon="6.94011">
        <ele>1519</ele>
        <time>2018-05-15T07:48:45Z</time>
      </trkpt>
      <trkpt lat="45.71315" lon="6.93983">
        <ele>1518</ele>
        <time>2018-05-15T07:49:45Z</time>
      </trkpt>
      <trkpt lat="45.71311" lon="6.93978">
        <ele>1518</ele>
        <time>2018-05-15T07:50:45Z</time>
      </trkpt>
      <trkpt lat="45.71309" lon="6.93975">
        <ele>1518</ele>
        <time>2018-05-15T07:51:45Z</time>
      </trkpt>
      <trkpt lat="45.71308" lon="6.93972">
        <ele>1518</ele>
        <time>2018-05-15T07:52:45Z</time>
      </trkpt>
      <trkpt lat="45.71308" lon="6.93968">
        <ele>1519</ele>
        <time>2018-05-15T07:53:45Z</time>
      </trkpt>
      <trkpt lat="45.71308" lon="6.93964">
        <ele>1519</ele>
        <time>2018-05-15T07:54:45Z</time>
      </trkpt>
      <trkpt lat="45.71309" lon="6.93962">
        <ele>1519</ele>
        <time>2018-05-15T07:55:45Z</time>
      </trkpt>
      <trkpt lat="45.7131" lon="6.9396">
        <ele>1520</ele>
        <time>2018-05-15T07:56:45Z</time>
      </trkpt>
      <trkpt lat="45.71311" lon="6.93959">
        <ele>1520</ele>
        <time>2018-05-15T07:57:45Z</time>
      </trkpt>
      <trkpt lat="45.71312" lon="6.93958">
        <ele>1520</ele>
        <time>2018-05-15T07:58:45Z</time>
      </trkpt>
      <trkpt lat="45.71313" lon="6.93958">
        <ele>1520</ele>
        <time>2018-05-15T07:59:45Z</time>
      </trkpt>
      <trkpt lat="45.71316" lon="6.93958">
        <ele>1520</ele>
        <time>2018-05-15T08:00:45Z</time>
      </trkpt>
      <trkpt lat="45.71319" lon="6.93959">
        <ele>1521</ele>
        <time>2018-05-15T08:01:45Z</time>
      </trkpt>
      <trkpt lat="45.71324" lon="6.93962">
        <ele>1520</ele>
        <time>2018-05-15T08:02:45Z</time>
      </trkpt>
      <trkpt lat="45.71355" lon="6.93983">
        <ele>1531</ele>
        <time>2018-05-15T08:03:45Z</time>
      </trkpt>
      <trkpt lat="45.71372" lon="6.93994">
        <ele>1534</ele>
        <time>2018-05-15T08:04:45Z</time>
      </trkpt>
      <trkpt lat="45.71376" lon="6.93998">
        <ele>1534</ele>
        <time>2018-05-15T08:05:45Z</time>
      </trkpt>
      <trkpt lat="45.71386" lon="6.94009">
        <ele>1525</ele>
        <time>2018-05-15T08:06:45Z</time>
      </trkpt>
      <trkpt lat="45.71409" lon="6.94035">
        <ele>1525</ele>
        <time>2018-05-15T08:07:45Z</time>
      </trkpt>
      <trkpt lat="45.71417" lon="6.94041">
        <ele>1533</ele>
        <time>2018-05-15T08:08:45Z</time>
      </trkpt>
      <trkpt lat="45.71437" lon="6.94056">
        <ele>1532</ele>
        <time>2018-05-15T08:09:45Z</time>
      </trkpt>
      <trkpt lat="45.71444" lon="6.9406">
        <ele>1532</ele>
        <time>2018-05-15T08:10:45Z</time>
      </trkpt>
      <trkpt lat="45.71452" lon="6.94063">
        <ele>1533</ele>
        <time>2018-05-15T08:11:45Z</time>
      </trkpt>
      <trkpt lat="45.71472" lon="6.94068">
        <ele>1534</ele>
        <time>2018-05-15T08:12:45Z</time>
      </trkpt>
      <trkpt lat="45.7148" lon="6.94071">
        <ele>1534</ele>
        <time>2018-05-15T08:13:45Z</time>
      </trkpt>
      <trkpt lat="45.71486" lon="6.94075">
        <ele>1534</ele>
        <time>2018-05-15T08:14:45Z</time>
      </trkpt>
      <trkpt lat="45.71502" lon="6.94088">
        <ele>1532</ele>
        <time>2018-05-15T08:15:45Z</time>
      </trkpt>
      <trkpt lat="45.71509" lon="6.94094">
        <ele>1532</ele>
        <time>2018-05-15T08:16:45Z</time>
      </trkpt>
      <trkpt lat="45.71518" lon="6.94107">
        <ele>1531</ele>
        <time>2018-05-15T08:17:45Z</time>
      </trkpt>
      <trkpt lat="45.71529" lon="6.94124">
        <ele>1530</ele>
        <time>2018-05-15T08:18:45Z</time>
      </trkpt>
      <trkpt lat="45.71533" lon="6.9413">
        <ele>1529</ele>
        <time>2018-05-15T08:19:45Z</time>
      </trkpt>
      <trkpt lat="45.71537" lon="6.94134">
        <ele>1529</ele>
        <time>2018-05-15T08:20:45Z</time>
      </trkpt>
      <trkpt lat="45.71539" lon="6.94136">
        <ele>1529</ele>
        <time>2018-05-15T08:21:45Z</time>
      </trkpt>
      <trkpt lat="45.71542" lon="6.94136">
        <ele>1530</ele>
        <time>2018-05-15T08:22:45Z</time>
      </trkpt>
      <trkpt lat="45.71547" lon="6.94135">
        <ele>1530</ele>
        <time>2018-05-15T08:23:45Z</time>
      </trkpt>
      <trkpt lat="45.71549" lon="6.94134">
        <ele>1530</ele>
        <time>2018-05-15T08:24:45Z</time>
      </trkpt>
      <trkpt lat="45.7155" lon="6.94132">
        <ele>1531</ele>
        <time>2018-05-15T08:25:45Z</time>
      </trkpt>
      <trkpt lat="45.71551" lon="6.94131">
        <ele>1531</ele>
        <time>2018-05-15T08:26:45Z</time>
      </trkpt>
      <trkpt lat="45.71552" lon="6.94129">
        <ele>1531</ele>
        <time>2018-05-15T08:27:45Z</time>
      </trkpt>
      <trkpt lat="45.71552" lon="6.94125">
        <ele>1532</ele>
        <time>2018-05-15T08:28:45Z</time>
      </trkpt>
      <trkpt lat="45.71553" lon="6.94123">
        <ele>1532</ele>
        <time>2018-05-15T08:29:45Z</time>
      </trkpt>
      <trkpt lat="45.71552" lon="6.94118">
        <ele>1533</ele>
        <time>2018-05-15T08:30:45Z</time>
      </trkpt>
      <trkpt lat="45.71551" lon="6.94112">
        <ele>1534</ele>
        <time>2018-05-15T08:31:45Z</time>
      </trkpt>
      <trkpt lat="45.71546" lon="6.94103">
        <ele>1534</ele>
        <time>2018-05-15T08:32:45Z</time>
      </trkpt>
      <trkpt lat="45.71522" lon="6.94062">
        <ele>1548</ele>
        <time>2018-05-15T08:33:45Z</time>
      </trkpt>
      <trkpt lat="45.71499" lon="6.94033">
        <ele>1541</ele>
        <time>2018-05-15T08:34:45Z</time>
      </trkpt>
      <trkpt lat="45.71494" lon="6.94027">
        <ele>1542</ele>
        <time>2018-05-15T08:35:45Z</time>
      </trkpt>
      <trkpt lat="45.71489" lon="6.94024">
        <ele>1542</ele>
        <time>2018-05-15T08:36:45Z</time>
      </trkpt>
      <trkpt lat="45.71483" lon="6.94022">
        <ele>1542</ele>
        <time>2018-05-15T08:37:45Z</time>
      </trkpt>
      <trkpt lat="45.71478" lon="6.94022">
        <ele>1541</ele>
        <time>2018-05-15T08:38:45Z</time>
      </trkpt>
      <trkpt lat="45.7147" lon="6.94022">
        <ele>1540</ele>
        <time>2018-05-15T08:39:45Z</time>
      </trkpt>
      <trkpt lat="45.71462" lon="6.94023">
        <ele>1538</ele>
        <time>2018-05-15T08:40:45Z</time>
      </trkpt>
      <trkpt lat="45.71459" lon="6.94024">
        <ele>1538</ele>
        <time>2018-05-15T08:41:45Z</time>
      </trkpt>
      <trkpt lat="45.71456" lon="6.94023">
        <ele>1538</ele>
        <time>2018-05-15T08:42:45Z</time>
      </trkpt>
      <trkpt lat="45.71454" lon="6.94023">
        <ele>1537</ele>
        <time>2018-05-15T08:43:45Z</time>
      </trkpt>
      <trkpt lat="45.71451" lon="6.9402">
        <ele>1537</ele>
        <time>2018-05-15T08:44:45Z</time>
      </trkpt>
      <trkpt lat="45.71447" lon="6.94015">
        <ele>1537</ele>
        <time>2018-05-15T08:45:45Z</time>
      </trkpt>
      <trkpt lat="45.71438" lon="6.94002">
        <ele>1537</ele>
        <time>2018-05-15T08:46:45Z</time>
      </trkpt>
      <trkpt lat="45.71434" lon="6.93997">
        <ele>1547</ele>
        <time>2018-05-15T08:47:45Z</time>
      </trkpt>
      <trkpt lat="45.71429" lon="6.93992">
        <ele>1546</ele>
        <time>2018-05-15T08:48:45Z</time>
      </trkpt>
      <trkpt lat="45.71412" lon="6.93972">
        <ele>1539</ele>
        <time>2018-05-15T08:49:45Z</time>
      </trkpt>
      <trkpt lat="45.71385" lon="6.93935">
        <ele>1543</ele>
        <time>2018-05-15T08:50:45Z</time>
      </trkpt>
      <trkpt lat="45.71382" lon="6.93928">
        <ele>1543</ele>
        <time>2018-05-15T08:51:45Z</time>
      </trkpt>
      <trkpt lat="45.71375" lon="6.93915">
        <ele>1557</ele>
        <time>2018-05-15T08:52:45Z</time>
      </trkpt>
      <trkpt lat="45.71352" lon="6.93863">
        <ele>1561</ele>
        <time>2018-05-15T08:53:45Z</time>
      </trkpt>
      <trkpt lat="45.71339" lon="6.93834">
        <ele>1561</ele>
        <time>2018-05-15T08:54:45Z</time>
      </trkpt>
      <trkpt lat="45.71332" lon="6.9382">
        <ele>1559</ele>
        <time>2018-05-15T08:55:45Z</time>
      </trkpt>
      <trkpt lat="45.71318" lon="6.93795">
        <ele>1560</ele>
        <time>2018-05-15T08:56:45Z</time>
      </trkpt>
      <trkpt lat="45.713" lon="6.93762">
        <ele>1562</ele>
        <time>2018-05-15T08:57:45Z</time>
      </trkpt>
      <trkpt lat="45.71287" lon="6.93743">
        <ele>1570</ele>
        <time>2018-05-15T08:58:45Z</time>
      </trkpt>
      <trkpt lat="45.7128" lon="6.93736">
        <ele>1569</ele>
        <time>2018-05-15T08:59:45Z</time>
      </trkpt>
      <trkpt lat="45.7127" lon="6.93726">
        <ele>1569</ele>
        <time>2018-05-15T09:00:45Z</time>
      </trkpt>
      <trkpt lat="45.71224" lon="6.93683">
        <ele>1557</ele>
        <time>2018-05-15T09:01:45Z</time>
      </trkpt>
      <trkpt lat="45.71206" lon="6.93664">
        <ele>1563</ele>
        <time>2018-05-15T09:02:45Z</time>
      </trkpt>
      <trkpt lat="45.71205" lon="6.93663">
        <ele>1563</ele>
        <time>2018-05-15T09:03:45Z</time>
      </trkpt>
      <trkpt lat="45.71202" lon="6.93659">
        <ele>1562</ele>
        <time>2018-05-15T09:04:45Z</time>
      </trkpt>
      <trkpt lat="45.712" lon="6.93655">
        <ele>1562</ele>
        <time>2018-05-15T09:05:45Z</time>
      </trkpt>
      <trkpt lat="45.71199" lon="6.93651">
        <ele>1562</ele>
        <time>2018-05-15T09:06:45Z</time>
      </trkpt>
      <trkpt lat="45.71199" lon="6.93647">
        <ele>1562</ele>
        <time>2018-05-15T09:07:45Z</time>
      </trkpt>
      <trkpt lat="45.71199" lon="6.93643">
        <ele>1563</ele>
        <time>2018-05-15T09:08:45Z</time>
      </trkpt>
      <trkpt lat="45.71199" lon="6.9364">
        <ele>1563</ele>
        <time>2018-05-15T09:09:45Z</time>
      </trkpt>
      <trkpt lat="45.712" lon="6.93636">
        <ele>1564</ele>
        <time>2018-05-15T09:10:45Z</time>
      </trkpt>
      <trkpt lat="45.71201" lon="6.93632">
        <ele>1564</ele>
        <time>2018-05-15T09:11:45Z</time>
      </trkpt>
      <trkpt lat="45.71202" lon="6.93629">
        <ele>1565</ele>
        <time>2018-05-15T09:12:45Z</time>
      </trkpt>
      <trkpt lat="45.71204" lon="6.93626">
        <ele>1565</ele>
        <time>2018-05-15T09:13:45Z</time>
      </trkpt>
      <trkpt lat="45.71206" lon="6.93622">
        <ele>1566</ele>
        <time>2018-05-15T09:14:45Z</time>
      </trkpt>
      <trkpt lat="45.7121" lon="6.93619">
        <ele>1566</ele>
        <time>2018-05-15T09:15:45Z</time>
      </trkpt>
      <trkpt lat="45.71213" lon="6.93619">
        <ele>1567</ele>
        <time>2018-05-15T09:16:45Z</time>
      </trkpt>
      <trkpt lat="45.71215" lon="6.93618">
        <ele>1567</ele>
        <time>2018-05-15T09:17:45Z</time>
      </trkpt>
      <trkpt lat="45.71218" lon="6.93619">
        <ele>1567</ele>
        <time>2018-05-15T09:18:45Z</time>
      </trkpt>
      <trkpt lat="45.71223" lon="6.93621">
        <ele>1568</ele>
        <time>2018-05-15T09:19:45Z</time>
      </trkpt>
      <trkpt lat="45.71246" lon="6.93641">
        <ele>1569</ele>
        <time>2018-05-15T09:20:45Z</time>
      </trkpt>
      <trkpt lat="45.71256" lon="6.93648">
        <ele>1579</ele>
        <time>2018-05-15T09:21:45Z</time>
      </trkpt>
      <trkpt lat="45.71278" lon="6.93662">
        <ele>1581</ele>
        <time>2018-05-15T09:22:45Z</time>
      </trkpt>
      <trkpt lat="45.71304" lon="6.93676">
        <ele>1579</ele>
        <time>2018-05-15T09:23:45Z</time>
      </trkpt>
      <trkpt lat="45.71308" lon="6.93679">
        <ele>1579</ele>
        <time>2018-05-15T09:24:45Z</time>
      </trkpt>
      <trkpt lat="45.71311" lon="6.93682">
        <ele>1579</ele>
        <time>2018-05-15T09:25:45Z</time>
      </trkpt>
      <trkpt lat="45.71314" lon="6.93686">
        <ele>1579</ele>
        <time>2018-05-15T09:26:45Z</time>
      </trkpt>
      <trkpt lat="45.71318" lon="6.93692">
        <ele>1579</ele>
        <time>2018-05-15T09:27:45Z</time>
      </trkpt>
      <trkpt lat="45.71326" lon="6.93713">
        <ele>1577</ele>
        <time>2018-05-15T09:28:45Z</time>
      </trkpt>
      <trkpt lat="45.71339" lon="6.93747">
        <ele>1581</ele>
        <time>2018-05-15T09:29:45Z</time>
      </trkpt>
      <trkpt lat="45.7134" lon="6.93751">
        <ele>1578</ele>
        <time>2018-05-15T09:30:45Z</time>
      </trkpt>
      <trkpt lat="45.71342" lon="6.93753">
        <ele>1579</ele>
        <time>2018-05-15T09:31:45Z</time>
      </trkpt>
      <trkpt lat="45.71344" lon="6.93755">
        <ele>1579</ele>
        <time>2018-05-15T09:32:45Z</time>
      </trkpt>
      <trkpt lat="45.71346" lon="6.93755">
        <ele>1580</ele>
        <time>2018-05-15T09:33:45Z</time>
      </trkpt>
      <trkpt lat="45.71348" lon="6.93755">
        <ele>1580</ele>
        <time>2018-05-15T09:34:45Z</time>
      </trkpt>
      <trkpt lat="45.7135" lon="6.93753">
        <ele>1580</ele>
        <time>2018-05-15T09:35:45Z</time>
      </trkpt>
      <trkpt lat="45.7135" lon="6.93752">
        <ele>1580</ele>
        <time>2018-05-15T09:36:45Z</time>
      </trkpt>
      <trkpt lat="45.71351" lon="6.9375">
        <ele>1583</ele>
        <time>2018-05-15T09:37:45Z</time>
      </trkpt>
      <trkpt lat="45.71351" lon="6.93747">
        <ele>1587</ele>
        <time>2018-05-15T09:38:45Z</time>
      </trkpt>
      <trkpt lat="45.71351" lon="6.93745">
        <ele>1587</ele>
        <time>2018-05-15T09:39:45Z</time>
      </trkpt>
      <trkpt lat="45.71351" lon="6.93744">
        <ele>1587</ele>
        <time>2018-05-15T09:40:45Z</time>
      </trkpt>
      <trkpt lat="45.71351" lon="6.93742">
        <ele>1588</ele>
        <time>2018-05-15T09:41:45Z</time>
      </trkpt>
      <trkpt lat="45.7135" lon="6.93739">
        <ele>1588</ele>
        <time>2018-05-15T09:42:45Z</time>
      </trkpt>
      <trkpt lat="45.71333" lon="6.93687">
        <ele>1582</ele>
        <time>2018-05-15T09:43:45Z</time>
      </trkpt>
      <trkpt lat="45.71314" lon="6.9364">
        <ele>1588</ele>
        <time>2018-05-15T09:44:45Z</time>
      </trkpt>
      <trkpt lat="45.71295" lon="6.93587">
        <ele>1588</ele>
        <time>2018-05-15T09:45:45Z</time>
      </trkpt>
      <trkpt lat="45.71273" lon="6.93537">
        <ele>1595</ele>
        <time>2018-05-15T09:46:45Z</time>
      </trkpt>
      <trkpt lat="45.71262" lon="6.93518">
        <ele>1595</ele>
        <time>2018-05-15T09:47:45Z</time>
      </trkpt>
      <trkpt lat="45.71245" lon="6.93493">
        <ele>1590</ele>
        <time>2018-05-15T09:48:45Z</time>
      </trkpt>
      <trkpt lat="45.71215" lon="6.93452">
        <ele>1587</ele>
        <time>2018-05-15T09:49:45Z</time>
      </trkpt>
      <trkpt lat="45.71209" lon="6.9344">
        <ele>1586</ele>
        <time>2018-05-15T09:50:45Z</time>
      </trkpt>
      <trkpt lat="45.71203" lon="6.9343">
        <ele>1586</ele>
        <time>2018-05-15T09:51:45Z</time>
      </trkpt>
      <trkpt lat="45.71196" lon="6.93414">
        <ele>1590</ele>
        <time>2018-05-15T09:52:45Z</time>
      </trkpt>
      <trkpt lat="45.71188" lon="6.93388">
        <ele>1590</ele>
        <time>2018-05-15T09:53:45Z</time>
      </trkpt>
      <trkpt lat="45.71174" lon="6.93337">
        <ele>1588</ele>
        <time>2018-05-15T09:54:45Z</time>
      </trkpt>
      <trkpt lat="45.71167" lon="6.93313">
        <ele>1593</ele>
        <time>2018-05-15T09:55:45Z</time>
      </trkpt>
      <trkpt lat="45.71139" lon="6.93213">
        <ele>1601</ele>
        <time>2018-05-15T09:56:45Z</time>
      </trkpt>
      <trkpt lat="45.71134" lon="6.93199">
        <ele>1602</ele>
        <time>2018-05-15T09:57:45Z</time>
      </trkpt>
      <trkpt lat="45.7113" lon="6.93193">
        <ele>1602</ele>
        <time>2018-05-15T09:58:45Z</time>
      </trkpt>
      <trkpt lat="45.71125" lon="6.93184">
        <ele>1603</ele>
        <time>2018-05-15T09:59:45Z</time>
      </trkpt>
      <trkpt lat="45.71104" lon="6.93161">
        <ele>1609</ele>
        <time>2018-05-15T10:00:45Z</time>
      </trkpt>
      <trkpt lat="45.711" lon="6.93155">
        <ele>1610</ele>
        <time>2018-05-15T10:01:45Z</time>
      </trkpt>
      <trkpt lat="45.71097" lon="6.93148">
        <ele>1610</ele>
        <time>2018-05-15T10:02:45Z</time>
      </trkpt>
      <trkpt lat="45.71084" lon="6.93106">
        <ele>1614</ele>
        <time>2018-05-15T10:03:45Z</time>
      </trkpt>
      <trkpt lat="45.71079" lon="6.93099">
        <ele>1622</ele>
        <time>2018-05-15T10:04:45Z</time>
      </trkpt>
      <trkpt lat="45.71072" lon="6.93093">
        <ele>1622</ele>
        <time>2018-05-15T10:05:45Z</time>
      </trkpt>
      <trkpt lat="45.71066" lon="6.93092">
        <ele>1623</ele>
        <time>2018-05-15T10:06:45Z</time>
      </trkpt>
      <trkpt lat="45.71062" lon="6.93091">
        <ele>1624</ele>
        <time>2018-05-15T10:07:45Z</time>
      </trkpt>
      <trkpt lat="45.71059" lon="6.93093">
        <ele>1624</ele>
        <time>2018-05-15T10:08:45Z</time>
      </trkpt>
      <trkpt lat="45.71054" lon="6.93097">
        <ele>1625</ele>
        <time>2018-05-15T10:09:45Z</time>
      </trkpt>
      <trkpt lat="45.71052" lon="6.93101">
        <ele>1626</ele>
        <time>2018-05-15T10:10:45Z</time>
      </trkpt>
      <trkpt lat="45.7105" lon="6.93107">
        <ele>1626</ele>
        <time>2018-05-15T10:11:45Z</time>
      </trkpt>
      <trkpt lat="45.71049" lon="6.93114">
        <ele>1626</ele>
        <time>2018-05-15T10:12:45Z</time>
      </trkpt>
      <trkpt lat="45.71044" lon="6.93189">
        <ele>1620</ele>
        <time>2018-05-15T10:13:45Z</time>
      </trkpt>
      <trkpt lat="45.71041" lon="6.93207">
        <ele>1620</ele>
        <time>2018-05-15T10:14:45Z</time>
      </trkpt>
      <trkpt lat="45.71039" lon="6.93215">
        <ele>1621</ele>
        <time>2018-05-15T10:15:45Z</time>
      </trkpt>
      <trkpt lat="45.71038" lon="6.93222">
        <ele>1621</ele>
        <time>2018-05-15T10:16:45Z</time>
      </trkpt>
      <trkpt lat="45.71036" lon="6.93226">
        <ele>1621</ele>
        <time>2018-05-15T10:17:45Z</time>
      </trkpt>
      <trkpt lat="45.71032" lon="6.93232">
        <ele>1622</ele>
        <time>2018-05-15T10:18:45Z</time>
      </trkpt>
      <trkpt lat="45.71028" lon="6.93237">
        <ele>1623</ele>
        <time>2018-05-15T10:19:45Z</time>
      </trkpt>
      <trkpt lat="45.71019" lon="6.93242">
        <ele>1627</ele>
        <time>2018-05-15T10:20:45Z</time>
      </trkpt>
      <trkpt lat="45.71007" lon="6.93251">
        <ele>1631</ele>
        <time>2018-05-15T10:21:45Z</time>
      </trkpt>
      <trkpt lat="45.71003" lon="6.93258">
        <ele>1630</ele>
        <time>2018-05-15T10:22:45Z</time>
      </trkpt>
      <trkpt lat="45.70999" lon="6.93266">
        <ele>1641</ele>
        <time>2018-05-15T10:23:45Z</time>
      </trkpt>
      <trkpt lat="45.70994" lon="6.93278">
        <ele>1643</ele>
        <time>2018-05-15T10:24:45Z</time>
      </trkpt>
      <trkpt lat="45.70988" lon="6.93309">
        <ele>1641</ele>
        <time>2018-05-15T10:25:45Z</time>
      </trkpt>
      <trkpt lat="45.70985" lon="6.93333">
        <ele>1637</ele>
        <time>2018-05-15T10:26:45Z</time>
      </trkpt>
      <trkpt lat="45.7098" lon="6.93351">
        <ele>1635</ele>
        <time>2018-05-15T10:27:45Z</time>
      </trkpt>
      <trkpt lat="45.70975" lon="6.93367">
        <ele>1635</ele>
        <time>2018-05-15T10:28:45Z</time>
      </trkpt>
      <trkpt lat="45.70966" lon="6.93387">
        <ele>1636</ele>
        <time>2018-05-15T10:29:45Z</time>
      </trkpt>
      <trkpt lat="45.70957" lon="6.93405">
        <ele>1637</ele>
        <time>2018-05-15T10:30:45Z</time>
      </trkpt>
      <trkpt lat="45.70951" lon="6.93414">
        <ele>1638</ele>
        <time>2018-05-15T10:31:45Z</time>
      </trkpt>
      <trkpt lat="45.7095" lon="6.93417">
        <ele>1633</ele>
        <time>2018-05-15T10:32:45Z</time>
      </trkpt>
      <trkpt lat="45.70948" lon="6.9342">
        <ele>1634</ele>
        <time>2018-05-15T10:33:45Z</time>
      </trkpt>
      <trkpt lat="45.70946" lon="6.93421">
        <ele>1634</ele>
        <time>2018-05-15T10:34:45Z</time>
      </trkpt>
      <trkpt lat="45.70944" lon="6.93421">
        <ele>1635</ele>
        <time>2018-05-15T10:35:45Z</time>
      </trkpt>
      <trkpt lat="45.70943" lon="6.9342">
        <ele>1635</ele>
        <time>2018-05-15T10:36:45Z</time>
      </trkpt>
      <trkpt lat="45.70942" lon="6.93418">
        <ele>1636</ele>
        <time>2018-05-15T10:37:45Z</time>
      </trkpt>
      <trkpt lat="45.70942" lon="6.93415">
        <ele>1641</ele>
        <time>2018-05-15T10:38:45Z</time>
      </trkpt>
      <trkpt lat="45.70942" lon="6.93409">
        <ele>1641</ele>
        <time>2018-05-15T10:39:45Z</time>
      </trkpt>
      <trkpt lat="45.70944" lon="6.93398">
        <ele>1640</ele>
        <time>2018-05-15T10:40:45Z</time>
      </trkpt>
      <trkpt lat="45.70953" lon="6.93368">
        <ele>1640</ele>
        <time>2018-05-15T10:41:45Z</time>
      </trkpt>
      <trkpt lat="45.70964" lon="6.93331">
        <ele>1645</ele>
        <time>2018-05-15T10:42:45Z</time>
      </trkpt>
      <trkpt lat="45.70967" lon="6.9332">
        <ele>1645</ele>
        <time>2018-05-15T10:43:45Z</time>
      </trkpt>
      <trkpt lat="45.70969" lon="6.93306">
        <ele>1645</ele>
        <time>2018-05-15T10:44:45Z</time>
      </trkpt>
      <trkpt lat="45.70971" lon="6.9327">
        <ele>1647</ele>
        <time>2018-05-15T10:45:45Z</time>
      </trkpt>
      <trkpt lat="45.7097" lon="6.93227">
        <ele>1652</ele>
        <time>2018-05-15T10:46:45Z</time>
      </trkpt>
      <trkpt lat="45.70966" lon="6.93203">
        <ele>1654</ele>
        <time>2018-05-15T10:47:45Z</time>
      </trkpt>
      <trkpt lat="45.70963" lon="6.93176">
        <ele>1655</ele>
        <time>2018-05-15T10:48:45Z</time>
      </trkpt>
      <trkpt lat="45.70961" lon="6.93149">
        <ele>1659</ele>
        <time>2018-05-15T10:49:45Z</time>
      </trkpt>
      <trkpt lat="45.70962" lon="6.93138">
        <ele>1659</ele>
        <time>2018-05-15T10:50:45Z</time>
      </trkpt>
      <trkpt lat="45.70965" lon="6.93128">
        <ele>1659</ele>
        <time>2018-05-15T10:51:45Z</time>
      </trkpt>
      <trkpt lat="45.70977" lon="6.93092">
        <ele>1655</ele>
        <time>2018-05-15T10:52:45Z</time>
      </trkpt>
      <trkpt lat="45.70981" lon="6.93069">
        <ele>1657</ele>
        <time>2018-05-15T10:53:45Z</time>
      </trkpt>
      <trkpt lat="45.70985" lon="6.93047">
        <ele>1659</ele>
        <time>2018-05-15T10:54:45Z</time>
      </trkpt>
      <trkpt lat="45.70985" lon="6.93041">
        <ele>1659</ele>
        <time>2018-05-15T10:55:45Z</time>
      </trkpt>
      <trkpt lat="45.70984" lon="6.93038">
        <ele>1660</ele>
        <time>2018-05-15T10:56:45Z</time>
      </trkpt>
      <trkpt lat="45.70983" lon="6.93036">
        <ele>1660</ele>
        <time>2018-05-15T10:57:45Z</time>
      </trkpt>
      <trkpt lat="45.70982" lon="6.93035">
        <ele>1660</ele>
        <time>2018-05-15T10:58:45Z</time>
      </trkpt>
      <trkpt lat="45.70981" lon="6.93034">
        <ele>1660</ele>
        <time>2018-05-15T10:59:45Z</time>
      </trkpt>
      <trkpt lat="45.7098" lon="6.93034">
        <ele>1660</ele>
        <time>2018-05-15T11:00:45Z</time>
      </trkpt>
      <trkpt lat="45.70979" lon="6.93033">
        <ele>1660</ele>
        <time>2018-05-15T11:01:45Z</time>
      </trkpt>
      <trkpt lat="45.70976" lon="6.93034">
        <ele>1661</ele>
        <time>2018-05-15T11:02:45Z</time>
      </trkpt>
      <trkpt lat="45.70975" lon="6.93034">
        <ele>1661</ele>
        <time>2018-05-15T11:03:45Z</time>
      </trkpt>
      <trkpt lat="45.70974" lon="6.93037">
        <ele>1661</ele>
        <time>2018-05-15T11:04:45Z</time>
      </trkpt>
      <trkpt lat="45.70971" lon="6.93044">
        <ele>1662</ele>
        <time>2018-05-15T11:05:45Z</time>
      </trkpt>
      <trkpt lat="45.70969" lon="6.93073">
        <ele>1661</ele>
        <time>2018-05-15T11:06:45Z</time>
      </trkpt>
      <trkpt lat="45.70968" lon="6.93083">
        <ele>1661</ele>
        <time>2018-05-15T11:07:45Z</time>
      </trkpt>
      <trkpt lat="45.70965" lon="6.93094">
        <ele>1660</ele>
        <time>2018-05-15T11:08:45Z</time>
      </trkpt>
      <trkpt lat="45.7096" lon="6.93105">
        <ele>1661</ele>
        <time>2018-05-15T11:09:45Z</time>
      </trkpt>
      <trkpt lat="45.70954" lon="6.93122">
        <ele>1662</ele>
        <time>2018-05-15T11:10:45Z</time>
      </trkpt>
      <trkpt lat="45.7095" lon="6.93134">
        <ele>1662</ele>
        <time>2018-05-15T11:11:45Z</time>
      </trkpt>
      <trkpt lat="45.70947" lon="6.93143">
        <ele>1663</ele>
        <time>2018-05-15T11:12:45Z</time>
      </trkpt>
      <trkpt lat="45.70945" lon="6.93152">
        <ele>1664</ele>
        <time>2018-05-15T11:13:45Z</time>
      </trkpt>
      <trkpt lat="45.70943" lon="6.93175">
        <ele>1662</ele>
        <time>2018-05-15T11:14:45Z</time>
      </trkpt>
      <trkpt lat="45.70942" lon="6.93192">
        <ele>1660</ele>
        <time>2018-05-15T11:15:45Z</time>
      </trkpt>
      <trkpt lat="45.70939" lon="6.93205">
        <ele>1660</ele>
        <time>2018-05-15T11:16:45Z</time>
      </trkpt>
      <trkpt lat="45.70935" lon="6.93218">
        <ele>1660</ele>
        <time>2018-05-15T11:17:45Z</time>
      </trkpt>
      <trkpt lat="45.70918" lon="6.93253">
        <ele>1668</ele>
        <time>2018-05-15T11:18:45Z</time>
      </trkpt>
      <trkpt lat="45.70902" lon="6.93284">
        <ele>1675</ele>
        <time>2018-05-15T11:19:45Z</time>
      </trkpt>
      <trkpt lat="45.70893" lon="6.93295">
        <ele>1675</ele>
        <time>2018-05-15T11:20:45Z</time>
      </trkpt>
      <trkpt lat="45.70884" lon="6.93303">
        <ele>1676</ele>
        <time>2018-05-15T11:21:45Z</time>
      </trkpt>
      <trkpt lat="45.70872" lon="6.93313">
        <ele>1678</ele>
        <time>2018-05-15T11:22:45Z</time>
      </trkpt>
      <trkpt lat="45.70868" lon="6.93317">
        <ele>1678</ele>
        <time>2018-05-15T11:23:45Z</time>
      </trkpt>
      <trkpt lat="45.70864" lon="6.93324">
        <ele>1679</ele>
        <time>2018-05-15T11:24:45Z</time>
      </trkpt>
      <trkpt lat="45.70861" lon="6.93332">
        <ele>1680</ele>
        <time>2018-05-15T11:25:45Z</time>
      </trkpt>
      <trkpt lat="45.70858" lon="6.93337">
        <ele>1678</ele>
        <time>2018-05-15T11:26:45Z</time>
      </trkpt>
      <trkpt lat="45.70855" lon="6.93343">
        <ele>1679</ele>
        <time>2018-05-15T11:27:45Z</time>
      </trkpt>
      <trkpt lat="45.70853" lon="6.93344">
        <ele>1679</ele>
        <time>2018-05-15T11:28:45Z</time>
      </trkpt>
      <trkpt lat="45.70852" lon="6.93344">
        <ele>1680</ele>
        <time>2018-05-15T11:29:45Z</time>
      </trkpt>
      <trkpt lat="45.70849" lon="6.93345">
        <ele>1680</ele>
        <time>2018-05-15T11:30:45Z</time>
      </trkpt>
      <trkpt lat="45.70847" lon="6.93344">
        <ele>1681</ele>
        <time>2018-05-15T11:31:45Z</time>
      </trkpt>
      <trkpt lat="45.70845" lon="6.93343">
        <ele>1682</ele>
        <time>2018-05-15T11:32:45Z</time>
      </trkpt>
      <trkpt lat="45.70844" lon="6.93342">
        <ele>1683</ele>
        <time>2018-05-15T11:33:45Z</time>
      </trkpt>
      <trkpt lat="45.70843" lon="6.93339">
        <ele>1684</ele>
        <time>2018-05-15T11:34:45Z</time>
      </trkpt>
      <trkpt lat="45.70842" lon="6.93336">
        <ele>1685</ele>
        <time>2018-05-15T11:35:45Z</time>
      </trkpt>
      <trkpt lat="45.70842" lon="6.93334">
        <ele>1685</ele>
        <time>2018-05-15T11:36:45Z</time>
      </trkpt>
      <trkpt lat="45.70842" lon="6.93329">
        <ele>1686</ele>
        <time>2018-05-15T11:37:45Z</time>
      </trkpt>
      <trkpt lat="45.70843" lon="6.93325">
        <ele>1685</ele>
        <time>2018-05-15T11:38:45Z</time>
      </trkpt>
      <trkpt lat="45.70847" lon="6.93318">
        <ele>1683</ele>
        <time>2018-05-15T11:39:45Z</time>
      </trkpt>
      <trkpt lat="45.7087" lon="6.93277">
        <ele>1679</ele>
        <time>2018-05-15T11:40:45Z</time>
      </trkpt>
      <trkpt lat="45.70873" lon="6.9327">
        <ele>1679</ele>
        <time>2018-05-15T11:41:45Z</time>
      </trkpt>
      <trkpt lat="45.70878" lon="6.93251">
        <ele>1678</ele>
        <time>2018-05-15T11:42:45Z</time>
      </trkpt>
      <trkpt lat="45.70883" lon="6.93227">
        <ele>1683</ele>
        <time>2018-05-15T11:43:45Z</time>
      </trkpt>
      <trkpt lat="45.70889" lon="6.93191">
        <ele>1683</ele>
        <time>2018-05-15T11:44:45Z</time>
      </trkpt>
      <trkpt lat="45.70889" lon="6.93161">
        <ele>1688</ele>
        <time>2018-05-15T11:45:45Z</time>
      </trkpt>
      <trkpt lat="45.7089" lon="6.93132">
        <ele>1690</ele>
        <time>2018-05-15T11:46:45Z</time>
      </trkpt>
      <trkpt lat="45.7089" lon="6.93125">
        <ele>1690</ele>
        <time>2018-05-15T11:47:45Z</time>
      </trkpt>
      <trkpt lat="45.70891" lon="6.93114">
        <ele>1690</ele>
        <time>2018-05-15T11:48:45Z</time>
      </trkpt>
      <trkpt lat="45.70897" lon="6.93078">
        <ele>1692</ele>
        <time>2018-05-15T11:49:45Z</time>
      </trkpt>
      <trkpt lat="45.70898" lon="6.93053">
        <ele>1694</ele>
        <time>2018-05-15T11:50:45Z</time>
      </trkpt>
      <trkpt lat="45.70895" lon="6.93005">
        <ele>1693</ele>
        <time>2018-05-15T11:51:45Z</time>
      </trkpt>
      <trkpt lat="45.70892" lon="6.92945">
        <ele>1698</ele>
        <time>2018-05-15T11:52:45Z</time>
      </trkpt>
      <trkpt lat="45.70891" lon="6.92941">
        <ele>1698</ele>
        <time>2018-05-15T11:53:45Z</time>
      </trkpt>
      <trkpt lat="45.7089" lon="6.92936">
        <ele>1698</ele>
        <time>2018-05-15T11:54:45Z</time>
      </trkpt>
      <trkpt lat="45.7089" lon="6.92933">
        <ele>1698</ele>
        <time>2018-05-15T11:55:45Z</time>
      </trkpt>
      <trkpt lat="45.70889" lon="6.9293">
        <ele>1698</ele>
        <time>2018-05-15T11:56:45Z</time>
      </trkpt>
      <trkpt lat="45.70887" lon="6.92928">
        <ele>1698</ele>
        <time>2018-05-15T11:57:45Z</time>
      </trkpt>
      <trkpt lat="45.70885" lon="6.92927">
        <ele>1699</ele>
        <time>2018-05-15T11:58:45Z</time>
      </trkpt>
      <trkpt lat="45.70882" lon="6.92926">
        <ele>1699</ele>
        <time>2018-05-15T11:59:45Z</time>
      </trkpt>
      <trkpt lat="45.70879" lon="6.92926">
        <ele>1700</ele>
        <time>2018-05-15T12:00:45Z</time>
      </trkpt>
      <trkpt lat="45.70878" lon="6.92926">
        <ele>1700</ele>
        <time>2018-05-15T12:01:45Z</time>
      </trkpt>
      <trkpt lat="45.70877" lon="6.92927">
        <ele>1701</ele>
        <time>2018-05-15T12:02:45Z</time>
      </trkpt>
      <trkpt lat="45.70876" lon="6.92931">
        <ele>1701</ele>
        <time>2018-05-15T12:03:45Z</time>
      </trkpt>
      <trkpt lat="45.70876" lon="6.9294">
        <ele>1701</ele>
        <time>2018-05-15T12:04:45Z</time>
      </trkpt>
      <trkpt lat="45.70876" lon="6.92946">
        <ele>1701</ele>
        <time>2018-05-15T12:05:45Z</time>
      </trkpt>
      <trkpt lat="45.70877" lon="6.92953">
        <ele>1700</ele>
        <time>2018-05-15T12:06:45Z</time>
      </trkpt>
      <trkpt lat="45.70877" lon="6.92986">
        <ele>1700</ele>
        <time>2018-05-15T12:07:45Z</time>
      </trkpt>
      <trkpt lat="45.70876" lon="6.92999">
        <ele>1700</ele>
        <time>2018-05-15T12:08:45Z</time>
      </trkpt>
      <trkpt lat="45.70874" lon="6.93009">
        <ele>1699</ele>
        <time>2018-05-15T12:09:45Z</time>
      </trkpt>
      <trkpt lat="45.70868" lon="6.93022">
        <ele>1700</ele>
        <time>2018-05-15T12:10:45Z</time>
      </trkpt>
      <trkpt lat="45.70855" lon="6.93042">
        <ele>1701</ele>
        <time>2018-05-15T12:11:45Z</time>
      </trkpt>
      <trkpt lat="45.70822" lon="6.9309">
        <ele>1714</ele>
        <time>2018-05-15T12:12:45Z</time>
      </trkpt>
      <trkpt lat="45.70792" lon="6.93132">
        <ele>1723</ele>
        <time>2018-05-15T12:13:45Z</time>
      </trkpt>
      <trkpt lat="45.70787" lon="6.9314">
        <ele>1724</ele>
        <time>2018-05-15T12:14:45Z</time>
      </trkpt>
      <trkpt lat="45.70784" lon="6.93146">
        <ele>1724</ele>
        <time>2018-05-15T12:15:45Z</time>
      </trkpt>
      <trkpt lat="45.70783" lon="6.93151">
        <ele>1725</ele>
        <time>2018-05-15T12:16:45Z</time>
      </trkpt>
      <trkpt lat="45.70782" lon="6.93157">
        <ele>1725</ele>
        <time>2018-05-15T12:17:45Z</time>
      </trkpt>
      <trkpt lat="45.70781" lon="6.93167">
        <ele>1721</ele>
        <time>2018-05-15T12:18:45Z</time>
      </trkpt>
      <trkpt lat="45.70777" lon="6.93216">
        <ele>1719</ele>
        <time>2018-05-15T12:19:45Z</time>
      </trkpt>
      <trkpt lat="45.7077" lon="6.93343">
        <ele>1720</ele>
        <time>2018-05-15T12:20:45Z</time>
      </trkpt>
      <trkpt lat="45.70768" lon="6.93375">
        <ele>1717</ele>
        <time>2018-05-15T12:21:45Z</time>
      </trkpt>
      <trkpt lat="45.70768" lon="6.93383">
        <ele>1718</ele>
        <time>2018-05-15T12:22:45Z</time>
      </trkpt>
      <trkpt lat="45.70767" lon="6.93385">
        <ele>1718</ele>
        <time>2018-05-15T12:23:45Z</time>
      </trkpt>
      <trkpt lat="45.70766" lon="6.93388">
        <ele>1718</ele>
        <time>2018-05-15T12:24:45Z</time>
      </trkpt>
      <trkpt lat="45.70763" lon="6.93389">
        <ele>1719</ele>
        <time>2018-05-15T12:25:45Z</time>
      </trkpt>
      <trkpt lat="45.7076" lon="6.93389">
        <ele>1720</ele>
        <time>2018-05-15T12:26:45Z</time>
      </trkpt>
      <trkpt lat="45.70759" lon="6.93385">
        <ele>1719</ele>
        <time>2018-05-15T12:27:45Z</time>
      </trkpt>
      <trkpt lat="45.70758" lon="6.93379">
        <ele>1719</ele>
        <time>2018-05-15T12:28:45Z</time>
      </trkpt>
      <trkpt lat="45.70757" lon="6.93365">
        <ele>1720</ele>
        <time>2018-05-15T12:29:45Z</time>
      </trkpt>
      <trkpt lat="45.70753" lon="6.93256">
        <ele>1728</ele>
        <time>2018-05-15T12:30:45Z</time>
      </trkpt>
      <trkpt lat="45.70747" lon="6.93187">
        <ele>1749</ele>
        <time>2018-05-15T12:31:45Z</time>
      </trkpt>
      <trkpt lat="45.70744" lon="6.93119">
        <ele>1758</ele>
        <time>2018-05-15T12:32:45Z</time>
      </trkpt>
      <trkpt lat="45.70746" lon="6.93084">
        <ele>1749</ele>
        <time>2018-05-15T12:33:45Z</time>
      </trkpt>
      <trkpt lat="45.70749" lon="6.93045">
        <ele>1762</ele>
        <time>2018-05-15T12:34:45Z</time>
      </trkpt>
      <trkpt lat="45.70756" lon="6.92999">
        <ele>1749</ele>
        <time>2018-05-15T12:35:45Z</time>
      </trkpt>
      <trkpt lat="45.70761" lon="6.92943">
        <ele>1744</ele>
        <time>2018-05-15T12:36:45Z</time>
      </trkpt>
      <trkpt lat="45.70763" lon="6.92868">
        <ele>1747</ele>
        <time>2018-05-15T12:37:45Z</time>
      </trkpt>
      <trkpt lat="45.7076" lon="6.92809">
        <ele>1754</ele>
        <time>2018-05-15T12:38:45Z</time>
      </trkpt>
      <trkpt lat="45.70759" lon="6.9276">
        <ele>1762</ele>
        <time>2018-05-15T12:39:45Z</time>
      </trkpt>
      <trkpt lat="45.7076" lon="6.9269">
        <ele>1763</ele>
        <time>2018-05-15T12:40:45Z</time>
      </trkpt>
      <trkpt lat="45.70758" lon="6.92655">
        <ele>1769</ele>
        <time>2018-05-15T12:41:45Z</time>
      </trkpt>
      <trkpt lat="45.70756" lon="6.92644">
        <ele>1766</ele>
        <time>2018-05-15T12:42:45Z</time>
      </trkpt>
      <trkpt lat="45.70752" lon="6.92635">
        <ele>1765</ele>
        <time>2018-05-15T12:43:45Z</time>
      </trkpt>
      <trkpt lat="45.70736" lon="6.92606">
        <ele>1785</ele>
        <time>2018-05-15T12:44:45Z</time>
      </trkpt>
      <trkpt lat="45.70732" lon="6.92599">
        <ele>1785</ele>
        <time>2018-05-15T12:45:45Z</time>
      </trkpt>
      <trkpt lat="45.70728" lon="6.92592">
        <ele>1785</ele>
        <time>2018-05-15T12:46:45Z</time>
      </trkpt>
      <trkpt lat="45.70727" lon="6.92585">
        <ele>1785</ele>
        <time>2018-05-15T12:47:45Z</time>
      </trkpt>
      <trkpt lat="45.70728" lon="6.9258">
        <ele>1784</ele>
        <time>2018-05-15T12:48:45Z</time>
      </trkpt>
      <trkpt lat="45.7073" lon="6.92576">
        <ele>1784</ele>
        <time>2018-05-15T12:49:45Z</time>
      </trkpt>
      <trkpt lat="45.70733" lon="6.92573">
        <ele>1783</ele>
        <time>2018-05-15T12:50:45Z</time>
      </trkpt>
      <trkpt lat="45.70742" lon="6.9257">
        <ele>1781</ele>
        <time>2018-05-15T12:51:45Z</time>
      </trkpt>
      <trkpt lat="45.70748" lon="6.92567">
        <ele>1781</ele>
        <time>2018-05-15T12:52:45Z</time>
      </trkpt>
      <trkpt lat="45.70758" lon="6.92561">
        <ele>1766</ele>
        <time>2018-05-15T12:53:45Z</time>
      </trkpt>
      <trkpt lat="45.70762" lon="6.92555">
        <ele>1764</ele>
        <time>2018-05-15T12:54:45Z</time>
      </trkpt>
      <trkpt lat="45.70763" lon="6.92552">
        <ele>1764</ele>
        <time>2018-05-15T12:55:45Z</time>
      </trkpt>
      <trkpt lat="45.70763" lon="6.92547">
        <ele>1763</ele>
        <time>2018-05-15T12:56:45Z</time>
      </trkpt>
      <trkpt lat="45.70763" lon="6.92539">
        <ele>1763</ele>
        <time>2018-05-15T12:57:45Z</time>
      </trkpt>
      <trkpt lat="45.70761" lon="6.92524">
        <ele>1764</ele>
        <time>2018-05-15T12:58:45Z</time>
      </trkpt>
      <trkpt lat="45.70743" lon="6.92441">
        <ele>1782</ele>
        <time>2018-05-15T12:59:45Z</time>
      </trkpt>
      <trkpt lat="45.70729" lon="6.92388">
        <ele>1789</ele>
        <time>2018-05-15T13:00:45Z</time>
      </trkpt>
      <trkpt lat="45.70723" lon="6.92364">
        <ele>1792</ele>
        <time>2018-05-15T13:01:45Z</time>
      </trkpt>
      <trkpt lat="45.70722" lon="6.92349">
        <ele>1792</ele>
        <time>2018-05-15T13:02:45Z</time>
      </trkpt>
      <trkpt lat="45.70723" lon="6.92328">
        <ele>1800</ele>
        <time>2018-05-15T13:03:45Z</time>
      </trkpt>
      <trkpt lat="45.70724" lon="6.92314">
        <ele>1802</ele>
        <time>2018-05-15T13:04:45Z</time>
      </trkpt>
      <trkpt lat="45.70731" lon="6.92299">
        <ele>1803</ele>
        <time>2018-05-15T13:05:45Z</time>
      </trkpt>
      <trkpt lat="45.70737" lon="6.92291">
        <ele>1804</ele>
        <time>2018-05-15T13:06:45Z</time>
      </trkpt>
      <trkpt lat="45.70741" lon="6.92287">
        <ele>1804</ele>
        <time>2018-05-15T13:07:45Z</time>
      </trkpt>
      <trkpt lat="45.70744" lon="6.92287">
        <ele>1804</ele>
        <time>2018-05-15T13:08:45Z</time>
      </trkpt>
      <trkpt lat="45.70748" lon="6.92289">
        <ele>1803</ele>
        <time>2018-05-15T13:09:45Z</time>
      </trkpt>
      <trkpt lat="45.70749" lon="6.9229">
        <ele>1803</ele>
        <time>2018-05-15T13:10:45Z</time>
      </trkpt>
      <trkpt lat="45.70754" lon="6.92296">
        <ele>1783</ele>
        <time>2018-05-15T13:11:45Z</time>
      </trkpt>
      <trkpt lat="45.70758" lon="6.92302">
        <ele>1782</ele>
        <time>2018-05-15T13:12:45Z</time>
      </trkpt>
      <trkpt lat="45.70763" lon="6.92307">
        <ele>1781</ele>
        <time>2018-05-15T13:13:45Z</time>
      </trkpt>
      <trkpt lat="45.70766" lon="6.92309">
        <ele>1781</ele>
        <time>2018-05-15T13:14:45Z</time>
      </trkpt>
      <trkpt lat="45.70771" lon="6.92308">
        <ele>1780</ele>
        <time>2018-05-15T13:15:45Z</time>
      </trkpt>
      <trkpt lat="45.70774" lon="6.92306">
        <ele>1780</ele>
        <time>2018-05-15T13:16:45Z</time>
      </trkpt>
      <trkpt lat="45.70776" lon="6.92303">
        <ele>1779</ele>
        <time>2018-05-15T13:17:45Z</time>
      </trkpt>
      <trkpt lat="45.70776" lon="6.923">
        <ele>1780</ele>
        <time>2018-05-15T13:18:45Z</time>
      </trkpt>
      <trkpt lat="45.70777" lon="6.92292">
        <ele>1780</ele>
        <time>2018-05-15T13:19:45Z</time>
      </trkpt>
      <trkpt lat="45.70758" lon="6.92197">
        <ele>1794</ele>
        <time>2018-05-15T13:20:45Z</time>
      </trkpt>
      <trkpt lat="45.7075" lon="6.92146">
        <ele>1800</ele>
        <time>2018-05-15T13:21:45Z</time>
      </trkpt>
      <trkpt lat="45.70745" lon="6.92114">
        <ele>1809</ele>
        <time>2018-05-15T13:22:45Z</time>
      </trkpt>
      <trkpt lat="45.70743" lon="6.92105">
        <ele>1808</ele>
        <time>2018-05-15T13:23:45Z</time>
      </trkpt>
      <trkpt lat="45.7074" lon="6.92099">
        <ele>1808</ele>
        <time>2018-05-15T13:24:45Z</time>
      </trkpt>
      <trkpt lat="45.70736" lon="6.92096">
        <ele>1808</ele>
        <time>2018-05-15T13:25:45Z</time>
      </trkpt>
      <trkpt lat="45.70723" lon="6.9209">
        <ele>1810</ele>
        <time>2018-05-15T13:26:45Z</time>
      </trkpt>
      <trkpt lat="45.70714" lon="6.92089">
        <ele>1812</ele>
        <time>2018-05-15T13:27:45Z</time>
      </trkpt>
      <trkpt lat="45.70702" lon="6.9209">
        <ele>1814</ele>
        <time>2018-05-15T13:28:45Z</time>
      </trkpt>
      <trkpt lat="45.70684" lon="6.92089">
        <ele>1817</ele>
        <time>2018-05-15T13:29:45Z</time>
      </trkpt>
      <trkpt lat="45.70681" lon="6.92087">
        <ele>1818</ele>
        <time>2018-05-15T13:30:45Z</time>
      </trkpt>
      <trkpt lat="45.70677" lon="6.92082">
        <ele>1820</ele>
        <time>2018-05-15T13:31:45Z</time>
      </trkpt>
      <trkpt lat="45.70675" lon="6.92078">
        <ele>1820</ele>
        <time>2018-05-15T13:32:45Z</time>
      </trkpt>
      <trkpt lat="45.70673" lon="6.92073">
        <ele>1820</ele>
        <time>2018-05-15T13:33:45Z</time>
      </trkpt>
      <trkpt lat="45.70673" lon="6.92064">
        <ele>1820</ele>
        <time>2018-05-15T13:34:45Z</time>
      </trkpt>
      <trkpt lat="45.70674" lon="6.92059">
        <ele>1820</ele>
        <time>2018-05-15T13:35:45Z</time>
      </trkpt>
      <trkpt lat="45.70678" lon="6.92053">
        <ele>1820</ele>
        <time>2018-05-15T13:36:45Z</time>
      </trkpt>
      <trkpt lat="45.70681" lon="6.9205">
        <ele>1820</ele>
        <time>2018-05-15T13:37:45Z</time>
      </trkpt>
      <trkpt lat="45.70694" lon="6.92046">
        <ele>1819</ele>
        <time>2018-05-15T13:38:45Z</time>
      </trkpt>
      <trkpt lat="45.70708" lon="6.92046">
        <ele>1817</ele>
        <time>2018-05-15T13:39:45Z</time>
      </trkpt>
      <trkpt lat="45.70719" lon="6.92043">
        <ele>1816</ele>
        <time>2018-05-15T13:40:45Z</time>
      </trkpt>
      <trkpt lat="45.70723" lon="6.92041">
        <ele>1815</ele>
        <time>2018-05-15T13:41:45Z</time>
      </trkpt>
      <trkpt lat="45.70727" lon="6.92036">
        <ele>1815</ele>
        <time>2018-05-15T13:42:45Z</time>
      </trkpt>
      <trkpt lat="45.70731" lon="6.9203">
        <ele>1815</ele>
        <time>2018-05-15T13:43:45Z</time>
      </trkpt>
      <trkpt lat="45.70735" lon="6.92021">
        <ele>1815</ele>
        <time>2018-05-15T13:44:45Z</time>
      </trkpt>
      <trkpt lat="45.70736" lon="6.92013">
        <ele>1814</ele>
        <time>2018-05-15T13:45:45Z</time>
      </trkpt>
      <trkpt lat="45.70736" lon="6.91955">
        <ele>1826</ele>
        <time>2018-05-15T13:46:45Z</time>
      </trkpt>
      <trkpt lat="45.7074" lon="6.91894">
        <ele>1833</ele>
        <time>2018-05-15T13:47:45Z</time>
      </trkpt>
      <trkpt lat="45.70739" lon="6.91835">
        <ele>1833</ele>
        <time>2018-05-15T13:48:45Z</time>
      </trkpt>
      <trkpt lat="45.70739" lon="6.9183">
        <ele>1835</ele>
        <time>2018-05-15T13:49:45Z</time>
      </trkpt>
      <trkpt lat="45.7074" lon="6.91826">
        <ele>1836</ele>
        <time>2018-05-15T13:50:45Z</time>
      </trkpt>
      <trkpt lat="45.70741" lon="6.91823">
        <ele>1836</ele>
        <time>2018-05-15T13:51:45Z</time>
      </trkpt>
      <trkpt lat="45.70743" lon="6.91821">
        <ele>1836</ele>
        <time>2018-05-15T13:52:45Z</time>
      </trkpt>
      <trkpt lat="45.70746" lon="6.9182">
        <ele>1836</ele>
        <time>2018-05-15T13:53:45Z</time>
      </trkpt>
      <trkpt lat="45.70749" lon="6.9182">
        <ele>1836</ele>
        <time>2018-05-15T13:54:45Z</time>
      </trkpt>
      <trkpt lat="45.70756" lon="6.9182">
        <ele>1830</ele>
        <time>2018-05-15T13:55:45Z</time>
      </trkpt>
      <trkpt lat="45.70779" lon="6.91826">
        <ele>1830</ele>
        <time>2018-05-15T13:56:45Z</time>
      </trkpt>
      <trkpt lat="45.70784" lon="6.91825">
        <ele>1830</ele>
        <time>2018-05-15T13:57:45Z</time>
      </trkpt>
      <trkpt lat="45.70787" lon="6.91824">
        <ele>1830</ele>
        <time>2018-05-15T13:58:45Z</time>
      </trkpt>
      <trkpt lat="45.70791" lon="6.91822">
        <ele>1830</ele>
        <time>2018-05-15T13:59:45Z</time>
      </trkpt>
      <trkpt lat="45.70808" lon="6.91803">
        <ele>1830</ele>
        <time>2018-05-15T14:00:45Z</time>
      </trkpt>
      <trkpt lat="45.70814" lon="6.91798">
        <ele>1830</ele>
        <time>2018-05-15T14:01:45Z</time>
      </trkpt>
      <trkpt lat="45.70818" lon="6.91796">
        <ele>1830</ele>
        <time>2018-05-15T14:02:45Z</time>
      </trkpt>
      <trkpt lat="45.70822" lon="6.91795">
        <ele>1830</ele>
        <time>2018-05-15T14:03:45Z</time>
      </trkpt>
      <trkpt lat="45.7083" lon="6.91795">
        <ele>1830</ele>
        <time>2018-05-15T14:04:45Z</time>
      </trkpt>
      <trkpt lat="45.70837" lon="6.91796">
        <ele>1827</ele>
        <time>2018-05-15T14:05:45Z</time>
      </trkpt>
      <trkpt lat="45.70854" lon="6.91799">
        <ele>1827</ele>
        <time>2018-05-15T14:06:45Z</time>
      </trkpt>
      <trkpt lat="45.70857" lon="6.91798">
        <ele>1827</ele>
        <time>2018-05-15T14:07:45Z</time>
      </trkpt>
      <trkpt lat="45.7086" lon="6.91798">
        <ele>1827</ele>
        <time>2018-05-15T14:08:45Z</time>
      </trkpt>
      <trkpt lat="45.70866" lon="6.91795">
        <ele>1827</ele>
        <time>2018-05-15T14:09:45Z</time>
      </trkpt>
      <trkpt lat="45.70874" lon="6.91789">
        <ele>1827</ele>
        <time>2018-05-15T14:10:45Z</time>
      </trkpt>
      <trkpt lat="45.70903" lon="6.91756">
        <ele>1829</ele>
        <time>2018-05-15T14:11:45Z</time>
      </trkpt>
      <trkpt lat="45.7091" lon="6.91747">
        <ele>1832</ele>
        <time>2018-05-15T14:12:45Z</time>
      </trkpt>
      <trkpt lat="45.70913" lon="6.91739">
        <ele>1833</ele>
        <time>2018-05-15T14:13:45Z</time>
      </trkpt>
      <trkpt lat="45.70917" lon="6.91723">
        <ele>1830</ele>
        <time>2018-05-15T14:14:45Z</time>
      </trkpt>
      <trkpt lat="45.7092" lon="6.91704">
        <ele>1831</ele>
        <time>2018-05-15T14:15:45Z</time>
      </trkpt>
      <trkpt lat="45.70921" lon="6.91688">
        <ele>1832</ele>
        <time>2018-05-15T14:16:45Z</time>
      </trkpt>
      <trkpt lat="45.70915" lon="6.91626">
        <ele>1841</ele>
        <time>2018-05-15T14:17:45Z</time>
      </trkpt>
      <trkpt lat="45.7091" lon="6.91568">
        <ele>1844</ele>
        <time>2018-05-15T14:18:45Z</time>
      </trkpt>
      <trkpt lat="45.7091" lon="6.91557">
        <ele>1846</ele>
        <time>2018-05-15T14:19:45Z</time>
      </trkpt>
      <trkpt lat="45.7091" lon="6.91546">
        <ele>1847</ele>
        <time>2018-05-15T14:20:45Z</time>
      </trkpt>
      <trkpt lat="45.70912" lon="6.91525">
        <ele>1847</ele>
        <time>2018-05-15T14:21:45Z</time>
      </trkpt>
      <trkpt lat="45.7092" lon="6.91456">
        <ele>1843</ele>
        <time>2018-05-15T14:22:45Z</time>
      </trkpt>
      <trkpt lat="45.70923" lon="6.91422">
        <ele>1847</ele>
        <time>2018-05-15T14:23:45Z</time>
      </trkpt>
      <trkpt lat="45.70925" lon="6.91414">
        <ele>1848</ele>
        <time>2018-05-15T14:24:45Z</time>
      </trkpt>
      <trkpt lat="45.70926" lon="6.91407">
        <ele>1848</ele>
        <time>2018-05-15T14:25:45Z</time>
      </trkpt>
      <trkpt lat="45.70929" lon="6.91402">
        <ele>1847</ele>
        <time>2018-05-15T14:26:45Z</time>
      </trkpt>
      <trkpt lat="45.70932" lon="6.91399">
        <ele>1847</ele>
        <time>2018-05-15T14:27:45Z</time>
      </trkpt>
      <trkpt lat="45.70936" lon="6.91397">
        <ele>1847</ele>
        <time>2018-05-15T14:28:45Z</time>
      </trkpt>
      <trkpt lat="45.70952" lon="6.91395">
        <ele>1846</ele>
        <time>2018-05-15T14:29:45Z</time>
      </trkpt>
      <trkpt lat="45.70959" lon="6.91393">
        <ele>1845</ele>
        <time>2018-05-15T14:30:45Z</time>
      </trkpt>
      <trkpt lat="45.7096" lon="6.91393">
        <ele>1845</ele>
        <time>2018-05-15T14:31:45Z</time>
      </trkpt>
      <trkpt lat="45.70963" lon="6.91392">
        <ele>1845</ele>
        <time>2018-05-15T14:32:45Z</time>
      </trkpt>
      <trkpt lat="45.70967" lon="6.91389">
        <ele>1845</ele>
        <time>2018-05-15T14:33:45Z</time>
      </trkpt>
      <trkpt lat="45.70971" lon="6.91382">
        <ele>1845</ele>
        <time>2018-05-15T14:34:45Z</time>
      </trkpt>
      <trkpt lat="45.70974" lon="6.91377">
        <ele>1845</ele>
        <time>2018-05-15T14:35:45Z</time>
      </trkpt>
      <trkpt lat="45.70976" lon="6.91369">
        <ele>1845</ele>
        <time>2018-05-15T14:36:45Z</time>
      </trkpt>
      <trkpt lat="45.70987" lon="6.91322">
        <ele>1848</ele>
        <time>2018-05-15T14:37:45Z</time>
      </trkpt>
      <trkpt lat="45.7099" lon="6.91311">
        <ele>1850</ele>
        <time>2018-05-15T14:38:45Z</time>
      </trkpt>
      <trkpt lat="45.70996" lon="6.91297">
        <ele>1851</ele>
        <time>2018-05-15T14:39:45Z</time>
      </trkpt>
      <trkpt lat="45.71005" lon="6.91277">
        <ele>1841</ele>
        <time>2018-05-15T14:40:45Z</time>
      </trkpt>
      <trkpt lat="45.71007" lon="6.91271">
        <ele>1842</ele>
        <time>2018-05-15T14:41:45Z</time>
      </trkpt>
      <trkpt lat="45.71007" lon="6.91267">
        <ele>1843</ele>
        <time>2018-05-15T14:42:45Z</time>
      </trkpt>
      <trkpt lat="45.71008" lon="6.91262">
        <ele>1845</ele>
        <time>2018-05-15T14:43:45Z</time>
      </trkpt>
      <trkpt lat="45.71007" lon="6.91256">
        <ele>1847</ele>
        <time>2018-05-15T14:44:45Z</time>
      </trkpt>
      <trkpt lat="45.71003" lon="6.91242">
        <ele>1849</ele>
        <time>2018-05-15T14:45:45Z</time>
      </trkpt>
      <trkpt lat="45.70971" lon="6.9117">
        <ele>1859</ele>
        <time>2018-05-15T14:46:45Z</time>
      </trkpt>
      <trkpt lat="45.70962" lon="6.91148">
        <ele>1864</ele>
        <time>2018-05-15T14:47:45Z</time>
      </trkpt>
      <trkpt lat="45.70961" lon="6.91143">
        <ele>1864</ele>
        <time>2018-05-15T14:48:45Z</time>
      </trkpt>
      <trkpt lat="45.70959" lon="6.9113">
        <ele>1865</ele>
        <time>2018-05-15T14:49:45Z</time>
      </trkpt>
      <trkpt lat="45.70959" lon="6.9112">
        <ele>1865</ele>
        <time>2018-05-15T14:50:45Z</time>
      </trkpt>
      <trkpt lat="45.70962" lon="6.91067">
        <ele>1865</ele>
        <time>2018-05-15T14:51:45Z</time>
      </trkpt>
      <trkpt lat="45.70967" lon="6.90979">
        <ele>1862</ele>
        <time>2018-05-15T14:52:45Z</time>
      </trkpt>
      <trkpt lat="45.70969" lon="6.90956">
        <ele>1862</ele>
        <time>2018-05-15T14:53:45Z</time>
      </trkpt>
      <trkpt lat="45.70968" lon="6.90941">
        <ele>1861</ele>
        <time>2018-05-15T14:54:45Z</time>
      </trkpt>
      <trkpt lat="45.70966" lon="6.90932">
        <ele>1861</ele>
        <time>2018-05-15T14:55:45Z</time>
      </trkpt>
      <trkpt lat="45.70963" lon="6.90927">
        <ele>1862</ele>
        <time>2018-05-15T14:56:45Z</time>
      </trkpt>
      <trkpt lat="45.70959" lon="6.90922">
        <ele>1862</ele>
        <time>2018-05-15T14:57:45Z</time>
      </trkpt>
      <trkpt lat="45.70956" lon="6.9092">
        <ele>1862</ele>
        <time>2018-05-15T14:58:45Z</time>
      </trkpt>
      <trkpt lat="45.70953" lon="6.9092">
        <ele>1863</ele>
        <time>2018-05-15T14:59:45Z</time>
      </trkpt>
      <trkpt lat="45.70949" lon="6.9092">
        <ele>1863</ele>
        <time>2018-05-15T15:00:45Z</time>
      </trkpt>
      <trkpt lat="45.70946" lon="6.90921">
        <ele>1864</ele>
        <time>2018-05-15T15:01:45Z</time>
      </trkpt>
      <trkpt lat="45.70944" lon="6.90923">
        <ele>1864</ele>
        <time>2018-05-15T15:02:45Z</time>
      </trkpt>
      <trkpt lat="45.70943" lon="6.90923">
        <ele>1864</ele>
        <time>2018-05-15T15:03:45Z</time>
      </trkpt>
      <trkpt lat="45.7094" lon="6.90927">
        <ele>1864</ele>
        <time>2018-05-15T15:04:45Z</time>
      </trkpt>
      <trkpt lat="45.7094" lon="6.9093">
        <ele>1864</ele>
        <time>2018-05-15T15:05:45Z</time>
      </trkpt>
      <trkpt lat="45.70939" lon="6.90933">
        <ele>1864</ele>
        <time>2018-05-15T15:06:45Z</time>
      </trkpt>
      <trkpt lat="45.70939" lon="6.90943">
        <ele>1864</ele>
        <time>2018-05-15T15:07:45Z</time>
      </trkpt>
      <trkpt lat="45.70941" lon="6.90961">
        <ele>1865</ele>
        <time>2018-05-15T15:08:45Z</time>
      </trkpt>
      <trkpt lat="45.70942" lon="6.90978">
        <ele>1865</ele>
        <time>2018-05-15T15:09:45Z</time>
      </trkpt>
      <trkpt lat="45.70941" lon="6.9099">
        <ele>1867</ele>
        <time>2018-05-15T15:10:45Z</time>
      </trkpt>
      <trkpt lat="45.70939" lon="6.91002">
        <ele>1869</ele>
        <time>2018-05-15T15:11:45Z</time>
      </trkpt>
      <trkpt lat="45.70936" lon="6.91037">
        <ele>1868</ele>
        <time>2018-05-15T15:12:45Z</time>
      </trkpt>
      <trkpt lat="45.70932" lon="6.91099">
        <ele>1871</ele>
        <time>2018-05-15T15:13:45Z</time>
      </trkpt>
      <trkpt lat="45.7093" lon="6.91134">
        <ele>1869</ele>
        <time>2018-05-15T15:14:45Z</time>
      </trkpt>
      <trkpt lat="45.70929" lon="6.91141">
        <ele>1869</ele>
        <time>2018-05-15T15:15:45Z</time>
      </trkpt>
      <trkpt lat="45.70927" lon="6.91148">
        <ele>1870</ele>
        <time>2018-05-15T15:16:45Z</time>
      </trkpt>
      <trkpt lat="45.70924" lon="6.91155">
        <ele>1871</ele>
        <time>2018-05-15T15:17:45Z</time>
      </trkpt>
      <trkpt lat="45.70919" lon="6.91163">
        <ele>1874</ele>
        <time>2018-05-15T15:18:45Z</time>
      </trkpt>
      <trkpt lat="45.7089" lon="6.91195">
        <ele>1883</ele>
        <time>2018-05-15T15:19:45Z</time>
      </trkpt>
      <trkpt lat="45.70875" lon="6.91213">
        <ele>1884</ele>
        <time>2018-05-15T15:20:45Z</time>
      </trkpt>
      <trkpt lat="45.70857" lon="6.91235">
        <ele>1885</ele>
        <time>2018-05-15T15:21:45Z</time>
      </trkpt>
      <trkpt lat="45.70854" lon="6.91238">
        <ele>1885</ele>
        <time>2018-05-15T15:22:45Z</time>
      </trkpt>
      <trkpt lat="45.70851" lon="6.91246">
        <ele>1885</ele>
        <time>2018-05-15T15:23:45Z</time>
      </trkpt>
      <trkpt lat="45.70846" lon="6.91262">
        <ele>1879</ele>
        <time>2018-05-15T15:24:45Z</time>
      </trkpt>
      <trkpt lat="45.70843" lon="6.91271">
        <ele>1877</ele>
        <time>2018-05-15T15:25:45Z</time>
      </trkpt>
      <trkpt lat="45.70837" lon="6.91285">
        <ele>1875</ele>
        <time>2018-05-15T15:26:45Z</time>
      </trkpt>
      <trkpt lat="45.7083" lon="6.91303">
        <ele>1889</ele>
        <time>2018-05-15T15:27:45Z</time>
      </trkpt>
      <trkpt lat="45.70821" lon="6.91316">
        <ele>1887</ele>
        <time>2018-05-15T15:28:45Z</time>
      </trkpt>
      <trkpt lat="45.70809" lon="6.91331">
        <ele>1888</ele>
        <time>2018-05-15T15:29:45Z</time>
      </trkpt>
      <trkpt lat="45.708" lon="6.91339">
        <ele>1883</ele>
        <time>2018-05-15T15:30:45Z</time>
      </trkpt>
      <trkpt lat="45.70785" lon="6.91346">
        <ele>1886</ele>
        <time>2018-05-15T15:31:45Z</time>
      </trkpt>
      <trkpt lat="45.70768" lon="6.91354">
        <ele>1889</ele>
        <time>2018-05-15T15:32:45Z</time>
      </trkpt>
      <trkpt lat="45.70758" lon="6.91363">
        <ele>1889</ele>
        <time>2018-05-15T15:33:45Z</time>
      </trkpt>
      <trkpt lat="45.70739" lon="6.9139">
        <ele>1901</ele>
        <time>2018-05-15T15:34:45Z</time>
      </trkpt>
      <trkpt lat="45.70729" lon="6.91408">
        <ele>1900</ele>
        <time>2018-05-15T15:35:45Z</time>
      </trkpt>
      <trkpt lat="45.70726" lon="6.91415">
        <ele>1900</ele>
        <time>2018-05-15T15:36:45Z</time>
      </trkpt>
      <trkpt lat="45.70722" lon="6.91441">
        <ele>1895</ele>
        <time>2018-05-15T15:37:45Z</time>
      </trkpt>
      <trkpt lat="45.70718" lon="6.91472">
        <ele>1894</ele>
        <time>2018-05-15T15:38:45Z</time>
      </trkpt>
      <trkpt lat="45.70716" lon="6.91481">
        <ele>1894</ele>
        <time>2018-05-15T15:39:45Z</time>
      </trkpt>
      <trkpt lat="45.70713" lon="6.91488">
        <ele>1894</ele>
        <time>2018-05-15T15:40:45Z</time>
      </trkpt>
      <trkpt lat="45.70708" lon="6.91494">
        <ele>1895</ele>
        <time>2018-05-15T15:41:45Z</time>
      </trkpt>
      <trkpt lat="45.70704" lon="6.91496">
        <ele>1895</ele>
        <time>2018-05-15T15:42:45Z</time>
      </trkpt>
      <trkpt lat="45.70699" lon="6.91497">
        <ele>1896</ele>
        <time>2018-05-15T15:43:45Z</time>
      </trkpt>
      <trkpt lat="45.70695" lon="6.91496">
        <ele>1896</ele>
        <time>2018-05-15T15:44:45Z</time>
      </trkpt>
      <trkpt lat="45.70694" lon="6.91496">
        <ele>1897</ele>
        <time>2018-05-15T15:45:45Z</time>
      </trkpt>
      <trkpt lat="45.70689" lon="6.91492">
        <ele>1897</ele>
        <time>2018-05-15T15:46:45Z</time>
      </trkpt>
      <trkpt lat="45.70687" lon="6.91489">
        <ele>1897</ele>
        <time>2018-05-15T15:47:45Z</time>
      </trkpt>
      <trkpt lat="45.70685" lon="6.9148">
        <ele>1898</ele>
        <time>2018-05-15T15:48:45Z</time>
      </trkpt>
      <trkpt lat="45.70685" lon="6.91471">
        <ele>1898</ele>
        <time>2018-05-15T15:49:45Z</time>
      </trkpt>
      <trkpt lat="45.70686" lon="6.91463">
        <ele>1898</ele>
        <time>2018-05-15T15:50:45Z</time>
      </trkpt>
      <trkpt lat="45.70689" lon="6.91457">
        <ele>1899</ele>
        <time>2018-05-15T15:51:45Z</time>
      </trkpt>
      <trkpt lat="45.70695" lon="6.91452">
        <ele>1898</ele>
        <time>2018-05-15T15:52:45Z</time>
      </trkpt>
      <trkpt lat="45.70702" lon="6.91446">
        <ele>1898</ele>
        <time>2018-05-15T15:53:45Z</time>
      </trkpt>
      <trkpt lat="45.70706" lon="6.91441">
        <ele>1898</ele>
        <time>2018-05-15T15:54:45Z</time>
      </trkpt>
      <trkpt lat="45.70707" lon="6.91439">
        <ele>1898</ele>
        <time>2018-05-15T15:55:45Z</time>
      </trkpt>
      <trkpt lat="45.70708" lon="6.91436">
        <ele>1897</ele>
        <time>2018-05-15T15:56:45Z</time>
      </trkpt>
      <trkpt lat="45.70709" lon="6.91432">
        <ele>1897</ele>
        <time>2018-05-15T15:57:45Z</time>
      </trkpt>
      <trkpt lat="45.70709" lon="6.91389">
        <ele>1906</ele>
        <time>2018-05-15T15:58:45Z</time>
      </trkpt>
      <trkpt lat="45.70708" lon="6.91366">
        <ele>1908</ele>
        <time>2018-05-15T15:59:45Z</time>
      </trkpt>
      <trkpt lat="45.70709" lon="6.91356">
        <ele>1908</ele>
        <time>2018-05-15T16:00:45Z</time>
      </trkpt>
      <trkpt lat="45.70711" lon="6.91348">
        <ele>1908</ele>
        <time>2018-05-15T16:01:45Z</time>
      </trkpt>
      <trkpt lat="45.70713" lon="6.91339">
        <ele>1908</ele>
        <time>2018-05-15T16:02:45Z</time>
      </trkpt>
      <trkpt lat="45.70716" lon="6.91332">
        <ele>1919</ele>
        <time>2018-05-15T16:03:45Z</time>
      </trkpt>
      <trkpt lat="45.70739" lon="6.91294">
        <ele>1921</ele>
        <time>2018-05-15T16:04:45Z</time>
      </trkpt>
      <trkpt lat="45.70746" lon="6.91286">
        <ele>1922</ele>
        <time>2018-05-15T16:05:45Z</time>
      </trkpt>
      <trkpt lat="45.7075" lon="6.91282">
        <ele>1906</ele>
        <time>2018-05-15T16:06:45Z</time>
      </trkpt>
      <trkpt lat="45.7076" lon="6.91271">
        <ele>1909</ele>
        <time>2018-05-15T16:07:45Z</time>
      </trkpt>
      <trkpt lat="45.70765" lon="6.91261">
        <ele>1911</ele>
        <time>2018-05-15T16:08:45Z</time>
      </trkpt>
      <trkpt lat="45.70806" lon="6.9116">
        <ele>1931</ele>
        <time>2018-05-15T16:09:45Z</time>
      </trkpt>
      <trkpt lat="45.70831" lon="6.9108">
        <ele>1931</ele>
        <time>2018-05-15T16:10:45Z</time>
      </trkpt>
      <trkpt lat="45.70834" lon="6.91068">
        <ele>1917</ele>
        <time>2018-05-15T16:11:45Z</time>
      </trkpt>
      <trkpt lat="45.70835" lon="6.91062">
        <ele>1916</ele>
        <time>2018-05-15T16:12:45Z</time>
      </trkpt>
      <trkpt lat="45.70835" lon="6.91058">
        <ele>1915</ele>
        <time>2018-05-15T16:13:45Z</time>
      </trkpt>
      <trkpt lat="45.70834" lon="6.91054">
        <ele>1915</ele>
        <time>2018-05-15T16:14:45Z</time>
      </trkpt>
      <trkpt lat="45.70834" lon="6.91052">
        <ele>1915</ele>
        <time>2018-05-15T16:15:45Z</time>
      </trkpt>
      <trkpt lat="45.70833" lon="6.9105">
        <ele>1949</ele>
        <time>2018-05-15T16:16:45Z</time>
      </trkpt>
      <trkpt lat="45.70832" lon="6.9105">
        <ele>1949</ele>
        <time>2018-05-15T16:17:45Z</time>
      </trkpt>
      <trkpt lat="45.70831" lon="6.91049">
        <ele>1950</ele>
        <time>2018-05-15T16:18:45Z</time>
      </trkpt>
      <trkpt lat="45.7083" lon="6.9105">
        <ele>1949</ele>
        <time>2018-05-15T16:19:45Z</time>
      </trkpt>
      <trkpt lat="45.70829" lon="6.9105">
        <ele>1950</ele>
        <time>2018-05-15T16:20:45Z</time>
      </trkpt>
      <trkpt lat="45.70828" lon="6.9105">
        <ele>1950</ele>
        <time>2018-05-15T16:21:45Z</time>
      </trkpt>
      <trkpt lat="45.70827" lon="6.91051">
        <ele>1950</ele>
        <time>2018-05-15T16:22:45Z</time>
      </trkpt>
      <trkpt lat="45.70826" lon="6.91052">
        <ele>1950</ele>
        <time>2018-05-15T16:23:45Z</time>
      </trkpt>
      <trkpt lat="45.70821" lon="6.91066">
        <ele>1946</ele>
        <time>2018-05-15T16:24:45Z</time>
      </trkpt>
      <trkpt lat="45.70797" lon="6.91135">
        <ele>1937</ele>
        <time>2018-05-15T16:25:45Z</time>
      </trkpt>
      <trkpt lat="45.70792" lon="6.91146">
        <ele>1938</ele>
        <time>2018-05-15T16:26:45Z</time>
      </trkpt>
      <trkpt lat="45.70784" lon="6.91159">
        <ele>1939</ele>
        <time>2018-05-15T16:27:45Z</time>
      </trkpt>
      <trkpt lat="45.70764" lon="6.91196">
        <ele>1927</ele>
        <time>2018-05-15T16:28:45Z</time>
      </trkpt>
      <trkpt lat="45.70757" lon="6.91207">
        <ele>1926</ele>
        <time>2018-05-15T16:29:45Z</time>
      </trkpt>
      <trkpt lat="45.70755" lon="6.91209">
        <ele>1925</ele>
        <time>2018-05-15T16:30:45Z</time>
      </trkpt>
      <trkpt lat="45.70753" lon="6.91211">
        <ele>1925</ele>
        <time>2018-05-15T16:31:45Z</time>
      </trkpt>
      <trkpt lat="45.70749" lon="6.91214">
        <ele>1945</ele>
        <time>2018-05-15T16:32:45Z</time>
      </trkpt>
      <trkpt lat="45.70742" lon="6.91216">
        <ele>1945</ele>
        <time>2018-05-15T16:33:45Z</time>
      </trkpt>
      <trkpt lat="45.70723" lon="6.91222">
        <ele>1947</ele>
        <time>2018-05-15T16:34:45Z</time>
      </trkpt>
      <trkpt lat="45.70709" lon="6.91227">
        <ele>1948</ele>
        <time>2018-05-15T16:35:45Z</time>
      </trkpt>
      <trkpt lat="45.70706" lon="6.91229">
        <ele>1949</ele>
        <time>2018-05-15T16:36:45Z</time>
      </trkpt>
      <trkpt lat="45.70699" lon="6.91234">
        <ele>1949</ele>
        <time>2018-05-15T16:37:45Z</time>
      </trkpt>
      <trkpt lat="45.70696" lon="6.91237">
        <ele>1949</ele>
        <time>2018-05-15T16:38:45Z</time>
      </trkpt>
      <trkpt lat="45.70688" lon="6.91249">
        <ele>1949</ele>
        <time>2018-05-15T16:39:45Z</time>
      </trkpt>
      <trkpt lat="45.70681" lon="6.91261">
        <ele>1936</ele>
        <time>2018-05-15T16:40:45Z</time>
      </trkpt>
      <trkpt lat="45.70678" lon="6.91264">
        <ele>1936</ele>
        <time>2018-05-15T16:41:45Z</time>
      </trkpt>
      <trkpt lat="45.70677" lon="6.91266">
        <ele>1936</ele>
        <time>2018-05-15T16:42:45Z</time>
      </trkpt>
      <trkpt lat="45.70675" lon="6.91267">
        <ele>1936</ele>
        <time>2018-05-15T16:43:45Z</time>
      </trkpt>
      <trkpt lat="45.70673" lon="6.91268">
        <ele>1936</ele>
        <time>2018-05-15T16:44:45Z</time>
      </trkpt>
      <trkpt lat="45.7067" lon="6.91268">
        <ele>1936</ele>
        <time>2018-05-15T16:45:45Z</time>
      </trkpt>
      <trkpt lat="45.70667" lon="6.91269">
        <ele>1936</ele>
        <time>2018-05-15T16:46:45Z</time>
      </trkpt>
      <trkpt lat="45.70654" lon="6.91269">
        <ele>1942</ele>
        <time>2018-05-15T16:47:45Z</time>
      </trkpt>
      <trkpt lat="45.70652" lon="6.9127">
        <ele>1941</ele>
        <time>2018-05-15T16:48:45Z</time>
      </trkpt>
      <trkpt lat="45.70649" lon="6.91271">
        <ele>1941</ele>
        <time>2018-05-15T16:49:45Z</time>
      </trkpt>
      <trkpt lat="45.70644" lon="6.91275">
        <ele>1940</ele>
        <time>2018-05-15T16:50:45Z</time>
      </trkpt>
      <trkpt lat="45.70641" lon="6.91278">
        <ele>1940</ele>
        <time>2018-05-15T16:51:45Z</time>
      </trkpt>
      <trkpt lat="45.70635" lon="6.91284">
        <ele>1939</ele>
        <time>2018-05-15T16:52:45Z</time>
      </trkpt>
      <trkpt lat="45.70631" lon="6.91287">
        <ele>1938</ele>
        <time>2018-05-15T16:53:45Z</time>
      </trkpt>
      <trkpt lat="45.70628" lon="6.91288">
        <ele>1938</ele>
        <time>2018-05-15T16:54:45Z</time>
      </trkpt>
      <trkpt lat="45.70624" lon="6.91288">
        <ele>1938</ele>
        <time>2018-05-15T16:55:45Z</time>
      </trkpt>
      <trkpt lat="45.70622" lon="6.91288">
        <ele>1938</ele>
        <time>2018-05-15T16:56:45Z</time>
      </trkpt>
      <trkpt lat="45.70619" lon="6.91288">
        <ele>1938</ele>
        <time>2018-05-15T16:57:45Z</time>
      </trkpt>
      <trkpt lat="45.70614" lon="6.91285">
        <ele>1939</ele>
        <time>2018-05-15T16:58:45Z</time>
      </trkpt>
      <trkpt lat="45.70605" lon="6.91277">
        <ele>1941</ele>
        <time>2018-05-15T16:59:45Z</time>
      </trkpt>
      <trkpt lat="45.70579" lon="6.91251">
        <ele>1951</ele>
        <time>2018-05-15T17:00:45Z</time>
      </trkpt>
      <trkpt lat="45.7057" lon="6.9124">
        <ele>1956</ele>
        <time>2018-05-15T17:01:45Z</time>
      </trkpt>
      <trkpt lat="45.70565" lon="6.9123">
        <ele>1957</ele>
        <time>2018-05-15T17:02:45Z</time>
      </trkpt>
      <trkpt lat="45.7054" lon="6.91178">
        <ele>1961</ele>
        <time>2018-05-15T17:03:45Z</time>
      </trkpt>
      <trkpt lat="45.70531" lon="6.91166">
        <ele>1974</ele>
        <time>2018-05-15T17:04:45Z</time>
      </trkpt>
      <trkpt lat="45.70523" lon="6.91159">
        <ele>1973</ele>
        <time>2018-05-15T17:05:45Z</time>
      </trkpt>
      <trkpt lat="45.70511" lon="6.91153">
        <ele>1970</ele>
        <time>2018-05-15T17:06:45Z</time>
      </trkpt>
      <trkpt lat="45.70504" lon="6.91152">
        <ele>1969</ele>
        <time>2018-05-15T17:07:45Z</time>
      </trkpt>
      <trkpt lat="45.705" lon="6.91152">
        <ele>1963</ele>
        <time>2018-05-15T17:08:45Z</time>
      </trkpt>
      <trkpt lat="45.70498" lon="6.91153">
        <ele>1963</ele>
        <time>2018-05-15T17:09:45Z</time>
      </trkpt>
      <trkpt lat="45.70494" lon="6.91155">
        <ele>1963</ele>
        <time>2018-05-15T17:10:45Z</time>
      </trkpt>
      <trkpt lat="45.70482" lon="6.91173">
        <ele>1954</ele>
        <time>2018-05-15T17:11:45Z</time>
      </trkpt>
      <trkpt lat="45.70478" lon="6.91176">
        <ele>1954</ele>
        <time>2018-05-15T17:12:45Z</time>
      </trkpt>
      <trkpt lat="45.70474" lon="6.91177">
        <ele>1953</ele>
        <time>2018-05-15T17:13:45Z</time>
      </trkpt>
      <trkpt lat="45.70469" lon="6.91176">
        <ele>1953</ele>
        <time>2018-05-15T17:14:45Z</time>
      </trkpt>
      <trkpt lat="45.70465" lon="6.91173">
        <ele>1953</ele>
        <time>2018-05-15T17:15:45Z</time>
      </trkpt>
      <trkpt lat="45.70461" lon="6.91169">
        <ele>1953</ele>
        <time>2018-05-15T17:16:45Z</time>
      </trkpt>
      <trkpt lat="45.7043" lon="6.91111">
        <ele>1967</ele>
        <time>2018-05-15T17:17:45Z</time>
      </trkpt>
      <trkpt lat="45.70418" lon="6.91081">
        <ele>1972</ele>
        <time>2018-05-15T17:18:45Z</time>
      </trkpt>
      <trkpt lat="45.70415" lon="6.91074">
        <ele>1970</ele>
        <time>2018-05-15T17:19:45Z</time>
      </trkpt>
      <trkpt lat="45.70393" lon="6.91012">
        <ele>1977</ele>
        <time>2018-05-15T17:20:45Z</time>
      </trkpt>
      <trkpt lat="45.70381" lon="6.90986">
        <ele>1988</ele>
        <time>2018-05-15T17:21:45Z</time>
      </trkpt>
      <trkpt lat="45.7034" lon="6.90903">
        <ele>1997</ele>
        <time>2018-05-15T17:22:45Z</time>
      </trkpt>
      <trkpt lat="45.70294" lon="6.90798">
        <ele>1998</ele>
        <time>2018-05-15T17:23:45Z</time>
      </trkpt>
      <trkpt lat="45.70281" lon="6.90769">
        <ele>1998</ele>
        <time>2018-05-15T17:24:45Z</time>
      </trkpt>
      <trkpt lat="45.7025" lon="6.90724">
        <ele>2007</ele>
        <time>2018-05-15T17:25:45Z</time>
      </trkpt>
      <trkpt lat="45.70213" lon="6.90675">
        <ele>1999</ele>
        <time>2018-05-15T17:26:45Z</time>
      </trkpt>
      <trkpt lat="45.70206" lon="6.90665">
        <ele>2006</ele>
        <time>2018-05-15T17:27:45Z</time>
      </trkpt>
      <trkpt lat="45.70203" lon="6.90659">
        <ele>2005</ele>
        <time>2018-05-15T17:28:45Z</time>
      </trkpt>
      <trkpt lat="45.70196" lon="6.9064">
        <ele>2006</ele>
        <time>2018-05-15T17:29:45Z</time>
      </trkpt>
      <trkpt lat="45.70193" lon="6.90634">
        <ele>2006</ele>
        <time>2018-05-15T17:30:45Z</time>
      </trkpt>
      <trkpt lat="45.7019" lon="6.90631">
        <ele>2006</ele>
        <time>2018-05-15T17:31:45Z</time>
      </trkpt>
      <trkpt lat="45.70187" lon="6.9063">
        <ele>2005</ele>
        <time>2018-05-15T17:32:45Z</time>
      </trkpt>
      <trkpt lat="45.70184" lon="6.9063">
        <ele>2005</ele>
        <time>2018-05-15T17:33:45Z</time>
      </trkpt>
      <trkpt lat="45.7018" lon="6.90631">
        <ele>2005</ele>
        <time>2018-05-15T17:34:45Z</time>
      </trkpt>
      <trkpt lat="45.70164" lon="6.90646">
        <ele>2003</ele>
        <time>2018-05-15T17:35:45Z</time>
      </trkpt>
      <trkpt lat="45.7016" lon="6.9065">
        <ele>2002</ele>
        <time>2018-05-15T17:36:45Z</time>
      </trkpt>
      <trkpt lat="45.70156" lon="6.90652">
        <ele>2002</ele>
        <time>2018-05-15T17:37:45Z</time>
      </trkpt>
      <trkpt lat="45.70154" lon="6.90653">
        <ele>2003</ele>
        <time>2018-05-15T17:38:45Z</time>
      </trkpt>
      <trkpt lat="45.70149" lon="6.90653">
        <ele>2003</ele>
        <time>2018-05-15T17:39:45Z</time>
      </trkpt>
      <trkpt lat="45.7011" lon="6.90641">
        <ele>2008</ele>
        <time>2018-05-15T17:40:45Z</time>
      </trkpt>
      <trkpt lat="45.70106" lon="6.90641">
        <ele>2008</ele>
        <time>2018-05-15T17:41:45Z</time>
      </trkpt>
      <trkpt lat="45.70103" lon="6.90642">
        <ele>2008</ele>
        <time>2018-05-15T17:42:45Z</time>
      </trkpt>
      <trkpt lat="45.70101" lon="6.90643">
        <ele>2008</ele>
        <time>2018-05-15T17:43:45Z</time>
      </trkpt>
      <trkpt lat="45.70098" lon="6.90646">
        <ele>2008</ele>
        <time>2018-05-15T17:44:45Z</time>
      </trkpt>
      <trkpt lat="45.70095" lon="6.90652">
        <ele>2008</ele>
        <time>2018-05-15T17:45:45Z</time>
      </trkpt>
      <trkpt lat="45.70079" lon="6.90696">
        <ele>2002</ele>
        <time>2018-05-15T17:46:45Z</time>
      </trkpt>
      <trkpt lat="45.70077" lon="6.907">
        <ele>2001</ele>
        <time>2018-05-15T17:47:45Z</time>
      </trkpt>
      <trkpt lat="45.70075" lon="6.90703">
        <ele>2001</ele>
        <time>2018-05-15T17:48:45Z</time>
      </trkpt>
      <trkpt lat="45.70073" lon="6.90706">
        <ele>2000</ele>
        <time>2018-05-15T17:49:45Z</time>
      </trkpt>
      <trkpt lat="45.70071" lon="6.90707">
        <ele>2000</ele>
        <time>2018-05-15T17:50:45Z</time>
      </trkpt>
      <trkpt lat="45.70068" lon="6.90707">
        <ele>2000</ele>
        <time>2018-05-15T17:51:45Z</time>
      </trkpt>
      <trkpt lat="45.70064" lon="6.90706">
        <ele>2000</ele>
        <time>2018-05-15T17:52:45Z</time>
      </trkpt>
      <trkpt lat="45.70062" lon="6.90705">
        <ele>2001</ele>
        <time>2018-05-15T17:53:45Z</time>
      </trkpt>
      <trkpt lat="45.70053" lon="6.90696">
        <ele>2001</ele>
        <time>2018-05-15T17:54:45Z</time>
      </trkpt>
      <trkpt lat="45.70027" lon="6.9066">
        <ele>2013</ele>
        <time>2018-05-15T17:55:45Z</time>
      </trkpt>
      <trkpt lat="45.70011" lon="6.90639">
        <ele>2015</ele>
        <time>2018-05-15T17:56:45Z</time>
      </trkpt>
      <trkpt lat="45.69981" lon="6.90584">
        <ele>2018</ele>
        <time>2018-05-15T17:57:45Z</time>
      </trkpt>
      <trkpt lat="45.69973" lon="6.90567">
        <ele>2024</ele>
        <time>2018-05-15T17:58:45Z</time>
      </trkpt>
      <trkpt lat="45.69956" lon="6.90518">
        <ele>2025</ele>
        <time>2018-05-15T17:59:45Z</time>
      </trkpt>
      <trkpt lat="45.69936" lon="6.90455">
        <ele>2031</ele>
        <time>2018-05-15T18:00:45Z</time>
      </trkpt>
      <trkpt lat="45.69934" lon="6.90448">
        <ele>2031</ele>
        <time>2018-05-15T18:01:45Z</time>
      </trkpt>
      <trkpt lat="45.69932" lon="6.90443">
        <ele>2030</ele>
        <time>2018-05-15T18:02:45Z</time>
      </trkpt>
      <trkpt lat="45.69926" lon="6.90435">
        <ele>2030</ele>
        <time>2018-05-15T18:03:45Z</time>
      </trkpt>
      <trkpt lat="45.6991" lon="6.90413">
        <ele>2027</ele>
        <time>2018-05-15T18:04:45Z</time>
      </trkpt>
      <trkpt lat="45.69903" lon="6.90399">
        <ele>2028</ele>
        <time>2018-05-15T18:05:45Z</time>
      </trkpt>
      <trkpt lat="45.69882" lon="6.90353">
        <ele>2031</ele>
        <time>2018-05-15T18:06:45Z</time>
      </trkpt>
      <trkpt lat="45.69878" lon="6.90346">
        <ele>2031</ele>
        <time>2018-05-15T18:07:45Z</time>
      </trkpt>
      <trkpt lat="45.69872" lon="6.90339">
        <ele>2031</ele>
        <time>2018-05-15T18:08:45Z</time>
      </trkpt>
      <trkpt lat="45.69852" lon="6.90319">
        <ele>2034</ele>
        <time>2018-05-15T18:09:45Z</time>
      </trkpt>
      <trkpt lat="45.69846" lon="6.90309">
        <ele>2034</ele>
        <time>2018-05-15T18:10:45Z</time>
      </trkpt>
      <trkpt lat="45.69842" lon="6.90302">
        <ele>2035</ele>
        <time>2018-05-15T18:11:45Z</time>
      </trkpt>
      <trkpt lat="45.69836" lon="6.90288">
        <ele>2036</ele>
        <time>2018-05-15T18:12:45Z</time>
      </trkpt>
      <trkpt lat="45.69829" lon="6.90265">
        <ele>2040</ele>
        <time>2018-05-15T18:13:45Z</time>
      </trkpt>
      <trkpt lat="45.69823" lon="6.90238">
        <ele>2043</ele>
        <time>2018-05-15T18:14:45Z</time>
      </trkpt>
      <trkpt lat="45.69822" lon="6.90234">
        <ele>2043</ele>
        <time>2018-05-15T18:15:45Z</time>
      </trkpt>
      <trkpt lat="45.69822" lon="6.90231">
        <ele>2043</ele>
        <time>2018-05-15T18:16:45Z</time>
      </trkpt>
      <trkpt lat="45.6982" lon="6.90229">
        <ele>2043</ele>
        <time>2018-05-15T18:17:45Z</time>
      </trkpt>
      <trkpt lat="45.69819" lon="6.90227">
        <ele>2043</ele>
        <time>2018-05-15T18:18:45Z</time>
      </trkpt>
      <trkpt lat="45.69818" lon="6.90225">
        <ele>2043</ele>
        <time>2018-05-15T18:19:45Z</time>
      </trkpt>
      <trkpt lat="45.69817" lon="6.90223">
        <ele>2043</ele>
        <time>2018-05-15T18:20:45Z</time>
      </trkpt>
      <trkpt lat="45.6981" lon="6.90215">
        <ele>2043</ele>
        <time>2018-05-15T18:21:45Z</time>
      </trkpt>
      <trkpt lat="45.69767" lon="6.90171">
        <ele>2047</ele>
        <time>2018-05-15T18:22:45Z</time>
      </trkpt>
      <trkpt lat="45.69748" lon="6.9015">
        <ele>2047</ele>
        <time>2018-05-15T18:23:45Z</time>
      </trkpt>
      <trkpt lat="45.69725" lon="6.90114">
        <ele>2043</ele>
        <time>2018-05-15T18:24:45Z</time>
      </trkpt>
      <trkpt lat="45.69676" lon="6.90029">
        <ele>2037</ele>
        <time>2018-05-15T18:25:45Z</time>
      </trkpt>
      <trkpt lat="45.69635" lon="6.8996">
        <ele>2046</ele>
        <time>2018-05-15T18:26:45Z</time>
      </trkpt>
      <trkpt lat="45.69629" lon="6.89952">
        <ele>2047</ele>
        <time>2018-05-15T18:27:45Z</time>
      </trkpt>
      <trkpt lat="45.69622" lon="6.89943">
        <ele>2048</ele>
        <time>2018-05-15T18:28:45Z</time>
      </trkpt>
      <trkpt lat="45.69609" lon="6.8993">
        <ele>2050</ele>
        <time>2018-05-15T18:29:45Z</time>
      </trkpt>
      <trkpt lat="45.69592" lon="6.89912">
        <ele>2054</ele>
        <time>2018-05-15T18:30:45Z</time>
      </trkpt>
      <trkpt lat="45.69586" lon="6.89908">
        <ele>2054</ele>
        <time>2018-05-15T18:31:45Z</time>
      </trkpt>
      <trkpt lat="45.69579" lon="6.89902">
        <ele>2059</ele>
        <time>2018-05-15T18:32:45Z</time>
      </trkpt>
      <trkpt lat="45.69546" lon="6.89882">
        <ele>2058</ele>
        <time>2018-05-15T18:33:45Z</time>
      </trkpt>
      <trkpt lat="45.69529" lon="6.89868">
        <ele>2058</ele>
        <time>2018-05-15T18:34:45Z</time>
      </trkpt>
      <trkpt lat="45.69518" lon="6.89853">
        <ele>2059</ele>
        <time>2018-05-15T18:35:45Z</time>
      </trkpt>
      <trkpt lat="45.6951" lon="6.89836">
        <ele>2059</ele>
        <time>2018-05-15T18:36:45Z</time>
      </trkpt>
      <trkpt lat="45.69498" lon="6.89801">
        <ele>2065</ele>
        <time>2018-05-15T18:37:45Z</time>
      </trkpt>
      <trkpt lat="45.69484" lon="6.89749">
        <ele>2059</ele>
        <time>2018-05-15T18:38:45Z</time>
      </trkpt>
      <trkpt lat="45.69472" lon="6.89702">
        <ele>2062</ele>
        <time>2018-05-15T18:39:45Z</time>
      </trkpt>
      <trkpt lat="45.69469" lon="6.89689">
        <ele>2061</ele>
        <time>2018-05-15T18:40:45Z</time>
      </trkpt>
      <trkpt lat="45.69465" lon="6.89679">
        <ele>2062</ele>
        <time>2018-05-15T18:41:45Z</time>
      </trkpt>
      <trkpt lat="45.69459" lon="6.8967">
        <ele>2063</ele>
        <time>2018-05-15T18:42:45Z</time>
      </trkpt>
      <trkpt lat="45.69437" lon="6.89629">
        <ele>2062</ele>
        <time>2018-05-15T18:43:45Z</time>
      </trkpt>
      <trkpt lat="45.69419" lon="6.89577">
        <ele>2063</ele>
        <time>2018-05-15T18:44:45Z</time>
      </trkpt>
      <trkpt lat="45.69397" lon="6.89523">
        <ele>2074</ele>
        <time>2018-05-15T18:45:45Z</time>
      </trkpt>
      <trkpt lat="45.69394" lon="6.89512">
        <ele>2073</ele>
        <time>2018-05-15T18:46:45Z</time>
      </trkpt>
      <trkpt lat="45.69392" lon="6.89499">
        <ele>2070</ele>
        <time>2018-05-15T18:47:45Z</time>
      </trkpt>
      <trkpt lat="45.69392" lon="6.89489">
        <ele>2071</ele>
        <time>2018-05-15T18:48:45Z</time>
      </trkpt>
      <trkpt lat="45.69392" lon="6.89485">
        <ele>2071</ele>
        <time>2018-05-15T18:49:45Z</time>
      </trkpt>
      <trkpt lat="45.69392" lon="6.89474">
        <ele>2071</ele>
        <time>2018-05-15T18:50:45Z</time>
      </trkpt>
      <trkpt lat="45.69392" lon="6.89454">
        <ele>2071</ele>
        <time>2018-05-15T18:51:45Z</time>
      </trkpt>
      <trkpt lat="45.69392" lon="6.89439">
        <ele>2071</ele>
        <time>2018-05-15T18:52:45Z</time>
      </trkpt>
      <trkpt lat="45.69391" lon="6.89428">
        <ele>2071</ele>
        <time>2018-05-15T18:53:45Z</time>
      </trkpt>
      <trkpt lat="45.6939" lon="6.89419">
        <ele>2071</ele>
        <time>2018-05-15T18:54:45Z</time>
      </trkpt>
      <trkpt lat="45.69387" lon="6.8941">
        <ele>2069</ele>
        <time>2018-05-15T18:55:45Z</time>
      </trkpt>
      <trkpt lat="45.69361" lon="6.89346">
        <ele>2071</ele>
        <time>2018-05-15T18:56:45Z</time>
      </trkpt>
      <trkpt lat="45.69348" lon="6.89315">
        <ele>2071</ele>
        <time>2018-05-15T18:57:45Z</time>
      </trkpt>
      <trkpt lat="45.69347" lon="6.89307">
        <ele>2071</ele>
        <time>2018-05-15T18:58:45Z</time>
      </trkpt>
      <trkpt lat="45.69346" lon="6.893">
        <ele>2071</ele>
        <time>2018-05-15T18:59:45Z</time>
      </trkpt>
      <trkpt lat="45.69345" lon="6.8929">
        <ele>2071</ele>
        <time>2018-05-15T19:00:45Z</time>
      </trkpt>
      <trkpt lat="45.69347" lon="6.8924">
        <ele>2073</ele>
        <time>2018-05-15T19:01:45Z</time>
      </trkpt>
      <trkpt lat="45.69346" lon="6.89195">
        <ele>2073</ele>
        <time>2018-05-15T19:02:45Z</time>
      </trkpt>
      <trkpt lat="45.69345" lon="6.89188">
        <ele>2074</ele>
        <time>2018-05-15T19:03:45Z</time>
      </trkpt>
      <trkpt lat="45.69345" lon="6.89185">
        <ele>2074</ele>
        <time>2018-05-15T19:04:45Z</time>
      </trkpt>
      <trkpt lat="45.69343" lon="6.89181">
        <ele>2075</ele>
        <time>2018-05-15T19:05:45Z</time>
      </trkpt>
      <trkpt lat="45.69341" lon="6.89179">
        <ele>2076</ele>
        <time>2018-05-15T19:06:45Z</time>
      </trkpt>
      <trkpt lat="45.69335" lon="6.89175">
        <ele>2077</ele>
        <time>2018-05-15T19:07:45Z</time>
      </trkpt>
      <trkpt lat="45.6933" lon="6.89171">
        <ele>2080</ele>
        <time>2018-05-15T19:08:45Z</time>
      </trkpt>
      <trkpt lat="45.69324" lon="6.89166">
        <ele>2082</ele>
        <time>2018-05-15T19:09:45Z</time>
      </trkpt>
      <trkpt lat="45.69321" lon="6.89162">
        <ele>2083</ele>
        <time>2018-05-15T19:10:45Z</time>
      </trkpt>
      <trkpt lat="45.69316" lon="6.8915">
        <ele>2085</ele>
        <time>2018-05-15T19:11:45Z</time>
      </trkpt>
      <trkpt lat="45.69307" lon="6.89124">
        <ele>2088</ele>
        <time>2018-05-15T19:12:45Z</time>
      </trkpt>
      <trkpt lat="45.69291" lon="6.89092">
        <ele>2090</ele>
        <time>2018-05-15T19:13:45Z</time>
      </trkpt>
      <trkpt lat="45.69277" lon="6.89072">
        <ele>2097</ele>
        <time>2018-05-15T19:14:45Z</time>
      </trkpt>
      <trkpt lat="45.69255" lon="6.89048">
        <ele>2098</ele>
        <time>2018-05-15T19:15:45Z</time>
      </trkpt>
      <trkpt lat="45.69239" lon="6.89035">
        <ele>2100</ele>
        <time>2018-05-15T19:16:45Z</time>
      </trkpt>
      <trkpt lat="45.692" lon="6.89012">
        <ele>2100</ele>
        <time>2018-05-15T19:17:45Z</time>
      </trkpt>
      <trkpt lat="45.69188" lon="6.89007">
        <ele>2101</ele>
        <time>2018-05-15T19:18:45Z</time>
      </trkpt>
      <trkpt lat="45.69181" lon="6.89005">
        <ele>2101</ele>
        <time>2018-05-15T19:19:45Z</time>
      </trkpt>
      <trkpt lat="45.69171" lon="6.89006">
        <ele>2101</ele>
        <time>2018-05-15T19:20:45Z</time>
      </trkpt>
      <trkpt lat="45.69165" lon="6.89007">
        <ele>2103</ele>
        <time>2018-05-15T19:21:45Z</time>
      </trkpt>
      <trkpt lat="45.6916" lon="6.89012">
        <ele>2104</ele>
        <time>2018-05-15T19:22:45Z</time>
      </trkpt>
      <trkpt lat="45.69159" lon="6.89017">
        <ele>2105</ele>
        <time>2018-05-15T19:23:45Z</time>
      </trkpt>
      <trkpt lat="45.69159" lon="6.89029">
        <ele>2106</ele>
        <time>2018-05-15T19:24:45Z</time>
      </trkpt>
      <trkpt lat="45.69163" lon="6.89048">
        <ele>2107</ele>
        <time>2018-05-15T19:25:45Z</time>
      </trkpt>
      <trkpt lat="45.69163" lon="6.89055">
        <ele>2107</ele>
        <time>2018-05-15T19:26:45Z</time>
      </trkpt>
      <trkpt lat="45.69163" lon="6.89063">
        <ele>2106</ele>
        <time>2018-05-15T19:27:45Z</time>
      </trkpt>
      <trkpt lat="45.69163" lon="6.89066">
        <ele>2106</ele>
        <time>2018-05-15T19:28:45Z</time>
      </trkpt>
      <trkpt lat="45.6916" lon="6.89067">
        <ele>2106</ele>
        <time>2018-05-15T19:29:45Z</time>
      </trkpt>
      <trkpt lat="45.69158" lon="6.89067">
        <ele>2106</ele>
        <time>2018-05-15T19:30:45Z</time>
      </trkpt>
      <trkpt lat="45.69155" lon="6.89063">
        <ele>2107</ele>
        <time>2018-05-15T19:31:45Z</time>
      </trkpt>
      <trkpt lat="45.69149" lon="6.8905">
        <ele>2107</ele>
        <time>2018-05-15T19:32:45Z</time>
      </trkpt>
      <trkpt lat="45.6914" lon="6.89031">
        <ele>2108</ele>
        <time>2018-05-15T19:33:45Z</time>
      </trkpt>
      <trkpt lat="45.69132" lon="6.89014">
        <ele>2108</ele>
        <time>2018-05-15T19:34:45Z</time>
      </trkpt>
      <trkpt lat="45.69108" lon="6.88935">
        <ele>2107</ele>
        <time>2018-05-15T19:35:45Z</time>
      </trkpt>
      <trkpt lat="45.69093" lon="6.88915">
        <ele>2107</ele>
        <time>2018-05-15T19:36:45Z</time>
      </trkpt>
      <trkpt lat="45.69095" lon="6.88918">
        <ele>2107</ele>
        <time>2018-05-15T19:37:45Z</time>
      </trkpt>
      <trkpt lat="45.6909" lon="6.88914">
        <ele>2107</ele>
        <time>2018-05-15T19:38:45Z</time>
      </trkpt>
      <trkpt lat="45.69087" lon="6.88913">
        <ele>2107</ele>
        <time>2018-05-15T19:39:45Z</time>
      </trkpt>
      <trkpt lat="45.69085" lon="6.88913">
        <ele>2108</ele>
        <time>2018-05-15T19:40:45Z</time>
      </trkpt>
      <trkpt lat="45.69082" lon="6.88913">
        <ele>2109</ele>
        <time>2018-05-15T19:41:45Z</time>
      </trkpt>
      <trkpt lat="45.6908" lon="6.88916">
        <ele>2109</ele>
        <time>2018-05-15T19:42:45Z</time>
      </trkpt>
      <trkpt lat="45.69078" lon="6.8892">
        <ele>2111</ele>
        <time>2018-05-15T19:43:45Z</time>
      </trkpt>
      <trkpt lat="45.69078" lon="6.88927">
        <ele>2113</ele>
        <time>2018-05-15T19:44:45Z</time>
      </trkpt>
      <trkpt lat="45.69078" lon="6.88939">
        <ele>2116</ele>
        <time>2018-05-15T19:45:45Z</time>
      </trkpt>
      <trkpt lat="45.69078" lon="6.88952">
        <ele>2118</ele>
        <time>2018-05-15T19:46:45Z</time>
      </trkpt>
      <trkpt lat="45.69079" lon="6.88965">
        <ele>2118</ele>
        <time>2018-05-15T19:47:45Z</time>
      </trkpt>
      <trkpt lat="45.69082" lon="6.8898">
        <ele>2118</ele>
        <time>2018-05-15T19:48:45Z</time>
      </trkpt>
      <trkpt lat="45.69084" lon="6.8899">
        <ele>2111</ele>
        <time>2018-05-15T19:49:45Z</time>
      </trkpt>
      <trkpt lat="45.69086" lon="6.89003">
        <ele>2112</ele>
        <time>2018-05-15T19:50:45Z</time>
      </trkpt>
      <trkpt lat="45.69088" lon="6.89018">
        <ele>2111</ele>
        <time>2018-05-15T19:51:45Z</time>
      </trkpt>
      <trkpt lat="45.69088" lon="6.89024">
        <ele>2111</ele>
        <time>2018-05-15T19:52:45Z</time>
      </trkpt>
      <trkpt lat="45.6909" lon="6.89034">
        <ele>2111</ele>
        <time>2018-05-15T19:53:45Z</time>
      </trkpt>
      <trkpt lat="45.69114" lon="6.89118">
        <ele>2114</ele>
        <time>2018-05-15T19:54:45Z</time>
      </trkpt>
      <trkpt lat="45.69115" lon="6.89133">
        <ele>2114</ele>
        <time>2018-05-15T19:55:45Z</time>
      </trkpt>
      <trkpt lat="45.6911" lon="6.89145">
        <ele>2115</ele>
        <time>2018-05-15T19:56:45Z</time>
      </trkpt>
      <trkpt lat="45.69104" lon="6.89151">
        <ele>2117</ele>
        <time>2018-05-15T19:57:45Z</time>
      </trkpt>
      <trkpt lat="45.69094" lon="6.89153">
        <ele>2119</ele>
        <time>2018-05-15T19:58:45Z</time>
      </trkpt>
      <trkpt lat="45.69083" lon="6.89151">
        <ele>2128</ele>
        <time>2018-05-15T19:59:45Z</time>
      </trkpt>
      <trkpt lat="45.69041" lon="6.89118">
        <ele>2132</ele>
        <time>2018-05-15T20:00:45Z</time>
      </trkpt>
      <trkpt lat="45.69036" lon="6.8911">
        <ele>2132</ele>
        <time>2018-05-15T20:01:45Z</time>
      </trkpt>
      <trkpt lat="45.69034" lon="6.89106">
        <ele>2132</ele>
        <time>2018-05-15T20:02:45Z</time>
      </trkpt>
      <trkpt lat="45.69032" lon="6.89099">
        <ele>2133</ele>
        <time>2018-05-15T20:03:45Z</time>
      </trkpt>
      <trkpt lat="45.69031" lon="6.8909">
        <ele>2133</ele>
        <time>2018-05-15T20:04:45Z</time>
      </trkpt>
      <trkpt lat="45.6903" lon="6.89054">
        <ele>2130</ele>
        <time>2018-05-15T20:05:45Z</time>
      </trkpt>
      <trkpt lat="45.69028" lon="6.89011">
        <ele>2130</ele>
        <time>2018-05-15T20:06:45Z</time>
      </trkpt>
      <trkpt lat="45.69024" lon="6.88992">
        <ele>2128</ele>
        <time>2018-05-15T20:07:45Z</time>
      </trkpt>
      <trkpt lat="45.69015" lon="6.88973">
        <ele>2128</ele>
        <time>2018-05-15T20:08:45Z</time>
      </trkpt>
      <trkpt lat="45.6901" lon="6.88967">
        <ele>2128</ele>
        <time>2018-05-15T20:09:45Z</time>
      </trkpt>
      <trkpt lat="45.69006" lon="6.88963">
        <ele>2127</ele>
        <time>2018-05-15T20:10:45Z</time>
      </trkpt>
      <trkpt lat="45.68933" lon="6.8892">
        <ele>2143</ele>
        <time>2018-05-15T20:11:45Z</time>
      </trkpt>
      <trkpt lat="45.68858" lon="6.88876">
        <ele>2142</ele>
        <time>2018-05-15T20:12:45Z</time>
      </trkpt>
      <trkpt lat="45.6884" lon="6.8887">
        <ele>2142</ele>
        <time>2018-05-15T20:13:45Z</time>
      </trkpt>
      <trkpt lat="45.68814" lon="6.88864">
        <ele>2148</ele>
        <time>2018-05-15T20:14:45Z</time>
      </trkpt>
      <trkpt lat="45.68791" lon="6.88864">
        <ele>2149</ele>
        <time>2018-05-15T20:15:45Z</time>
      </trkpt>
      <trkpt lat="45.68773" lon="6.88871">
        <ele>2151</ele>
        <time>2018-05-15T20:16:45Z</time>
      </trkpt>
      <trkpt lat="45.68757" lon="6.88875">
        <ele>2152</ele>
        <time>2018-05-15T20:17:45Z</time>
      </trkpt>
      <trkpt lat="45.68744" lon="6.88874">
        <ele>2159</ele>
        <time>2018-05-15T20:18:45Z</time>
      </trkpt>
      <trkpt lat="45.68715" lon="6.88863">
        <ele>2159</ele>
        <time>2018-05-15T20:19:45Z</time>
      </trkpt>
      <trkpt lat="45.68695" lon="6.88861">
        <ele>2160</ele>
        <time>2018-05-15T20:20:45Z</time>
      </trkpt>
      <trkpt lat="45.68682" lon="6.8886">
        <ele>2161</ele>
        <time>2018-05-15T20:21:45Z</time>
      </trkpt>
      <trkpt lat="45.6867" lon="6.88859">
        <ele>2161</ele>
        <time>2018-05-15T20:22:45Z</time>
      </trkpt>
      <trkpt lat="45.68641" lon="6.8884">
        <ele>2169</ele>
        <time>2018-05-15T20:23:45Z</time>
      </trkpt>
      <trkpt lat="45.68623" lon="6.88827">
        <ele>2160</ele>
        <time>2018-05-15T20:24:45Z</time>
      </trkpt>
      <trkpt lat="45.68597" lon="6.88816">
        <ele>2164</ele>
        <time>2018-05-15T20:25:45Z</time>
      </trkpt>
      <trkpt lat="45.68573" lon="6.888">
        <ele>2171</ele>
        <time>2018-05-15T20:26:45Z</time>
      </trkpt>
      <trkpt lat="45.68555" lon="6.88783">
        <ele>2170</ele>
        <time>2018-05-15T20:27:45Z</time>
      </trkpt>
      <trkpt lat="45.68536" lon="6.88774">
        <ele>2171</ele>
        <time>2018-05-15T20:28:45Z</time>
      </trkpt>
      <trkpt lat="45.68515" lon="6.88768">
        <ele>2172</ele>
        <time>2018-05-15T20:29:45Z</time>
      </trkpt>
      <trkpt lat="45.685" lon="6.88762">
        <ele>2172</ele>
        <time>2018-05-15T20:30:45Z</time>
      </trkpt>
      <trkpt lat="45.68491" lon="6.88757">
        <ele>2176</ele>
        <time>2018-05-15T20:31:45Z</time>
      </trkpt>
      <trkpt lat="45.68406" lon="6.88687">
        <ele>2185</ele>
        <time>2018-05-15T20:32:45Z</time>
      </trkpt>
      <trkpt lat="45.68043" lon="6.88395">
        <ele>2193</ele>
        <time>2018-05-15T20:33:45Z</time>
      </trkpt>
      <trkpt lat="45.68043" lon="6.88395">
        <ele>2193</ele>
        <time>2018-05-15T20:34:45Z</time>
      </trkpt>
      <trkpt lat="45.68034" lon="6.88387">
        <ele>2193</ele>
        <time>2018-05-15T20:35:45Z</time>
      </trkpt>
      <trkpt lat="45.68001" lon="6.88361">
        <ele>2193</ele>
        <time>2018-05-15T20:36:45Z</time>
      </trkpt>
      <trkpt lat="45.67966" lon="6.88331">
        <ele>2190</ele>
        <time>2018-05-15T20:37:45Z</time>
      </trkpt>
      <trkpt lat="45.67959" lon="6.88317">
        <ele>2190</ele>
        <time>2018-05-15T20:38:45Z</time>
      </trkpt>
      <trkpt lat="45.67953" lon="6.88309">
        <ele>2190</ele>
        <time>2018-05-15T20:39:45Z</time>
      </trkpt>
      <trkpt lat="45.67947" lon="6.88305">
        <ele>2190</ele>
        <time>2018-05-15T20:40:45Z</time>
      </trkpt>
      <trkpt lat="45.67929" lon="6.88297">
        <ele>2190</ele>
        <time>2018-05-15T20:41:45Z</time>
      </trkpt>
      <trkpt lat="45.67909" lon="6.88283">
        <ele>2189</ele>
        <time>2018-05-15T20:42:45Z</time>
      </trkpt>
      <trkpt lat="45.67894" lon="6.8827">
        <ele>2189</ele>
        <time>2018-05-15T20:43:45Z</time>
      </trkpt>
      <trkpt lat="45.67879" lon="6.88262">
        <ele>2188</ele>
        <time>2018-05-15T20:44:45Z</time>
      </trkpt>
      <trkpt lat="45.67864" lon="6.88254">
        <ele>2188</ele>
        <time>2018-05-15T20:45:45Z</time>
      </trkpt>
      <trkpt lat="45.67815" lon="6.88229">
        <ele>2182</ele>
        <time>2018-05-15T20:46:45Z</time>
      </trkpt>
      <trkpt lat="45.67792" lon="6.88218">
        <ele>2182</ele>
        <time>2018-05-15T20:47:45Z</time>
      </trkpt>
      <trkpt lat="45.67783" lon="6.88214">
        <ele>2181</ele>
        <time>2018-05-15T20:48:45Z</time>
      </trkpt>
      <trkpt lat="45.67749" lon="6.88198">
        <ele>2180</ele>
        <time>2018-05-15T20:49:45Z</time>
      </trkpt>
      <trkpt lat="45.67682" lon="6.88164">
        <ele>2173</ele>
        <time>2018-05-15T20:50:45Z</time>
      </trkpt>
      <trkpt lat="45.67673" lon="6.88159">
        <ele>2173</ele>
        <time>2018-05-15T20:51:45Z</time>
      </trkpt>
      <trkpt lat="45.67657" lon="6.88144">
        <ele>2176</ele>
        <time>2018-05-15T20:52:45Z</time>
      </trkpt>
      <trkpt lat="45.67585" lon="6.88063">
        <ele>2171</ele>
        <time>2018-05-15T20:53:45Z</time>
      </trkpt>
      <trkpt lat="45.67506" lon="6.87973">
        <ele>2166</ele>
        <time>2018-05-15T20:54:45Z</time>
      </trkpt>
      <trkpt lat="45.67493" lon="6.87959">
        <ele>2169</ele>
        <time>2018-05-15T20:55:45Z</time>
      </trkpt>
      <trkpt lat="45.67412" lon="6.87868">
        <ele>2168</ele>
        <time>2018-05-15T20:56:45Z</time>
      </trkpt>
      <trkpt lat="45.67405" lon="6.8786">
        <ele>2167</ele>
        <time>2018-05-15T20:57:45Z</time>
      </trkpt>
      <trkpt lat="45.67399" lon="6.87854">
        <ele>2167</ele>
        <time>2018-05-15T20:58:45Z</time>
      </trkpt>
      <trkpt lat="45.67379" lon="6.87831">
        <ele>2164</ele>
        <time>2018-05-15T20:59:45Z</time>
      </trkpt>
      <trkpt lat="45.6733" lon="6.87776">
        <ele>2167</ele>
        <time>2018-05-15T21:00:45Z</time>
      </trkpt>
      <trkpt lat="45.67228" lon="6.87663">
        <ele>2152</ele>
        <time>2018-05-15T21:01:45Z</time>
      </trkpt>
      <trkpt lat="45.67183" lon="6.87612">
        <ele>2151</ele>
        <time>2018-05-15T21:02:45Z</time>
      </trkpt>
      <trkpt lat="45.67173" lon="6.87603">
        <ele>2151</ele>
        <time>2018-05-15T21:03:45Z</time>
      </trkpt>
      <trkpt lat="45.6713" lon="6.87553">
        <ele>2146</ele>
        <time>2018-05-15T21:04:45Z</time>
      </trkpt>
      <trkpt lat="45.67089" lon="6.87506">
        <ele>2143</ele>
        <time>2018-05-15T21:05:45Z</time>
      </trkpt>
      <trkpt lat="45.67077" lon="6.87494">
        <ele>2141</ele>
        <time>2018-05-15T21:06:45Z</time>
      </trkpt>
      <trkpt lat="45.67026" lon="6.87438">
        <ele>2137</ele>
        <time>2018-05-15T21:07:45Z</time>
      </trkpt>
      <trkpt lat="45.66988" lon="6.87392">
        <ele>2131</ele>
        <time>2018-05-15T21:08:45Z</time>
      </trkpt>
      <trkpt lat="45.66957" lon="6.87358">
        <ele>2128</ele>
        <time>2018-05-15T21:09:45Z</time>
      </trkpt>
      <trkpt lat="45.66946" lon="6.87343">
        <ele>2128</ele>
        <time>2018-05-15T21:10:45Z</time>
      </trkpt>
      <trkpt lat="45.66944" lon="6.87338">
        <ele>2128</ele>
        <time>2018-05-15T21:11:45Z</time>
      </trkpt>
      <trkpt lat="45.66943" lon="6.87334">
        <ele>2128</ele>
        <time>2018-05-15T21:12:45Z</time>
      </trkpt>
      <trkpt lat="45.66943" lon="6.87331">
        <ele>2125</ele>
        <time>2018-05-15T21:13:45Z</time>
      </trkpt>
      <trkpt lat="45.66943" lon="6.87329">
        <ele>2125</ele>
        <time>2018-05-15T21:14:45Z</time>
      </trkpt>
      <trkpt lat="45.66943" lon="6.87327">
        <ele>2125</ele>
        <time>2018-05-15T21:15:45Z</time>
      </trkpt>
      <trkpt lat="45.66943" lon="6.87325">
        <ele>2125</ele>
        <time>2018-05-15T21:16:45Z</time>
      </trkpt>
      <trkpt lat="45.66944" lon="6.87323">
        <ele>2125</ele>
        <time>2018-05-15T21:17:45Z</time>
      </trkpt>
      <trkpt lat="45.66945" lon="6.87322">
        <ele>2125</ele>
        <time>2018-05-15T21:18:45Z</time>
      </trkpt>
      <trkpt lat="45.66949" lon="6.87318">
        <ele>2125</ele>
        <time>2018-05-15T21:19:45Z</time>
      </trkpt>
      <trkpt lat="45.66952" lon="6.87318">
        <ele>2125</ele>
        <time>2018-05-15T21:20:45Z</time>
      </trkpt>
      <trkpt lat="45.66959" lon="6.87317">
        <ele>2125</ele>
        <time>2018-05-15T21:21:45Z</time>
      </trkpt>
      <trkpt lat="45.66965" lon="6.87318">
        <ele>2125</ele>
        <time>2018-05-15T21:22:45Z</time>
      </trkpt>
      <trkpt lat="45.66975" lon="6.87322">
        <ele>2125</ele>
        <time>2018-05-15T21:23:45Z</time>
      </trkpt>
      <trkpt lat="45.66984" lon="6.87327">
        <ele>2126</ele>
        <time>2018-05-15T21:24:45Z</time>
      </trkpt>
      <trkpt lat="45.66991" lon="6.87333">
        <ele>2127</ele>
        <time>2018-05-15T21:25:45Z</time>
      </trkpt>
      <trkpt lat="45.67018" lon="6.8736">
        <ele>2132</ele>
        <time>2018-05-15T21:26:45Z</time>
      </trkpt>
      <trkpt lat="45.6704" lon="6.87373">
        <ele>2133</ele>
        <time>2018-05-15T21:27:45Z</time>
      </trkpt>
      <trkpt lat="45.67051" lon="6.87376">
        <ele>2133</ele>
        <time>2018-05-15T21:28:45Z</time>
      </trkpt>
      <trkpt lat="45.67057" lon="6.87375">
        <ele>2133</ele>
        <time>2018-05-15T21:29:45Z</time>
      </trkpt>
      <trkpt lat="45.67062" lon="6.87372">
        <ele>2133</ele>
        <time>2018-05-15T21:30:45Z</time>
      </trkpt>
      <trkpt lat="45.67067" lon="6.87368">
        <ele>2133</ele>
        <time>2018-05-15T21:31:45Z</time>
      </trkpt>
      <trkpt lat="45.67069" lon="6.87362">
        <ele>2132</ele>
        <time>2018-05-15T21:32:45Z</time>
      </trkpt>
      <trkpt lat="45.67069" lon="6.87356">
        <ele>2132</ele>
        <time>2018-05-15T21:33:45Z</time>
      </trkpt>
      <trkpt lat="45.67067" lon="6.87345">
        <ele>2131</ele>
        <time>2018-05-15T21:34:45Z</time>
      </trkpt>
      <trkpt lat="45.67063" lon="6.8734">
        <ele>2131</ele>
        <time>2018-05-15T21:35:45Z</time>
      </trkpt>
      <trkpt lat="45.67058" lon="6.87334">
        <ele>2131</ele>
        <time>2018-05-15T21:36:45Z</time>
      </trkpt>
      <trkpt lat="45.67026" lon="6.87304">
        <ele>2129</ele>
        <time>2018-05-15T21:37:45Z</time>
      </trkpt>
      <trkpt lat="45.67009" lon="6.87291">
        <ele>2128</ele>
        <time>2018-05-15T21:38:45Z</time>
      </trkpt>
      <trkpt lat="45.67002" lon="6.87288">
        <ele>2128</ele>
        <time>2018-05-15T21:39:45Z</time>
      </trkpt>
      <trkpt lat="45.66995" lon="6.87285">
        <ele>2124</ele>
        <time>2018-05-15T21:40:45Z</time>
      </trkpt>
      <trkpt lat="45.66974" lon="6.87277">
        <ele>2124</ele>
        <time>2018-05-15T21:41:45Z</time>
      </trkpt>
      <trkpt lat="45.66966" lon="6.87272">
        <ele>2124</ele>
        <time>2018-05-15T21:42:45Z</time>
      </trkpt>
      <trkpt lat="45.66954" lon="6.87263">
        <ele>2123</ele>
        <time>2018-05-15T21:43:45Z</time>
      </trkpt>
      <trkpt lat="45.66944" lon="6.87253">
        <ele>2122</ele>
        <time>2018-05-15T21:44:45Z</time>
      </trkpt>
      <trkpt lat="45.66939" lon="6.87249">
        <ele>2122</ele>
        <time>2018-05-15T21:45:45Z</time>
      </trkpt>
      <trkpt lat="45.66935" lon="6.87248">
        <ele>2121</ele>
        <time>2018-05-15T21:46:45Z</time>
      </trkpt>
      <trkpt lat="45.66928" lon="6.87249">
        <ele>2120</ele>
        <time>2018-05-15T21:47:45Z</time>
      </trkpt>
      <trkpt lat="45.66925" lon="6.87249">
        <ele>2120</ele>
        <time>2018-05-15T21:48:45Z</time>
      </trkpt>
      <trkpt lat="45.66918" lon="6.87253">
        <ele>2119</ele>
        <time>2018-05-15T21:49:45Z</time>
      </trkpt>
      <trkpt lat="45.66896" lon="6.87269">
        <ele>2118</ele>
        <time>2018-05-15T21:50:45Z</time>
      </trkpt>
      <trkpt lat="45.66889" lon="6.87273">
        <ele>2118</ele>
        <time>2018-05-15T21:51:45Z</time>
      </trkpt>
      <trkpt lat="45.66879" lon="6.87275">
        <ele>2118</ele>
        <time>2018-05-15T21:52:45Z</time>
      </trkpt>
      <trkpt lat="45.66871" lon="6.87272">
        <ele>2117</ele>
        <time>2018-05-15T21:53:45Z</time>
      </trkpt>
      <trkpt lat="45.66867" lon="6.87267">
        <ele>2117</ele>
        <time>2018-05-15T21:54:45Z</time>
      </trkpt>
      <trkpt lat="45.66862" lon="6.87262">
        <ele>2116</ele>
        <time>2018-05-15T21:55:45Z</time>
      </trkpt>
      <trkpt lat="45.66856" lon="6.87252">
        <ele>2115</ele>
        <time>2018-05-15T21:56:45Z</time>
      </trkpt>
      <trkpt lat="45.66849" lon="6.87239">
        <ele>2110</ele>
        <time>2018-05-15T21:57:45Z</time>
      </trkpt>
      <trkpt lat="45.66843" lon="6.87234">
        <ele>2110</ele>
        <time>2018-05-15T21:58:45Z</time>
      </trkpt>
      <trkpt lat="45.66834" lon="6.8723">
        <ele>2109</ele>
        <time>2018-05-15T21:59:45Z</time>
      </trkpt>
      <trkpt lat="45.66824" lon="6.87228">
        <ele>2104</ele>
        <time>2018-05-15T22:00:45Z</time>
      </trkpt>
      <trkpt lat="45.66816" lon="6.87229">
        <ele>2104</ele>
        <time>2018-05-15T22:01:45Z</time>
      </trkpt>
      <trkpt lat="45.66795" lon="6.87236">
        <ele>2103</ele>
        <time>2018-05-15T22:02:45Z</time>
      </trkpt>
      <trkpt lat="45.66788" lon="6.87237">
        <ele>2103</ele>
        <time>2018-05-15T22:03:45Z</time>
      </trkpt>
      <trkpt lat="45.66774" lon="6.87237">
        <ele>2103</ele>
        <time>2018-05-15T22:04:45Z</time>
      </trkpt>
      <trkpt lat="45.66753" lon="6.87231">
        <ele>2103</ele>
        <time>2018-05-15T22:05:45Z</time>
      </trkpt>
      <trkpt lat="45.66739" lon="6.87223">
        <ele>2102</ele>
        <time>2018-05-15T22:06:45Z</time>
      </trkpt>
      <trkpt lat="45.6672" lon="6.8721">
        <ele>2101</ele>
        <time>2018-05-15T22:07:45Z</time>
      </trkpt>
      <trkpt lat="45.66706" lon="6.87204">
        <ele>2100</ele>
        <time>2018-05-15T22:08:45Z</time>
      </trkpt>
      <trkpt lat="45.66694" lon="6.87202">
        <ele>2100</ele>
        <time>2018-05-15T22:09:45Z</time>
      </trkpt>
      <trkpt lat="45.6669" lon="6.872">
        <ele>2100</ele>
        <time>2018-05-15T22:10:45Z</time>
      </trkpt>
      <trkpt lat="45.66666" lon="6.87196">
        <ele>2104</ele>
        <time>2018-05-15T22:11:45Z</time>
      </trkpt>
      <trkpt lat="45.66642" lon="6.87189">
        <ele>2105</ele>
        <time>2018-05-15T22:12:45Z</time>
      </trkpt>
      <trkpt lat="45.66635" lon="6.87186">
        <ele>2105</ele>
        <time>2018-05-15T22:13:45Z</time>
      </trkpt>
      <trkpt lat="45.66624" lon="6.87178">
        <ele>2105</ele>
        <time>2018-05-15T22:14:45Z</time>
      </trkpt>
      <trkpt lat="45.66607" lon="6.87164">
        <ele>2088</ele>
        <time>2018-05-15T22:15:45Z</time>
      </trkpt>
      <trkpt lat="45.66601" lon="6.87159">
        <ele>2089</ele>
        <time>2018-05-15T22:16:45Z</time>
      </trkpt>
      <trkpt lat="45.66582" lon="6.87149">
        <ele>2092</ele>
        <time>2018-05-15T22:17:45Z</time>
      </trkpt>
      <trkpt lat="45.6657" lon="6.87144">
        <ele>2091</ele>
        <time>2018-05-15T22:18:45Z</time>
      </trkpt>
      <trkpt lat="45.66549" lon="6.87141">
        <ele>2090</ele>
        <time>2018-05-15T22:19:45Z</time>
      </trkpt>
      <trkpt lat="45.66531" lon="6.87139">
        <ele>2091</ele>
        <time>2018-05-15T22:20:45Z</time>
      </trkpt>
      <trkpt lat="45.66518" lon="6.87136">
        <ele>2092</ele>
        <time>2018-05-15T22:21:45Z</time>
      </trkpt>
      <trkpt lat="45.66505" lon="6.87131">
        <ele>2091</ele>
        <time>2018-05-15T22:22:45Z</time>
      </trkpt>
      <trkpt lat="45.6649" lon="6.87119">
        <ele>2094</ele>
        <time>2018-05-15T22:23:45Z</time>
      </trkpt>
      <trkpt lat="45.66467" lon="6.87094">
        <ele>2091</ele>
        <time>2018-05-15T22:24:45Z</time>
      </trkpt>
      <trkpt lat="45.6646" lon="6.87088">
        <ele>2091</ele>
        <time>2018-05-15T22:25:45Z</time>
      </trkpt>
      <trkpt lat="45.66445" lon="6.87079">
        <ele>2075</ele>
        <time>2018-05-15T22:26:45Z</time>
      </trkpt>
      <trkpt lat="45.66438" lon="6.87076">
        <ele>2076</ele>
        <time>2018-05-15T22:27:45Z</time>
      </trkpt>
      <trkpt lat="45.66426" lon="6.87068">
        <ele>2077</ele>
        <time>2018-05-15T22:28:45Z</time>
      </trkpt>
      <trkpt lat="45.664" lon="6.87055">
        <ele>2076</ele>
        <time>2018-05-15T22:29:45Z</time>
      </trkpt>
      <trkpt lat="45.66393" lon="6.87053">
        <ele>2076</ele>
        <time>2018-05-15T22:30:45Z</time>
      </trkpt>
      <trkpt lat="45.66385" lon="6.87052">
        <ele>2075</ele>
        <time>2018-05-15T22:31:45Z</time>
      </trkpt>
      <trkpt lat="45.66385" lon="6.87052">
        <ele>2075</ele>
        <time>2018-05-15T22:32:45Z</time>
      </trkpt>
      <trkpt lat="45.66356" lon="6.87048">
        <ele>2075</ele>
        <time>2018-05-15T22:33:45Z</time>
      </trkpt>
      <trkpt lat="45.66343" lon="6.87042">
        <ele>2074</ele>
        <time>2018-05-15T22:34:45Z</time>
      </trkpt>
      <trkpt lat="45.66337" lon="6.8704">
        <ele>2074</ele>
        <time>2018-05-15T22:35:45Z</time>
      </trkpt>
      <trkpt lat="45.66328" lon="6.8704">
        <ele>2074</ele>
        <time>2018-05-15T22:36:45Z</time>
      </trkpt>
      <trkpt lat="45.66318" lon="6.87042">
        <ele>2074</ele>
        <time>2018-05-15T22:37:45Z</time>
      </trkpt>
      <trkpt lat="45.663" lon="6.87049">
        <ele>2074</ele>
        <time>2018-05-15T22:38:45Z</time>
      </trkpt>
      <trkpt lat="45.66279" lon="6.87059">
        <ele>2075</ele>
        <time>2018-05-15T22:39:45Z</time>
      </trkpt>
      <trkpt lat="45.66262" lon="6.87067">
        <ele>2076</ele>
        <time>2018-05-15T22:40:45Z</time>
      </trkpt>
      <trkpt lat="45.66248" lon="6.87075">
        <ele>2078</ele>
        <time>2018-05-15T22:41:45Z</time>
      </trkpt>
      <trkpt lat="45.66244" lon="6.87076">
        <ele>2078</ele>
        <time>2018-05-15T22:42:45Z</time>
      </trkpt>
      <trkpt lat="45.66239" lon="6.87076">
        <ele>2078</ele>
        <time>2018-05-15T22:43:45Z</time>
      </trkpt>
      <trkpt lat="45.66234" lon="6.87072">
        <ele>2078</ele>
        <time>2018-05-15T22:44:45Z</time>
      </trkpt>
      <trkpt lat="45.66231" lon="6.87066">
        <ele>2078</ele>
        <time>2018-05-15T22:45:45Z</time>
      </trkpt>
      <trkpt lat="45.66229" lon="6.87057">
        <ele>2077</ele>
        <time>2018-05-15T22:46:45Z</time>
      </trkpt>
      <trkpt lat="45.6623" lon="6.87047">
        <ele>2077</ele>
        <time>2018-05-15T22:47:45Z</time>
      </trkpt>
      <trkpt lat="45.66233" lon="6.87039">
        <ele>2076</ele>
        <time>2018-05-15T22:48:45Z</time>
      </trkpt>
      <trkpt lat="45.66239" lon="6.87012">
        <ele>2071</ele>
        <time>2018-05-15T22:49:45Z</time>
      </trkpt>
      <trkpt lat="45.66242" lon="6.87">
        <ele>2067</ele>
        <time>2018-05-15T22:50:45Z</time>
      </trkpt>
      <trkpt lat="45.66245" lon="6.86988">
        <ele>2066</ele>
        <time>2018-05-15T22:51:45Z</time>
      </trkpt>
      <trkpt lat="45.66245" lon="6.86971">
        <ele>2065</ele>
        <time>2018-05-15T22:52:45Z</time>
      </trkpt>
      <trkpt lat="45.66245" lon="6.86956">
        <ele>2064</ele>
        <time>2018-05-15T22:53:45Z</time>
      </trkpt>
      <trkpt lat="45.66241" lon="6.8694">
        <ele>2062</ele>
        <time>2018-05-15T22:54:45Z</time>
      </trkpt>
      <trkpt lat="45.66236" lon="6.86928">
        <ele>2061</ele>
        <time>2018-05-15T22:55:45Z</time>
      </trkpt>
      <trkpt lat="45.66228" lon="6.86919">
        <ele>2062</ele>
        <time>2018-05-15T22:56:45Z</time>
      </trkpt>
      <trkpt lat="45.66221" lon="6.86913">
        <ele>2057</ele>
        <time>2018-05-15T22:57:45Z</time>
      </trkpt>
      <trkpt lat="45.66214" lon="6.86909">
        <ele>2058</ele>
        <time>2018-05-15T22:58:45Z</time>
      </trkpt>
      <trkpt lat="45.66206" lon="6.86905">
        <ele>2059</ele>
        <time>2018-05-15T22:59:45Z</time>
      </trkpt>
      <trkpt lat="45.66193" lon="6.86897">
        <ele>2060</ele>
        <time>2018-05-15T23:00:45Z</time>
      </trkpt>
      <trkpt lat="45.6619" lon="6.86895">
        <ele>2060</ele>
        <time>2018-05-15T23:01:45Z</time>
      </trkpt>
      <trkpt lat="45.66187" lon="6.86892">
        <ele>2060</ele>
        <time>2018-05-15T23:02:45Z</time>
      </trkpt>
      <trkpt lat="45.66184" lon="6.86887">
        <ele>2060</ele>
        <time>2018-05-15T23:03:45Z</time>
      </trkpt>
      <trkpt lat="45.66179" lon="6.86879">
        <ele>2059</ele>
        <time>2018-05-15T23:04:45Z</time>
      </trkpt>
      <trkpt lat="45.66175" lon="6.86869">
        <ele>2059</ele>
        <time>2018-05-15T23:05:45Z</time>
      </trkpt>
      <trkpt lat="45.66162" lon="6.86832">
        <ele>2059</ele>
        <time>2018-05-15T23:06:45Z</time>
      </trkpt>
      <trkpt lat="45.66155" lon="6.8682">
        <ele>2059</ele>
        <time>2018-05-15T23:07:45Z</time>
      </trkpt>
      <trkpt lat="45.6615" lon="6.8681">
        <ele>2059</ele>
        <time>2018-05-15T23:08:45Z</time>
      </trkpt>
      <trkpt lat="45.66138" lon="6.86791">
        <ele>2057</ele>
        <time>2018-05-15T23:09:45Z</time>
      </trkpt>
      <trkpt lat="45.66133" lon="6.86785">
        <ele>2057</ele>
        <time>2018-05-15T23:10:45Z</time>
      </trkpt>
      <trkpt lat="45.66118" lon="6.86764">
        <ele>2056</ele>
        <time>2018-05-15T23:11:45Z</time>
      </trkpt>
      <trkpt lat="45.66112" lon="6.86757">
        <ele>2056</ele>
        <time>2018-05-15T23:12:45Z</time>
      </trkpt>
      <trkpt lat="45.66105" lon="6.8675">
        <ele>2045</ele>
        <time>2018-05-15T23:13:45Z</time>
      </trkpt>
      <trkpt lat="45.661" lon="6.86745">
        <ele>2046</ele>
        <time>2018-05-15T23:14:45Z</time>
      </trkpt>
      <trkpt lat="45.66077" lon="6.86718">
        <ele>2054</ele>
        <time>2018-05-15T23:15:45Z</time>
      </trkpt>
      <trkpt lat="45.6607" lon="6.86711">
        <ele>2054</ele>
        <time>2018-05-15T23:16:45Z</time>
      </trkpt>
      <trkpt lat="45.66057" lon="6.86698">
        <ele>2053</ele>
        <time>2018-05-15T23:17:45Z</time>
      </trkpt>
      <trkpt lat="45.66042" lon="6.86674">
        <ele>2054</ele>
        <time>2018-05-15T23:18:45Z</time>
      </trkpt>
      <trkpt lat="45.66037" lon="6.86665">
        <ele>2040</ele>
        <time>2018-05-15T23:19:45Z</time>
      </trkpt>
      <trkpt lat="45.6603" lon="6.86655">
        <ele>2041</ele>
        <time>2018-05-15T23:20:45Z</time>
      </trkpt>
      <trkpt lat="45.66016" lon="6.86634">
        <ele>2041</ele>
        <time>2018-05-15T23:21:45Z</time>
      </trkpt>
      <trkpt lat="45.66002" lon="6.86614">
        <ele>2038</ele>
        <time>2018-05-15T23:22:45Z</time>
      </trkpt>
      <trkpt lat="45.65997" lon="6.8661">
        <ele>2056</ele>
        <time>2018-05-15T23:23:45Z</time>
      </trkpt>
      <trkpt lat="45.65995" lon="6.86608">
        <ele>2056</ele>
        <time>2018-05-15T23:24:45Z</time>
      </trkpt>
      <trkpt lat="45.65987" lon="6.86601">
        <ele>2055</ele>
        <time>2018-05-15T23:25:45Z</time>
      </trkpt>
      <trkpt lat="45.65977" lon="6.8659">
        <ele>2056</ele>
        <time>2018-05-15T23:26:45Z</time>
      </trkpt>
      <trkpt lat="45.65966" lon="6.8657">
        <ele>2044</ele>
        <time>2018-05-15T23:27:45Z</time>
      </trkpt>
      <trkpt lat="45.65945" lon="6.8652">
        <ele>2042</ele>
        <time>2018-05-15T23:28:45Z</time>
      </trkpt>
      <trkpt lat="45.65937" lon="6.86502">
        <ele>2043</ele>
        <time>2018-05-15T23:29:45Z</time>
      </trkpt>
      <trkpt lat="45.65933" lon="6.86494">
        <ele>2032</ele>
        <time>2018-05-15T23:30:45Z</time>
      </trkpt>
      <trkpt lat="45.65926" lon="6.86474">
        <ele>2027</ele>
        <time>2018-05-15T23:31:45Z</time>
      </trkpt>
      <trkpt lat="45.65918" lon="6.86455">
        <ele>2023</ele>
        <time>2018-05-15T23:32:45Z</time>
      </trkpt>
      <trkpt lat="45.65914" lon="6.86447">
        <ele>2037</ele>
        <time>2018-05-15T23:33:45Z</time>
      </trkpt>
      <trkpt lat="45.65909" lon="6.86439">
        <ele>2035</ele>
        <time>2018-05-15T23:34:45Z</time>
      </trkpt>
      <trkpt lat="45.65904" lon="6.86433">
        <ele>2034</ele>
        <time>2018-05-15T23:35:45Z</time>
      </trkpt>
      <trkpt lat="45.65891" lon="6.86424">
        <ele>2036</ele>
        <time>2018-05-15T23:36:45Z</time>
      </trkpt>
      <trkpt lat="45.65879" lon="6.86417">
        <ele>2038</ele>
        <time>2018-05-15T23:37:45Z</time>
      </trkpt>
      <trkpt lat="45.65853" lon="6.86407">
        <ele>2029</ele>
        <time>2018-05-15T23:38:45Z</time>
      </trkpt>
      <trkpt lat="45.65848" lon="6.86403">
        <ele>2030</ele>
        <time>2018-05-15T23:39:45Z</time>
      </trkpt>
      <trkpt lat="45.65838" lon="6.86398">
        <ele>2030</ele>
        <time>2018-05-15T23:40:45Z</time>
      </trkpt>
      <trkpt lat="45.65827" lon="6.86388">
        <ele>2039</ele>
        <time>2018-05-15T23:41:45Z</time>
      </trkpt>
      <trkpt lat="45.65822" lon="6.86381">
        <ele>2038</ele>
        <time>2018-05-15T23:42:45Z</time>
      </trkpt>
      <trkpt lat="45.65811" lon="6.8637">
        <ele>2037</ele>
        <time>2018-05-15T23:43:45Z</time>
      </trkpt>
      <trkpt lat="45.65801" lon="6.8636">
        <ele>2037</ele>
        <time>2018-05-15T23:44:45Z</time>
      </trkpt>
      <trkpt lat="45.65784" lon="6.86349">
        <ele>2037</ele>
        <time>2018-05-15T23:45:45Z</time>
      </trkpt>
      <trkpt lat="45.65777" lon="6.86343">
        <ele>2037</ele>
        <time>2018-05-15T23:46:45Z</time>
      </trkpt>
      <trkpt lat="45.65771" lon="6.8634">
        <ele>2036</ele>
        <time>2018-05-15T23:47:45Z</time>
      </trkpt>
      <trkpt lat="45.65765" lon="6.8634">
        <ele>2036</ele>
        <time>2018-05-15T23:48:45Z</time>
      </trkpt>
      <trkpt lat="45.65752" lon="6.86333">
        <ele>2031</ele>
        <time>2018-05-15T23:49:45Z</time>
      </trkpt>
      <trkpt lat="45.65729" lon="6.86312">
        <ele>2033</ele>
        <time>2018-05-15T23:50:45Z</time>
      </trkpt>
      <trkpt lat="45.65703" lon="6.86283">
        <ele>2033</ele>
        <time>2018-05-15T23:51:45Z</time>
      </trkpt>
      <trkpt lat="45.65701" lon="6.86278">
        <ele>2032</ele>
        <time>2018-05-15T23:52:45Z</time>
      </trkpt>
      <trkpt lat="45.65692" lon="6.86268">
        <ele>2032</ele>
        <time>2018-05-15T23:53:45Z</time>
      </trkpt>
      <trkpt lat="45.65688" lon="6.86262">
        <ele>2031</ele>
        <time>2018-05-15T23:54:45Z</time>
      </trkpt>
      <trkpt lat="45.65676" lon="6.86231">
        <ele>2018</ele>
        <time>2018-05-15T23:55:45Z</time>
      </trkpt>
      <trkpt lat="45.65674" lon="6.86223">
        <ele>2016</ele>
        <time>2018-05-15T23:56:45Z</time>
      </trkpt>
      <trkpt lat="45.65671" lon="6.86206">
        <ele>2012</ele>
        <time>2018-05-15T23:57:45Z</time>
      </trkpt>
      <trkpt lat="45.65666" lon="6.86194">
        <ele>2023</ele>
        <time>2018-05-15T23:58:45Z</time>
      </trkpt>
      <trkpt lat="45.65662" lon="6.86187">
        <ele>2021</ele>
        <time>2018-05-15T23:59:45Z</time>
      </trkpt>
      <trkpt lat="45.65658" lon="6.86181">
        <ele>2019</ele>
        <time>2018-05-16T00:00:45Z</time>
      </trkpt>
      <trkpt lat="45.65628" lon="6.86143">
        <ele>2009</ele>
        <time>2018-05-16T00:01:45Z</time>
      </trkpt>
      <trkpt lat="45.65622" lon="6.86137">
        <ele>2009</ele>
        <time>2018-05-16T00:02:45Z</time>
      </trkpt>
      <trkpt lat="45.65609" lon="6.8613">
        <ele>2009</ele>
        <time>2018-05-16T00:03:45Z</time>
      </trkpt>
      <trkpt lat="45.65603" lon="6.86129">
        <ele>2010</ele>
        <time>2018-05-16T00:04:45Z</time>
      </trkpt>
      <trkpt lat="45.65581" lon="6.86125">
        <ele>2024</ele>
        <time>2018-05-16T00:05:45Z</time>
      </trkpt>
      <trkpt lat="45.65562" lon="6.86115">
        <ele>2023</ele>
        <time>2018-05-16T00:06:45Z</time>
      </trkpt>
      <trkpt lat="45.65556" lon="6.8611">
        <ele>2022</ele>
        <time>2018-05-16T00:07:45Z</time>
      </trkpt>
      <trkpt lat="45.65545" lon="6.86099">
        <ele>2022</ele>
        <time>2018-05-16T00:08:45Z</time>
      </trkpt>
      <trkpt lat="45.6554" lon="6.86092">
        <ele>2022</ele>
        <time>2018-05-16T00:09:45Z</time>
      </trkpt>
      <trkpt lat="45.65536" lon="6.86085">
        <ele>2022</ele>
        <time>2018-05-16T00:10:45Z</time>
      </trkpt>
      <trkpt lat="45.65522" lon="6.86057">
        <ele>2004</ele>
        <time>2018-05-16T00:11:45Z</time>
      </trkpt>
      <trkpt lat="45.65504" lon="6.86014">
        <ele>1997</ele>
        <time>2018-05-16T00:12:45Z</time>
      </trkpt>
      <trkpt lat="45.65495" lon="6.85998">
        <ele>1996</ele>
        <time>2018-05-16T00:13:45Z</time>
      </trkpt>
      <trkpt lat="45.6549" lon="6.8599">
        <ele>1995</ele>
        <time>2018-05-16T00:14:45Z</time>
      </trkpt>
      <trkpt lat="45.65475" lon="6.85973">
        <ele>1994</ele>
        <time>2018-05-16T00:15:45Z</time>
      </trkpt>
      <trkpt lat="45.65469" lon="6.8597">
        <ele>1995</ele>
        <time>2018-05-16T00:16:45Z</time>
      </trkpt>
      <trkpt lat="45.65463" lon="6.85968">
        <ele>1995</ele>
        <time>2018-05-16T00:17:45Z</time>
      </trkpt>
      <trkpt lat="45.65449" lon="6.85966">
        <ele>1997</ele>
        <time>2018-05-16T00:18:45Z</time>
      </trkpt>
      <trkpt lat="45.65434" lon="6.85962">
        <ele>1998</ele>
        <time>2018-05-16T00:19:45Z</time>
      </trkpt>
      <trkpt lat="45.65428" lon="6.85959">
        <ele>1998</ele>
        <time>2018-05-16T00:20:45Z</time>
      </trkpt>
      <trkpt lat="45.65415" lon="6.8595">
        <ele>2014</ele>
        <time>2018-05-16T00:21:45Z</time>
      </trkpt>
      <trkpt lat="45.65405" lon="6.85941">
        <ele>2012</ele>
        <time>2018-05-16T00:22:45Z</time>
      </trkpt>
      <trkpt lat="45.65393" lon="6.85924">
        <ele>2010</ele>
        <time>2018-05-16T00:23:45Z</time>
      </trkpt>
      <trkpt lat="45.65385" lon="6.85911">
        <ele>1991</ele>
        <time>2018-05-16T00:24:45Z</time>
      </trkpt>
      <trkpt lat="45.65378" lon="6.85897">
        <ele>1991</ele>
        <time>2018-05-16T00:25:45Z</time>
      </trkpt>
      <trkpt lat="45.65356" lon="6.85865">
        <ele>1988</ele>
        <time>2018-05-16T00:26:45Z</time>
      </trkpt>
      <trkpt lat="45.65348" lon="6.85855">
        <ele>1987</ele>
        <time>2018-05-16T00:27:45Z</time>
      </trkpt>
      <trkpt lat="45.65331" lon="6.85837">
        <ele>1989</ele>
        <time>2018-05-16T00:28:45Z</time>
      </trkpt>
      <trkpt lat="45.65302" lon="6.85818">
        <ele>1985</ele>
        <time>2018-05-16T00:29:45Z</time>
      </trkpt>
      <trkpt lat="45.65293" lon="6.85813">
        <ele>1986</ele>
        <time>2018-05-16T00:30:45Z</time>
      </trkpt>
      <trkpt lat="45.65283" lon="6.85809">
        <ele>1988</ele>
        <time>2018-05-16T00:31:45Z</time>
      </trkpt>
      <trkpt lat="45.6527" lon="6.85806">
        <ele>1990</ele>
        <time>2018-05-16T00:32:45Z</time>
      </trkpt>
      <trkpt lat="45.65254" lon="6.85799">
        <ele>1990</ele>
        <time>2018-05-16T00:33:45Z</time>
      </trkpt>
      <trkpt lat="45.65247" lon="6.85795">
        <ele>2005</ele>
        <time>2018-05-16T00:34:45Z</time>
      </trkpt>
      <trkpt lat="45.65243" lon="6.8579">
        <ele>2003</ele>
        <time>2018-05-16T00:35:45Z</time>
      </trkpt>
      <trkpt lat="45.65241" lon="6.8579">
        <ele>2003</ele>
        <time>2018-05-16T00:36:45Z</time>
      </trkpt>
      <trkpt lat="45.65227" lon="6.85776">
        <ele>2001</ele>
        <time>2018-05-16T00:37:45Z</time>
      </trkpt>
      <trkpt lat="45.65207" lon="6.85749">
        <ele>1979</ele>
        <time>2018-05-16T00:38:45Z</time>
      </trkpt>
      <trkpt lat="45.65196" lon="6.85736">
        <ele>1980</ele>
        <time>2018-05-16T00:39:45Z</time>
      </trkpt>
      <trkpt lat="45.6518" lon="6.85719">
        <ele>1979</ele>
        <time>2018-05-16T00:40:45Z</time>
      </trkpt>
      <trkpt lat="45.6516" lon="6.85705">
        <ele>1991</ele>
        <time>2018-05-16T00:41:45Z</time>
      </trkpt>
      <trkpt lat="45.65148" lon="6.85697">
        <ele>1989</ele>
        <time>2018-05-16T00:42:45Z</time>
      </trkpt>
      <trkpt lat="45.65136" lon="6.85691">
        <ele>1990</ele>
        <time>2018-05-16T00:43:45Z</time>
      </trkpt>
      <trkpt lat="45.65112" lon="6.85674">
        <ele>1991</ele>
        <time>2018-05-16T00:44:45Z</time>
      </trkpt>
      <trkpt lat="45.651" lon="6.85666">
        <ele>1975</ele>
        <time>2018-05-16T00:45:45Z</time>
      </trkpt>
      <trkpt lat="45.65091" lon="6.85661">
        <ele>1979</ele>
        <time>2018-05-16T00:46:45Z</time>
      </trkpt>
      <trkpt lat="45.65082" lon="6.85657">
        <ele>1989</ele>
        <time>2018-05-16T00:47:45Z</time>
      </trkpt>
      <trkpt lat="45.65073" lon="6.85652">
        <ele>1990</ele>
        <time>2018-05-16T00:48:45Z</time>
      </trkpt>
      <trkpt lat="45.65065" lon="6.85645">
        <ele>1991</ele>
        <time>2018-05-16T00:49:45Z</time>
      </trkpt>
      <trkpt lat="45.65056" lon="6.85636">
        <ele>1992</ele>
        <time>2018-05-16T00:50:45Z</time>
      </trkpt>
      <trkpt lat="45.6505" lon="6.85628">
        <ele>1992</ele>
        <time>2018-05-16T00:51:45Z</time>
      </trkpt>
      <trkpt lat="45.65044" lon="6.85614">
        <ele>1990</ele>
        <time>2018-05-16T00:52:45Z</time>
      </trkpt>
      <trkpt lat="45.65037" lon="6.85596">
        <ele>1989</ele>
        <time>2018-05-16T00:53:45Z</time>
      </trkpt>
      <trkpt lat="45.65033" lon="6.85582">
        <ele>1972</ele>
        <time>2018-05-16T00:54:45Z</time>
      </trkpt>
      <trkpt lat="45.65027" lon="6.85569">
        <ele>1973</ele>
        <time>2018-05-16T00:55:45Z</time>
      </trkpt>
      <trkpt lat="45.65022" lon="6.85559">
        <ele>1972</ele>
        <time>2018-05-16T00:56:45Z</time>
      </trkpt>
      <trkpt lat="45.65008" lon="6.8554">
        <ele>1971</ele>
        <time>2018-05-16T00:57:45Z</time>
      </trkpt>
      <trkpt lat="45.64994" lon="6.85517">
        <ele>1989</ele>
        <time>2018-05-16T00:58:45Z</time>
      </trkpt>
      <trkpt lat="45.64976" lon="6.85483">
        <ele>1981</ele>
        <time>2018-05-16T00:59:45Z</time>
      </trkpt>
      <trkpt lat="45.64972" lon="6.85472">
        <ele>1981</ele>
        <time>2018-05-16T01:00:45Z</time>
      </trkpt>
      <trkpt lat="45.6497" lon="6.85461">
        <ele>1981</ele>
        <time>2018-05-16T01:01:45Z</time>
      </trkpt>
      <trkpt lat="45.64969" lon="6.85447">
        <ele>1979</ele>
        <time>2018-05-16T01:02:45Z</time>
      </trkpt>
      <trkpt lat="45.64964" lon="6.85421">
        <ele>1978</ele>
        <time>2018-05-16T01:03:45Z</time>
      </trkpt>
      <trkpt lat="45.64959" lon="6.85405">
        <ele>1970</ele>
        <time>2018-05-16T01:04:45Z</time>
      </trkpt>
      <trkpt lat="45.64956" lon="6.85399">
        <ele>1970</ele>
        <time>2018-05-16T01:05:45Z</time>
      </trkpt>
      <trkpt lat="45.64951" lon="6.8539">
        <ele>1970</ele>
        <time>2018-05-16T01:06:45Z</time>
      </trkpt>
      <trkpt lat="45.64944" lon="6.85377">
        <ele>1970</ele>
        <time>2018-05-16T01:07:45Z</time>
      </trkpt>
      <trkpt lat="45.64944" lon="6.85374">
        <ele>1970</ele>
        <time>2018-05-16T01:08:45Z</time>
      </trkpt>
      <trkpt lat="45.64941" lon="6.85366">
        <ele>1969</ele>
        <time>2018-05-16T01:09:45Z</time>
      </trkpt>
      <trkpt lat="45.64924" lon="6.85329">
        <ele>1967</ele>
        <time>2018-05-16T01:10:45Z</time>
      </trkpt>
      <trkpt lat="45.64913" lon="6.85302">
        <ele>1971</ele>
        <time>2018-05-16T01:11:45Z</time>
      </trkpt>
      <trkpt lat="45.64908" lon="6.85293">
        <ele>1970</ele>
        <time>2018-05-16T01:12:45Z</time>
      </trkpt>
      <trkpt lat="45.64903" lon="6.85286">
        <ele>1969</ele>
        <time>2018-05-16T01:13:45Z</time>
      </trkpt>
      <trkpt lat="45.64896" lon="6.85279">
        <ele>1968</ele>
        <time>2018-05-16T01:14:45Z</time>
      </trkpt>
      <trkpt lat="45.64886" lon="6.85275">
        <ele>1969</ele>
        <time>2018-05-16T01:15:45Z</time>
      </trkpt>
      <trkpt lat="45.64876" lon="6.85272">
        <ele>1969</ele>
        <time>2018-05-16T01:16:45Z</time>
      </trkpt>
      <trkpt lat="45.64859" lon="6.85268">
        <ele>1970</ele>
        <time>2018-05-16T01:17:45Z</time>
      </trkpt>
      <trkpt lat="45.6485" lon="6.85264">
        <ele>1970</ele>
        <time>2018-05-16T01:18:45Z</time>
      </trkpt>
      <trkpt lat="45.64838" lon="6.85258">
        <ele>1969</ele>
        <time>2018-05-16T01:19:45Z</time>
      </trkpt>
      <trkpt lat="45.64815" lon="6.85242">
        <ele>1965</ele>
        <time>2018-05-16T01:20:45Z</time>
      </trkpt>
      <trkpt lat="45.64781" lon="6.8522">
        <ele>1964</ele>
        <time>2018-05-16T01:21:45Z</time>
      </trkpt>
      <trkpt lat="45.6477" lon="6.85214">
        <ele>1964</ele>
        <time>2018-05-16T01:22:45Z</time>
      </trkpt>
      <trkpt lat="45.6476" lon="6.85211">
        <ele>1964</ele>
        <time>2018-05-16T01:23:45Z</time>
      </trkpt>
      <trkpt lat="45.6475" lon="6.85209">
        <ele>1964</ele>
        <time>2018-05-16T01:24:45Z</time>
      </trkpt>
      <trkpt lat="45.64741" lon="6.85209">
        <ele>1975</ele>
        <time>2018-05-16T01:25:45Z</time>
      </trkpt>
      <trkpt lat="45.64731" lon="6.85208">
        <ele>1976</ele>
        <time>2018-05-16T01:26:45Z</time>
      </trkpt>
      <trkpt lat="45.64722" lon="6.85204">
        <ele>1976</ele>
        <time>2018-05-16T01:27:45Z</time>
      </trkpt>
      <trkpt lat="45.64714" lon="6.852">
        <ele>1977</ele>
        <time>2018-05-16T01:28:45Z</time>
      </trkpt>
      <trkpt lat="45.64709" lon="6.85194">
        <ele>1976</ele>
        <time>2018-05-16T01:29:45Z</time>
      </trkpt>
      <trkpt lat="45.64703" lon="6.85186">
        <ele>1976</ele>
        <time>2018-05-16T01:30:45Z</time>
      </trkpt>
      <trkpt lat="45.64697" lon="6.85176">
        <ele>1975</ele>
        <time>2018-05-16T01:31:45Z</time>
      </trkpt>
      <trkpt lat="45.64688" lon="6.85162">
        <ele>1958</ele>
        <time>2018-05-16T01:32:45Z</time>
      </trkpt>
      <trkpt lat="45.6466" lon="6.85125">
        <ele>1968</ele>
        <time>2018-05-16T01:33:45Z</time>
      </trkpt>
      <trkpt lat="45.64641" lon="6.85099">
        <ele>1964</ele>
        <time>2018-05-16T01:34:45Z</time>
      </trkpt>
      <trkpt lat="45.64616" lon="6.85066">
        <ele>1949</ele>
        <time>2018-05-16T01:35:45Z</time>
      </trkpt>
      <trkpt lat="45.64583" lon="6.85028">
        <ele>1966</ele>
        <time>2018-05-16T01:36:45Z</time>
      </trkpt>
      <trkpt lat="45.64577" lon="6.85019">
        <ele>1962</ele>
        <time>2018-05-16T01:37:45Z</time>
      </trkpt>
      <trkpt lat="45.64565" lon="6.84999">
        <ele>1949</ele>
        <time>2018-05-16T01:38:45Z</time>
      </trkpt>
      <trkpt lat="45.64555" lon="6.84981">
        <ele>1951</ele>
        <time>2018-05-16T01:39:45Z</time>
      </trkpt>
      <trkpt lat="45.64548" lon="6.84957">
        <ele>1950</ele>
        <time>2018-05-16T01:40:45Z</time>
      </trkpt>
      <trkpt lat="45.64544" lon="6.84947">
        <ele>1950</ele>
        <time>2018-05-16T01:41:45Z</time>
      </trkpt>
      <trkpt lat="45.64539" lon="6.84941">
        <ele>1950</ele>
        <time>2018-05-16T01:42:45Z</time>
      </trkpt>
      <trkpt lat="45.64524" lon="6.84932">
        <ele>1953</ele>
        <time>2018-05-16T01:43:45Z</time>
      </trkpt>
      <trkpt lat="45.64508" lon="6.84915">
        <ele>1950</ele>
        <time>2018-05-16T01:44:45Z</time>
      </trkpt>
      <trkpt lat="45.64494" lon="6.84892">
        <ele>1957</ele>
        <time>2018-05-16T01:45:45Z</time>
      </trkpt>
      <trkpt lat="45.64482" lon="6.84868">
        <ele>1954</ele>
        <time>2018-05-16T01:46:45Z</time>
      </trkpt>
      <trkpt lat="45.64477" lon="6.84856">
        <ele>1952</ele>
        <time>2018-05-16T01:47:45Z</time>
      </trkpt>
      <trkpt lat="45.64476" lon="6.84852">
        <ele>1951</ele>
        <time>2018-05-16T01:48:45Z</time>
      </trkpt>
      <trkpt lat="45.64468" lon="6.84837">
        <ele>1951</ele>
        <time>2018-05-16T01:49:45Z</time>
      </trkpt>
      <trkpt lat="45.64452" lon="6.84812">
        <ele>1938</ele>
        <time>2018-05-16T01:50:45Z</time>
      </trkpt>
      <trkpt lat="45.64443" lon="6.84801">
        <ele>1938</ele>
        <time>2018-05-16T01:51:45Z</time>
      </trkpt>
      <trkpt lat="45.64423" lon="6.84781">
        <ele>1937</ele>
        <time>2018-05-16T01:52:45Z</time>
      </trkpt>
      <trkpt lat="45.64413" lon="6.84774">
        <ele>1950</ele>
        <time>2018-05-16T01:53:45Z</time>
      </trkpt>
      <trkpt lat="45.64403" lon="6.84771">
        <ele>1950</ele>
        <time>2018-05-16T01:54:45Z</time>
      </trkpt>
      <trkpt lat="45.64393" lon="6.8477">
        <ele>1952</ele>
        <time>2018-05-16T01:55:45Z</time>
      </trkpt>
      <trkpt lat="45.64386" lon="6.84769">
        <ele>1953</ele>
        <time>2018-05-16T01:56:45Z</time>
      </trkpt>
      <trkpt lat="45.64377" lon="6.84764">
        <ele>1954</ele>
        <time>2018-05-16T01:57:45Z</time>
      </trkpt>
      <trkpt lat="45.64369" lon="6.84757">
        <ele>1954</ele>
        <time>2018-05-16T01:58:45Z</time>
      </trkpt>
      <trkpt lat="45.64355" lon="6.84739">
        <ele>1940</ele>
        <time>2018-05-16T01:59:45Z</time>
      </trkpt>
      <trkpt lat="45.64347" lon="6.84731">
        <ele>1940</ele>
        <time>2018-05-16T02:00:45Z</time>
      </trkpt>
      <trkpt lat="45.6434" lon="6.84727">
        <ele>1940</ele>
        <time>2018-05-16T02:01:45Z</time>
      </trkpt>
      <trkpt lat="45.64335" lon="6.84722">
        <ele>1939</ele>
        <time>2018-05-16T02:02:45Z</time>
      </trkpt>
      <trkpt lat="45.64327" lon="6.84712">
        <ele>1950</ele>
        <time>2018-05-16T02:03:45Z</time>
      </trkpt>
      <trkpt lat="45.64298" lon="6.84665">
        <ele>1932</ele>
        <time>2018-05-16T02:04:45Z</time>
      </trkpt>
      <trkpt lat="45.64288" lon="6.84647">
        <ele>1933</ele>
        <time>2018-05-16T02:05:45Z</time>
      </trkpt>
      <trkpt lat="45.64261" lon="6.8461">
        <ele>1931</ele>
        <time>2018-05-16T02:06:45Z</time>
      </trkpt>
      <trkpt lat="45.64239" lon="6.84575">
        <ele>1934</ele>
        <time>2018-05-16T02:07:45Z</time>
      </trkpt>
      <trkpt lat="45.64226" lon="6.84559">
        <ele>1935</ele>
        <time>2018-05-16T02:08:45Z</time>
      </trkpt>
      <trkpt lat="45.64223" lon="6.84556">
        <ele>1935</ele>
        <time>2018-05-16T02:09:45Z</time>
      </trkpt>
      <trkpt lat="45.64218" lon="6.84547">
        <ele>1935</ele>
        <time>2018-05-16T02:10:45Z</time>
      </trkpt>
      <trkpt lat="45.64212" lon="6.84532">
        <ele>1934</ele>
        <time>2018-05-16T02:11:45Z</time>
      </trkpt>
      <trkpt lat="45.64187" lon="6.84448">
        <ele>1915</ele>
        <time>2018-05-16T02:12:45Z</time>
      </trkpt>
      <trkpt lat="45.64181" lon="6.84433">
        <ele>1915</ele>
        <time>2018-05-16T02:13:45Z</time>
      </trkpt>
      <trkpt lat="45.64176" lon="6.84428">
        <ele>1916</ele>
        <time>2018-05-16T02:14:45Z</time>
      </trkpt>
      <trkpt lat="45.64173" lon="6.84428">
        <ele>1916</ele>
        <time>2018-05-16T02:15:45Z</time>
      </trkpt>
      <trkpt lat="45.64172" lon="6.84428">
        <ele>1916</ele>
        <time>2018-05-16T02:16:45Z</time>
      </trkpt>
      <trkpt lat="45.64165" lon="6.84429">
        <ele>1919</ele>
        <time>2018-05-16T02:17:45Z</time>
      </trkpt>
      <trkpt lat="45.64158" lon="6.84432">
        <ele>1920</ele>
        <time>2018-05-16T02:18:45Z</time>
      </trkpt>
      <trkpt lat="45.6413" lon="6.8445">
        <ele>1920</ele>
        <time>2018-05-16T02:19:45Z</time>
      </trkpt>
      <trkpt lat="45.64109" lon="6.84471">
        <ele>1921</ele>
        <time>2018-05-16T02:20:45Z</time>
      </trkpt>
      <trkpt lat="45.64095" lon="6.84484">
        <ele>1923</ele>
        <time>2018-05-16T02:21:45Z</time>
      </trkpt>
      <trkpt lat="45.6406" lon="6.8452">
        <ele>1926</ele>
        <time>2018-05-16T02:22:45Z</time>
      </trkpt>
      <trkpt lat="45.64032" lon="6.84532">
        <ele>1923</ele>
        <time>2018-05-16T02:23:45Z</time>
      </trkpt>
      <trkpt lat="45.64023" lon="6.84539">
        <ele>1923</ele>
        <time>2018-05-16T02:24:45Z</time>
      </trkpt>
      <trkpt lat="45.64002" lon="6.84556">
        <ele>1924</ele>
        <time>2018-05-16T02:25:45Z</time>
      </trkpt>
      <trkpt lat="45.63979" lon="6.84578">
        <ele>1911</ele>
        <time>2018-05-16T02:26:45Z</time>
      </trkpt>
      <trkpt lat="45.63966" lon="6.84592">
        <ele>1925</ele>
        <time>2018-05-16T02:27:45Z</time>
      </trkpt>
      <trkpt lat="45.6396" lon="6.84599">
        <ele>1924</ele>
        <time>2018-05-16T02:28:45Z</time>
      </trkpt>
      <trkpt lat="45.63953" lon="6.8461">
        <ele>1924</ele>
        <time>2018-05-16T02:29:45Z</time>
      </trkpt>
      <trkpt lat="45.63947" lon="6.84619">
        <ele>1925</ele>
        <time>2018-05-16T02:30:45Z</time>
      </trkpt>
      <trkpt lat="45.63944" lon="6.84628">
        <ele>1926</ele>
        <time>2018-05-16T02:31:45Z</time>
      </trkpt>
      <trkpt lat="45.63939" lon="6.84634">
        <ele>1926</ele>
        <time>2018-05-16T02:32:45Z</time>
      </trkpt>
      <trkpt lat="45.63933" lon="6.8464">
        <ele>1927</ele>
        <time>2018-05-16T02:33:45Z</time>
      </trkpt>
      <trkpt lat="45.63926" lon="6.84644">
        <ele>1927</ele>
        <time>2018-05-16T02:34:45Z</time>
      </trkpt>
      <trkpt lat="45.63911" lon="6.84649">
        <ele>1914</ele>
        <time>2018-05-16T02:35:45Z</time>
      </trkpt>
      <trkpt lat="45.639" lon="6.84651">
        <ele>1912</ele>
        <time>2018-05-16T02:36:45Z</time>
      </trkpt>
      <trkpt lat="45.63886" lon="6.84657">
        <ele>1909</ele>
        <time>2018-05-16T02:37:45Z</time>
      </trkpt>
      <trkpt lat="45.63876" lon="6.84661">
        <ele>1907</ele>
        <time>2018-05-16T02:38:45Z</time>
      </trkpt>
      <trkpt lat="45.63864" lon="6.84666">
        <ele>1905</ele>
        <time>2018-05-16T02:39:45Z</time>
      </trkpt>
      <trkpt lat="45.63854" lon="6.84669">
        <ele>1918</ele>
        <time>2018-05-16T02:40:45Z</time>
      </trkpt>
      <trkpt lat="45.63837" lon="6.84668">
        <ele>1908</ele>
        <time>2018-05-16T02:41:45Z</time>
      </trkpt>
      <trkpt lat="45.63828" lon="6.84669">
        <ele>1905</ele>
        <time>2018-05-16T02:42:45Z</time>
      </trkpt>
      <trkpt lat="45.63825" lon="6.84669">
        <ele>1905</ele>
        <time>2018-05-16T02:43:45Z</time>
      </trkpt>
      <trkpt lat="45.63805" lon="6.84674">
        <ele>1905</ele>
        <time>2018-05-16T02:44:45Z</time>
      </trkpt>
      <trkpt lat="45.63798" lon="6.84678">
        <ele>1905</ele>
        <time>2018-05-16T02:45:45Z</time>
      </trkpt>
      <trkpt lat="45.63789" lon="6.84685">
        <ele>1904</ele>
        <time>2018-05-16T02:46:45Z</time>
      </trkpt>
      <trkpt lat="45.63783" lon="6.84693">
        <ele>1904</ele>
        <time>2018-05-16T02:47:45Z</time>
      </trkpt>
      <trkpt lat="45.63777" lon="6.84702">
        <ele>1904</ele>
        <time>2018-05-16T02:48:45Z</time>
      </trkpt>
      <trkpt lat="45.63774" lon="6.84712">
        <ele>1905</ele>
        <time>2018-05-16T02:49:45Z</time>
      </trkpt>
      <trkpt lat="45.63772" lon="6.84724">
        <ele>1905</ele>
        <time>2018-05-16T02:50:45Z</time>
      </trkpt>
      <trkpt lat="45.63772" lon="6.84734">
        <ele>1905</ele>
        <time>2018-05-16T02:51:45Z</time>
      </trkpt>
      <trkpt lat="45.63777" lon="6.84745">
        <ele>1906</ele>
        <time>2018-05-16T02:52:45Z</time>
      </trkpt>
      <trkpt lat="45.63782" lon="6.84757">
        <ele>1912</ele>
        <time>2018-05-16T02:53:45Z</time>
      </trkpt>
      <trkpt lat="45.63799" lon="6.84781">
        <ele>1916</ele>
        <time>2018-05-16T02:54:45Z</time>
      </trkpt>
      <trkpt lat="45.63802" lon="6.8479">
        <ele>1917</ele>
        <time>2018-05-16T02:55:45Z</time>
      </trkpt>
      <trkpt lat="45.63803" lon="6.84797">
        <ele>1918</ele>
        <time>2018-05-16T02:56:45Z</time>
      </trkpt>
      <trkpt lat="45.63802" lon="6.84807">
        <ele>1918</ele>
        <time>2018-05-16T02:57:45Z</time>
      </trkpt>
      <trkpt lat="45.63799" lon="6.84816">
        <ele>1918</ele>
        <time>2018-05-16T02:58:45Z</time>
      </trkpt>
      <trkpt lat="45.63791" lon="6.84828">
        <ele>1916</ele>
        <time>2018-05-16T02:59:45Z</time>
      </trkpt>
      <trkpt lat="45.63787" lon="6.84834">
        <ele>1923</ele>
        <time>2018-05-16T03:00:45Z</time>
      </trkpt>
      <trkpt lat="45.63779" lon="6.84841">
        <ele>1920</ele>
        <time>2018-05-16T03:01:45Z</time>
      </trkpt>
      <trkpt lat="45.6376" lon="6.84852">
        <ele>1916</ele>
        <time>2018-05-16T03:02:45Z</time>
      </trkpt>
      <trkpt lat="45.63747" lon="6.84865">
        <ele>1898</ele>
        <time>2018-05-16T03:03:45Z</time>
      </trkpt>
      <trkpt lat="45.63741" lon="6.84872">
        <ele>1898</ele>
        <time>2018-05-16T03:04:45Z</time>
      </trkpt>
      <trkpt lat="45.63732" lon="6.84882">
        <ele>1898</ele>
        <time>2018-05-16T03:05:45Z</time>
      </trkpt>
      <trkpt lat="45.63728" lon="6.8489">
        <ele>1899</ele>
        <time>2018-05-16T03:06:45Z</time>
      </trkpt>
      <trkpt lat="45.63722" lon="6.84903">
        <ele>1900</ele>
        <time>2018-05-16T03:07:45Z</time>
      </trkpt>
      <trkpt lat="45.63713" lon="6.84925">
        <ele>1910</ele>
        <time>2018-05-16T03:08:45Z</time>
      </trkpt>
      <trkpt lat="45.63707" lon="6.84936">
        <ele>1910</ele>
        <time>2018-05-16T03:09:45Z</time>
      </trkpt>
      <trkpt lat="45.63696" lon="6.84945">
        <ele>1908</ele>
        <time>2018-05-16T03:10:45Z</time>
      </trkpt>
      <trkpt lat="45.63684" lon="6.84955">
        <ele>1907</ele>
        <time>2018-05-16T03:11:45Z</time>
      </trkpt>
      <trkpt lat="45.63665" lon="6.84974">
        <ele>1891</ele>
        <time>2018-05-16T03:12:45Z</time>
      </trkpt>
      <trkpt lat="45.63655" lon="6.84985">
        <ele>1893</ele>
        <time>2018-05-16T03:13:45Z</time>
      </trkpt>
      <trkpt lat="45.63626" lon="6.85018">
        <ele>1904</ele>
        <time>2018-05-16T03:14:45Z</time>
      </trkpt>
      <trkpt lat="45.6362" lon="6.85025">
        <ele>1904</ele>
        <time>2018-05-16T03:15:45Z</time>
      </trkpt>
      <trkpt lat="45.63606" lon="6.85043">
        <ele>1905</ele>
        <time>2018-05-16T03:16:45Z</time>
      </trkpt>
      <trkpt lat="45.63597" lon="6.8505">
        <ele>1906</ele>
        <time>2018-05-16T03:17:45Z</time>
      </trkpt>
      <trkpt lat="45.6359" lon="6.85053">
        <ele>1906</ele>
        <time>2018-05-16T03:18:45Z</time>
      </trkpt>
      <trkpt lat="45.63583" lon="6.85051">
        <ele>1900</ele>
        <time>2018-05-16T03:19:45Z</time>
      </trkpt>
      <trkpt lat="45.63576" lon="6.85046">
        <ele>1899</ele>
        <time>2018-05-16T03:20:45Z</time>
      </trkpt>
      <trkpt lat="45.63559" lon="6.85037">
        <ele>1897</ele>
        <time>2018-05-16T03:21:45Z</time>
      </trkpt>
      <trkpt lat="45.63531" lon="6.85024">
        <ele>1896</ele>
        <time>2018-05-16T03:22:45Z</time>
      </trkpt>
      <trkpt lat="45.63528" lon="6.85023">
        <ele>1896</ele>
        <time>2018-05-16T03:23:45Z</time>
      </trkpt>
      <trkpt lat="45.63519" lon="6.85021">
        <ele>1895</ele>
        <time>2018-05-16T03:24:45Z</time>
      </trkpt>
      <trkpt lat="45.6351" lon="6.85017">
        <ele>1893</ele>
        <time>2018-05-16T03:25:45Z</time>
      </trkpt>
      <trkpt lat="45.63501" lon="6.85012">
        <ele>1891</ele>
        <time>2018-05-16T03:26:45Z</time>
      </trkpt>
      <trkpt lat="45.63491" lon="6.85005">
        <ele>1895</ele>
        <time>2018-05-16T03:27:45Z</time>
      </trkpt>
      <trkpt lat="45.63484" lon="6.84994">
        <ele>1885</ele>
        <time>2018-05-16T03:28:45Z</time>
      </trkpt>
      <trkpt lat="45.63477" lon="6.84981">
        <ele>1885</ele>
        <time>2018-05-16T03:29:45Z</time>
      </trkpt>
      <trkpt lat="45.63467" lon="6.84953">
        <ele>1881</ele>
        <time>2018-05-16T03:30:45Z</time>
      </trkpt>
      <trkpt lat="45.63459" lon="6.84939">
        <ele>1880</ele>
        <time>2018-05-16T03:31:45Z</time>
      </trkpt>
      <trkpt lat="45.63451" lon="6.8493">
        <ele>1880</ele>
        <time>2018-05-16T03:32:45Z</time>
      </trkpt>
      <trkpt lat="45.6344" lon="6.84923">
        <ele>1880</ele>
        <time>2018-05-16T03:33:45Z</time>
      </trkpt>
      <trkpt lat="45.6343" lon="6.84917">
        <ele>1880</ele>
        <time>2018-05-16T03:34:45Z</time>
      </trkpt>
      <trkpt lat="45.63419" lon="6.84913">
        <ele>1874</ele>
        <time>2018-05-16T03:35:45Z</time>
      </trkpt>
      <trkpt lat="45.63355" lon="6.84905">
        <ele>1868</ele>
        <time>2018-05-16T03:36:45Z</time>
      </trkpt>
      <trkpt lat="45.63339" lon="6.84904">
        <ele>1871</ele>
        <time>2018-05-16T03:37:45Z</time>
      </trkpt>
      <trkpt lat="45.63329" lon="6.84906">
        <ele>1875</ele>
        <time>2018-05-16T03:38:45Z</time>
      </trkpt>
      <trkpt lat="45.63316" lon="6.84909">
        <ele>1874</ele>
        <time>2018-05-16T03:39:45Z</time>
      </trkpt>
      <trkpt lat="45.63304" lon="6.8491">
        <ele>1873</ele>
        <time>2018-05-16T03:40:45Z</time>
      </trkpt>
      <trkpt lat="45.63293" lon="6.84908">
        <ele>1873</ele>
        <time>2018-05-16T03:41:45Z</time>
      </trkpt>
      <trkpt lat="45.63281" lon="6.84905">
        <ele>1875</ele>
        <time>2018-05-16T03:42:45Z</time>
      </trkpt>
      <trkpt lat="45.63258" lon="6.84895">
        <ele>1877</ele>
        <time>2018-05-16T03:43:45Z</time>
      </trkpt>
      <trkpt lat="45.63253" lon="6.84892">
        <ele>1876</ele>
        <time>2018-05-16T03:44:45Z</time>
      </trkpt>
      <trkpt lat="45.63246" lon="6.84886">
        <ele>1882</ele>
        <time>2018-05-16T03:45:45Z</time>
      </trkpt>
      <trkpt lat="45.63236" lon="6.84874">
        <ele>1879</ele>
        <time>2018-05-16T03:46:45Z</time>
      </trkpt>
      <trkpt lat="45.63225" lon="6.84863">
        <ele>1878</ele>
        <time>2018-05-16T03:47:45Z</time>
      </trkpt>
      <trkpt lat="45.63218" lon="6.84852">
        <ele>1876</ele>
        <time>2018-05-16T03:48:45Z</time>
      </trkpt>
      <trkpt lat="45.63209" lon="6.84836">
        <ele>1876</ele>
        <time>2018-05-16T03:49:45Z</time>
      </trkpt>
      <trkpt lat="45.63192" lon="6.84813">
        <ele>1858</ele>
        <time>2018-05-16T03:50:45Z</time>
      </trkpt>
      <trkpt lat="45.63182" lon="6.84802">
        <ele>1857</ele>
        <time>2018-05-16T03:51:45Z</time>
      </trkpt>
      <trkpt lat="45.63171" lon="6.84793">
        <ele>1856</ele>
        <time>2018-05-16T03:52:45Z</time>
      </trkpt>
      <trkpt lat="45.63158" lon="6.84786">
        <ele>1865</ele>
        <time>2018-05-16T03:53:45Z</time>
      </trkpt>
      <trkpt lat="45.6314" lon="6.84772">
        <ele>1863</ele>
        <time>2018-05-16T03:54:45Z</time>
      </trkpt>
      <trkpt lat="45.63133" lon="6.84763">
        <ele>1863</ele>
        <time>2018-05-16T03:55:45Z</time>
      </trkpt>
      <trkpt lat="45.63118" lon="6.84741">
        <ele>1849</ele>
        <time>2018-05-16T03:56:45Z</time>
      </trkpt>
      <trkpt lat="45.6311" lon="6.84734">
        <ele>1850</ele>
        <time>2018-05-16T03:57:45Z</time>
      </trkpt>
      <trkpt lat="45.63101" lon="6.84728">
        <ele>1850</ele>
        <time>2018-05-16T03:58:45Z</time>
      </trkpt>
      <trkpt lat="45.63078" lon="6.84718">
        <ele>1858</ele>
        <time>2018-05-16T03:59:45Z</time>
      </trkpt>
      <trkpt lat="45.63068" lon="6.84711">
        <ele>1857</ele>
        <time>2018-05-16T04:00:45Z</time>
      </trkpt>
      <trkpt lat="45.6306" lon="6.84704">
        <ele>1856</ele>
        <time>2018-05-16T04:01:45Z</time>
      </trkpt>
      <trkpt lat="45.63052" lon="6.84697">
        <ele>1856</ele>
        <time>2018-05-16T04:02:45Z</time>
      </trkpt>
      <trkpt lat="45.63043" lon="6.84685">
        <ele>1855</ele>
        <time>2018-05-16T04:03:45Z</time>
      </trkpt>
      <trkpt lat="45.63031" lon="6.84669">
        <ele>1856</ele>
        <time>2018-05-16T04:04:45Z</time>
      </trkpt>
      <trkpt lat="45.63024" lon="6.84663">
        <ele>1846</ele>
        <time>2018-05-16T04:05:45Z</time>
      </trkpt>
      <trkpt lat="45.63017" lon="6.84662">
        <ele>1848</ele>
        <time>2018-05-16T04:06:45Z</time>
      </trkpt>
      <trkpt lat="45.63012" lon="6.84663">
        <ele>1850</ele>
        <time>2018-05-16T04:07:45Z</time>
      </trkpt>
      <trkpt lat="45.63006" lon="6.84667">
        <ele>1857</ele>
        <time>2018-05-16T04:08:45Z</time>
      </trkpt>
      <trkpt lat="45.62996" lon="6.84678">
        <ele>1857</ele>
        <time>2018-05-16T04:09:45Z</time>
      </trkpt>
      <trkpt lat="45.62993" lon="6.84683">
        <ele>1857</ele>
        <time>2018-05-16T04:10:45Z</time>
      </trkpt>
      <trkpt lat="45.62989" lon="6.8469">
        <ele>1857</ele>
        <time>2018-05-16T04:11:45Z</time>
      </trkpt>
      <trkpt lat="45.62982" lon="6.84699">
        <ele>1857</ele>
        <time>2018-05-16T04:12:45Z</time>
      </trkpt>
      <trkpt lat="45.62979" lon="6.84703">
        <ele>1857</ele>
        <time>2018-05-16T04:13:45Z</time>
      </trkpt>
      <trkpt lat="45.62968" lon="6.84719">
        <ele>1857</ele>
        <time>2018-05-16T04:14:45Z</time>
      </trkpt>
      <trkpt lat="45.6296" lon="6.8473">
        <ele>1857</ele>
        <time>2018-05-16T04:15:45Z</time>
      </trkpt>
      <trkpt lat="45.62949" lon="6.8474">
        <ele>1857</ele>
        <time>2018-05-16T04:16:45Z</time>
      </trkpt>
      <trkpt lat="45.62932" lon="6.84761">
        <ele>1860</ele>
        <time>2018-05-16T04:17:45Z</time>
      </trkpt>
      <trkpt lat="45.62919" lon="6.84777">
        <ele>1861</ele>
        <time>2018-05-16T04:18:45Z</time>
      </trkpt>
      <trkpt lat="45.62902" lon="6.84794">
        <ele>1855</ele>
        <time>2018-05-16T04:19:45Z</time>
      </trkpt>
      <trkpt lat="45.62888" lon="6.84809">
        <ele>1855</ele>
        <time>2018-05-16T04:20:45Z</time>
      </trkpt>
      <trkpt lat="45.62866" lon="6.84823">
        <ele>1853</ele>
        <time>2018-05-16T04:21:45Z</time>
      </trkpt>
      <trkpt lat="45.62845" lon="6.84832">
        <ele>1852</ele>
        <time>2018-05-16T04:22:45Z</time>
      </trkpt>
      <trkpt lat="45.62826" lon="6.84841">
        <ele>1851</ele>
        <time>2018-05-16T04:23:45Z</time>
      </trkpt>
      <trkpt lat="45.62808" lon="6.84851">
        <ele>1850</ele>
        <time>2018-05-16T04:24:45Z</time>
      </trkpt>
      <trkpt lat="45.62794" lon="6.84859">
        <ele>1849</ele>
        <time>2018-05-16T04:25:45Z</time>
      </trkpt>
      <trkpt lat="45.62782" lon="6.8487">
        <ele>1849</ele>
        <time>2018-05-16T04:26:45Z</time>
      </trkpt>
      <trkpt lat="45.62771" lon="6.84883">
        <ele>1848</ele>
        <time>2018-05-16T04:27:45Z</time>
      </trkpt>
      <trkpt lat="45.62761" lon="6.849">
        <ele>1848</ele>
        <time>2018-05-16T04:28:45Z</time>
      </trkpt>
      <trkpt lat="45.62752" lon="6.84919">
        <ele>1849</ele>
        <time>2018-05-16T04:29:45Z</time>
      </trkpt>
      <trkpt lat="45.62748" lon="6.84927">
        <ele>1845</ele>
        <time>2018-05-16T04:30:45Z</time>
      </trkpt>
      <trkpt lat="45.62741" lon="6.8494">
        <ele>1844</ele>
        <time>2018-05-16T04:31:45Z</time>
      </trkpt>
      <trkpt lat="45.62733" lon="6.84951">
        <ele>1844</ele>
        <time>2018-05-16T04:32:45Z</time>
      </trkpt>
      <trkpt lat="45.62723" lon="6.84961">
        <ele>1843</ele>
        <time>2018-05-16T04:33:45Z</time>
      </trkpt>
      <trkpt lat="45.6271" lon="6.84971">
        <ele>1842</ele>
        <time>2018-05-16T04:34:45Z</time>
      </trkpt>
      <trkpt lat="45.62701" lon="6.84981">
        <ele>1842</ele>
        <time>2018-05-16T04:35:45Z</time>
      </trkpt>
      <trkpt lat="45.62692" lon="6.84993">
        <ele>1841</ele>
        <time>2018-05-16T04:36:45Z</time>
      </trkpt>
      <trkpt lat="45.62686" lon="6.85005">
        <ele>1844</ele>
        <time>2018-05-16T04:37:45Z</time>
      </trkpt>
      <trkpt lat="45.6268" lon="6.85017">
        <ele>1845</ele>
        <time>2018-05-16T04:38:45Z</time>
      </trkpt>
      <trkpt lat="45.62675" lon="6.85035">
        <ele>1847</ele>
        <time>2018-05-16T04:39:45Z</time>
      </trkpt>
      <trkpt lat="45.62668" lon="6.85052">
        <ele>1847</ele>
        <time>2018-05-16T04:40:45Z</time>
      </trkpt>
      <trkpt lat="45.62663" lon="6.85062">
        <ele>1837</ele>
        <time>2018-05-16T04:41:45Z</time>
      </trkpt>
      <trkpt lat="45.62653" lon="6.85074">
        <ele>1838</ele>
        <time>2018-05-16T04:42:45Z</time>
      </trkpt>
      <trkpt lat="45.62649" lon="6.85079">
        <ele>1837</ele>
        <time>2018-05-16T04:43:45Z</time>
      </trkpt>
      <trkpt lat="45.62635" lon="6.85093">
        <ele>1840</ele>
        <time>2018-05-16T04:44:45Z</time>
      </trkpt>
      <trkpt lat="45.62627" lon="6.85102">
        <ele>1839</ele>
        <time>2018-05-16T04:45:45Z</time>
      </trkpt>
      <trkpt lat="45.62619" lon="6.85113">
        <ele>1839</ele>
        <time>2018-05-16T04:46:45Z</time>
      </trkpt>
      <trkpt lat="45.62613" lon="6.85128">
        <ele>1839</ele>
        <time>2018-05-16T04:47:45Z</time>
      </trkpt>
      <trkpt lat="45.62608" lon="6.85144">
        <ele>1839</ele>
        <time>2018-05-16T04:48:45Z</time>
      </trkpt>
      <trkpt lat="45.62597" lon="6.85182">
        <ele>1841</ele>
        <time>2018-05-16T04:49:45Z</time>
      </trkpt>
      <trkpt lat="45.62588" lon="6.85216">
        <ele>1842</ele>
        <time>2018-05-16T04:50:45Z</time>
      </trkpt>
      <trkpt lat="45.62584" lon="6.85236">
        <ele>1840</ele>
        <time>2018-05-16T04:51:45Z</time>
      </trkpt>
      <trkpt lat="45.62582" lon="6.85254">
        <ele>1835</ele>
        <time>2018-05-16T04:52:45Z</time>
      </trkpt>
      <trkpt lat="45.6258" lon="6.85276">
        <ele>1828</ele>
        <time>2018-05-16T04:53:45Z</time>
      </trkpt>
      <trkpt lat="45.62578" lon="6.85297">
        <ele>1827</ele>
        <time>2018-05-16T04:54:45Z</time>
      </trkpt>
      <trkpt lat="45.62578" lon="6.85332">
        <ele>1835</ele>
        <time>2018-05-16T04:55:45Z</time>
      </trkpt>
      <trkpt lat="45.62577" lon="6.85357">
        <ele>1829</ele>
        <time>2018-05-16T04:56:45Z</time>
      </trkpt>
      <trkpt lat="45.62573" lon="6.8539">
        <ele>1827</ele>
        <time>2018-05-16T04:57:45Z</time>
      </trkpt>
      <trkpt lat="45.62568" lon="6.85426">
        <ele>1828</ele>
        <time>2018-05-16T04:58:45Z</time>
      </trkpt>
      <trkpt lat="45.62568" lon="6.85447">
        <ele>1826</ele>
        <time>2018-05-16T04:59:45Z</time>
      </trkpt>
      <trkpt lat="45.62568" lon="6.85482">
        <ele>1826</ele>
        <time>2018-05-16T05:00:45Z</time>
      </trkpt>
      <trkpt lat="45.62565" lon="6.85512">
        <ele>1827</ele>
        <time>2018-05-16T05:01:45Z</time>
      </trkpt>
      <trkpt lat="45.62561" lon="6.85524">
        <ele>1826</ele>
        <time>2018-05-16T05:02:45Z</time>
      </trkpt>
      <trkpt lat="45.62538" lon="6.85561">
        <ele>1823</ele>
        <time>2018-05-16T05:03:45Z</time>
      </trkpt>
      <trkpt lat="45.62535" lon="6.8557">
        <ele>1822</ele>
        <time>2018-05-16T05:04:45Z</time>
      </trkpt>
      <trkpt lat="45.62507" lon="6.85642">
        <ele>1824</ele>
        <time>2018-05-16T05:05:45Z</time>
      </trkpt>
      <trkpt lat="45.625" lon="6.85659">
        <ele>1818</ele>
        <time>2018-05-16T05:06:45Z</time>
      </trkpt>
      <trkpt lat="45.62491" lon="6.85676">
        <ele>1817</ele>
        <time>2018-05-16T05:07:45Z</time>
      </trkpt>
      <trkpt lat="45.62485" lon="6.85687">
        <ele>1816</ele>
        <time>2018-05-16T05:08:45Z</time>
      </trkpt>
      <trkpt lat="45.62457" lon="6.85716">
        <ele>1815</ele>
        <time>2018-05-16T05:09:45Z</time>
      </trkpt>
      <trkpt lat="45.62435" lon="6.85745">
        <ele>1812</ele>
        <time>2018-05-16T05:10:45Z</time>
      </trkpt>
      <trkpt lat="45.62423" lon="6.85765">
        <ele>1815</ele>
        <time>2018-05-16T05:11:45Z</time>
      </trkpt>
      <trkpt lat="45.62417" lon="6.85784">
        <ele>1818</ele>
        <time>2018-05-16T05:12:45Z</time>
      </trkpt>
      <trkpt lat="45.62413" lon="6.8581">
        <ele>1804</ele>
        <time>2018-05-16T05:13:45Z</time>
      </trkpt>
      <trkpt lat="45.62411" lon="6.85809">
        <ele>1803</ele>
        <time>2018-05-16T05:14:45Z</time>
      </trkpt>
      <trkpt lat="45.62409" lon="6.8581">
        <ele>1803</ele>
        <time>2018-05-16T05:15:45Z</time>
      </trkpt>
      <trkpt lat="45.62407" lon="6.85811">
        <ele>1803</ele>
        <time>2018-05-16T05:16:45Z</time>
      </trkpt>
      <trkpt lat="45.62406" lon="6.85813">
        <ele>1803</ele>
        <time>2018-05-16T05:17:45Z</time>
      </trkpt>
      <trkpt lat="45.62405" lon="6.85816">
        <ele>1804</ele>
        <time>2018-05-16T05:18:45Z</time>
      </trkpt>
      <trkpt lat="45.62404" lon="6.85818">
        <ele>1804</ele>
        <time>2018-05-16T05:19:45Z</time>
      </trkpt>
      <trkpt lat="45.62404" lon="6.85821">
        <ele>1805</ele>
        <time>2018-05-16T05:20:45Z</time>
      </trkpt>
      <trkpt lat="45.62404" lon="6.85824">
        <ele>1805</ele>
        <time>2018-05-16T05:21:45Z</time>
      </trkpt>
      <trkpt lat="45.62405" lon="6.85826">
        <ele>1806</ele>
        <time>2018-05-16T05:22:45Z</time>
      </trkpt>
      <trkpt lat="45.62407" lon="6.85828">
        <ele>1807</ele>
        <time>2018-05-16T05:23:45Z</time>
      </trkpt>
      <trkpt lat="45.62405" lon="6.85838">
        <ele>1807</ele>
        <time>2018-05-16T05:24:45Z</time>
      </trkpt>
      <trkpt lat="45.62403" lon="6.8586">
        <ele>1804</ele>
        <time>2018-05-16T05:25:45Z</time>
      </trkpt>
      <trkpt lat="45.62402" lon="6.8588">
        <ele>1803</ele>
        <time>2018-05-16T05:26:45Z</time>
      </trkpt>
      <trkpt lat="45.62403" lon="6.85904">
        <ele>1806</ele>
        <time>2018-05-16T05:27:45Z</time>
      </trkpt>
      <trkpt lat="45.62404" lon="6.85918">
        <ele>1807</ele>
        <time>2018-05-16T05:28:45Z</time>
      </trkpt>
      <trkpt lat="45.62404" lon="6.85935">
        <ele>1804</ele>
        <time>2018-05-16T05:29:45Z</time>
      </trkpt>
      <trkpt lat="45.62403" lon="6.85951">
        <ele>1802</ele>
        <time>2018-05-16T05:30:45Z</time>
      </trkpt>
      <trkpt lat="45.62401" lon="6.85968">
        <ele>1801</ele>
        <time>2018-05-16T05:31:45Z</time>
      </trkpt>
      <trkpt lat="45.624" lon="6.85982">
        <ele>1802</ele>
        <time>2018-05-16T05:32:45Z</time>
      </trkpt>
      <trkpt lat="45.62399" lon="6.85999">
        <ele>1803</ele>
        <time>2018-05-16T05:33:45Z</time>
      </trkpt>
      <trkpt lat="45.62399" lon="6.86026">
        <ele>1797</ele>
        <time>2018-05-16T05:34:45Z</time>
      </trkpt>
      <trkpt lat="45.624" lon="6.86052">
        <ele>1795</ele>
        <time>2018-05-16T05:35:45Z</time>
      </trkpt>
      <trkpt lat="45.62401" lon="6.86073">
        <ele>1797</ele>
        <time>2018-05-16T05:36:45Z</time>
      </trkpt>
      <trkpt lat="45.62403" lon="6.86087">
        <ele>1796</ele>
        <time>2018-05-16T05:37:45Z</time>
      </trkpt>
      <trkpt lat="45.62405" lon="6.86102">
        <ele>1793</ele>
        <time>2018-05-16T05:38:45Z</time>
      </trkpt>
      <trkpt lat="45.62407" lon="6.86119">
        <ele>1791</ele>
        <time>2018-05-16T05:39:45Z</time>
      </trkpt>
      <trkpt lat="45.62408" lon="6.86135">
        <ele>1791</ele>
        <time>2018-05-16T05:40:45Z</time>
      </trkpt>
      <trkpt lat="45.62409" lon="6.86152">
        <ele>1793</ele>
        <time>2018-05-16T05:41:45Z</time>
      </trkpt>
      <trkpt lat="45.62409" lon="6.86172">
        <ele>1793</ele>
        <time>2018-05-16T05:42:45Z</time>
      </trkpt>
      <trkpt lat="45.6241" lon="6.86189">
        <ele>1788</ele>
        <time>2018-05-16T05:43:45Z</time>
      </trkpt>
      <trkpt lat="45.62411" lon="6.86209">
        <ele>1785</ele>
        <time>2018-05-16T05:44:45Z</time>
      </trkpt>
      <trkpt lat="45.62414" lon="6.86232">
        <ele>1787</ele>
        <time>2018-05-16T05:45:45Z</time>
      </trkpt>
      <trkpt lat="45.62415" lon="6.86253">
        <ele>1791</ele>
        <time>2018-05-16T05:46:45Z</time>
      </trkpt>
      <trkpt lat="45.62414" lon="6.86282">
        <ele>1781</ele>
        <time>2018-05-16T05:47:45Z</time>
      </trkpt>
      <trkpt lat="45.62411" lon="6.86309">
        <ele>1780</ele>
        <time>2018-05-16T05:48:45Z</time>
      </trkpt>
      <trkpt lat="45.62409" lon="6.86324">
        <ele>1783</ele>
        <time>2018-05-16T05:49:45Z</time>
      </trkpt>
      <trkpt lat="45.62405" lon="6.86354">
        <ele>1777</ele>
        <time>2018-05-16T05:50:45Z</time>
      </trkpt>
      <trkpt lat="45.62403" lon="6.86385">
        <ele>1775</ele>
        <time>2018-05-16T05:51:45Z</time>
      </trkpt>
      <trkpt lat="45.62401" lon="6.86419">
        <ele>1776</ele>
        <time>2018-05-16T05:52:45Z</time>
      </trkpt>
      <trkpt lat="45.62401" lon="6.86439">
        <ele>1773</ele>
        <time>2018-05-16T05:53:45Z</time>
      </trkpt>
      <trkpt lat="45.62402" lon="6.86452">
        <ele>1771</ele>
        <time>2018-05-16T05:54:45Z</time>
      </trkpt>
      <trkpt lat="45.62405" lon="6.86465">
        <ele>1771</ele>
        <time>2018-05-16T05:55:45Z</time>
      </trkpt>
      <trkpt lat="45.6241" lon="6.86477">
        <ele>1772</ele>
        <time>2018-05-16T05:56:45Z</time>
      </trkpt>
      <trkpt lat="45.62418" lon="6.86492">
        <ele>1785</ele>
        <time>2018-05-16T05:57:45Z</time>
      </trkpt>
      <trkpt lat="45.62421" lon="6.86499">
        <ele>1783</ele>
        <time>2018-05-16T05:58:45Z</time>
      </trkpt>
      <trkpt lat="45.62423" lon="6.86504">
        <ele>1783</ele>
        <time>2018-05-16T05:59:45Z</time>
      </trkpt>
      <trkpt lat="45.62424" lon="6.8651">
        <ele>1784</ele>
        <time>2018-05-16T06:00:45Z</time>
      </trkpt>
      <trkpt lat="45.62424" lon="6.86515">
        <ele>1784</ele>
        <time>2018-05-16T06:01:45Z</time>
      </trkpt>
      <trkpt lat="45.62423" lon="6.8652">
        <ele>1785</ele>
        <time>2018-05-16T06:02:45Z</time>
      </trkpt>
      <trkpt lat="45.62422" lon="6.86523">
        <ele>1785</ele>
        <time>2018-05-16T06:03:45Z</time>
      </trkpt>
      <trkpt lat="45.62418" lon="6.86526">
        <ele>1785</ele>
        <time>2018-05-16T06:04:45Z</time>
      </trkpt>
      <trkpt lat="45.62415" lon="6.86528">
        <ele>1768</ele>
        <time>2018-05-16T06:05:45Z</time>
      </trkpt>
      <trkpt lat="45.6241" lon="6.86526">
        <ele>1768</ele>
        <time>2018-05-16T06:06:45Z</time>
      </trkpt>
      <trkpt lat="45.62402" lon="6.8652">
        <ele>1767</ele>
        <time>2018-05-16T06:07:45Z</time>
      </trkpt>
      <trkpt lat="45.62397" lon="6.86508">
        <ele>1768</ele>
        <time>2018-05-16T06:08:45Z</time>
      </trkpt>
      <trkpt lat="45.62394" lon="6.86493">
        <ele>1770</ele>
        <time>2018-05-16T06:09:45Z</time>
      </trkpt>
      <trkpt lat="45.6239" lon="6.86474">
        <ele>1768</ele>
        <time>2018-05-16T06:10:45Z</time>
      </trkpt>
      <trkpt lat="45.62386" lon="6.86447">
        <ele>1768</ele>
        <time>2018-05-16T06:11:45Z</time>
      </trkpt>
      <trkpt lat="45.62382" lon="6.86419">
        <ele>1769</ele>
        <time>2018-05-16T06:12:45Z</time>
      </trkpt>
      <trkpt lat="45.62378" lon="6.86399">
        <ele>1770</ele>
        <time>2018-05-16T06:13:45Z</time>
      </trkpt>
      <trkpt lat="45.62373" lon="6.86355">
        <ele>1769</ele>
        <time>2018-05-16T06:14:45Z</time>
      </trkpt>
      <trkpt lat="45.62366" lon="6.86311">
        <ele>1770</ele>
        <time>2018-05-16T06:15:45Z</time>
      </trkpt>
      <trkpt lat="45.62358" lon="6.86274">
        <ele>1770</ele>
        <time>2018-05-16T06:16:45Z</time>
      </trkpt>
      <trkpt lat="45.62347" lon="6.86228">
        <ele>1772</ele>
        <time>2018-05-16T06:17:45Z</time>
      </trkpt>
      <trkpt lat="45.62342" lon="6.86201">
        <ele>1774</ele>
        <time>2018-05-16T06:18:45Z</time>
      </trkpt>
      <trkpt lat="45.62334" lon="6.86149">
        <ele>1775</ele>
        <time>2018-05-16T06:19:45Z</time>
      </trkpt>
      <trkpt lat="45.62331" lon="6.86132">
        <ele>1759</ele>
        <time>2018-05-16T06:20:45Z</time>
      </trkpt>
      <trkpt lat="45.62327" lon="6.86116">
        <ele>1760</ele>
        <time>2018-05-16T06:21:45Z</time>
      </trkpt>
      <trkpt lat="45.62316" lon="6.86084">
        <ele>1763</ele>
        <time>2018-05-16T06:22:45Z</time>
      </trkpt>
      <trkpt lat="45.62309" lon="6.86068">
        <ele>1763</ele>
        <time>2018-05-16T06:23:45Z</time>
      </trkpt>
      <trkpt lat="45.62293" lon="6.86038">
        <ele>1760</ele>
        <time>2018-05-16T06:24:45Z</time>
      </trkpt>
      <trkpt lat="45.6228" lon="6.86009">
        <ele>1758</ele>
        <time>2018-05-16T06:25:45Z</time>
      </trkpt>
      <trkpt lat="45.62276" lon="6.85999">
        <ele>1760</ele>
        <time>2018-05-16T06:26:45Z</time>
      </trkpt>
      <trkpt lat="45.62273" lon="6.85988">
        <ele>1759</ele>
        <time>2018-05-16T06:27:45Z</time>
      </trkpt>
      <trkpt lat="45.6227" lon="6.85965">
        <ele>1761</ele>
        <time>2018-05-16T06:28:45Z</time>
      </trkpt>
      <trkpt lat="45.62267" lon="6.85915">
        <ele>1757</ele>
        <time>2018-05-16T06:29:45Z</time>
      </trkpt>
      <trkpt lat="45.62262" lon="6.85829">
        <ele>1752</ele>
        <time>2018-05-16T06:30:45Z</time>
      </trkpt>
      <trkpt lat="45.62261" lon="6.85806">
        <ele>1755</ele>
        <time>2018-05-16T06:31:45Z</time>
      </trkpt>
      <trkpt lat="45.62263" lon="6.85789">
        <ele>1755</ele>
        <time>2018-05-16T06:32:45Z</time>
      </trkpt>
      <trkpt lat="45.62264" lon="6.85782">
        <ele>1755</ele>
        <time>2018-05-16T06:33:45Z</time>
      </trkpt>
      <trkpt lat="45.62268" lon="6.85773">
        <ele>1754</ele>
        <time>2018-05-16T06:34:45Z</time>
      </trkpt>
      <trkpt lat="45.6227" lon="6.8577">
        <ele>1754</ele>
        <time>2018-05-16T06:35:45Z</time>
      </trkpt>
      <trkpt lat="45.62285" lon="6.85747">
        <ele>1753</ele>
        <time>2018-05-16T06:36:45Z</time>
      </trkpt>
      <trkpt lat="45.62289" lon="6.8574">
        <ele>1755</ele>
        <time>2018-05-16T06:37:45Z</time>
      </trkpt>
      <trkpt lat="45.62292" lon="6.8573">
        <ele>1755</ele>
        <time>2018-05-16T06:38:45Z</time>
      </trkpt>
      <trkpt lat="45.62295" lon="6.85718">
        <ele>1755</ele>
        <time>2018-05-16T06:39:45Z</time>
      </trkpt>
      <trkpt lat="45.62298" lon="6.85686">
        <ele>1754</ele>
        <time>2018-05-16T06:40:45Z</time>
      </trkpt>
      <trkpt lat="45.623" lon="6.85643">
        <ele>1748</ele>
        <time>2018-05-16T06:41:45Z</time>
      </trkpt>
      <trkpt lat="45.62306" lon="6.85591">
        <ele>1748</ele>
        <time>2018-05-16T06:42:45Z</time>
      </trkpt>
      <trkpt lat="45.62309" lon="6.85558">
        <ele>1743</ele>
        <time>2018-05-16T06:43:45Z</time>
      </trkpt>
      <trkpt lat="45.62309" lon="6.85557">
        <ele>1743</ele>
        <time>2018-05-16T06:44:45Z</time>
      </trkpt>
      <trkpt lat="45.62309" lon="6.85545">
        <ele>1741</ele>
        <time>2018-05-16T06:45:45Z</time>
      </trkpt>
      <trkpt lat="45.62307" lon="6.85517">
        <ele>1741</ele>
        <time>2018-05-16T06:46:45Z</time>
      </trkpt>
      <trkpt lat="45.62306" lon="6.85507">
        <ele>1741</ele>
        <time>2018-05-16T06:47:45Z</time>
      </trkpt>
      <trkpt lat="45.62303" lon="6.85471">
        <ele>1736</ele>
        <time>2018-05-16T06:48:45Z</time>
      </trkpt>
      <trkpt lat="45.62298" lon="6.85433">
        <ele>1735</ele>
        <time>2018-05-16T06:49:45Z</time>
      </trkpt>
      <trkpt lat="45.62295" lon="6.8541">
        <ele>1735</ele>
        <time>2018-05-16T06:50:45Z</time>
      </trkpt>
      <trkpt lat="45.62288" lon="6.85372">
        <ele>1734</ele>
        <time>2018-05-16T06:51:45Z</time>
      </trkpt>
      <trkpt lat="45.62286" lon="6.85359">
        <ele>1733</ele>
        <time>2018-05-16T06:52:45Z</time>
      </trkpt>
      <trkpt lat="45.62286" lon="6.85347">
        <ele>1733</ele>
        <time>2018-05-16T06:53:45Z</time>
      </trkpt>
      <trkpt lat="45.62286" lon="6.85334">
        <ele>1733</ele>
        <time>2018-05-16T06:54:45Z</time>
      </trkpt>
      <trkpt lat="45.62287" lon="6.85325">
        <ele>1733</ele>
        <time>2018-05-16T06:55:45Z</time>
      </trkpt>
      <trkpt lat="45.62289" lon="6.85311">
        <ele>1734</ele>
        <time>2018-05-16T06:56:45Z</time>
      </trkpt>
      <trkpt lat="45.62294" lon="6.85285">
        <ele>1735</ele>
        <time>2018-05-16T06:57:45Z</time>
      </trkpt>
      <trkpt lat="45.623" lon="6.85236">
        <ele>1730</ele>
        <time>2018-05-16T06:58:45Z</time>
      </trkpt>
      <trkpt lat="45.62314" lon="6.85196">
        <ele>1730</ele>
        <time>2018-05-16T06:59:45Z</time>
      </trkpt>
      <trkpt lat="45.6232" lon="6.85176">
        <ele>1731</ele>
        <time>2018-05-16T07:00:45Z</time>
      </trkpt>
      <trkpt lat="45.62323" lon="6.85165">
        <ele>1729</ele>
        <time>2018-05-16T07:01:45Z</time>
      </trkpt>
      <trkpt lat="45.62333" lon="6.85115">
        <ele>1722</ele>
        <time>2018-05-16T07:02:45Z</time>
      </trkpt>
      <trkpt lat="45.62336" lon="6.85106">
        <ele>1738</ele>
        <time>2018-05-16T07:03:45Z</time>
      </trkpt>
      <trkpt lat="45.62338" lon="6.85095">
        <ele>1734</ele>
        <time>2018-05-16T07:04:45Z</time>
      </trkpt>
      <trkpt lat="45.62339" lon="6.85086">
        <ele>1731</ele>
        <time>2018-05-16T07:05:45Z</time>
      </trkpt>
      <trkpt lat="45.62337" lon="6.85079">
        <ele>1730</ele>
        <time>2018-05-16T07:06:45Z</time>
      </trkpt>
      <trkpt lat="45.62335" lon="6.85076">
        <ele>1730</ele>
        <time>2018-05-16T07:07:45Z</time>
      </trkpt>
      <trkpt lat="45.62334" lon="6.85074">
        <ele>1731</ele>
        <time>2018-05-16T07:08:45Z</time>
      </trkpt>
      <trkpt lat="45.6233" lon="6.85072">
        <ele>1721</ele>
        <time>2018-05-16T07:09:45Z</time>
      </trkpt>
      <trkpt lat="45.62328" lon="6.85073">
        <ele>1721</ele>
        <time>2018-05-16T07:10:45Z</time>
      </trkpt>
      <trkpt lat="45.62324" lon="6.85075">
        <ele>1720</ele>
        <time>2018-05-16T07:11:45Z</time>
      </trkpt>
      <trkpt lat="45.62321" lon="6.85079">
        <ele>1720</ele>
        <time>2018-05-16T07:12:45Z</time>
      </trkpt>
      <trkpt lat="45.62318" lon="6.85086">
        <ele>1722</ele>
        <time>2018-05-16T07:13:45Z</time>
      </trkpt>
      <trkpt lat="45.6231" lon="6.85159">
        <ele>1723</ele>
        <time>2018-05-16T07:14:45Z</time>
      </trkpt>
      <trkpt lat="45.62301" lon="6.85185">
        <ele>1727</ele>
        <time>2018-05-16T07:15:45Z</time>
      </trkpt>
      <trkpt lat="45.62295" lon="6.85203">
        <ele>1727</ele>
        <time>2018-05-16T07:16:45Z</time>
      </trkpt>
      <trkpt lat="45.6229" lon="6.85215">
        <ele>1727</ele>
        <time>2018-05-16T07:17:45Z</time>
      </trkpt>
      <trkpt lat="45.62279" lon="6.85244">
        <ele>1726</ele>
        <time>2018-05-16T07:18:45Z</time>
      </trkpt>
      <trkpt lat="45.62277" lon="6.85249">
        <ele>1725</ele>
        <time>2018-05-16T07:19:45Z</time>
      </trkpt>
      <trkpt lat="45.62269" lon="6.85272">
        <ele>1729</ele>
        <time>2018-05-16T07:20:45Z</time>
      </trkpt>
      <trkpt lat="45.62266" lon="6.85285">
        <ele>1730</ele>
        <time>2018-05-16T07:21:45Z</time>
      </trkpt>
      <trkpt lat="45.62263" lon="6.85299">
        <ele>1729</ele>
        <time>2018-05-16T07:22:45Z</time>
      </trkpt>
      <trkpt lat="45.62255" lon="6.85341">
        <ele>1724</ele>
        <time>2018-05-16T07:23:45Z</time>
      </trkpt>
      <trkpt lat="45.62254" lon="6.85367">
        <ele>1728</ele>
        <time>2018-05-16T07:24:45Z</time>
      </trkpt>
      <trkpt lat="45.62254" lon="6.85399">
        <ele>1725</ele>
        <time>2018-05-16T07:25:45Z</time>
      </trkpt>
      <trkpt lat="45.62257" lon="6.8543">
        <ele>1724</ele>
        <time>2018-05-16T07:26:45Z</time>
      </trkpt>
      <trkpt lat="45.62257" lon="6.85446">
        <ele>1727</ele>
        <time>2018-05-16T07:27:45Z</time>
      </trkpt>
      <trkpt lat="45.62254" lon="6.85459">
        <ele>1727</ele>
        <time>2018-05-16T07:28:45Z</time>
      </trkpt>
      <trkpt lat="45.6225" lon="6.85469">
        <ele>1726</ele>
        <time>2018-05-16T07:29:45Z</time>
      </trkpt>
      <trkpt lat="45.62248" lon="6.85481">
        <ele>1707</ele>
        <time>2018-05-16T07:30:45Z</time>
      </trkpt>
      <trkpt lat="45.62243" lon="6.85522">
        <ele>1708</ele>
        <time>2018-05-16T07:31:45Z</time>
      </trkpt>
      <trkpt lat="45.62241" lon="6.85533">
        <ele>1707</ele>
        <time>2018-05-16T07:32:45Z</time>
      </trkpt>
      <trkpt lat="45.62237" lon="6.85544">
        <ele>1707</ele>
        <time>2018-05-16T07:33:45Z</time>
      </trkpt>
      <trkpt lat="45.62232" lon="6.85553">
        <ele>1707</ele>
        <time>2018-05-16T07:34:45Z</time>
      </trkpt>
      <trkpt lat="45.62217" lon="6.85574">
        <ele>1705</ele>
        <time>2018-05-16T07:35:45Z</time>
      </trkpt>
      <trkpt lat="45.62204" lon="6.85596">
        <ele>1706</ele>
        <time>2018-05-16T07:36:45Z</time>
      </trkpt>
      <trkpt lat="45.622" lon="6.85606">
        <ele>1706</ele>
        <time>2018-05-16T07:37:45Z</time>
      </trkpt>
      <trkpt lat="45.62197" lon="6.85617">
        <ele>1706</ele>
        <time>2018-05-16T07:38:45Z</time>
      </trkpt>
      <trkpt lat="45.62196" lon="6.85641">
        <ele>1706</ele>
        <time>2018-05-16T07:39:45Z</time>
      </trkpt>
      <trkpt lat="45.62199" lon="6.85663">
        <ele>1707</ele>
        <time>2018-05-16T07:40:45Z</time>
      </trkpt>
      <trkpt lat="45.62201" lon="6.8568">
        <ele>1713</ele>
        <time>2018-05-16T07:41:45Z</time>
      </trkpt>
      <trkpt lat="45.62199" lon="6.85695">
        <ele>1713</ele>
        <time>2018-05-16T07:42:45Z</time>
      </trkpt>
      <trkpt lat="45.62196" lon="6.85705">
        <ele>1713</ele>
        <time>2018-05-16T07:43:45Z</time>
      </trkpt>
      <trkpt lat="45.62193" lon="6.85713">
        <ele>1713</ele>
        <time>2018-05-16T07:44:45Z</time>
      </trkpt>
      <trkpt lat="45.62189" lon="6.85718">
        <ele>1712</ele>
        <time>2018-05-16T07:45:45Z</time>
      </trkpt>
      <trkpt lat="45.6218" lon="6.85724">
        <ele>1711</ele>
        <time>2018-05-16T07:46:45Z</time>
      </trkpt>
      <trkpt lat="45.62175" lon="6.85729">
        <ele>1710</ele>
        <time>2018-05-16T07:47:45Z</time>
      </trkpt>
      <trkpt lat="45.6217" lon="6.85733">
        <ele>1708</ele>
        <time>2018-05-16T07:48:45Z</time>
      </trkpt>
      <trkpt lat="45.62164" lon="6.85739">
        <ele>1693</ele>
        <time>2018-05-16T07:49:45Z</time>
      </trkpt>
      <trkpt lat="45.62151" lon="6.85758">
        <ele>1693</ele>
        <time>2018-05-16T07:50:45Z</time>
      </trkpt>
      <trkpt lat="45.62146" lon="6.85773">
        <ele>1690</ele>
        <time>2018-05-16T07:51:45Z</time>
      </trkpt>
      <trkpt lat="45.62142" lon="6.85792">
        <ele>1689</ele>
        <time>2018-05-16T07:52:45Z</time>
      </trkpt>
      <trkpt lat="45.62137" lon="6.85839">
        <ele>1696</ele>
        <time>2018-05-16T07:53:45Z</time>
      </trkpt>
      <trkpt lat="45.62134" lon="6.85861">
        <ele>1695</ele>
        <time>2018-05-16T07:54:45Z</time>
      </trkpt>
      <trkpt lat="45.62125" lon="6.8591">
        <ele>1694</ele>
        <time>2018-05-16T07:55:45Z</time>
      </trkpt>
      <trkpt lat="45.6212" lon="6.8596">
        <ele>1696</ele>
        <time>2018-05-16T07:56:45Z</time>
      </trkpt>
      <trkpt lat="45.62119" lon="6.85969">
        <ele>1696</ele>
        <time>2018-05-16T07:57:45Z</time>
      </trkpt>
      <trkpt lat="45.62116" lon="6.85974">
        <ele>1695</ele>
        <time>2018-05-16T07:58:45Z</time>
      </trkpt>
      <trkpt lat="45.62111" lon="6.85978">
        <ele>1694</ele>
        <time>2018-05-16T07:59:45Z</time>
      </trkpt>
      <trkpt lat="45.62107" lon="6.85978">
        <ele>1693</ele>
        <time>2018-05-16T08:00:45Z</time>
      </trkpt>
      <trkpt lat="45.62102" lon="6.85974">
        <ele>1692</ele>
        <time>2018-05-16T08:01:45Z</time>
      </trkpt>
      <trkpt lat="45.62102" lon="6.85965">
        <ele>1693</ele>
        <time>2018-05-16T08:02:45Z</time>
      </trkpt>
      <trkpt lat="45.62102" lon="6.85963">
        <ele>1693</ele>
        <time>2018-05-16T08:03:45Z</time>
      </trkpt>
      <trkpt lat="45.62103" lon="6.85957">
        <ele>1693</ele>
        <time>2018-05-16T08:04:45Z</time>
      </trkpt>
      <trkpt lat="45.62108" lon="6.85929">
        <ele>1692</ele>
        <time>2018-05-16T08:05:45Z</time>
      </trkpt>
      <trkpt lat="45.62115" lon="6.85869">
        <ele>1691</ele>
        <time>2018-05-16T08:06:45Z</time>
      </trkpt>
      <trkpt lat="45.62119" lon="6.85826">
        <ele>1685</ele>
        <time>2018-05-16T08:07:45Z</time>
      </trkpt>
      <trkpt lat="45.6212" lon="6.85792">
        <ele>1684</ele>
        <time>2018-05-16T08:08:45Z</time>
      </trkpt>
      <trkpt lat="45.62122" lon="6.85779">
        <ele>1684</ele>
        <time>2018-05-16T08:09:45Z</time>
      </trkpt>
      <trkpt lat="45.62129" lon="6.85755">
        <ele>1685</ele>
        <time>2018-05-16T08:10:45Z</time>
      </trkpt>
      <trkpt lat="45.6214" lon="6.85736">
        <ele>1684</ele>
        <time>2018-05-16T08:11:45Z</time>
      </trkpt>
      <trkpt lat="45.62145" lon="6.85725">
        <ele>1684</ele>
        <time>2018-05-16T08:12:45Z</time>
      </trkpt>
      <trkpt lat="45.62149" lon="6.85713">
        <ele>1683</ele>
        <time>2018-05-16T08:13:45Z</time>
      </trkpt>
      <trkpt lat="45.6215" lon="6.85704">
        <ele>1683</ele>
        <time>2018-05-16T08:14:45Z</time>
      </trkpt>
      <trkpt lat="45.62148" lon="6.85693">
        <ele>1683</ele>
        <time>2018-05-16T08:15:45Z</time>
      </trkpt>
      <trkpt lat="45.62144" lon="6.8567">
        <ele>1683</ele>
        <time>2018-05-16T08:16:45Z</time>
      </trkpt>
      <trkpt lat="45.62142" lon="6.85649">
        <ele>1677</ele>
        <time>2018-05-16T08:17:45Z</time>
      </trkpt>
      <trkpt lat="45.62142" lon="6.85639">
        <ele>1676</ele>
        <time>2018-05-16T08:18:45Z</time>
      </trkpt>
      <trkpt lat="45.62145" lon="6.85625">
        <ele>1675</ele>
        <time>2018-05-16T08:19:45Z</time>
      </trkpt>
      <trkpt lat="45.62151" lon="6.85601">
        <ele>1678</ele>
        <time>2018-05-16T08:20:45Z</time>
      </trkpt>
      <trkpt lat="45.62162" lon="6.85552">
        <ele>1673</ele>
        <time>2018-05-16T08:21:45Z</time>
      </trkpt>
      <trkpt lat="45.62163" lon="6.85545">
        <ele>1672</ele>
        <time>2018-05-16T08:22:45Z</time>
      </trkpt>
      <trkpt lat="45.62171" lon="6.8551">
        <ele>1686</ele>
        <time>2018-05-16T08:23:45Z</time>
      </trkpt>
      <trkpt lat="45.62173" lon="6.85499">
        <ele>1682</ele>
        <time>2018-05-16T08:24:45Z</time>
      </trkpt>
      <trkpt lat="45.62173" lon="6.8549">
        <ele>1685</ele>
        <time>2018-05-16T08:25:45Z</time>
      </trkpt>
      <trkpt lat="45.62172" lon="6.85479">
        <ele>1688</ele>
        <time>2018-05-16T08:26:45Z</time>
      </trkpt>
      <trkpt lat="45.6217" lon="6.85471">
        <ele>1689</ele>
        <time>2018-05-16T08:27:45Z</time>
      </trkpt>
      <trkpt lat="45.62167" lon="6.85462">
        <ele>1690</ele>
        <time>2018-05-16T08:28:45Z</time>
      </trkpt>
      <trkpt lat="45.62155" lon="6.85432">
        <ele>1670</ele>
        <time>2018-05-16T08:29:45Z</time>
      </trkpt>
      <trkpt lat="45.62152" lon="6.85418">
        <ele>1671</ele>
        <time>2018-05-16T08:30:45Z</time>
      </trkpt>
      <trkpt lat="45.62151" lon="6.85402">
        <ele>1669</ele>
        <time>2018-05-16T08:31:45Z</time>
      </trkpt>
      <trkpt lat="45.62149" lon="6.85386">
        <ele>1667</ele>
        <time>2018-05-16T08:32:45Z</time>
      </trkpt>
      <trkpt lat="45.62146" lon="6.85319">
        <ele>1668</ele>
        <time>2018-05-16T08:33:45Z</time>
      </trkpt>
      <trkpt lat="45.62144" lon="6.85258">
        <ele>1668</ele>
        <time>2018-05-16T08:34:45Z</time>
      </trkpt>
      <trkpt lat="45.62144" lon="6.85238">
        <ele>1666</ele>
        <time>2018-05-16T08:35:45Z</time>
      </trkpt>
      <trkpt lat="45.62144" lon="6.8523">
        <ele>1665</ele>
        <time>2018-05-16T08:36:45Z</time>
      </trkpt>
      <trkpt lat="45.62146" lon="6.85217">
        <ele>1663</ele>
        <time>2018-05-16T08:37:45Z</time>
      </trkpt>
      <trkpt lat="45.62147" lon="6.85204">
        <ele>1663</ele>
        <time>2018-05-16T08:38:45Z</time>
      </trkpt>
      <trkpt lat="45.62149" lon="6.85186">
        <ele>1664</ele>
        <time>2018-05-16T08:39:45Z</time>
      </trkpt>
      <trkpt lat="45.62153" lon="6.85159">
        <ele>1662</ele>
        <time>2018-05-16T08:40:45Z</time>
      </trkpt>
      <trkpt lat="45.62156" lon="6.85132">
        <ele>1656</ele>
        <time>2018-05-16T08:41:45Z</time>
      </trkpt>
      <trkpt lat="45.62165" lon="6.85102">
        <ele>1657</ele>
        <time>2018-05-16T08:42:45Z</time>
      </trkpt>
      <trkpt lat="45.6217" lon="6.85088">
        <ele>1668</ele>
        <time>2018-05-16T08:43:45Z</time>
      </trkpt>
      <trkpt lat="45.62172" lon="6.85083">
        <ele>1666</ele>
        <time>2018-05-16T08:44:45Z</time>
      </trkpt>
      <trkpt lat="45.62177" lon="6.8507">
        <ele>1669</ele>
        <time>2018-05-16T08:45:45Z</time>
      </trkpt>
      <trkpt lat="45.6218" lon="6.8506">
        <ele>1671</ele>
        <time>2018-05-16T08:46:45Z</time>
      </trkpt>
      <trkpt lat="45.62183" lon="6.85043">
        <ele>1671</ele>
        <time>2018-05-16T08:47:45Z</time>
      </trkpt>
      <trkpt lat="45.62183" lon="6.85026">
        <ele>1669</ele>
        <time>2018-05-16T08:48:45Z</time>
      </trkpt>
      <trkpt lat="45.62182" lon="6.85013">
        <ele>1666</ele>
        <time>2018-05-16T08:49:45Z</time>
      </trkpt>
      <trkpt lat="45.62178" lon="6.8497">
        <ele>1664</ele>
        <time>2018-05-16T08:50:45Z</time>
      </trkpt>
      <trkpt lat="45.62175" lon="6.84936">
        <ele>1660</ele>
        <time>2018-05-16T08:51:45Z</time>
      </trkpt>
      <trkpt lat="45.62174" lon="6.84916">
        <ele>1654</ele>
        <time>2018-05-16T08:52:45Z</time>
      </trkpt>
      <trkpt lat="45.62174" lon="6.84905">
        <ele>1656</ele>
        <time>2018-05-16T08:53:45Z</time>
      </trkpt>
      <trkpt lat="45.62176" lon="6.84864">
        <ele>1659</ele>
        <time>2018-05-16T08:54:45Z</time>
      </trkpt>
      <trkpt lat="45.62179" lon="6.84826">
        <ele>1654</ele>
        <time>2018-05-16T08:55:45Z</time>
      </trkpt>
      <trkpt lat="45.6218" lon="6.84804">
        <ele>1657</ele>
        <time>2018-05-16T08:56:45Z</time>
      </trkpt>
      <trkpt lat="45.62179" lon="6.84766">
        <ele>1655</ele>
        <time>2018-05-16T08:57:45Z</time>
      </trkpt>
      <trkpt lat="45.62178" lon="6.8474">
        <ele>1652</ele>
        <time>2018-05-16T08:58:45Z</time>
      </trkpt>
      <trkpt lat="45.62172" lon="6.84676">
        <ele>1650</ele>
        <time>2018-05-16T08:59:45Z</time>
      </trkpt>
      <trkpt lat="45.62171" lon="6.84656">
        <ele>1647</ele>
        <time>2018-05-16T09:00:45Z</time>
      </trkpt>
      <trkpt lat="45.62174" lon="6.8464">
        <ele>1649</ele>
        <time>2018-05-16T09:01:45Z</time>
      </trkpt>
      <trkpt lat="45.6218" lon="6.84624">
        <ele>1649</ele>
        <time>2018-05-16T09:02:45Z</time>
      </trkpt>
      <trkpt lat="45.62195" lon="6.84598">
        <ele>1648</ele>
        <time>2018-05-16T09:03:45Z</time>
      </trkpt>
      <trkpt lat="45.622" lon="6.84586">
        <ele>1648</ele>
        <time>2018-05-16T09:04:45Z</time>
      </trkpt>
      <trkpt lat="45.62203" lon="6.84576">
        <ele>1640</ele>
        <time>2018-05-16T09:05:45Z</time>
      </trkpt>
      <trkpt lat="45.62206" lon="6.84565">
        <ele>1640</ele>
        <time>2018-05-16T09:06:45Z</time>
      </trkpt>
      <trkpt lat="45.6221" lon="6.84554">
        <ele>1640</ele>
        <time>2018-05-16T09:07:45Z</time>
      </trkpt>
      <trkpt lat="45.62216" lon="6.84546">
        <ele>1640</ele>
        <time>2018-05-16T09:08:45Z</time>
      </trkpt>
      <trkpt lat="45.62221" lon="6.84539">
        <ele>1640</ele>
        <time>2018-05-16T09:09:45Z</time>
      </trkpt>
      <trkpt lat="45.62226" lon="6.84533">
        <ele>1641</ele>
        <time>2018-05-16T09:10:45Z</time>
      </trkpt>
      <trkpt lat="45.62232" lon="6.84526">
        <ele>1641</ele>
        <time>2018-05-16T09:11:45Z</time>
      </trkpt>
      <trkpt lat="45.62245" lon="6.84511">
        <ele>1643</ele>
        <time>2018-05-16T09:12:45Z</time>
      </trkpt>
      <trkpt lat="45.62252" lon="6.84501">
        <ele>1647</ele>
        <time>2018-05-16T09:13:45Z</time>
      </trkpt>
      <trkpt lat="45.62258" lon="6.84491">
        <ele>1647</ele>
        <time>2018-05-16T09:14:45Z</time>
      </trkpt>
      <trkpt lat="45.62274" lon="6.84449">
        <ele>1647</ele>
        <time>2018-05-16T09:15:45Z</time>
      </trkpt>
      <trkpt lat="45.62284" lon="6.84419">
        <ele>1647</ele>
        <time>2018-05-16T09:16:45Z</time>
      </trkpt>
      <trkpt lat="45.62291" lon="6.84401">
        <ele>1640</ele>
        <time>2018-05-16T09:17:45Z</time>
      </trkpt>
      <trkpt lat="45.62306" lon="6.84373">
        <ele>1640</ele>
        <time>2018-05-16T09:18:45Z</time>
      </trkpt>
      <trkpt lat="45.62312" lon="6.84363">
        <ele>1640</ele>
        <time>2018-05-16T09:19:45Z</time>
      </trkpt>
      <trkpt lat="45.62315" lon="6.84352">
        <ele>1640</ele>
        <time>2018-05-16T09:20:45Z</time>
      </trkpt>
      <trkpt lat="45.62316" lon="6.84341">
        <ele>1640</ele>
        <time>2018-05-16T09:21:45Z</time>
      </trkpt>
      <trkpt lat="45.62315" lon="6.84302">
        <ele>1631</ele>
        <time>2018-05-16T09:22:45Z</time>
      </trkpt>
      <trkpt lat="45.62317" lon="6.84288">
        <ele>1630</ele>
        <time>2018-05-16T09:23:45Z</time>
      </trkpt>
      <trkpt lat="45.62321" lon="6.84269">
        <ele>1631</ele>
        <time>2018-05-16T09:24:45Z</time>
      </trkpt>
      <trkpt lat="45.62328" lon="6.8425">
        <ele>1634</ele>
        <time>2018-05-16T09:25:45Z</time>
      </trkpt>
      <trkpt lat="45.62343" lon="6.84217">
        <ele>1634</ele>
        <time>2018-05-16T09:26:45Z</time>
      </trkpt>
      <trkpt lat="45.6235" lon="6.84203">
        <ele>1633</ele>
        <time>2018-05-16T09:27:45Z</time>
      </trkpt>
      <trkpt lat="45.62364" lon="6.84184">
        <ele>1632</ele>
        <time>2018-05-16T09:28:45Z</time>
      </trkpt>
      <trkpt lat="45.62372" lon="6.84176">
        <ele>1633</ele>
        <time>2018-05-16T09:29:45Z</time>
      </trkpt>
      <trkpt lat="45.62395" lon="6.84158">
        <ele>1624</ele>
        <time>2018-05-16T09:30:45Z</time>
      </trkpt>
      <trkpt lat="45.62425" lon="6.84138">
        <ele>1637</ele>
        <time>2018-05-16T09:31:45Z</time>
      </trkpt>
      <trkpt lat="45.62432" lon="6.84132">
        <ele>1636</ele>
        <time>2018-05-16T09:32:45Z</time>
      </trkpt>
      <trkpt lat="45.62439" lon="6.84125">
        <ele>1636</ele>
        <time>2018-05-16T09:33:45Z</time>
      </trkpt>
      <trkpt lat="45.62444" lon="6.84115">
        <ele>1635</ele>
        <time>2018-05-16T09:34:45Z</time>
      </trkpt>
      <trkpt lat="45.62455" lon="6.84079">
        <ele>1620</ele>
        <time>2018-05-16T09:35:45Z</time>
      </trkpt>
      <trkpt lat="45.62468" lon="6.84058">
        <ele>1620</ele>
        <time>2018-05-16T09:36:45Z</time>
      </trkpt>
      <trkpt lat="45.62496" lon="6.84022">
        <ele>1617</ele>
        <time>2018-05-16T09:37:45Z</time>
      </trkpt>
      <trkpt lat="45.62505" lon="6.84011">
        <ele>1626</ele>
        <time>2018-05-16T09:38:45Z</time>
      </trkpt>
      <trkpt lat="45.62514" lon="6.84004">
        <ele>1628</ele>
        <time>2018-05-16T09:39:45Z</time>
      </trkpt>
      <trkpt lat="45.62524" lon="6.83999">
        <ele>1618</ele>
        <time>2018-05-16T09:40:45Z</time>
      </trkpt>
      <trkpt lat="45.62533" lon="6.83997">
        <ele>1620</ele>
        <time>2018-05-16T09:41:45Z</time>
      </trkpt>
      <trkpt lat="45.62543" lon="6.83994">
        <ele>1622</ele>
        <time>2018-05-16T09:42:45Z</time>
      </trkpt>
      <trkpt lat="45.62549" lon="6.83992">
        <ele>1623</ele>
        <time>2018-05-16T09:43:45Z</time>
      </trkpt>
      <trkpt lat="45.62554" lon="6.83986">
        <ele>1623</ele>
        <time>2018-05-16T09:44:45Z</time>
      </trkpt>
      <trkpt lat="45.62559" lon="6.83979">
        <ele>1624</ele>
        <time>2018-05-16T09:45:45Z</time>
      </trkpt>
      <trkpt lat="45.62564" lon="6.8397">
        <ele>1622</ele>
        <time>2018-05-16T09:46:45Z</time>
      </trkpt>
      <trkpt lat="45.62569" lon="6.83957">
        <ele>1620</ele>
        <time>2018-05-16T09:47:45Z</time>
      </trkpt>
      <trkpt lat="45.62574" lon="6.83945">
        <ele>1619</ele>
        <time>2018-05-16T09:48:45Z</time>
      </trkpt>
      <trkpt lat="45.62585" lon="6.83917">
        <ele>1618</ele>
        <time>2018-05-16T09:49:45Z</time>
      </trkpt>
      <trkpt lat="45.62601" lon="6.83886">
        <ele>1620</ele>
        <time>2018-05-16T09:50:45Z</time>
      </trkpt>
      <trkpt lat="45.62604" lon="6.83878">
        <ele>1619</ele>
        <time>2018-05-16T09:51:45Z</time>
      </trkpt>
      <trkpt lat="45.62606" lon="6.83869">
        <ele>1618</ele>
        <time>2018-05-16T09:52:45Z</time>
      </trkpt>
      <trkpt lat="45.6261" lon="6.83859">
        <ele>1617</ele>
        <time>2018-05-16T09:53:45Z</time>
      </trkpt>
      <trkpt lat="45.62614" lon="6.8385">
        <ele>1616</ele>
        <time>2018-05-16T09:54:45Z</time>
      </trkpt>
      <trkpt lat="45.62644" lon="6.83817">
        <ele>1608</ele>
        <time>2018-05-16T09:55:45Z</time>
      </trkpt>
      <trkpt lat="45.62655" lon="6.83806">
        <ele>1608</ele>
        <time>2018-05-16T09:56:45Z</time>
      </trkpt>
      <trkpt lat="45.62669" lon="6.83788">
        <ele>1628</ele>
        <time>2018-05-16T09:57:45Z</time>
      </trkpt>
      <trkpt lat="45.62678" lon="6.83774">
        <ele>1624</ele>
        <time>2018-05-16T09:58:45Z</time>
      </trkpt>
      <trkpt lat="45.62696" lon="6.83732">
        <ele>1610</ele>
        <time>2018-05-16T09:59:45Z</time>
      </trkpt>
      <trkpt lat="45.62709" lon="6.83703">
        <ele>1610</ele>
        <time>2018-05-16T10:00:45Z</time>
      </trkpt>
      <trkpt lat="45.6272" lon="6.83672">
        <ele>1610</ele>
        <time>2018-05-16T10:01:45Z</time>
      </trkpt>
      <trkpt lat="45.62721" lon="6.8367">
        <ele>1610</ele>
        <time>2018-05-16T10:02:45Z</time>
      </trkpt>
      <trkpt lat="45.62726" lon="6.83655">
        <ele>1596</ele>
        <time>2018-05-16T10:03:45Z</time>
      </trkpt>
      <trkpt lat="45.62734" lon="6.83645">
        <ele>1596</ele>
        <time>2018-05-16T10:04:45Z</time>
      </trkpt>
      <trkpt lat="45.62744" lon="6.83635">
        <ele>1594</ele>
        <time>2018-05-16T10:05:45Z</time>
      </trkpt>
      <trkpt lat="45.62765" lon="6.8362">
        <ele>1612</ele>
        <time>2018-05-16T10:06:45Z</time>
      </trkpt>
      <trkpt lat="45.62772" lon="6.83612">
        <ele>1611</ele>
        <time>2018-05-16T10:07:45Z</time>
      </trkpt>
      <trkpt lat="45.62783" lon="6.83591">
        <ele>1610</ele>
        <time>2018-05-16T10:08:45Z</time>
      </trkpt>
      <trkpt lat="45.62799" lon="6.83551">
        <ele>1595</ele>
        <time>2018-05-16T10:09:45Z</time>
      </trkpt>
      <trkpt lat="45.62805" lon="6.83537">
        <ele>1595</ele>
        <time>2018-05-16T10:10:45Z</time>
      </trkpt>
      <trkpt lat="45.6282" lon="6.83519">
        <ele>1595</ele>
        <time>2018-05-16T10:11:45Z</time>
      </trkpt>
      <trkpt lat="45.62823" lon="6.83514">
        <ele>1595</ele>
        <time>2018-05-16T10:12:45Z</time>
      </trkpt>
      <trkpt lat="45.62825" lon="6.83509">
        <ele>1595</ele>
        <time>2018-05-16T10:13:45Z</time>
      </trkpt>
      <trkpt lat="45.62826" lon="6.83502">
        <ele>1595</ele>
        <time>2018-05-16T10:14:45Z</time>
      </trkpt>
      <trkpt lat="45.62824" lon="6.83496">
        <ele>1587</ele>
        <time>2018-05-16T10:15:45Z</time>
      </trkpt>
      <trkpt lat="45.62821" lon="6.83493">
        <ele>1585</ele>
        <time>2018-05-16T10:16:45Z</time>
      </trkpt>
      <trkpt lat="45.62818" lon="6.83492">
        <ele>1583</ele>
        <time>2018-05-16T10:17:45Z</time>
      </trkpt>
      <trkpt lat="45.62814" lon="6.83492">
        <ele>1581</ele>
        <time>2018-05-16T10:18:45Z</time>
      </trkpt>
      <trkpt lat="45.6281" lon="6.83494">
        <ele>1580</ele>
        <time>2018-05-16T10:19:45Z</time>
      </trkpt>
      <trkpt lat="45.62805" lon="6.83501">
        <ele>1592</ele>
        <time>2018-05-16T10:20:45Z</time>
      </trkpt>
      <trkpt lat="45.62795" lon="6.83527">
        <ele>1592</ele>
        <time>2018-05-16T10:21:45Z</time>
      </trkpt>
      <trkpt lat="45.62781" lon="6.83556">
        <ele>1592</ele>
        <time>2018-05-16T10:22:45Z</time>
      </trkpt>
      <trkpt lat="45.62765" lon="6.83584">
        <ele>1600</ele>
        <time>2018-05-16T10:23:45Z</time>
      </trkpt>
      <trkpt lat="45.62751" lon="6.83603">
        <ele>1603</ele>
        <time>2018-05-16T10:24:45Z</time>
      </trkpt>
      <trkpt lat="45.6273" lon="6.8362">
        <ele>1589</ele>
        <time>2018-05-16T10:25:45Z</time>
      </trkpt>
      <trkpt lat="45.6271" lon="6.83639">
        <ele>1589</ele>
        <time>2018-05-16T10:26:45Z</time>
      </trkpt>
      <trkpt lat="45.62702" lon="6.83643">
        <ele>1588</ele>
        <time>2018-05-16T10:27:45Z</time>
      </trkpt>
      <trkpt lat="45.62694" lon="6.8365">
        <ele>1587</ele>
        <time>2018-05-16T10:28:45Z</time>
      </trkpt>
      <trkpt lat="45.6267" lon="6.83665">
        <ele>1585</ele>
        <time>2018-05-16T10:29:45Z</time>
      </trkpt>
      <trkpt lat="45.62665" lon="6.83672">
        <ele>1584</ele>
        <time>2018-05-16T10:30:45Z</time>
      </trkpt>
      <trkpt lat="45.62664" lon="6.83672">
        <ele>1584</ele>
        <time>2018-05-16T10:31:45Z</time>
      </trkpt>
      <trkpt lat="45.62661" lon="6.83676">
        <ele>1584</ele>
        <time>2018-05-16T10:32:45Z</time>
      </trkpt>
      <trkpt lat="45.62645" lon="6.83697">
        <ele>1583</ele>
        <time>2018-05-16T10:33:45Z</time>
      </trkpt>
      <trkpt lat="45.62641" lon="6.83706">
        <ele>1583</ele>
        <time>2018-05-16T10:34:45Z</time>
      </trkpt>
      <trkpt lat="45.62622" lon="6.83753">
        <ele>1593</ele>
        <time>2018-05-16T10:35:45Z</time>
      </trkpt>
      <trkpt lat="45.62609" lon="6.83778">
        <ele>1593</ele>
        <time>2018-05-16T10:36:45Z</time>
      </trkpt>
      <trkpt lat="45.62601" lon="6.83787">
        <ele>1593</ele>
        <time>2018-05-16T10:37:45Z</time>
      </trkpt>
      <trkpt lat="45.62585" lon="6.83802">
        <ele>1593</ele>
        <time>2018-05-16T10:38:45Z</time>
      </trkpt>
      <trkpt lat="45.62572" lon="6.83825">
        <ele>1580</ele>
        <time>2018-05-16T10:39:45Z</time>
      </trkpt>
      <trkpt lat="45.62565" lon="6.83836">
        <ele>1589</ele>
        <time>2018-05-16T10:40:45Z</time>
      </trkpt>
      <trkpt lat="45.62548" lon="6.83857">
        <ele>1588</ele>
        <time>2018-05-16T10:41:45Z</time>
      </trkpt>
      <trkpt lat="45.62534" lon="6.83868">
        <ele>1588</ele>
        <time>2018-05-16T10:42:45Z</time>
      </trkpt>
      <trkpt lat="45.62519" lon="6.83876">
        <ele>1587</ele>
        <time>2018-05-16T10:43:45Z</time>
      </trkpt>
      <trkpt lat="45.62516" lon="6.83878">
        <ele>1587</ele>
        <time>2018-05-16T10:44:45Z</time>
      </trkpt>
      <trkpt lat="45.625" lon="6.83876">
        <ele>1578</ele>
        <time>2018-05-16T10:45:45Z</time>
      </trkpt>
      <trkpt lat="45.62487" lon="6.83875">
        <ele>1570</ele>
        <time>2018-05-16T10:46:45Z</time>
      </trkpt>
      <trkpt lat="45.62473" lon="6.83874">
        <ele>1569</ele>
        <time>2018-05-16T10:47:45Z</time>
      </trkpt>
      <trkpt lat="45.62458" lon="6.83875">
        <ele>1567</ele>
        <time>2018-05-16T10:48:45Z</time>
      </trkpt>
      <trkpt lat="45.62449" lon="6.83878">
        <ele>1567</ele>
        <time>2018-05-16T10:49:45Z</time>
      </trkpt>
      <trkpt lat="45.62411" lon="6.83902">
        <ele>1558</ele>
        <time>2018-05-16T10:50:45Z</time>
      </trkpt>
      <trkpt lat="45.62393" lon="6.83922">
        <ele>1566</ele>
        <time>2018-05-16T10:51:45Z</time>
      </trkpt>
      <trkpt lat="45.62382" lon="6.83935">
        <ele>1564</ele>
        <time>2018-05-16T10:52:45Z</time>
      </trkpt>
      <trkpt lat="45.62369" lon="6.8396">
        <ele>1564</ele>
        <time>2018-05-16T10:53:45Z</time>
      </trkpt>
      <trkpt lat="45.6235" lon="6.83991">
        <ele>1562</ele>
        <time>2018-05-16T10:54:45Z</time>
      </trkpt>
      <trkpt lat="45.62332" lon="6.84015">
        <ele>1558</ele>
        <time>2018-05-16T10:55:45Z</time>
      </trkpt>
      <trkpt lat="45.62323" lon="6.84026">
        <ele>1559</ele>
        <time>2018-05-16T10:56:45Z</time>
      </trkpt>
      <trkpt lat="45.62315" lon="6.84034">
        <ele>1560</ele>
        <time>2018-05-16T10:57:45Z</time>
      </trkpt>
      <trkpt lat="45.62299" lon="6.84046">
        <ele>1560</ele>
        <time>2018-05-16T10:58:45Z</time>
      </trkpt>
      <trkpt lat="45.62278" lon="6.84052">
        <ele>1559</ele>
        <time>2018-05-16T10:59:45Z</time>
      </trkpt>
      <trkpt lat="45.62244" lon="6.84062">
        <ele>1545</ele>
        <time>2018-05-16T11:00:45Z</time>
      </trkpt>
      <trkpt lat="45.62213" lon="6.8408">
        <ele>1539</ele>
        <time>2018-05-16T11:01:45Z</time>
      </trkpt>
      <trkpt lat="45.622" lon="6.84088">
        <ele>1554</ele>
        <time>2018-05-16T11:02:45Z</time>
      </trkpt>
      <trkpt lat="45.62194" lon="6.84098">
        <ele>1554</ele>
        <time>2018-05-16T11:03:45Z</time>
      </trkpt>
      <trkpt lat="45.62169" lon="6.84147">
        <ele>1560</ele>
        <time>2018-05-16T11:04:45Z</time>
      </trkpt>
      <trkpt lat="45.62156" lon="6.84161">
        <ele>1549</ele>
        <time>2018-05-16T11:05:45Z</time>
      </trkpt>
      <trkpt lat="45.62128" lon="6.8419">
        <ele>1551</ele>
        <time>2018-05-16T11:06:45Z</time>
      </trkpt>
      <trkpt lat="45.62122" lon="6.84197">
        <ele>1550</ele>
        <time>2018-05-16T11:07:45Z</time>
      </trkpt>
      <trkpt lat="45.62114" lon="6.84209">
        <ele>1550</ele>
        <time>2018-05-16T11:08:45Z</time>
      </trkpt>
      <trkpt lat="45.62094" lon="6.84246">
        <ele>1548</ele>
        <time>2018-05-16T11:09:45Z</time>
      </trkpt>
      <trkpt lat="45.62079" lon="6.84278">
        <ele>1538</ele>
        <time>2018-05-16T11:10:45Z</time>
      </trkpt>
      <trkpt lat="45.62063" lon="6.84313">
        <ele>1540</ele>
        <time>2018-05-16T11:11:45Z</time>
      </trkpt>
      <trkpt lat="45.62054" lon="6.84334">
        <ele>1547</ele>
        <time>2018-05-16T11:12:45Z</time>
      </trkpt>
      <trkpt lat="45.62048" lon="6.84352">
        <ele>1546</ele>
        <time>2018-05-16T11:13:45Z</time>
      </trkpt>
      <trkpt lat="45.62045" lon="6.84365">
        <ele>1546</ele>
        <time>2018-05-16T11:14:45Z</time>
      </trkpt>
      <trkpt lat="45.62035" lon="6.84392">
        <ele>1546</ele>
        <time>2018-05-16T11:15:45Z</time>
      </trkpt>
      <trkpt lat="45.6203" lon="6.84402">
        <ele>1545</ele>
        <time>2018-05-16T11:16:45Z</time>
      </trkpt>
      <trkpt lat="45.6202" lon="6.8442">
        <ele>1549</ele>
        <time>2018-05-16T11:17:45Z</time>
      </trkpt>
      <trkpt lat="45.61995" lon="6.84464">
        <ele>1530</ele>
        <time>2018-05-16T11:18:45Z</time>
      </trkpt>
      <trkpt lat="45.61991" lon="6.84472">
        <ele>1532</ele>
        <time>2018-05-16T11:19:45Z</time>
      </trkpt>
      <trkpt lat="45.61985" lon="6.84499">
        <ele>1537</ele>
        <time>2018-05-16T11:20:45Z</time>
      </trkpt>
      <trkpt lat="45.61984" lon="6.84503">
        <ele>1543</ele>
        <time>2018-05-16T11:21:45Z</time>
      </trkpt>
      <trkpt lat="45.61982" lon="6.84508">
        <ele>1542</ele>
        <time>2018-05-16T11:22:45Z</time>
      </trkpt>
      <trkpt lat="45.61979" lon="6.84512">
        <ele>1541</ele>
        <time>2018-05-16T11:23:45Z</time>
      </trkpt>
      <trkpt lat="45.61976" lon="6.84514">
        <ele>1540</ele>
        <time>2018-05-16T11:24:45Z</time>
      </trkpt>
      <trkpt lat="45.61971" lon="6.84514">
        <ele>1539</ele>
        <time>2018-05-16T11:25:45Z</time>
      </trkpt>
      <trkpt lat="45.6197" lon="6.84514">
        <ele>1539</ele>
        <time>2018-05-16T11:26:45Z</time>
      </trkpt>
      <trkpt lat="45.61967" lon="6.84512">
        <ele>1538</ele>
        <time>2018-05-16T11:27:45Z</time>
      </trkpt>
      <trkpt lat="45.61966" lon="6.84508">
        <ele>1537</ele>
        <time>2018-05-16T11:28:45Z</time>
      </trkpt>
      <trkpt lat="45.61965" lon="6.84502">
        <ele>1537</ele>
        <time>2018-05-16T11:29:45Z</time>
      </trkpt>
      <trkpt lat="45.61966" lon="6.84494">
        <ele>1528</ele>
        <time>2018-05-16T11:30:45Z</time>
      </trkpt>
      <trkpt lat="45.61974" lon="6.84475">
        <ele>1528</ele>
        <time>2018-05-16T11:31:45Z</time>
      </trkpt>
      <trkpt lat="45.61983" lon="6.84452">
        <ele>1527</ele>
        <time>2018-05-16T11:32:45Z</time>
      </trkpt>
      <trkpt lat="45.6199" lon="6.84439">
        <ele>1528</ele>
        <time>2018-05-16T11:33:45Z</time>
      </trkpt>
      <trkpt lat="45.62004" lon="6.84412">
        <ele>1537</ele>
        <time>2018-05-16T11:34:45Z</time>
      </trkpt>
      <trkpt lat="45.6201" lon="6.84402">
        <ele>1540</ele>
        <time>2018-05-16T11:35:45Z</time>
      </trkpt>
      <trkpt lat="45.62018" lon="6.84388">
        <ele>1542</ele>
        <time>2018-05-16T11:36:45Z</time>
      </trkpt>
      <trkpt lat="45.62036" lon="6.84328">
        <ele>1532</ele>
        <time>2018-05-16T11:37:45Z</time>
      </trkpt>
      <trkpt lat="45.62047" lon="6.84284">
        <ele>1533</ele>
        <time>2018-05-16T11:38:45Z</time>
      </trkpt>
      <trkpt lat="45.62062" lon="6.84235">
        <ele>1526</ele>
        <time>2018-05-16T11:39:45Z</time>
      </trkpt>
      <trkpt lat="45.6208" lon="6.84181">
        <ele>1522</ele>
        <time>2018-05-16T11:40:45Z</time>
      </trkpt>
      <trkpt lat="45.62085" lon="6.84167">
        <ele>1528</ele>
        <time>2018-05-16T11:41:45Z</time>
      </trkpt>
      <trkpt lat="45.62094" lon="6.84146">
        <ele>1527</ele>
        <time>2018-05-16T11:42:45Z</time>
      </trkpt>
      <trkpt lat="45.62113" lon="6.84125">
        <ele>1527</ele>
        <time>2018-05-16T11:43:45Z</time>
      </trkpt>
      <trkpt lat="45.62137" lon="6.84094">
        <ele>1528</ele>
        <time>2018-05-16T11:44:45Z</time>
      </trkpt>
      <trkpt lat="45.62158" lon="6.84065">
        <ele>1515</ele>
        <time>2018-05-16T11:45:45Z</time>
      </trkpt>
      <trkpt lat="45.62184" lon="6.8403">
        <ele>1525</ele>
        <time>2018-05-16T11:46:45Z</time>
      </trkpt>
      <trkpt lat="45.62226" lon="6.83973">
        <ele>1510</ele>
        <time>2018-05-16T11:47:45Z</time>
      </trkpt>
      <trkpt lat="45.62247" lon="6.83942">
        <ele>1508</ele>
        <time>2018-05-16T11:48:45Z</time>
      </trkpt>
      <trkpt lat="45.62255" lon="6.83926">
        <ele>1517</ele>
        <time>2018-05-16T11:49:45Z</time>
      </trkpt>
      <trkpt lat="45.62269" lon="6.83897">
        <ele>1513</ele>
        <time>2018-05-16T11:50:45Z</time>
      </trkpt>
      <trkpt lat="45.62276" lon="6.83879">
        <ele>1513</ele>
        <time>2018-05-16T11:51:45Z</time>
      </trkpt>
      <trkpt lat="45.62285" lon="6.83846">
        <ele>1511</ele>
        <time>2018-05-16T11:52:45Z</time>
      </trkpt>
      <trkpt lat="45.62294" lon="6.83822">
        <ele>1499</ele>
        <time>2018-05-16T11:53:45Z</time>
      </trkpt>
      <trkpt lat="45.62298" lon="6.83814">
        <ele>1499</ele>
        <time>2018-05-16T11:54:45Z</time>
      </trkpt>
      <trkpt lat="45.62302" lon="6.83808">
        <ele>1499</ele>
        <time>2018-05-16T11:55:45Z</time>
      </trkpt>
      <trkpt lat="45.62311" lon="6.838">
        <ele>1499</ele>
        <time>2018-05-16T11:56:45Z</time>
      </trkpt>
      <trkpt lat="45.62316" lon="6.83795">
        <ele>1499</ele>
        <time>2018-05-16T11:57:45Z</time>
      </trkpt>
      <trkpt lat="45.62349" lon="6.83776">
        <ele>1512</ele>
        <time>2018-05-16T11:58:45Z</time>
      </trkpt>
      <trkpt lat="45.62362" lon="6.83767">
        <ele>1513</ele>
        <time>2018-05-16T11:59:45Z</time>
      </trkpt>
      <trkpt lat="45.62364" lon="6.83768">
        <ele>1514</ele>
        <time>2018-05-16T12:00:45Z</time>
      </trkpt>
      <trkpt lat="45.6237" lon="6.83756">
        <ele>1514</ele>
        <time>2018-05-16T12:01:45Z</time>
      </trkpt>
      <trkpt lat="45.62374" lon="6.83737">
        <ele>1502</ele>
        <time>2018-05-16T12:02:45Z</time>
      </trkpt>
      <trkpt lat="45.62378" lon="6.83726">
        <ele>1501</ele>
        <time>2018-05-16T12:03:45Z</time>
      </trkpt>
      <trkpt lat="45.62381" lon="6.83719">
        <ele>1501</ele>
        <time>2018-05-16T12:04:45Z</time>
      </trkpt>
      <trkpt lat="45.62385" lon="6.83713">
        <ele>1501</ele>
        <time>2018-05-16T12:05:45Z</time>
      </trkpt>
      <trkpt lat="45.62406" lon="6.83697">
        <ele>1502</ele>
        <time>2018-05-16T12:06:45Z</time>
      </trkpt>
      <trkpt lat="45.62408" lon="6.83694">
        <ele>1502</ele>
        <time>2018-05-16T12:07:45Z</time>
      </trkpt>
      <trkpt lat="45.62412" lon="6.83687">
        <ele>1502</ele>
        <time>2018-05-16T12:08:45Z</time>
      </trkpt>
      <trkpt lat="45.62417" lon="6.83672">
        <ele>1507</ele>
        <time>2018-05-16T12:09:45Z</time>
      </trkpt>
      <trkpt lat="45.62424" lon="6.8365">
        <ele>1506</ele>
        <time>2018-05-16T12:10:45Z</time>
      </trkpt>
      <trkpt lat="45.62426" lon="6.83641">
        <ele>1507</ele>
        <time>2018-05-16T12:11:45Z</time>
      </trkpt>
      <trkpt lat="45.62427" lon="6.83621">
        <ele>1505</ele>
        <time>2018-05-16T12:12:45Z</time>
      </trkpt>
      <trkpt lat="45.62427" lon="6.83611">
        <ele>1502</ele>
        <time>2018-05-16T12:13:45Z</time>
      </trkpt>
      <trkpt lat="45.62427" lon="6.83605">
        <ele>1501</ele>
        <time>2018-05-16T12:14:45Z</time>
      </trkpt>
      <trkpt lat="45.62428" lon="6.83602">
        <ele>1500</ele>
        <time>2018-05-16T12:15:45Z</time>
      </trkpt>
      <trkpt lat="45.62429" lon="6.83598">
        <ele>1499</ele>
        <time>2018-05-16T12:16:45Z</time>
      </trkpt>
      <trkpt lat="45.62432" lon="6.83594">
        <ele>1499</ele>
        <time>2018-05-16T12:17:45Z</time>
      </trkpt>
      <trkpt lat="45.6244" lon="6.83585">
        <ele>1501</ele>
        <time>2018-05-16T12:18:45Z</time>
      </trkpt>
      <trkpt lat="45.62454" lon="6.83575">
        <ele>1489</ele>
        <time>2018-05-16T12:19:45Z</time>
      </trkpt>
      <trkpt lat="45.6246" lon="6.8357">
        <ele>1490</ele>
        <time>2018-05-16T12:20:45Z</time>
      </trkpt>
      <trkpt lat="45.62527" lon="6.8351">
        <ele>1504</ele>
        <time>2018-05-16T12:21:45Z</time>
      </trkpt>
      <trkpt lat="45.62547" lon="6.83493">
        <ele>1490</ele>
        <time>2018-05-16T12:22:45Z</time>
      </trkpt>
      <trkpt lat="45.62559" lon="6.83479">
        <ele>1492</ele>
        <time>2018-05-16T12:23:45Z</time>
      </trkpt>
      <trkpt lat="45.62564" lon="6.83472">
        <ele>1492</ele>
        <time>2018-05-16T12:24:45Z</time>
      </trkpt>
      <trkpt lat="45.62568" lon="6.83463">
        <ele>1490</ele>
        <time>2018-05-16T12:25:45Z</time>
      </trkpt>
      <trkpt lat="45.62571" lon="6.83445">
        <ele>1488</ele>
        <time>2018-05-16T12:26:45Z</time>
      </trkpt>
      <trkpt lat="45.62574" lon="6.83428">
        <ele>1488</ele>
        <time>2018-05-16T12:27:45Z</time>
      </trkpt>
      <trkpt lat="45.62577" lon="6.8339">
        <ele>1474</ele>
        <time>2018-05-16T12:28:45Z</time>
      </trkpt>
      <trkpt lat="45.62579" lon="6.83378">
        <ele>1471</ele>
        <time>2018-05-16T12:29:45Z</time>
      </trkpt>
      <trkpt lat="45.62583" lon="6.83367">
        <ele>1470</ele>
        <time>2018-05-16T12:30:45Z</time>
      </trkpt>
      <trkpt lat="45.62604" lon="6.83346">
        <ele>1489</ele>
        <time>2018-05-16T12:31:45Z</time>
      </trkpt>
      <trkpt lat="45.62611" lon="6.83341">
        <ele>1490</ele>
        <time>2018-05-16T12:32:45Z</time>
      </trkpt>
      <trkpt lat="45.62619" lon="6.83333">
        <ele>1481</ele>
        <time>2018-05-16T12:33:45Z</time>
      </trkpt>
      <trkpt lat="45.62628" lon="6.83323">
        <ele>1483</ele>
        <time>2018-05-16T12:34:45Z</time>
      </trkpt>
      <trkpt lat="45.62635" lon="6.8331">
        <ele>1483</ele>
        <time>2018-05-16T12:35:45Z</time>
      </trkpt>
      <trkpt lat="45.6264" lon="6.83298">
        <ele>1482</ele>
        <time>2018-05-16T12:36:45Z</time>
      </trkpt>
      <trkpt lat="45.62648" lon="6.83268">
        <ele>1481</ele>
        <time>2018-05-16T12:37:45Z</time>
      </trkpt>
      <trkpt lat="45.62653" lon="6.83254">
        <ele>1482</ele>
        <time>2018-05-16T12:38:45Z</time>
      </trkpt>
      <trkpt lat="45.62663" lon="6.83224">
        <ele>1469</ele>
        <time>2018-05-16T12:39:45Z</time>
      </trkpt>
      <trkpt lat="45.62668" lon="6.8321">
        <ele>1488</ele>
        <time>2018-05-16T12:40:45Z</time>
      </trkpt>
      <trkpt lat="45.6267" lon="6.83205">
        <ele>1488</ele>
        <time>2018-05-16T12:41:45Z</time>
      </trkpt>
      <trkpt lat="45.6268" lon="6.83178">
        <ele>1482</ele>
        <time>2018-05-16T12:42:45Z</time>
      </trkpt>
      <trkpt lat="45.62685" lon="6.83163">
        <ele>1477</ele>
        <time>2018-05-16T12:43:45Z</time>
      </trkpt>
      <trkpt lat="45.62688" lon="6.83126">
        <ele>1479</ele>
        <time>2018-05-16T12:44:45Z</time>
      </trkpt>
      <trkpt lat="45.6269" lon="6.83106">
        <ele>1477</ele>
        <time>2018-05-16T12:45:45Z</time>
      </trkpt>
      <trkpt lat="45.62694" lon="6.83087">
        <ele>1476</ele>
        <time>2018-05-16T12:46:45Z</time>
      </trkpt>
      <trkpt lat="45.62703" lon="6.8306">
        <ele>1476</ele>
        <time>2018-05-16T12:47:45Z</time>
      </trkpt>
      <trkpt lat="45.62706" lon="6.83048">
        <ele>1476</ele>
        <time>2018-05-16T12:48:45Z</time>
      </trkpt>
      <trkpt lat="45.62707" lon="6.83036">
        <ele>1476</ele>
        <time>2018-05-16T12:49:45Z</time>
      </trkpt>
      <trkpt lat="45.62704" lon="6.83019">
        <ele>1475</ele>
        <time>2018-05-16T12:50:45Z</time>
      </trkpt>
      <trkpt lat="45.62686" lon="6.82964">
        <ele>1471</ele>
        <time>2018-05-16T12:51:45Z</time>
      </trkpt>
      <trkpt lat="45.62666" lon="6.82914">
        <ele>1464</ele>
        <time>2018-05-16T12:52:45Z</time>
      </trkpt>
      <trkpt lat="45.62654" lon="6.82883">
        <ele>1455</ele>
        <time>2018-05-16T12:53:45Z</time>
      </trkpt>
      <trkpt lat="45.62639" lon="6.82835">
        <ele>1455</ele>
        <time>2018-05-16T12:54:45Z</time>
      </trkpt>
      <trkpt lat="45.62636" lon="6.82819">
        <ele>1453</ele>
        <time>2018-05-16T12:55:45Z</time>
      </trkpt>
      <trkpt lat="45.62636" lon="6.82805">
        <ele>1452</ele>
        <time>2018-05-16T12:56:45Z</time>
      </trkpt>
      <trkpt lat="45.62639" lon="6.82793">
        <ele>1451</ele>
        <time>2018-05-16T12:57:45Z</time>
      </trkpt>
      <trkpt lat="45.62646" lon="6.82785">
        <ele>1452</ele>
        <time>2018-05-16T12:58:45Z</time>
      </trkpt>
      <trkpt lat="45.62663" lon="6.82773">
        <ele>1453</ele>
        <time>2018-05-16T12:59:45Z</time>
      </trkpt>
      <trkpt lat="45.62679" lon="6.82763">
        <ele>1461</ele>
        <time>2018-05-16T13:00:45Z</time>
      </trkpt>
      <trkpt lat="45.62689" lon="6.8276">
        <ele>1462</ele>
        <time>2018-05-16T13:01:45Z</time>
      </trkpt>
      <trkpt lat="45.62694" lon="6.82758">
        <ele>1463</ele>
        <time>2018-05-16T13:02:45Z</time>
      </trkpt>
      <trkpt lat="45.62696" lon="6.82757">
        <ele>1463</ele>
        <time>2018-05-16T13:03:45Z</time>
      </trkpt>
      <trkpt lat="45.62709" lon="6.82751">
        <ele>1464</ele>
        <time>2018-05-16T13:04:45Z</time>
      </trkpt>
      <trkpt lat="45.62718" lon="6.82741">
        <ele>1457</ele>
        <time>2018-05-16T13:05:45Z</time>
      </trkpt>
      <trkpt lat="45.62725" lon="6.82728">
        <ele>1457</ele>
        <time>2018-05-16T13:06:45Z</time>
      </trkpt>
      <trkpt lat="45.62736" lon="6.82706">
        <ele>1454</ele>
        <time>2018-05-16T13:07:45Z</time>
      </trkpt>
      <trkpt lat="45.62744" lon="6.82698">
        <ele>1453</ele>
        <time>2018-05-16T13:08:45Z</time>
      </trkpt>
      <trkpt lat="45.62753" lon="6.82694">
        <ele>1457</ele>
        <time>2018-05-16T13:09:45Z</time>
      </trkpt>
      <trkpt lat="45.62764" lon="6.82695">
        <ele>1458</ele>
        <time>2018-05-16T13:10:45Z</time>
      </trkpt>
      <trkpt lat="45.62775" lon="6.82697">
        <ele>1459</ele>
        <time>2018-05-16T13:11:45Z</time>
      </trkpt>
      <trkpt lat="45.62801" lon="6.82707">
        <ele>1460</ele>
        <time>2018-05-16T13:12:45Z</time>
      </trkpt>
      <trkpt lat="45.62811" lon="6.82708">
        <ele>1461</ele>
        <time>2018-05-16T13:13:45Z</time>
      </trkpt>
      <trkpt lat="45.62817" lon="6.82705">
        <ele>1461</ele>
        <time>2018-05-16T13:14:45Z</time>
      </trkpt>
      <trkpt lat="45.6282" lon="6.82699">
        <ele>1460</ele>
        <time>2018-05-16T13:15:45Z</time>
      </trkpt>
      <trkpt lat="45.62821" lon="6.8269">
        <ele>1460</ele>
        <time>2018-05-16T13:16:45Z</time>
      </trkpt>
      <trkpt lat="45.62819" lon="6.82684">
        <ele>1460</ele>
        <time>2018-05-16T13:17:45Z</time>
      </trkpt>
      <trkpt lat="45.62815" lon="6.8268">
        <ele>1459</ele>
        <time>2018-05-16T13:18:45Z</time>
      </trkpt>
      <trkpt lat="45.62812" lon="6.82678">
        <ele>1459</ele>
        <time>2018-05-16T13:19:45Z</time>
      </trkpt>
      <trkpt lat="45.62772" lon="6.8267">
        <ele>1456</ele>
        <time>2018-05-16T13:20:45Z</time>
      </trkpt>
      <trkpt lat="45.62762" lon="6.82667">
        <ele>1453</ele>
        <time>2018-05-16T13:21:45Z</time>
      </trkpt>
      <trkpt lat="45.62749" lon="6.82665">
        <ele>1448</ele>
        <time>2018-05-16T13:22:45Z</time>
      </trkpt>
      <trkpt lat="45.6274" lon="6.82665">
        <ele>1445</ele>
        <time>2018-05-16T13:23:45Z</time>
      </trkpt>
      <trkpt lat="45.6273" lon="6.82669">
        <ele>1451</ele>
        <time>2018-05-16T13:24:45Z</time>
      </trkpt>
      <trkpt lat="45.62713" lon="6.82682">
        <ele>1451</ele>
        <time>2018-05-16T13:25:45Z</time>
      </trkpt>
      <trkpt lat="45.62704" lon="6.82687">
        <ele>1451</ele>
        <time>2018-05-16T13:26:45Z</time>
      </trkpt>
      <trkpt lat="45.62692" lon="6.82691">
        <ele>1451</ele>
        <time>2018-05-16T13:27:45Z</time>
      </trkpt>
      <trkpt lat="45.62671" lon="6.82694">
        <ele>1450</ele>
        <time>2018-05-16T13:28:45Z</time>
      </trkpt>
      <trkpt lat="45.62653" lon="6.82695">
        <ele>1442</ele>
        <time>2018-05-16T13:29:45Z</time>
      </trkpt>
      <trkpt lat="45.62649" lon="6.82695">
        <ele>1442</ele>
        <time>2018-05-16T13:30:45Z</time>
      </trkpt>
      <trkpt lat="45.62638" lon="6.82698">
        <ele>1441</ele>
        <time>2018-05-16T13:31:45Z</time>
      </trkpt>
      <trkpt lat="45.62628" lon="6.82702">
        <ele>1441</ele>
        <time>2018-05-16T13:32:45Z</time>
      </trkpt>
      <trkpt lat="45.62617" lon="6.82708">
        <ele>1440</ele>
        <time>2018-05-16T13:33:45Z</time>
      </trkpt>
      <trkpt lat="45.62607" lon="6.82715">
        <ele>1440</ele>
        <time>2018-05-16T13:34:45Z</time>
      </trkpt>
      <trkpt lat="45.62598" lon="6.82722">
        <ele>1439</ele>
        <time>2018-05-16T13:35:45Z</time>
      </trkpt>
      <trkpt lat="45.62592" lon="6.82728">
        <ele>1439</ele>
        <time>2018-05-16T13:36:45Z</time>
      </trkpt>
      <trkpt lat="45.62588" lon="6.82736">
        <ele>1439</ele>
        <time>2018-05-16T13:37:45Z</time>
      </trkpt>
      <trkpt lat="45.62584" lon="6.82741">
        <ele>1439</ele>
        <time>2018-05-16T13:38:45Z</time>
      </trkpt>
      <trkpt lat="45.62579" lon="6.82748">
        <ele>1434</ele>
        <time>2018-05-16T13:39:45Z</time>
      </trkpt>
      <trkpt lat="45.62572" lon="6.82761">
        <ele>1430</ele>
        <time>2018-05-16T13:40:45Z</time>
      </trkpt>
      <trkpt lat="45.62568" lon="6.82775">
        <ele>1427</ele>
        <time>2018-05-16T13:41:45Z</time>
      </trkpt>
      <trkpt lat="45.62566" lon="6.82791">
        <ele>1426</ele>
        <time>2018-05-16T13:42:45Z</time>
      </trkpt>
      <trkpt lat="45.62566" lon="6.82826">
        <ele>1430</ele>
        <time>2018-05-16T13:43:45Z</time>
      </trkpt>
      <trkpt lat="45.62568" lon="6.8284">
        <ele>1430</ele>
        <time>2018-05-16T13:44:45Z</time>
      </trkpt>
      <trkpt lat="45.62572" lon="6.82857">
        <ele>1427</ele>
        <time>2018-05-16T13:45:45Z</time>
      </trkpt>
      <trkpt lat="45.62577" lon="6.82874">
        <ele>1426</ele>
        <time>2018-05-16T13:46:45Z</time>
      </trkpt>
      <trkpt lat="45.62578" lon="6.82888">
        <ele>1426</ele>
        <time>2018-05-16T13:47:45Z</time>
      </trkpt>
      <trkpt lat="45.62577" lon="6.82905">
        <ele>1428</ele>
        <time>2018-05-16T13:48:45Z</time>
      </trkpt>
      <trkpt lat="45.62574" lon="6.8292">
        <ele>1428</ele>
        <time>2018-05-16T13:49:45Z</time>
      </trkpt>
      <trkpt lat="45.62566" lon="6.82946">
        <ele>1421</ele>
        <time>2018-05-16T13:50:45Z</time>
      </trkpt>
      <trkpt lat="45.62563" lon="6.82964">
        <ele>1420</ele>
        <time>2018-05-16T13:51:45Z</time>
      </trkpt>
      <trkpt lat="45.62563" lon="6.82979">
        <ele>1421</ele>
        <time>2018-05-16T13:52:45Z</time>
      </trkpt>
      <trkpt lat="45.62564" lon="6.83014">
        <ele>1420</ele>
        <time>2018-05-16T13:53:45Z</time>
      </trkpt>
      <trkpt lat="45.62566" lon="6.83032">
        <ele>1417</ele>
        <time>2018-05-16T13:54:45Z</time>
      </trkpt>
      <trkpt lat="45.62568" lon="6.8305">
        <ele>1416</ele>
        <time>2018-05-16T13:55:45Z</time>
      </trkpt>
      <trkpt lat="45.62575" lon="6.83085">
        <ele>1421</ele>
        <time>2018-05-16T13:56:45Z</time>
      </trkpt>
      <trkpt lat="45.62577" lon="6.83102">
        <ele>1418</ele>
        <time>2018-05-16T13:57:45Z</time>
      </trkpt>
      <trkpt lat="45.62577" lon="6.83119">
        <ele>1417</ele>
        <time>2018-05-16T13:58:45Z</time>
      </trkpt>
      <trkpt lat="45.62575" lon="6.83135">
        <ele>1418</ele>
        <time>2018-05-16T13:59:45Z</time>
      </trkpt>
      <trkpt lat="45.6257" lon="6.8315">
        <ele>1420</ele>
        <time>2018-05-16T14:00:45Z</time>
      </trkpt>
      <trkpt lat="45.62563" lon="6.83161">
        <ele>1419</ele>
        <time>2018-05-16T14:01:45Z</time>
      </trkpt>
      <trkpt lat="45.62545" lon="6.83176">
        <ele>1423</ele>
        <time>2018-05-16T14:02:45Z</time>
      </trkpt>
      <trkpt lat="45.62534" lon="6.83184">
        <ele>1422</ele>
        <time>2018-05-16T14:03:45Z</time>
      </trkpt>
      <trkpt lat="45.62526" lon="6.83191">
        <ele>1421</ele>
        <time>2018-05-16T14:04:45Z</time>
      </trkpt>
      <trkpt lat="45.62516" lon="6.83199">
        <ele>1420</ele>
        <time>2018-05-16T14:05:45Z</time>
      </trkpt>
      <trkpt lat="45.62508" lon="6.83198">
        <ele>1419</ele>
        <time>2018-05-16T14:06:45Z</time>
      </trkpt>
      <trkpt lat="45.62504" lon="6.83192">
        <ele>1417</ele>
        <time>2018-05-16T14:07:45Z</time>
      </trkpt>
      <trkpt lat="45.62504" lon="6.83182">
        <ele>1414</ele>
        <time>2018-05-16T14:08:45Z</time>
      </trkpt>
      <trkpt lat="45.62506" lon="6.83174">
        <ele>1411</ele>
        <time>2018-05-16T14:09:45Z</time>
      </trkpt>
      <trkpt lat="45.6251" lon="6.8317">
        <ele>1411</ele>
        <time>2018-05-16T14:10:45Z</time>
      </trkpt>
      <trkpt lat="45.6253" lon="6.83159">
        <ele>1411</ele>
        <time>2018-05-16T14:11:45Z</time>
      </trkpt>
      <trkpt lat="45.62537" lon="6.83153">
        <ele>1413</ele>
        <time>2018-05-16T14:12:45Z</time>
      </trkpt>
      <trkpt lat="45.62545" lon="6.83144">
        <ele>1414</ele>
        <time>2018-05-16T14:13:45Z</time>
      </trkpt>
      <trkpt lat="45.6255" lon="6.83134">
        <ele>1414</ele>
        <time>2018-05-16T14:14:45Z</time>
      </trkpt>
      <trkpt lat="45.62553" lon="6.83122">
        <ele>1414</ele>
        <time>2018-05-16T14:15:45Z</time>
      </trkpt>
      <trkpt lat="45.62553" lon="6.83107">
        <ele>1414</ele>
        <time>2018-05-16T14:16:45Z</time>
      </trkpt>
      <trkpt lat="45.62553" lon="6.83092">
        <ele>1414</ele>
        <time>2018-05-16T14:17:45Z</time>
      </trkpt>
      <trkpt lat="45.6255" lon="6.83076">
        <ele>1413</ele>
        <time>2018-05-16T14:18:45Z</time>
      </trkpt>
      <trkpt lat="45.62545" lon="6.83062">
        <ele>1412</ele>
        <time>2018-05-16T14:19:45Z</time>
      </trkpt>
      <trkpt lat="45.62539" lon="6.83048">
        <ele>1411</ele>
        <time>2018-05-16T14:20:45Z</time>
      </trkpt>
      <trkpt lat="45.62531" lon="6.83035">
        <ele>1410</ele>
        <time>2018-05-16T14:21:45Z</time>
      </trkpt>
      <trkpt lat="45.62515" lon="6.83015">
        <ele>1406</ele>
        <time>2018-05-16T14:22:45Z</time>
      </trkpt>
      <trkpt lat="45.6251" lon="6.83003">
        <ele>1403</ele>
        <time>2018-05-16T14:23:45Z</time>
      </trkpt>
      <trkpt lat="45.62509" lon="6.82992">
        <ele>1405</ele>
        <time>2018-05-16T14:24:45Z</time>
      </trkpt>
      <trkpt lat="45.62509" lon="6.82978">
        <ele>1409</ele>
        <time>2018-05-16T14:25:45Z</time>
      </trkpt>
      <trkpt lat="45.6251" lon="6.82946">
        <ele>1410</ele>
        <time>2018-05-16T14:26:45Z</time>
      </trkpt>
      <trkpt lat="45.6251" lon="6.82927">
        <ele>1407</ele>
        <time>2018-05-16T14:27:45Z</time>
      </trkpt>
      <trkpt lat="45.62511" lon="6.82901">
        <ele>1410</ele>
        <time>2018-05-16T14:28:45Z</time>
      </trkpt>
      <trkpt lat="45.62513" lon="6.82891">
        <ele>1412</ele>
        <time>2018-05-16T14:29:45Z</time>
      </trkpt>
      <trkpt lat="45.62516" lon="6.82881">
        <ele>1414</ele>
        <time>2018-05-16T14:30:45Z</time>
      </trkpt>
      <trkpt lat="45.62518" lon="6.82863">
        <ele>1414</ele>
        <time>2018-05-16T14:31:45Z</time>
      </trkpt>
      <trkpt lat="45.62519" lon="6.82834">
        <ele>1412</ele>
        <time>2018-05-16T14:32:45Z</time>
      </trkpt>
      <trkpt lat="45.62518" lon="6.82812">
        <ele>1416</ele>
        <time>2018-05-16T14:33:45Z</time>
      </trkpt>
      <trkpt lat="45.62517" lon="6.82794">
        <ele>1417</ele>
        <time>2018-05-16T14:34:45Z</time>
      </trkpt>
      <trkpt lat="45.62513" lon="6.82778">
        <ele>1416</ele>
        <time>2018-05-16T14:35:45Z</time>
      </trkpt>
      <trkpt lat="45.62508" lon="6.82763">
        <ele>1413</ele>
        <time>2018-05-16T14:36:45Z</time>
      </trkpt>
      <trkpt lat="45.62493" lon="6.82733">
        <ele>1394</ele>
        <time>2018-05-16T14:37:45Z</time>
      </trkpt>
      <trkpt lat="45.62485" lon="6.8272">
        <ele>1390</ele>
        <time>2018-05-16T14:38:45Z</time>
      </trkpt>
      <trkpt lat="45.62482" lon="6.82705">
        <ele>1388</ele>
        <time>2018-05-16T14:39:45Z</time>
      </trkpt>
      <trkpt lat="45.62482" lon="6.82692">
        <ele>1388</ele>
        <time>2018-05-16T14:40:45Z</time>
      </trkpt>
      <trkpt lat="45.62491" lon="6.82666">
        <ele>1393</ele>
        <time>2018-05-16T14:41:45Z</time>
      </trkpt>
      <trkpt lat="45.62497" lon="6.82653">
        <ele>1390</ele>
        <time>2018-05-16T14:42:45Z</time>
      </trkpt>
      <trkpt lat="45.62503" lon="6.82643">
        <ele>1403</ele>
        <time>2018-05-16T14:43:45Z</time>
      </trkpt>
      <trkpt lat="45.62505" lon="6.8264">
        <ele>1403</ele>
        <time>2018-05-16T14:44:45Z</time>
      </trkpt>
      <trkpt lat="45.62522" lon="6.82597">
        <ele>1400</ele>
        <time>2018-05-16T14:45:45Z</time>
      </trkpt>
      <trkpt lat="45.62527" lon="6.82584">
        <ele>1400</ele>
        <time>2018-05-16T14:46:45Z</time>
      </trkpt>
      <trkpt lat="45.62544" lon="6.82556">
        <ele>1389</ele>
        <time>2018-05-16T14:47:45Z</time>
      </trkpt>
      <trkpt lat="45.62553" lon="6.82544">
        <ele>1388</ele>
        <time>2018-05-16T14:48:45Z</time>
      </trkpt>
      <trkpt lat="45.62562" lon="6.82535">
        <ele>1388</ele>
        <time>2018-05-16T14:49:45Z</time>
      </trkpt>
      <trkpt lat="45.62577" lon="6.82523">
        <ele>1387</ele>
        <time>2018-05-16T14:50:45Z</time>
      </trkpt>
      <trkpt lat="45.62583" lon="6.82517">
        <ele>1386</ele>
        <time>2018-05-16T14:51:45Z</time>
      </trkpt>
      <trkpt lat="45.62608" lon="6.82499">
        <ele>1381</ele>
        <time>2018-05-16T14:52:45Z</time>
      </trkpt>
      <trkpt lat="45.62629" lon="6.82483">
        <ele>1381</ele>
        <time>2018-05-16T14:53:45Z</time>
      </trkpt>
      <trkpt lat="45.6264" lon="6.82476">
        <ele>1381</ele>
        <time>2018-05-16T14:54:45Z</time>
      </trkpt>
      <trkpt lat="45.62659" lon="6.82462">
        <ele>1380</ele>
        <time>2018-05-16T14:55:45Z</time>
      </trkpt>
      <trkpt lat="45.62671" lon="6.82452">
        <ele>1387</ele>
        <time>2018-05-16T14:56:45Z</time>
      </trkpt>
      <trkpt lat="45.62679" lon="6.82447">
        <ele>1386</ele>
        <time>2018-05-16T14:57:45Z</time>
      </trkpt>
      <trkpt lat="45.62695" lon="6.8244">
        <ele>1386</ele>
        <time>2018-05-16T14:58:45Z</time>
      </trkpt>
      <trkpt lat="45.62705" lon="6.82437">
        <ele>1387</ele>
        <time>2018-05-16T14:59:45Z</time>
      </trkpt>
      <trkpt lat="45.6272" lon="6.82436">
        <ele>1387</ele>
        <time>2018-05-16T15:00:45Z</time>
      </trkpt>
      <trkpt lat="45.62731" lon="6.82437">
        <ele>1387</ele>
        <time>2018-05-16T15:01:45Z</time>
      </trkpt>
      <trkpt lat="45.62739" lon="6.82436">
        <ele>1387</ele>
        <time>2018-05-16T15:02:45Z</time>
      </trkpt>
      <trkpt lat="45.62749" lon="6.82432">
        <ele>1385</ele>
        <time>2018-05-16T15:03:45Z</time>
      </trkpt>
      <trkpt lat="45.62776" lon="6.82414">
        <ele>1373</ele>
        <time>2018-05-16T15:04:45Z</time>
      </trkpt>
      <trkpt lat="45.62787" lon="6.82408">
        <ele>1373</ele>
        <time>2018-05-16T15:05:45Z</time>
      </trkpt>
      <trkpt lat="45.62797" lon="6.82404">
        <ele>1373</ele>
        <time>2018-05-16T15:06:45Z</time>
      </trkpt>
      <trkpt lat="45.6281" lon="6.82398">
        <ele>1374</ele>
        <time>2018-05-16T15:07:45Z</time>
      </trkpt>
      <trkpt lat="45.62821" lon="6.82394">
        <ele>1374</ele>
        <time>2018-05-16T15:08:45Z</time>
      </trkpt>
      <trkpt lat="45.62869" lon="6.82383">
        <ele>1379</ele>
        <time>2018-05-16T15:09:45Z</time>
      </trkpt>
      <trkpt lat="45.62885" lon="6.82369">
        <ele>1377</ele>
        <time>2018-05-16T15:10:45Z</time>
      </trkpt>
      <trkpt lat="45.62893" lon="6.8236">
        <ele>1376</ele>
        <time>2018-05-16T15:11:45Z</time>
      </trkpt>
      <trkpt lat="45.62901" lon="6.82341">
        <ele>1374</ele>
        <time>2018-05-16T15:12:45Z</time>
      </trkpt>
      <trkpt lat="45.62909" lon="6.82318">
        <ele>1361</ele>
        <time>2018-05-16T15:13:45Z</time>
      </trkpt>
      <trkpt lat="45.62915" lon="6.82306">
        <ele>1358</ele>
        <time>2018-05-16T15:14:45Z</time>
      </trkpt>
      <trkpt lat="45.62921" lon="6.82295">
        <ele>1362</ele>
        <time>2018-05-16T15:15:45Z</time>
      </trkpt>
      <trkpt lat="45.62931" lon="6.82287">
        <ele>1361</ele>
        <time>2018-05-16T15:16:45Z</time>
      </trkpt>
      <trkpt lat="45.62941" lon="6.82283">
        <ele>1360</ele>
        <time>2018-05-16T15:17:45Z</time>
      </trkpt>
      <trkpt lat="45.62971" lon="6.82275">
        <ele>1360</ele>
        <time>2018-05-16T15:18:45Z</time>
      </trkpt>
      <trkpt lat="45.62975" lon="6.82268">
        <ele>1359</ele>
        <time>2018-05-16T15:19:45Z</time>
      </trkpt>
      <trkpt lat="45.62975" lon="6.82258">
        <ele>1358</ele>
        <time>2018-05-16T15:20:45Z</time>
      </trkpt>
      <trkpt lat="45.62965" lon="6.82248">
        <ele>1346</ele>
        <time>2018-05-16T15:21:45Z</time>
      </trkpt>
      <trkpt lat="45.62957" lon="6.82249">
        <ele>1345</ele>
        <time>2018-05-16T15:22:45Z</time>
      </trkpt>
      <trkpt lat="45.62938" lon="6.82256">
        <ele>1357</ele>
        <time>2018-05-16T15:23:45Z</time>
      </trkpt>
      <trkpt lat="45.62929" lon="6.82263">
        <ele>1357</ele>
        <time>2018-05-16T15:24:45Z</time>
      </trkpt>
      <trkpt lat="45.62921" lon="6.82273">
        <ele>1358</ele>
        <time>2018-05-16T15:25:45Z</time>
      </trkpt>
      <trkpt lat="45.62907" lon="6.82293">
        <ele>1355</ele>
        <time>2018-05-16T15:26:45Z</time>
      </trkpt>
      <trkpt lat="45.62888" lon="6.82328">
        <ele>1358</ele>
        <time>2018-05-16T15:27:45Z</time>
      </trkpt>
      <trkpt lat="45.62882" lon="6.82336">
        <ele>1373</ele>
        <time>2018-05-16T15:28:45Z</time>
      </trkpt>
      <trkpt lat="45.62874" lon="6.82341">
        <ele>1372</ele>
        <time>2018-05-16T15:29:45Z</time>
      </trkpt>
      <trkpt lat="45.62865" lon="6.82344">
        <ele>1371</ele>
        <time>2018-05-16T15:30:45Z</time>
      </trkpt>
      <trkpt lat="45.62821" lon="6.82352">
        <ele>1362</ele>
        <time>2018-05-16T15:31:45Z</time>
      </trkpt>
      <trkpt lat="45.62774" lon="6.82357">
        <ele>1362</ele>
        <time>2018-05-16T15:32:45Z</time>
      </trkpt>
      <trkpt lat="45.62764" lon="6.82357">
        <ele>1360</ele>
        <time>2018-05-16T15:33:45Z</time>
      </trkpt>
      <trkpt lat="45.62719" lon="6.82354">
        <ele>1355</ele>
        <time>2018-05-16T15:34:45Z</time>
      </trkpt>
      <trkpt lat="45.62707" lon="6.82355">
        <ele>1355</ele>
        <time>2018-05-16T15:35:45Z</time>
      </trkpt>
      <trkpt lat="45.62697" lon="6.82357">
        <ele>1355</ele>
        <time>2018-05-16T15:36:45Z</time>
      </trkpt>
      <trkpt lat="45.62686" lon="6.82361">
        <ele>1355</ele>
        <time>2018-05-16T15:37:45Z</time>
      </trkpt>
      <trkpt lat="45.62675" lon="6.82362">
        <ele>1354</ele>
        <time>2018-05-16T15:38:45Z</time>
      </trkpt>
      <trkpt lat="45.62664" lon="6.82362">
        <ele>1348</ele>
        <time>2018-05-16T15:39:45Z</time>
      </trkpt>
      <trkpt lat="45.62654" lon="6.82358">
        <ele>1347</ele>
        <time>2018-05-16T15:40:45Z</time>
      </trkpt>
      <trkpt lat="45.62645" lon="6.8235">
        <ele>1346</ele>
        <time>2018-05-16T15:41:45Z</time>
      </trkpt>
      <trkpt lat="45.6264" lon="6.82348">
        <ele>1346</ele>
        <time>2018-05-16T15:42:45Z</time>
      </trkpt>
      <trkpt lat="45.62636" lon="6.82346">
        <ele>1345</ele>
        <time>2018-05-16T15:43:45Z</time>
      </trkpt>
      <trkpt lat="45.62625" lon="6.82344">
        <ele>1345</ele>
        <time>2018-05-16T15:44:45Z</time>
      </trkpt>
      <trkpt lat="45.62615" lon="6.82345">
        <ele>1344</ele>
        <time>2018-05-16T15:45:45Z</time>
      </trkpt>
      <trkpt lat="45.62607" lon="6.82349">
        <ele>1343</ele>
        <time>2018-05-16T15:46:45Z</time>
      </trkpt>
      <trkpt lat="45.62589" lon="6.82365">
        <ele>1344</ele>
        <time>2018-05-16T15:47:45Z</time>
      </trkpt>
      <trkpt lat="45.6258" lon="6.82369">
        <ele>1337</ele>
        <time>2018-05-16T15:48:45Z</time>
      </trkpt>
      <trkpt lat="45.6257" lon="6.82371">
        <ele>1337</ele>
        <time>2018-05-16T15:49:45Z</time>
      </trkpt>
      <trkpt lat="45.62559" lon="6.82372">
        <ele>1336</ele>
        <time>2018-05-16T15:50:45Z</time>
      </trkpt>
      <trkpt lat="45.62526" lon="6.82382">
        <ele>1335</ele>
        <time>2018-05-16T15:51:45Z</time>
      </trkpt>
      <trkpt lat="45.62506" lon="6.8239">
        <ele>1335</ele>
        <time>2018-05-16T15:52:45Z</time>
      </trkpt>
      <trkpt lat="45.62495" lon="6.82393">
        <ele>1327</ele>
        <time>2018-05-16T15:53:45Z</time>
      </trkpt>
      <trkpt lat="45.62484" lon="6.82394">
        <ele>1326</ele>
        <time>2018-05-16T15:54:45Z</time>
      </trkpt>
      <trkpt lat="45.62476" lon="6.82393">
        <ele>1325</ele>
        <time>2018-05-16T15:55:45Z</time>
      </trkpt>
      <trkpt lat="45.62458" lon="6.82384">
        <ele>1322</ele>
        <time>2018-05-16T15:56:45Z</time>
      </trkpt>
      <trkpt lat="45.62448" lon="6.82381">
        <ele>1321</ele>
        <time>2018-05-16T15:57:45Z</time>
      </trkpt>
      <trkpt lat="45.6244" lon="6.82382">
        <ele>1320</ele>
        <time>2018-05-16T15:58:45Z</time>
      </trkpt>
      <trkpt lat="45.62433" lon="6.82387">
        <ele>1320</ele>
        <time>2018-05-16T15:59:45Z</time>
      </trkpt>
      <trkpt lat="45.62426" lon="6.82399">
        <ele>1321</ele>
        <time>2018-05-16T16:00:45Z</time>
      </trkpt>
      <trkpt lat="45.62419" lon="6.82413">
        <ele>1323</ele>
        <time>2018-05-16T16:01:45Z</time>
      </trkpt>
      <trkpt lat="45.62413" lon="6.82425">
        <ele>1321</ele>
        <time>2018-05-16T16:02:45Z</time>
      </trkpt>
      <trkpt lat="45.62406" lon="6.82434">
        <ele>1319</ele>
        <time>2018-05-16T16:03:45Z</time>
      </trkpt>
      <trkpt lat="45.62397" lon="6.82443">
        <ele>1318</ele>
        <time>2018-05-16T16:04:45Z</time>
      </trkpt>
      <trkpt lat="45.6239" lon="6.8245">
        <ele>1318</ele>
        <time>2018-05-16T16:05:45Z</time>
      </trkpt>
      <trkpt lat="45.6238" lon="6.82457">
        <ele>1317</ele>
        <time>2018-05-16T16:06:45Z</time>
      </trkpt>
      <trkpt lat="45.62372" lon="6.82465">
        <ele>1316</ele>
        <time>2018-05-16T16:07:45Z</time>
      </trkpt>
      <trkpt lat="45.62363" lon="6.82474">
        <ele>1315</ele>
        <time>2018-05-16T16:08:45Z</time>
      </trkpt>
      <trkpt lat="45.62356" lon="6.82484">
        <ele>1314</ele>
        <time>2018-05-16T16:09:45Z</time>
      </trkpt>
      <trkpt lat="45.62353" lon="6.8249">
        <ele>1313</ele>
        <time>2018-05-16T16:10:45Z</time>
      </trkpt>
      <trkpt lat="45.62343" lon="6.8251">
        <ele>1317</ele>
        <time>2018-05-16T16:11:45Z</time>
      </trkpt>
      <trkpt lat="45.62328" lon="6.82537">
        <ele>1300</ele>
        <time>2018-05-16T16:12:45Z</time>
      </trkpt>
      <trkpt lat="45.62321" lon="6.82552">
        <ele>1300</ele>
        <time>2018-05-16T16:13:45Z</time>
      </trkpt>
      <trkpt lat="45.62315" lon="6.8257">
        <ele>1303</ele>
        <time>2018-05-16T16:14:45Z</time>
      </trkpt>
      <trkpt lat="45.62312" lon="6.82588">
        <ele>1305</ele>
        <time>2018-05-16T16:15:45Z</time>
      </trkpt>
      <trkpt lat="45.62312" lon="6.82625">
        <ele>1302</ele>
        <time>2018-05-16T16:16:45Z</time>
      </trkpt>
      <trkpt lat="45.62314" lon="6.8264">
        <ele>1303</ele>
        <time>2018-05-16T16:17:45Z</time>
      </trkpt>
      <trkpt lat="45.62316" lon="6.82657">
        <ele>1307</ele>
        <time>2018-05-16T16:18:45Z</time>
      </trkpt>
      <trkpt lat="45.62319" lon="6.8269">
        <ele>1306</ele>
        <time>2018-05-16T16:19:45Z</time>
      </trkpt>
      <trkpt lat="45.62319" lon="6.82706">
        <ele>1304</ele>
        <time>2018-05-16T16:20:45Z</time>
      </trkpt>
      <trkpt lat="45.62318" lon="6.82725">
        <ele>1305</ele>
        <time>2018-05-16T16:21:45Z</time>
      </trkpt>
      <trkpt lat="45.62315" lon="6.82743">
        <ele>1307</ele>
        <time>2018-05-16T16:22:45Z</time>
      </trkpt>
      <trkpt lat="45.62311" lon="6.82765">
        <ele>1307</ele>
        <time>2018-05-16T16:23:45Z</time>
      </trkpt>
      <trkpt lat="45.62304" lon="6.82789">
        <ele>1304</ele>
        <time>2018-05-16T16:24:45Z</time>
      </trkpt>
      <trkpt lat="45.62296" lon="6.82822">
        <ele>1304</ele>
        <time>2018-05-16T16:25:45Z</time>
      </trkpt>
      <trkpt lat="45.62294" lon="6.82834">
        <ele>1304</ele>
        <time>2018-05-16T16:26:45Z</time>
      </trkpt>
      <trkpt lat="45.62289" lon="6.82839">
        <ele>1302</ele>
        <time>2018-05-16T16:27:45Z</time>
      </trkpt>
      <trkpt lat="45.62284" lon="6.82839">
        <ele>1300</ele>
        <time>2018-05-16T16:28:45Z</time>
      </trkpt>
      <trkpt lat="45.62278" lon="6.82834">
        <ele>1298</ele>
        <time>2018-05-16T16:29:45Z</time>
      </trkpt>
      <trkpt lat="45.62276" lon="6.82825">
        <ele>1297</ele>
        <time>2018-05-16T16:30:45Z</time>
      </trkpt>
      <trkpt lat="45.6228" lon="6.82811">
        <ele>1299</ele>
        <time>2018-05-16T16:31:45Z</time>
      </trkpt>
      <trkpt lat="45.62282" lon="6.82805">
        <ele>1299</ele>
        <time>2018-05-16T16:32:45Z</time>
      </trkpt>
      <trkpt lat="45.62284" lon="6.82796">
        <ele>1300</ele>
        <time>2018-05-16T16:33:45Z</time>
      </trkpt>
      <trkpt lat="45.62296" lon="6.82769">
        <ele>1302</ele>
        <time>2018-05-16T16:34:45Z</time>
      </trkpt>
      <trkpt lat="45.62301" lon="6.82753">
        <ele>1304</ele>
        <time>2018-05-16T16:35:45Z</time>
      </trkpt>
      <trkpt lat="45.62303" lon="6.82736">
        <ele>1302</ele>
        <time>2018-05-16T16:36:45Z</time>
      </trkpt>
      <trkpt lat="45.62303" lon="6.82724">
        <ele>1302</ele>
        <time>2018-05-16T16:37:45Z</time>
      </trkpt>
      <trkpt lat="45.62303" lon="6.82707">
        <ele>1301</ele>
        <time>2018-05-16T16:38:45Z</time>
      </trkpt>
      <trkpt lat="45.62295" lon="6.82675">
        <ele>1299</ele>
        <time>2018-05-16T16:39:45Z</time>
      </trkpt>
      <trkpt lat="45.62291" lon="6.8266">
        <ele>1298</ele>
        <time>2018-05-16T16:40:45Z</time>
      </trkpt>
      <trkpt lat="45.62287" lon="6.82644">
        <ele>1296</ele>
        <time>2018-05-16T16:41:45Z</time>
      </trkpt>
      <trkpt lat="45.62277" lon="6.82615">
        <ele>1294</ele>
        <time>2018-05-16T16:42:45Z</time>
      </trkpt>
      <trkpt lat="45.62276" lon="6.82603">
        <ele>1293</ele>
        <time>2018-05-16T16:43:45Z</time>
      </trkpt>
      <trkpt lat="45.62277" lon="6.82587">
        <ele>1292</ele>
        <time>2018-05-16T16:44:45Z</time>
      </trkpt>
      <trkpt lat="45.6228" lon="6.82572">
        <ele>1291</ele>
        <time>2018-05-16T16:45:45Z</time>
      </trkpt>
      <trkpt lat="45.62283" lon="6.82555">
        <ele>1292</ele>
        <time>2018-05-16T16:46:45Z</time>
      </trkpt>
      <trkpt lat="45.62292" lon="6.82521">
        <ele>1292</ele>
        <time>2018-05-16T16:47:45Z</time>
      </trkpt>
      <trkpt lat="45.62297" lon="6.82505">
        <ele>1293</ele>
        <time>2018-05-16T16:48:45Z</time>
      </trkpt>
      <trkpt lat="45.62302" lon="6.8249">
        <ele>1288</ele>
        <time>2018-05-16T16:49:45Z</time>
      </trkpt>
      <trkpt lat="45.62308" lon="6.82473">
        <ele>1287</ele>
        <time>2018-05-16T16:50:45Z</time>
      </trkpt>
      <trkpt lat="45.62322" lon="6.82439">
        <ele>1287</ele>
        <time>2018-05-16T16:51:45Z</time>
      </trkpt>
      <trkpt lat="45.62343" lon="6.82393">
        <ele>1295</ele>
        <time>2018-05-16T16:52:45Z</time>
      </trkpt>
      <trkpt lat="45.62353" lon="6.82369">
        <ele>1294</ele>
        <time>2018-05-16T16:53:45Z</time>
      </trkpt>
      <trkpt lat="45.62358" lon="6.82358">
        <ele>1293</ele>
        <time>2018-05-16T16:54:45Z</time>
      </trkpt>
      <trkpt lat="45.62362" lon="6.82347">
        <ele>1292</ele>
        <time>2018-05-16T16:55:45Z</time>
      </trkpt>
      <trkpt lat="45.62384" lon="6.82302">
        <ele>1280</ele>
        <time>2018-05-16T16:56:45Z</time>
      </trkpt>
      <trkpt lat="45.62408" lon="6.82269">
        <ele>1278</ele>
        <time>2018-05-16T16:57:45Z</time>
      </trkpt>
      <trkpt lat="45.62412" lon="6.82265">
        <ele>1279</ele>
        <time>2018-05-16T16:58:45Z</time>
      </trkpt>
      <trkpt lat="45.62418" lon="6.82258">
        <ele>1285</ele>
        <time>2018-05-16T16:59:45Z</time>
      </trkpt>
      <trkpt lat="45.62426" lon="6.82248">
        <ele>1277</ele>
        <time>2018-05-16T17:00:45Z</time>
      </trkpt>
      <trkpt lat="45.62435" lon="6.82238">
        <ele>1276</ele>
        <time>2018-05-16T17:01:45Z</time>
      </trkpt>
      <trkpt lat="45.62443" lon="6.82231">
        <ele>1275</ele>
        <time>2018-05-16T17:02:45Z</time>
      </trkpt>
      <trkpt lat="45.62449" lon="6.82226">
        <ele>1275</ele>
        <time>2018-05-16T17:03:45Z</time>
      </trkpt>
      <trkpt lat="45.62474" lon="6.82218">
        <ele>1277</ele>
        <time>2018-05-16T17:04:45Z</time>
      </trkpt>
      <trkpt lat="45.62496" lon="6.82216">
        <ele>1279</ele>
        <time>2018-05-16T17:05:45Z</time>
      </trkpt>
      <trkpt lat="45.62506" lon="6.82212">
        <ele>1285</ele>
        <time>2018-05-16T17:06:45Z</time>
      </trkpt>
      <trkpt lat="45.62529" lon="6.822">
        <ele>1283</ele>
        <time>2018-05-16T17:07:45Z</time>
      </trkpt>
      <trkpt lat="45.62547" lon="6.82188">
        <ele>1282</ele>
        <time>2018-05-16T17:08:45Z</time>
      </trkpt>
      <trkpt lat="45.62559" lon="6.82183">
        <ele>1280</ele>
        <time>2018-05-16T17:09:45Z</time>
      </trkpt>
      <trkpt lat="45.62566" lon="6.8218">
        <ele>1279</ele>
        <time>2018-05-16T17:10:45Z</time>
      </trkpt>
      <trkpt lat="45.62577" lon="6.8218">
        <ele>1278</ele>
        <time>2018-05-16T17:11:45Z</time>
      </trkpt>
      <trkpt lat="45.62587" lon="6.82182">
        <ele>1280</ele>
        <time>2018-05-16T17:12:45Z</time>
      </trkpt>
      <trkpt lat="45.62599" lon="6.82185">
        <ele>1283</ele>
        <time>2018-05-16T17:13:45Z</time>
      </trkpt>
      <trkpt lat="45.62609" lon="6.82186">
        <ele>1285</ele>
        <time>2018-05-16T17:14:45Z</time>
      </trkpt>
      <trkpt lat="45.6262" lon="6.82183">
        <ele>1285</ele>
        <time>2018-05-16T17:15:45Z</time>
      </trkpt>
      <trkpt lat="45.62638" lon="6.82175">
        <ele>1285</ele>
        <time>2018-05-16T17:16:45Z</time>
      </trkpt>
      <trkpt lat="45.62646" lon="6.8217">
        <ele>1283</ele>
        <time>2018-05-16T17:17:45Z</time>
      </trkpt>
      <trkpt lat="45.62669" lon="6.82156">
        <ele>1275</ele>
        <time>2018-05-16T17:18:45Z</time>
      </trkpt>
      <trkpt lat="45.62681" lon="6.82147">
        <ele>1274</ele>
        <time>2018-05-16T17:19:45Z</time>
      </trkpt>
      <trkpt lat="45.62688" lon="6.82139">
        <ele>1273</ele>
        <time>2018-05-16T17:20:45Z</time>
      </trkpt>
      <trkpt lat="45.62697" lon="6.82127">
        <ele>1272</ele>
        <time>2018-05-16T17:21:45Z</time>
      </trkpt>
      <trkpt lat="45.627" lon="6.82119">
        <ele>1271</ele>
        <time>2018-05-16T17:22:45Z</time>
      </trkpt>
      <trkpt lat="45.62703" lon="6.82113">
        <ele>1270</ele>
        <time>2018-05-16T17:23:45Z</time>
      </trkpt>
      <trkpt lat="45.62708" lon="6.82099">
        <ele>1269</ele>
        <time>2018-05-16T17:24:45Z</time>
      </trkpt>
      <trkpt lat="45.62716" lon="6.8209">
        <ele>1269</ele>
        <time>2018-05-16T17:25:45Z</time>
      </trkpt>
      <trkpt lat="45.62724" lon="6.82084">
        <ele>1269</ele>
        <time>2018-05-16T17:26:45Z</time>
      </trkpt>
      <trkpt lat="45.62744" lon="6.82076">
        <ele>1261</ele>
        <time>2018-05-16T17:27:45Z</time>
      </trkpt>
      <trkpt lat="45.62788" lon="6.82055">
        <ele>1258</ele>
        <time>2018-05-16T17:28:45Z</time>
      </trkpt>
      <trkpt lat="45.62809" lon="6.82045">
        <ele>1257</ele>
        <time>2018-05-16T17:29:45Z</time>
      </trkpt>
      <trkpt lat="45.62823" lon="6.82042">
        <ele>1257</ele>
        <time>2018-05-16T17:30:45Z</time>
      </trkpt>
      <trkpt lat="45.62837" lon="6.82039">
        <ele>1264</ele>
        <time>2018-05-16T17:31:45Z</time>
      </trkpt>
      <trkpt lat="45.62846" lon="6.82034">
        <ele>1263</ele>
        <time>2018-05-16T17:32:45Z</time>
      </trkpt>
      <trkpt lat="45.62868" lon="6.82023">
        <ele>1264</ele>
        <time>2018-05-16T17:33:45Z</time>
      </trkpt>
      <trkpt lat="45.62875" lon="6.82016">
        <ele>1264</ele>
        <time>2018-05-16T17:34:45Z</time>
      </trkpt>
      <trkpt lat="45.62877" lon="6.8201">
        <ele>1264</ele>
        <time>2018-05-16T17:35:45Z</time>
      </trkpt>
      <trkpt lat="45.62877" lon="6.82003">
        <ele>1263</ele>
        <time>2018-05-16T17:36:45Z</time>
      </trkpt>
      <trkpt lat="45.62873" lon="6.81998">
        <ele>1246</ele>
        <time>2018-05-16T17:37:45Z</time>
      </trkpt>
      <trkpt lat="45.62868" lon="6.81996">
        <ele>1245</ele>
        <time>2018-05-16T17:38:45Z</time>
      </trkpt>
      <trkpt lat="45.62862" lon="6.81999">
        <ele>1244</ele>
        <time>2018-05-16T17:39:45Z</time>
      </trkpt>
      <trkpt lat="45.62831" lon="6.82015">
        <ele>1250</ele>
        <time>2018-05-16T17:40:45Z</time>
      </trkpt>
      <trkpt lat="45.62811" lon="6.82023">
        <ele>1253</ele>
        <time>2018-05-16T17:41:45Z</time>
      </trkpt>
      <trkpt lat="45.62801" lon="6.82027">
        <ele>1253</ele>
        <time>2018-05-16T17:42:45Z</time>
      </trkpt>
      <trkpt lat="45.6279" lon="6.8203">
        <ele>1254</ele>
        <time>2018-05-16T17:43:45Z</time>
      </trkpt>
      <trkpt lat="45.62767" lon="6.82033">
        <ele>1253</ele>
        <time>2018-05-16T17:44:45Z</time>
      </trkpt>
      <trkpt lat="45.62755" lon="6.82033">
        <ele>1253</ele>
        <time>2018-05-16T17:45:45Z</time>
      </trkpt>
      <trkpt lat="45.62742" lon="6.8203">
        <ele>1247</ele>
        <time>2018-05-16T17:46:45Z</time>
      </trkpt>
      <trkpt lat="45.62711" lon="6.8202">
        <ele>1244</ele>
        <time>2018-05-16T17:47:45Z</time>
      </trkpt>
      <trkpt lat="45.627" lon="6.82022">
        <ele>1243</ele>
        <time>2018-05-16T17:48:45Z</time>
      </trkpt>
      <trkpt lat="45.62693" lon="6.82026">
        <ele>1243</ele>
        <time>2018-05-16T17:49:45Z</time>
      </trkpt>
      <trkpt lat="45.62691" lon="6.82028">
        <ele>1243</ele>
        <time>2018-05-16T17:50:45Z</time>
      </trkpt>
      <trkpt lat="45.62666" lon="6.82056">
        <ele>1239</ele>
        <time>2018-05-16T17:51:45Z</time>
      </trkpt>
      <trkpt lat="45.62659" lon="6.82063">
        <ele>1240</ele>
        <time>2018-05-16T17:52:45Z</time>
      </trkpt>
      <trkpt lat="45.62629" lon="6.82083">
        <ele>1237</ele>
        <time>2018-05-16T17:53:45Z</time>
      </trkpt>
      <trkpt lat="45.62617" lon="6.82088">
        <ele>1253</ele>
        <time>2018-05-16T17:54:45Z</time>
      </trkpt>
      <trkpt lat="45.62606" lon="6.8209">
        <ele>1251</ele>
        <time>2018-05-16T17:55:45Z</time>
      </trkpt>
      <trkpt lat="45.62581" lon="6.82092">
        <ele>1242</ele>
        <time>2018-05-16T17:56:45Z</time>
      </trkpt>
      <trkpt lat="45.62557" lon="6.82092">
        <ele>1245</ele>
        <time>2018-05-16T17:57:45Z</time>
      </trkpt>
      <trkpt lat="45.62544" lon="6.82093">
        <ele>1245</ele>
        <time>2018-05-16T17:58:45Z</time>
      </trkpt>
      <trkpt lat="45.62531" lon="6.82096">
        <ele>1244</ele>
        <time>2018-05-16T17:59:45Z</time>
      </trkpt>
      <trkpt lat="45.62519" lon="6.82099">
        <ele>1242</ele>
        <time>2018-05-16T18:00:45Z</time>
      </trkpt>
      <trkpt lat="45.62507" lon="6.82101">
        <ele>1240</ele>
        <time>2018-05-16T18:01:45Z</time>
      </trkpt>
      <trkpt lat="45.62495" lon="6.82103">
        <ele>1235</ele>
        <time>2018-05-16T18:02:45Z</time>
      </trkpt>
      <trkpt lat="45.62457" lon="6.82104">
        <ele>1235</ele>
        <time>2018-05-16T18:03:45Z</time>
      </trkpt>
      <trkpt lat="45.62445" lon="6.82107">
        <ele>1234</ele>
        <time>2018-05-16T18:04:45Z</time>
      </trkpt>
      <trkpt lat="45.62422" lon="6.82116">
        <ele>1234</ele>
        <time>2018-05-16T18:05:45Z</time>
      </trkpt>
      <trkpt lat="45.62396" lon="6.82131">
        <ele>1225</ele>
        <time>2018-05-16T18:06:45Z</time>
      </trkpt>
      <trkpt lat="45.62366" lon="6.82149">
        <ele>1223</ele>
        <time>2018-05-16T18:07:45Z</time>
      </trkpt>
      <trkpt lat="45.62355" lon="6.82158">
        <ele>1222</ele>
        <time>2018-05-16T18:08:45Z</time>
      </trkpt>
      <trkpt lat="45.62336" lon="6.82176">
        <ele>1231</ele>
        <time>2018-05-16T18:09:45Z</time>
      </trkpt>
      <trkpt lat="45.62322" lon="6.8219">
        <ele>1223</ele>
        <time>2018-05-16T18:10:45Z</time>
      </trkpt>
      <trkpt lat="45.6231" lon="6.82202">
        <ele>1223</ele>
        <time>2018-05-16T18:11:45Z</time>
      </trkpt>
      <trkpt lat="45.6229" lon="6.82221">
        <ele>1223</ele>
        <time>2018-05-16T18:12:45Z</time>
      </trkpt>
      <trkpt lat="45.62269" lon="6.82236">
        <ele>1220</ele>
        <time>2018-05-16T18:13:45Z</time>
      </trkpt>
      <trkpt lat="45.62249" lon="6.8225">
        <ele>1216</ele>
        <time>2018-05-16T18:14:45Z</time>
      </trkpt>
      <trkpt lat="45.62224" lon="6.8227">
        <ele>1214</ele>
        <time>2018-05-16T18:15:45Z</time>
      </trkpt>
      <trkpt lat="45.62198" lon="6.82295">
        <ele>1212</ele>
        <time>2018-05-16T18:16:45Z</time>
      </trkpt>
      <trkpt lat="45.62173" lon="6.82329">
        <ele>1209</ele>
        <time>2018-05-16T18:17:45Z</time>
      </trkpt>
      <trkpt lat="45.62166" lon="6.82338">
        <ele>1207</ele>
        <time>2018-05-16T18:18:45Z</time>
      </trkpt>
      <trkpt lat="45.62124" lon="6.82384">
        <ele>1201</ele>
        <time>2018-05-16T18:19:45Z</time>
      </trkpt>
      <trkpt lat="45.62117" lon="6.82394">
        <ele>1200</ele>
        <time>2018-05-16T18:20:45Z</time>
      </trkpt>
      <trkpt lat="45.6211" lon="6.82404">
        <ele>1199</ele>
        <time>2018-05-16T18:21:45Z</time>
      </trkpt>
      <trkpt lat="45.62104" lon="6.82416">
        <ele>1197</ele>
        <time>2018-05-16T18:22:45Z</time>
      </trkpt>
      <trkpt lat="45.62094" lon="6.82441">
        <ele>1205</ele>
        <time>2018-05-16T18:23:45Z</time>
      </trkpt>
      <trkpt lat="45.6208" lon="6.82481">
        <ele>1191</ele>
        <time>2018-05-16T18:24:45Z</time>
      </trkpt>
      <trkpt lat="45.62074" lon="6.82494">
        <ele>1195</ele>
        <time>2018-05-16T18:25:45Z</time>
      </trkpt>
      <trkpt lat="45.62061" lon="6.82519">
        <ele>1194</ele>
        <time>2018-05-16T18:26:45Z</time>
      </trkpt>
      <trkpt lat="45.62051" lon="6.82543">
        <ele>1192</ele>
        <time>2018-05-16T18:27:45Z</time>
      </trkpt>
      <trkpt lat="45.62045" lon="6.82551">
        <ele>1191</ele>
        <time>2018-05-16T18:28:45Z</time>
      </trkpt>
      <trkpt lat="45.62038" lon="6.82553">
        <ele>1190</ele>
        <time>2018-05-16T18:29:45Z</time>
      </trkpt>
      <trkpt lat="45.62032" lon="6.8255">
        <ele>1189</ele>
        <time>2018-05-16T18:30:45Z</time>
      </trkpt>
      <trkpt lat="45.62031" lon="6.8254">
        <ele>1188</ele>
        <time>2018-05-16T18:31:45Z</time>
      </trkpt>
      <trkpt lat="45.62034" lon="6.8253">
        <ele>1188</ele>
        <time>2018-05-16T18:32:45Z</time>
      </trkpt>
      <trkpt lat="45.6204" lon="6.82521">
        <ele>1189</ele>
        <time>2018-05-16T18:33:45Z</time>
      </trkpt>
      <trkpt lat="45.62045" lon="6.82511">
        <ele>1190</ele>
        <time>2018-05-16T18:34:45Z</time>
      </trkpt>
      <trkpt lat="45.62053" lon="6.82499">
        <ele>1186</ele>
        <time>2018-05-16T18:35:45Z</time>
      </trkpt>
      <trkpt lat="45.62065" lon="6.82474">
        <ele>1186</ele>
        <time>2018-05-16T18:36:45Z</time>
      </trkpt>
      <trkpt lat="45.6208" lon="6.82434">
        <ele>1186</ele>
        <time>2018-05-16T18:37:45Z</time>
      </trkpt>
      <trkpt lat="45.62084" lon="6.82418">
        <ele>1192</ele>
        <time>2018-05-16T18:38:45Z</time>
      </trkpt>
      <trkpt lat="45.62088" lon="6.82405">
        <ele>1194</ele>
        <time>2018-05-16T18:39:45Z</time>
      </trkpt>
      <trkpt lat="45.62099" lon="6.82375">
        <ele>1195</ele>
        <time>2018-05-16T18:40:45Z</time>
      </trkpt>
      <trkpt lat="45.62104" lon="6.8236">
        <ele>1194</ele>
        <time>2018-05-16T18:41:45Z</time>
      </trkpt>
      <trkpt lat="45.62114" lon="6.82332">
        <ele>1183</ele>
        <time>2018-05-16T18:42:45Z</time>
      </trkpt>
      <trkpt lat="45.62119" lon="6.82317">
        <ele>1183</ele>
        <time>2018-05-16T18:43:45Z</time>
      </trkpt>
      <trkpt lat="45.62127" lon="6.82306">
        <ele>1184</ele>
        <time>2018-05-16T18:44:45Z</time>
      </trkpt>
      <trkpt lat="45.62131" lon="6.82301">
        <ele>1184</ele>
        <time>2018-05-16T18:45:45Z</time>
      </trkpt>
      <trkpt lat="45.62135" lon="6.82298">
        <ele>1184</ele>
        <time>2018-05-16T18:46:45Z</time>
      </trkpt>
      <trkpt lat="45.6216" lon="6.8228">
        <ele>1185</ele>
        <time>2018-05-16T18:47:45Z</time>
      </trkpt>
      <trkpt lat="45.62168" lon="6.82272">
        <ele>1202</ele>
        <time>2018-05-16T18:48:45Z</time>
      </trkpt>
      <trkpt lat="45.62183" lon="6.82247">
        <ele>1191</ele>
        <time>2018-05-16T18:49:45Z</time>
      </trkpt>
      <trkpt lat="45.62189" lon="6.82234">
        <ele>1192</ele>
        <time>2018-05-16T18:50:45Z</time>
      </trkpt>
      <trkpt lat="45.62194" lon="6.82216">
        <ele>1191</ele>
        <time>2018-05-16T18:51:45Z</time>
      </trkpt>
      <trkpt lat="45.622" lon="6.82188">
        <ele>1189</ele>
        <time>2018-05-16T18:52:45Z</time>
      </trkpt>
      <trkpt lat="45.62202" lon="6.82176">
        <ele>1188</ele>
        <time>2018-05-16T18:53:45Z</time>
      </trkpt>
      <trkpt lat="45.62203" lon="6.82171">
        <ele>1188</ele>
        <time>2018-05-16T18:54:45Z</time>
      </trkpt>
      <trkpt lat="45.62208" lon="6.82157">
        <ele>1175</ele>
        <time>2018-05-16T18:55:45Z</time>
      </trkpt>
      <trkpt lat="45.62213" lon="6.82145">
        <ele>1175</ele>
        <time>2018-05-16T18:56:45Z</time>
      </trkpt>
      <trkpt lat="45.62219" lon="6.82134">
        <ele>1174</ele>
        <time>2018-05-16T18:57:45Z</time>
      </trkpt>
      <trkpt lat="45.62228" lon="6.82121">
        <ele>1173</ele>
        <time>2018-05-16T18:58:45Z</time>
      </trkpt>
      <trkpt lat="45.62237" lon="6.82112">
        <ele>1173</ele>
        <time>2018-05-16T18:59:45Z</time>
      </trkpt>
      <trkpt lat="45.62248" lon="6.82104">
        <ele>1173</ele>
        <time>2018-05-16T19:00:45Z</time>
      </trkpt>
      <trkpt lat="45.62278" lon="6.82086">
        <ele>1189</ele>
        <time>2018-05-16T19:01:45Z</time>
      </trkpt>
      <trkpt lat="45.62297" lon="6.82078">
        <ele>1175</ele>
        <time>2018-05-16T19:02:45Z</time>
      </trkpt>
      <trkpt lat="45.62304" lon="6.82071">
        <ele>1176</ele>
        <time>2018-05-16T19:03:45Z</time>
      </trkpt>
      <trkpt lat="45.6232" lon="6.8203">
        <ele>1170</ele>
        <time>2018-05-16T19:04:45Z</time>
      </trkpt>
      <trkpt lat="45.62324" lon="6.82024">
        <ele>1169</ele>
        <time>2018-05-16T19:05:45Z</time>
      </trkpt>
      <trkpt lat="45.62335" lon="6.82004">
        <ele>1170</ele>
        <time>2018-05-16T19:06:45Z</time>
      </trkpt>
      <trkpt lat="45.62343" lon="6.81992">
        <ele>1166</ele>
        <time>2018-05-16T19:07:45Z</time>
      </trkpt>
      <trkpt lat="45.62358" lon="6.81973">
        <ele>1165</ele>
        <time>2018-05-16T19:08:45Z</time>
      </trkpt>
      <trkpt lat="45.62374" lon="6.81955">
        <ele>1165</ele>
        <time>2018-05-16T19:09:45Z</time>
      </trkpt>
      <trkpt lat="45.62393" lon="6.81936">
        <ele>1165</ele>
        <time>2018-05-16T19:10:45Z</time>
      </trkpt>
      <trkpt lat="45.62402" lon="6.81927">
        <ele>1164</ele>
        <time>2018-05-16T19:11:45Z</time>
      </trkpt>
      <trkpt lat="45.62419" lon="6.81916">
        <ele>1164</ele>
        <time>2018-05-16T19:12:45Z</time>
      </trkpt>
      <trkpt lat="45.62443" lon="6.81899">
        <ele>1161</ele>
        <time>2018-05-16T19:13:45Z</time>
      </trkpt>
      <trkpt lat="45.62453" lon="6.81893">
        <ele>1161</ele>
        <time>2018-05-16T19:14:45Z</time>
      </trkpt>
      <trkpt lat="45.62527" lon="6.81827">
        <ele>1151</ele>
        <time>2018-05-16T19:15:45Z</time>
      </trkpt>
      <trkpt lat="45.62534" lon="6.81823">
        <ele>1151</ele>
        <time>2018-05-16T19:16:45Z</time>
      </trkpt>
      <trkpt lat="45.6254" lon="6.8182">
        <ele>1151</ele>
        <time>2018-05-16T19:17:45Z</time>
      </trkpt>
      <trkpt lat="45.62572" lon="6.81816">
        <ele>1154</ele>
        <time>2018-05-16T19:18:45Z</time>
      </trkpt>
      <trkpt lat="45.62582" lon="6.81812">
        <ele>1154</ele>
        <time>2018-05-16T19:19:45Z</time>
      </trkpt>
      <trkpt lat="45.62585" lon="6.8181">
        <ele>1159</ele>
        <time>2018-05-16T19:20:45Z</time>
      </trkpt>
      <trkpt lat="45.6259" lon="6.81806">
        <ele>1158</ele>
        <time>2018-05-16T19:21:45Z</time>
      </trkpt>
      <trkpt lat="45.62594" lon="6.81802">
        <ele>1157</ele>
        <time>2018-05-16T19:22:45Z</time>
      </trkpt>
      <trkpt lat="45.62597" lon="6.81799">
        <ele>1157</ele>
        <time>2018-05-16T19:23:45Z</time>
      </trkpt>
      <trkpt lat="45.62601" lon="6.81794">
        <ele>1156</ele>
        <time>2018-05-16T19:24:45Z</time>
      </trkpt>
      <trkpt lat="45.62606" lon="6.81786">
        <ele>1155</ele>
        <time>2018-05-16T19:25:45Z</time>
      </trkpt>
      <trkpt lat="45.62618" lon="6.81762">
        <ele>1153</ele>
        <time>2018-05-16T19:26:45Z</time>
      </trkpt>
      <trkpt lat="45.62634" lon="6.81743">
        <ele>1143</ele>
        <time>2018-05-16T19:27:45Z</time>
      </trkpt>
      <trkpt lat="45.62649" lon="6.81723">
        <ele>1143</ele>
        <time>2018-05-16T19:28:45Z</time>
      </trkpt>
      <trkpt lat="45.62653" lon="6.81716">
        <ele>1143</ele>
        <time>2018-05-16T19:29:45Z</time>
      </trkpt>
      <trkpt lat="45.62666" lon="6.81692">
        <ele>1141</ele>
        <time>2018-05-16T19:30:45Z</time>
      </trkpt>
      <trkpt lat="45.62671" lon="6.81677">
        <ele>1147</ele>
        <time>2018-05-16T19:31:45Z</time>
      </trkpt>
      <trkpt lat="45.62677" lon="6.81663">
        <ele>1144</ele>
        <time>2018-05-16T19:32:45Z</time>
      </trkpt>
      <trkpt lat="45.62689" lon="6.81637">
        <ele>1147</ele>
        <time>2018-05-16T19:33:45Z</time>
      </trkpt>
      <trkpt lat="45.62689" lon="6.81636">
        <ele>1147</ele>
        <time>2018-05-16T19:34:45Z</time>
      </trkpt>
      <trkpt lat="45.62702" lon="6.81613">
        <ele>1148</ele>
        <time>2018-05-16T19:35:45Z</time>
      </trkpt>
      <trkpt lat="45.62706" lon="6.81602">
        <ele>1148</ele>
        <time>2018-05-16T19:36:45Z</time>
      </trkpt>
      <trkpt lat="45.62707" lon="6.81594">
        <ele>1148</ele>
        <time>2018-05-16T19:37:45Z</time>
      </trkpt>
      <trkpt lat="45.62704" lon="6.81587">
        <ele>1148</ele>
        <time>2018-05-16T19:38:45Z</time>
      </trkpt>
      <trkpt lat="45.62699" lon="6.81586">
        <ele>1146</ele>
        <time>2018-05-16T19:39:45Z</time>
      </trkpt>
      <trkpt lat="45.62693" lon="6.81589">
        <ele>1145</ele>
        <time>2018-05-16T19:40:45Z</time>
      </trkpt>
      <trkpt lat="45.62682" lon="6.81602">
        <ele>1143</ele>
        <time>2018-05-16T19:41:45Z</time>
      </trkpt>
      <trkpt lat="45.62657" lon="6.81638">
        <ele>1132</ele>
        <time>2018-05-16T19:42:45Z</time>
      </trkpt>
      <trkpt lat="45.62638" lon="6.81668">
        <ele>1139</ele>
        <time>2018-05-16T19:43:45Z</time>
      </trkpt>
      <trkpt lat="45.62621" lon="6.81684">
        <ele>1137</ele>
        <time>2018-05-16T19:44:45Z</time>
      </trkpt>
      <trkpt lat="45.62601" lon="6.81702">
        <ele>1137</ele>
        <time>2018-05-16T19:45:45Z</time>
      </trkpt>
      <trkpt lat="45.62578" lon="6.81722">
        <ele>1132</ele>
        <time>2018-05-16T19:46:45Z</time>
      </trkpt>
      <trkpt lat="45.6256" lon="6.81732">
        <ele>1132</ele>
        <time>2018-05-16T19:47:45Z</time>
      </trkpt>
      <trkpt lat="45.6255" lon="6.81736">
        <ele>1131</ele>
        <time>2018-05-16T19:48:45Z</time>
      </trkpt>
      <trkpt lat="45.6253" lon="6.81738">
        <ele>1130</ele>
        <time>2018-05-16T19:49:45Z</time>
      </trkpt>
      <trkpt lat="45.62519" lon="6.81739">
        <ele>1130</ele>
        <time>2018-05-16T19:50:45Z</time>
      </trkpt>
      <trkpt lat="45.62476" lon="6.81737">
        <ele>1123</ele>
        <time>2018-05-16T19:51:45Z</time>
      </trkpt>
      <trkpt lat="45.62467" lon="6.81738">
        <ele>1122</ele>
        <time>2018-05-16T19:52:45Z</time>
      </trkpt>
      <trkpt lat="45.62455" lon="6.81741">
        <ele>1121</ele>
        <time>2018-05-16T19:53:45Z</time>
      </trkpt>
      <trkpt lat="45.62438" lon="6.81746">
        <ele>1121</ele>
        <time>2018-05-16T19:54:45Z</time>
      </trkpt>
      <trkpt lat="45.62417" lon="6.81751">
        <ele>1124</ele>
        <time>2018-05-16T19:55:45Z</time>
      </trkpt>
      <trkpt lat="45.62382" lon="6.81764">
        <ele>1124</ele>
        <time>2018-05-16T19:56:45Z</time>
      </trkpt>
      <trkpt lat="45.62364" lon="6.8177">
        <ele>1122</ele>
        <time>2018-05-16T19:57:45Z</time>
      </trkpt>
      <trkpt lat="45.62345" lon="6.81778">
        <ele>1121</ele>
        <time>2018-05-16T19:58:45Z</time>
      </trkpt>
      <trkpt lat="45.62336" lon="6.81786">
        <ele>1122</ele>
        <time>2018-05-16T19:59:45Z</time>
      </trkpt>
      <trkpt lat="45.62329" lon="6.81793">
        <ele>1110</ele>
        <time>2018-05-16T20:00:45Z</time>
      </trkpt>
      <trkpt lat="45.62307" lon="6.81833">
        <ele>1113</ele>
        <time>2018-05-16T20:01:45Z</time>
      </trkpt>
      <trkpt lat="45.623" lon="6.81844">
        <ele>1122</ele>
        <time>2018-05-16T20:02:45Z</time>
      </trkpt>
      <trkpt lat="45.62292" lon="6.81855">
        <ele>1121</ele>
        <time>2018-05-16T20:03:45Z</time>
      </trkpt>
      <trkpt lat="45.62286" lon="6.81866">
        <ele>1121</ele>
        <time>2018-05-16T20:04:45Z</time>
      </trkpt>
      <trkpt lat="45.62279" lon="6.81875">
        <ele>1121</ele>
        <time>2018-05-16T20:05:45Z</time>
      </trkpt>
      <trkpt lat="45.6227" lon="6.81883">
        <ele>1121</ele>
        <time>2018-05-16T20:06:45Z</time>
      </trkpt>
      <trkpt lat="45.62262" lon="6.81887">
        <ele>1121</ele>
        <time>2018-05-16T20:07:45Z</time>
      </trkpt>
      <trkpt lat="45.62216" lon="6.81901">
        <ele>1106</ele>
        <time>2018-05-16T20:08:45Z</time>
      </trkpt>
      <trkpt lat="45.62204" lon="6.81907">
        <ele>1104</ele>
        <time>2018-05-16T20:09:45Z</time>
      </trkpt>
      <trkpt lat="45.62195" lon="6.81916">
        <ele>1103</ele>
        <time>2018-05-16T20:10:45Z</time>
      </trkpt>
      <trkpt lat="45.62173" lon="6.81945">
        <ele>1114</ele>
        <time>2018-05-16T20:11:45Z</time>
      </trkpt>
      <trkpt lat="45.62163" lon="6.81958">
        <ele>1100</ele>
        <time>2018-05-16T20:12:45Z</time>
      </trkpt>
      <trkpt lat="45.6215" lon="6.81976">
        <ele>1102</ele>
        <time>2018-05-16T20:13:45Z</time>
      </trkpt>
      <trkpt lat="45.62137" lon="6.81993">
        <ele>1101</ele>
        <time>2018-05-16T20:14:45Z</time>
      </trkpt>
      <trkpt lat="45.62127" lon="6.82007">
        <ele>1111</ele>
        <time>2018-05-16T20:15:45Z</time>
      </trkpt>
      <trkpt lat="45.62115" lon="6.82024">
        <ele>1109</ele>
        <time>2018-05-16T20:16:45Z</time>
      </trkpt>
      <trkpt lat="45.62088" lon="6.8206">
        <ele>1110</ele>
        <time>2018-05-16T20:17:45Z</time>
      </trkpt>
      <trkpt lat="45.6208" lon="6.8207">
        <ele>1097</ele>
        <time>2018-05-16T20:18:45Z</time>
      </trkpt>
      <trkpt lat="45.62073" lon="6.82077">
        <ele>1098</ele>
        <time>2018-05-16T20:19:45Z</time>
      </trkpt>
      <trkpt lat="45.62064" lon="6.82088">
        <ele>1105</ele>
        <time>2018-05-16T20:20:45Z</time>
      </trkpt>
      <trkpt lat="45.62059" lon="6.82093">
        <ele>1104</ele>
        <time>2018-05-16T20:21:45Z</time>
      </trkpt>
      <trkpt lat="45.62044" lon="6.82104">
        <ele>1102</ele>
        <time>2018-05-16T20:22:45Z</time>
      </trkpt>
      <trkpt lat="45.62028" lon="6.82124">
        <ele>1101</ele>
        <time>2018-05-16T20:23:45Z</time>
      </trkpt>
      <trkpt lat="45.6202" lon="6.82136">
        <ele>1101</ele>
        <time>2018-05-16T20:24:45Z</time>
      </trkpt>
      <trkpt lat="45.62006" lon="6.82166">
        <ele>1099</ele>
        <time>2018-05-16T20:25:45Z</time>
      </trkpt>
      <trkpt lat="45.61992" lon="6.82186">
        <ele>1093</ele>
        <time>2018-05-16T20:26:45Z</time>
      </trkpt>
      <trkpt lat="45.61977" lon="6.82204">
        <ele>1092</ele>
        <time>2018-05-16T20:27:45Z</time>
      </trkpt>
      <trkpt lat="45.61969" lon="6.82212">
        <ele>1091</ele>
        <time>2018-05-16T20:28:45Z</time>
      </trkpt>
      <trkpt lat="45.61957" lon="6.82222">
        <ele>1090</ele>
        <time>2018-05-16T20:29:45Z</time>
      </trkpt>
      <trkpt lat="45.61953" lon="6.82225">
        <ele>1089</ele>
        <time>2018-05-16T20:30:45Z</time>
      </trkpt>
      <trkpt lat="45.6194" lon="6.82238">
        <ele>1086</ele>
        <time>2018-05-16T20:31:45Z</time>
      </trkpt>
      <trkpt lat="45.6193" lon="6.82253">
        <ele>1090</ele>
        <time>2018-05-16T20:32:45Z</time>
      </trkpt>
      <trkpt lat="45.61922" lon="6.82272">
        <ele>1094</ele>
        <time>2018-05-16T20:33:45Z</time>
      </trkpt>
      <trkpt lat="45.61916" lon="6.82289">
        <ele>1074</ele>
        <time>2018-05-16T20:34:45Z</time>
      </trkpt>
      <trkpt lat="45.61913" lon="6.82309">
        <ele>1079</ele>
        <time>2018-05-16T20:35:45Z</time>
      </trkpt>
      <trkpt lat="45.6191" lon="6.82318">
        <ele>1082</ele>
        <time>2018-05-16T20:36:45Z</time>
      </trkpt>
      <trkpt lat="45.61906" lon="6.82323">
        <ele>1083</ele>
        <time>2018-05-16T20:37:45Z</time>
      </trkpt>
      <trkpt lat="45.61902" lon="6.82325">
        <ele>1082</ele>
        <time>2018-05-16T20:38:45Z</time>
      </trkpt>
      <trkpt lat="45.61895" lon="6.82324">
        <ele>1078</ele>
        <time>2018-05-16T20:39:45Z</time>
      </trkpt>
      <trkpt lat="45.61895" lon="6.82324">
        <ele>1078</ele>
        <time>2018-05-16T20:40:45Z</time>
      </trkpt>
      <trkpt lat="45.61894" lon="6.82318">
        <ele>1076</ele>
        <time>2018-05-16T20:41:45Z</time>
      </trkpt>
      <trkpt lat="45.61894" lon="6.82308">
        <ele>1074</ele>
        <time>2018-05-16T20:42:45Z</time>
      </trkpt>
      <trkpt lat="45.61898" lon="6.82294">
        <ele>1072</ele>
        <time>2018-05-16T20:43:45Z</time>
      </trkpt>
      <trkpt lat="45.61902" lon="6.82279">
        <ele>1072</ele>
        <time>2018-05-16T20:44:45Z</time>
      </trkpt>
      <trkpt lat="45.61918" lon="6.8224">
        <ele>1081</ele>
        <time>2018-05-16T20:45:45Z</time>
      </trkpt>
      <trkpt lat="45.6193" lon="6.82206">
        <ele>1083</ele>
        <time>2018-05-16T20:46:45Z</time>
      </trkpt>
      <trkpt lat="45.61933" lon="6.822">
        <ele>1083</ele>
        <time>2018-05-16T20:47:45Z</time>
      </trkpt>
      <trkpt lat="45.61954" lon="6.82157">
        <ele>1073</ele>
        <time>2018-05-16T20:48:45Z</time>
      </trkpt>
      <trkpt lat="45.61966" lon="6.82131">
        <ele>1074</ele>
        <time>2018-05-16T20:49:45Z</time>
      </trkpt>
      <trkpt lat="45.61975" lon="6.82116">
        <ele>1073</ele>
        <time>2018-05-16T20:50:45Z</time>
      </trkpt>
      <trkpt lat="45.61982" lon="6.82104">
        <ele>1074</ele>
        <time>2018-05-16T20:51:45Z</time>
      </trkpt>
      <trkpt lat="45.62002" lon="6.82064">
        <ele>1079</ele>
        <time>2018-05-16T20:52:45Z</time>
      </trkpt>
      <trkpt lat="45.62021" lon="6.82028">
        <ele>1077</ele>
        <time>2018-05-16T20:53:45Z</time>
      </trkpt>
      <trkpt lat="45.62036" lon="6.82002">
        <ele>1077</ele>
        <time>2018-05-16T20:54:45Z</time>
      </trkpt>
      <trkpt lat="45.62051" lon="6.81975">
        <ele>1069</ele>
        <time>2018-05-16T20:55:45Z</time>
      </trkpt>
      <trkpt lat="45.62058" lon="6.81965">
        <ele>1069</ele>
        <time>2018-05-16T20:56:45Z</time>
      </trkpt>
      <trkpt lat="45.62065" lon="6.81948">
        <ele>1068</ele>
        <time>2018-05-16T20:57:45Z</time>
      </trkpt>
      <trkpt lat="45.62069" lon="6.81934">
        <ele>1068</ele>
        <time>2018-05-16T20:58:45Z</time>
      </trkpt>
      <trkpt lat="45.62078" lon="6.81889">
        <ele>1059</ele>
        <time>2018-05-16T20:59:45Z</time>
      </trkpt>
      <trkpt lat="45.62083" lon="6.81861">
        <ele>1058</ele>
        <time>2018-05-16T21:00:45Z</time>
      </trkpt>
      <trkpt lat="45.62086" lon="6.81838">
        <ele>1066</ele>
        <time>2018-05-16T21:01:45Z</time>
      </trkpt>
      <trkpt lat="45.62096" lon="6.81801">
        <ele>1065</ele>
        <time>2018-05-16T21:02:45Z</time>
      </trkpt>
      <trkpt lat="45.62108" lon="6.81764">
        <ele>1061</ele>
        <time>2018-05-16T21:03:45Z</time>
      </trkpt>
      <trkpt lat="45.6212" lon="6.81738">
        <ele>1051</ele>
        <time>2018-05-16T21:04:45Z</time>
      </trkpt>
      <trkpt lat="45.62127" lon="6.81727">
        <ele>1052</ele>
        <time>2018-05-16T21:05:45Z</time>
      </trkpt>
      <trkpt lat="45.62134" lon="6.81716">
        <ele>1052</ele>
        <time>2018-05-16T21:06:45Z</time>
      </trkpt>
      <trkpt lat="45.62146" lon="6.81699">
        <ele>1051</ele>
        <time>2018-05-16T21:07:45Z</time>
      </trkpt>
      <trkpt lat="45.62152" lon="6.81692">
        <ele>1051</ele>
        <time>2018-05-16T21:08:45Z</time>
      </trkpt>
      <trkpt lat="45.62161" lon="6.81683">
        <ele>1052</ele>
        <time>2018-05-16T21:09:45Z</time>
      </trkpt>
      <trkpt lat="45.62177" lon="6.81669">
        <ele>1060</ele>
        <time>2018-05-16T21:10:45Z</time>
      </trkpt>
      <trkpt lat="45.62186" lon="6.8166">
        <ele>1054</ele>
        <time>2018-05-16T21:11:45Z</time>
      </trkpt>
      <trkpt lat="45.62215" lon="6.81634">
        <ele>1055</ele>
        <time>2018-05-16T21:12:45Z</time>
      </trkpt>
      <trkpt lat="45.62228" lon="6.81618">
        <ele>1055</ele>
        <time>2018-05-16T21:13:45Z</time>
      </trkpt>
      <trkpt lat="45.62231" lon="6.81603">
        <ele>1054</ele>
        <time>2018-05-16T21:14:45Z</time>
      </trkpt>
      <trkpt lat="45.62236" lon="6.81586">
        <ele>1055</ele>
        <time>2018-05-16T21:15:45Z</time>
      </trkpt>
      <trkpt lat="45.62241" lon="6.81559">
        <ele>1041</ele>
        <time>2018-05-16T21:16:45Z</time>
      </trkpt>
      <trkpt lat="45.62244" lon="6.81544">
        <ele>1038</ele>
        <time>2018-05-16T21:17:45Z</time>
      </trkpt>
      <trkpt lat="45.62249" lon="6.81532">
        <ele>1036</ele>
        <time>2018-05-16T21:18:45Z</time>
      </trkpt>
      <trkpt lat="45.62256" lon="6.81524">
        <ele>1049</ele>
        <time>2018-05-16T21:19:45Z</time>
      </trkpt>
      <trkpt lat="45.6227" lon="6.81512">
        <ele>1049</ele>
        <time>2018-05-16T21:20:45Z</time>
      </trkpt>
      <trkpt lat="45.62319" lon="6.8147">
        <ele>1038</ele>
        <time>2018-05-16T21:21:45Z</time>
      </trkpt>
      <trkpt lat="45.62336" lon="6.81458">
        <ele>1046</ele>
        <time>2018-05-16T21:22:45Z</time>
      </trkpt>
      <trkpt lat="45.62346" lon="6.81452">
        <ele>1046</ele>
        <time>2018-05-16T21:23:45Z</time>
      </trkpt>
      <trkpt lat="45.62362" lon="6.81446">
        <ele>1046</ele>
        <time>2018-05-16T21:24:45Z</time>
      </trkpt>
      <trkpt lat="45.62383" lon="6.81438">
        <ele>1047</ele>
        <time>2018-05-16T21:25:45Z</time>
      </trkpt>
      <trkpt lat="45.62395" lon="6.81426">
        <ele>1047</ele>
        <time>2018-05-16T21:26:45Z</time>
      </trkpt>
      <trkpt lat="45.62401" lon="6.8142">
        <ele>1046</ele>
        <time>2018-05-16T21:27:45Z</time>
      </trkpt>
      <trkpt lat="45.62408" lon="6.81412">
        <ele>1039</ele>
        <time>2018-05-16T21:28:45Z</time>
      </trkpt>
      <trkpt lat="45.62413" lon="6.81402">
        <ele>1036</ele>
        <time>2018-05-16T21:29:45Z</time>
      </trkpt>
      <trkpt lat="45.62418" lon="6.81389">
        <ele>1043</ele>
        <time>2018-05-16T21:30:45Z</time>
      </trkpt>
      <trkpt lat="45.62434" lon="6.81353">
        <ele>1038</ele>
        <time>2018-05-16T21:31:45Z</time>
      </trkpt>
      <trkpt lat="45.62447" lon="6.81339">
        <ele>1038</ele>
        <time>2018-05-16T21:32:45Z</time>
      </trkpt>
      <trkpt lat="45.62477" lon="6.81314">
        <ele>1028</ele>
        <time>2018-05-16T21:33:45Z</time>
      </trkpt>
      <trkpt lat="45.62489" lon="6.81307">
        <ele>1028</ele>
        <time>2018-05-16T21:34:45Z</time>
      </trkpt>
      <trkpt lat="45.62491" lon="6.81305">
        <ele>1028</ele>
        <time>2018-05-16T21:35:45Z</time>
      </trkpt>
      <trkpt lat="45.62506" lon="6.81293">
        <ele>1032</ele>
        <time>2018-05-16T21:36:45Z</time>
      </trkpt>
      <trkpt lat="45.6251" lon="6.81289">
        <ele>1031</ele>
        <time>2018-05-16T21:37:45Z</time>
      </trkpt>
      <trkpt lat="45.62528" lon="6.8127">
        <ele>1029</ele>
        <time>2018-05-16T21:38:45Z</time>
      </trkpt>
      <trkpt lat="45.62535" lon="6.81268">
        <ele>1029</ele>
        <time>2018-05-16T21:39:45Z</time>
      </trkpt>
      <trkpt lat="45.62543" lon="6.81269">
        <ele>1030</ele>
        <time>2018-05-16T21:40:45Z</time>
      </trkpt>
      <trkpt lat="45.62564" lon="6.81284">
        <ele>1032</ele>
        <time>2018-05-16T21:41:45Z</time>
      </trkpt>
      <trkpt lat="45.62584" lon="6.813">
        <ele>1039</ele>
        <time>2018-05-16T21:42:45Z</time>
      </trkpt>
      <trkpt lat="45.62592" lon="6.81305">
        <ele>1040</ele>
        <time>2018-05-16T21:43:45Z</time>
      </trkpt>
      <trkpt lat="45.626" lon="6.81305">
        <ele>1040</ele>
        <time>2018-05-16T21:44:45Z</time>
      </trkpt>
      <trkpt lat="45.62605" lon="6.81303">
        <ele>1039</ele>
        <time>2018-05-16T21:45:45Z</time>
      </trkpt>
      <trkpt lat="45.62613" lon="6.813">
        <ele>1039</ele>
        <time>2018-05-16T21:46:45Z</time>
      </trkpt>
      <trkpt lat="45.62627" lon="6.81291">
        <ele>1038</ele>
        <time>2018-05-16T21:47:45Z</time>
      </trkpt>
      <trkpt lat="45.62635" lon="6.81284">
        <ele>1037</ele>
        <time>2018-05-16T21:48:45Z</time>
      </trkpt>
      <trkpt lat="45.62643" lon="6.81277">
        <ele>1035</ele>
        <time>2018-05-16T21:49:45Z</time>
      </trkpt>
      <trkpt lat="45.62649" lon="6.81269">
        <ele>1033</ele>
        <time>2018-05-16T21:50:45Z</time>
      </trkpt>
      <trkpt lat="45.62665" lon="6.81254">
        <ele>1025</ele>
        <time>2018-05-16T21:51:45Z</time>
      </trkpt>
      <trkpt lat="45.62678" lon="6.81239">
        <ele>1023</ele>
        <time>2018-05-16T21:52:45Z</time>
      </trkpt>
      <trkpt lat="45.62681" lon="6.81234">
        <ele>1024</ele>
        <time>2018-05-16T21:53:45Z</time>
      </trkpt>
      <trkpt lat="45.62684" lon="6.81224">
        <ele>1023</ele>
        <time>2018-05-16T21:54:45Z</time>
      </trkpt>
      <trkpt lat="45.62686" lon="6.81214">
        <ele>1023</ele>
        <time>2018-05-16T21:55:45Z</time>
      </trkpt>
      <trkpt lat="45.62688" lon="6.81201">
        <ele>1022</ele>
        <time>2018-05-16T21:56:45Z</time>
      </trkpt>
      <trkpt lat="45.6269" lon="6.81181">
        <ele>1021</ele>
        <time>2018-05-16T21:57:45Z</time>
      </trkpt>
      <trkpt lat="45.6269" lon="6.81166">
        <ele>1018</ele>
        <time>2018-05-16T21:58:45Z</time>
      </trkpt>
      <trkpt lat="45.6269" lon="6.81153">
        <ele>1018</ele>
        <time>2018-05-16T21:59:45Z</time>
      </trkpt>
      <trkpt lat="45.62685" lon="6.81125">
        <ele>1018</ele>
        <time>2018-05-16T22:00:45Z</time>
      </trkpt>
      <trkpt lat="45.62679" lon="6.81084">
        <ele>1016</ele>
        <time>2018-05-16T22:01:45Z</time>
      </trkpt>
      <trkpt lat="45.62677" lon="6.81031">
        <ele>1014</ele>
        <time>2018-05-16T22:02:45Z</time>
      </trkpt>
      <trkpt lat="45.62682" lon="6.80934">
        <ele>1010</ele>
        <time>2018-05-16T22:03:45Z</time>
      </trkpt>
      <trkpt lat="45.6268" lon="6.8092">
        <ele>1008</ele>
        <time>2018-05-16T22:04:45Z</time>
      </trkpt>
      <trkpt lat="45.62675" lon="6.80909">
        <ele>1006</ele>
        <time>2018-05-16T22:05:45Z</time>
      </trkpt>
      <trkpt lat="45.62673" lon="6.80907">
        <ele>1006</ele>
        <time>2018-05-16T22:06:45Z</time>
      </trkpt>
      <trkpt lat="45.62668" lon="6.80905">
        <ele>1006</ele>
        <time>2018-05-16T22:07:45Z</time>
      </trkpt>
      <trkpt lat="45.62662" lon="6.80904">
        <ele>1001</ele>
        <time>2018-05-16T22:08:45Z</time>
      </trkpt>
      <trkpt lat="45.62653" lon="6.80906">
        <ele>1000</ele>
        <time>2018-05-16T22:09:45Z</time>
      </trkpt>
      <trkpt lat="45.62647" lon="6.80912">
        <ele>1000</ele>
        <time>2018-05-16T22:10:45Z</time>
      </trkpt>
      <trkpt lat="45.62644" lon="6.80918">
        <ele>1002</ele>
        <time>2018-05-16T22:11:45Z</time>
      </trkpt>
      <trkpt lat="45.62629" lon="6.80944">
        <ele>1001</ele>
        <time>2018-05-16T22:12:45Z</time>
      </trkpt>
      <trkpt lat="45.62614" lon="6.80966">
        <ele>1000</ele>
        <time>2018-05-16T22:13:45Z</time>
      </trkpt>
      <trkpt lat="45.62597" lon="6.80997">
        <ele>999</ele>
        <time>2018-05-16T22:14:45Z</time>
      </trkpt>
      <trkpt lat="45.62577" lon="6.81051">
        <ele>995</ele>
        <time>2018-05-16T22:15:45Z</time>
      </trkpt>
      <trkpt lat="45.62569" lon="6.81078">
        <ele>996</ele>
        <time>2018-05-16T22:16:45Z</time>
      </trkpt>
      <trkpt lat="45.62553" lon="6.81127">
        <ele>996</ele>
        <time>2018-05-16T22:17:45Z</time>
      </trkpt>
      <trkpt lat="45.62549" lon="6.81142">
        <ele>997</ele>
        <time>2018-05-16T22:18:45Z</time>
      </trkpt>
      <trkpt lat="45.62545" lon="6.81153">
        <ele>997</ele>
        <time>2018-05-16T22:19:45Z</time>
      </trkpt>
      <trkpt lat="45.62539" lon="6.81161">
        <ele>996</ele>
        <time>2018-05-16T22:20:45Z</time>
      </trkpt>
      <trkpt lat="45.62533" lon="6.81164">
        <ele>996</ele>
        <time>2018-05-16T22:21:45Z</time>
      </trkpt>
      <trkpt lat="45.62529" lon="6.81165">
        <ele>996</ele>
        <time>2018-05-16T22:22:45Z</time>
      </trkpt>
      <trkpt lat="45.62524" lon="6.81161">
        <ele>995</ele>
        <time>2018-05-16T22:23:45Z</time>
      </trkpt>
      <trkpt lat="45.62524" lon="6.81161">
        <ele>995</ele>
        <time>2018-05-16T22:24:45Z</time>
      </trkpt>
      <trkpt lat="45.62521" lon="6.81154">
        <ele>995</ele>
        <time>2018-05-16T22:25:45Z</time>
      </trkpt>
      <trkpt lat="45.62519" lon="6.81144">
        <ele>995</ele>
        <time>2018-05-16T22:26:45Z</time>
      </trkpt>
      <trkpt lat="45.62515" lon="6.81122">
        <ele>994</ele>
        <time>2018-05-16T22:27:45Z</time>
      </trkpt>
      <trkpt lat="45.6251" lon="6.81089">
        <ele>990</ele>
        <time>2018-05-16T22:28:45Z</time>
      </trkpt>
      <trkpt lat="45.62507" lon="6.81071">
        <ele>989</ele>
        <time>2018-05-16T22:29:45Z</time>
      </trkpt>
      <trkpt lat="45.62499" lon="6.81017">
        <ele>981</ele>
        <time>2018-05-16T22:30:45Z</time>
      </trkpt>
      <trkpt lat="45.6249" lon="6.80966">
        <ele>977</ele>
        <time>2018-05-16T22:31:45Z</time>
      </trkpt>
      <trkpt lat="45.62478" lon="6.80881">
        <ele>972</ele>
        <time>2018-05-16T22:32:45Z</time>
      </trkpt>
      <trkpt lat="45.62473" lon="6.80852">
        <ele>971</ele>
        <time>2018-05-16T22:33:45Z</time>
      </trkpt>
      <trkpt lat="45.62467" lon="6.80824">
        <ele>969</ele>
        <time>2018-05-16T22:34:45Z</time>
      </trkpt>
      <trkpt lat="45.62464" lon="6.80809">
        <ele>968</ele>
        <time>2018-05-16T22:35:45Z</time>
      </trkpt>
      <trkpt lat="45.62459" lon="6.80798">
        <ele>968</ele>
        <time>2018-05-16T22:36:45Z</time>
      </trkpt>
      <trkpt lat="45.62453" lon="6.80794">
        <ele>968</ele>
        <time>2018-05-16T22:37:45Z</time>
      </trkpt>
      <trkpt lat="45.62446" lon="6.80795">
        <ele>967</ele>
        <time>2018-05-16T22:38:45Z</time>
      </trkpt>
      <trkpt lat="45.6244" lon="6.808">
        <ele>967</ele>
        <time>2018-05-16T22:39:45Z</time>
      </trkpt>
      <trkpt lat="45.62434" lon="6.80811">
        <ele>967</ele>
        <time>2018-05-16T22:40:45Z</time>
      </trkpt>
      <trkpt lat="45.62428" lon="6.80824">
        <ele>966</ele>
        <time>2018-05-16T22:41:45Z</time>
      </trkpt>
      <trkpt lat="45.6242" lon="6.80844">
        <ele>967</ele>
        <time>2018-05-16T22:42:45Z</time>
      </trkpt>
      <trkpt lat="45.62406" lon="6.80878">
        <ele>962</ele>
        <time>2018-05-16T22:43:45Z</time>
      </trkpt>
      <trkpt lat="45.62399" lon="6.80896">
        <ele>962</ele>
        <time>2018-05-16T22:44:45Z</time>
      </trkpt>
      <trkpt lat="45.62392" lon="6.80912">
        <ele>962</ele>
        <time>2018-05-16T22:45:45Z</time>
      </trkpt>
      <trkpt lat="45.62381" lon="6.80939">
        <ele>962</ele>
        <time>2018-05-16T22:46:45Z</time>
      </trkpt>
      <trkpt lat="45.62371" lon="6.80966">
        <ele>962</ele>
        <time>2018-05-16T22:47:45Z</time>
      </trkpt>
      <trkpt lat="45.6236" lon="6.80991">
        <ele>961</ele>
        <time>2018-05-16T22:48:45Z</time>
      </trkpt>
      <trkpt lat="45.62348" lon="6.81019">
        <ele>962</ele>
        <time>2018-05-16T22:49:45Z</time>
      </trkpt>
      <trkpt lat="45.6232" lon="6.8108">
        <ele>956</ele>
        <time>2018-05-16T22:50:45Z</time>
      </trkpt>
      <trkpt lat="45.62313" lon="6.81094">
        <ele>956</ele>
        <time>2018-05-16T22:51:45Z</time>
      </trkpt>
      <trkpt lat="45.6231" lon="6.81098">
        <ele>956</ele>
        <time>2018-05-16T22:52:45Z</time>
      </trkpt>
      <trkpt lat="45.62305" lon="6.81098">
        <ele>955</ele>
        <time>2018-05-16T22:53:45Z</time>
      </trkpt>
      <trkpt lat="45.62304" lon="6.81098">
        <ele>955</ele>
        <time>2018-05-16T22:54:45Z</time>
      </trkpt>
      <trkpt lat="45.62299" lon="6.81095">
        <ele>955</ele>
        <time>2018-05-16T22:55:45Z</time>
      </trkpt>
      <trkpt lat="45.62295" lon="6.81088">
        <ele>954</ele>
        <time>2018-05-16T22:56:45Z</time>
      </trkpt>
      <trkpt lat="45.62289" lon="6.81049">
        <ele>951</ele>
        <time>2018-05-16T22:57:45Z</time>
      </trkpt>
      <trkpt lat="45.62281" lon="6.81004">
        <ele>949</ele>
        <time>2018-05-16T22:58:45Z</time>
      </trkpt>
      <trkpt lat="45.62276" lon="6.80959">
        <ele>948</ele>
        <time>2018-05-16T22:59:45Z</time>
      </trkpt>
      <trkpt lat="45.62272" lon="6.80928">
        <ele>946</ele>
        <time>2018-05-16T23:00:45Z</time>
      </trkpt>
      <trkpt lat="45.62265" lon="6.80873">
        <ele>945</ele>
        <time>2018-05-16T23:01:45Z</time>
      </trkpt>
      <trkpt lat="45.62262" lon="6.80853">
        <ele>944</ele>
        <time>2018-05-16T23:02:45Z</time>
      </trkpt>
      <trkpt lat="45.6226" lon="6.80838">
        <ele>942</ele>
        <time>2018-05-16T23:03:45Z</time>
      </trkpt>
      <trkpt lat="45.62258" lon="6.80826">
        <ele>942</ele>
        <time>2018-05-16T23:04:45Z</time>
      </trkpt>
      <trkpt lat="45.62256" lon="6.80816">
        <ele>943</ele>
        <time>2018-05-16T23:05:45Z</time>
      </trkpt>
      <trkpt lat="45.62253" lon="6.80808">
        <ele>944</ele>
        <time>2018-05-16T23:06:45Z</time>
      </trkpt>
      <trkpt lat="45.62249" lon="6.80804">
        <ele>937</ele>
        <time>2018-05-16T23:07:45Z</time>
      </trkpt>
      <trkpt lat="45.62245" lon="6.80802">
        <ele>937</ele>
        <time>2018-05-16T23:08:45Z</time>
      </trkpt>
      <trkpt lat="45.62241" lon="6.80803">
        <ele>937</ele>
        <time>2018-05-16T23:09:45Z</time>
      </trkpt>
      <trkpt lat="45.62237" lon="6.80806">
        <ele>937</ele>
        <time>2018-05-16T23:10:45Z</time>
      </trkpt>
      <trkpt lat="45.62234" lon="6.80811">
        <ele>937</ele>
        <time>2018-05-16T23:11:45Z</time>
      </trkpt>
      <trkpt lat="45.62231" lon="6.80817">
        <ele>936</ele>
        <time>2018-05-16T23:12:45Z</time>
      </trkpt>
      <trkpt lat="45.62229" lon="6.80825">
        <ele>937</ele>
        <time>2018-05-16T23:13:45Z</time>
      </trkpt>
      <trkpt lat="45.62224" lon="6.80849">
        <ele>936</ele>
        <time>2018-05-16T23:14:45Z</time>
      </trkpt>
      <trkpt lat="45.62195" lon="6.80988">
        <ele>935</ele>
        <time>2018-05-16T23:15:45Z</time>
      </trkpt>
      <trkpt lat="45.62188" lon="6.81024">
        <ele>935</ele>
        <time>2018-05-16T23:16:45Z</time>
      </trkpt>
      <trkpt lat="45.62182" lon="6.81045">
        <ele>936</ele>
        <time>2018-05-16T23:17:45Z</time>
      </trkpt>
      <trkpt lat="45.62174" lon="6.81058">
        <ele>935</ele>
        <time>2018-05-16T23:18:45Z</time>
      </trkpt>
      <trkpt lat="45.62165" lon="6.81063">
        <ele>929</ele>
        <time>2018-05-16T23:19:45Z</time>
      </trkpt>
      <trkpt lat="45.62158" lon="6.81065">
        <ele>928</ele>
        <time>2018-05-16T23:20:45Z</time>
      </trkpt>
      <trkpt lat="45.62151" lon="6.81065">
        <ele>928</ele>
        <time>2018-05-16T23:21:45Z</time>
      </trkpt>
      <trkpt lat="45.6214" lon="6.81058">
        <ele>927</ele>
        <time>2018-05-16T23:22:45Z</time>
      </trkpt>
      <trkpt lat="45.62136" lon="6.81053">
        <ele>926</ele>
        <time>2018-05-16T23:23:45Z</time>
      </trkpt>
      <trkpt lat="45.62132" lon="6.81047">
        <ele>926</ele>
        <time>2018-05-16T23:24:45Z</time>
      </trkpt>
      <trkpt lat="45.62128" lon="6.81036">
        <ele>925</ele>
        <time>2018-05-16T23:25:45Z</time>
      </trkpt>
      <trkpt lat="45.62126" lon="6.81025">
        <ele>925</ele>
        <time>2018-05-16T23:26:45Z</time>
      </trkpt>
      <trkpt lat="45.62123" lon="6.80999">
        <ele>925</ele>
        <time>2018-05-16T23:27:45Z</time>
      </trkpt>
      <trkpt lat="45.6212" lon="6.80935">
        <ele>924</ele>
        <time>2018-05-16T23:28:45Z</time>
      </trkpt>
      <trkpt lat="45.62118" lon="6.80884">
        <ele>923</ele>
        <time>2018-05-16T23:29:45Z</time>
      </trkpt>
      <trkpt lat="45.62115" lon="6.80839">
        <ele>923</ele>
        <time>2018-05-16T23:30:45Z</time>
      </trkpt>
      <trkpt lat="45.62114" lon="6.80819">
        <ele>922</ele>
        <time>2018-05-16T23:31:45Z</time>
      </trkpt>
      <trkpt lat="45.62109" lon="6.8076">
        <ele>920</ele>
        <time>2018-05-16T23:32:45Z</time>
      </trkpt>
      <trkpt lat="45.62107" lon="6.80738">
        <ele>919</ele>
        <time>2018-05-16T23:33:45Z</time>
      </trkpt>
      <trkpt lat="45.62104" lon="6.80695">
        <ele>918</ele>
        <time>2018-05-16T23:34:45Z</time>
      </trkpt>
      <trkpt lat="45.621" lon="6.80649">
        <ele>916</ele>
        <time>2018-05-16T23:35:45Z</time>
      </trkpt>
      <trkpt lat="45.62099" lon="6.80633">
        <ele>916</ele>
        <time>2018-05-16T23:36:45Z</time>
      </trkpt>
      <trkpt lat="45.62097" lon="6.80614">
        <ele>916</ele>
        <time>2018-05-16T23:37:45Z</time>
      </trkpt>
      <trkpt lat="45.62095" lon="6.80581">
        <ele>913</ele>
        <time>2018-05-16T23:38:45Z</time>
      </trkpt>
      <trkpt lat="45.62092" lon="6.80511">
        <ele>911</ele>
        <time>2018-05-16T23:39:45Z</time>
      </trkpt>
      <trkpt lat="45.62092" lon="6.80495">
        <ele>909</ele>
        <time>2018-05-16T23:40:45Z</time>
      </trkpt>
      <trkpt lat="45.62093" lon="6.80478">
        <ele>909</ele>
        <time>2018-05-16T23:41:45Z</time>
      </trkpt>
      <trkpt lat="45.62098" lon="6.80448">
        <ele>909</ele>
        <time>2018-05-16T23:42:45Z</time>
      </trkpt>
      <trkpt lat="45.62104" lon="6.80423">
        <ele>908</ele>
        <time>2018-05-16T23:43:45Z</time>
      </trkpt>
      <trkpt lat="45.62107" lon="6.80408">
        <ele>905</ele>
        <time>2018-05-16T23:44:45Z</time>
      </trkpt>
      <trkpt lat="45.62111" lon="6.80394">
        <ele>905</ele>
        <time>2018-05-16T23:45:45Z</time>
      </trkpt>
      <trkpt lat="45.62122" lon="6.80356">
        <ele>905</ele>
        <time>2018-05-16T23:46:45Z</time>
      </trkpt>
      <trkpt lat="45.62129" lon="6.80335">
        <ele>905</ele>
        <time>2018-05-16T23:47:45Z</time>
      </trkpt>
      <trkpt lat="45.62133" lon="6.80321">
        <ele>902</ele>
        <time>2018-05-16T23:48:45Z</time>
      </trkpt>
      <trkpt lat="45.6214" lon="6.80299">
        <ele>902</ele>
        <time>2018-05-16T23:49:45Z</time>
      </trkpt>
      <trkpt lat="45.62146" lon="6.80279">
        <ele>901</ele>
        <time>2018-05-16T23:50:45Z</time>
      </trkpt>
      <trkpt lat="45.62161" lon="6.80233">
        <ele>898</ele>
        <time>2018-05-16T23:51:45Z</time>
      </trkpt>
      <trkpt lat="45.62185" lon="6.80155">
        <ele>897</ele>
        <time>2018-05-16T23:52:45Z</time>
      </trkpt>
      <trkpt lat="45.62191" lon="6.80136">
        <ele>897</ele>
        <time>2018-05-16T23:53:45Z</time>
      </trkpt>
      <trkpt lat="45.62194" lon="6.8012">
        <ele>896</ele>
        <time>2018-05-16T23:54:45Z</time>
      </trkpt>
      <trkpt lat="45.62194" lon="6.80107">
        <ele>896</ele>
        <time>2018-05-16T23:55:45Z</time>
      </trkpt>
      <trkpt lat="45.62213" lon="6.80065">
        <ele>893</ele>
        <time>2018-05-16T23:56:45Z</time>
      </trkpt>
      <trkpt lat="45.62228" lon="6.8004">
        <ele>892</ele>
        <time>2018-05-16T23:57:45Z</time>
      </trkpt>
      <trkpt lat="45.62232" lon="6.80035">
        <ele>892</ele>
        <time>2018-05-16T23:58:45Z</time>
      </trkpt>
      <trkpt lat="45.6224" lon="6.80025">
        <ele>892</ele>
        <time>2018-05-16T23:59:45Z</time>
      </trkpt>
      <trkpt lat="45.62247" lon="6.80015">
        <ele>892</ele>
        <time>2018-05-17T00:00:45Z</time>
      </trkpt>
      <trkpt lat="45.62271" lon="6.79981">
        <ele>892</ele>
        <time>2018-05-17T00:01:45Z</time>
      </trkpt>
      <trkpt lat="45.62276" lon="6.79974">
        <ele>892</ele>
        <time>2018-05-17T00:02:45Z</time>
      </trkpt>
      <trkpt lat="45.62287" lon="6.79959">
        <ele>892</ele>
        <time>2018-05-17T00:03:45Z</time>
      </trkpt>
      <trkpt lat="45.62294" lon="6.79947">
        <ele>891</ele>
        <time>2018-05-17T00:04:45Z</time>
      </trkpt>
      <trkpt lat="45.62303" lon="6.79925">
        <ele>891</ele>
        <time>2018-05-17T00:05:45Z</time>
      </trkpt>
      <trkpt lat="45.62324" lon="6.79875">
        <ele>886</ele>
        <time>2018-05-17T00:06:45Z</time>
      </trkpt>
      <trkpt lat="45.62337" lon="6.79848">
        <ele>887</ele>
        <time>2018-05-17T00:07:45Z</time>
      </trkpt>
      <trkpt lat="45.62359" lon="6.79801">
        <ele>884</ele>
        <time>2018-05-17T00:08:45Z</time>
      </trkpt>
      <trkpt lat="45.62378" lon="6.79763">
        <ele>883</ele>
        <time>2018-05-17T00:09:45Z</time>
      </trkpt>
      <trkpt lat="45.62399" lon="6.79716">
        <ele>878</ele>
        <time>2018-05-17T00:10:45Z</time>
      </trkpt>
      <trkpt lat="45.6241" lon="6.79692">
        <ele>877</ele>
        <time>2018-05-17T00:11:45Z</time>
      </trkpt>
      <trkpt lat="45.62426" lon="6.79657">
        <ele>875</ele>
        <time>2018-05-17T00:12:45Z</time>
      </trkpt>
      <trkpt lat="45.62431" lon="6.79645">
        <ele>875</ele>
        <time>2018-05-17T00:13:45Z</time>
      </trkpt>
      <trkpt lat="45.62442" lon="6.79623">
        <ele>874</ele>
        <time>2018-05-17T00:14:45Z</time>
      </trkpt>
      <trkpt lat="45.62458" lon="6.79589">
        <ele>874</ele>
        <time>2018-05-17T00:15:45Z</time>
      </trkpt>
      <trkpt lat="45.62477" lon="6.79553">
        <ele>871</ele>
        <time>2018-05-17T00:16:45Z</time>
      </trkpt>
      <trkpt lat="45.62489" lon="6.7953">
        <ele>870</ele>
        <time>2018-05-17T00:17:45Z</time>
      </trkpt>
      <trkpt lat="45.62499" lon="6.79521">
        <ele>870</ele>
        <time>2018-05-17T00:18:45Z</time>
      </trkpt>
      <trkpt lat="45.625" lon="6.79519">
        <ele>871</ele>
        <time>2018-05-17T00:19:45Z</time>
      </trkpt>
      <trkpt lat="45.6251" lon="6.79502">
        <ele>871</ele>
        <time>2018-05-17T00:20:45Z</time>
      </trkpt>
      <trkpt lat="45.62519" lon="6.79485">
        <ele>870</ele>
        <time>2018-05-17T00:21:45Z</time>
      </trkpt>
      <trkpt lat="45.62523" lon="6.79478">
        <ele>870</ele>
        <time>2018-05-17T00:22:45Z</time>
      </trkpt>
      <trkpt lat="45.62526" lon="6.79471">
        <ele>870</ele>
        <time>2018-05-17T00:23:45Z</time>
      </trkpt>
      <trkpt lat="45.62529" lon="6.79473">
        <ele>870</ele>
        <time>2018-05-17T00:24:45Z</time>
      </trkpt>
      <trkpt lat="45.62532" lon="6.79472">
        <ele>870</ele>
        <time>2018-05-17T00:25:45Z</time>
      </trkpt>
      <trkpt lat="45.62536" lon="6.7947">
        <ele>870</ele>
        <time>2018-05-17T00:26:45Z</time>
      </trkpt>
      <trkpt lat="45.62537" lon="6.79469">
        <ele>870</ele>
        <time>2018-05-17T00:27:45Z</time>
      </trkpt>
      <trkpt lat="45.6254" lon="6.79466">
        <ele>870</ele>
        <time>2018-05-17T00:28:45Z</time>
      </trkpt>
      <trkpt lat="45.62543" lon="6.79463">
        <ele>870</ele>
        <time>2018-05-17T00:29:45Z</time>
      </trkpt>
      <trkpt lat="45.62543" lon="6.79462">
        <ele>870</ele>
        <time>2018-05-17T00:30:45Z</time>
      </trkpt>
      <trkpt lat="45.62544" lon="6.79459">
        <ele>870</ele>
        <time>2018-05-17T00:31:45Z</time>
      </trkpt>
      <trkpt lat="45.62544" lon="6.79457">
        <ele>870</ele>
        <time>2018-05-17T00:32:45Z</time>
      </trkpt>
      <trkpt lat="45.62544" lon="6.79455">
        <ele>870</ele>
        <time>2018-05-17T00:33:45Z</time>
      </trkpt>
      <trkpt lat="45.62544" lon="6.79453">
        <ele>870</ele>
        <time>2018-05-17T00:34:45Z</time>
      </trkpt>
      <trkpt lat="45.62543" lon="6.79449">
        <ele>870</ele>
        <time>2018-05-17T00:35:45Z</time>
      </trkpt>
      <trkpt lat="45.62549" lon="6.79442">
        <ele>870</ele>
        <time>2018-05-17T00:36:45Z</time>
      </trkpt>
      <trkpt lat="45.62554" lon="6.79434">
        <ele>869</ele>
        <time>2018-05-17T00:37:45Z</time>
      </trkpt>
      <trkpt lat="45.62578" lon="6.79408">
        <ele>867</ele>
        <time>2018-05-17T00:38:45Z</time>
      </trkpt>
      <trkpt lat="45.62582" lon="6.79402">
        <ele>866</ele>
        <time>2018-05-17T00:39:45Z</time>
      </trkpt>
      <trkpt lat="45.62587" lon="6.79394">
        <ele>875</ele>
        <time>2018-05-17T00:40:45Z</time>
      </trkpt>
      <trkpt lat="45.62595" lon="6.79383">
        <ele>876</ele>
        <time>2018-05-17T00:41:45Z</time>
      </trkpt>
      <trkpt lat="45.62599" lon="6.79376">
        <ele>876</ele>
        <time>2018-05-17T00:42:45Z</time>
      </trkpt>
      <trkpt lat="45.62603" lon="6.79369">
        <ele>876</ele>
        <time>2018-05-17T00:43:45Z</time>
      </trkpt>
      <trkpt lat="45.6261" lon="6.79359">
        <ele>877</ele>
        <time>2018-05-17T00:44:45Z</time>
      </trkpt>
      <trkpt lat="45.62628" lon="6.7931">
        <ele>872</ele>
        <time>2018-05-17T00:45:45Z</time>
      </trkpt>
      <trkpt lat="45.62632" lon="6.79292">
        <ele>872</ele>
        <time>2018-05-17T00:46:45Z</time>
      </trkpt>
      <trkpt lat="45.62634" lon="6.79284">
        <ele>872</ele>
        <time>2018-05-17T00:47:45Z</time>
      </trkpt>
      <trkpt lat="45.62638" lon="6.79266">
        <ele>872</ele>
        <time>2018-05-17T00:48:45Z</time>
      </trkpt>
      <trkpt lat="45.6264" lon="6.79255">
        <ele>872</ele>
        <time>2018-05-17T00:49:45Z</time>
      </trkpt>
      <trkpt lat="45.62643" lon="6.79237">
        <ele>868</ele>
        <time>2018-05-17T00:50:45Z</time>
      </trkpt>
      <trkpt lat="45.62646" lon="6.79217">
        <ele>867</ele>
        <time>2018-05-17T00:51:45Z</time>
      </trkpt>
      <trkpt lat="45.62647" lon="6.79207">
        <ele>866</ele>
        <time>2018-05-17T00:52:45Z</time>
      </trkpt>
      <trkpt lat="45.62649" lon="6.79198">
        <ele>866</ele>
        <time>2018-05-17T00:53:45Z</time>
      </trkpt>
      <trkpt lat="45.62657" lon="6.79171">
        <ele>865</ele>
        <time>2018-05-17T00:54:45Z</time>
      </trkpt>
      <trkpt lat="45.62667" lon="6.79134">
        <ele>873</ele>
        <time>2018-05-17T00:55:45Z</time>
      </trkpt>
      <trkpt lat="45.62671" lon="6.79114">
        <ele>871</ele>
        <time>2018-05-17T00:56:45Z</time>
      </trkpt>
      <trkpt lat="45.62674" lon="6.791">
        <ele>868</ele>
        <time>2018-05-17T00:57:45Z</time>
      </trkpt>
      <trkpt lat="45.62677" lon="6.79085">
        <ele>864</ele>
        <time>2018-05-17T00:58:45Z</time>
      </trkpt>
      <trkpt lat="45.6268" lon="6.79065">
        <ele>863</ele>
        <time>2018-05-17T00:59:45Z</time>
      </trkpt>
      <trkpt lat="45.62684" lon="6.79035">
        <ele>864</ele>
        <time>2018-05-17T01:00:45Z</time>
      </trkpt>
      <trkpt lat="45.62686" lon="6.79025">
        <ele>863</ele>
        <time>2018-05-17T01:01:45Z</time>
      </trkpt>
      <trkpt lat="45.62687" lon="6.79016">
        <ele>862</ele>
        <time>2018-05-17T01:02:45Z</time>
      </trkpt>
      <trkpt lat="45.62688" lon="6.79005">
        <ele>861</ele>
        <time>2018-05-17T01:03:45Z</time>
      </trkpt>
      <trkpt lat="45.62691" lon="6.78975">
        <ele>858</ele>
        <time>2018-05-17T01:04:45Z</time>
      </trkpt>
      <trkpt lat="45.62693" lon="6.78944">
        <ele>858</ele>
        <time>2018-05-17T01:05:45Z</time>
      </trkpt>
      <trkpt lat="45.62694" lon="6.78926">
        <ele>857</ele>
        <time>2018-05-17T01:06:45Z</time>
      </trkpt>
      <trkpt lat="45.62695" lon="6.78913">
        <ele>852</ele>
        <time>2018-05-17T01:07:45Z</time>
      </trkpt>
      <trkpt lat="45.62696" lon="6.78902">
        <ele>852</ele>
        <time>2018-05-17T01:08:45Z</time>
      </trkpt>
      <trkpt lat="45.62697" lon="6.78886">
        <ele>852</ele>
        <time>2018-05-17T01:09:45Z</time>
      </trkpt>
      <trkpt lat="45.627" lon="6.78835">
        <ele>849</ele>
        <time>2018-05-17T01:10:45Z</time>
      </trkpt>
      <trkpt lat="45.62701" lon="6.78817">
        <ele>843</ele>
        <time>2018-05-17T01:11:45Z</time>
      </trkpt>
      <trkpt lat="45.62702" lon="6.788">
        <ele>843</ele>
        <time>2018-05-17T01:12:45Z</time>
      </trkpt>
      <trkpt lat="45.62704" lon="6.78769">
        <ele>842</ele>
        <time>2018-05-17T01:13:45Z</time>
      </trkpt>
      <trkpt lat="45.62706" lon="6.78751">
        <ele>841</ele>
        <time>2018-05-17T01:14:45Z</time>
      </trkpt>
      <trkpt lat="45.62711" lon="6.78725">
        <ele>838</ele>
        <time>2018-05-17T01:15:45Z</time>
      </trkpt>
      <trkpt lat="45.62713" lon="6.78717">
        <ele>838</ele>
        <time>2018-05-17T01:16:45Z</time>
      </trkpt>
      <trkpt lat="45.62713" lon="6.78711">
        <ele>838</ele>
        <time>2018-05-17T01:17:45Z</time>
      </trkpt>
      <trkpt lat="45.62714" lon="6.78704">
        <ele>838</ele>
        <time>2018-05-17T01:18:45Z</time>
      </trkpt>
      <trkpt lat="45.62714" lon="6.78697">
        <ele>838</ele>
        <time>2018-05-17T01:19:45Z</time>
      </trkpt>
      <trkpt lat="45.62713" lon="6.78688">
        <ele>838</ele>
        <time>2018-05-17T01:20:45Z</time>
      </trkpt>
      <trkpt lat="45.62713" lon="6.78679">
        <ele>838</ele>
        <time>2018-05-17T01:21:45Z</time>
      </trkpt>
      <trkpt lat="45.62711" lon="6.78668">
        <ele>838</ele>
        <time>2018-05-17T01:22:45Z</time>
      </trkpt>
      <trkpt lat="45.62709" lon="6.78654">
        <ele>840</ele>
        <time>2018-05-17T01:23:45Z</time>
      </trkpt>
      <trkpt lat="45.62705" lon="6.78639">
        <ele>840</ele>
        <time>2018-05-17T01:24:45Z</time>
      </trkpt>
      <trkpt lat="45.62702" lon="6.78629">
        <ele>841</ele>
        <time>2018-05-17T01:25:45Z</time>
      </trkpt>
      <trkpt lat="45.627" lon="6.78624">
        <ele>841</ele>
        <time>2018-05-17T01:26:45Z</time>
      </trkpt>
      <trkpt lat="45.62698" lon="6.78619">
        <ele>841</ele>
        <time>2018-05-17T01:27:45Z</time>
      </trkpt>
      <trkpt lat="45.62695" lon="6.78613">
        <ele>841</ele>
        <time>2018-05-17T01:28:45Z</time>
      </trkpt>
      <trkpt lat="45.62691" lon="6.78609">
        <ele>841</ele>
        <time>2018-05-17T01:29:45Z</time>
      </trkpt>
      <trkpt lat="45.6268" lon="6.78596">
        <ele>840</ele>
        <time>2018-05-17T01:30:45Z</time>
      </trkpt>
      <trkpt lat="45.62657" lon="6.78573">
        <ele>836</ele>
        <time>2018-05-17T01:31:45Z</time>
      </trkpt>
      <trkpt lat="45.62651" lon="6.78567">
        <ele>836</ele>
        <time>2018-05-17T01:32:45Z</time>
      </trkpt>
      <trkpt lat="45.6263" lon="6.78541">
        <ele>835</ele>
        <time>2018-05-17T01:33:45Z</time>
      </trkpt>
      <trkpt lat="45.62625" lon="6.78532">
        <ele>835</ele>
        <time>2018-05-17T01:34:45Z</time>
      </trkpt>
      <trkpt lat="45.62623" lon="6.78527">
        <ele>835</ele>
        <time>2018-05-17T01:35:45Z</time>
      </trkpt>
      <trkpt lat="45.62612" lon="6.78492">
        <ele>837</ele>
        <time>2018-05-17T01:36:45Z</time>
      </trkpt>
      <trkpt lat="45.62605" lon="6.78466">
        <ele>838</ele>
        <time>2018-05-17T01:37:45Z</time>
      </trkpt>
      <trkpt lat="45.62591" lon="6.78418">
        <ele>835</ele>
        <time>2018-05-17T01:38:45Z</time>
      </trkpt>
      <trkpt lat="45.62578" lon="6.78375">
        <ele>831</ele>
        <time>2018-05-17T01:39:45Z</time>
      </trkpt>
      <trkpt lat="45.62567" lon="6.78321">
        <ele>834</ele>
        <time>2018-05-17T01:40:45Z</time>
      </trkpt>
      <trkpt lat="45.62566" lon="6.78316">
        <ele>833</ele>
        <time>2018-05-17T01:41:45Z</time>
      </trkpt>
      <trkpt lat="45.62565" lon="6.78301">
        <ele>832</ele>
        <time>2018-05-17T01:42:45Z</time>
      </trkpt>
      <trkpt lat="45.62564" lon="6.78288">
        <ele>832</ele>
        <time>2018-05-17T01:43:45Z</time>
      </trkpt>
      <trkpt lat="45.62565" lon="6.78258">
        <ele>833</ele>
        <time>2018-05-17T01:44:45Z</time>
      </trkpt>
      <trkpt lat="45.62566" lon="6.78246">
        <ele>833</ele>
        <time>2018-05-17T01:45:45Z</time>
      </trkpt>
      <trkpt lat="45.62567" lon="6.78213">
        <ele>830</ele>
        <time>2018-05-17T01:46:45Z</time>
      </trkpt>
      <trkpt lat="45.62564" lon="6.78186">
        <ele>830</ele>
        <time>2018-05-17T01:47:45Z</time>
      </trkpt>
      <trkpt lat="45.62559" lon="6.78157">
        <ele>829</ele>
        <time>2018-05-17T01:48:45Z</time>
      </trkpt>
      <trkpt lat="45.62552" lon="6.78134">
        <ele>828</ele>
        <time>2018-05-17T01:49:45Z</time>
      </trkpt>
      <trkpt lat="45.62545" lon="6.7811">
        <ele>827</ele>
        <time>2018-05-17T01:50:45Z</time>
      </trkpt>
      <trkpt lat="45.62542" lon="6.78103">
        <ele>827</ele>
        <time>2018-05-17T01:51:45Z</time>
      </trkpt>
      <trkpt lat="45.62529" lon="6.7807">
        <ele>826</ele>
        <time>2018-05-17T01:52:45Z</time>
      </trkpt>
      <trkpt lat="45.62519" lon="6.78045">
        <ele>826</ele>
        <time>2018-05-17T01:53:45Z</time>
      </trkpt>
      <trkpt lat="45.62511" lon="6.7803">
        <ele>825</ele>
        <time>2018-05-17T01:54:45Z</time>
      </trkpt>
      <trkpt lat="45.62504" lon="6.78017">
        <ele>823</ele>
        <time>2018-05-17T01:55:45Z</time>
      </trkpt>
      <trkpt lat="45.62496" lon="6.78005">
        <ele>817</ele>
        <time>2018-05-17T01:56:45Z</time>
      </trkpt>
      <trkpt lat="45.62472" lon="6.7797">
        <ele>818</ele>
        <time>2018-05-17T01:57:45Z</time>
      </trkpt>
      <trkpt lat="45.62458" lon="6.77952">
        <ele>817</ele>
        <time>2018-05-17T01:58:45Z</time>
      </trkpt>
      <trkpt lat="45.62434" lon="6.77922">
        <ele>815</ele>
        <time>2018-05-17T01:59:45Z</time>
      </trkpt>
      <trkpt lat="45.62411" lon="6.77895">
        <ele>812</ele>
        <time>2018-05-17T02:00:45Z</time>
      </trkpt>
      <trkpt lat="45.62405" lon="6.77888">
        <ele>812</ele>
        <time>2018-05-17T02:01:45Z</time>
      </trkpt>
      <trkpt lat="45.62398" lon="6.77878">
        <ele>813</ele>
        <time>2018-05-17T02:02:45Z</time>
      </trkpt>
      <trkpt lat="45.62389" lon="6.77868">
        <ele>813</ele>
        <time>2018-05-17T02:03:45Z</time>
      </trkpt>
      <trkpt lat="45.62378" lon="6.77859">
        <ele>812</ele>
        <time>2018-05-17T02:04:45Z</time>
      </trkpt>
      <trkpt lat="45.62365" lon="6.77844">
        <ele>812</ele>
        <time>2018-05-17T02:05:45Z</time>
      </trkpt>
      <trkpt lat="45.62358" lon="6.77838">
        <ele>812</ele>
        <time>2018-05-17T02:06:45Z</time>
      </trkpt>
      <trkpt lat="45.62358" lon="6.77832">
        <ele>812</ele>
        <time>2018-05-17T02:07:45Z</time>
      </trkpt>
      <trkpt lat="45.62356" lon="6.77828">
        <ele>812</ele>
        <time>2018-05-17T02:08:45Z</time>
      </trkpt>
      <trkpt lat="45.62355" lon="6.77825">
        <ele>812</ele>
        <time>2018-05-17T02:09:45Z</time>
      </trkpt>
      <trkpt lat="45.62351" lon="6.77821">
        <ele>812</ele>
        <time>2018-05-17T02:10:45Z</time>
      </trkpt>
      <trkpt lat="45.62349" lon="6.7782">
        <ele>812</ele>
        <time>2018-05-17T02:11:45Z</time>
      </trkpt>
      <trkpt lat="45.62346" lon="6.77818">
        <ele>812</ele>
        <time>2018-05-17T02:12:45Z</time>
      </trkpt>
      <trkpt lat="45.62341" lon="6.77818">
        <ele>812</ele>
        <time>2018-05-17T02:13:45Z</time>
      </trkpt>
      <trkpt lat="45.62334" lon="6.77808">
        <ele>812</ele>
        <time>2018-05-17T02:14:45Z</time>
      </trkpt>
      <trkpt lat="45.62331" lon="6.77798">
        <ele>810</ele>
        <time>2018-05-17T02:15:45Z</time>
      </trkpt>
      <trkpt lat="45.62322" lon="6.77777">
        <ele>810</ele>
        <time>2018-05-17T02:16:45Z</time>
      </trkpt>
      <trkpt lat="45.62311" lon="6.77752">
        <ele>810</ele>
        <time>2018-05-17T02:17:45Z</time>
      </trkpt>
      <trkpt lat="45.623" lon="6.77726">
        <ele>809</ele>
        <time>2018-05-17T02:18:45Z</time>
      </trkpt>
      <trkpt lat="45.62288" lon="6.77701">
        <ele>809</ele>
        <time>2018-05-17T02:19:45Z</time>
      </trkpt>
      <trkpt lat="45.62276" lon="6.77674">
        <ele>809</ele>
        <time>2018-05-17T02:20:45Z</time>
      </trkpt>
      <trkpt lat="45.62263" lon="6.77647">
        <ele>808</ele>
        <time>2018-05-17T02:21:45Z</time>
      </trkpt>
      <trkpt lat="45.62205" lon="6.77525">
        <ele>808</ele>
        <time>2018-05-17T02:22:45Z</time>
      </trkpt>
      <trkpt lat="45.62202" lon="6.7752">
        <ele>808</ele>
        <time>2018-05-17T02:23:45Z</time>
      </trkpt>
      <trkpt lat="45.622" lon="6.77518">
        <ele>808</ele>
        <time>2018-05-17T02:24:45Z</time>
      </trkpt>
      <trkpt lat="45.62194" lon="6.77514">
        <ele>808</ele>
        <time>2018-05-17T02:25:45Z</time>
      </trkpt>
      <trkpt lat="45.62183" lon="6.77485">
        <ele>809</ele>
        <time>2018-05-17T02:26:45Z</time>
      </trkpt>
      <trkpt lat="45.62176" lon="6.77467">
        <ele>809</ele>
        <time>2018-05-17T02:27:45Z</time>
      </trkpt>
      <trkpt lat="45.62169" lon="6.77447">
        <ele>809</ele>
        <time>2018-05-17T02:28:45Z</time>
      </trkpt>
      <trkpt lat="45.62162" lon="6.7743">
        <ele>809</ele>
        <time>2018-05-17T02:29:45Z</time>
      </trkpt>
      <trkpt lat="45.62149" lon="6.77391">
        <ele>809</ele>
        <time>2018-05-17T02:30:45Z</time>
      </trkpt>
      <trkpt lat="45.62136" lon="6.77356">
        <ele>810</ele>
        <time>2018-05-17T02:31:45Z</time>
      </trkpt>
      <trkpt lat="45.62132" lon="6.77344">
        <ele>810</ele>
        <time>2018-05-17T02:32:45Z</time>
      </trkpt>
      <trkpt lat="45.62118" lon="6.77311">
        <ele>812</ele>
        <time>2018-05-17T02:33:45Z</time>
      </trkpt>
      <trkpt lat="45.62117" lon="6.77309">
        <ele>812</ele>
        <time>2018-05-17T02:34:45Z</time>
      </trkpt>
      <trkpt lat="45.62109" lon="6.77288">
        <ele>812</ele>
        <time>2018-05-17T02:35:45Z</time>
      </trkpt>
      <trkpt lat="45.62095" lon="6.77255">
        <ele>813</ele>
        <time>2018-05-17T02:36:45Z</time>
      </trkpt>
      <trkpt lat="45.62091" lon="6.77246">
        <ele>814</ele>
        <time>2018-05-17T02:37:45Z</time>
      </trkpt>
      <trkpt lat="45.62068" lon="6.77191">
        <ele>814</ele>
        <time>2018-05-17T02:38:45Z</time>
      </trkpt>
      <trkpt lat="45.62062" lon="6.77173">
        <ele>814</ele>
        <time>2018-05-17T02:39:45Z</time>
      </trkpt>
      <trkpt lat="45.62059" lon="6.77165">
        <ele>815</ele>
        <time>2018-05-17T02:40:45Z</time>
      </trkpt>
      <trkpt lat="45.62058" lon="6.77163">
        <ele>814</ele>
        <time>2018-05-17T02:41:45Z</time>
      </trkpt>
      <trkpt lat="45.62058" lon="6.77156">
        <ele>815</ele>
        <time>2018-05-17T02:42:45Z</time>
      </trkpt>
      <trkpt lat="45.62054" lon="6.77146">
        <ele>814</ele>
        <time>2018-05-17T02:43:45Z</time>
      </trkpt>
      <trkpt lat="45.62045" lon="6.77126">
        <ele>815</ele>
        <time>2018-05-17T02:44:45Z</time>
      </trkpt>
      <trkpt lat="45.62045" lon="6.77126">
        <ele>815</ele>
        <time>2018-05-17T02:45:45Z</time>
      </trkpt>
      <trkpt lat="45.62047" lon="6.77121">
        <ele>815</ele>
        <time>2018-05-17T02:46:45Z</time>
      </trkpt>
      <trkpt lat="45.62048" lon="6.77118">
        <ele>815</ele>
        <time>2018-05-17T02:47:45Z</time>
      </trkpt>
      <trkpt lat="45.62048" lon="6.77112">
        <ele>815</ele>
        <time>2018-05-17T02:48:45Z</time>
      </trkpt>
      <trkpt lat="45.62047" lon="6.77105">
        <ele>815</ele>
        <time>2018-05-17T02:49:45Z</time>
      </trkpt>
      <trkpt lat="45.62064" lon="6.77094">
        <ele>815</ele>
        <time>2018-05-17T02:50:45Z</time>
      </trkpt>
      <trkpt lat="45.62069" lon="6.77089">
        <ele>815</ele>
        <time>2018-05-17T02:51:45Z</time>
      </trkpt>
      <trkpt lat="45.6208" lon="6.77088">
        <ele>816</ele>
        <time>2018-05-17T02:52:45Z</time>
      </trkpt>
      <trkpt lat="45.62139" lon="6.77085">
        <ele>816</ele>
        <time>2018-05-17T02:53:45Z</time>
      </trkpt>
      <trkpt lat="45.62193" lon="6.77086">
        <ele>818</ele>
        <time>2018-05-17T02:54:45Z</time>
      </trkpt>
      <trkpt lat="45.62202" lon="6.77087">
        <ele>818</ele>
        <time>2018-05-17T02:55:45Z</time>
      </trkpt>
      <trkpt lat="45.62233" lon="6.77091">
        <ele>820</ele>
        <time>2018-05-17T02:56:45Z</time>
      </trkpt>
      <trkpt lat="45.62247" lon="6.77094">
        <ele>820</ele>
        <time>2018-05-17T02:57:45Z</time>
      </trkpt>
      <trkpt lat="45.62274" lon="6.77106">
        <ele>824</ele>
        <time>2018-05-17T02:58:45Z</time>
      </trkpt>
      <trkpt lat="45.62278" lon="6.77108">
        <ele>824</ele>
        <time>2018-05-17T02:59:45Z</time>
      </trkpt>
      <trkpt lat="45.62304" lon="6.77124">
        <ele>825</ele>
        <time>2018-05-17T03:00:45Z</time>
      </trkpt>
      <trkpt lat="45.62307" lon="6.77126">
        <ele>826</ele>
        <time>2018-05-17T03:01:45Z</time>
      </trkpt>
      <trkpt lat="45.62321" lon="6.77139">
        <ele>827</ele>
        <time>2018-05-17T03:02:45Z</time>
      </trkpt>
      <trkpt lat="45.62328" lon="6.77145">
        <ele>827</ele>
        <time>2018-05-17T03:03:45Z</time>
      </trkpt>
      <trkpt lat="45.6234" lon="6.7716">
        <ele>835</ele>
        <time>2018-05-17T03:04:45Z</time>
      </trkpt>
      <trkpt lat="45.62345" lon="6.77169">
        <ele>835</ele>
        <time>2018-05-17T03:05:45Z</time>
      </trkpt>
      <trkpt lat="45.62352" lon="6.77181">
        <ele>838</ele>
        <time>2018-05-17T03:06:45Z</time>
      </trkpt>
      <trkpt lat="45.62366" lon="6.77207">
        <ele>840</ele>
        <time>2018-05-17T03:07:45Z</time>
      </trkpt>
      <trkpt lat="45.62368" lon="6.77211">
        <ele>840</ele>
        <time>2018-05-17T03:08:45Z</time>
      </trkpt>
      <trkpt lat="45.62382" lon="6.77235">
        <ele>842</ele>
        <time>2018-05-17T03:09:45Z</time>
      </trkpt>
      <trkpt lat="45.62392" lon="6.77256">
        <ele>838</ele>
        <time>2018-05-17T03:10:45Z</time>
      </trkpt>
      <trkpt lat="45.624" lon="6.77276">
        <ele>836</ele>
        <time>2018-05-17T03:11:45Z</time>
      </trkpt>
      <trkpt lat="45.62411" lon="6.77303">
        <ele>834</ele>
        <time>2018-05-17T03:12:45Z</time>
      </trkpt>
      <trkpt lat="45.6242" lon="6.7733">
        <ele>842</ele>
        <time>2018-05-17T03:13:45Z</time>
      </trkpt>
      <trkpt lat="45.62435" lon="6.77369">
        <ele>850</ele>
        <time>2018-05-17T03:14:45Z</time>
      </trkpt>
      <trkpt lat="45.62445" lon="6.77393">
        <ele>851</ele>
        <time>2018-05-17T03:15:45Z</time>
      </trkpt>
      <trkpt lat="45.62448" lon="6.77402">
        <ele>850</ele>
        <time>2018-05-17T03:16:45Z</time>
      </trkpt>
      <trkpt lat="45.62455" lon="6.77418">
        <ele>845</ele>
        <time>2018-05-17T03:17:45Z</time>
      </trkpt>
      <trkpt lat="45.62459" lon="6.77429">
        <ele>846</ele>
        <time>2018-05-17T03:18:45Z</time>
      </trkpt>
      <trkpt lat="45.62462" lon="6.77442">
        <ele>846</ele>
        <time>2018-05-17T03:19:45Z</time>
      </trkpt>
      <trkpt lat="45.62464" lon="6.77455">
        <ele>846</ele>
        <time>2018-05-17T03:20:45Z</time>
      </trkpt>
      <trkpt lat="45.62468" lon="6.77468">
        <ele>846</ele>
        <time>2018-05-17T03:21:45Z</time>
      </trkpt>
      <trkpt lat="45.62475" lon="6.77487">
        <ele>848</ele>
        <time>2018-05-17T03:22:45Z</time>
      </trkpt>
      <trkpt lat="45.62489" lon="6.77512">
        <ele>849</ele>
        <time>2018-05-17T03:23:45Z</time>
      </trkpt>
      <trkpt lat="45.62495" lon="6.77524">
        <ele>847</ele>
        <time>2018-05-17T03:24:45Z</time>
      </trkpt>
      <trkpt lat="45.62499" lon="6.77536">
        <ele>845</ele>
        <time>2018-05-17T03:25:45Z</time>
      </trkpt>
      <trkpt lat="45.62507" lon="6.77561">
        <ele>871</ele>
        <time>2018-05-17T03:26:45Z</time>
      </trkpt>
      <trkpt lat="45.62508" lon="6.77573">
        <ele>867</ele>
        <time>2018-05-17T03:27:45Z</time>
      </trkpt>
      <trkpt lat="45.62508" lon="6.77589">
        <ele>863</ele>
        <time>2018-05-17T03:28:45Z</time>
      </trkpt>
      <trkpt lat="45.62502" lon="6.77615">
        <ele>868</ele>
        <time>2018-05-17T03:29:45Z</time>
      </trkpt>
      <trkpt lat="45.62497" lon="6.77636">
        <ele>843</ele>
        <time>2018-05-17T03:30:45Z</time>
      </trkpt>
      <trkpt lat="45.62495" lon="6.77651">
        <ele>845</ele>
        <time>2018-05-17T03:31:45Z</time>
      </trkpt>
      <trkpt lat="45.62495" lon="6.77665">
        <ele>850</ele>
        <time>2018-05-17T03:32:45Z</time>
      </trkpt>
      <trkpt lat="45.62497" lon="6.77678">
        <ele>847</ele>
        <time>2018-05-17T03:33:45Z</time>
      </trkpt>
      <trkpt lat="45.62503" lon="6.77704">
        <ele>864</ele>
        <time>2018-05-17T03:34:45Z</time>
      </trkpt>
      <trkpt lat="45.62506" lon="6.77717">
        <ele>863</ele>
        <time>2018-05-17T03:35:45Z</time>
      </trkpt>
      <trkpt lat="45.6251" lon="6.77729">
        <ele>862</ele>
        <time>2018-05-17T03:36:45Z</time>
      </trkpt>
      <trkpt lat="45.6252" lon="6.77752">
        <ele>856</ele>
        <time>2018-05-17T03:37:45Z</time>
      </trkpt>
      <trkpt lat="45.62525" lon="6.77764">
        <ele>857</ele>
        <time>2018-05-17T03:38:45Z</time>
      </trkpt>
      <trkpt lat="45.6253" lon="6.77774">
        <ele>858</ele>
        <time>2018-05-17T03:39:45Z</time>
      </trkpt>
      <trkpt lat="45.62532" lon="6.77777">
        <ele>858</ele>
        <time>2018-05-17T03:40:45Z</time>
      </trkpt>
      <trkpt lat="45.62536" lon="6.77782">
        <ele>858</ele>
        <time>2018-05-17T03:41:45Z</time>
      </trkpt>
      <trkpt lat="45.62541" lon="6.77785">
        <ele>859</ele>
        <time>2018-05-17T03:42:45Z</time>
      </trkpt>
      <trkpt lat="45.62549" lon="6.77785">
        <ele>861</ele>
        <time>2018-05-17T03:43:45Z</time>
      </trkpt>
      <trkpt lat="45.62562" lon="6.77783">
        <ele>863</ele>
        <time>2018-05-17T03:44:45Z</time>
      </trkpt>
      <trkpt lat="45.62578" lon="6.77782">
        <ele>866</ele>
        <time>2018-05-17T03:45:45Z</time>
      </trkpt>
      <trkpt lat="45.626" lon="6.77782">
        <ele>887</ele>
        <time>2018-05-17T03:46:45Z</time>
      </trkpt>
      <trkpt lat="45.62607" lon="6.77784">
        <ele>888</ele>
        <time>2018-05-17T03:47:45Z</time>
      </trkpt>
      <trkpt lat="45.62613" lon="6.77787">
        <ele>889</ele>
        <time>2018-05-17T03:48:45Z</time>
      </trkpt>
      <trkpt lat="45.6262" lon="6.77795">
        <ele>890</ele>
        <time>2018-05-17T03:49:45Z</time>
      </trkpt>
      <trkpt lat="45.62621" lon="6.77805">
        <ele>890</ele>
        <time>2018-05-17T03:50:45Z</time>
      </trkpt>
      <trkpt lat="45.62621" lon="6.77813">
        <ele>889</ele>
        <time>2018-05-17T03:51:45Z</time>
      </trkpt>
      <trkpt lat="45.6262" lon="6.77826">
        <ele>888</ele>
        <time>2018-05-17T03:52:45Z</time>
      </trkpt>
      <trkpt lat="45.62616" lon="6.77838">
        <ele>881</ele>
        <time>2018-05-17T03:53:45Z</time>
      </trkpt>
      <trkpt lat="45.62614" lon="6.77851">
        <ele>880</ele>
        <time>2018-05-17T03:54:45Z</time>
      </trkpt>
      <trkpt lat="45.62612" lon="6.77864">
        <ele>880</ele>
        <time>2018-05-17T03:55:45Z</time>
      </trkpt>
      <trkpt lat="45.62611" lon="6.77876">
        <ele>880</ele>
        <time>2018-05-17T03:56:45Z</time>
      </trkpt>
      <trkpt lat="45.62612" lon="6.77899">
        <ele>878</ele>
        <time>2018-05-17T03:57:45Z</time>
      </trkpt>
      <trkpt lat="45.62612" lon="6.77909">
        <ele>877</ele>
        <time>2018-05-17T03:58:45Z</time>
      </trkpt>
      <trkpt lat="45.62616" lon="6.7792">
        <ele>872</ele>
        <time>2018-05-17T03:59:45Z</time>
      </trkpt>
      <trkpt lat="45.62624" lon="6.77931">
        <ele>874</ele>
        <time>2018-05-17T04:00:45Z</time>
      </trkpt>
      <trkpt lat="45.62631" lon="6.77938">
        <ele>875</ele>
        <time>2018-05-17T04:01:45Z</time>
      </trkpt>
      <trkpt lat="45.62644" lon="6.77952">
        <ele>877</ele>
        <time>2018-05-17T04:02:45Z</time>
      </trkpt>
      <trkpt lat="45.62651" lon="6.77962">
        <ele>876</ele>
        <time>2018-05-17T04:03:45Z</time>
      </trkpt>
      <trkpt lat="45.62661" lon="6.77985">
        <ele>877</ele>
        <time>2018-05-17T04:04:45Z</time>
      </trkpt>
      <trkpt lat="45.6267" lon="6.78005">
        <ele>884</ele>
        <time>2018-05-17T04:05:45Z</time>
      </trkpt>
      <trkpt lat="45.6268" lon="6.78035">
        <ele>891</ele>
        <time>2018-05-17T04:06:45Z</time>
      </trkpt>
      <trkpt lat="45.62684" lon="6.78055">
        <ele>891</ele>
        <time>2018-05-17T04:07:45Z</time>
      </trkpt>
      <trkpt lat="45.62695" lon="6.78082">
        <ele>891</ele>
        <time>2018-05-17T04:08:45Z</time>
      </trkpt>
      <trkpt lat="45.6273" lon="6.78152">
        <ele>893</ele>
        <time>2018-05-17T04:09:45Z</time>
      </trkpt>
      <trkpt lat="45.62737" lon="6.78165">
        <ele>896</ele>
        <time>2018-05-17T04:10:45Z</time>
      </trkpt>
      <trkpt lat="45.62742" lon="6.78176">
        <ele>896</ele>
        <time>2018-05-17T04:11:45Z</time>
      </trkpt>
      <trkpt lat="45.62746" lon="6.78189">
        <ele>894</ele>
        <time>2018-05-17T04:12:45Z</time>
      </trkpt>
      <trkpt lat="45.62749" lon="6.78198">
        <ele>893</ele>
        <time>2018-05-17T04:13:45Z</time>
      </trkpt>
      <trkpt lat="45.6275" lon="6.78202">
        <ele>893</ele>
        <time>2018-05-17T04:14:45Z</time>
      </trkpt>
      <trkpt lat="45.62751" lon="6.78206">
        <ele>912</ele>
        <time>2018-05-17T04:15:45Z</time>
      </trkpt>
      <trkpt lat="45.62754" lon="6.78216">
        <ele>912</ele>
        <time>2018-05-17T04:16:45Z</time>
      </trkpt>
      <trkpt lat="45.62756" lon="6.78225">
        <ele>911</ele>
        <time>2018-05-17T04:17:45Z</time>
      </trkpt>
      <trkpt lat="45.62762" lon="6.78264">
        <ele>909</ele>
        <time>2018-05-17T04:18:45Z</time>
      </trkpt>
      <trkpt lat="45.62765" lon="6.78285">
        <ele>911</ele>
        <time>2018-05-17T04:19:45Z</time>
      </trkpt>
      <trkpt lat="45.62768" lon="6.78307">
        <ele>910</ele>
        <time>2018-05-17T04:20:45Z</time>
      </trkpt>
      <trkpt lat="45.62769" lon="6.78317">
        <ele>909</ele>
        <time>2018-05-17T04:21:45Z</time>
      </trkpt>
      <trkpt lat="45.62771" lon="6.78327">
        <ele>908</ele>
        <time>2018-05-17T04:22:45Z</time>
      </trkpt>
      <trkpt lat="45.62774" lon="6.78347">
        <ele>905</ele>
        <time>2018-05-17T04:23:45Z</time>
      </trkpt>
      <trkpt lat="45.62777" lon="6.78356">
        <ele>906</ele>
        <time>2018-05-17T04:24:45Z</time>
      </trkpt>
      <trkpt lat="45.62779" lon="6.78364">
        <ele>906</ele>
        <time>2018-05-17T04:25:45Z</time>
      </trkpt>
      <trkpt lat="45.62781" lon="6.78368">
        <ele>906</ele>
        <time>2018-05-17T04:26:45Z</time>
      </trkpt>
      <trkpt lat="45.62783" lon="6.78372">
        <ele>906</ele>
        <time>2018-05-17T04:27:45Z</time>
      </trkpt>
      <trkpt lat="45.62786" lon="6.78379">
        <ele>906</ele>
        <time>2018-05-17T04:28:45Z</time>
      </trkpt>
      <trkpt lat="45.6279" lon="6.78386">
        <ele>907</ele>
        <time>2018-05-17T04:29:45Z</time>
      </trkpt>
      <trkpt lat="45.62799" lon="6.78398">
        <ele>908</ele>
        <time>2018-05-17T04:30:45Z</time>
      </trkpt>
      <trkpt lat="45.62805" lon="6.78403">
        <ele>909</ele>
        <time>2018-05-17T04:31:45Z</time>
      </trkpt>
      <trkpt lat="45.6281" lon="6.78409">
        <ele>910</ele>
        <time>2018-05-17T04:32:45Z</time>
      </trkpt>
      <trkpt lat="45.62815" lon="6.78416">
        <ele>912</ele>
        <time>2018-05-17T04:33:45Z</time>
      </trkpt>
      <trkpt lat="45.6282" lon="6.78423">
        <ele>907</ele>
        <time>2018-05-17T04:34:45Z</time>
      </trkpt>
      <trkpt lat="45.62824" lon="6.78431">
        <ele>906</ele>
        <time>2018-05-17T04:35:45Z</time>
      </trkpt>
      <trkpt lat="45.62829" lon="6.78439">
        <ele>904</ele>
        <time>2018-05-17T04:36:45Z</time>
      </trkpt>
      <trkpt lat="45.62838" lon="6.78456">
        <ele>916</ele>
        <time>2018-05-17T04:37:45Z</time>
      </trkpt>
      <trkpt lat="45.62843" lon="6.78465">
        <ele>915</ele>
        <time>2018-05-17T04:38:45Z</time>
      </trkpt>
      <trkpt lat="45.62848" lon="6.78473">
        <ele>914</ele>
        <time>2018-05-17T04:39:45Z</time>
      </trkpt>
      <trkpt lat="45.62853" lon="6.78481">
        <ele>913</ele>
        <time>2018-05-17T04:40:45Z</time>
      </trkpt>
      <trkpt lat="45.62858" lon="6.78488">
        <ele>913</ele>
        <time>2018-05-17T04:41:45Z</time>
      </trkpt>
      <trkpt lat="45.62864" lon="6.78494">
        <ele>914</ele>
        <time>2018-05-17T04:42:45Z</time>
      </trkpt>
      <trkpt lat="45.62876" lon="6.78506">
        <ele>904</ele>
        <time>2018-05-17T04:43:45Z</time>
      </trkpt>
      <trkpt lat="45.62882" lon="6.78512">
        <ele>905</ele>
        <time>2018-05-17T04:44:45Z</time>
      </trkpt>
      <trkpt lat="45.62888" lon="6.78518">
        <ele>906</ele>
        <time>2018-05-17T04:45:45Z</time>
      </trkpt>
      <trkpt lat="45.62894" lon="6.78523">
        <ele>906</ele>
        <time>2018-05-17T04:46:45Z</time>
      </trkpt>
      <trkpt lat="45.629" lon="6.78528">
        <ele>906</ele>
        <time>2018-05-17T04:47:45Z</time>
      </trkpt>
      <trkpt lat="45.62906" lon="6.78531">
        <ele>906</ele>
        <time>2018-05-17T04:48:45Z</time>
      </trkpt>
      <trkpt lat="45.62912" lon="6.78533">
        <ele>906</ele>
        <time>2018-05-17T04:49:45Z</time>
      </trkpt>
      <trkpt lat="45.62918" lon="6.78535">
        <ele>918</ele>
        <time>2018-05-17T04:50:45Z</time>
      </trkpt>
      <trkpt lat="45.6293" lon="6.78537">
        <ele>918</ele>
        <time>2018-05-17T04:51:45Z</time>
      </trkpt>
      <trkpt lat="45.62936" lon="6.78538">
        <ele>918</ele>
        <time>2018-05-17T04:52:45Z</time>
      </trkpt>
      <trkpt lat="45.62942" lon="6.78539">
        <ele>919</ele>
        <time>2018-05-17T04:53:45Z</time>
      </trkpt>
      <trkpt lat="45.62948" lon="6.78541">
        <ele>919</ele>
        <time>2018-05-17T04:54:45Z</time>
      </trkpt>
      <trkpt lat="45.62954" lon="6.78543">
        <ele>919</ele>
        <time>2018-05-17T04:55:45Z</time>
      </trkpt>
      <trkpt lat="45.6296" lon="6.78546">
        <ele>919</ele>
        <time>2018-05-17T04:56:45Z</time>
      </trkpt>
      <trkpt lat="45.62965" lon="6.78549">
        <ele>920</ele>
        <time>2018-05-17T04:57:45Z</time>
      </trkpt>
      <trkpt lat="45.62989" lon="6.78562">
        <ele>920</ele>
        <time>2018-05-17T04:58:45Z</time>
      </trkpt>
      <trkpt lat="45.62992" lon="6.78563">
        <ele>920</ele>
        <time>2018-05-17T04:59:45Z</time>
      </trkpt>
      <trkpt lat="45.62995" lon="6.78562">
        <ele>920</ele>
        <time>2018-05-17T05:00:45Z</time>
      </trkpt>
      <trkpt lat="45.62997" lon="6.78562">
        <ele>920</ele>
        <time>2018-05-17T05:01:45Z</time>
      </trkpt>
      <trkpt lat="45.62998" lon="6.78561">
        <ele>920</ele>
        <time>2018-05-17T05:02:45Z</time>
      </trkpt>
      <trkpt lat="45.62999" lon="6.7856">
        <ele>920</ele>
        <time>2018-05-17T05:03:45Z</time>
      </trkpt>
      <trkpt lat="45.63" lon="6.78558">
        <ele>924</ele>
        <time>2018-05-17T05:04:45Z</time>
      </trkpt>
      <trkpt lat="45.63" lon="6.78556">
        <ele>925</ele>
        <time>2018-05-17T05:05:45Z</time>
      </trkpt>
      <trkpt lat="45.63001" lon="6.78554">
        <ele>925</ele>
        <time>2018-05-17T05:06:45Z</time>
      </trkpt>
      <trkpt lat="45.63001" lon="6.78552">
        <ele>925</ele>
        <time>2018-05-17T05:07:45Z</time>
      </trkpt>
      <trkpt lat="45.63" lon="6.7855">
        <ele>926</ele>
        <time>2018-05-17T05:08:45Z</time>
      </trkpt>
      <trkpt lat="45.63" lon="6.78548">
        <ele>926</ele>
        <time>2018-05-17T05:09:45Z</time>
      </trkpt>
      <trkpt lat="45.62999" lon="6.78546">
        <ele>922</ele>
        <time>2018-05-17T05:10:45Z</time>
      </trkpt>
      <trkpt lat="45.62997" lon="6.78543">
        <ele>922</ele>
        <time>2018-05-17T05:11:45Z</time>
      </trkpt>
      <trkpt lat="45.62994" lon="6.7854">
        <ele>923</ele>
        <time>2018-05-17T05:12:45Z</time>
      </trkpt>
      <trkpt lat="45.6299" lon="6.78538">
        <ele>923</ele>
        <time>2018-05-17T05:13:45Z</time>
      </trkpt>
      <trkpt lat="45.6296" lon="6.78521">
        <ele>922</ele>
        <time>2018-05-17T05:14:45Z</time>
      </trkpt>
      <trkpt lat="45.62952" lon="6.78515">
        <ele>922</ele>
        <time>2018-05-17T05:15:45Z</time>
      </trkpt>
      <trkpt lat="45.62928" lon="6.78501">
        <ele>922</ele>
        <time>2018-05-17T05:16:45Z</time>
      </trkpt>
      <trkpt lat="45.62909" lon="6.78487">
        <ele>921</ele>
        <time>2018-05-17T05:17:45Z</time>
      </trkpt>
      <trkpt lat="45.62899" lon="6.78477">
        <ele>920</ele>
        <time>2018-05-17T05:18:45Z</time>
      </trkpt>
      <trkpt lat="45.62895" lon="6.78472">
        <ele>920</ele>
        <time>2018-05-17T05:19:45Z</time>
      </trkpt>
      <trkpt lat="45.62891" lon="6.78466">
        <ele>920</ele>
        <time>2018-05-17T05:20:45Z</time>
      </trkpt>
      <trkpt lat="45.62888" lon="6.7846">
        <ele>920</ele>
        <time>2018-05-17T05:21:45Z</time>
      </trkpt>
      <trkpt lat="45.62886" lon="6.78453">
        <ele>921</ele>
        <time>2018-05-17T05:22:45Z</time>
      </trkpt>
      <trkpt lat="45.62884" lon="6.78446">
        <ele>921</ele>
        <time>2018-05-17T05:23:45Z</time>
      </trkpt>
      <trkpt lat="45.62881" lon="6.78431">
        <ele>922</ele>
        <time>2018-05-17T05:24:45Z</time>
      </trkpt>
      <trkpt lat="45.6288" lon="6.78423">
        <ele>922</ele>
        <time>2018-05-17T05:25:45Z</time>
      </trkpt>
      <trkpt lat="45.62878" lon="6.784">
        <ele>930</ele>
        <time>2018-05-17T05:26:45Z</time>
      </trkpt>
      <trkpt lat="45.62874" lon="6.78375">
        <ele>930</ele>
        <time>2018-05-17T05:27:45Z</time>
      </trkpt>
      <trkpt lat="45.62873" lon="6.78361">
        <ele>931</ele>
        <time>2018-05-17T05:28:45Z</time>
      </trkpt>
      <trkpt lat="45.62873" lon="6.78355">
        <ele>931</ele>
        <time>2018-05-17T05:29:45Z</time>
      </trkpt>
      <trkpt lat="45.62873" lon="6.78351">
        <ele>931</ele>
        <time>2018-05-17T05:30:45Z</time>
      </trkpt>
      <trkpt lat="45.62873" lon="6.78344">
        <ele>932</ele>
        <time>2018-05-17T05:31:45Z</time>
      </trkpt>
      <trkpt lat="45.62874" lon="6.78338">
        <ele>932</ele>
        <time>2018-05-17T05:32:45Z</time>
      </trkpt>
      <trkpt lat="45.62875" lon="6.78332">
        <ele>937</ele>
        <time>2018-05-17T05:33:45Z</time>
      </trkpt>
      <trkpt lat="45.62877" lon="6.78326">
        <ele>938</ele>
        <time>2018-05-17T05:34:45Z</time>
      </trkpt>
      <trkpt lat="45.62881" lon="6.78317">
        <ele>938</ele>
        <time>2018-05-17T05:35:45Z</time>
      </trkpt>
      <trkpt lat="45.62884" lon="6.78312">
        <ele>939</ele>
        <time>2018-05-17T05:36:45Z</time>
      </trkpt>
      <trkpt lat="45.62887" lon="6.78307">
        <ele>939</ele>
        <time>2018-05-17T05:37:45Z</time>
      </trkpt>
      <trkpt lat="45.62893" lon="6.78302">
        <ele>940</ele>
        <time>2018-05-17T05:38:45Z</time>
      </trkpt>
      <trkpt lat="45.62902" lon="6.78295">
        <ele>941</ele>
        <time>2018-05-17T05:39:45Z</time>
      </trkpt>
      <trkpt lat="45.62909" lon="6.78295">
        <ele>941</ele>
        <time>2018-05-17T05:40:45Z</time>
      </trkpt>
      <trkpt lat="45.62913" lon="6.78296">
        <ele>941</ele>
        <time>2018-05-17T05:41:45Z</time>
      </trkpt>
      <trkpt lat="45.62917" lon="6.78297">
        <ele>951</ele>
        <time>2018-05-17T05:42:45Z</time>
      </trkpt>
      <trkpt lat="45.62921" lon="6.783">
        <ele>951</ele>
        <time>2018-05-17T05:43:45Z</time>
      </trkpt>
      <trkpt lat="45.62924" lon="6.78303">
        <ele>950</ele>
        <time>2018-05-17T05:44:45Z</time>
      </trkpt>
      <trkpt lat="45.62932" lon="6.7831">
        <ele>950</ele>
        <time>2018-05-17T05:45:45Z</time>
      </trkpt>
      <trkpt lat="45.62941" lon="6.78319">
        <ele>950</ele>
        <time>2018-05-17T05:46:45Z</time>
      </trkpt>
      <trkpt lat="45.62952" lon="6.78329">
        <ele>951</ele>
        <time>2018-05-17T05:47:45Z</time>
      </trkpt>
      <trkpt lat="45.62963" lon="6.78341">
        <ele>946</ele>
        <time>2018-05-17T05:48:45Z</time>
      </trkpt>
      <trkpt lat="45.62975" lon="6.78353">
        <ele>947</ele>
        <time>2018-05-17T05:49:45Z</time>
      </trkpt>
      <trkpt lat="45.62987" lon="6.78365">
        <ele>947</ele>
        <time>2018-05-17T05:50:45Z</time>
      </trkpt>
      <trkpt lat="45.62993" lon="6.7837">
        <ele>946</ele>
        <time>2018-05-17T05:51:45Z</time>
      </trkpt>
      <trkpt lat="45.62999" lon="6.78374">
        <ele>946</ele>
        <time>2018-05-17T05:52:45Z</time>
      </trkpt>
      <trkpt lat="45.63006" lon="6.78379">
        <ele>952</ele>
        <time>2018-05-17T05:53:45Z</time>
      </trkpt>
      <trkpt lat="45.63025" lon="6.7839">
        <ele>952</ele>
        <time>2018-05-17T05:54:45Z</time>
      </trkpt>
      <trkpt lat="45.63051" lon="6.78402">
        <ele>954</ele>
        <time>2018-05-17T05:55:45Z</time>
      </trkpt>
      <trkpt lat="45.63069" lon="6.78409">
        <ele>954</ele>
        <time>2018-05-17T05:56:45Z</time>
      </trkpt>
      <trkpt lat="45.63102" lon="6.78419">
        <ele>951</ele>
        <time>2018-05-17T05:57:45Z</time>
      </trkpt>
      <trkpt lat="45.63115" lon="6.78422">
        <ele>950</ele>
        <time>2018-05-17T05:58:45Z</time>
      </trkpt>
      <trkpt lat="45.63122" lon="6.78422">
        <ele>950</ele>
        <time>2018-05-17T05:59:45Z</time>
      </trkpt>
      <trkpt lat="45.63128" lon="6.78422">
        <ele>950</ele>
        <time>2018-05-17T06:00:45Z</time>
      </trkpt>
      <trkpt lat="45.63146" lon="6.7842">
        <ele>952</ele>
        <time>2018-05-17T06:01:45Z</time>
      </trkpt>
      <trkpt lat="45.63153" lon="6.78419">
        <ele>954</ele>
        <time>2018-05-17T06:02:45Z</time>
      </trkpt>
      <trkpt lat="45.6317" lon="6.78417">
        <ele>958</ele>
        <time>2018-05-17T06:03:45Z</time>
      </trkpt>
      <trkpt lat="45.63182" lon="6.78415">
        <ele>968</ele>
        <time>2018-05-17T06:04:45Z</time>
      </trkpt>
      <trkpt lat="45.63202" lon="6.78413">
        <ele>974</ele>
        <time>2018-05-17T06:05:45Z</time>
      </trkpt>
      <trkpt lat="45.63222" lon="6.78412">
        <ele>976</ele>
        <time>2018-05-17T06:06:45Z</time>
      </trkpt>
      <trkpt lat="45.63226" lon="6.78412">
        <ele>976</ele>
        <time>2018-05-17T06:07:45Z</time>
      </trkpt>
      <trkpt lat="45.6323" lon="6.78413">
        <ele>976</ele>
        <time>2018-05-17T06:08:45Z</time>
      </trkpt>
      <trkpt lat="45.63233" lon="6.78414">
        <ele>976</ele>
        <time>2018-05-17T06:09:45Z</time>
      </trkpt>
      <trkpt lat="45.63236" lon="6.78415">
        <ele>976</ele>
        <time>2018-05-17T06:10:45Z</time>
      </trkpt>
      <trkpt lat="45.63243" lon="6.7842">
        <ele>967</ele>
        <time>2018-05-17T06:11:45Z</time>
      </trkpt>
      <trkpt lat="45.63247" lon="6.78423">
        <ele>967</ele>
        <time>2018-05-17T06:12:45Z</time>
      </trkpt>
      <trkpt lat="45.6325" lon="6.78427">
        <ele>971</ele>
        <time>2018-05-17T06:13:45Z</time>
      </trkpt>
      <trkpt lat="45.63257" lon="6.78435">
        <ele>969</ele>
        <time>2018-05-17T06:14:45Z</time>
      </trkpt>
      <trkpt lat="45.63269" lon="6.78451">
        <ele>966</ele>
        <time>2018-05-17T06:15:45Z</time>
      </trkpt>
      <trkpt lat="45.63274" lon="6.78457">
        <ele>965</ele>
        <time>2018-05-17T06:16:45Z</time>
      </trkpt>
      <trkpt lat="45.6328" lon="6.78462">
        <ele>965</ele>
        <time>2018-05-17T06:17:45Z</time>
      </trkpt>
      <trkpt lat="45.63286" lon="6.78467">
        <ele>965</ele>
        <time>2018-05-17T06:18:45Z</time>
      </trkpt>
      <trkpt lat="45.63312" lon="6.78487">
        <ele>966</ele>
        <time>2018-05-17T06:19:45Z</time>
      </trkpt>
      <trkpt lat="45.63324" lon="6.78497">
        <ele>966</ele>
        <time>2018-05-17T06:20:45Z</time>
      </trkpt>
      <trkpt lat="45.6333" lon="6.785">
        <ele>960</ele>
        <time>2018-05-17T06:21:45Z</time>
      </trkpt>
      <trkpt lat="45.63337" lon="6.78503">
        <ele>963</ele>
        <time>2018-05-17T06:22:45Z</time>
      </trkpt>
      <trkpt lat="45.63349" lon="6.78506">
        <ele>961</ele>
        <time>2018-05-17T06:23:45Z</time>
      </trkpt>
      <trkpt lat="45.63357" lon="6.78509">
        <ele>961</ele>
        <time>2018-05-17T06:24:45Z</time>
      </trkpt>
      <trkpt lat="45.63363" lon="6.78512">
        <ele>961</ele>
        <time>2018-05-17T06:25:45Z</time>
      </trkpt>
      <trkpt lat="45.6337" lon="6.78516">
        <ele>961</ele>
        <time>2018-05-17T06:26:45Z</time>
      </trkpt>
      <trkpt lat="45.63376" lon="6.78521">
        <ele>961</ele>
        <time>2018-05-17T06:27:45Z</time>
      </trkpt>
      <trkpt lat="45.63383" lon="6.78526">
        <ele>961</ele>
        <time>2018-05-17T06:28:45Z</time>
      </trkpt>
      <trkpt lat="45.6339" lon="6.78532">
        <ele>961</ele>
        <time>2018-05-17T06:29:45Z</time>
      </trkpt>
      <trkpt lat="45.63396" lon="6.78536">
        <ele>961</ele>
        <time>2018-05-17T06:30:45Z</time>
      </trkpt>
      <trkpt lat="45.63403" lon="6.7854">
        <ele>960</ele>
        <time>2018-05-17T06:31:45Z</time>
      </trkpt>
      <trkpt lat="45.6341" lon="6.78543">
        <ele>960</ele>
        <time>2018-05-17T06:32:45Z</time>
      </trkpt>
      <trkpt lat="45.63416" lon="6.78544">
        <ele>960</ele>
        <time>2018-05-17T06:33:45Z</time>
      </trkpt>
      <trkpt lat="45.63423" lon="6.78544">
        <ele>969</ele>
        <time>2018-05-17T06:34:45Z</time>
      </trkpt>
      <trkpt lat="45.63429" lon="6.78544">
        <ele>969</ele>
        <time>2018-05-17T06:35:45Z</time>
      </trkpt>
      <trkpt lat="45.63435" lon="6.78543">
        <ele>970</ele>
        <time>2018-05-17T06:36:45Z</time>
      </trkpt>
      <trkpt lat="45.6344" lon="6.78541">
        <ele>971</ele>
        <time>2018-05-17T06:37:45Z</time>
      </trkpt>
      <trkpt lat="45.63451" lon="6.78537">
        <ele>972</ele>
        <time>2018-05-17T06:38:45Z</time>
      </trkpt>
      <trkpt lat="45.63457" lon="6.78535">
        <ele>973</ele>
        <time>2018-05-17T06:39:45Z</time>
      </trkpt>
      <trkpt lat="45.63462" lon="6.78534">
        <ele>973</ele>
        <time>2018-05-17T06:40:45Z</time>
      </trkpt>
      <trkpt lat="45.63468" lon="6.78534">
        <ele>974</ele>
        <time>2018-05-17T06:41:45Z</time>
      </trkpt>
      <trkpt lat="45.63475" lon="6.78536">
        <ele>973</ele>
        <time>2018-05-17T06:42:45Z</time>
      </trkpt>
      <trkpt lat="45.63481" lon="6.78538">
        <ele>973</ele>
        <time>2018-05-17T06:43:45Z</time>
      </trkpt>
      <trkpt lat="45.63488" lon="6.78541">
        <ele>972</ele>
        <time>2018-05-17T06:44:45Z</time>
      </trkpt>
      <trkpt lat="45.63495" lon="6.78543">
        <ele>971</ele>
        <time>2018-05-17T06:45:45Z</time>
      </trkpt>
      <trkpt lat="45.63503" lon="6.78546">
        <ele>968</ele>
        <time>2018-05-17T06:46:45Z</time>
      </trkpt>
      <trkpt lat="45.6351" lon="6.78547">
        <ele>968</ele>
        <time>2018-05-17T06:47:45Z</time>
      </trkpt>
      <trkpt lat="45.63534" lon="6.7855">
        <ele>967</ele>
        <time>2018-05-17T06:48:45Z</time>
      </trkpt>
      <trkpt lat="45.63556" lon="6.78553">
        <ele>965</ele>
        <time>2018-05-17T06:49:45Z</time>
      </trkpt>
      <trkpt lat="45.63563" lon="6.78552">
        <ele>965</ele>
        <time>2018-05-17T06:50:45Z</time>
      </trkpt>
      <trkpt lat="45.6357" lon="6.78551">
        <ele>964</ele>
        <time>2018-05-17T06:51:45Z</time>
      </trkpt>
      <trkpt lat="45.63577" lon="6.78548">
        <ele>965</ele>
        <time>2018-05-17T06:52:45Z</time>
      </trkpt>
      <trkpt lat="45.63591" lon="6.78541">
        <ele>965</ele>
        <time>2018-05-17T06:53:45Z</time>
      </trkpt>
      <trkpt lat="45.63598" lon="6.78537">
        <ele>966</ele>
        <time>2018-05-17T06:54:45Z</time>
      </trkpt>
      <trkpt lat="45.63605" lon="6.78534">
        <ele>967</ele>
        <time>2018-05-17T06:55:45Z</time>
      </trkpt>
      <trkpt lat="45.63613" lon="6.78532">
        <ele>967</ele>
        <time>2018-05-17T06:56:45Z</time>
      </trkpt>
      <trkpt lat="45.63621" lon="6.78529">
        <ele>967</ele>
        <time>2018-05-17T06:57:45Z</time>
      </trkpt>
      <trkpt lat="45.63629" lon="6.78528">
        <ele>968</ele>
        <time>2018-05-17T06:58:45Z</time>
      </trkpt>
      <trkpt lat="45.63636" lon="6.78526">
        <ele>968</ele>
        <time>2018-05-17T06:59:45Z</time>
      </trkpt>
      <trkpt lat="45.63644" lon="6.78524">
        <ele>969</ele>
        <time>2018-05-17T07:00:45Z</time>
      </trkpt>
      <trkpt lat="45.63651" lon="6.78521">
        <ele>971</ele>
        <time>2018-05-17T07:01:45Z</time>
      </trkpt>
      <trkpt lat="45.63657" lon="6.78517">
        <ele>973</ele>
        <time>2018-05-17T07:02:45Z</time>
      </trkpt>
      <trkpt lat="45.63664" lon="6.78512">
        <ele>976</ele>
        <time>2018-05-17T07:03:45Z</time>
      </trkpt>
      <trkpt lat="45.6367" lon="6.78507">
        <ele>977</ele>
        <time>2018-05-17T07:04:45Z</time>
      </trkpt>
      <trkpt lat="45.63676" lon="6.78501">
        <ele>976</ele>
        <time>2018-05-17T07:05:45Z</time>
      </trkpt>
      <trkpt lat="45.63686" lon="6.78491">
        <ele>989</ele>
        <time>2018-05-17T07:06:45Z</time>
      </trkpt>
      <trkpt lat="45.637" lon="6.7848">
        <ele>991</ele>
        <time>2018-05-17T07:07:45Z</time>
      </trkpt>
      <trkpt lat="45.63709" lon="6.78475">
        <ele>991</ele>
        <time>2018-05-17T07:08:45Z</time>
      </trkpt>
      <trkpt lat="45.63716" lon="6.78471">
        <ele>991</ele>
        <time>2018-05-17T07:09:45Z</time>
      </trkpt>
      <trkpt lat="45.63723" lon="6.78468">
        <ele>991</ele>
        <time>2018-05-17T07:10:45Z</time>
      </trkpt>
      <trkpt lat="45.63748" lon="6.78459">
        <ele>992</ele>
        <time>2018-05-17T07:11:45Z</time>
      </trkpt>
      <trkpt lat="45.63774" lon="6.7845">
        <ele>987</ele>
        <time>2018-05-17T07:12:45Z</time>
      </trkpt>
      <trkpt lat="45.6378" lon="6.78447">
        <ele>987</ele>
        <time>2018-05-17T07:13:45Z</time>
      </trkpt>
      <trkpt lat="45.63787" lon="6.78445">
        <ele>987</ele>
        <time>2018-05-17T07:14:45Z</time>
      </trkpt>
      <trkpt lat="45.63794" lon="6.78444">
        <ele>987</ele>
        <time>2018-05-17T07:15:45Z</time>
      </trkpt>
      <trkpt lat="45.638" lon="6.78443">
        <ele>986</ele>
        <time>2018-05-17T07:16:45Z</time>
      </trkpt>
      <trkpt lat="45.63806" lon="6.78444">
        <ele>986</ele>
        <time>2018-05-17T07:17:45Z</time>
      </trkpt>
      <trkpt lat="45.63812" lon="6.78446">
        <ele>985</ele>
        <time>2018-05-17T07:18:45Z</time>
      </trkpt>
      <trkpt lat="45.63819" lon="6.78448">
        <ele>985</ele>
        <time>2018-05-17T07:19:45Z</time>
      </trkpt>
      <trkpt lat="45.63824" lon="6.7845">
        <ele>984</ele>
        <time>2018-05-17T07:20:45Z</time>
      </trkpt>
      <trkpt lat="45.6383" lon="6.78451">
        <ele>984</ele>
        <time>2018-05-17T07:21:45Z</time>
      </trkpt>
      <trkpt lat="45.63837" lon="6.78451">
        <ele>983</ele>
        <time>2018-05-17T07:22:45Z</time>
      </trkpt>
      <trkpt lat="45.6385" lon="6.7845">
        <ele>983</ele>
        <time>2018-05-17T07:23:45Z</time>
      </trkpt>
      <trkpt lat="45.63862" lon="6.78447">
        <ele>984</ele>
        <time>2018-05-17T07:24:45Z</time>
      </trkpt>
      <trkpt lat="45.6387" lon="6.78445">
        <ele>985</ele>
        <time>2018-05-17T07:25:45Z</time>
      </trkpt>
      <trkpt lat="45.63887" lon="6.78438">
        <ele>988</ele>
        <time>2018-05-17T07:26:45Z</time>
      </trkpt>
      <trkpt lat="45.63893" lon="6.78436">
        <ele>989</ele>
        <time>2018-05-17T07:27:45Z</time>
      </trkpt>
      <trkpt lat="45.63898" lon="6.78434">
        <ele>991</ele>
        <time>2018-05-17T07:28:45Z</time>
      </trkpt>
      <trkpt lat="45.63903" lon="6.78434">
        <ele>992</ele>
        <time>2018-05-17T07:29:45Z</time>
      </trkpt>
      <trkpt lat="45.63908" lon="6.78434">
        <ele>993</ele>
        <time>2018-05-17T07:30:45Z</time>
      </trkpt>
      <trkpt lat="45.63913" lon="6.78437">
        <ele>992</ele>
        <time>2018-05-17T07:31:45Z</time>
      </trkpt>
      <trkpt lat="45.63918" lon="6.7844">
        <ele>997</ele>
        <time>2018-05-17T07:32:45Z</time>
      </trkpt>
      <trkpt lat="45.63923" lon="6.78445">
        <ele>995</ele>
        <time>2018-05-17T07:33:45Z</time>
      </trkpt>
      <trkpt lat="45.63927" lon="6.78451">
        <ele>993</ele>
        <time>2018-05-17T07:34:45Z</time>
      </trkpt>
      <trkpt lat="45.63937" lon="6.78463">
        <ele>990</ele>
        <time>2018-05-17T07:35:45Z</time>
      </trkpt>
      <trkpt lat="45.63943" lon="6.78469">
        <ele>989</ele>
        <time>2018-05-17T07:36:45Z</time>
      </trkpt>
      <trkpt lat="45.63948" lon="6.78474">
        <ele>989</ele>
        <time>2018-05-17T07:37:45Z</time>
      </trkpt>
      <trkpt lat="45.63954" lon="6.78479">
        <ele>988</ele>
        <time>2018-05-17T07:38:45Z</time>
      </trkpt>
      <trkpt lat="45.63961" lon="6.78483">
        <ele>989</ele>
        <time>2018-05-17T07:39:45Z</time>
      </trkpt>
      <trkpt lat="45.63967" lon="6.78488">
        <ele>988</ele>
        <time>2018-05-17T07:40:45Z</time>
      </trkpt>
      <trkpt lat="45.63972" lon="6.78491">
        <ele>988</ele>
        <time>2018-05-17T07:41:45Z</time>
      </trkpt>
      <trkpt lat="45.63975" lon="6.78493">
        <ele>988</ele>
        <time>2018-05-17T07:42:45Z</time>
      </trkpt>
      <trkpt lat="45.63981" lon="6.78497">
        <ele>987</ele>
        <time>2018-05-17T07:43:45Z</time>
      </trkpt>
      <trkpt lat="45.63987" lon="6.78501">
        <ele>973</ele>
        <time>2018-05-17T07:44:45Z</time>
      </trkpt>
      <trkpt lat="45.63995" lon="6.78502">
        <ele>978</ele>
        <time>2018-05-17T07:45:45Z</time>
      </trkpt>
      <trkpt lat="45.64002" lon="6.78502">
        <ele>981</ele>
        <time>2018-05-17T07:46:45Z</time>
      </trkpt>
      <trkpt lat="45.64009" lon="6.78502">
        <ele>981</ele>
        <time>2018-05-17T07:47:45Z</time>
      </trkpt>
      <trkpt lat="45.64023" lon="6.78502">
        <ele>981</ele>
        <time>2018-05-17T07:48:45Z</time>
      </trkpt>
      <trkpt lat="45.64031" lon="6.78501">
        <ele>982</ele>
        <time>2018-05-17T07:49:45Z</time>
      </trkpt>
      <trkpt lat="45.64037" lon="6.78501">
        <ele>983</ele>
        <time>2018-05-17T07:50:45Z</time>
      </trkpt>
      <trkpt lat="45.64045" lon="6.78503">
        <ele>984</ele>
        <time>2018-05-17T07:51:45Z</time>
      </trkpt>
      <trkpt lat="45.64053" lon="6.78507">
        <ele>986</ele>
        <time>2018-05-17T07:52:45Z</time>
      </trkpt>
      <trkpt lat="45.6406" lon="6.78511">
        <ele>988</ele>
        <time>2018-05-17T07:53:45Z</time>
      </trkpt>
      <trkpt lat="45.64099" lon="6.78535">
        <ele>998</ele>
        <time>2018-05-17T07:54:45Z</time>
      </trkpt>
      <trkpt lat="45.64116" lon="6.78547">
        <ele>996</ele>
        <time>2018-05-17T07:55:45Z</time>
      </trkpt>
      <trkpt lat="45.64124" lon="6.78554">
        <ele>996</ele>
        <time>2018-05-17T07:56:45Z</time>
      </trkpt>
      <trkpt lat="45.64132" lon="6.78561">
        <ele>995</ele>
        <time>2018-05-17T07:57:45Z</time>
      </trkpt>
      <trkpt lat="45.64148" lon="6.78576">
        <ele>993</ele>
        <time>2018-05-17T07:58:45Z</time>
      </trkpt>
      <trkpt lat="45.64155" lon="6.78584">
        <ele>981</ele>
        <time>2018-05-17T07:59:45Z</time>
      </trkpt>
      <trkpt lat="45.64162" lon="6.78591">
        <ele>982</ele>
        <time>2018-05-17T08:00:45Z</time>
      </trkpt>
      <trkpt lat="45.6417" lon="6.78596">
        <ele>991</ele>
        <time>2018-05-17T08:01:45Z</time>
      </trkpt>
      <trkpt lat="45.64178" lon="6.78602">
        <ele>992</ele>
        <time>2018-05-17T08:02:45Z</time>
      </trkpt>
      <trkpt lat="45.64191" lon="6.78609">
        <ele>994</ele>
        <time>2018-05-17T08:03:45Z</time>
      </trkpt>
      <trkpt lat="45.64202" lon="6.78613">
        <ele>996</ele>
        <time>2018-05-17T08:04:45Z</time>
      </trkpt>
      <trkpt lat="45.6421" lon="6.78615">
        <ele>997</ele>
        <time>2018-05-17T08:05:45Z</time>
      </trkpt>
      <trkpt lat="45.64222" lon="6.78617">
        <ele>999</ele>
        <time>2018-05-17T08:06:45Z</time>
      </trkpt>
      <trkpt lat="45.64234" lon="6.78617">
        <ele>1002</ele>
        <time>2018-05-17T08:07:45Z</time>
      </trkpt>
      <trkpt lat="45.64269" lon="6.78615">
        <ele>1017</ele>
        <time>2018-05-17T08:08:45Z</time>
      </trkpt>
      <trkpt lat="45.64302" lon="6.78611">
        <ele>1018</ele>
        <time>2018-05-17T08:09:45Z</time>
      </trkpt>
      <trkpt lat="45.64339" lon="6.78611">
        <ele>1022</ele>
        <time>2018-05-17T08:10:45Z</time>
      </trkpt>
      <trkpt lat="45.64364" lon="6.78611">
        <ele>1022</ele>
        <time>2018-05-17T08:11:45Z</time>
      </trkpt>
      <trkpt lat="45.64382" lon="6.78609">
        <ele>1022</ele>
        <time>2018-05-17T08:12:45Z</time>
      </trkpt>
      <trkpt lat="45.64403" lon="6.78605">
        <ele>1022</ele>
        <time>2018-05-17T08:13:45Z</time>
      </trkpt>
      <trkpt lat="45.64448" lon="6.78595">
        <ele>1022</ele>
        <time>2018-05-17T08:14:45Z</time>
      </trkpt>
      <trkpt lat="45.64459" lon="6.78592">
        <ele>1023</ele>
        <time>2018-05-17T08:15:45Z</time>
      </trkpt>
      <trkpt lat="45.64467" lon="6.78589">
        <ele>1023</ele>
        <time>2018-05-17T08:16:45Z</time>
      </trkpt>
      <trkpt lat="45.64474" lon="6.78589">
        <ele>1024</ele>
        <time>2018-05-17T08:17:45Z</time>
      </trkpt>
      <trkpt lat="45.6449" lon="6.78591">
        <ele>1026</ele>
        <time>2018-05-17T08:18:45Z</time>
      </trkpt>
      <trkpt lat="45.645" lon="6.78591">
        <ele>1024</ele>
        <time>2018-05-17T08:19:45Z</time>
      </trkpt>
      <trkpt lat="45.6451" lon="6.7859">
        <ele>1022</ele>
        <time>2018-05-17T08:20:45Z</time>
      </trkpt>
      <trkpt lat="45.64526" lon="6.78589">
        <ele>1017</ele>
        <time>2018-05-17T08:21:45Z</time>
      </trkpt>
      <trkpt lat="45.64549" lon="6.78585">
        <ele>1012</ele>
        <time>2018-05-17T08:22:45Z</time>
      </trkpt>
      <trkpt lat="45.64557" lon="6.78585">
        <ele>1010</ele>
        <time>2018-05-17T08:23:45Z</time>
      </trkpt>
      <trkpt lat="45.64567" lon="6.78586">
        <ele>1009</ele>
        <time>2018-05-17T08:24:45Z</time>
      </trkpt>
      <trkpt lat="45.64578" lon="6.78589">
        <ele>1007</ele>
        <time>2018-05-17T08:25:45Z</time>
      </trkpt>
      <trkpt lat="45.64626" lon="6.78606">
        <ele>1006</ele>
        <time>2018-05-17T08:26:45Z</time>
      </trkpt>
      <trkpt lat="45.6464" lon="6.7861">
        <ele>1006</ele>
        <time>2018-05-17T08:27:45Z</time>
      </trkpt>
      <trkpt lat="45.64655" lon="6.78613">
        <ele>1007</ele>
        <time>2018-05-17T08:28:45Z</time>
      </trkpt>
      <trkpt lat="45.64671" lon="6.78612">
        <ele>1011</ele>
        <time>2018-05-17T08:29:45Z</time>
      </trkpt>
      <trkpt lat="45.64687" lon="6.78608">
        <ele>1012</ele>
        <time>2018-05-17T08:30:45Z</time>
      </trkpt>
      <trkpt lat="45.64698" lon="6.78607">
        <ele>1012</ele>
        <time>2018-05-17T08:31:45Z</time>
      </trkpt>
      <trkpt lat="45.64713" lon="6.78608">
        <ele>1012</ele>
        <time>2018-05-17T08:32:45Z</time>
      </trkpt>
      <trkpt lat="45.64724" lon="6.78609">
        <ele>1013</ele>
        <time>2018-05-17T08:33:45Z</time>
      </trkpt>
      <trkpt lat="45.64732" lon="6.78611">
        <ele>1013</ele>
        <time>2018-05-17T08:34:45Z</time>
      </trkpt>
      <trkpt lat="45.64741" lon="6.78614">
        <ele>1013</ele>
        <time>2018-05-17T08:35:45Z</time>
      </trkpt>
      <trkpt lat="45.64757" lon="6.78619">
        <ele>1016</ele>
        <time>2018-05-17T08:36:45Z</time>
      </trkpt>
      <trkpt lat="45.64775" lon="6.78627">
        <ele>1016</ele>
        <time>2018-05-17T08:37:45Z</time>
      </trkpt>
      <trkpt lat="45.64812" lon="6.78648">
        <ele>1015</ele>
        <time>2018-05-17T08:38:45Z</time>
      </trkpt>
      <trkpt lat="45.64825" lon="6.78656">
        <ele>1013</ele>
        <time>2018-05-17T08:39:45Z</time>
      </trkpt>
      <trkpt lat="45.64835" lon="6.78663">
        <ele>1014</ele>
        <time>2018-05-17T08:40:45Z</time>
      </trkpt>
      <trkpt lat="45.64877" lon="6.78698">
        <ele>1019</ele>
        <time>2018-05-17T08:41:45Z</time>
      </trkpt>
      <trkpt lat="45.64919" lon="6.7873">
        <ele>1023</ele>
        <time>2018-05-17T08:42:45Z</time>
      </trkpt>
      <trkpt lat="45.64949" lon="6.78754">
        <ele>1024</ele>
        <time>2018-05-17T08:43:45Z</time>
      </trkpt>
      <trkpt lat="45.64972" lon="6.7877">
        <ele>1028</ele>
        <time>2018-05-17T08:44:45Z</time>
      </trkpt>
      <trkpt lat="45.64984" lon="6.78775">
        <ele>1029</ele>
        <time>2018-05-17T08:45:45Z</time>
      </trkpt>
      <trkpt lat="45.64991" lon="6.78777">
        <ele>1029</ele>
        <time>2018-05-17T08:46:45Z</time>
      </trkpt>
      <trkpt lat="45.6501" lon="6.78783">
        <ele>1034</ele>
        <time>2018-05-17T08:47:45Z</time>
      </trkpt>
      <trkpt lat="45.65016" lon="6.78784">
        <ele>1034</ele>
        <time>2018-05-17T08:48:45Z</time>
      </trkpt>
      <trkpt lat="45.65023" lon="6.78785">
        <ele>1035</ele>
        <time>2018-05-17T08:49:45Z</time>
      </trkpt>
      <trkpt lat="45.65061" lon="6.78782">
        <ele>1037</ele>
        <time>2018-05-17T08:50:45Z</time>
      </trkpt>
      <trkpt lat="45.6511" lon="6.78777">
        <ele>1048</ele>
        <time>2018-05-17T08:51:45Z</time>
      </trkpt>
      <trkpt lat="45.65119" lon="6.78775">
        <ele>1049</ele>
        <time>2018-05-17T08:52:45Z</time>
      </trkpt>
      <trkpt lat="45.65128" lon="6.78773">
        <ele>1050</ele>
        <time>2018-05-17T08:53:45Z</time>
      </trkpt>
      <trkpt lat="45.65145" lon="6.78765">
        <ele>1051</ele>
        <time>2018-05-17T08:54:45Z</time>
      </trkpt>
      <trkpt lat="45.65152" lon="6.78761">
        <ele>1052</ele>
        <time>2018-05-17T08:55:45Z</time>
      </trkpt>
      <trkpt lat="45.65159" lon="6.78756">
        <ele>1052</ele>
        <time>2018-05-17T08:56:45Z</time>
      </trkpt>
      <trkpt lat="45.65167" lon="6.78749">
        <ele>1052</ele>
        <time>2018-05-17T08:57:45Z</time>
      </trkpt>
      <trkpt lat="45.65182" lon="6.78736">
        <ele>1058</ele>
        <time>2018-05-17T08:58:45Z</time>
      </trkpt>
      <trkpt lat="45.65189" lon="6.7873">
        <ele>1059</ele>
        <time>2018-05-17T08:59:45Z</time>
      </trkpt>
      <trkpt lat="45.65196" lon="6.78726">
        <ele>1060</ele>
        <time>2018-05-17T09:00:45Z</time>
      </trkpt>
      <trkpt lat="45.65212" lon="6.78718">
        <ele>1061</ele>
        <time>2018-05-17T09:01:45Z</time>
      </trkpt>
      <trkpt lat="45.65227" lon="6.78711">
        <ele>1061</ele>
        <time>2018-05-17T09:02:45Z</time>
      </trkpt>
      <trkpt lat="45.65236" lon="6.78707">
        <ele>1061</ele>
        <time>2018-05-17T09:03:45Z</time>
      </trkpt>
      <trkpt lat="45.65242" lon="6.78704">
        <ele>1060</ele>
        <time>2018-05-17T09:04:45Z</time>
      </trkpt>
      <trkpt lat="45.65248" lon="6.78701">
        <ele>1060</ele>
        <time>2018-05-17T09:05:45Z</time>
      </trkpt>
      <trkpt lat="45.65258" lon="6.78697">
        <ele>1061</ele>
        <time>2018-05-17T09:06:45Z</time>
      </trkpt>
      <trkpt lat="45.6527" lon="6.78695">
        <ele>1062</ele>
        <time>2018-05-17T09:07:45Z</time>
      </trkpt>
      <trkpt lat="45.6528" lon="6.78695">
        <ele>1062</ele>
        <time>2018-05-17T09:08:45Z</time>
      </trkpt>
      <trkpt lat="45.65294" lon="6.78696">
        <ele>1063</ele>
        <time>2018-05-17T09:09:45Z</time>
      </trkpt>
      <trkpt lat="45.6531" lon="6.78698">
        <ele>1064</ele>
        <time>2018-05-17T09:10:45Z</time>
      </trkpt>
      <trkpt lat="45.65318" lon="6.78698">
        <ele>1064</ele>
        <time>2018-05-17T09:11:45Z</time>
      </trkpt>
      <trkpt lat="45.65329" lon="6.78697">
        <ele>1064</ele>
        <time>2018-05-17T09:12:45Z</time>
      </trkpt>
      <trkpt lat="45.65339" lon="6.78695">
        <ele>1071</ele>
        <time>2018-05-17T09:13:45Z</time>
      </trkpt>
      <trkpt lat="45.65349" lon="6.78692">
        <ele>1071</ele>
        <time>2018-05-17T09:14:45Z</time>
      </trkpt>
      <trkpt lat="45.65356" lon="6.78688">
        <ele>1071</ele>
        <time>2018-05-17T09:15:45Z</time>
      </trkpt>
      <trkpt lat="45.65365" lon="6.78682">
        <ele>1072</ele>
        <time>2018-05-17T09:16:45Z</time>
      </trkpt>
      <trkpt lat="45.6539" lon="6.78662">
        <ele>1073</ele>
        <time>2018-05-17T09:17:45Z</time>
      </trkpt>
      <trkpt lat="45.65433" lon="6.78624">
        <ele>1080</ele>
        <time>2018-05-17T09:18:45Z</time>
      </trkpt>
      <trkpt lat="45.65463" lon="6.78593">
        <ele>1081</ele>
        <time>2018-05-17T09:19:45Z</time>
      </trkpt>
      <trkpt lat="45.65483" lon="6.7857">
        <ele>1083</ele>
        <time>2018-05-17T09:20:45Z</time>
      </trkpt>
      <trkpt lat="45.65515" lon="6.78538">
        <ele>1089</ele>
        <time>2018-05-17T09:21:45Z</time>
      </trkpt>
      <trkpt lat="45.6554" lon="6.78512">
        <ele>1090</ele>
        <time>2018-05-17T09:22:45Z</time>
      </trkpt>
      <trkpt lat="45.65562" lon="6.7849">
        <ele>1092</ele>
        <time>2018-05-17T09:23:45Z</time>
      </trkpt>
      <trkpt lat="45.65597" lon="6.78451">
        <ele>1097</ele>
        <time>2018-05-17T09:24:45Z</time>
      </trkpt>
      <trkpt lat="45.6563" lon="6.78409">
        <ele>1099</ele>
        <time>2018-05-17T09:25:45Z</time>
      </trkpt>
      <trkpt lat="45.65644" lon="6.78395">
        <ele>1100</ele>
        <time>2018-05-17T09:26:45Z</time>
      </trkpt>
      <trkpt lat="45.65651" lon="6.78388">
        <ele>1100</ele>
        <time>2018-05-17T09:27:45Z</time>
      </trkpt>
      <trkpt lat="45.65665" lon="6.78377">
        <ele>1099</ele>
        <time>2018-05-17T09:28:45Z</time>
      </trkpt>
      <trkpt lat="45.6573" lon="6.7833">
        <ele>1103</ele>
        <time>2018-05-17T09:29:45Z</time>
      </trkpt>
      <trkpt lat="45.65742" lon="6.78322">
        <ele>1103</ele>
        <time>2018-05-17T09:30:45Z</time>
      </trkpt>
      <trkpt lat="45.65761" lon="6.78311">
        <ele>1108</ele>
        <time>2018-05-17T09:31:45Z</time>
      </trkpt>
      <trkpt lat="45.65773" lon="6.78304">
        <ele>1109</ele>
        <time>2018-05-17T09:32:45Z</time>
      </trkpt>
      <trkpt lat="45.65788" lon="6.78298">
        <ele>1110</ele>
        <time>2018-05-17T09:33:45Z</time>
      </trkpt>
      <trkpt lat="45.65824" lon="6.78287">
        <ele>1112</ele>
        <time>2018-05-17T09:34:45Z</time>
      </trkpt>
      <trkpt lat="45.65857" lon="6.78273">
        <ele>1125</ele>
        <time>2018-05-17T09:35:45Z</time>
      </trkpt>
      <trkpt lat="45.65864" lon="6.78269">
        <ele>1126</ele>
        <time>2018-05-17T09:36:45Z</time>
      </trkpt>
      <trkpt lat="45.65872" lon="6.78264">
        <ele>1127</ele>
        <time>2018-05-17T09:37:45Z</time>
      </trkpt>
      <trkpt lat="45.65878" lon="6.78256">
        <ele>1128</ele>
        <time>2018-05-17T09:38:45Z</time>
      </trkpt>
      <trkpt lat="45.65885" lon="6.7825">
        <ele>1121</ele>
        <time>2018-05-17T09:39:45Z</time>
      </trkpt>
      <trkpt lat="45.6589" lon="6.78242">
        <ele>1122</ele>
        <time>2018-05-17T09:40:45Z</time>
      </trkpt>
      <trkpt lat="45.65897" lon="6.78234">
        <ele>1122</ele>
        <time>2018-05-17T09:41:45Z</time>
      </trkpt>
      <trkpt lat="45.65903" lon="6.78224">
        <ele>1122</ele>
        <time>2018-05-17T09:42:45Z</time>
      </trkpt>
      <trkpt lat="45.65908" lon="6.78218">
        <ele>1122</ele>
        <time>2018-05-17T09:43:45Z</time>
      </trkpt>
      <trkpt lat="45.6592" lon="6.78199">
        <ele>1130</ele>
        <time>2018-05-17T09:44:45Z</time>
      </trkpt>
      <trkpt lat="45.65926" lon="6.78191">
        <ele>1129</ele>
        <time>2018-05-17T09:45:45Z</time>
      </trkpt>
      <trkpt lat="45.6593" lon="6.78185">
        <ele>1128</ele>
        <time>2018-05-17T09:46:45Z</time>
      </trkpt>
      <trkpt lat="45.65936" lon="6.7818">
        <ele>1128</ele>
        <time>2018-05-17T09:47:45Z</time>
      </trkpt>
      <trkpt lat="45.65945" lon="6.78175">
        <ele>1130</ele>
        <time>2018-05-17T09:48:45Z</time>
      </trkpt>
      <trkpt lat="45.65958" lon="6.7817">
        <ele>1131</ele>
        <time>2018-05-17T09:49:45Z</time>
      </trkpt>
      <trkpt lat="45.65974" lon="6.78167">
        <ele>1133</ele>
        <time>2018-05-17T09:50:45Z</time>
      </trkpt>
      <trkpt lat="45.65982" lon="6.78167">
        <ele>1133</ele>
        <time>2018-05-17T09:51:45Z</time>
      </trkpt>
      <trkpt lat="45.65998" lon="6.78169">
        <ele>1132</ele>
        <time>2018-05-17T09:52:45Z</time>
      </trkpt>
      <trkpt lat="45.66014" lon="6.78173">
        <ele>1144</ele>
        <time>2018-05-17T09:53:45Z</time>
      </trkpt>
      <trkpt lat="45.66027" lon="6.78171">
        <ele>1149</ele>
        <time>2018-05-17T09:54:45Z</time>
      </trkpt>
      <trkpt lat="45.66034" lon="6.78168">
        <ele>1150</ele>
        <time>2018-05-17T09:55:45Z</time>
      </trkpt>
      <trkpt lat="45.6604" lon="6.78163">
        <ele>1141</ele>
        <time>2018-05-17T09:56:45Z</time>
      </trkpt>
      <trkpt lat="45.66046" lon="6.78157">
        <ele>1142</ele>
        <time>2018-05-17T09:57:45Z</time>
      </trkpt>
      <trkpt lat="45.66054" lon="6.78147">
        <ele>1143</ele>
        <time>2018-05-17T09:58:45Z</time>
      </trkpt>
      <trkpt lat="45.66063" lon="6.78133">
        <ele>1143</ele>
        <time>2018-05-17T09:59:45Z</time>
      </trkpt>
      <trkpt lat="45.66071" lon="6.78119">
        <ele>1142</ele>
        <time>2018-05-17T10:00:45Z</time>
      </trkpt>
      <trkpt lat="45.6608" lon="6.78103">
        <ele>1141</ele>
        <time>2018-05-17T10:01:45Z</time>
      </trkpt>
      <trkpt lat="45.66094" lon="6.78082">
        <ele>1142</ele>
        <time>2018-05-17T10:02:45Z</time>
      </trkpt>
      <trkpt lat="45.66099" lon="6.78075">
        <ele>1144</ele>
        <time>2018-05-17T10:03:45Z</time>
      </trkpt>
      <trkpt lat="45.66107" lon="6.78067">
        <ele>1145</ele>
        <time>2018-05-17T10:04:45Z</time>
      </trkpt>
      <trkpt lat="45.66113" lon="6.78061">
        <ele>1146</ele>
        <time>2018-05-17T10:05:45Z</time>
      </trkpt>
      <trkpt lat="45.6612" lon="6.78056">
        <ele>1147</ele>
        <time>2018-05-17T10:06:45Z</time>
      </trkpt>
      <trkpt lat="45.66127" lon="6.7805">
        <ele>1147</ele>
        <time>2018-05-17T10:07:45Z</time>
      </trkpt>
      <trkpt lat="45.66135" lon="6.78046">
        <ele>1148</ele>
        <time>2018-05-17T10:08:45Z</time>
      </trkpt>
      <trkpt lat="45.6615" lon="6.78036">
        <ele>1148</ele>
        <time>2018-05-17T10:09:45Z</time>
      </trkpt>
      <trkpt lat="45.66158" lon="6.78031">
        <ele>1147</ele>
        <time>2018-05-17T10:10:45Z</time>
      </trkpt>
      <trkpt lat="45.66165" lon="6.78025">
        <ele>1146</ele>
        <time>2018-05-17T10:11:45Z</time>
      </trkpt>
      <trkpt lat="45.66173" lon="6.78018">
        <ele>1155</ele>
        <time>2018-05-17T10:12:45Z</time>
      </trkpt>
      <trkpt lat="45.66202" lon="6.77993">
        <ele>1153</ele>
        <time>2018-05-17T10:13:45Z</time>
      </trkpt>
      <trkpt lat="45.66208" lon="6.77987">
        <ele>1154</ele>
        <time>2018-05-17T10:14:45Z</time>
      </trkpt>
      <trkpt lat="45.66213" lon="6.77979">
        <ele>1155</ele>
        <time>2018-05-17T10:15:45Z</time>
      </trkpt>
      <trkpt lat="45.66218" lon="6.77971">
        <ele>1155</ele>
        <time>2018-05-17T10:16:45Z</time>
      </trkpt>
      <trkpt lat="45.66226" lon="6.77955">
        <ele>1155</ele>
        <time>2018-05-17T10:17:45Z</time>
      </trkpt>
      <trkpt lat="45.66235" lon="6.77941">
        <ele>1154</ele>
        <time>2018-05-17T10:18:45Z</time>
      </trkpt>
      <trkpt lat="45.66244" lon="6.77929">
        <ele>1153</ele>
        <time>2018-05-17T10:19:45Z</time>
      </trkpt>
      <trkpt lat="45.66249" lon="6.77925">
        <ele>1152</ele>
        <time>2018-05-17T10:20:45Z</time>
      </trkpt>
      <trkpt lat="45.66254" lon="6.77922">
        <ele>1156</ele>
        <time>2018-05-17T10:21:45Z</time>
      </trkpt>
      <trkpt lat="45.66259" lon="6.7792">
        <ele>1158</ele>
        <time>2018-05-17T10:22:45Z</time>
      </trkpt>
      <trkpt lat="45.66278" lon="6.77922">
        <ele>1165</ele>
        <time>2018-05-17T10:23:45Z</time>
      </trkpt>
      <trkpt lat="45.66291" lon="6.77923">
        <ele>1168</ele>
        <time>2018-05-17T10:24:45Z</time>
      </trkpt>
      <trkpt lat="45.66297" lon="6.77922">
        <ele>1169</ele>
        <time>2018-05-17T10:25:45Z</time>
      </trkpt>
      <trkpt lat="45.66301" lon="6.7792">
        <ele>1169</ele>
        <time>2018-05-17T10:26:45Z</time>
      </trkpt>
      <trkpt lat="45.66305" lon="6.77918">
        <ele>1170</ele>
        <time>2018-05-17T10:27:45Z</time>
      </trkpt>
      <trkpt lat="45.66311" lon="6.77915">
        <ele>1165</ele>
        <time>2018-05-17T10:28:45Z</time>
      </trkpt>
      <trkpt lat="45.66317" lon="6.77909">
        <ele>1166</ele>
        <time>2018-05-17T10:29:45Z</time>
      </trkpt>
      <trkpt lat="45.66322" lon="6.77902">
        <ele>1166</ele>
        <time>2018-05-17T10:30:45Z</time>
      </trkpt>
      <trkpt lat="45.66327" lon="6.77895">
        <ele>1166</ele>
        <time>2018-05-17T10:31:45Z</time>
      </trkpt>
      <trkpt lat="45.6634" lon="6.7787">
        <ele>1173</ele>
        <time>2018-05-17T10:32:45Z</time>
      </trkpt>
      <trkpt lat="45.66348" lon="6.77855">
        <ele>1171</ele>
        <time>2018-05-17T10:33:45Z</time>
      </trkpt>
      <trkpt lat="45.66357" lon="6.77841">
        <ele>1171</ele>
        <time>2018-05-17T10:34:45Z</time>
      </trkpt>
      <trkpt lat="45.6637" lon="6.77824">
        <ele>1166</ele>
        <time>2018-05-17T10:35:45Z</time>
      </trkpt>
      <trkpt lat="45.66379" lon="6.77813">
        <ele>1167</ele>
        <time>2018-05-17T10:36:45Z</time>
      </trkpt>
      <trkpt lat="45.66399" lon="6.77793">
        <ele>1166</ele>
        <time>2018-05-17T10:37:45Z</time>
      </trkpt>
      <trkpt lat="45.66441" lon="6.7776">
        <ele>1172</ele>
        <time>2018-05-17T10:38:45Z</time>
      </trkpt>
      <trkpt lat="45.66462" lon="6.77739">
        <ele>1171</ele>
        <time>2018-05-17T10:39:45Z</time>
      </trkpt>
      <trkpt lat="45.66475" lon="6.7773">
        <ele>1173</ele>
        <time>2018-05-17T10:40:45Z</time>
      </trkpt>
      <trkpt lat="45.66483" lon="6.7772">
        <ele>1173</ele>
        <time>2018-05-17T10:41:45Z</time>
      </trkpt>
      <trkpt lat="45.66489" lon="6.77714">
        <ele>1173</ele>
        <time>2018-05-17T10:42:45Z</time>
      </trkpt>
      <trkpt lat="45.66496" lon="6.77701">
        <ele>1173</ele>
        <time>2018-05-17T10:43:45Z</time>
      </trkpt>
      <trkpt lat="45.66501" lon="6.77688">
        <ele>1184</ele>
        <time>2018-05-17T10:44:45Z</time>
      </trkpt>
      <trkpt lat="45.66506" lon="6.77672">
        <ele>1179</ele>
        <time>2018-05-17T10:45:45Z</time>
      </trkpt>
      <trkpt lat="45.66515" lon="6.77641">
        <ele>1179</ele>
        <time>2018-05-17T10:46:45Z</time>
      </trkpt>
      <trkpt lat="45.66528" lon="6.77591">
        <ele>1178</ele>
        <time>2018-05-17T10:47:45Z</time>
      </trkpt>
      <trkpt lat="45.66537" lon="6.77561">
        <ele>1176</ele>
        <time>2018-05-17T10:48:45Z</time>
      </trkpt>
      <trkpt lat="45.66549" lon="6.77527">
        <ele>1177</ele>
        <time>2018-05-17T10:49:45Z</time>
      </trkpt>
      <trkpt lat="45.66558" lon="6.7751">
        <ele>1178</ele>
        <time>2018-05-17T10:50:45Z</time>
      </trkpt>
      <trkpt lat="45.66563" lon="6.77503">
        <ele>1179</ele>
        <time>2018-05-17T10:51:45Z</time>
      </trkpt>
      <trkpt lat="45.66595" lon="6.77444">
        <ele>1192</ele>
        <time>2018-05-17T10:52:45Z</time>
      </trkpt>
      <trkpt lat="45.66603" lon="6.77436">
        <ele>1192</ele>
        <time>2018-05-17T10:53:45Z</time>
      </trkpt>
      <trkpt lat="45.66609" lon="6.77433">
        <ele>1193</ele>
        <time>2018-05-17T10:54:45Z</time>
      </trkpt>
      <trkpt lat="45.66614" lon="6.77436">
        <ele>1194</ele>
        <time>2018-05-17T10:55:45Z</time>
      </trkpt>
      <trkpt lat="45.66618" lon="6.77438">
        <ele>1195</ele>
        <time>2018-05-17T10:56:45Z</time>
      </trkpt>
      <trkpt lat="45.6662" lon="6.7744">
        <ele>1195</ele>
        <time>2018-05-17T10:57:45Z</time>
      </trkpt>
      <trkpt lat="45.66622" lon="6.77446">
        <ele>1196</ele>
        <time>2018-05-17T10:58:45Z</time>
      </trkpt>
      <trkpt lat="45.66622" lon="6.77452">
        <ele>1196</ele>
        <time>2018-05-17T10:59:45Z</time>
      </trkpt>
      <trkpt lat="45.66621" lon="6.7746">
        <ele>1196</ele>
        <time>2018-05-17T11:00:45Z</time>
      </trkpt>
      <trkpt lat="45.66617" lon="6.77468">
        <ele>1195</ele>
        <time>2018-05-17T11:01:45Z</time>
      </trkpt>
      <trkpt lat="45.66611" lon="6.77484">
        <ele>1193</ele>
        <time>2018-05-17T11:02:45Z</time>
      </trkpt>
      <trkpt lat="45.66609" lon="6.77493">
        <ele>1192</ele>
        <time>2018-05-17T11:03:45Z</time>
      </trkpt>
      <trkpt lat="45.66609" lon="6.775">
        <ele>1193</ele>
        <time>2018-05-17T11:04:45Z</time>
      </trkpt>
      <trkpt lat="45.66611" lon="6.7751">
        <ele>1194</ele>
        <time>2018-05-17T11:05:45Z</time>
      </trkpt>
      <trkpt lat="45.66614" lon="6.77519">
        <ele>1195</ele>
        <time>2018-05-17T11:06:45Z</time>
      </trkpt>
      <trkpt lat="45.6662" lon="6.77529">
        <ele>1197</ele>
        <time>2018-05-17T11:07:45Z</time>
      </trkpt>
      <trkpt lat="45.66629" lon="6.77544">
        <ele>1199</ele>
        <time>2018-05-17T11:08:45Z</time>
      </trkpt>
      <trkpt lat="45.66634" lon="6.77551">
        <ele>1200</ele>
        <time>2018-05-17T11:09:45Z</time>
      </trkpt>
      <trkpt lat="45.66637" lon="6.77561">
        <ele>1201</ele>
        <time>2018-05-17T11:10:45Z</time>
      </trkpt>
      <trkpt lat="45.6664" lon="6.77573">
        <ele>1202</ele>
        <time>2018-05-17T11:11:45Z</time>
      </trkpt>
      <trkpt lat="45.6664" lon="6.77586">
        <ele>1207</ele>
        <time>2018-05-17T11:12:45Z</time>
      </trkpt>
      <trkpt lat="45.6664" lon="6.77596">
        <ele>1208</ele>
        <time>2018-05-17T11:13:45Z</time>
      </trkpt>
      <trkpt lat="45.66641" lon="6.77601">
        <ele>1208</ele>
        <time>2018-05-17T11:14:45Z</time>
      </trkpt>
      <trkpt lat="45.66644" lon="6.77605">
        <ele>1208</ele>
        <time>2018-05-17T11:15:45Z</time>
      </trkpt>
      <trkpt lat="45.66648" lon="6.77605">
        <ele>1209</ele>
        <time>2018-05-17T11:16:45Z</time>
      </trkpt>
      <trkpt lat="45.66652" lon="6.77603">
        <ele>1209</ele>
        <time>2018-05-17T11:17:45Z</time>
      </trkpt>
      <trkpt lat="45.66654" lon="6.77597">
        <ele>1210</ele>
        <time>2018-05-17T11:18:45Z</time>
      </trkpt>
      <trkpt lat="45.66656" lon="6.77587">
        <ele>1211</ele>
        <time>2018-05-17T11:19:45Z</time>
      </trkpt>
      <trkpt lat="45.66659" lon="6.77576">
        <ele>1208</ele>
        <time>2018-05-17T11:20:45Z</time>
      </trkpt>
      <trkpt lat="45.66664" lon="6.77559">
        <ele>1205</ele>
        <time>2018-05-17T11:21:45Z</time>
      </trkpt>
      <trkpt lat="45.6667" lon="6.7754">
        <ele>1222</ele>
        <time>2018-05-17T11:22:45Z</time>
      </trkpt>
      <trkpt lat="45.66679" lon="6.77516">
        <ele>1220</ele>
        <time>2018-05-17T11:23:45Z</time>
      </trkpt>
      <trkpt lat="45.6669" lon="6.77493">
        <ele>1220</ele>
        <time>2018-05-17T11:24:45Z</time>
      </trkpt>
      <trkpt lat="45.667" lon="6.77475">
        <ele>1223</ele>
        <time>2018-05-17T11:25:45Z</time>
      </trkpt>
      <trkpt lat="45.66706" lon="6.77461">
        <ele>1224</ele>
        <time>2018-05-17T11:26:45Z</time>
      </trkpt>
      <trkpt lat="45.66708" lon="6.77449">
        <ele>1224</ele>
        <time>2018-05-17T11:27:45Z</time>
      </trkpt>
      <trkpt lat="45.66709" lon="6.77435">
        <ele>1224</ele>
        <time>2018-05-17T11:28:45Z</time>
      </trkpt>
      <trkpt lat="45.66708" lon="6.77421">
        <ele>1224</ele>
        <time>2018-05-17T11:29:45Z</time>
      </trkpt>
      <trkpt lat="45.66704" lon="6.77405">
        <ele>1224</ele>
        <time>2018-05-17T11:30:45Z</time>
      </trkpt>
      <trkpt lat="45.66699" lon="6.7739">
        <ele>1223</ele>
        <time>2018-05-17T11:31:45Z</time>
      </trkpt>
      <trkpt lat="45.66693" lon="6.77377">
        <ele>1222</ele>
        <time>2018-05-17T11:32:45Z</time>
      </trkpt>
      <trkpt lat="45.66684" lon="6.77364">
        <ele>1221</ele>
        <time>2018-05-17T11:33:45Z</time>
      </trkpt>
      <trkpt lat="45.6668" lon="6.77355">
        <ele>1219</ele>
        <time>2018-05-17T11:34:45Z</time>
      </trkpt>
      <trkpt lat="45.66678" lon="6.77341">
        <ele>1216</ele>
        <time>2018-05-17T11:35:45Z</time>
      </trkpt>
      <trkpt lat="45.66678" lon="6.77329">
        <ele>1217</ele>
        <time>2018-05-17T11:36:45Z</time>
      </trkpt>
      <trkpt lat="45.66679" lon="6.7732">
        <ele>1219</ele>
        <time>2018-05-17T11:37:45Z</time>
      </trkpt>
      <trkpt lat="45.66681" lon="6.77309">
        <ele>1222</ele>
        <time>2018-05-17T11:38:45Z</time>
      </trkpt>
      <trkpt lat="45.66685" lon="6.77298">
        <ele>1224</ele>
        <time>2018-05-17T11:39:45Z</time>
      </trkpt>
      <trkpt lat="45.66689" lon="6.77287">
        <ele>1225</ele>
        <time>2018-05-17T11:40:45Z</time>
      </trkpt>
      <trkpt lat="45.66693" lon="6.77274">
        <ele>1225</ele>
        <time>2018-05-17T11:41:45Z</time>
      </trkpt>
      <trkpt lat="45.66695" lon="6.77265">
        <ele>1225</ele>
        <time>2018-05-17T11:42:45Z</time>
      </trkpt>
      <trkpt lat="45.66697" lon="6.77251">
        <ele>1226</ele>
        <time>2018-05-17T11:43:45Z</time>
      </trkpt>
      <trkpt lat="45.66698" lon="6.77236">
        <ele>1228</ele>
        <time>2018-05-17T11:44:45Z</time>
      </trkpt>
      <trkpt lat="45.66697" lon="6.77226">
        <ele>1228</ele>
        <time>2018-05-17T11:45:45Z</time>
      </trkpt>
      <trkpt lat="45.667" lon="6.77218">
        <ele>1229</ele>
        <time>2018-05-17T11:46:45Z</time>
      </trkpt>
      <trkpt lat="45.66701" lon="6.77214">
        <ele>1229</ele>
        <time>2018-05-17T11:47:45Z</time>
      </trkpt>
      <trkpt lat="45.66705" lon="6.77213">
        <ele>1230</ele>
        <time>2018-05-17T11:48:45Z</time>
      </trkpt>
      <trkpt lat="45.66708" lon="6.77214">
        <ele>1231</ele>
        <time>2018-05-17T11:49:45Z</time>
      </trkpt>
      <trkpt lat="45.66711" lon="6.77216">
        <ele>1231</ele>
        <time>2018-05-17T11:50:45Z</time>
      </trkpt>
      <trkpt lat="45.66711" lon="6.77222">
        <ele>1231</ele>
        <time>2018-05-17T11:51:45Z</time>
      </trkpt>
      <trkpt lat="45.6671" lon="6.77229">
        <ele>1231</ele>
        <time>2018-05-17T11:52:45Z</time>
      </trkpt>
      <trkpt lat="45.66708" lon="6.7724">
        <ele>1231</ele>
        <time>2018-05-17T11:53:45Z</time>
      </trkpt>
      <trkpt lat="45.66705" lon="6.77254">
        <ele>1228</ele>
        <time>2018-05-17T11:54:45Z</time>
      </trkpt>
      <trkpt lat="45.66705" lon="6.77263">
        <ele>1228</ele>
        <time>2018-05-17T11:55:45Z</time>
      </trkpt>
      <trkpt lat="45.66705" lon="6.77273">
        <ele>1228</ele>
        <time>2018-05-17T11:56:45Z</time>
      </trkpt>
      <trkpt lat="45.66706" lon="6.77279">
        <ele>1228</ele>
        <time>2018-05-17T11:57:45Z</time>
      </trkpt>
      <trkpt lat="45.66711" lon="6.7729">
        <ele>1229</ele>
        <time>2018-05-17T11:58:45Z</time>
      </trkpt>
      <trkpt lat="45.66715" lon="6.77294">
        <ele>1230</ele>
        <time>2018-05-17T11:59:45Z</time>
      </trkpt>
      <trkpt lat="45.66719" lon="6.77298">
        <ele>1231</ele>
        <time>2018-05-17T12:00:45Z</time>
      </trkpt>
      <trkpt lat="45.66723" lon="6.77304">
        <ele>1232</ele>
        <time>2018-05-17T12:01:45Z</time>
      </trkpt>
      <trkpt lat="45.66728" lon="6.77309">
        <ele>1233</ele>
        <time>2018-05-17T12:02:45Z</time>
      </trkpt>
      <trkpt lat="45.66731" lon="6.77319">
        <ele>1235</ele>
        <time>2018-05-17T12:03:45Z</time>
      </trkpt>
      <trkpt lat="45.66731" lon="6.77334">
        <ele>1234</ele>
        <time>2018-05-17T12:04:45Z</time>
      </trkpt>
      <trkpt lat="45.66728" lon="6.77353">
        <ele>1231</ele>
        <time>2018-05-17T12:05:45Z</time>
      </trkpt>
      <trkpt lat="45.66728" lon="6.77367">
        <ele>1229</ele>
        <time>2018-05-17T12:06:45Z</time>
      </trkpt>
      <trkpt lat="45.66729" lon="6.77375">
        <ele>1229</ele>
        <time>2018-05-17T12:07:45Z</time>
      </trkpt>
      <trkpt lat="45.66735" lon="6.77386">
        <ele>1230</ele>
        <time>2018-05-17T12:08:45Z</time>
      </trkpt>
      <trkpt lat="45.66745" lon="6.77403">
        <ele>1233</ele>
        <time>2018-05-17T12:09:45Z</time>
      </trkpt>
      <trkpt lat="45.66755" lon="6.77418">
        <ele>1242</ele>
        <time>2018-05-17T12:10:45Z</time>
      </trkpt>
      <trkpt lat="45.66763" lon="6.77438">
        <ele>1252</ele>
        <time>2018-05-17T12:11:45Z</time>
      </trkpt>
      <trkpt lat="45.66767" lon="6.7745">
        <ele>1254</ele>
        <time>2018-05-17T12:12:45Z</time>
      </trkpt>
      <trkpt lat="45.66771" lon="6.77468">
        <ele>1255</ele>
        <time>2018-05-17T12:13:45Z</time>
      </trkpt>
      <trkpt lat="45.66774" lon="6.77481">
        <ele>1255</ele>
        <time>2018-05-17T12:14:45Z</time>
      </trkpt>
      <trkpt lat="45.66776" lon="6.77486">
        <ele>1255</ele>
        <time>2018-05-17T12:15:45Z</time>
      </trkpt>
      <trkpt lat="45.66779" lon="6.77488">
        <ele>1256</ele>
        <time>2018-05-17T12:16:45Z</time>
      </trkpt>
      <trkpt lat="45.66782" lon="6.77486">
        <ele>1257</ele>
        <time>2018-05-17T12:17:45Z</time>
      </trkpt>
      <trkpt lat="45.66784" lon="6.77481">
        <ele>1258</ele>
        <time>2018-05-17T12:18:45Z</time>
      </trkpt>
      <trkpt lat="45.66783" lon="6.77472">
        <ele>1258</ele>
        <time>2018-05-17T12:19:45Z</time>
      </trkpt>
      <trkpt lat="45.66779" lon="6.7746">
        <ele>1257</ele>
        <time>2018-05-17T12:20:45Z</time>
      </trkpt>
      <trkpt lat="45.66774" lon="6.77431">
        <ele>1254</ele>
        <time>2018-05-17T12:21:45Z</time>
      </trkpt>
      <trkpt lat="45.66769" lon="6.77402">
        <ele>1254</ele>
        <time>2018-05-17T12:22:45Z</time>
      </trkpt>
      <trkpt lat="45.66764" lon="6.77378">
        <ele>1256</ele>
        <time>2018-05-17T12:23:45Z</time>
      </trkpt>
      <trkpt lat="45.66762" lon="6.77359">
        <ele>1256</ele>
        <time>2018-05-17T12:24:45Z</time>
      </trkpt>
      <trkpt lat="45.6676" lon="6.77338">
        <ele>1251</ele>
        <time>2018-05-17T12:25:45Z</time>
      </trkpt>
      <trkpt lat="45.6676" lon="6.77311">
        <ele>1259</ele>
        <time>2018-05-17T12:26:45Z</time>
      </trkpt>
      <trkpt lat="45.66761" lon="6.77297">
        <ele>1261</ele>
        <time>2018-05-17T12:27:45Z</time>
      </trkpt>
      <trkpt lat="45.66763" lon="6.77282">
        <ele>1262</ele>
        <time>2018-05-17T12:28:45Z</time>
      </trkpt>
      <trkpt lat="45.66762" lon="6.77272">
        <ele>1260</ele>
        <time>2018-05-17T12:29:45Z</time>
      </trkpt>
      <trkpt lat="45.66758" lon="6.77259">
        <ele>1256</ele>
        <time>2018-05-17T12:30:45Z</time>
      </trkpt>
      <trkpt lat="45.66756" lon="6.77247">
        <ele>1253</ele>
        <time>2018-05-17T12:31:45Z</time>
      </trkpt>
      <trkpt lat="45.66758" lon="6.77235">
        <ele>1257</ele>
        <time>2018-05-17T12:32:45Z</time>
      </trkpt>
      <trkpt lat="45.66762" lon="6.7723">
        <ele>1259</ele>
        <time>2018-05-17T12:33:45Z</time>
      </trkpt>
      <trkpt lat="45.66766" lon="6.77227">
        <ele>1260</ele>
        <time>2018-05-17T12:34:45Z</time>
      </trkpt>
      <trkpt lat="45.66771" lon="6.77226">
        <ele>1261</ele>
        <time>2018-05-17T12:35:45Z</time>
      </trkpt>
      <trkpt lat="45.66777" lon="6.77226">
        <ele>1263</ele>
        <time>2018-05-17T12:36:45Z</time>
      </trkpt>
      <trkpt lat="45.66783" lon="6.77226">
        <ele>1264</ele>
        <time>2018-05-17T12:37:45Z</time>
      </trkpt>
      <trkpt lat="45.66789" lon="6.77224">
        <ele>1266</ele>
        <time>2018-05-17T12:38:45Z</time>
      </trkpt>
      <trkpt lat="45.66797" lon="6.77218">
        <ele>1268</ele>
        <time>2018-05-17T12:39:45Z</time>
      </trkpt>
      <trkpt lat="45.66801" lon="6.77208">
        <ele>1268</ele>
        <time>2018-05-17T12:40:45Z</time>
      </trkpt>
      <trkpt lat="45.66803" lon="6.77184">
        <ele>1268</ele>
        <time>2018-05-17T12:41:45Z</time>
      </trkpt>
      <trkpt lat="45.66803" lon="6.77174">
        <ele>1268</ele>
        <time>2018-05-17T12:42:45Z</time>
      </trkpt>
      <trkpt lat="45.66805" lon="6.77168">
        <ele>1269</ele>
        <time>2018-05-17T12:43:45Z</time>
      </trkpt>
      <trkpt lat="45.66808" lon="6.77167">
        <ele>1270</ele>
        <time>2018-05-17T12:44:45Z</time>
      </trkpt>
      <trkpt lat="45.66812" lon="6.7717">
        <ele>1271</ele>
        <time>2018-05-17T12:45:45Z</time>
      </trkpt>
      <trkpt lat="45.66814" lon="6.77176">
        <ele>1272</ele>
        <time>2018-05-17T12:46:45Z</time>
      </trkpt>
      <trkpt lat="45.66814" lon="6.77184">
        <ele>1271</ele>
        <time>2018-05-17T12:47:45Z</time>
      </trkpt>
      <trkpt lat="45.66814" lon="6.77207">
        <ele>1271</ele>
        <time>2018-05-17T12:48:45Z</time>
      </trkpt>
      <trkpt lat="45.66811" lon="6.77227">
        <ele>1273</ele>
        <time>2018-05-17T12:49:45Z</time>
      </trkpt>
      <trkpt lat="45.66808" lon="6.77237">
        <ele>1274</ele>
        <time>2018-05-17T12:50:45Z</time>
      </trkpt>
      <trkpt lat="45.66802" lon="6.77246">
        <ele>1272</ele>
        <time>2018-05-17T12:51:45Z</time>
      </trkpt>
      <trkpt lat="45.66795" lon="6.77262">
        <ele>1270</ele>
        <time>2018-05-17T12:52:45Z</time>
      </trkpt>
      <trkpt lat="45.66793" lon="6.77265">
        <ele>1270</ele>
        <time>2018-05-17T12:53:45Z</time>
      </trkpt>
      <trkpt lat="45.66793" lon="6.77274">
        <ele>1269</ele>
        <time>2018-05-17T12:54:45Z</time>
      </trkpt>
      <trkpt lat="45.66793" lon="6.77282">
        <ele>1269</ele>
        <time>2018-05-17T12:55:45Z</time>
      </trkpt>
      <trkpt lat="45.66798" lon="6.77295">
        <ele>1270</ele>
        <time>2018-05-17T12:56:45Z</time>
      </trkpt>
      <trkpt lat="45.66805" lon="6.7731">
        <ele>1271</ele>
        <time>2018-05-17T12:57:45Z</time>
      </trkpt>
      <trkpt lat="45.66814" lon="6.7733">
        <ele>1276</ele>
        <time>2018-05-17T12:58:45Z</time>
      </trkpt>
      <trkpt lat="45.66818" lon="6.77351">
        <ele>1272</ele>
        <time>2018-05-17T12:59:45Z</time>
      </trkpt>
      <trkpt lat="45.66822" lon="6.77389">
        <ele>1270</ele>
        <time>2018-05-17T13:00:45Z</time>
      </trkpt>
      <trkpt lat="45.66823" lon="6.77404">
        <ele>1273</ele>
        <time>2018-05-17T13:01:45Z</time>
      </trkpt>
      <trkpt lat="45.66826" lon="6.77422">
        <ele>1275</ele>
        <time>2018-05-17T13:02:45Z</time>
      </trkpt>
      <trkpt lat="45.66833" lon="6.77434">
        <ele>1272</ele>
        <time>2018-05-17T13:03:45Z</time>
      </trkpt>
      <trkpt lat="45.6684" lon="6.77445">
        <ele>1297</ele>
        <time>2018-05-17T13:04:45Z</time>
      </trkpt>
      <trkpt lat="45.66851" lon="6.77456">
        <ele>1300</ele>
        <time>2018-05-17T13:05:45Z</time>
      </trkpt>
      <trkpt lat="45.66855" lon="6.77464">
        <ele>1301</ele>
        <time>2018-05-17T13:06:45Z</time>
      </trkpt>
      <trkpt lat="45.66858" lon="6.77471">
        <ele>1301</ele>
        <time>2018-05-17T13:07:45Z</time>
      </trkpt>
      <trkpt lat="45.6686" lon="6.7748">
        <ele>1301</ele>
        <time>2018-05-17T13:08:45Z</time>
      </trkpt>
      <trkpt lat="45.66859" lon="6.77493">
        <ele>1300</ele>
        <time>2018-05-17T13:09:45Z</time>
      </trkpt>
      <trkpt lat="45.66852" lon="6.77515">
        <ele>1302</ele>
        <time>2018-05-17T13:10:45Z</time>
      </trkpt>
      <trkpt lat="45.66849" lon="6.77528">
        <ele>1305</ele>
        <time>2018-05-17T13:11:45Z</time>
      </trkpt>
      <trkpt lat="45.66849" lon="6.77533">
        <ele>1306</ele>
        <time>2018-05-17T13:12:45Z</time>
      </trkpt>
      <trkpt lat="45.66851" lon="6.77537">
        <ele>1307</ele>
        <time>2018-05-17T13:13:45Z</time>
      </trkpt>
      <trkpt lat="45.66854" lon="6.77537">
        <ele>1308</ele>
        <time>2018-05-17T13:14:45Z</time>
      </trkpt>
      <trkpt lat="45.66858" lon="6.77535">
        <ele>1308</ele>
        <time>2018-05-17T13:15:45Z</time>
      </trkpt>
      <trkpt lat="45.66861" lon="6.77527">
        <ele>1308</ele>
        <time>2018-05-17T13:16:45Z</time>
      </trkpt>
      <trkpt lat="45.66864" lon="6.77515">
        <ele>1307</ele>
        <time>2018-05-17T13:17:45Z</time>
      </trkpt>
      <trkpt lat="45.66872" lon="6.7749">
        <ele>1305</ele>
        <time>2018-05-17T13:18:45Z</time>
      </trkpt>
      <trkpt lat="45.66875" lon="6.77478">
        <ele>1306</ele>
        <time>2018-05-17T13:19:45Z</time>
      </trkpt>
      <trkpt lat="45.66876" lon="6.77466">
        <ele>1307</ele>
        <time>2018-05-17T13:20:45Z</time>
      </trkpt>
      <trkpt lat="45.66875" lon="6.77457">
        <ele>1306</ele>
        <time>2018-05-17T13:21:45Z</time>
      </trkpt>
      <trkpt lat="45.6687" lon="6.77448">
        <ele>1305</ele>
        <time>2018-05-17T13:22:45Z</time>
      </trkpt>
      <trkpt lat="45.66863" lon="6.77436">
        <ele>1302</ele>
        <time>2018-05-17T13:23:45Z</time>
      </trkpt>
      <trkpt lat="45.6686" lon="6.7743">
        <ele>1300</ele>
        <time>2018-05-17T13:24:45Z</time>
      </trkpt>
      <trkpt lat="45.66859" lon="6.7742">
        <ele>1299</ele>
        <time>2018-05-17T13:25:45Z</time>
      </trkpt>
      <trkpt lat="45.6686" lon="6.7741">
        <ele>1300</ele>
        <time>2018-05-17T13:26:45Z</time>
      </trkpt>
      <trkpt lat="45.66864" lon="6.77384">
        <ele>1304</ele>
        <time>2018-05-17T13:27:45Z</time>
      </trkpt>
      <trkpt lat="45.66865" lon="6.77358">
        <ele>1304</ele>
        <time>2018-05-17T13:28:45Z</time>
      </trkpt>
      <trkpt lat="45.66864" lon="6.77338">
        <ele>1303</ele>
        <time>2018-05-17T13:29:45Z</time>
      </trkpt>
      <trkpt lat="45.66862" lon="6.77317">
        <ele>1306</ele>
        <time>2018-05-17T13:30:45Z</time>
      </trkpt>
      <trkpt lat="45.66862" lon="6.77298">
        <ele>1308</ele>
        <time>2018-05-17T13:31:45Z</time>
      </trkpt>
      <trkpt lat="45.66864" lon="6.77281">
        <ele>1309</ele>
        <time>2018-05-17T13:32:45Z</time>
      </trkpt>
      <trkpt lat="45.66867" lon="6.77268">
        <ele>1309</ele>
        <time>2018-05-17T13:33:45Z</time>
      </trkpt>
      <trkpt lat="45.6687" lon="6.77251">
        <ele>1310</ele>
        <time>2018-05-17T13:34:45Z</time>
      </trkpt>
      <trkpt lat="45.66872" lon="6.77237">
        <ele>1309</ele>
        <time>2018-05-17T13:35:45Z</time>
      </trkpt>
      <trkpt lat="45.66873" lon="6.7722">
        <ele>1309</ele>
        <time>2018-05-17T13:36:45Z</time>
      </trkpt>
      <trkpt lat="45.66874" lon="6.77202">
        <ele>1308</ele>
        <time>2018-05-17T13:37:45Z</time>
      </trkpt>
      <trkpt lat="45.66875" lon="6.77189">
        <ele>1308</ele>
        <time>2018-05-17T13:38:45Z</time>
      </trkpt>
      <trkpt lat="45.66877" lon="6.77183">
        <ele>1308</ele>
        <time>2018-05-17T13:39:45Z</time>
      </trkpt>
      <trkpt lat="45.66879" lon="6.7718">
        <ele>1309</ele>
        <time>2018-05-17T13:40:45Z</time>
      </trkpt>
      <trkpt lat="45.66882" lon="6.77178">
        <ele>1310</ele>
        <time>2018-05-17T13:41:45Z</time>
      </trkpt>
      <trkpt lat="45.66886" lon="6.77178">
        <ele>1311</ele>
        <time>2018-05-17T13:42:45Z</time>
      </trkpt>
      <trkpt lat="45.66886" lon="6.77178">
        <ele>1311</ele>
        <time>2018-05-17T13:43:45Z</time>
      </trkpt>
      <trkpt lat="45.66889" lon="6.7718">
        <ele>1312</ele>
        <time>2018-05-17T13:44:45Z</time>
      </trkpt>
      <trkpt lat="45.6689" lon="6.77184">
        <ele>1312</ele>
        <time>2018-05-17T13:45:45Z</time>
      </trkpt>
      <trkpt lat="45.6689" lon="6.77187">
        <ele>1312</ele>
        <time>2018-05-17T13:46:45Z</time>
      </trkpt>
      <trkpt lat="45.6689" lon="6.77196">
        <ele>1312</ele>
        <time>2018-05-17T13:47:45Z</time>
      </trkpt>
      <trkpt lat="45.6689" lon="6.77209">
        <ele>1313</ele>
        <time>2018-05-17T13:48:45Z</time>
      </trkpt>
      <trkpt lat="45.66889" lon="6.77224">
        <ele>1314</ele>
        <time>2018-05-17T13:49:45Z</time>
      </trkpt>
      <trkpt lat="45.66889" lon="6.77253">
        <ele>1318</ele>
        <time>2018-05-17T13:50:45Z</time>
      </trkpt>
      <trkpt lat="45.66892" lon="6.77273">
        <ele>1317</ele>
        <time>2018-05-17T13:51:45Z</time>
      </trkpt>
      <trkpt lat="45.66893" lon="6.77295">
        <ele>1316</ele>
        <time>2018-05-17T13:52:45Z</time>
      </trkpt>
      <trkpt lat="45.66896" lon="6.77313">
        <ele>1317</ele>
        <time>2018-05-17T13:53:45Z</time>
      </trkpt>
      <trkpt lat="45.66902" lon="6.77336">
        <ele>1320</ele>
        <time>2018-05-17T13:54:45Z</time>
      </trkpt>
      <trkpt lat="45.66908" lon="6.77357">
        <ele>1317</ele>
        <time>2018-05-17T13:55:45Z</time>
      </trkpt>
      <trkpt lat="45.66913" lon="6.7737">
        <ele>1316</ele>
        <time>2018-05-17T13:56:45Z</time>
      </trkpt>
      <trkpt lat="45.66915" lon="6.7738">
        <ele>1316</ele>
        <time>2018-05-17T13:57:45Z</time>
      </trkpt>
      <trkpt lat="45.66916" lon="6.77388">
        <ele>1317</ele>
        <time>2018-05-17T13:58:45Z</time>
      </trkpt>
      <trkpt lat="45.66916" lon="6.77398">
        <ele>1319</ele>
        <time>2018-05-17T13:59:45Z</time>
      </trkpt>
      <trkpt lat="45.66916" lon="6.77408">
        <ele>1324</ele>
        <time>2018-05-17T14:00:45Z</time>
      </trkpt>
      <trkpt lat="45.66918" lon="6.77413">
        <ele>1333</ele>
        <time>2018-05-17T14:01:45Z</time>
      </trkpt>
      <trkpt lat="45.66923" lon="6.77413">
        <ele>1336</ele>
        <time>2018-05-17T14:02:45Z</time>
      </trkpt>
      <trkpt lat="45.66927" lon="6.77407">
        <ele>1340</ele>
        <time>2018-05-17T14:03:45Z</time>
      </trkpt>
      <trkpt lat="45.66927" lon="6.77398">
        <ele>1342</ele>
        <time>2018-05-17T14:04:45Z</time>
      </trkpt>
      <trkpt lat="45.66926" lon="6.77367">
        <ele>1344</ele>
        <time>2018-05-17T14:05:45Z</time>
      </trkpt>
      <trkpt lat="45.66925" lon="6.77348">
        <ele>1341</ele>
        <time>2018-05-17T14:06:45Z</time>
      </trkpt>
      <trkpt lat="45.66924" lon="6.77318">
        <ele>1341</ele>
        <time>2018-05-17T14:07:45Z</time>
      </trkpt>
      <trkpt lat="45.66924" lon="6.77296">
        <ele>1345</ele>
        <time>2018-05-17T14:08:45Z</time>
      </trkpt>
      <trkpt lat="45.66926" lon="6.77263">
        <ele>1343</ele>
        <time>2018-05-17T14:09:45Z</time>
      </trkpt>
      <trkpt lat="45.66927" lon="6.77244">
        <ele>1341</ele>
        <time>2018-05-17T14:10:45Z</time>
      </trkpt>
      <trkpt lat="45.66929" lon="6.77235">
        <ele>1343</ele>
        <time>2018-05-17T14:11:45Z</time>
      </trkpt>
      <trkpt lat="45.66936" lon="6.7722">
        <ele>1346</ele>
        <time>2018-05-17T14:12:45Z</time>
      </trkpt>
      <trkpt lat="45.66947" lon="6.77198">
        <ele>1348</ele>
        <time>2018-05-17T14:13:45Z</time>
      </trkpt>
      <trkpt lat="45.66951" lon="6.77184">
        <ele>1348</ele>
        <time>2018-05-17T14:14:45Z</time>
      </trkpt>
      <trkpt lat="45.66953" lon="6.77175">
        <ele>1348</ele>
        <time>2018-05-17T14:15:45Z</time>
      </trkpt>
      <trkpt lat="45.66956" lon="6.77166">
        <ele>1349</ele>
        <time>2018-05-17T14:16:45Z</time>
      </trkpt>
      <trkpt lat="45.6696" lon="6.77163">
        <ele>1351</ele>
        <time>2018-05-17T14:17:45Z</time>
      </trkpt>
      <trkpt lat="45.66962" lon="6.77164">
        <ele>1352</ele>
        <time>2018-05-17T14:18:45Z</time>
      </trkpt>
      <trkpt lat="45.66963" lon="6.77167">
        <ele>1352</ele>
        <time>2018-05-17T14:19:45Z</time>
      </trkpt>
      <trkpt lat="45.66964" lon="6.77175">
        <ele>1353</ele>
        <time>2018-05-17T14:20:45Z</time>
      </trkpt>
      <trkpt lat="45.66962" lon="6.77188">
        <ele>1352</ele>
        <time>2018-05-17T14:21:45Z</time>
      </trkpt>
      <trkpt lat="45.6696" lon="6.77209">
        <ele>1351</ele>
        <time>2018-05-17T14:22:45Z</time>
      </trkpt>
      <trkpt lat="45.66961" lon="6.77223">
        <ele>1352</ele>
        <time>2018-05-17T14:23:45Z</time>
      </trkpt>
      <trkpt lat="45.66962" lon="6.77242">
        <ele>1353</ele>
        <time>2018-05-17T14:24:45Z</time>
      </trkpt>
      <trkpt lat="45.66965" lon="6.77276">
        <ele>1354</ele>
        <time>2018-05-17T14:25:45Z</time>
      </trkpt>
      <trkpt lat="45.6697" lon="6.77327">
        <ele>1356</ele>
        <time>2018-05-17T14:26:45Z</time>
      </trkpt>
      <trkpt lat="45.66973" lon="6.77365">
        <ele>1355</ele>
        <time>2018-05-17T14:27:45Z</time>
      </trkpt>
      <trkpt lat="45.66975" lon="6.77391">
        <ele>1357</ele>
        <time>2018-05-17T14:28:45Z</time>
      </trkpt>
      <trkpt lat="45.66974" lon="6.77407">
        <ele>1358</ele>
        <time>2018-05-17T14:29:45Z</time>
      </trkpt>
      <trkpt lat="45.6697" lon="6.77421">
        <ele>1358</ele>
        <time>2018-05-17T14:30:45Z</time>
      </trkpt>
      <trkpt lat="45.66969" lon="6.7743">
        <ele>1357</ele>
        <time>2018-05-17T14:31:45Z</time>
      </trkpt>
      <trkpt lat="45.6697" lon="6.77438">
        <ele>1357</ele>
        <time>2018-05-17T14:32:45Z</time>
      </trkpt>
      <trkpt lat="45.66973" lon="6.77439">
        <ele>1358</ele>
        <time>2018-05-17T14:33:45Z</time>
      </trkpt>
      <trkpt lat="45.66976" lon="6.77438">
        <ele>1359</ele>
        <time>2018-05-17T14:34:45Z</time>
      </trkpt>
      <trkpt lat="45.66978" lon="6.77432">
        <ele>1360</ele>
        <time>2018-05-17T14:35:45Z</time>
      </trkpt>
      <trkpt lat="45.6698" lon="6.77423">
        <ele>1362</ele>
        <time>2018-05-17T14:36:45Z</time>
      </trkpt>
      <trkpt lat="45.66981" lon="6.77414">
        <ele>1362</ele>
        <time>2018-05-17T14:37:45Z</time>
      </trkpt>
      <trkpt lat="45.66985" lon="6.77401">
        <ele>1361</ele>
        <time>2018-05-17T14:38:45Z</time>
      </trkpt>
      <trkpt lat="45.66989" lon="6.77389">
        <ele>1360</ele>
        <time>2018-05-17T14:39:45Z</time>
      </trkpt>
      <trkpt lat="45.66993" lon="6.77378">
        <ele>1359</ele>
        <time>2018-05-17T14:40:45Z</time>
      </trkpt>
      <trkpt lat="45.67" lon="6.77356">
        <ele>1384</ele>
        <time>2018-05-17T14:41:45Z</time>
      </trkpt>
      <trkpt lat="45.67005" lon="6.77334">
        <ele>1376</ele>
        <time>2018-05-17T14:42:45Z</time>
      </trkpt>
      <trkpt lat="45.67007" lon="6.77294">
        <ele>1385</ele>
        <time>2018-05-17T14:43:45Z</time>
      </trkpt>
      <trkpt lat="45.67006" lon="6.77263">
        <ele>1379</ele>
        <time>2018-05-17T14:44:45Z</time>
      </trkpt>
      <trkpt lat="45.67005" lon="6.77232">
        <ele>1382</ele>
        <time>2018-05-17T14:45:45Z</time>
      </trkpt>
      <trkpt lat="45.67004" lon="6.77196">
        <ele>1385</ele>
        <time>2018-05-17T14:46:45Z</time>
      </trkpt>
      <trkpt lat="45.67008" lon="6.77171">
        <ele>1380</ele>
        <time>2018-05-17T14:47:45Z</time>
      </trkpt>
      <trkpt lat="45.67013" lon="6.7714">
        <ele>1390</ele>
        <time>2018-05-17T14:48:45Z</time>
      </trkpt>
      <trkpt lat="45.67018" lon="6.77121">
        <ele>1393</ele>
        <time>2018-05-17T14:49:45Z</time>
      </trkpt>
      <trkpt lat="45.67023" lon="6.7711">
        <ele>1394</ele>
        <time>2018-05-17T14:50:45Z</time>
      </trkpt>
      <trkpt lat="45.6703" lon="6.771">
        <ele>1395</ele>
        <time>2018-05-17T14:51:45Z</time>
      </trkpt>
      <trkpt lat="45.67032" lon="6.77089">
        <ele>1396</ele>
        <time>2018-05-17T14:52:45Z</time>
      </trkpt>
      <trkpt lat="45.6703" lon="6.77078">
        <ele>1397</ele>
        <time>2018-05-17T14:53:45Z</time>
      </trkpt>
      <trkpt lat="45.67018" lon="6.77061">
        <ele>1394</ele>
        <time>2018-05-17T14:54:45Z</time>
      </trkpt>
      <trkpt lat="45.67012" lon="6.7705">
        <ele>1395</ele>
        <time>2018-05-17T14:55:45Z</time>
      </trkpt>
      <trkpt lat="45.67012" lon="6.77034">
        <ele>1395</ele>
        <time>2018-05-17T14:56:45Z</time>
      </trkpt>
      <trkpt lat="45.67016" lon="6.7702">
        <ele>1394</ele>
        <time>2018-05-17T14:57:45Z</time>
      </trkpt>
      <trkpt lat="45.6702" lon="6.77008">
        <ele>1394</ele>
        <time>2018-05-17T14:58:45Z</time>
      </trkpt>
      <trkpt lat="45.67031" lon="6.76992">
        <ele>1396</ele>
        <time>2018-05-17T14:59:45Z</time>
      </trkpt>
      <trkpt lat="45.67045" lon="6.76971">
        <ele>1401</ele>
        <time>2018-05-17T15:00:45Z</time>
      </trkpt>
      <trkpt lat="45.67056" lon="6.76956">
        <ele>1403</ele>
        <time>2018-05-17T15:01:45Z</time>
      </trkpt>
      <trkpt lat="45.67075" lon="6.76922">
        <ele>1411</ele>
        <time>2018-05-17T15:02:45Z</time>
      </trkpt>
      <trkpt lat="45.67081" lon="6.76908">
        <ele>1410</ele>
        <time>2018-05-17T15:03:45Z</time>
      </trkpt>
      <trkpt lat="45.67086" lon="6.76894">
        <ele>1428</ele>
        <time>2018-05-17T15:04:45Z</time>
      </trkpt>
      <trkpt lat="45.67089" lon="6.7688">
        <ele>1430</ele>
        <time>2018-05-17T15:05:45Z</time>
      </trkpt>
      <trkpt lat="45.67093" lon="6.76841">
        <ele>1422</ele>
        <time>2018-05-17T15:06:45Z</time>
      </trkpt>
      <trkpt lat="45.67096" lon="6.76822">
        <ele>1424</ele>
        <time>2018-05-17T15:07:45Z</time>
      </trkpt>
      <trkpt lat="45.67099" lon="6.76808">
        <ele>1429</ele>
        <time>2018-05-17T15:08:45Z</time>
      </trkpt>
      <trkpt lat="45.67101" lon="6.76798">
        <ele>1430</ele>
        <time>2018-05-17T15:09:45Z</time>
      </trkpt>
      <trkpt lat="45.67104" lon="6.76787">
        <ele>1431</ele>
        <time>2018-05-17T15:10:45Z</time>
      </trkpt>
      <trkpt lat="45.67106" lon="6.76771">
        <ele>1431</ele>
        <time>2018-05-17T15:11:45Z</time>
      </trkpt>
      <trkpt lat="45.67105" lon="6.76756">
        <ele>1428</ele>
        <time>2018-05-17T15:12:45Z</time>
      </trkpt>
      <trkpt lat="45.67103" lon="6.76741">
        <ele>1428</ele>
        <time>2018-05-17T15:13:45Z</time>
      </trkpt>
      <trkpt lat="45.67099" lon="6.76724">
        <ele>1430</ele>
        <time>2018-05-17T15:14:45Z</time>
      </trkpt>
      <trkpt lat="45.67098" lon="6.76709">
        <ele>1431</ele>
        <time>2018-05-17T15:15:45Z</time>
      </trkpt>
      <trkpt lat="45.671" lon="6.76699">
        <ele>1431</ele>
        <time>2018-05-17T15:16:45Z</time>
      </trkpt>
      <trkpt lat="45.67103" lon="6.76675">
        <ele>1429</ele>
        <time>2018-05-17T15:17:45Z</time>
      </trkpt>
      <trkpt lat="45.67107" lon="6.76659">
        <ele>1430</ele>
        <time>2018-05-17T15:18:45Z</time>
      </trkpt>
      <trkpt lat="45.67108" lon="6.76643">
        <ele>1432</ele>
        <time>2018-05-17T15:19:45Z</time>
      </trkpt>
      <trkpt lat="45.67108" lon="6.76608">
        <ele>1432</ele>
        <time>2018-05-17T15:20:45Z</time>
      </trkpt>
      <trkpt lat="45.67106" lon="6.76584">
        <ele>1429</ele>
        <time>2018-05-17T15:21:45Z</time>
      </trkpt>
      <trkpt lat="45.67105" lon="6.76553">
        <ele>1432</ele>
        <time>2018-05-17T15:22:45Z</time>
      </trkpt>
      <trkpt lat="45.67105" lon="6.7653">
        <ele>1432</ele>
        <time>2018-05-17T15:23:45Z</time>
      </trkpt>
      <trkpt lat="45.6711" lon="6.76516">
        <ele>1432</ele>
        <time>2018-05-17T15:24:45Z</time>
      </trkpt>
      <trkpt lat="45.67119" lon="6.765">
        <ele>1438</ele>
        <time>2018-05-17T15:25:45Z</time>
      </trkpt>
      <trkpt lat="45.67122" lon="6.76484">
        <ele>1440</ele>
        <time>2018-05-17T15:26:45Z</time>
      </trkpt>
      <trkpt lat="45.67122" lon="6.76469">
        <ele>1440</ele>
        <time>2018-05-17T15:27:45Z</time>
      </trkpt>
      <trkpt lat="45.67118" lon="6.76453">
        <ele>1439</ele>
        <time>2018-05-17T15:28:45Z</time>
      </trkpt>
      <trkpt lat="45.67113" lon="6.76435">
        <ele>1436</ele>
        <time>2018-05-17T15:29:45Z</time>
      </trkpt>
      <trkpt lat="45.67112" lon="6.76414">
        <ele>1435</ele>
        <time>2018-05-17T15:30:45Z</time>
      </trkpt>
      <trkpt lat="45.67111" lon="6.764">
        <ele>1436</ele>
        <time>2018-05-17T15:31:45Z</time>
      </trkpt>
      <trkpt lat="45.67109" lon="6.76385">
        <ele>1437</ele>
        <time>2018-05-17T15:32:45Z</time>
      </trkpt>
      <trkpt lat="45.67103" lon="6.76367">
        <ele>1435</ele>
        <time>2018-05-17T15:33:45Z</time>
      </trkpt>
      <trkpt lat="45.67102" lon="6.76352">
        <ele>1433</ele>
        <time>2018-05-17T15:34:45Z</time>
      </trkpt>
      <trkpt lat="45.67105" lon="6.76332">
        <ele>1432</ele>
        <time>2018-05-17T15:35:45Z</time>
      </trkpt>
      <trkpt lat="45.67113" lon="6.76307">
        <ele>1438</ele>
        <time>2018-05-17T15:36:45Z</time>
      </trkpt>
      <trkpt lat="45.6712" lon="6.76281">
        <ele>1441</ele>
        <time>2018-05-17T15:37:45Z</time>
      </trkpt>
      <trkpt lat="45.67122" lon="6.76253">
        <ele>1441</ele>
        <time>2018-05-17T15:38:45Z</time>
      </trkpt>
      <trkpt lat="45.67125" lon="6.76176">
        <ele>1447</ele>
        <time>2018-05-17T15:39:45Z</time>
      </trkpt>
      <trkpt lat="45.67123" lon="6.76153">
        <ele>1453</ele>
        <time>2018-05-17T15:40:45Z</time>
      </trkpt>
      <trkpt lat="45.67122" lon="6.76094">
        <ele>1456</ele>
        <time>2018-05-17T15:41:45Z</time>
      </trkpt>
      <trkpt lat="45.6712" lon="6.76075">
        <ele>1463</ele>
        <time>2018-05-17T15:42:45Z</time>
      </trkpt>
      <trkpt lat="45.67115" lon="6.76061">
        <ele>1462</ele>
        <time>2018-05-17T15:43:45Z</time>
      </trkpt>
      <trkpt lat="45.67108" lon="6.76048">
        <ele>1462</ele>
        <time>2018-05-17T15:44:45Z</time>
      </trkpt>
      <trkpt lat="45.67104" lon="6.76036">
        <ele>1463</ele>
        <time>2018-05-17T15:45:45Z</time>
      </trkpt>
      <trkpt lat="45.67104" lon="6.76019">
        <ele>1463</ele>
        <time>2018-05-17T15:46:45Z</time>
      </trkpt>
      <trkpt lat="45.67105" lon="6.76012">
        <ele>1463</ele>
        <time>2018-05-17T15:47:45Z</time>
      </trkpt>
      <trkpt lat="45.67105" lon="6.76">
        <ele>1469</ele>
        <time>2018-05-17T15:48:45Z</time>
      </trkpt>
      <trkpt lat="45.67101" lon="6.75987">
        <ele>1469</ele>
        <time>2018-05-17T15:49:45Z</time>
      </trkpt>
      <trkpt lat="45.67094" lon="6.75974">
        <ele>1471</ele>
        <time>2018-05-17T15:50:45Z</time>
      </trkpt>
      <trkpt lat="45.67087" lon="6.75962">
        <ele>1473</ele>
        <time>2018-05-17T15:51:45Z</time>
      </trkpt>
      <trkpt lat="45.67079" lon="6.75953">
        <ele>1451</ele>
        <time>2018-05-17T15:52:45Z</time>
      </trkpt>
      <trkpt lat="45.67063" lon="6.75938">
        <ele>1451</ele>
        <time>2018-05-17T15:53:45Z</time>
      </trkpt>
      <trkpt lat="45.67051" lon="6.75923">
        <ele>1449</ele>
        <time>2018-05-17T15:54:45Z</time>
      </trkpt>
      <trkpt lat="45.67046" lon="6.75915">
        <ele>1454</ele>
        <time>2018-05-17T15:55:45Z</time>
      </trkpt>
      <trkpt lat="45.67043" lon="6.75903">
        <ele>1453</ele>
        <time>2018-05-17T15:56:45Z</time>
      </trkpt>
      <trkpt lat="45.67043" lon="6.75888">
        <ele>1454</ele>
        <time>2018-05-17T15:57:45Z</time>
      </trkpt>
      <trkpt lat="45.67051" lon="6.75874">
        <ele>1456</ele>
        <time>2018-05-17T15:58:45Z</time>
      </trkpt>
      <trkpt lat="45.67059" lon="6.75864">
        <ele>1457</ele>
        <time>2018-05-17T15:59:45Z</time>
      </trkpt>
      <trkpt lat="45.67078" lon="6.75826">
        <ele>1466</ele>
        <time>2018-05-17T16:00:45Z</time>
      </trkpt>
      <trkpt lat="45.67095" lon="6.75786">
        <ele>1470</ele>
        <time>2018-05-17T16:01:45Z</time>
      </trkpt>
      <trkpt lat="45.67111" lon="6.75756">
        <ele>1470</ele>
        <time>2018-05-17T16:02:45Z</time>
      </trkpt>
      <trkpt lat="45.67121" lon="6.75747">
        <ele>1469</ele>
        <time>2018-05-17T16:03:45Z</time>
      </trkpt>
      <trkpt lat="45.67129" lon="6.75743">
        <ele>1469</ele>
        <time>2018-05-17T16:04:45Z</time>
      </trkpt>
      <trkpt lat="45.67137" lon="6.75744">
        <ele>1470</ele>
        <time>2018-05-17T16:05:45Z</time>
      </trkpt>
      <trkpt lat="45.6715" lon="6.75752">
        <ele>1473</ele>
        <time>2018-05-17T16:06:45Z</time>
      </trkpt>
      <trkpt lat="45.67163" lon="6.75754">
        <ele>1474</ele>
        <time>2018-05-17T16:07:45Z</time>
      </trkpt>
      <trkpt lat="45.67173" lon="6.75754">
        <ele>1478</ele>
        <time>2018-05-17T16:08:45Z</time>
      </trkpt>
      <trkpt lat="45.67182" lon="6.7575">
        <ele>1481</ele>
        <time>2018-05-17T16:09:45Z</time>
      </trkpt>
      <trkpt lat="45.67199" lon="6.75741">
        <ele>1478</ele>
        <time>2018-05-17T16:10:45Z</time>
      </trkpt>
      <trkpt lat="45.67217" lon="6.7573">
        <ele>1480</ele>
        <time>2018-05-17T16:11:45Z</time>
      </trkpt>
      <trkpt lat="45.67234" lon="6.75716">
        <ele>1481</ele>
        <time>2018-05-17T16:12:45Z</time>
      </trkpt>
      <trkpt lat="45.67246" lon="6.75701">
        <ele>1480</ele>
        <time>2018-05-17T16:13:45Z</time>
      </trkpt>
      <trkpt lat="45.67265" lon="6.7567">
        <ele>1489</ele>
        <time>2018-05-17T16:14:45Z</time>
      </trkpt>
      <trkpt lat="45.67288" lon="6.75644">
        <ele>1485</ele>
        <time>2018-05-17T16:15:45Z</time>
      </trkpt>
      <trkpt lat="45.67297" lon="6.75628">
        <ele>1485</ele>
        <time>2018-05-17T16:16:45Z</time>
      </trkpt>
      <trkpt lat="45.67307" lon="6.75596">
        <ele>1484</ele>
        <time>2018-05-17T16:17:45Z</time>
      </trkpt>
      <trkpt lat="45.67316" lon="6.75556">
        <ele>1476</ele>
        <time>2018-05-17T16:18:45Z</time>
      </trkpt>
      <trkpt lat="45.67325" lon="6.7553">
        <ele>1474</ele>
        <time>2018-05-17T16:19:45Z</time>
      </trkpt>
      <trkpt lat="45.67335" lon="6.75514">
        <ele>1482</ele>
        <time>2018-05-17T16:20:45Z</time>
      </trkpt>
      <trkpt lat="45.67355" lon="6.7549">
        <ele>1480</ele>
        <time>2018-05-17T16:21:45Z</time>
      </trkpt>
      <trkpt lat="45.67378" lon="6.75462">
        <ele>1484</ele>
        <time>2018-05-17T16:22:45Z</time>
      </trkpt>
      <trkpt lat="45.67392" lon="6.75434">
        <ele>1486</ele>
        <time>2018-05-17T16:23:45Z</time>
      </trkpt>
      <trkpt lat="45.67404" lon="6.75401">
        <ele>1484</ele>
        <time>2018-05-17T16:24:45Z</time>
      </trkpt>
      <trkpt lat="45.67412" lon="6.75375">
        <ele>1480</ele>
        <time>2018-05-17T16:25:45Z</time>
      </trkpt>
      <trkpt lat="45.67415" lon="6.75353">
        <ele>1480</ele>
        <time>2018-05-17T16:26:45Z</time>
      </trkpt>
      <trkpt lat="45.67415" lon="6.75322">
        <ele>1478</ele>
        <time>2018-05-17T16:27:45Z</time>
      </trkpt>
      <trkpt lat="45.67411" lon="6.75295">
        <ele>1476</ele>
        <time>2018-05-17T16:28:45Z</time>
      </trkpt>
      <trkpt lat="45.67409" lon="6.75259">
        <ele>1476</ele>
        <time>2018-05-17T16:29:45Z</time>
      </trkpt>
      <trkpt lat="45.67408" lon="6.75223">
        <ele>1475</ele>
        <time>2018-05-17T16:30:45Z</time>
      </trkpt>
      <trkpt lat="45.6741" lon="6.7519">
        <ele>1475</ele>
        <time>2018-05-17T16:31:45Z</time>
      </trkpt>
      <trkpt lat="45.67414" lon="6.75169">
        <ele>1478</ele>
        <time>2018-05-17T16:32:45Z</time>
      </trkpt>
      <trkpt lat="45.67419" lon="6.75157">
        <ele>1482</ele>
        <time>2018-05-17T16:33:45Z</time>
      </trkpt>
      <trkpt lat="45.67428" lon="6.75138">
        <ele>1484</ele>
        <time>2018-05-17T16:34:45Z</time>
      </trkpt>
      <trkpt lat="45.67441" lon="6.75119">
        <ele>1484</ele>
        <time>2018-05-17T16:35:45Z</time>
      </trkpt>
      <trkpt lat="45.67459" lon="6.75093">
        <ele>1485</ele>
        <time>2018-05-17T16:36:45Z</time>
      </trkpt>
      <trkpt lat="45.67472" lon="6.75075">
        <ele>1482</ele>
        <time>2018-05-17T16:37:45Z</time>
      </trkpt>
      <trkpt lat="45.67489" lon="6.75054">
        <ele>1483</ele>
        <time>2018-05-17T16:38:45Z</time>
      </trkpt>
      <trkpt lat="45.67506" lon="6.75037">
        <ele>1495</ele>
        <time>2018-05-17T16:39:45Z</time>
      </trkpt>
      <trkpt lat="45.67524" lon="6.75017">
        <ele>1495</ele>
        <time>2018-05-17T16:40:45Z</time>
      </trkpt>
      <trkpt lat="45.67546" lon="6.7498">
        <ele>1494</ele>
        <time>2018-05-17T16:41:45Z</time>
      </trkpt>
      <trkpt lat="45.67554" lon="6.74958">
        <ele>1494</ele>
        <time>2018-05-17T16:42:45Z</time>
      </trkpt>
      <trkpt lat="45.6756" lon="6.74931">
        <ele>1495</ele>
        <time>2018-05-17T16:43:45Z</time>
      </trkpt>
      <trkpt lat="45.67564" lon="6.74899">
        <ele>1494</ele>
        <time>2018-05-17T16:44:45Z</time>
      </trkpt>
      <trkpt lat="45.67565" lon="6.74867">
        <ele>1493</ele>
        <time>2018-05-17T16:45:45Z</time>
      </trkpt>
      <trkpt lat="45.67568" lon="6.74851">
        <ele>1493</ele>
        <time>2018-05-17T16:46:45Z</time>
      </trkpt>
      <trkpt lat="45.67569" lon="6.74842">
        <ele>1493</ele>
        <time>2018-05-17T16:47:45Z</time>
      </trkpt>
      <trkpt lat="45.67573" lon="6.74827">
        <ele>1494</ele>
        <time>2018-05-17T16:48:45Z</time>
      </trkpt>
      <trkpt lat="45.67583" lon="6.74806">
        <ele>1493</ele>
        <time>2018-05-17T16:49:45Z</time>
      </trkpt>
      <trkpt lat="45.67596" lon="6.74775">
        <ele>1498</ele>
        <time>2018-05-17T16:50:45Z</time>
      </trkpt>
      <trkpt lat="45.67605" lon="6.74746">
        <ele>1494</ele>
        <time>2018-05-17T16:51:45Z</time>
      </trkpt>
      <trkpt lat="45.67616" lon="6.74722">
        <ele>1497</ele>
        <time>2018-05-17T16:52:45Z</time>
      </trkpt>
      <trkpt lat="45.67625" lon="6.74709">
        <ele>1498</ele>
        <time>2018-05-17T16:53:45Z</time>
      </trkpt>
      <trkpt lat="45.67631" lon="6.747">
        <ele>1498</ele>
        <time>2018-05-17T16:54:45Z</time>
      </trkpt>
      <trkpt lat="45.67637" lon="6.74693">
        <ele>1498</ele>
        <time>2018-05-17T16:55:45Z</time>
      </trkpt>
      <trkpt lat="45.67664" lon="6.74677">
        <ele>1498</ele>
        <time>2018-05-17T16:56:45Z</time>
      </trkpt>
      <trkpt lat="45.67675" lon="6.74671">
        <ele>1504</ele>
        <time>2018-05-17T16:57:45Z</time>
      </trkpt>
      <trkpt lat="45.67683" lon="6.74665">
        <ele>1501</ele>
        <time>2018-05-17T16:58:45Z</time>
      </trkpt>
      <trkpt lat="45.67704" lon="6.74641">
        <ele>1503</ele>
        <time>2018-05-17T16:59:45Z</time>
      </trkpt>
      <trkpt lat="45.67718" lon="6.74619">
        <ele>1503</ele>
        <time>2018-05-17T17:00:45Z</time>
      </trkpt>
      <trkpt lat="45.67724" lon="6.74607">
        <ele>1502</ele>
        <time>2018-05-17T17:01:45Z</time>
      </trkpt>
      <trkpt lat="45.67758" lon="6.74516">
        <ele>1502</ele>
        <time>2018-05-17T17:02:45Z</time>
      </trkpt>
      <trkpt lat="45.67768" lon="6.74491">
        <ele>1500</ele>
        <time>2018-05-17T17:03:45Z</time>
      </trkpt>
      <trkpt lat="45.67777" lon="6.74467">
        <ele>1503</ele>
        <time>2018-05-17T17:04:45Z</time>
      </trkpt>
      <trkpt lat="45.67809" lon="6.7438">
        <ele>1509</ele>
        <time>2018-05-17T17:05:45Z</time>
      </trkpt>
      <trkpt lat="45.67819" lon="6.74358">
        <ele>1509</ele>
        <time>2018-05-17T17:06:45Z</time>
      </trkpt>
      <trkpt lat="45.67829" lon="6.74342">
        <ele>1508</ele>
        <time>2018-05-17T17:07:45Z</time>
      </trkpt>
      <trkpt lat="45.67837" lon="6.74326">
        <ele>1509</ele>
        <time>2018-05-17T17:08:45Z</time>
      </trkpt>
      <trkpt lat="45.67848" lon="6.74309">
        <ele>1513</ele>
        <time>2018-05-17T17:09:45Z</time>
      </trkpt>
      <trkpt lat="45.6786" lon="6.74289">
        <ele>1515</ele>
        <time>2018-05-17T17:10:45Z</time>
      </trkpt>
      <trkpt lat="45.67873" lon="6.74272">
        <ele>1516</ele>
        <time>2018-05-17T17:11:45Z</time>
      </trkpt>
      <trkpt lat="45.67888" lon="6.74256">
        <ele>1516</ele>
        <time>2018-05-17T17:12:45Z</time>
      </trkpt>
      <trkpt lat="45.679" lon="6.74242">
        <ele>1524</ele>
        <time>2018-05-17T17:13:45Z</time>
      </trkpt>
      <trkpt lat="45.67924" lon="6.74216">
        <ele>1521</ele>
        <time>2018-05-17T17:14:45Z</time>
      </trkpt>
      <trkpt lat="45.6793" lon="6.74205">
        <ele>1522</ele>
        <time>2018-05-17T17:15:45Z</time>
      </trkpt>
      <trkpt lat="45.6794" lon="6.74192">
        <ele>1522</ele>
        <time>2018-05-17T17:16:45Z</time>
      </trkpt>
      <trkpt lat="45.67953" lon="6.74178">
        <ele>1522</ele>
        <time>2018-05-17T17:17:45Z</time>
      </trkpt>
      <trkpt lat="45.67964" lon="6.74162">
        <ele>1527</ele>
        <time>2018-05-17T17:18:45Z</time>
      </trkpt>
      <trkpt lat="45.67978" lon="6.74147">
        <ele>1526</ele>
        <time>2018-05-17T17:19:45Z</time>
      </trkpt>
      <trkpt lat="45.68002" lon="6.74118">
        <ele>1525</ele>
        <time>2018-05-17T17:20:45Z</time>
      </trkpt>
      <trkpt lat="45.68018" lon="6.74102">
        <ele>1526</ele>
        <time>2018-05-17T17:21:45Z</time>
      </trkpt>
      <trkpt lat="45.68031" lon="6.74089">
        <ele>1526</ele>
        <time>2018-05-17T17:22:45Z</time>
      </trkpt>
      <trkpt lat="45.68045" lon="6.74073">
        <ele>1532</ele>
        <time>2018-05-17T17:23:45Z</time>
      </trkpt>
      <trkpt lat="45.68075" lon="6.74043">
        <ele>1533</ele>
        <time>2018-05-17T17:24:45Z</time>
      </trkpt>
      <trkpt lat="45.68101" lon="6.74017">
        <ele>1533</ele>
        <time>2018-05-17T17:25:45Z</time>
      </trkpt>
      <trkpt lat="45.68112" lon="6.74002">
        <ele>1533</ele>
        <time>2018-05-17T17:26:45Z</time>
      </trkpt>
      <trkpt lat="45.68121" lon="6.73988">
        <ele>1540</ele>
        <time>2018-05-17T17:27:45Z</time>
      </trkpt>
      <trkpt lat="45.6814" lon="6.73976">
        <ele>1539</ele>
        <time>2018-05-17T17:28:45Z</time>
      </trkpt>
      <trkpt lat="45.68143" lon="6.73974">
        <ele>1539</ele>
        <time>2018-05-17T17:29:45Z</time>
      </trkpt>
      <trkpt lat="45.68145" lon="6.73973">
        <ele>1539</ele>
        <time>2018-05-17T17:30:45Z</time>
      </trkpt>
      <trkpt lat="45.6815" lon="6.73972">
        <ele>1539</ele>
        <time>2018-05-17T17:31:45Z</time>
      </trkpt>
      <trkpt lat="45.68158" lon="6.73969">
        <ele>1539</ele>
        <time>2018-05-17T17:32:45Z</time>
      </trkpt>
      <trkpt lat="45.68193" lon="6.73952">
        <ele>1534</ele>
        <time>2018-05-17T17:33:45Z</time>
      </trkpt>
      <trkpt lat="45.68204" lon="6.73945">
        <ele>1534</ele>
        <time>2018-05-17T17:34:45Z</time>
      </trkpt>
      <trkpt lat="45.68215" lon="6.73935">
        <ele>1534</ele>
        <time>2018-05-17T17:35:45Z</time>
      </trkpt>
      <trkpt lat="45.68224" lon="6.7392">
        <ele>1534</ele>
        <time>2018-05-17T17:36:45Z</time>
      </trkpt>
      <trkpt lat="45.6824" lon="6.7389">
        <ele>1541</ele>
        <time>2018-05-17T17:37:45Z</time>
      </trkpt>
      <trkpt lat="45.68259" lon="6.73859">
        <ele>1537</ele>
        <time>2018-05-17T17:38:45Z</time>
      </trkpt>
      <trkpt lat="45.68275" lon="6.73828">
        <ele>1543</ele>
        <time>2018-05-17T17:39:45Z</time>
      </trkpt>
      <trkpt lat="45.683" lon="6.73786">
        <ele>1542</ele>
        <time>2018-05-17T17:40:45Z</time>
      </trkpt>
      <trkpt lat="45.68311" lon="6.73774">
        <ele>1542</ele>
        <time>2018-05-17T17:41:45Z</time>
      </trkpt>
      <trkpt lat="45.68322" lon="6.73766">
        <ele>1541</ele>
        <time>2018-05-17T17:42:45Z</time>
      </trkpt>
      <trkpt lat="45.68333" lon="6.73759">
        <ele>1541</ele>
        <time>2018-05-17T17:43:45Z</time>
      </trkpt>
      <trkpt lat="45.68358" lon="6.73748">
        <ele>1543</ele>
        <time>2018-05-17T17:44:45Z</time>
      </trkpt>
      <trkpt lat="45.68371" lon="6.73745">
        <ele>1543</ele>
        <time>2018-05-17T17:45:45Z</time>
      </trkpt>
      <trkpt lat="45.68395" lon="6.73737">
        <ele>1542</ele>
        <time>2018-05-17T17:46:45Z</time>
      </trkpt>
      <trkpt lat="45.68408" lon="6.73734">
        <ele>1541</ele>
        <time>2018-05-17T17:47:45Z</time>
      </trkpt>
      <trkpt lat="45.68434" lon="6.73729">
        <ele>1541</ele>
        <time>2018-05-17T17:48:45Z</time>
      </trkpt>
      <trkpt lat="45.68446" lon="6.73725">
        <ele>1541</ele>
        <time>2018-05-17T17:49:45Z</time>
      </trkpt>
      <trkpt lat="45.68459" lon="6.73718">
        <ele>1541</ele>
        <time>2018-05-17T17:50:45Z</time>
      </trkpt>
      <trkpt lat="45.68498" lon="6.73691">
        <ele>1543</ele>
        <time>2018-05-17T17:51:45Z</time>
      </trkpt>
      <trkpt lat="45.68514" lon="6.73671">
        <ele>1541</ele>
        <time>2018-05-17T17:52:45Z</time>
      </trkpt>
      <trkpt lat="45.68529" lon="6.7365">
        <ele>1545</ele>
        <time>2018-05-17T17:53:45Z</time>
      </trkpt>
      <trkpt lat="45.68546" lon="6.73617">
        <ele>1546</ele>
        <time>2018-05-17T17:54:45Z</time>
      </trkpt>
      <trkpt lat="45.68568" lon="6.73567">
        <ele>1550</ele>
        <time>2018-05-17T17:55:45Z</time>
      </trkpt>
      <trkpt lat="45.68575" lon="6.7355">
        <ele>1551</ele>
        <time>2018-05-17T17:56:45Z</time>
      </trkpt>
      <trkpt lat="45.6858" lon="6.73533">
        <ele>1551</ele>
        <time>2018-05-17T17:57:45Z</time>
      </trkpt>
      <trkpt lat="45.68583" lon="6.73516">
        <ele>1551</ele>
        <time>2018-05-17T17:58:45Z</time>
      </trkpt>
      <trkpt lat="45.68586" lon="6.73418">
        <ele>1551</ele>
        <time>2018-05-17T17:59:45Z</time>
      </trkpt>
      <trkpt lat="45.68586" lon="6.73412">
        <ele>1553</ele>
        <time>2018-05-17T18:00:45Z</time>
      </trkpt>
      <trkpt lat="45.68587" lon="6.73411">
        <ele>1553</ele>
        <time>2018-05-17T18:01:45Z</time>
      </trkpt>
      <trkpt lat="45.68587" lon="6.73403">
        <ele>1554</ele>
        <time>2018-05-17T18:02:45Z</time>
      </trkpt>
      <trkpt lat="45.68587" lon="6.73398">
        <ele>1554</ele>
        <time>2018-05-17T18:03:45Z</time>
      </trkpt>
      <trkpt lat="45.6859" lon="6.73386">
        <ele>1556</ele>
        <time>2018-05-17T18:04:45Z</time>
      </trkpt>
      <trkpt lat="45.68595" lon="6.73371">
        <ele>1558</ele>
        <time>2018-05-17T18:05:45Z</time>
      </trkpt>
      <trkpt lat="45.68601" lon="6.73355">
        <ele>1560</ele>
        <time>2018-05-17T18:06:45Z</time>
      </trkpt>
      <trkpt lat="45.68608" lon="6.73343">
        <ele>1561</ele>
        <time>2018-05-17T18:07:45Z</time>
      </trkpt>
      <trkpt lat="45.68618" lon="6.73331">
        <ele>1574</ele>
        <time>2018-05-17T18:08:45Z</time>
      </trkpt>
      <trkpt lat="45.68633" lon="6.73321">
        <ele>1574</ele>
        <time>2018-05-17T18:09:45Z</time>
      </trkpt>
      <trkpt lat="45.68654" lon="6.73311">
        <ele>1572</ele>
        <time>2018-05-17T18:10:45Z</time>
      </trkpt>
      <trkpt lat="45.68683" lon="6.73303">
        <ele>1570</ele>
        <time>2018-05-17T18:11:45Z</time>
      </trkpt>
      <trkpt lat="45.68693" lon="6.733">
        <ele>1571</ele>
        <time>2018-05-17T18:12:45Z</time>
      </trkpt>
      <trkpt lat="45.68721" lon="6.73294">
        <ele>1572</ele>
        <time>2018-05-17T18:13:45Z</time>
      </trkpt>
      <trkpt lat="45.68748" lon="6.73287">
        <ele>1573</ele>
        <time>2018-05-17T18:14:45Z</time>
      </trkpt>
      <trkpt lat="45.68765" lon="6.73281">
        <ele>1576</ele>
        <time>2018-05-17T18:15:45Z</time>
      </trkpt>
      <trkpt lat="45.68775" lon="6.73278">
        <ele>1576</ele>
        <time>2018-05-17T18:16:45Z</time>
      </trkpt>
      <trkpt lat="45.68801" lon="6.73277">
        <ele>1577</ele>
        <time>2018-05-17T18:17:45Z</time>
      </trkpt>
      <trkpt lat="45.68814" lon="6.73278">
        <ele>1578</ele>
        <time>2018-05-17T18:18:45Z</time>
      </trkpt>
      <trkpt lat="45.68829" lon="6.73281">
        <ele>1578</ele>
        <time>2018-05-17T18:19:45Z</time>
      </trkpt>
      <trkpt lat="45.6888" lon="6.73302">
        <ele>1584</ele>
        <time>2018-05-17T18:20:45Z</time>
      </trkpt>
      <trkpt lat="45.68894" lon="6.73304">
        <ele>1584</ele>
        <time>2018-05-17T18:21:45Z</time>
      </trkpt>
      <trkpt lat="45.68919" lon="6.73304">
        <ele>1587</ele>
        <time>2018-05-17T18:22:45Z</time>
      </trkpt>
      <trkpt lat="45.68932" lon="6.73303">
        <ele>1587</ele>
        <time>2018-05-17T18:23:45Z</time>
      </trkpt>
      <trkpt lat="45.68947" lon="6.73298">
        <ele>1589</ele>
        <time>2018-05-17T18:24:45Z</time>
      </trkpt>
      <trkpt lat="45.68959" lon="6.73293">
        <ele>1590</ele>
        <time>2018-05-17T18:25:45Z</time>
      </trkpt>
      <trkpt lat="45.68998" lon="6.73284">
        <ele>1591</ele>
        <time>2018-05-17T18:26:45Z</time>
      </trkpt>
      <trkpt lat="45.69011" lon="6.73284">
        <ele>1590</ele>
        <time>2018-05-17T18:27:45Z</time>
      </trkpt>
      <trkpt lat="45.69023" lon="6.73283">
        <ele>1590</ele>
        <time>2018-05-17T18:28:45Z</time>
      </trkpt>
      <trkpt lat="45.69035" lon="6.73278">
        <ele>1591</ele>
        <time>2018-05-17T18:29:45Z</time>
      </trkpt>
      <trkpt lat="45.69046" lon="6.73272">
        <ele>1592</ele>
        <time>2018-05-17T18:30:45Z</time>
      </trkpt>
      <trkpt lat="45.69072" lon="6.73265">
        <ele>1596</ele>
        <time>2018-05-17T18:31:45Z</time>
      </trkpt>
      <trkpt lat="45.69109" lon="6.73259">
        <ele>1597</ele>
        <time>2018-05-17T18:32:45Z</time>
      </trkpt>
      <trkpt lat="45.69144" lon="6.73257">
        <ele>1598</ele>
        <time>2018-05-17T18:33:45Z</time>
      </trkpt>
      <trkpt lat="45.69171" lon="6.73254">
        <ele>1605</ele>
        <time>2018-05-17T18:34:45Z</time>
      </trkpt>
      <trkpt lat="45.69244" lon="6.73235">
        <ele>1620</ele>
        <time>2018-05-17T18:35:45Z</time>
      </trkpt>
      <trkpt lat="45.69266" lon="6.73232">
        <ele>1616</ele>
        <time>2018-05-17T18:36:45Z</time>
      </trkpt>
      <trkpt lat="45.69282" lon="6.73226">
        <ele>1617</ele>
        <time>2018-05-17T18:37:45Z</time>
      </trkpt>
      <trkpt lat="45.69308" lon="6.73212">
        <ele>1617</ele>
        <time>2018-05-17T18:38:45Z</time>
      </trkpt>
      <trkpt lat="45.69325" lon="6.73202">
        <ele>1616</ele>
        <time>2018-05-17T18:39:45Z</time>
      </trkpt>
      <trkpt lat="45.69331" lon="6.73193">
        <ele>1617</ele>
        <time>2018-05-17T18:40:45Z</time>
      </trkpt>
      <trkpt lat="45.69335" lon="6.73184">
        <ele>1604</ele>
        <time>2018-05-17T18:41:45Z</time>
      </trkpt>
      <trkpt lat="45.69337" lon="6.73173">
        <ele>1610</ele>
        <time>2018-05-17T18:42:45Z</time>
      </trkpt>
      <trkpt lat="45.69336" lon="6.73158">
        <ele>1613</ele>
        <time>2018-05-17T18:43:45Z</time>
      </trkpt>
      <trkpt lat="45.69331" lon="6.73132">
        <ele>1638</ele>
        <time>2018-05-17T18:44:45Z</time>
      </trkpt>
      <trkpt lat="45.6933" lon="6.73112">
        <ele>1639</ele>
        <time>2018-05-17T18:45:45Z</time>
      </trkpt>
      <trkpt lat="45.69331" lon="6.73086">
        <ele>1631</ele>
        <time>2018-05-17T18:46:45Z</time>
      </trkpt>
      <trkpt lat="45.69337" lon="6.73056">
        <ele>1623</ele>
        <time>2018-05-17T18:47:45Z</time>
      </trkpt>
      <trkpt lat="45.69345" lon="6.73014">
        <ele>1628</ele>
        <time>2018-05-17T18:48:45Z</time>
      </trkpt>
      <trkpt lat="45.69352" lon="6.72974">
        <ele>1630</ele>
        <time>2018-05-17T18:49:45Z</time>
      </trkpt>
      <trkpt lat="45.6936" lon="6.72901">
        <ele>1635</ele>
        <time>2018-05-17T18:50:45Z</time>
      </trkpt>
      <trkpt lat="45.69366" lon="6.72852">
        <ele>1635</ele>
        <time>2018-05-17T18:51:45Z</time>
      </trkpt>
      <trkpt lat="45.69376" lon="6.72794">
        <ele>1642</ele>
        <time>2018-05-17T18:52:45Z</time>
      </trkpt>
      <trkpt lat="45.6939" lon="6.72725">
        <ele>1652</ele>
        <time>2018-05-17T18:53:45Z</time>
      </trkpt>
      <trkpt lat="45.69395" lon="6.72703">
        <ele>1654</ele>
        <time>2018-05-17T18:54:45Z</time>
      </trkpt>
      <trkpt lat="45.69396" lon="6.72697">
        <ele>1654</ele>
        <time>2018-05-17T18:55:45Z</time>
      </trkpt>
      <trkpt lat="45.694" lon="6.72665">
        <ele>1658</ele>
        <time>2018-05-17T18:56:45Z</time>
      </trkpt>
      <trkpt lat="45.69403" lon="6.72617">
        <ele>1661</ele>
        <time>2018-05-17T18:57:45Z</time>
      </trkpt>
      <trkpt lat="45.69404" lon="6.72597">
        <ele>1661</ele>
        <time>2018-05-17T18:58:45Z</time>
      </trkpt>
      <trkpt lat="45.69403" lon="6.72568">
        <ele>1665</ele>
        <time>2018-05-17T18:59:45Z</time>
      </trkpt>
      <trkpt lat="45.69398" lon="6.72504">
        <ele>1666</ele>
        <time>2018-05-17T19:00:45Z</time>
      </trkpt>
      <trkpt lat="45.69392" lon="6.72445">
        <ele>1676</ele>
        <time>2018-05-17T19:01:45Z</time>
      </trkpt>
      <trkpt lat="45.69387" lon="6.72409">
        <ele>1681</ele>
        <time>2018-05-17T19:02:45Z</time>
      </trkpt>
      <trkpt lat="45.69386" lon="6.72384">
        <ele>1683</ele>
        <time>2018-05-17T19:03:45Z</time>
      </trkpt>
      <trkpt lat="45.69387" lon="6.72366">
        <ele>1683</ele>
        <time>2018-05-17T19:04:45Z</time>
      </trkpt>
      <trkpt lat="45.69389" lon="6.72353">
        <ele>1683</ele>
        <time>2018-05-17T19:05:45Z</time>
      </trkpt>
      <trkpt lat="45.69393" lon="6.72337">
        <ele>1682</ele>
        <time>2018-05-17T19:06:45Z</time>
      </trkpt>
      <trkpt lat="45.69401" lon="6.7232">
        <ele>1685</ele>
        <time>2018-05-17T19:07:45Z</time>
      </trkpt>
      <trkpt lat="45.69412" lon="6.72295">
        <ele>1688</ele>
        <time>2018-05-17T19:08:45Z</time>
      </trkpt>
      <trkpt lat="45.69415" lon="6.72288">
        <ele>1689</ele>
        <time>2018-05-17T19:09:45Z</time>
      </trkpt>
      <trkpt lat="45.69418" lon="6.72279">
        <ele>1687</ele>
        <time>2018-05-17T19:10:45Z</time>
      </trkpt>
      <trkpt lat="45.69418" lon="6.72278">
        <ele>1687</ele>
        <time>2018-05-17T19:11:45Z</time>
      </trkpt>
      <trkpt lat="45.69422" lon="6.72269">
        <ele>1688</ele>
        <time>2018-05-17T19:12:45Z</time>
      </trkpt>
      <trkpt lat="45.69428" lon="6.72254">
        <ele>1688</ele>
        <time>2018-05-17T19:13:45Z</time>
      </trkpt>
      <trkpt lat="45.69435" lon="6.72243">
        <ele>1696</ele>
        <time>2018-05-17T19:14:45Z</time>
      </trkpt>
      <trkpt lat="45.6945" lon="6.72223">
        <ele>1700</ele>
        <time>2018-05-17T19:15:45Z</time>
      </trkpt>
      <trkpt lat="45.6946" lon="6.72213">
        <ele>1702</ele>
        <time>2018-05-17T19:16:45Z</time>
      </trkpt>
      <trkpt lat="45.69469" lon="6.72207">
        <ele>1703</ele>
        <time>2018-05-17T19:17:45Z</time>
      </trkpt>
      <trkpt lat="45.6947" lon="6.72206">
        <ele>1703</ele>
        <time>2018-05-17T19:18:45Z</time>
      </trkpt>
      <trkpt lat="45.69475" lon="6.72205">
        <ele>1704</ele>
        <time>2018-05-17T19:19:45Z</time>
      </trkpt>
      <trkpt lat="45.69479" lon="6.72205">
        <ele>1704</ele>
        <time>2018-05-17T19:20:45Z</time>
      </trkpt>
      <trkpt lat="45.69489" lon="6.72206">
        <ele>1704</ele>
        <time>2018-05-17T19:21:45Z</time>
      </trkpt>
      <trkpt lat="45.69498" lon="6.72209">
        <ele>1703</ele>
        <time>2018-05-17T19:22:45Z</time>
      </trkpt>
      <trkpt lat="45.69511" lon="6.72227">
        <ele>1710</ele>
        <time>2018-05-17T19:23:45Z</time>
      </trkpt>
      <trkpt lat="45.69518" lon="6.7224">
        <ele>1708</ele>
        <time>2018-05-17T19:24:45Z</time>
      </trkpt>
      <trkpt lat="45.6952" lon="6.72246">
        <ele>1708</ele>
        <time>2018-05-17T19:25:45Z</time>
      </trkpt>
      <trkpt lat="45.69521" lon="6.72251">
        <ele>1703</ele>
        <time>2018-05-17T19:26:45Z</time>
      </trkpt>
      <trkpt lat="45.69523" lon="6.72257">
        <ele>1704</ele>
        <time>2018-05-17T19:27:45Z</time>
      </trkpt>
      <trkpt lat="45.69524" lon="6.72265">
        <ele>1704</ele>
        <time>2018-05-17T19:28:45Z</time>
      </trkpt>
      <trkpt lat="45.69525" lon="6.72274">
        <ele>1705</ele>
        <time>2018-05-17T19:29:45Z</time>
      </trkpt>
      <trkpt lat="45.69528" lon="6.72293">
        <ele>1705</ele>
        <time>2018-05-17T19:30:45Z</time>
      </trkpt>
      <trkpt lat="45.69531" lon="6.7231">
        <ele>1705</ele>
        <time>2018-05-17T19:31:45Z</time>
      </trkpt>
      <trkpt lat="45.69532" lon="6.72326">
        <ele>1704</ele>
        <time>2018-05-17T19:32:45Z</time>
      </trkpt>
      <trkpt lat="45.69532" lon="6.72343">
        <ele>1701</ele>
        <time>2018-05-17T19:33:45Z</time>
      </trkpt>
      <trkpt lat="45.6953" lon="6.72358">
        <ele>1700</ele>
        <time>2018-05-17T19:34:45Z</time>
      </trkpt>
      <trkpt lat="45.69528" lon="6.72371">
        <ele>1700</ele>
        <time>2018-05-17T19:35:45Z</time>
      </trkpt>
      <trkpt lat="45.69525" lon="6.72383">
        <ele>1699</ele>
        <time>2018-05-17T19:36:45Z</time>
      </trkpt>
      <trkpt lat="45.69522" lon="6.72397">
        <ele>1697</ele>
        <time>2018-05-17T19:37:45Z</time>
      </trkpt>
      <trkpt lat="45.69522" lon="6.72404">
        <ele>1696</ele>
        <time>2018-05-17T19:38:45Z</time>
      </trkpt>
      <trkpt lat="45.69521" lon="6.72409">
        <ele>1695</ele>
        <time>2018-05-17T19:39:45Z</time>
      </trkpt>
      <trkpt lat="45.69521" lon="6.72412">
        <ele>1695</ele>
        <time>2018-05-17T19:40:45Z</time>
      </trkpt>
      <trkpt lat="45.69521" lon="6.72416">
        <ele>1695</ele>
        <time>2018-05-17T19:41:45Z</time>
      </trkpt>
      <trkpt lat="45.69521" lon="6.72419">
        <ele>1691</ele>
        <time>2018-05-17T19:42:45Z</time>
      </trkpt>
      <trkpt lat="45.69522" lon="6.72424">
        <ele>1691</ele>
        <time>2018-05-17T19:43:45Z</time>
      </trkpt>
      <trkpt lat="45.69523" lon="6.72429">
        <ele>1691</ele>
        <time>2018-05-17T19:44:45Z</time>
      </trkpt>
      <trkpt lat="45.69524" lon="6.72433">
        <ele>1692</ele>
        <time>2018-05-17T19:45:45Z</time>
      </trkpt>
      <trkpt lat="45.69527" lon="6.7244">
        <ele>1692</ele>
        <time>2018-05-17T19:46:45Z</time>
      </trkpt>
      <trkpt lat="45.69531" lon="6.72449">
        <ele>1693</ele>
        <time>2018-05-17T19:47:45Z</time>
      </trkpt>
      <trkpt lat="45.69538" lon="6.7246">
        <ele>1694</ele>
        <time>2018-05-17T19:48:45Z</time>
      </trkpt>
      <trkpt lat="45.69547" lon="6.72474">
        <ele>1695</ele>
        <time>2018-05-17T19:49:45Z</time>
      </trkpt>
      <trkpt lat="45.69555" lon="6.72489">
        <ele>1697</ele>
        <time>2018-05-17T19:50:45Z</time>
      </trkpt>
      <trkpt lat="45.69571" lon="6.72523">
        <ele>1691</ele>
        <time>2018-05-17T19:51:45Z</time>
      </trkpt>
      <trkpt lat="45.69577" lon="6.72539">
        <ele>1689</ele>
        <time>2018-05-17T19:52:45Z</time>
      </trkpt>
      <trkpt lat="45.69584" lon="6.72558">
        <ele>1705</ele>
        <time>2018-05-17T19:53:45Z</time>
      </trkpt>
      <trkpt lat="45.69595" lon="6.72595">
        <ele>1697</ele>
        <time>2018-05-17T19:54:45Z</time>
      </trkpt>
      <trkpt lat="45.69599" lon="6.72613">
        <ele>1697</ele>
        <time>2018-05-17T19:55:45Z</time>
      </trkpt>
      <trkpt lat="45.69602" lon="6.72625">
        <ele>1697</ele>
        <time>2018-05-17T19:56:45Z</time>
      </trkpt>
      <trkpt lat="45.69604" lon="6.72636">
        <ele>1696</ele>
        <time>2018-05-17T19:57:45Z</time>
      </trkpt>
      <trkpt lat="45.69607" lon="6.72658">
        <ele>1694</ele>
        <time>2018-05-17T19:58:45Z</time>
      </trkpt>
      <trkpt lat="45.69609" lon="6.72668">
        <ele>1687</ele>
        <time>2018-05-17T19:59:45Z</time>
      </trkpt>
      <trkpt lat="45.69611" lon="6.72678">
        <ele>1687</ele>
        <time>2018-05-17T20:00:45Z</time>
      </trkpt>
      <trkpt lat="45.69612" lon="6.72681">
        <ele>1687</ele>
        <time>2018-05-17T20:01:45Z</time>
      </trkpt>
      <trkpt lat="45.69613" lon="6.72683">
        <ele>1687</ele>
        <time>2018-05-17T20:02:45Z</time>
      </trkpt>
      <trkpt lat="45.69614" lon="6.72685">
        <ele>1687</ele>
        <time>2018-05-17T20:03:45Z</time>
      </trkpt>
      <trkpt lat="45.69615" lon="6.72687">
        <ele>1687</ele>
        <time>2018-05-17T20:04:45Z</time>
      </trkpt>
      <trkpt lat="45.69616" lon="6.72689">
        <ele>1687</ele>
        <time>2018-05-17T20:05:45Z</time>
      </trkpt>
      <trkpt lat="45.69618" lon="6.7269">
        <ele>1688</ele>
        <time>2018-05-17T20:06:45Z</time>
      </trkpt>
      <trkpt lat="45.69619" lon="6.72692">
        <ele>1688</ele>
        <time>2018-05-17T20:07:45Z</time>
      </trkpt>
      <trkpt lat="45.69621" lon="6.72692">
        <ele>1688</ele>
        <time>2018-05-17T20:08:45Z</time>
      </trkpt>
      <trkpt lat="45.69622" lon="6.72693">
        <ele>1688</ele>
        <time>2018-05-17T20:09:45Z</time>
      </trkpt>
      <trkpt lat="45.69623" lon="6.72693">
        <ele>1688</ele>
        <time>2018-05-17T20:10:45Z</time>
      </trkpt>
      <trkpt lat="45.69625" lon="6.72693">
        <ele>1688</ele>
        <time>2018-05-17T20:11:45Z</time>
      </trkpt>
      <trkpt lat="45.69626" lon="6.72693">
        <ele>1689</ele>
        <time>2018-05-17T20:12:45Z</time>
      </trkpt>
      <trkpt lat="45.69628" lon="6.72692">
        <ele>1689</ele>
        <time>2018-05-17T20:13:45Z</time>
      </trkpt>
      <trkpt lat="45.69629" lon="6.72691">
        <ele>1689</ele>
        <time>2018-05-17T20:14:45Z</time>
      </trkpt>
      <trkpt lat="45.69631" lon="6.7269">
        <ele>1690</ele>
        <time>2018-05-17T20:15:45Z</time>
      </trkpt>
      <trkpt lat="45.69632" lon="6.72688">
        <ele>1690</ele>
        <time>2018-05-17T20:16:45Z</time>
      </trkpt>
      <trkpt lat="45.69634" lon="6.72687">
        <ele>1691</ele>
        <time>2018-05-17T20:17:45Z</time>
      </trkpt>
      <trkpt lat="45.69635" lon="6.72685">
        <ele>1691</ele>
        <time>2018-05-17T20:18:45Z</time>
      </trkpt>
      <trkpt lat="45.69636" lon="6.72682">
        <ele>1691</ele>
        <time>2018-05-17T20:19:45Z</time>
      </trkpt>
      <trkpt lat="45.69637" lon="6.7268">
        <ele>1692</ele>
        <time>2018-05-17T20:20:45Z</time>
      </trkpt>
      <trkpt lat="45.69638" lon="6.72675">
        <ele>1693</ele>
        <time>2018-05-17T20:21:45Z</time>
      </trkpt>
      <trkpt lat="45.69639" lon="6.72671">
        <ele>1693</ele>
        <time>2018-05-17T20:22:45Z</time>
      </trkpt>
      <trkpt lat="45.6964" lon="6.72668">
        <ele>1694</ele>
        <time>2018-05-17T20:23:45Z</time>
      </trkpt>
      <trkpt lat="45.6964" lon="6.72664">
        <ele>1701</ele>
        <time>2018-05-17T20:24:45Z</time>
      </trkpt>
      <trkpt lat="45.6964" lon="6.72661">
        <ele>1701</ele>
        <time>2018-05-17T20:25:45Z</time>
      </trkpt>
      <trkpt lat="45.6964" lon="6.72656">
        <ele>1701</ele>
        <time>2018-05-17T20:26:45Z</time>
      </trkpt>
      <trkpt lat="45.6964" lon="6.72651">
        <ele>1701</ele>
        <time>2018-05-17T20:27:45Z</time>
      </trkpt>
      <trkpt lat="45.69639" lon="6.72643">
        <ele>1701</ele>
        <time>2018-05-17T20:28:45Z</time>
      </trkpt>
      <trkpt lat="45.69638" lon="6.72633">
        <ele>1701</ele>
        <time>2018-05-17T20:29:45Z</time>
      </trkpt>
      <trkpt lat="45.69637" lon="6.72627">
        <ele>1702</ele>
        <time>2018-05-17T20:30:45Z</time>
      </trkpt>
      <trkpt lat="45.69636" lon="6.72621">
        <ele>1702</ele>
        <time>2018-05-17T20:31:45Z</time>
      </trkpt>
      <trkpt lat="45.69634" lon="6.72615">
        <ele>1702</ele>
        <time>2018-05-17T20:32:45Z</time>
      </trkpt>
      <trkpt lat="45.69625" lon="6.72586">
        <ele>1702</ele>
        <time>2018-05-17T20:33:45Z</time>
      </trkpt>
      <trkpt lat="45.69621" lon="6.72568">
        <ele>1710</ele>
        <time>2018-05-17T20:34:45Z</time>
      </trkpt>
      <trkpt lat="45.6962" lon="6.72562">
        <ele>1710</ele>
        <time>2018-05-17T20:35:45Z</time>
      </trkpt>
      <trkpt lat="45.69619" lon="6.72556">
        <ele>1710</ele>
        <time>2018-05-17T20:36:45Z</time>
      </trkpt>
      <trkpt lat="45.69617" lon="6.72545">
        <ele>1711</ele>
        <time>2018-05-17T20:37:45Z</time>
      </trkpt>
      <trkpt lat="45.69616" lon="6.72531">
        <ele>1712</ele>
        <time>2018-05-17T20:38:45Z</time>
      </trkpt>
      <trkpt lat="45.69615" lon="6.7251">
        <ele>1713</ele>
        <time>2018-05-17T20:39:45Z</time>
      </trkpt>
      <trkpt lat="45.69613" lon="6.72484">
        <ele>1720</ele>
        <time>2018-05-17T20:40:45Z</time>
      </trkpt>
      <trkpt lat="45.69612" lon="6.72455">
        <ele>1722</ele>
        <time>2018-05-17T20:41:45Z</time>
      </trkpt>
      <trkpt lat="45.69614" lon="6.72382">
        <ele>1729</ele>
        <time>2018-05-17T20:42:45Z</time>
      </trkpt>
      <trkpt lat="45.69614" lon="6.72372">
        <ele>1730</ele>
        <time>2018-05-17T20:43:45Z</time>
      </trkpt>
      <trkpt lat="45.69613" lon="6.72365">
        <ele>1730</ele>
        <time>2018-05-17T20:44:45Z</time>
      </trkpt>
      <trkpt lat="45.69612" lon="6.72353">
        <ele>1730</ele>
        <time>2018-05-17T20:45:45Z</time>
      </trkpt>
      <trkpt lat="45.69611" lon="6.72343">
        <ele>1729</ele>
        <time>2018-05-17T20:46:45Z</time>
      </trkpt>
      <trkpt lat="45.6961" lon="6.7234">
        <ele>1729</ele>
        <time>2018-05-17T20:47:45Z</time>
      </trkpt>
      <trkpt lat="45.69609" lon="6.72337">
        <ele>1729</ele>
        <time>2018-05-17T20:48:45Z</time>
      </trkpt>
      <trkpt lat="45.69609" lon="6.72333">
        <ele>1732</ele>
        <time>2018-05-17T20:49:45Z</time>
      </trkpt>
      <trkpt lat="45.69607" lon="6.7233">
        <ele>1731</ele>
        <time>2018-05-17T20:50:45Z</time>
      </trkpt>
      <trkpt lat="45.69606" lon="6.72326">
        <ele>1731</ele>
        <time>2018-05-17T20:51:45Z</time>
      </trkpt>
      <trkpt lat="45.69604" lon="6.72321">
        <ele>1731</ele>
        <time>2018-05-17T20:52:45Z</time>
      </trkpt>
      <trkpt lat="45.69593" lon="6.72297">
        <ele>1732</ele>
        <time>2018-05-17T20:53:45Z</time>
      </trkpt>
      <trkpt lat="45.69591" lon="6.72294">
        <ele>1732</ele>
        <time>2018-05-17T20:54:45Z</time>
      </trkpt>
      <trkpt lat="45.6959" lon="6.72291">
        <ele>1732</ele>
        <time>2018-05-17T20:55:45Z</time>
      </trkpt>
      <trkpt lat="45.69589" lon="6.72289">
        <ele>1732</ele>
        <time>2018-05-17T20:56:45Z</time>
      </trkpt>
      <trkpt lat="45.69588" lon="6.72287">
        <ele>1732</ele>
        <time>2018-05-17T20:57:45Z</time>
      </trkpt>
      <trkpt lat="45.69588" lon="6.72284">
        <ele>1732</ele>
        <time>2018-05-17T20:58:45Z</time>
      </trkpt>
      <trkpt lat="45.69588" lon="6.72281">
        <ele>1732</ele>
        <time>2018-05-17T20:59:45Z</time>
      </trkpt>
      <trkpt lat="45.69588" lon="6.72278">
        <ele>1731</ele>
        <time>2018-05-17T21:00:45Z</time>
      </trkpt>
      <trkpt lat="45.69588" lon="6.72276">
        <ele>1731</ele>
        <time>2018-05-17T21:01:45Z</time>
      </trkpt>
      <trkpt lat="45.69588" lon="6.72274">
        <ele>1731</ele>
        <time>2018-05-17T21:02:45Z</time>
      </trkpt>
      <trkpt lat="45.69589" lon="6.72273">
        <ele>1731</ele>
        <time>2018-05-17T21:03:45Z</time>
      </trkpt>
      <trkpt lat="45.69589" lon="6.72271">
        <ele>1731</ele>
        <time>2018-05-17T21:04:45Z</time>
      </trkpt>
      <trkpt lat="45.6959" lon="6.7227">
        <ele>1731</ele>
        <time>2018-05-17T21:05:45Z</time>
      </trkpt>
      <trkpt lat="45.69591" lon="6.72269">
        <ele>1731</ele>
        <time>2018-05-17T21:06:45Z</time>
      </trkpt>
      <trkpt lat="45.69592" lon="6.72267">
        <ele>1731</ele>
        <time>2018-05-17T21:07:45Z</time>
      </trkpt>
      <trkpt lat="45.69594" lon="6.72266">
        <ele>1731</ele>
        <time>2018-05-17T21:08:45Z</time>
      </trkpt>
      <trkpt lat="45.69595" lon="6.72265">
        <ele>1731</ele>
        <time>2018-05-17T21:09:45Z</time>
      </trkpt>
      <trkpt lat="45.69596" lon="6.72264">
        <ele>1731</ele>
        <time>2018-05-17T21:10:45Z</time>
      </trkpt>
      <trkpt lat="45.69598" lon="6.72264">
        <ele>1731</ele>
        <time>2018-05-17T21:11:45Z</time>
      </trkpt>
      <trkpt lat="45.69599" lon="6.72264">
        <ele>1732</ele>
        <time>2018-05-17T21:12:45Z</time>
      </trkpt>
      <trkpt lat="45.696" lon="6.72264">
        <ele>1732</ele>
        <time>2018-05-17T21:13:45Z</time>
      </trkpt>
      <trkpt lat="45.69602" lon="6.72264">
        <ele>1732</ele>
        <time>2018-05-17T21:14:45Z</time>
      </trkpt>
      <trkpt lat="45.69603" lon="6.72265">
        <ele>1732</ele>
        <time>2018-05-17T21:15:45Z</time>
      </trkpt>
      <trkpt lat="45.69605" lon="6.72267">
        <ele>1733</ele>
        <time>2018-05-17T21:16:45Z</time>
      </trkpt>
      <trkpt lat="45.69606" lon="6.72268">
        <ele>1733</ele>
        <time>2018-05-17T21:17:45Z</time>
      </trkpt>
      <trkpt lat="45.69608" lon="6.7227">
        <ele>1734</ele>
        <time>2018-05-17T21:18:45Z</time>
      </trkpt>
      <trkpt lat="45.69609" lon="6.72272">
        <ele>1734</ele>
        <time>2018-05-17T21:19:45Z</time>
      </trkpt>
      <trkpt lat="45.69626" lon="6.72307">
        <ele>1736</ele>
        <time>2018-05-17T21:20:45Z</time>
      </trkpt>
      <trkpt lat="45.69635" lon="6.72325">
        <ele>1738</ele>
        <time>2018-05-17T21:21:45Z</time>
      </trkpt>
      <trkpt lat="45.69648" lon="6.72352">
        <ele>1738</ele>
        <time>2018-05-17T21:22:45Z</time>
      </trkpt>
      <trkpt lat="45.69662" lon="6.72384">
        <ele>1736</ele>
        <time>2018-05-17T21:23:45Z</time>
      </trkpt>
      <trkpt lat="45.69676" lon="6.72418">
        <ele>1745</ele>
        <time>2018-05-17T21:24:45Z</time>
      </trkpt>
      <trkpt lat="45.69686" lon="6.72441">
        <ele>1747</ele>
        <time>2018-05-17T21:25:45Z</time>
      </trkpt>
      <trkpt lat="45.69692" lon="6.72456">
        <ele>1748</ele>
        <time>2018-05-17T21:26:45Z</time>
      </trkpt>
      <trkpt lat="45.69697" lon="6.72467">
        <ele>1748</ele>
        <time>2018-05-17T21:27:45Z</time>
      </trkpt>
      <trkpt lat="45.69701" lon="6.72478">
        <ele>1748</ele>
        <time>2018-05-17T21:28:45Z</time>
      </trkpt>
      <trkpt lat="45.69705" lon="6.72493">
        <ele>1748</ele>
        <time>2018-05-17T21:29:45Z</time>
      </trkpt>
      <trkpt lat="45.69708" lon="6.725">
        <ele>1748</ele>
        <time>2018-05-17T21:30:45Z</time>
      </trkpt>
      <trkpt lat="45.69711" lon="6.72507">
        <ele>1741</ele>
        <time>2018-05-17T21:31:45Z</time>
      </trkpt>
      <trkpt lat="45.69713" lon="6.72511">
        <ele>1741</ele>
        <time>2018-05-17T21:32:45Z</time>
      </trkpt>
      <trkpt lat="45.69716" lon="6.72515">
        <ele>1741</ele>
        <time>2018-05-17T21:33:45Z</time>
      </trkpt>
      <trkpt lat="45.6972" lon="6.7252">
        <ele>1741</ele>
        <time>2018-05-17T21:34:45Z</time>
      </trkpt>
      <trkpt lat="45.69726" lon="6.72524">
        <ele>1742</ele>
        <time>2018-05-17T21:35:45Z</time>
      </trkpt>
      <trkpt lat="45.69731" lon="6.72527">
        <ele>1742</ele>
        <time>2018-05-17T21:36:45Z</time>
      </trkpt>
      <trkpt lat="45.69735" lon="6.72529">
        <ele>1743</ele>
        <time>2018-05-17T21:37:45Z</time>
      </trkpt>
      <trkpt lat="45.69777" lon="6.72541">
        <ele>1754</ele>
        <time>2018-05-17T21:38:45Z</time>
      </trkpt>
      <trkpt lat="45.6978" lon="6.72542">
        <ele>1754</ele>
        <time>2018-05-17T21:39:45Z</time>
      </trkpt>
      <trkpt lat="45.69784" lon="6.72542">
        <ele>1754</ele>
        <time>2018-05-17T21:40:45Z</time>
      </trkpt>
      <trkpt lat="45.69787" lon="6.72542">
        <ele>1755</ele>
        <time>2018-05-17T21:41:45Z</time>
      </trkpt>
      <trkpt lat="45.69792" lon="6.72541">
        <ele>1755</ele>
        <time>2018-05-17T21:42:45Z</time>
      </trkpt>
      <trkpt lat="45.69796" lon="6.72538">
        <ele>1756</ele>
        <time>2018-05-17T21:43:45Z</time>
      </trkpt>
      <trkpt lat="45.698" lon="6.72535">
        <ele>1756</ele>
        <time>2018-05-17T21:44:45Z</time>
      </trkpt>
      <trkpt lat="45.69804" lon="6.72531">
        <ele>1757</ele>
        <time>2018-05-17T21:45:45Z</time>
      </trkpt>
      <trkpt lat="45.69807" lon="6.72525">
        <ele>1758</ele>
        <time>2018-05-17T21:46:45Z</time>
      </trkpt>
      <trkpt lat="45.69809" lon="6.72518">
        <ele>1759</ele>
        <time>2018-05-17T21:47:45Z</time>
      </trkpt>
      <trkpt lat="45.69811" lon="6.72511">
        <ele>1760</ele>
        <time>2018-05-17T21:48:45Z</time>
      </trkpt>
      <trkpt lat="45.69811" lon="6.72501">
        <ele>1761</ele>
        <time>2018-05-17T21:49:45Z</time>
      </trkpt>
      <trkpt lat="45.6981" lon="6.7249">
        <ele>1768</ele>
        <time>2018-05-17T21:50:45Z</time>
      </trkpt>
      <trkpt lat="45.69806" lon="6.72478">
        <ele>1768</ele>
        <time>2018-05-17T21:51:45Z</time>
      </trkpt>
      <trkpt lat="45.69799" lon="6.72465">
        <ele>1768</ele>
        <time>2018-05-17T21:52:45Z</time>
      </trkpt>
      <trkpt lat="45.69789" lon="6.72451">
        <ele>1768</ele>
        <time>2018-05-17T21:53:45Z</time>
      </trkpt>
      <trkpt lat="45.6978" lon="6.72441">
        <ele>1768</ele>
        <time>2018-05-17T21:54:45Z</time>
      </trkpt>
      <trkpt lat="45.69772" lon="6.72432">
        <ele>1768</ele>
        <time>2018-05-17T21:55:45Z</time>
      </trkpt>
      <trkpt lat="45.69763" lon="6.72423">
        <ele>1767</ele>
        <time>2018-05-17T21:56:45Z</time>
      </trkpt>
      <trkpt lat="45.69753" lon="6.72409">
        <ele>1770</ele>
        <time>2018-05-17T21:57:45Z</time>
      </trkpt>
      <trkpt lat="45.69744" lon="6.72389">
        <ele>1761</ele>
        <time>2018-05-17T21:58:45Z</time>
      </trkpt>
      <trkpt lat="45.6974" lon="6.72375">
        <ele>1761</ele>
        <time>2018-05-17T21:59:45Z</time>
      </trkpt>
      <trkpt lat="45.69739" lon="6.72359">
        <ele>1762</ele>
        <time>2018-05-17T22:00:45Z</time>
      </trkpt>
      <trkpt lat="45.69739" lon="6.72349">
        <ele>1764</ele>
        <time>2018-05-17T22:01:45Z</time>
      </trkpt>
      <trkpt lat="45.69741" lon="6.72339">
        <ele>1766</ele>
        <time>2018-05-17T22:02:45Z</time>
      </trkpt>
      <trkpt lat="45.69746" lon="6.72325">
        <ele>1768</ele>
        <time>2018-05-17T22:03:45Z</time>
      </trkpt>
      <trkpt lat="45.69751" lon="6.72312">
        <ele>1778</ele>
        <time>2018-05-17T22:04:45Z</time>
      </trkpt>
      <trkpt lat="45.69753" lon="6.72306">
        <ele>1779</ele>
        <time>2018-05-17T22:05:45Z</time>
      </trkpt>
      <trkpt lat="45.69763" lon="6.72285">
        <ele>1780</ele>
        <time>2018-05-17T22:06:45Z</time>
      </trkpt>
      <trkpt lat="45.69767" lon="6.72272">
        <ele>1780</ele>
        <time>2018-05-17T22:07:45Z</time>
      </trkpt>
      <trkpt lat="45.69768" lon="6.72263">
        <ele>1779</ele>
        <time>2018-05-17T22:08:45Z</time>
      </trkpt>
      <trkpt lat="45.69769" lon="6.72248">
        <ele>1781</ele>
        <time>2018-05-17T22:09:45Z</time>
      </trkpt>
      <trkpt lat="45.69768" lon="6.72232">
        <ele>1783</ele>
        <time>2018-05-17T22:10:45Z</time>
      </trkpt>
      <trkpt lat="45.69764" lon="6.72216">
        <ele>1784</ele>
        <time>2018-05-17T22:11:45Z</time>
      </trkpt>
      <trkpt lat="45.6976" lon="6.72205">
        <ele>1784</ele>
        <time>2018-05-17T22:12:45Z</time>
      </trkpt>
      <trkpt lat="45.69753" lon="6.72193">
        <ele>1784</ele>
        <time>2018-05-17T22:13:45Z</time>
      </trkpt>
      <trkpt lat="45.69744" lon="6.72185">
        <ele>1771</ele>
        <time>2018-05-17T22:14:45Z</time>
      </trkpt>
      <trkpt lat="45.69735" lon="6.72174">
        <ele>1771</ele>
        <time>2018-05-17T22:15:45Z</time>
      </trkpt>
      <trkpt lat="45.6973" lon="6.72165">
        <ele>1772</ele>
        <time>2018-05-17T22:16:45Z</time>
      </trkpt>
      <trkpt lat="45.69726" lon="6.72152">
        <ele>1771</ele>
        <time>2018-05-17T22:17:45Z</time>
      </trkpt>
      <trkpt lat="45.69725" lon="6.72143">
        <ele>1771</ele>
        <time>2018-05-17T22:18:45Z</time>
      </trkpt>
      <trkpt lat="45.69725" lon="6.72131">
        <ele>1771</ele>
        <time>2018-05-17T22:19:45Z</time>
      </trkpt>
      <trkpt lat="45.69727" lon="6.72117">
        <ele>1772</ele>
        <time>2018-05-17T22:20:45Z</time>
      </trkpt>
      <trkpt lat="45.6973" lon="6.72096">
        <ele>1774</ele>
        <time>2018-05-17T22:21:45Z</time>
      </trkpt>
      <trkpt lat="45.69732" lon="6.72084">
        <ele>1775</ele>
        <time>2018-05-17T22:22:45Z</time>
      </trkpt>
      <trkpt lat="45.69733" lon="6.72072">
        <ele>1777</ele>
        <time>2018-05-17T22:23:45Z</time>
      </trkpt>
      <trkpt lat="45.69735" lon="6.7206">
        <ele>1777</ele>
        <time>2018-05-17T22:24:45Z</time>
      </trkpt>
      <trkpt lat="45.69738" lon="6.72008">
        <ele>1780</ele>
        <time>2018-05-17T22:25:45Z</time>
      </trkpt>
      <trkpt lat="45.69738" lon="6.71974">
        <ele>1787</ele>
        <time>2018-05-17T22:26:45Z</time>
      </trkpt>
      <trkpt lat="45.69734" lon="6.7196">
        <ele>1788</ele>
        <time>2018-05-17T22:27:45Z</time>
      </trkpt>
      <trkpt lat="45.69732" lon="6.71951">
        <ele>1790</ele>
        <time>2018-05-17T22:28:45Z</time>
      </trkpt>
      <trkpt lat="45.69727" lon="6.71943">
        <ele>1790</ele>
        <time>2018-05-17T22:29:45Z</time>
      </trkpt>
      <trkpt lat="45.69721" lon="6.71935">
        <ele>1791</ele>
        <time>2018-05-17T22:30:45Z</time>
      </trkpt>
      <trkpt lat="45.69665" lon="6.71901">
        <ele>1790</ele>
        <time>2018-05-17T22:31:45Z</time>
      </trkpt>
      <trkpt lat="45.69627" lon="6.71876">
        <ele>1793</ele>
        <time>2018-05-17T22:32:45Z</time>
      </trkpt>
      <trkpt lat="45.696" lon="6.71859">
        <ele>1792</ele>
        <time>2018-05-17T22:33:45Z</time>
      </trkpt>
      <trkpt lat="45.69589" lon="6.71847">
        <ele>1792</ele>
        <time>2018-05-17T22:34:45Z</time>
      </trkpt>
      <trkpt lat="45.69581" lon="6.71831">
        <ele>1791</ele>
        <time>2018-05-17T22:35:45Z</time>
      </trkpt>
      <trkpt lat="45.69576" lon="6.71817">
        <ele>1790</ele>
        <time>2018-05-17T22:36:45Z</time>
      </trkpt>
      <trkpt lat="45.69574" lon="6.71804">
        <ele>1790</ele>
        <time>2018-05-17T22:37:45Z</time>
      </trkpt>
      <trkpt lat="45.69571" lon="6.7177">
        <ele>1793</ele>
        <time>2018-05-17T22:38:45Z</time>
      </trkpt>
      <trkpt lat="45.69569" lon="6.71752">
        <ele>1796</ele>
        <time>2018-05-17T22:39:45Z</time>
      </trkpt>
      <trkpt lat="45.69569" lon="6.71736">
        <ele>1799</ele>
        <time>2018-05-17T22:40:45Z</time>
      </trkpt>
      <trkpt lat="45.6957" lon="6.71728">
        <ele>1799</ele>
        <time>2018-05-17T22:41:45Z</time>
      </trkpt>
      <trkpt lat="45.69573" lon="6.71722">
        <ele>1799</ele>
        <time>2018-05-17T22:42:45Z</time>
      </trkpt>
      <trkpt lat="45.69577" lon="6.71714">
        <ele>1799</ele>
        <time>2018-05-17T22:43:45Z</time>
      </trkpt>
      <trkpt lat="45.6958" lon="6.71704">
        <ele>1799</ele>
        <time>2018-05-17T22:44:45Z</time>
      </trkpt>
      <trkpt lat="45.69584" lon="6.71691">
        <ele>1810</ele>
        <time>2018-05-17T22:45:45Z</time>
      </trkpt>
      <trkpt lat="45.69586" lon="6.71683">
        <ele>1809</ele>
        <time>2018-05-17T22:46:45Z</time>
      </trkpt>
      <trkpt lat="45.69587" lon="6.71674">
        <ele>1806</ele>
        <time>2018-05-17T22:47:45Z</time>
      </trkpt>
      <trkpt lat="45.69586" lon="6.71662">
        <ele>1806</ele>
        <time>2018-05-17T22:48:45Z</time>
      </trkpt>
      <trkpt lat="45.69581" lon="6.71651">
        <ele>1806</ele>
        <time>2018-05-17T22:49:45Z</time>
      </trkpt>
      <trkpt lat="45.69573" lon="6.71641">
        <ele>1808</ele>
        <time>2018-05-17T22:50:45Z</time>
      </trkpt>
      <trkpt lat="45.69567" lon="6.71636">
        <ele>1809</ele>
        <time>2018-05-17T22:51:45Z</time>
      </trkpt>
      <trkpt lat="45.69558" lon="6.71634">
        <ele>1809</ele>
        <time>2018-05-17T22:52:45Z</time>
      </trkpt>
      <trkpt lat="45.69545" lon="6.71634">
        <ele>1809</ele>
        <time>2018-05-17T22:53:45Z</time>
      </trkpt>
      <trkpt lat="45.69533" lon="6.71638">
        <ele>1809</ele>
        <time>2018-05-17T22:54:45Z</time>
      </trkpt>
      <trkpt lat="45.6949" lon="6.71663">
        <ele>1804</ele>
        <time>2018-05-17T22:55:45Z</time>
      </trkpt>
      <trkpt lat="45.6948" lon="6.71666">
        <ele>1805</ele>
        <time>2018-05-17T22:56:45Z</time>
      </trkpt>
      <trkpt lat="45.6947" lon="6.71666">
        <ele>1805</ele>
        <time>2018-05-17T22:57:45Z</time>
      </trkpt>
      <trkpt lat="45.69462" lon="6.71662">
        <ele>1805</ele>
        <time>2018-05-17T22:58:45Z</time>
      </trkpt>
      <trkpt lat="45.69451" lon="6.71652">
        <ele>1805</ele>
        <time>2018-05-17T22:59:45Z</time>
      </trkpt>
      <trkpt lat="45.69443" lon="6.71645">
        <ele>1805</ele>
        <time>2018-05-17T23:00:45Z</time>
      </trkpt>
      <trkpt lat="45.69435" lon="6.7163">
        <ele>1805</ele>
        <time>2018-05-17T23:01:45Z</time>
      </trkpt>
      <trkpt lat="45.69431" lon="6.71616">
        <ele>1806</ele>
        <time>2018-05-17T23:02:45Z</time>
      </trkpt>
      <trkpt lat="45.6943" lon="6.71606">
        <ele>1807</ele>
        <time>2018-05-17T23:03:45Z</time>
      </trkpt>
      <trkpt lat="45.69431" lon="6.71588">
        <ele>1807</ele>
        <time>2018-05-17T23:04:45Z</time>
      </trkpt>
      <trkpt lat="45.69434" lon="6.71573">
        <ele>1812</ele>
        <time>2018-05-17T23:05:45Z</time>
      </trkpt>
      <trkpt lat="45.69438" lon="6.71557">
        <ele>1814</ele>
        <time>2018-05-17T23:06:45Z</time>
      </trkpt>
      <trkpt lat="45.69443" lon="6.7154">
        <ele>1816</ele>
        <time>2018-05-17T23:07:45Z</time>
      </trkpt>
      <trkpt lat="45.69445" lon="6.71524">
        <ele>1816</ele>
        <time>2018-05-17T23:08:45Z</time>
      </trkpt>
      <trkpt lat="45.69447" lon="6.71508">
        <ele>1817</ele>
        <time>2018-05-17T23:09:45Z</time>
      </trkpt>
      <trkpt lat="45.69446" lon="6.7149">
        <ele>1822</ele>
        <time>2018-05-17T23:10:45Z</time>
      </trkpt>
      <trkpt lat="45.69446" lon="6.71474">
        <ele>1823</ele>
        <time>2018-05-17T23:11:45Z</time>
      </trkpt>
      <trkpt lat="45.69443" lon="6.71454">
        <ele>1824</ele>
        <time>2018-05-17T23:12:45Z</time>
      </trkpt>
      <trkpt lat="45.69436" lon="6.71425">
        <ele>1823</ele>
        <time>2018-05-17T23:13:45Z</time>
      </trkpt>
      <trkpt lat="45.69428" lon="6.71402">
        <ele>1826</ele>
        <time>2018-05-17T23:14:45Z</time>
      </trkpt>
      <trkpt lat="45.69422" lon="6.71383">
        <ele>1828</ele>
        <time>2018-05-17T23:15:45Z</time>
      </trkpt>
      <trkpt lat="45.69414" lon="6.71364">
        <ele>1823</ele>
        <time>2018-05-17T23:16:45Z</time>
      </trkpt>
      <trkpt lat="45.69404" lon="6.71334">
        <ele>1825</ele>
        <time>2018-05-17T23:17:45Z</time>
      </trkpt>
      <trkpt lat="45.69396" lon="6.71301">
        <ele>1826</ele>
        <time>2018-05-17T23:18:45Z</time>
      </trkpt>
      <trkpt lat="45.69392" lon="6.71277">
        <ele>1827</ele>
        <time>2018-05-17T23:19:45Z</time>
      </trkpt>
      <trkpt lat="45.69387" lon="6.7125">
        <ele>1827</ele>
        <time>2018-05-17T23:20:45Z</time>
      </trkpt>
      <trkpt lat="45.69381" lon="6.71189">
        <ele>1830</ele>
        <time>2018-05-17T23:21:45Z</time>
      </trkpt>
      <trkpt lat="45.69376" lon="6.71148">
        <ele>1832</ele>
        <time>2018-05-17T23:22:45Z</time>
      </trkpt>
      <trkpt lat="45.69365" lon="6.71061">
        <ele>1836</ele>
        <time>2018-05-17T23:23:45Z</time>
      </trkpt>
      <trkpt lat="45.69351" lon="6.70947">
        <ele>1846</ele>
        <time>2018-05-17T23:24:45Z</time>
      </trkpt>
      <trkpt lat="45.69327" lon="6.70735">
        <ele>1859</ele>
        <time>2018-05-17T23:25:45Z</time>
      </trkpt>
      <trkpt lat="45.69311" lon="6.70597">
        <ele>1866</ele>
        <time>2018-05-17T23:26:45Z</time>
      </trkpt>
      <trkpt lat="45.69303" lon="6.70515">
        <ele>1872</ele>
        <time>2018-05-17T23:27:45Z</time>
      </trkpt>
      <trkpt lat="45.69298" lon="6.70482">
        <ele>1875</ele>
        <time>2018-05-17T23:28:45Z</time>
      </trkpt>
      <trkpt lat="45.69296" lon="6.70461">
        <ele>1875</ele>
        <time>2018-05-17T23:29:45Z</time>
      </trkpt>
      <trkpt lat="45.69291" lon="6.70438">
        <ele>1875</ele>
        <time>2018-05-17T23:30:45Z</time>
      </trkpt>
      <trkpt lat="45.69285" lon="6.70411">
        <ele>1876</ele>
        <time>2018-05-17T23:31:45Z</time>
      </trkpt>
      <trkpt lat="45.69277" lon="6.70383">
        <ele>1876</ele>
        <time>2018-05-17T23:32:45Z</time>
      </trkpt>
      <trkpt lat="45.69274" lon="6.7037">
        <ele>1877</ele>
        <time>2018-05-17T23:33:45Z</time>
      </trkpt>
      <trkpt lat="45.69272" lon="6.70364">
        <ele>1877</ele>
        <time>2018-05-17T23:34:45Z</time>
      </trkpt>
      <trkpt lat="45.69271" lon="6.70359">
        <ele>1876</ele>
        <time>2018-05-17T23:35:45Z</time>
      </trkpt>
      <trkpt lat="45.69269" lon="6.70353">
        <ele>1876</ele>
        <time>2018-05-17T23:36:45Z</time>
      </trkpt>
      <trkpt lat="45.69262" lon="6.70328">
        <ele>1878</ele>
        <time>2018-05-17T23:37:45Z</time>
      </trkpt>
      <trkpt lat="45.69252" lon="6.70296">
        <ele>1883</ele>
        <time>2018-05-17T23:38:45Z</time>
      </trkpt>
      <trkpt lat="45.69234" lon="6.70247">
        <ele>1889</ele>
        <time>2018-05-17T23:39:45Z</time>
      </trkpt>
      <trkpt lat="45.69225" lon="6.70221">
        <ele>1891</ele>
        <time>2018-05-17T23:40:45Z</time>
      </trkpt>
      <trkpt lat="45.69219" lon="6.70206">
        <ele>1892</ele>
        <time>2018-05-17T23:41:45Z</time>
      </trkpt>
      <trkpt lat="45.69216" lon="6.7019">
        <ele>1893</ele>
        <time>2018-05-17T23:42:45Z</time>
      </trkpt>
      <trkpt lat="45.69214" lon="6.70166">
        <ele>1897</ele>
        <time>2018-05-17T23:43:45Z</time>
      </trkpt>
      <trkpt lat="45.69212" lon="6.70136">
        <ele>1897</ele>
        <time>2018-05-17T23:44:45Z</time>
      </trkpt>
      <trkpt lat="45.69212" lon="6.70114">
        <ele>1898</ele>
        <time>2018-05-17T23:45:45Z</time>
      </trkpt>
      <trkpt lat="45.69215" lon="6.70089">
        <ele>1898</ele>
        <time>2018-05-17T23:46:45Z</time>
      </trkpt>
      <trkpt lat="45.6922" lon="6.70064">
        <ele>1899</ele>
        <time>2018-05-17T23:47:45Z</time>
      </trkpt>
      <trkpt lat="45.69228" lon="6.7004">
        <ele>1899</ele>
        <time>2018-05-17T23:48:45Z</time>
      </trkpt>
      <trkpt lat="45.69246" lon="6.69995">
        <ele>1902</ele>
        <time>2018-05-17T23:49:45Z</time>
      </trkpt>
      <trkpt lat="45.69292" lon="6.69887">
        <ele>1907</ele>
        <time>2018-05-17T23:50:45Z</time>
      </trkpt>
      <trkpt lat="45.69328" lon="6.69803">
        <ele>1911</ele>
        <time>2018-05-17T23:51:45Z</time>
      </trkpt>
      <trkpt lat="45.69342" lon="6.69771">
        <ele>1916</ele>
        <time>2018-05-17T23:52:45Z</time>
      </trkpt>
      <trkpt lat="45.6935" lon="6.69747">
        <ele>1916</ele>
        <time>2018-05-17T23:53:45Z</time>
      </trkpt>
      <trkpt lat="45.69362" lon="6.69705">
        <ele>1918</ele>
        <time>2018-05-17T23:54:45Z</time>
      </trkpt>
      <trkpt lat="45.69373" lon="6.69661">
        <ele>1920</ele>
        <time>2018-05-17T23:55:45Z</time>
      </trkpt>
      <trkpt lat="45.69375" lon="6.6965">
        <ele>1920</ele>
        <time>2018-05-17T23:56:45Z</time>
      </trkpt>
      <trkpt lat="45.69377" lon="6.69639">
        <ele>1921</ele>
        <time>2018-05-17T23:57:45Z</time>
      </trkpt>
      <trkpt lat="45.69379" lon="6.69622">
        <ele>1921</ele>
        <time>2018-05-17T23:58:45Z</time>
      </trkpt>
      <trkpt lat="45.69381" lon="6.69604">
        <ele>1922</ele>
        <time>2018-05-17T23:59:45Z</time>
      </trkpt>
      <trkpt lat="45.69384" lon="6.69574">
        <ele>1926</ele>
        <time>2018-05-18T00:00:45Z</time>
      </trkpt>
      <trkpt lat="45.69387" lon="6.69543">
        <ele>1927</ele>
        <time>2018-05-18T00:01:45Z</time>
      </trkpt>
      <trkpt lat="45.6939" lon="6.69519">
        <ele>1929</ele>
        <time>2018-05-18T00:02:45Z</time>
      </trkpt>
      <trkpt lat="45.6939" lon="6.69502">
        <ele>1930</ele>
        <time>2018-05-18T00:03:45Z</time>
      </trkpt>
      <trkpt lat="45.6939" lon="6.69487">
        <ele>1935</ele>
        <time>2018-05-18T00:04:45Z</time>
      </trkpt>
      <trkpt lat="45.69388" lon="6.69465">
        <ele>1936</ele>
        <time>2018-05-18T00:05:45Z</time>
      </trkpt>
      <trkpt lat="45.69387" lon="6.69443">
        <ele>1938</ele>
        <time>2018-05-18T00:06:45Z</time>
      </trkpt>
      <trkpt lat="45.69384" lon="6.69426">
        <ele>1939</ele>
        <time>2018-05-18T00:07:45Z</time>
      </trkpt>
      <trkpt lat="45.69381" lon="6.69412">
        <ele>1947</ele>
        <time>2018-05-18T00:08:45Z</time>
      </trkpt>
      <trkpt lat="45.69376" lon="6.69396">
        <ele>1947</ele>
        <time>2018-05-18T00:09:45Z</time>
      </trkpt>
      <trkpt lat="45.6937" lon="6.69379">
        <ele>1947</ele>
        <time>2018-05-18T00:10:45Z</time>
      </trkpt>
      <trkpt lat="45.6936" lon="6.69355">
        <ele>1948</ele>
        <time>2018-05-18T00:11:45Z</time>
      </trkpt>
      <trkpt lat="45.69347" lon="6.69329">
        <ele>1952</ele>
        <time>2018-05-18T00:12:45Z</time>
      </trkpt>
      <trkpt lat="45.69334" lon="6.69305">
        <ele>1956</ele>
        <time>2018-05-18T00:13:45Z</time>
      </trkpt>
      <trkpt lat="45.69324" lon="6.69288">
        <ele>1951</ele>
        <time>2018-05-18T00:14:45Z</time>
      </trkpt>
      <trkpt lat="45.69319" lon="6.69281">
        <ele>1952</ele>
        <time>2018-05-18T00:15:45Z</time>
      </trkpt>
      <trkpt lat="45.69318" lon="6.6928">
        <ele>1952</ele>
        <time>2018-05-18T00:16:45Z</time>
      </trkpt>
      <trkpt lat="45.69318" lon="6.6928">
        <ele>1952</ele>
        <time>2018-05-18T00:17:45Z</time>
      </trkpt>
      <trkpt lat="45.69312" lon="6.69272">
        <ele>1953</ele>
        <time>2018-05-18T00:18:45Z</time>
      </trkpt>
      <trkpt lat="45.69302" lon="6.69263">
        <ele>1953</ele>
        <time>2018-05-18T00:19:45Z</time>
      </trkpt>
      <trkpt lat="45.69293" lon="6.69257">
        <ele>1953</ele>
        <time>2018-05-18T00:20:45Z</time>
      </trkpt>
      <trkpt lat="45.69284" lon="6.69252">
        <ele>1953</ele>
        <time>2018-05-18T00:21:45Z</time>
      </trkpt>
      <trkpt lat="45.69272" lon="6.6925">
        <ele>1960</ele>
        <time>2018-05-18T00:22:45Z</time>
      </trkpt>
      <trkpt lat="45.69255" lon="6.69248">
        <ele>1957</ele>
        <time>2018-05-18T00:23:45Z</time>
      </trkpt>
      <trkpt lat="45.69237" lon="6.69248">
        <ele>1959</ele>
        <time>2018-05-18T00:24:45Z</time>
      </trkpt>
      <trkpt lat="45.69215" lon="6.69246">
        <ele>1962</ele>
        <time>2018-05-18T00:25:45Z</time>
      </trkpt>
      <trkpt lat="45.69209" lon="6.69245">
        <ele>1963</ele>
        <time>2018-05-18T00:26:45Z</time>
      </trkpt>
      <trkpt lat="45.69201" lon="6.69243">
        <ele>1964</ele>
        <time>2018-05-18T00:27:45Z</time>
      </trkpt>
      <trkpt lat="45.69192" lon="6.69239">
        <ele>1964</ele>
        <time>2018-05-18T00:28:45Z</time>
      </trkpt>
      <trkpt lat="45.69184" lon="6.69234">
        <ele>1965</ele>
        <time>2018-05-18T00:29:45Z</time>
      </trkpt>
      <trkpt lat="45.69176" lon="6.69226">
        <ele>1965</ele>
        <time>2018-05-18T00:30:45Z</time>
      </trkpt>
      <trkpt lat="45.69169" lon="6.69217">
        <ele>1965</ele>
        <time>2018-05-18T00:31:45Z</time>
      </trkpt>
      <trkpt lat="45.69164" lon="6.69207">
        <ele>1974</ele>
        <time>2018-05-18T00:32:45Z</time>
      </trkpt>
      <trkpt lat="45.69158" lon="6.69191">
        <ele>1973</ele>
        <time>2018-05-18T00:33:45Z</time>
      </trkpt>
      <trkpt lat="45.69153" lon="6.69169">
        <ele>1971</ele>
        <time>2018-05-18T00:34:45Z</time>
      </trkpt>
      <trkpt lat="45.69144" lon="6.69133">
        <ele>1974</ele>
        <time>2018-05-18T00:35:45Z</time>
      </trkpt>
      <trkpt lat="45.69135" lon="6.69081">
        <ele>1974</ele>
        <time>2018-05-18T00:36:45Z</time>
      </trkpt>
      <trkpt lat="45.69132" lon="6.69063">
        <ele>1974</ele>
        <time>2018-05-18T00:37:45Z</time>
      </trkpt>
      <trkpt lat="45.69121" lon="6.68991">
        <ele>1971</ele>
        <time>2018-05-18T00:38:45Z</time>
      </trkpt>
      <trkpt lat="45.6912" lon="6.68979">
        <ele>1971</ele>
        <time>2018-05-18T00:39:45Z</time>
      </trkpt>
      <trkpt lat="45.69119" lon="6.68971">
        <ele>1970</ele>
        <time>2018-05-18T00:40:45Z</time>
      </trkpt>
      <trkpt lat="45.6912" lon="6.68963">
        <ele>1970</ele>
        <time>2018-05-18T00:41:45Z</time>
      </trkpt>
      <trkpt lat="45.69121" lon="6.68955">
        <ele>1970</ele>
        <time>2018-05-18T00:42:45Z</time>
      </trkpt>
      <trkpt lat="45.69123" lon="6.68945">
        <ele>1970</ele>
        <time>2018-05-18T00:43:45Z</time>
      </trkpt>
      <trkpt lat="45.69131" lon="6.68911">
        <ele>1967</ele>
        <time>2018-05-18T00:44:45Z</time>
      </trkpt>
      <trkpt lat="45.69133" lon="6.68901">
        <ele>1967</ele>
        <time>2018-05-18T00:45:45Z</time>
      </trkpt>
      <trkpt lat="45.69134" lon="6.68894">
        <ele>1967</ele>
        <time>2018-05-18T00:46:45Z</time>
      </trkpt>
      <trkpt lat="45.69134" lon="6.68888">
        <ele>1967</ele>
        <time>2018-05-18T00:47:45Z</time>
      </trkpt>
      <trkpt lat="45.69134" lon="6.68882">
        <ele>1967</ele>
        <time>2018-05-18T00:48:45Z</time>
      </trkpt>
      <trkpt lat="45.69132" lon="6.68873">
        <ele>1967</ele>
        <time>2018-05-18T00:49:45Z</time>
      </trkpt>
      <trkpt lat="45.6913" lon="6.6886">
        <ele>1966</ele>
        <time>2018-05-18T00:50:45Z</time>
      </trkpt>
      <trkpt lat="45.6913" lon="6.68853">
        <ele>1966</ele>
        <time>2018-05-18T00:51:45Z</time>
      </trkpt>
      <trkpt lat="45.69129" lon="6.68846">
        <ele>1966</ele>
        <time>2018-05-18T00:52:45Z</time>
      </trkpt>
      <trkpt lat="45.69129" lon="6.68841">
        <ele>1966</ele>
        <time>2018-05-18T00:53:45Z</time>
      </trkpt>
      <trkpt lat="45.6913" lon="6.68835">
        <ele>1966</ele>
        <time>2018-05-18T00:54:45Z</time>
      </trkpt>
      <trkpt lat="45.69132" lon="6.68825">
        <ele>1965</ele>
        <time>2018-05-18T00:55:45Z</time>
      </trkpt>
      <trkpt lat="45.69136" lon="6.68812">
        <ele>1965</ele>
        <time>2018-05-18T00:56:45Z</time>
      </trkpt>
      <trkpt lat="45.69141" lon="6.68799">
        <ele>1964</ele>
        <time>2018-05-18T00:57:45Z</time>
      </trkpt>
      <trkpt lat="45.69144" lon="6.68789">
        <ele>1964</ele>
        <time>2018-05-18T00:58:45Z</time>
      </trkpt>
      <trkpt lat="45.69145" lon="6.68778">
        <ele>1964</ele>
        <time>2018-05-18T00:59:45Z</time>
      </trkpt>
      <trkpt lat="45.69145" lon="6.68767">
        <ele>1964</ele>
        <time>2018-05-18T01:00:45Z</time>
      </trkpt>
      <trkpt lat="45.69143" lon="6.68754">
        <ele>1964</ele>
        <time>2018-05-18T01:01:45Z</time>
      </trkpt>
      <trkpt lat="45.69139" lon="6.68744">
        <ele>1963</ele>
        <time>2018-05-18T01:02:45Z</time>
      </trkpt>
      <trkpt lat="45.69135" lon="6.68735">
        <ele>1962</ele>
        <time>2018-05-18T01:03:45Z</time>
      </trkpt>
      <trkpt lat="45.69127" lon="6.68727">
        <ele>1961</ele>
        <time>2018-05-18T01:04:45Z</time>
      </trkpt>
      <trkpt lat="45.6912" lon="6.6872">
        <ele>1961</ele>
        <time>2018-05-18T01:05:45Z</time>
      </trkpt>
      <trkpt lat="45.69114" lon="6.68714">
        <ele>1960</ele>
        <time>2018-05-18T01:06:45Z</time>
      </trkpt>
      <trkpt lat="45.69109" lon="6.68704">
        <ele>1960</ele>
        <time>2018-05-18T01:07:45Z</time>
      </trkpt>
      <trkpt lat="45.69106" lon="6.68695">
        <ele>1960</ele>
        <time>2018-05-18T01:08:45Z</time>
      </trkpt>
      <trkpt lat="45.69105" lon="6.68687">
        <ele>1959</ele>
        <time>2018-05-18T01:09:45Z</time>
      </trkpt>
      <trkpt lat="45.69105" lon="6.68676">
        <ele>1959</ele>
        <time>2018-05-18T01:10:45Z</time>
      </trkpt>
      <trkpt lat="45.69106" lon="6.68663">
        <ele>1958</ele>
        <time>2018-05-18T01:11:45Z</time>
      </trkpt>
      <trkpt lat="45.69108" lon="6.68645">
        <ele>1958</ele>
        <time>2018-05-18T01:12:45Z</time>
      </trkpt>
      <trkpt lat="45.6911" lon="6.6862">
        <ele>1958</ele>
        <time>2018-05-18T01:13:45Z</time>
      </trkpt>
      <trkpt lat="45.69112" lon="6.68574">
        <ele>1955</ele>
        <time>2018-05-18T01:14:45Z</time>
      </trkpt>
      <trkpt lat="45.69115" lon="6.68526">
        <ele>1955</ele>
        <time>2018-05-18T01:15:45Z</time>
      </trkpt>
      <trkpt lat="45.69117" lon="6.68507">
        <ele>1954</ele>
        <time>2018-05-18T01:16:45Z</time>
      </trkpt>
      <trkpt lat="45.69118" lon="6.68506">
        <ele>1954</ele>
        <time>2018-05-18T01:17:45Z</time>
      </trkpt>
      <trkpt lat="45.6912" lon="6.68496">
        <ele>1952</ele>
        <time>2018-05-18T01:18:45Z</time>
      </trkpt>
      <trkpt lat="45.69123" lon="6.68484">
        <ele>1952</ele>
        <time>2018-05-18T01:19:45Z</time>
      </trkpt>
      <trkpt lat="45.69129" lon="6.68472">
        <ele>1952</ele>
        <time>2018-05-18T01:20:45Z</time>
      </trkpt>
      <trkpt lat="45.69138" lon="6.68456">
        <ele>1952</ele>
        <time>2018-05-18T01:21:45Z</time>
      </trkpt>
      <trkpt lat="45.69148" lon="6.6844">
        <ele>1952</ele>
        <time>2018-05-18T01:22:45Z</time>
      </trkpt>
      <trkpt lat="45.69151" lon="6.68433">
        <ele>1952</ele>
        <time>2018-05-18T01:23:45Z</time>
      </trkpt>
      <trkpt lat="45.69154" lon="6.68427">
        <ele>1952</ele>
        <time>2018-05-18T01:24:45Z</time>
      </trkpt>
      <trkpt lat="45.69155" lon="6.68421">
        <ele>1952</ele>
        <time>2018-05-18T01:25:45Z</time>
      </trkpt>
      <trkpt lat="45.69156" lon="6.68413">
        <ele>1951</ele>
        <time>2018-05-18T01:26:45Z</time>
      </trkpt>
      <trkpt lat="45.69155" lon="6.68407">
        <ele>1951</ele>
        <time>2018-05-18T01:27:45Z</time>
      </trkpt>
      <trkpt lat="45.69154" lon="6.68396">
        <ele>1950</ele>
        <time>2018-05-18T01:28:45Z</time>
      </trkpt>
      <trkpt lat="45.69149" lon="6.68386">
        <ele>1949</ele>
        <time>2018-05-18T01:29:45Z</time>
      </trkpt>
      <trkpt lat="45.69143" lon="6.68377">
        <ele>1948</ele>
        <time>2018-05-18T01:30:45Z</time>
      </trkpt>
      <trkpt lat="45.69132" lon="6.68364">
        <ele>1948</ele>
        <time>2018-05-18T01:31:45Z</time>
      </trkpt>
      <trkpt lat="45.69124" lon="6.68354">
        <ele>1947</ele>
        <time>2018-05-18T01:32:45Z</time>
      </trkpt>
      <trkpt lat="45.69119" lon="6.68345">
        <ele>1947</ele>
        <time>2018-05-18T01:33:45Z</time>
      </trkpt>
      <trkpt lat="45.69116" lon="6.68335">
        <ele>1947</ele>
        <time>2018-05-18T01:34:45Z</time>
      </trkpt>
      <trkpt lat="45.69109" lon="6.68317">
        <ele>1945</ele>
        <time>2018-05-18T01:35:45Z</time>
      </trkpt>
      <trkpt lat="45.69094" lon="6.68268">
        <ele>1943</ele>
        <time>2018-05-18T01:36:45Z</time>
      </trkpt>
      <trkpt lat="45.69092" lon="6.68261">
        <ele>1943</ele>
        <time>2018-05-18T01:37:45Z</time>
      </trkpt>
      <trkpt lat="45.69089" lon="6.68254">
        <ele>1943</ele>
        <time>2018-05-18T01:38:45Z</time>
      </trkpt>
      <trkpt lat="45.69084" lon="6.68248">
        <ele>1942</ele>
        <time>2018-05-18T01:39:45Z</time>
      </trkpt>
      <trkpt lat="45.69077" lon="6.6824">
        <ele>1942</ele>
        <time>2018-05-18T01:40:45Z</time>
      </trkpt>
      <trkpt lat="45.69066" lon="6.68229">
        <ele>1942</ele>
        <time>2018-05-18T01:41:45Z</time>
      </trkpt>
      <trkpt lat="45.69042" lon="6.68211">
        <ele>1941</ele>
        <time>2018-05-18T01:42:45Z</time>
      </trkpt>
      <trkpt lat="45.69026" lon="6.68198">
        <ele>1941</ele>
        <time>2018-05-18T01:43:45Z</time>
      </trkpt>
      <trkpt lat="45.69018" lon="6.68189">
        <ele>1941</ele>
        <time>2018-05-18T01:44:45Z</time>
      </trkpt>
      <trkpt lat="45.69012" lon="6.6818">
        <ele>1941</ele>
        <time>2018-05-18T01:45:45Z</time>
      </trkpt>
      <trkpt lat="45.69008" lon="6.6817">
        <ele>1940</ele>
        <time>2018-05-18T01:46:45Z</time>
      </trkpt>
      <trkpt lat="45.69005" lon="6.68157">
        <ele>1940</ele>
        <time>2018-05-18T01:47:45Z</time>
      </trkpt>
      <trkpt lat="45.69003" lon="6.68141">
        <ele>1940</ele>
        <time>2018-05-18T01:48:45Z</time>
      </trkpt>
      <trkpt lat="45.69002" lon="6.68123">
        <ele>1939</ele>
        <time>2018-05-18T01:49:45Z</time>
      </trkpt>
      <trkpt lat="45.69003" lon="6.68106">
        <ele>1939</ele>
        <time>2018-05-18T01:50:45Z</time>
      </trkpt>
      <trkpt lat="45.69007" lon="6.68078">
        <ele>1936</ele>
        <time>2018-05-18T01:51:45Z</time>
      </trkpt>
      <trkpt lat="45.69012" lon="6.6806">
        <ele>1934</ele>
        <time>2018-05-18T01:52:45Z</time>
      </trkpt>
      <trkpt lat="45.6902" lon="6.68042">
        <ele>1933</ele>
        <time>2018-05-18T01:53:45Z</time>
      </trkpt>
      <trkpt lat="45.6903" lon="6.68027">
        <ele>1932</ele>
        <time>2018-05-18T01:54:45Z</time>
      </trkpt>
      <trkpt lat="45.6904" lon="6.68015">
        <ele>1931</ele>
        <time>2018-05-18T01:55:45Z</time>
      </trkpt>
      <trkpt lat="45.6905" lon="6.68006">
        <ele>1930</ele>
        <time>2018-05-18T01:56:45Z</time>
      </trkpt>
      <trkpt lat="45.69062" lon="6.68">
        <ele>1924</ele>
        <time>2018-05-18T01:57:45Z</time>
      </trkpt>
      <trkpt lat="45.69074" lon="6.67997">
        <ele>1924</ele>
        <time>2018-05-18T01:58:45Z</time>
      </trkpt>
      <trkpt lat="45.69082" lon="6.67997">
        <ele>1924</ele>
        <time>2018-05-18T01:59:45Z</time>
      </trkpt>
      <trkpt lat="45.6909" lon="6.67998">
        <ele>1920</ele>
        <time>2018-05-18T02:00:45Z</time>
      </trkpt>
      <trkpt lat="45.69097" lon="6.68">
        <ele>1918</ele>
        <time>2018-05-18T02:01:45Z</time>
      </trkpt>
      <trkpt lat="45.69104" lon="6.68004">
        <ele>1923</ele>
        <time>2018-05-18T02:02:45Z</time>
      </trkpt>
      <trkpt lat="45.69122" lon="6.68021">
        <ele>1922</ele>
        <time>2018-05-18T02:03:45Z</time>
      </trkpt>
      <trkpt lat="45.69156" lon="6.68053">
        <ele>1922</ele>
        <time>2018-05-18T02:04:45Z</time>
      </trkpt>
      <trkpt lat="45.69183" lon="6.68083">
        <ele>1916</ele>
        <time>2018-05-18T02:05:45Z</time>
      </trkpt>
      <trkpt lat="45.69214" lon="6.68122">
        <ele>1920</ele>
        <time>2018-05-18T02:06:45Z</time>
      </trkpt>
      <trkpt lat="45.69243" lon="6.68164">
        <ele>1917</ele>
        <time>2018-05-18T02:07:45Z</time>
      </trkpt>
      <trkpt lat="45.69251" lon="6.68177">
        <ele>1916</ele>
        <time>2018-05-18T02:08:45Z</time>
      </trkpt>
      <trkpt lat="45.69256" lon="6.6818">
        <ele>1916</ele>
        <time>2018-05-18T02:09:45Z</time>
      </trkpt>
      <trkpt lat="45.6927" lon="6.68189">
        <ele>1916</ele>
        <time>2018-05-18T02:10:45Z</time>
      </trkpt>
      <trkpt lat="45.69326" lon="6.68221">
        <ele>1915</ele>
        <time>2018-05-18T02:11:45Z</time>
      </trkpt>
      <trkpt lat="45.69354" lon="6.68237">
        <ele>1907</ele>
        <time>2018-05-18T02:12:45Z</time>
      </trkpt>
      <trkpt lat="45.69363" lon="6.68244">
        <ele>1906</ele>
        <time>2018-05-18T02:13:45Z</time>
      </trkpt>
      <trkpt lat="45.69368" lon="6.68248">
        <ele>1905</ele>
        <time>2018-05-18T02:14:45Z</time>
      </trkpt>
      <trkpt lat="45.69374" lon="6.68253">
        <ele>1915</ele>
        <time>2018-05-18T02:15:45Z</time>
      </trkpt>
      <trkpt lat="45.69387" lon="6.68265">
        <ele>1914</ele>
        <time>2018-05-18T02:16:45Z</time>
      </trkpt>
      <trkpt lat="45.69396" lon="6.68272">
        <ele>1913</ele>
        <time>2018-05-18T02:17:45Z</time>
      </trkpt>
      <trkpt lat="45.69405" lon="6.68276">
        <ele>1913</ele>
        <time>2018-05-18T02:18:45Z</time>
      </trkpt>
      <trkpt lat="45.69412" lon="6.68276">
        <ele>1912</ele>
        <time>2018-05-18T02:19:45Z</time>
      </trkpt>
      <trkpt lat="45.69418" lon="6.68273">
        <ele>1902</ele>
        <time>2018-05-18T02:20:45Z</time>
      </trkpt>
      <trkpt lat="45.69423" lon="6.68267">
        <ele>1901</ele>
        <time>2018-05-18T02:21:45Z</time>
      </trkpt>
      <trkpt lat="45.69425" lon="6.68261">
        <ele>1901</ele>
        <time>2018-05-18T02:22:45Z</time>
      </trkpt>
      <trkpt lat="45.69425" lon="6.68255">
        <ele>1901</ele>
        <time>2018-05-18T02:23:45Z</time>
      </trkpt>
      <trkpt lat="45.69424" lon="6.68249">
        <ele>1897</ele>
        <time>2018-05-18T02:24:45Z</time>
      </trkpt>
      <trkpt lat="45.69423" lon="6.68244">
        <ele>1897</ele>
        <time>2018-05-18T02:25:45Z</time>
      </trkpt>
      <trkpt lat="45.6942" lon="6.6824">
        <ele>1896</ele>
        <time>2018-05-18T02:26:45Z</time>
      </trkpt>
      <trkpt lat="45.69415" lon="6.68236">
        <ele>1900</ele>
        <time>2018-05-18T02:27:45Z</time>
      </trkpt>
      <trkpt lat="45.69402" lon="6.68226">
        <ele>1900</ele>
        <time>2018-05-18T02:28:45Z</time>
      </trkpt>
      <trkpt lat="45.69392" lon="6.68218">
        <ele>1900</ele>
        <time>2018-05-18T02:29:45Z</time>
      </trkpt>
      <trkpt lat="45.69381" lon="6.68206">
        <ele>1900</ele>
        <time>2018-05-18T02:30:45Z</time>
      </trkpt>
      <trkpt lat="45.6935" lon="6.68172">
        <ele>1900</ele>
        <time>2018-05-18T02:31:45Z</time>
      </trkpt>
      <trkpt lat="45.69342" lon="6.68161">
        <ele>1896</ele>
        <time>2018-05-18T02:32:45Z</time>
      </trkpt>
      <trkpt lat="45.69338" lon="6.68154">
        <ele>1895</ele>
        <time>2018-05-18T02:33:45Z</time>
      </trkpt>
      <trkpt lat="45.69334" lon="6.68147">
        <ele>1893</ele>
        <time>2018-05-18T02:34:45Z</time>
      </trkpt>
      <trkpt lat="45.69332" lon="6.68139">
        <ele>1901</ele>
        <time>2018-05-18T02:35:45Z</time>
      </trkpt>
      <trkpt lat="45.69331" lon="6.68134">
        <ele>1901</ele>
        <time>2018-05-18T02:36:45Z</time>
      </trkpt>
      <trkpt lat="45.69329" lon="6.68115">
        <ele>1899</ele>
        <time>2018-05-18T02:37:45Z</time>
      </trkpt>
      <trkpt lat="45.69328" lon="6.68102">
        <ele>1897</ele>
        <time>2018-05-18T02:38:45Z</time>
      </trkpt>
      <trkpt lat="45.69326" lon="6.68088">
        <ele>1893</ele>
        <time>2018-05-18T02:39:45Z</time>
      </trkpt>
      <trkpt lat="45.69325" lon="6.68081">
        <ele>1890</ele>
        <time>2018-05-18T02:40:45Z</time>
      </trkpt>
      <trkpt lat="45.69317" lon="6.6804">
        <ele>1889</ele>
        <time>2018-05-18T02:41:45Z</time>
      </trkpt>
      <trkpt lat="45.69305" lon="6.67991">
        <ele>1877</ele>
        <time>2018-05-18T02:42:45Z</time>
      </trkpt>
      <trkpt lat="45.693" lon="6.67974">
        <ele>1876</ele>
        <time>2018-05-18T02:43:45Z</time>
      </trkpt>
      <trkpt lat="45.69294" lon="6.67965">
        <ele>1876</ele>
        <time>2018-05-18T02:44:45Z</time>
      </trkpt>
      <trkpt lat="45.69286" lon="6.67954">
        <ele>1876</ele>
        <time>2018-05-18T02:45:45Z</time>
      </trkpt>
      <trkpt lat="45.69278" lon="6.67948">
        <ele>1876</ele>
        <time>2018-05-18T02:46:45Z</time>
      </trkpt>
      <trkpt lat="45.69268" lon="6.67942">
        <ele>1876</ele>
        <time>2018-05-18T02:47:45Z</time>
      </trkpt>
      <trkpt lat="45.69242" lon="6.6793">
        <ele>1884</ele>
        <time>2018-05-18T02:48:45Z</time>
      </trkpt>
      <trkpt lat="45.6924" lon="6.67929">
        <ele>1884</ele>
        <time>2018-05-18T02:49:45Z</time>
      </trkpt>
      <trkpt lat="45.69234" lon="6.67925">
        <ele>1885</ele>
        <time>2018-05-18T02:50:45Z</time>
      </trkpt>
      <trkpt lat="45.69226" lon="6.67918">
        <ele>1887</ele>
        <time>2018-05-18T02:51:45Z</time>
      </trkpt>
      <trkpt lat="45.69221" lon="6.67911">
        <ele>1877</ele>
        <time>2018-05-18T02:52:45Z</time>
      </trkpt>
      <trkpt lat="45.69217" lon="6.67903">
        <ele>1878</ele>
        <time>2018-05-18T02:53:45Z</time>
      </trkpt>
      <trkpt lat="45.69214" lon="6.67893">
        <ele>1877</ele>
        <time>2018-05-18T02:54:45Z</time>
      </trkpt>
      <trkpt lat="45.69209" lon="6.67881">
        <ele>1877</ele>
        <time>2018-05-18T02:55:45Z</time>
      </trkpt>
      <trkpt lat="45.69206" lon="6.67871">
        <ele>1876</ele>
        <time>2018-05-18T02:56:45Z</time>
      </trkpt>
      <trkpt lat="45.69201" lon="6.67861">
        <ele>1876</ele>
        <time>2018-05-18T02:57:45Z</time>
      </trkpt>
      <trkpt lat="45.69163" lon="6.67797">
        <ele>1876</ele>
        <time>2018-05-18T02:58:45Z</time>
      </trkpt>
      <trkpt lat="45.69138" lon="6.67758">
        <ele>1873</ele>
        <time>2018-05-18T02:59:45Z</time>
      </trkpt>
      <trkpt lat="45.69134" lon="6.67752">
        <ele>1873</ele>
        <time>2018-05-18T03:00:45Z</time>
      </trkpt>
      <trkpt lat="45.69122" lon="6.67734">
        <ele>1867</ele>
        <time>2018-05-18T03:01:45Z</time>
      </trkpt>
      <trkpt lat="45.69119" lon="6.67729">
        <ele>1867</ele>
        <time>2018-05-18T03:02:45Z</time>
      </trkpt>
      <trkpt lat="45.69118" lon="6.67725">
        <ele>1867</ele>
        <time>2018-05-18T03:03:45Z</time>
      </trkpt>
      <trkpt lat="45.69115" lon="6.67714">
        <ele>1867</ele>
        <time>2018-05-18T03:04:45Z</time>
      </trkpt>
      <trkpt lat="45.69113" lon="6.67708">
        <ele>1866</ele>
        <time>2018-05-18T03:05:45Z</time>
      </trkpt>
      <trkpt lat="45.69112" lon="6.67697">
        <ele>1866</ele>
        <time>2018-05-18T03:06:45Z</time>
      </trkpt>
      <trkpt lat="45.6911" lon="6.67686">
        <ele>1866</ele>
        <time>2018-05-18T03:07:45Z</time>
      </trkpt>
      <trkpt lat="45.69105" lon="6.67646">
        <ele>1861</ele>
        <time>2018-05-18T03:08:45Z</time>
      </trkpt>
      <trkpt lat="45.69099" lon="6.67619">
        <ele>1859</ele>
        <time>2018-05-18T03:09:45Z</time>
      </trkpt>
      <trkpt lat="45.69094" lon="6.67594">
        <ele>1861</ele>
        <time>2018-05-18T03:10:45Z</time>
      </trkpt>
      <trkpt lat="45.69091" lon="6.67569">
        <ele>1857</ele>
        <time>2018-05-18T03:11:45Z</time>
      </trkpt>
      <trkpt lat="45.69088" lon="6.67545">
        <ele>1853</ele>
        <time>2018-05-18T03:12:45Z</time>
      </trkpt>
      <trkpt lat="45.69086" lon="6.6753">
        <ele>1853</ele>
        <time>2018-05-18T03:13:45Z</time>
      </trkpt>
      <trkpt lat="45.69085" lon="6.67518">
        <ele>1853</ele>
        <time>2018-05-18T03:14:45Z</time>
      </trkpt>
      <trkpt lat="45.69085" lon="6.67505">
        <ele>1854</ele>
        <time>2018-05-18T03:15:45Z</time>
      </trkpt>
      <trkpt lat="45.69086" lon="6.67491">
        <ele>1852</ele>
        <time>2018-05-18T03:16:45Z</time>
      </trkpt>
      <trkpt lat="45.69087" lon="6.67478">
        <ele>1849</ele>
        <time>2018-05-18T03:17:45Z</time>
      </trkpt>
      <trkpt lat="45.6909" lon="6.67463">
        <ele>1848</ele>
        <time>2018-05-18T03:18:45Z</time>
      </trkpt>
      <trkpt lat="45.69091" lon="6.67453">
        <ele>1848</ele>
        <time>2018-05-18T03:19:45Z</time>
      </trkpt>
      <trkpt lat="45.69095" lon="6.67434">
        <ele>1848</ele>
        <time>2018-05-18T03:20:45Z</time>
      </trkpt>
      <trkpt lat="45.69098" lon="6.67426">
        <ele>1849</ele>
        <time>2018-05-18T03:21:45Z</time>
      </trkpt>
      <trkpt lat="45.69102" lon="6.67417">
        <ele>1848</ele>
        <time>2018-05-18T03:22:45Z</time>
      </trkpt>
      <trkpt lat="45.69107" lon="6.6741">
        <ele>1847</ele>
        <time>2018-05-18T03:23:45Z</time>
      </trkpt>
      <trkpt lat="45.6911" lon="6.67403">
        <ele>1846</ele>
        <time>2018-05-18T03:24:45Z</time>
      </trkpt>
      <trkpt lat="45.69111" lon="6.67397">
        <ele>1846</ele>
        <time>2018-05-18T03:25:45Z</time>
      </trkpt>
      <trkpt lat="45.69112" lon="6.67392">
        <ele>1846</ele>
        <time>2018-05-18T03:26:45Z</time>
      </trkpt>
      <trkpt lat="45.69112" lon="6.67384">
        <ele>1846</ele>
        <time>2018-05-18T03:27:45Z</time>
      </trkpt>
      <trkpt lat="45.69112" lon="6.67363">
        <ele>1846</ele>
        <time>2018-05-18T03:28:45Z</time>
      </trkpt>
      <trkpt lat="45.69114" lon="6.67347">
        <ele>1846</ele>
        <time>2018-05-18T03:29:45Z</time>
      </trkpt>
      <trkpt lat="45.69116" lon="6.67336">
        <ele>1846</ele>
        <time>2018-05-18T03:30:45Z</time>
      </trkpt>
      <trkpt lat="45.69118" lon="6.67327">
        <ele>1847</ele>
        <time>2018-05-18T03:31:45Z</time>
      </trkpt>
      <trkpt lat="45.69122" lon="6.67318">
        <ele>1846</ele>
        <time>2018-05-18T03:32:45Z</time>
      </trkpt>
      <trkpt lat="45.69127" lon="6.67309">
        <ele>1845</ele>
        <time>2018-05-18T03:33:45Z</time>
      </trkpt>
      <trkpt lat="45.69135" lon="6.67302">
        <ele>1845</ele>
        <time>2018-05-18T03:34:45Z</time>
      </trkpt>
      <trkpt lat="45.69149" lon="6.6729">
        <ele>1844</ele>
        <time>2018-05-18T03:35:45Z</time>
      </trkpt>
      <trkpt lat="45.69164" lon="6.67281">
        <ele>1843</ele>
        <time>2018-05-18T03:36:45Z</time>
      </trkpt>
      <trkpt lat="45.69171" lon="6.67277">
        <ele>1833</ele>
        <time>2018-05-18T03:37:45Z</time>
      </trkpt>
      <trkpt lat="45.69176" lon="6.67272">
        <ele>1834</ele>
        <time>2018-05-18T03:38:45Z</time>
      </trkpt>
      <trkpt lat="45.69181" lon="6.67265">
        <ele>1834</ele>
        <time>2018-05-18T03:39:45Z</time>
      </trkpt>
      <trkpt lat="45.69185" lon="6.67258">
        <ele>1834</ele>
        <time>2018-05-18T03:40:45Z</time>
      </trkpt>
      <trkpt lat="45.69189" lon="6.6725">
        <ele>1834</ele>
        <time>2018-05-18T03:41:45Z</time>
      </trkpt>
      <trkpt lat="45.69195" lon="6.67233">
        <ele>1835</ele>
        <time>2018-05-18T03:42:45Z</time>
      </trkpt>
      <trkpt lat="45.69203" lon="6.67215">
        <ele>1834</ele>
        <time>2018-05-18T03:43:45Z</time>
      </trkpt>
      <trkpt lat="45.69208" lon="6.67202">
        <ele>1834</ele>
        <time>2018-05-18T03:44:45Z</time>
      </trkpt>
      <trkpt lat="45.69212" lon="6.67194">
        <ele>1833</ele>
        <time>2018-05-18T03:45:45Z</time>
      </trkpt>
      <trkpt lat="45.69217" lon="6.67186">
        <ele>1833</ele>
        <time>2018-05-18T03:46:45Z</time>
      </trkpt>
      <trkpt lat="45.69226" lon="6.67174">
        <ele>1832</ele>
        <time>2018-05-18T03:47:45Z</time>
      </trkpt>
      <trkpt lat="45.69234" lon="6.67165">
        <ele>1831</ele>
        <time>2018-05-18T03:48:45Z</time>
      </trkpt>
      <trkpt lat="45.6924" lon="6.67157">
        <ele>1831</ele>
        <time>2018-05-18T03:49:45Z</time>
      </trkpt>
      <trkpt lat="45.69243" lon="6.67152">
        <ele>1831</ele>
        <time>2018-05-18T03:50:45Z</time>
      </trkpt>
      <trkpt lat="45.69246" lon="6.67144">
        <ele>1832</ele>
        <time>2018-05-18T03:51:45Z</time>
      </trkpt>
      <trkpt lat="45.69249" lon="6.67134">
        <ele>1832</ele>
        <time>2018-05-18T03:52:45Z</time>
      </trkpt>
      <trkpt lat="45.69251" lon="6.67121">
        <ele>1824</ele>
        <time>2018-05-18T03:53:45Z</time>
      </trkpt>
      <trkpt lat="45.69253" lon="6.67105">
        <ele>1825</ele>
        <time>2018-05-18T03:54:45Z</time>
      </trkpt>
      <trkpt lat="45.69255" lon="6.67095">
        <ele>1825</ele>
        <time>2018-05-18T03:55:45Z</time>
      </trkpt>
      <trkpt lat="45.69257" lon="6.67088">
        <ele>1826</ele>
        <time>2018-05-18T03:56:45Z</time>
      </trkpt>
      <trkpt lat="45.6926" lon="6.67081">
        <ele>1826</ele>
        <time>2018-05-18T03:57:45Z</time>
      </trkpt>
      <trkpt lat="45.69268" lon="6.67064">
        <ele>1824</ele>
        <time>2018-05-18T03:58:45Z</time>
      </trkpt>
      <trkpt lat="45.69284" lon="6.67038">
        <ele>1822</ele>
        <time>2018-05-18T03:59:45Z</time>
      </trkpt>
      <trkpt lat="45.6929" lon="6.67029">
        <ele>1822</ele>
        <time>2018-05-18T04:00:45Z</time>
      </trkpt>
      <trkpt lat="45.69293" lon="6.6702">
        <ele>1821</ele>
        <time>2018-05-18T04:01:45Z</time>
      </trkpt>
      <trkpt lat="45.69297" lon="6.6701">
        <ele>1821</ele>
        <time>2018-05-18T04:02:45Z</time>
      </trkpt>
      <trkpt lat="45.693" lon="6.66996">
        <ele>1820</ele>
        <time>2018-05-18T04:03:45Z</time>
      </trkpt>
      <trkpt lat="45.69304" lon="6.66978">
        <ele>1820</ele>
        <time>2018-05-18T04:04:45Z</time>
      </trkpt>
      <trkpt lat="45.69308" lon="6.66959">
        <ele>1819</ele>
        <time>2018-05-18T04:05:45Z</time>
      </trkpt>
      <trkpt lat="45.69309" lon="6.66953">
        <ele>1819</ele>
        <time>2018-05-18T04:06:45Z</time>
      </trkpt>
      <trkpt lat="45.6932" lon="6.66904">
        <ele>1818</ele>
        <time>2018-05-18T04:07:45Z</time>
      </trkpt>
      <trkpt lat="45.69326" lon="6.66877">
        <ele>1818</ele>
        <time>2018-05-18T04:08:45Z</time>
      </trkpt>
      <trkpt lat="45.69335" lon="6.66838">
        <ele>1815</ele>
        <time>2018-05-18T04:09:45Z</time>
      </trkpt>
      <trkpt lat="45.69345" lon="6.66796">
        <ele>1811</ele>
        <time>2018-05-18T04:10:45Z</time>
      </trkpt>
      <trkpt lat="45.69349" lon="6.6678">
        <ele>1811</ele>
        <time>2018-05-18T04:11:45Z</time>
      </trkpt>
      <trkpt lat="45.69352" lon="6.66766">
        <ele>1811</ele>
        <time>2018-05-18T04:12:45Z</time>
      </trkpt>
      <trkpt lat="45.69353" lon="6.66752">
        <ele>1812</ele>
        <time>2018-05-18T04:13:45Z</time>
      </trkpt>
      <trkpt lat="45.69353" lon="6.66735">
        <ele>1810</ele>
        <time>2018-05-18T04:14:45Z</time>
      </trkpt>
      <trkpt lat="45.69354" lon="6.66714">
        <ele>1809</ele>
        <time>2018-05-18T04:15:45Z</time>
      </trkpt>
      <trkpt lat="45.69352" lon="6.66691">
        <ele>1809</ele>
        <time>2018-05-18T04:16:45Z</time>
      </trkpt>
      <trkpt lat="45.69351" lon="6.66664">
        <ele>1812</ele>
        <time>2018-05-18T04:17:45Z</time>
      </trkpt>
      <trkpt lat="45.69351" lon="6.66659">
        <ele>1812</ele>
        <time>2018-05-18T04:18:45Z</time>
      </trkpt>
      <trkpt lat="45.69351" lon="6.66653">
        <ele>1811</ele>
        <time>2018-05-18T04:19:45Z</time>
      </trkpt>
      <trkpt lat="45.69352" lon="6.66646">
        <ele>1811</ele>
        <time>2018-05-18T04:20:45Z</time>
      </trkpt>
      <trkpt lat="45.69353" lon="6.66638">
        <ele>1810</ele>
        <time>2018-05-18T04:21:45Z</time>
      </trkpt>
      <trkpt lat="45.69354" lon="6.66632">
        <ele>1810</ele>
        <time>2018-05-18T04:22:45Z</time>
      </trkpt>
      <trkpt lat="45.69355" lon="6.66625">
        <ele>1810</ele>
        <time>2018-05-18T04:23:45Z</time>
      </trkpt>
      <trkpt lat="45.69357" lon="6.6662">
        <ele>1810</ele>
        <time>2018-05-18T04:24:45Z</time>
      </trkpt>
      <trkpt lat="45.69361" lon="6.66608">
        <ele>1810</ele>
        <time>2018-05-18T04:25:45Z</time>
      </trkpt>
      <trkpt lat="45.69367" lon="6.66596">
        <ele>1810</ele>
        <time>2018-05-18T04:26:45Z</time>
      </trkpt>
      <trkpt lat="45.69369" lon="6.66591">
        <ele>1809</ele>
        <time>2018-05-18T04:27:45Z</time>
      </trkpt>
      <trkpt lat="45.6937" lon="6.66586">
        <ele>1809</ele>
        <time>2018-05-18T04:28:45Z</time>
      </trkpt>
      <trkpt lat="45.69372" lon="6.66581">
        <ele>1815</ele>
        <time>2018-05-18T04:29:45Z</time>
      </trkpt>
      <trkpt lat="45.69374" lon="6.66571">
        <ele>1815</ele>
        <time>2018-05-18T04:30:45Z</time>
      </trkpt>
      <trkpt lat="45.69376" lon="6.66562">
        <ele>1815</ele>
        <time>2018-05-18T04:31:45Z</time>
      </trkpt>
      <trkpt lat="45.69377" lon="6.66552">
        <ele>1816</ele>
        <time>2018-05-18T04:32:45Z</time>
      </trkpt>
      <trkpt lat="45.69378" lon="6.66549">
        <ele>1816</ele>
        <time>2018-05-18T04:33:45Z</time>
      </trkpt>
      <trkpt lat="45.69379" lon="6.66545">
        <ele>1816</ele>
        <time>2018-05-18T04:34:45Z</time>
      </trkpt>
      <trkpt lat="45.6938" lon="6.66542">
        <ele>1817</ele>
        <time>2018-05-18T04:35:45Z</time>
      </trkpt>
      <trkpt lat="45.69381" lon="6.66539">
        <ele>1817</ele>
        <time>2018-05-18T04:36:45Z</time>
      </trkpt>
      <trkpt lat="45.69383" lon="6.66536">
        <ele>1817</ele>
        <time>2018-05-18T04:37:45Z</time>
      </trkpt>
      <trkpt lat="45.69385" lon="6.66533">
        <ele>1816</ele>
        <time>2018-05-18T04:38:45Z</time>
      </trkpt>
      <trkpt lat="45.69388" lon="6.66529">
        <ele>1816</ele>
        <time>2018-05-18T04:39:45Z</time>
      </trkpt>
      <trkpt lat="45.69393" lon="6.66525">
        <ele>1815</ele>
        <time>2018-05-18T04:40:45Z</time>
      </trkpt>
      <trkpt lat="45.69398" lon="6.6652">
        <ele>1814</ele>
        <time>2018-05-18T04:41:45Z</time>
      </trkpt>
      <trkpt lat="45.69426" lon="6.66495">
        <ele>1812</ele>
        <time>2018-05-18T04:42:45Z</time>
      </trkpt>
      <trkpt lat="45.69429" lon="6.66492">
        <ele>1813</ele>
        <time>2018-05-18T04:43:45Z</time>
      </trkpt>
      <trkpt lat="45.69433" lon="6.6649">
        <ele>1814</ele>
        <time>2018-05-18T04:44:45Z</time>
      </trkpt>
      <trkpt lat="45.69437" lon="6.66488">
        <ele>1815</ele>
        <time>2018-05-18T04:45:45Z</time>
      </trkpt>
      <trkpt lat="45.6944" lon="6.66487">
        <ele>1815</ele>
        <time>2018-05-18T04:46:45Z</time>
      </trkpt>
      <trkpt lat="45.69442" lon="6.66486">
        <ele>1815</ele>
        <time>2018-05-18T04:47:45Z</time>
      </trkpt>
      <trkpt lat="45.69486" lon="6.66486">
        <ele>1809</ele>
        <time>2018-05-18T04:48:45Z</time>
      </trkpt>
      <trkpt lat="45.6949" lon="6.66486">
        <ele>1808</ele>
        <time>2018-05-18T04:49:45Z</time>
      </trkpt>
      <trkpt lat="45.69494" lon="6.66487">
        <ele>1807</ele>
        <time>2018-05-18T04:50:45Z</time>
      </trkpt>
      <trkpt lat="45.69501" lon="6.66489">
        <ele>1800</ele>
        <time>2018-05-18T04:51:45Z</time>
      </trkpt>
      <trkpt lat="45.69506" lon="6.66492">
        <ele>1800</ele>
        <time>2018-05-18T04:52:45Z</time>
      </trkpt>
      <trkpt lat="45.69511" lon="6.66495">
        <ele>1800</ele>
        <time>2018-05-18T04:53:45Z</time>
      </trkpt>
      <trkpt lat="45.69524" lon="6.66507">
        <ele>1795</ele>
        <time>2018-05-18T04:54:45Z</time>
      </trkpt>
      <trkpt lat="45.69532" lon="6.66513">
        <ele>1794</ele>
        <time>2018-05-18T04:55:45Z</time>
      </trkpt>
      <trkpt lat="45.69536" lon="6.66515">
        <ele>1794</ele>
        <time>2018-05-18T04:56:45Z</time>
      </trkpt>
      <trkpt lat="45.69538" lon="6.66515">
        <ele>1794</ele>
        <time>2018-05-18T04:57:45Z</time>
      </trkpt>
      <trkpt lat="45.6954" lon="6.66515">
        <ele>1794</ele>
        <time>2018-05-18T04:58:45Z</time>
      </trkpt>
      <trkpt lat="45.69543" lon="6.66515">
        <ele>1794</ele>
        <time>2018-05-18T04:59:45Z</time>
      </trkpt>
      <trkpt lat="45.69545" lon="6.66514">
        <ele>1794</ele>
        <time>2018-05-18T05:00:45Z</time>
      </trkpt>
      <trkpt lat="45.69547" lon="6.66513">
        <ele>1794</ele>
        <time>2018-05-18T05:01:45Z</time>
      </trkpt>
      <trkpt lat="45.6955" lon="6.66511">
        <ele>1793</ele>
        <time>2018-05-18T05:02:45Z</time>
      </trkpt>
      <trkpt lat="45.69553" lon="6.66509">
        <ele>1793</ele>
        <time>2018-05-18T05:03:45Z</time>
      </trkpt>
      <trkpt lat="45.69556" lon="6.66506">
        <ele>1793</ele>
        <time>2018-05-18T05:04:45Z</time>
      </trkpt>
      <trkpt lat="45.6956" lon="6.66502">
        <ele>1792</ele>
        <time>2018-05-18T05:05:45Z</time>
      </trkpt>
      <trkpt lat="45.69563" lon="6.66498">
        <ele>1796</ele>
        <time>2018-05-18T05:06:45Z</time>
      </trkpt>
      <trkpt lat="45.69567" lon="6.66493">
        <ele>1795</ele>
        <time>2018-05-18T05:07:45Z</time>
      </trkpt>
      <trkpt lat="45.6957" lon="6.66487">
        <ele>1795</ele>
        <time>2018-05-18T05:08:45Z</time>
      </trkpt>
      <trkpt lat="45.69574" lon="6.66477">
        <ele>1797</ele>
        <time>2018-05-18T05:09:45Z</time>
      </trkpt>
      <trkpt lat="45.69579" lon="6.66463">
        <ele>1799</ele>
        <time>2018-05-18T05:10:45Z</time>
      </trkpt>
      <trkpt lat="45.69581" lon="6.66457">
        <ele>1800</ele>
        <time>2018-05-18T05:11:45Z</time>
      </trkpt>
      <trkpt lat="45.69589" lon="6.66442">
        <ele>1791</ele>
        <time>2018-05-18T05:12:45Z</time>
      </trkpt>
      <trkpt lat="45.69603" lon="6.66421">
        <ele>1791</ele>
        <time>2018-05-18T05:13:45Z</time>
      </trkpt>
      <trkpt lat="45.69613" lon="6.66408">
        <ele>1783</ele>
        <time>2018-05-18T05:14:45Z</time>
      </trkpt>
      <trkpt lat="45.69621" lon="6.66395">
        <ele>1779</ele>
        <time>2018-05-18T05:15:45Z</time>
      </trkpt>
      <trkpt lat="45.69626" lon="6.66387">
        <ele>1777</ele>
        <time>2018-05-18T05:16:45Z</time>
      </trkpt>
      <trkpt lat="45.69628" lon="6.6638">
        <ele>1776</ele>
        <time>2018-05-18T05:17:45Z</time>
      </trkpt>
      <trkpt lat="45.6963" lon="6.66372">
        <ele>1775</ele>
        <time>2018-05-18T05:18:45Z</time>
      </trkpt>
      <trkpt lat="45.6963" lon="6.66362">
        <ele>1775</ele>
        <time>2018-05-18T05:19:45Z</time>
      </trkpt>
      <trkpt lat="45.6963" lon="6.66353">
        <ele>1775</ele>
        <time>2018-05-18T05:20:45Z</time>
      </trkpt>
      <trkpt lat="45.6963" lon="6.66331">
        <ele>1772</ele>
        <time>2018-05-18T05:21:45Z</time>
      </trkpt>
      <trkpt lat="45.69628" lon="6.66298">
        <ele>1774</ele>
        <time>2018-05-18T05:22:45Z</time>
      </trkpt>
      <trkpt lat="45.69625" lon="6.66271">
        <ele>1774</ele>
        <time>2018-05-18T05:23:45Z</time>
      </trkpt>
      <trkpt lat="45.6962" lon="6.66255">
        <ele>1777</ele>
        <time>2018-05-18T05:24:45Z</time>
      </trkpt>
      <trkpt lat="45.69616" lon="6.66238">
        <ele>1769</ele>
        <time>2018-05-18T05:25:45Z</time>
      </trkpt>
      <trkpt lat="45.69614" lon="6.66226">
        <ele>1768</ele>
        <time>2018-05-18T05:26:45Z</time>
      </trkpt>
      <trkpt lat="45.69612" lon="6.66213">
        <ele>1766</ele>
        <time>2018-05-18T05:27:45Z</time>
      </trkpt>
      <trkpt lat="45.69609" lon="6.66203">
        <ele>1765</ele>
        <time>2018-05-18T05:28:45Z</time>
      </trkpt>
      <trkpt lat="45.69605" lon="6.66189">
        <ele>1765</ele>
        <time>2018-05-18T05:29:45Z</time>
      </trkpt>
      <trkpt lat="45.69599" lon="6.66175">
        <ele>1768</ele>
        <time>2018-05-18T05:30:45Z</time>
      </trkpt>
      <trkpt lat="45.6959" lon="6.6615">
        <ele>1758</ele>
        <time>2018-05-18T05:31:45Z</time>
      </trkpt>
      <trkpt lat="45.69586" lon="6.66141">
        <ele>1754</ele>
        <time>2018-05-18T05:32:45Z</time>
      </trkpt>
      <trkpt lat="45.6958" lon="6.6613">
        <ele>1775</ele>
        <time>2018-05-18T05:33:45Z</time>
      </trkpt>
      <trkpt lat="45.69572" lon="6.66114">
        <ele>1771</ele>
        <time>2018-05-18T05:34:45Z</time>
      </trkpt>
      <trkpt lat="45.69553" lon="6.66072">
        <ele>1752</ele>
        <time>2018-05-18T05:35:45Z</time>
      </trkpt>
      <trkpt lat="45.69537" lon="6.66043">
        <ele>1752</ele>
        <time>2018-05-18T05:36:45Z</time>
      </trkpt>
      <trkpt lat="45.69533" lon="6.66037">
        <ele>1751</ele>
        <time>2018-05-18T05:37:45Z</time>
      </trkpt>
      <trkpt lat="45.69526" lon="6.66028">
        <ele>1751</ele>
        <time>2018-05-18T05:38:45Z</time>
      </trkpt>
      <trkpt lat="45.69492" lon="6.65997">
        <ele>1749</ele>
        <time>2018-05-18T05:39:45Z</time>
      </trkpt>
      <trkpt lat="45.69465" lon="6.65974">
        <ele>1749</ele>
        <time>2018-05-18T05:40:45Z</time>
      </trkpt>
      <trkpt lat="45.69447" lon="6.65956">
        <ele>1748</ele>
        <time>2018-05-18T05:41:45Z</time>
      </trkpt>
      <trkpt lat="45.69434" lon="6.6594">
        <ele>1747</ele>
        <time>2018-05-18T05:42:45Z</time>
      </trkpt>
      <trkpt lat="45.69431" lon="6.65936">
        <ele>1746</ele>
        <time>2018-05-18T05:43:45Z</time>
      </trkpt>
      <trkpt lat="45.69426" lon="6.65929">
        <ele>1745</ele>
        <time>2018-05-18T05:44:45Z</time>
      </trkpt>
      <trkpt lat="45.69421" lon="6.65923">
        <ele>1744</ele>
        <time>2018-05-18T05:45:45Z</time>
      </trkpt>
      <trkpt lat="45.69394" lon="6.65886">
        <ele>1744</ele>
        <time>2018-05-18T05:46:45Z</time>
      </trkpt>
      <trkpt lat="45.69383" lon="6.6587">
        <ele>1743</ele>
        <time>2018-05-18T05:47:45Z</time>
      </trkpt>
      <trkpt lat="45.69376" lon="6.65857">
        <ele>1742</ele>
        <time>2018-05-18T05:48:45Z</time>
      </trkpt>
      <trkpt lat="45.69364" lon="6.65838">
        <ele>1743</ele>
        <time>2018-05-18T05:49:45Z</time>
      </trkpt>
      <trkpt lat="45.69355" lon="6.65824">
        <ele>1726</ele>
        <time>2018-05-18T05:50:45Z</time>
      </trkpt>
      <trkpt lat="45.69347" lon="6.65812">
        <ele>1726</ele>
        <time>2018-05-18T05:51:45Z</time>
      </trkpt>
      <trkpt lat="45.69338" lon="6.658">
        <ele>1722</ele>
        <time>2018-05-18T05:52:45Z</time>
      </trkpt>
      <trkpt lat="45.69332" lon="6.65794">
        <ele>1748</ele>
        <time>2018-05-18T05:53:45Z</time>
      </trkpt>
      <trkpt lat="45.69327" lon="6.65787">
        <ele>1747</ele>
        <time>2018-05-18T05:54:45Z</time>
      </trkpt>
      <trkpt lat="45.69318" lon="6.65771">
        <ele>1742</ele>
        <time>2018-05-18T05:55:45Z</time>
      </trkpt>
      <trkpt lat="45.69305" lon="6.65742">
        <ele>1722</ele>
        <time>2018-05-18T05:56:45Z</time>
      </trkpt>
      <trkpt lat="45.69301" lon="6.65735">
        <ele>1722</ele>
        <time>2018-05-18T05:57:45Z</time>
      </trkpt>
      <trkpt lat="45.69297" lon="6.65727">
        <ele>1722</ele>
        <time>2018-05-18T05:58:45Z</time>
      </trkpt>
      <trkpt lat="45.69289" lon="6.65715">
        <ele>1722</ele>
        <time>2018-05-18T05:59:45Z</time>
      </trkpt>
      <trkpt lat="45.69282" lon="6.65706">
        <ele>1722</ele>
        <time>2018-05-18T06:00:45Z</time>
      </trkpt>
      <trkpt lat="45.69279" lon="6.65699">
        <ele>1722</ele>
        <time>2018-05-18T06:01:45Z</time>
      </trkpt>
      <trkpt lat="45.69272" lon="6.65686">
        <ele>1721</ele>
        <time>2018-05-18T06:02:45Z</time>
      </trkpt>
      <trkpt lat="45.69267" lon="6.65676">
        <ele>1722</ele>
        <time>2018-05-18T06:03:45Z</time>
      </trkpt>
      <trkpt lat="45.69258" lon="6.65661">
        <ele>1713</ele>
        <time>2018-05-18T06:04:45Z</time>
      </trkpt>
      <trkpt lat="45.69248" lon="6.65643">
        <ele>1726</ele>
        <time>2018-05-18T06:05:45Z</time>
      </trkpt>
      <trkpt lat="45.69239" lon="6.65629">
        <ele>1725</ele>
        <time>2018-05-18T06:06:45Z</time>
      </trkpt>
      <trkpt lat="45.69232" lon="6.65617">
        <ele>1723</ele>
        <time>2018-05-18T06:07:45Z</time>
      </trkpt>
      <trkpt lat="45.69228" lon="6.65607">
        <ele>1721</ele>
        <time>2018-05-18T06:08:45Z</time>
      </trkpt>
      <trkpt lat="45.69218" lon="6.65584">
        <ele>1721</ele>
        <time>2018-05-18T06:09:45Z</time>
      </trkpt>
      <trkpt lat="45.69208" lon="6.65563">
        <ele>1708</ele>
        <time>2018-05-18T06:10:45Z</time>
      </trkpt>
      <trkpt lat="45.69201" lon="6.6554">
        <ele>1706</ele>
        <time>2018-05-18T06:11:45Z</time>
      </trkpt>
      <trkpt lat="45.69191" lon="6.65513">
        <ele>1706</ele>
        <time>2018-05-18T06:12:45Z</time>
      </trkpt>
      <trkpt lat="45.69187" lon="6.65503">
        <ele>1706</ele>
        <time>2018-05-18T06:13:45Z</time>
      </trkpt>
      <trkpt lat="45.69183" lon="6.6549">
        <ele>1695</ele>
        <time>2018-05-18T06:14:45Z</time>
      </trkpt>
      <trkpt lat="45.69177" lon="6.65476">
        <ele>1692</ele>
        <time>2018-05-18T06:15:45Z</time>
      </trkpt>
      <trkpt lat="45.69169" lon="6.65463">
        <ele>1689</ele>
        <time>2018-05-18T06:16:45Z</time>
      </trkpt>
      <trkpt lat="45.69143" lon="6.65421">
        <ele>1704</ele>
        <time>2018-05-18T06:17:45Z</time>
      </trkpt>
      <trkpt lat="45.6913" lon="6.654">
        <ele>1689</ele>
        <time>2018-05-18T06:18:45Z</time>
      </trkpt>
      <trkpt lat="45.69125" lon="6.65393">
        <ele>1689</ele>
        <time>2018-05-18T06:19:45Z</time>
      </trkpt>
      <trkpt lat="45.69119" lon="6.65388">
        <ele>1689</ele>
        <time>2018-05-18T06:20:45Z</time>
      </trkpt>
      <trkpt lat="45.69116" lon="6.65386">
        <ele>1689</ele>
        <time>2018-05-18T06:21:45Z</time>
      </trkpt>
      <trkpt lat="45.69112" lon="6.65384">
        <ele>1690</ele>
        <time>2018-05-18T06:22:45Z</time>
      </trkpt>
      <trkpt lat="45.69111" lon="6.65382">
        <ele>1689</ele>
        <time>2018-05-18T06:23:45Z</time>
      </trkpt>
      <trkpt lat="45.69109" lon="6.65379">
        <ele>1689</ele>
        <time>2018-05-18T06:24:45Z</time>
      </trkpt>
      <trkpt lat="45.69109" lon="6.65374">
        <ele>1688</ele>
        <time>2018-05-18T06:25:45Z</time>
      </trkpt>
      <trkpt lat="45.69109" lon="6.6537">
        <ele>1687</ele>
        <time>2018-05-18T06:26:45Z</time>
      </trkpt>
      <trkpt lat="45.69111" lon="6.65366">
        <ele>1686</ele>
        <time>2018-05-18T06:27:45Z</time>
      </trkpt>
      <trkpt lat="45.69113" lon="6.65363">
        <ele>1686</ele>
        <time>2018-05-18T06:28:45Z</time>
      </trkpt>
      <trkpt lat="45.69116" lon="6.65362">
        <ele>1685</ele>
        <time>2018-05-18T06:29:45Z</time>
      </trkpt>
      <trkpt lat="45.69118" lon="6.65361">
        <ele>1685</ele>
        <time>2018-05-18T06:30:45Z</time>
      </trkpt>
      <trkpt lat="45.69121" lon="6.65362">
        <ele>1684</ele>
        <time>2018-05-18T06:31:45Z</time>
      </trkpt>
      <trkpt lat="45.69122" lon="6.65363">
        <ele>1684</ele>
        <time>2018-05-18T06:32:45Z</time>
      </trkpt>
      <trkpt lat="45.69125" lon="6.65369">
        <ele>1685</ele>
        <time>2018-05-18T06:33:45Z</time>
      </trkpt>
      <trkpt lat="45.69128" lon="6.65375">
        <ele>1685</ele>
        <time>2018-05-18T06:34:45Z</time>
      </trkpt>
      <trkpt lat="45.69132" lon="6.65382">
        <ele>1686</ele>
        <time>2018-05-18T06:35:45Z</time>
      </trkpt>
      <trkpt lat="45.69142" lon="6.65395">
        <ele>1686</ele>
        <time>2018-05-18T06:36:45Z</time>
      </trkpt>
      <trkpt lat="45.69158" lon="6.65414">
        <ele>1687</ele>
        <time>2018-05-18T06:37:45Z</time>
      </trkpt>
      <trkpt lat="45.69198" lon="6.65457">
        <ele>1683</ele>
        <time>2018-05-18T06:38:45Z</time>
      </trkpt>
      <trkpt lat="45.69204" lon="6.65465">
        <ele>1683</ele>
        <time>2018-05-18T06:39:45Z</time>
      </trkpt>
      <trkpt lat="45.69211" lon="6.65474">
        <ele>1683</ele>
        <time>2018-05-18T06:40:45Z</time>
      </trkpt>
      <trkpt lat="45.69215" lon="6.65483">
        <ele>1683</ele>
        <time>2018-05-18T06:41:45Z</time>
      </trkpt>
      <trkpt lat="45.69245" lon="6.65532">
        <ele>1695</ele>
        <time>2018-05-18T06:42:45Z</time>
      </trkpt>
      <trkpt lat="45.69255" lon="6.65548">
        <ele>1676</ele>
        <time>2018-05-18T06:43:45Z</time>
      </trkpt>
      <trkpt lat="45.69265" lon="6.65558">
        <ele>1677</ele>
        <time>2018-05-18T06:44:45Z</time>
      </trkpt>
      <trkpt lat="45.69275" lon="6.65567">
        <ele>1676</ele>
        <time>2018-05-18T06:45:45Z</time>
      </trkpt>
      <trkpt lat="45.69301" lon="6.6559">
        <ele>1684</ele>
        <time>2018-05-18T06:46:45Z</time>
      </trkpt>
      <trkpt lat="45.69329" lon="6.65617">
        <ele>1684</ele>
        <time>2018-05-18T06:47:45Z</time>
      </trkpt>
      <trkpt lat="45.69335" lon="6.65624">
        <ele>1664</ele>
        <time>2018-05-18T06:48:45Z</time>
      </trkpt>
      <trkpt lat="45.6934" lon="6.65631">
        <ele>1665</ele>
        <time>2018-05-18T06:49:45Z</time>
      </trkpt>
      <trkpt lat="45.69343" lon="6.65636">
        <ele>1665</ele>
        <time>2018-05-18T06:50:45Z</time>
      </trkpt>
      <trkpt lat="45.69358" lon="6.65656">
        <ele>1666</ele>
        <time>2018-05-18T06:51:45Z</time>
      </trkpt>
      <trkpt lat="45.69363" lon="6.65663">
        <ele>1665</ele>
        <time>2018-05-18T06:52:45Z</time>
      </trkpt>
      <trkpt lat="45.69367" lon="6.65668">
        <ele>1678</ele>
        <time>2018-05-18T06:53:45Z</time>
      </trkpt>
      <trkpt lat="45.69376" lon="6.65675">
        <ele>1676</ele>
        <time>2018-05-18T06:54:45Z</time>
      </trkpt>
      <trkpt lat="45.69386" lon="6.65686">
        <ele>1674</ele>
        <time>2018-05-18T06:55:45Z</time>
      </trkpt>
      <trkpt lat="45.69393" lon="6.65696">
        <ele>1675</ele>
        <time>2018-05-18T06:56:45Z</time>
      </trkpt>
      <trkpt lat="45.694" lon="6.65707">
        <ele>1677</ele>
        <time>2018-05-18T06:57:45Z</time>
      </trkpt>
      <trkpt lat="45.69402" lon="6.65715">
        <ele>1678</ele>
        <time>2018-05-18T06:58:45Z</time>
      </trkpt>
      <trkpt lat="45.69407" lon="6.65729">
        <ele>1681</ele>
        <time>2018-05-18T06:59:45Z</time>
      </trkpt>
      <trkpt lat="45.69411" lon="6.65742">
        <ele>1682</ele>
        <time>2018-05-18T07:00:45Z</time>
      </trkpt>
      <trkpt lat="45.69414" lon="6.6575">
        <ele>1682</ele>
        <time>2018-05-18T07:01:45Z</time>
      </trkpt>
      <trkpt lat="45.69418" lon="6.65755">
        <ele>1682</ele>
        <time>2018-05-18T07:02:45Z</time>
      </trkpt>
      <trkpt lat="45.69424" lon="6.65762">
        <ele>1682</ele>
        <time>2018-05-18T07:03:45Z</time>
      </trkpt>
      <trkpt lat="45.69426" lon="6.65763">
        <ele>1682</ele>
        <time>2018-05-18T07:04:45Z</time>
      </trkpt>
      <trkpt lat="45.69447" lon="6.65774">
        <ele>1680</ele>
        <time>2018-05-18T07:05:45Z</time>
      </trkpt>
      <trkpt lat="45.69459" lon="6.65778">
        <ele>1679</ele>
        <time>2018-05-18T07:06:45Z</time>
      </trkpt>
      <trkpt lat="45.69467" lon="6.6578">
        <ele>1678</ele>
        <time>2018-05-18T07:07:45Z</time>
      </trkpt>
      <trkpt lat="45.69473" lon="6.65781">
        <ele>1677</ele>
        <time>2018-05-18T07:08:45Z</time>
      </trkpt>
      <trkpt lat="45.69482" lon="6.65782">
        <ele>1675</ele>
        <time>2018-05-18T07:09:45Z</time>
      </trkpt>
      <trkpt lat="45.6949" lon="6.65784">
        <ele>1674</ele>
        <time>2018-05-18T07:10:45Z</time>
      </trkpt>
      <trkpt lat="45.69502" lon="6.65787">
        <ele>1661</ele>
        <time>2018-05-18T07:11:45Z</time>
      </trkpt>
      <trkpt lat="45.69532" lon="6.65793">
        <ele>1660</ele>
        <time>2018-05-18T07:12:45Z</time>
      </trkpt>
      <trkpt lat="45.69546" lon="6.65797">
        <ele>1659</ele>
        <time>2018-05-18T07:13:45Z</time>
      </trkpt>
      <trkpt lat="45.69555" lon="6.65798">
        <ele>1659</ele>
        <time>2018-05-18T07:14:45Z</time>
      </trkpt>
      <trkpt lat="45.69563" lon="6.65798">
        <ele>1658</ele>
        <time>2018-05-18T07:15:45Z</time>
      </trkpt>
      <trkpt lat="45.69569" lon="6.65796">
        <ele>1657</ele>
        <time>2018-05-18T07:16:45Z</time>
      </trkpt>
      <trkpt lat="45.69575" lon="6.65792">
        <ele>1657</ele>
        <time>2018-05-18T07:17:45Z</time>
      </trkpt>
      <trkpt lat="45.6958" lon="6.65787">
        <ele>1655</ele>
        <time>2018-05-18T07:18:45Z</time>
      </trkpt>
      <trkpt lat="45.69586" lon="6.65779">
        <ele>1649</ele>
        <time>2018-05-18T07:19:45Z</time>
      </trkpt>
      <trkpt lat="45.69589" lon="6.65774">
        <ele>1648</ele>
        <time>2018-05-18T07:20:45Z</time>
      </trkpt>
      <trkpt lat="45.69593" lon="6.65764">
        <ele>1647</ele>
        <time>2018-05-18T07:21:45Z</time>
      </trkpt>
      <trkpt lat="45.69596" lon="6.65752">
        <ele>1646</ele>
        <time>2018-05-18T07:22:45Z</time>
      </trkpt>
      <trkpt lat="45.69598" lon="6.65741">
        <ele>1640</ele>
        <time>2018-05-18T07:23:45Z</time>
      </trkpt>
      <trkpt lat="45.69599" lon="6.65731">
        <ele>1639</ele>
        <time>2018-05-18T07:24:45Z</time>
      </trkpt>
      <trkpt lat="45.69598" lon="6.6572">
        <ele>1639</ele>
        <time>2018-05-18T07:25:45Z</time>
      </trkpt>
      <trkpt lat="45.69594" lon="6.65707">
        <ele>1638</ele>
        <time>2018-05-18T07:26:45Z</time>
      </trkpt>
      <trkpt lat="45.6959" lon="6.65697">
        <ele>1637</ele>
        <time>2018-05-18T07:27:45Z</time>
      </trkpt>
      <trkpt lat="45.69583" lon="6.65688">
        <ele>1639</ele>
        <time>2018-05-18T07:28:45Z</time>
      </trkpt>
      <trkpt lat="45.69576" lon="6.65681">
        <ele>1639</ele>
        <time>2018-05-18T07:29:45Z</time>
      </trkpt>
      <trkpt lat="45.69566" lon="6.65677">
        <ele>1639</ele>
        <time>2018-05-18T07:30:45Z</time>
      </trkpt>
      <trkpt lat="45.6956" lon="6.65675">
        <ele>1639</ele>
        <time>2018-05-18T07:31:45Z</time>
      </trkpt>
      <trkpt lat="45.69552" lon="6.65675">
        <ele>1639</ele>
        <time>2018-05-18T07:32:45Z</time>
      </trkpt>
      <trkpt lat="45.69544" lon="6.65675">
        <ele>1639</ele>
        <time>2018-05-18T07:33:45Z</time>
      </trkpt>
      <trkpt lat="45.69525" lon="6.65679">
        <ele>1639</ele>
        <time>2018-05-18T07:34:45Z</time>
      </trkpt>
      <trkpt lat="45.695" lon="6.65683">
        <ele>1637</ele>
        <time>2018-05-18T07:35:45Z</time>
      </trkpt>
      <trkpt lat="45.69493" lon="6.65683">
        <ele>1643</ele>
        <time>2018-05-18T07:36:45Z</time>
      </trkpt>
      <trkpt lat="45.69486" lon="6.65682">
        <ele>1644</ele>
        <time>2018-05-18T07:37:45Z</time>
      </trkpt>
      <trkpt lat="45.69475" lon="6.65679">
        <ele>1646</ele>
        <time>2018-05-18T07:38:45Z</time>
      </trkpt>
      <trkpt lat="45.6947" lon="6.65676">
        <ele>1647</ele>
        <time>2018-05-18T07:39:45Z</time>
      </trkpt>
      <trkpt lat="45.69466" lon="6.65673">
        <ele>1647</ele>
        <time>2018-05-18T07:40:45Z</time>
      </trkpt>
      <trkpt lat="45.69462" lon="6.6567">
        <ele>1647</ele>
        <time>2018-05-18T07:41:45Z</time>
      </trkpt>
      <trkpt lat="45.69456" lon="6.65662">
        <ele>1636</ele>
        <time>2018-05-18T07:42:45Z</time>
      </trkpt>
      <trkpt lat="45.6945" lon="6.65651">
        <ele>1636</ele>
        <time>2018-05-18T07:43:45Z</time>
      </trkpt>
      <trkpt lat="45.69446" lon="6.65637">
        <ele>1636</ele>
        <time>2018-05-18T07:44:45Z</time>
      </trkpt>
      <trkpt lat="45.69443" lon="6.65622">
        <ele>1635</ele>
        <time>2018-05-18T07:45:45Z</time>
      </trkpt>
      <trkpt lat="45.69442" lon="6.65611">
        <ele>1635</ele>
        <time>2018-05-18T07:46:45Z</time>
      </trkpt>
      <trkpt lat="45.69442" lon="6.656">
        <ele>1634</ele>
        <time>2018-05-18T07:47:45Z</time>
      </trkpt>
      <trkpt lat="45.69443" lon="6.6559">
        <ele>1634</ele>
        <time>2018-05-18T07:48:45Z</time>
      </trkpt>
      <trkpt lat="45.69444" lon="6.65582">
        <ele>1628</ele>
        <time>2018-05-18T07:49:45Z</time>
      </trkpt>
      <trkpt lat="45.69446" lon="6.65574">
        <ele>1627</ele>
        <time>2018-05-18T07:50:45Z</time>
      </trkpt>
      <trkpt lat="45.69453" lon="6.65564">
        <ele>1626</ele>
        <time>2018-05-18T07:51:45Z</time>
      </trkpt>
      <trkpt lat="45.69456" lon="6.6556">
        <ele>1625</ele>
        <time>2018-05-18T07:52:45Z</time>
      </trkpt>
      <trkpt lat="45.6946" lon="6.65555">
        <ele>1624</ele>
        <time>2018-05-18T07:53:45Z</time>
      </trkpt>
      <trkpt lat="45.69464" lon="6.6555">
        <ele>1624</ele>
        <time>2018-05-18T07:54:45Z</time>
      </trkpt>
      <trkpt lat="45.69468" lon="6.65547">
        <ele>1623</ele>
        <time>2018-05-18T07:55:45Z</time>
      </trkpt>
      <trkpt lat="45.69475" lon="6.65544">
        <ele>1622</ele>
        <time>2018-05-18T07:56:45Z</time>
      </trkpt>
      <trkpt lat="45.69477" lon="6.65544">
        <ele>1622</ele>
        <time>2018-05-18T07:57:45Z</time>
      </trkpt>
      <trkpt lat="45.69486" lon="6.65542">
        <ele>1621</ele>
        <time>2018-05-18T07:58:45Z</time>
      </trkpt>
      <trkpt lat="45.69492" lon="6.65542">
        <ele>1621</ele>
        <time>2018-05-18T07:59:45Z</time>
      </trkpt>
      <trkpt lat="45.69498" lon="6.65543">
        <ele>1621</ele>
        <time>2018-05-18T08:00:45Z</time>
      </trkpt>
      <trkpt lat="45.69507" lon="6.65546">
        <ele>1614</ele>
        <time>2018-05-18T08:01:45Z</time>
      </trkpt>
      <trkpt lat="45.69532" lon="6.65554">
        <ele>1614</ele>
        <time>2018-05-18T08:02:45Z</time>
      </trkpt>
      <trkpt lat="45.69579" lon="6.65572">
        <ele>1616</ele>
        <time>2018-05-18T08:03:45Z</time>
      </trkpt>
      <trkpt lat="45.69652" lon="6.65605">
        <ele>1614</ele>
        <time>2018-05-18T08:04:45Z</time>
      </trkpt>
      <trkpt lat="45.69713" lon="6.65633">
        <ele>1606</ele>
        <time>2018-05-18T08:05:45Z</time>
      </trkpt>
      <trkpt lat="45.69722" lon="6.65636">
        <ele>1605</ele>
        <time>2018-05-18T08:06:45Z</time>
      </trkpt>
      <trkpt lat="45.69727" lon="6.65637">
        <ele>1605</ele>
        <time>2018-05-18T08:07:45Z</time>
      </trkpt>
      <trkpt lat="45.69738" lon="6.65639">
        <ele>1605</ele>
        <time>2018-05-18T08:08:45Z</time>
      </trkpt>
      <trkpt lat="45.69749" lon="6.6564">
        <ele>1604</ele>
        <time>2018-05-18T08:09:45Z</time>
      </trkpt>
      <trkpt lat="45.69761" lon="6.6564">
        <ele>1598</ele>
        <time>2018-05-18T08:10:45Z</time>
      </trkpt>
      <trkpt lat="45.69773" lon="6.65639">
        <ele>1597</ele>
        <time>2018-05-18T08:11:45Z</time>
      </trkpt>
      <trkpt lat="45.69783" lon="6.65637">
        <ele>1597</ele>
        <time>2018-05-18T08:12:45Z</time>
      </trkpt>
      <trkpt lat="45.69794" lon="6.65632">
        <ele>1596</ele>
        <time>2018-05-18T08:13:45Z</time>
      </trkpt>
      <trkpt lat="45.69804" lon="6.65627">
        <ele>1595</ele>
        <time>2018-05-18T08:14:45Z</time>
      </trkpt>
      <trkpt lat="45.69815" lon="6.65618">
        <ele>1594</ele>
        <time>2018-05-18T08:15:45Z</time>
      </trkpt>
      <trkpt lat="45.69828" lon="6.65602">
        <ele>1591</ele>
        <time>2018-05-18T08:16:45Z</time>
      </trkpt>
      <trkpt lat="45.69864" lon="6.65553">
        <ele>1587</ele>
        <time>2018-05-18T08:17:45Z</time>
      </trkpt>
      <trkpt lat="45.69873" lon="6.65542">
        <ele>1587</ele>
        <time>2018-05-18T08:18:45Z</time>
      </trkpt>
      <trkpt lat="45.69881" lon="6.65536">
        <ele>1587</ele>
        <time>2018-05-18T08:19:45Z</time>
      </trkpt>
      <trkpt lat="45.69887" lon="6.65532">
        <ele>1587</ele>
        <time>2018-05-18T08:20:45Z</time>
      </trkpt>
      <trkpt lat="45.69903" lon="6.65528">
        <ele>1587</ele>
        <time>2018-05-18T08:21:45Z</time>
      </trkpt>
      <trkpt lat="45.69926" lon="6.65525">
        <ele>1598</ele>
        <time>2018-05-18T08:22:45Z</time>
      </trkpt>
      <trkpt lat="45.69934" lon="6.65521">
        <ele>1599</ele>
        <time>2018-05-18T08:23:45Z</time>
      </trkpt>
      <trkpt lat="45.69941" lon="6.65517">
        <ele>1600</ele>
        <time>2018-05-18T08:24:45Z</time>
      </trkpt>
      <trkpt lat="45.69949" lon="6.65511">
        <ele>1601</ele>
        <time>2018-05-18T08:25:45Z</time>
      </trkpt>
      <trkpt lat="45.69955" lon="6.65502">
        <ele>1602</ele>
        <time>2018-05-18T08:26:45Z</time>
      </trkpt>
      <trkpt lat="45.69961" lon="6.65492">
        <ele>1592</ele>
        <time>2018-05-18T08:27:45Z</time>
      </trkpt>
      <trkpt lat="45.69986" lon="6.65418">
        <ele>1592</ele>
        <time>2018-05-18T08:28:45Z</time>
      </trkpt>
      <trkpt lat="45.7" lon="6.65387">
        <ele>1603</ele>
        <time>2018-05-18T08:29:45Z</time>
      </trkpt>
      <trkpt lat="45.70019" lon="6.65356">
        <ele>1603</ele>
        <time>2018-05-18T08:30:45Z</time>
      </trkpt>
      <trkpt lat="45.70022" lon="6.6535">
        <ele>1603</ele>
        <time>2018-05-18T08:31:45Z</time>
      </trkpt>
      <trkpt lat="45.70025" lon="6.65345">
        <ele>1603</ele>
        <time>2018-05-18T08:32:45Z</time>
      </trkpt>
      <trkpt lat="45.70028" lon="6.65339">
        <ele>1604</ele>
        <time>2018-05-18T08:33:45Z</time>
      </trkpt>
      <trkpt lat="45.70031" lon="6.65333">
        <ele>1601</ele>
        <time>2018-05-18T08:34:45Z</time>
      </trkpt>
      <trkpt lat="45.70033" lon="6.65325">
        <ele>1602</ele>
        <time>2018-05-18T08:35:45Z</time>
      </trkpt>
      <trkpt lat="45.70035" lon="6.65319">
        <ele>1603</ele>
        <time>2018-05-18T08:36:45Z</time>
      </trkpt>
      <trkpt lat="45.70037" lon="6.65309">
        <ele>1603</ele>
        <time>2018-05-18T08:37:45Z</time>
      </trkpt>
      <trkpt lat="45.70038" lon="6.65303">
        <ele>1604</ele>
        <time>2018-05-18T08:38:45Z</time>
      </trkpt>
      <trkpt lat="45.70039" lon="6.65297">
        <ele>1604</ele>
        <time>2018-05-18T08:39:45Z</time>
      </trkpt>
      <trkpt lat="45.70039" lon="6.65292">
        <ele>1604</ele>
        <time>2018-05-18T08:40:45Z</time>
      </trkpt>
      <trkpt lat="45.70039" lon="6.65288">
        <ele>1604</ele>
        <time>2018-05-18T08:41:45Z</time>
      </trkpt>
      <trkpt lat="45.70039" lon="6.65281">
        <ele>1604</ele>
        <time>2018-05-18T08:42:45Z</time>
      </trkpt>
      <trkpt lat="45.70039" lon="6.65274">
        <ele>1603</ele>
        <time>2018-05-18T08:43:45Z</time>
      </trkpt>
      <trkpt lat="45.70038" lon="6.65267">
        <ele>1603</ele>
        <time>2018-05-18T08:44:45Z</time>
      </trkpt>
      <trkpt lat="45.70033" lon="6.65234">
        <ele>1602</ele>
        <time>2018-05-18T08:45:45Z</time>
      </trkpt>
      <trkpt lat="45.70032" lon="6.65228">
        <ele>1602</ele>
        <time>2018-05-18T08:46:45Z</time>
      </trkpt>
      <trkpt lat="45.70031" lon="6.65221">
        <ele>1602</ele>
        <time>2018-05-18T08:47:45Z</time>
      </trkpt>
      <trkpt lat="45.70031" lon="6.65215">
        <ele>1602</ele>
        <time>2018-05-18T08:48:45Z</time>
      </trkpt>
      <trkpt lat="45.7003" lon="6.6521">
        <ele>1602</ele>
        <time>2018-05-18T08:49:45Z</time>
      </trkpt>
      <trkpt lat="45.7003" lon="6.65199">
        <ele>1602</ele>
        <time>2018-05-18T08:50:45Z</time>
      </trkpt>
      <trkpt lat="45.70031" lon="6.65185">
        <ele>1602</ele>
        <time>2018-05-18T08:51:45Z</time>
      </trkpt>
      <trkpt lat="45.70033" lon="6.65164">
        <ele>1604</ele>
        <time>2018-05-18T08:52:45Z</time>
      </trkpt>
      <trkpt lat="45.70033" lon="6.65157">
        <ele>1605</ele>
        <time>2018-05-18T08:53:45Z</time>
      </trkpt>
      <trkpt lat="45.70033" lon="6.6515">
        <ele>1605</ele>
        <time>2018-05-18T08:54:45Z</time>
      </trkpt>
      <trkpt lat="45.70033" lon="6.65135">
        <ele>1606</ele>
        <time>2018-05-18T08:55:45Z</time>
      </trkpt>
      <trkpt lat="45.70032" lon="6.65127">
        <ele>1606</ele>
        <time>2018-05-18T08:56:45Z</time>
      </trkpt>
      <trkpt lat="45.70031" lon="6.6512">
        <ele>1606</ele>
        <time>2018-05-18T08:57:45Z</time>
      </trkpt>
      <trkpt lat="45.7003" lon="6.6511">
        <ele>1606</ele>
        <time>2018-05-18T08:58:45Z</time>
      </trkpt>
      <trkpt lat="45.70025" lon="6.65082">
        <ele>1604</ele>
        <time>2018-05-18T08:59:45Z</time>
      </trkpt>
      <trkpt lat="45.70025" lon="6.65077">
        <ele>1604</ele>
        <time>2018-05-18T09:00:45Z</time>
      </trkpt>
      <trkpt lat="45.70024" lon="6.65071">
        <ele>1604</ele>
        <time>2018-05-18T09:01:45Z</time>
      </trkpt>
      <trkpt lat="45.70024" lon="6.65064">
        <ele>1605</ele>
        <time>2018-05-18T09:02:45Z</time>
      </trkpt>
      <trkpt lat="45.70024" lon="6.65058">
        <ele>1605</ele>
        <time>2018-05-18T09:03:45Z</time>
      </trkpt>
      <trkpt lat="45.70025" lon="6.65051">
        <ele>1605</ele>
        <time>2018-05-18T09:04:45Z</time>
      </trkpt>
      <trkpt lat="45.70026" lon="6.65044">
        <ele>1606</ele>
        <time>2018-05-18T09:05:45Z</time>
      </trkpt>
      <trkpt lat="45.70028" lon="6.65038">
        <ele>1606</ele>
        <time>2018-05-18T09:06:45Z</time>
      </trkpt>
      <trkpt lat="45.70029" lon="6.65033">
        <ele>1606</ele>
        <time>2018-05-18T09:07:45Z</time>
      </trkpt>
      <trkpt lat="45.70031" lon="6.65027">
        <ele>1606</ele>
        <time>2018-05-18T09:08:45Z</time>
      </trkpt>
      <trkpt lat="45.70035" lon="6.65021">
        <ele>1606</ele>
        <time>2018-05-18T09:09:45Z</time>
      </trkpt>
      <trkpt lat="45.70037" lon="6.65018">
        <ele>1607</ele>
        <time>2018-05-18T09:10:45Z</time>
      </trkpt>
      <trkpt lat="45.70039" lon="6.65015">
        <ele>1607</ele>
        <time>2018-05-18T09:11:45Z</time>
      </trkpt>
      <trkpt lat="45.70041" lon="6.65012">
        <ele>1607</ele>
        <time>2018-05-18T09:12:45Z</time>
      </trkpt>
      <trkpt lat="45.70045" lon="6.65008">
        <ele>1607</ele>
        <time>2018-05-18T09:13:45Z</time>
      </trkpt>
      <trkpt lat="45.70049" lon="6.65004">
        <ele>1608</ele>
        <time>2018-05-18T09:14:45Z</time>
      </trkpt>
      <trkpt lat="45.70069" lon="6.64987">
        <ele>1607</ele>
        <time>2018-05-18T09:15:45Z</time>
      </trkpt>
      <trkpt lat="45.70076" lon="6.6498">
        <ele>1606</ele>
        <time>2018-05-18T09:16:45Z</time>
      </trkpt>
      <trkpt lat="45.70082" lon="6.64974">
        <ele>1606</ele>
        <time>2018-05-18T09:17:45Z</time>
      </trkpt>
      <trkpt lat="45.70087" lon="6.64968">
        <ele>1618</ele>
        <time>2018-05-18T09:18:45Z</time>
      </trkpt>
      <trkpt lat="45.70091" lon="6.64962">
        <ele>1619</ele>
        <time>2018-05-18T09:19:45Z</time>
      </trkpt>
      <trkpt lat="45.70095" lon="6.64955">
        <ele>1619</ele>
        <time>2018-05-18T09:20:45Z</time>
      </trkpt>
      <trkpt lat="45.70099" lon="6.64946">
        <ele>1618</ele>
        <time>2018-05-18T09:21:45Z</time>
      </trkpt>
      <trkpt lat="45.70104" lon="6.64934">
        <ele>1617</ele>
        <time>2018-05-18T09:22:45Z</time>
      </trkpt>
      <trkpt lat="45.70108" lon="6.64916">
        <ele>1618</ele>
        <time>2018-05-18T09:23:45Z</time>
      </trkpt>
      <trkpt lat="45.70109" lon="6.64897">
        <ele>1620</ele>
        <time>2018-05-18T09:24:45Z</time>
      </trkpt>
      <trkpt lat="45.70108" lon="6.64882">
        <ele>1621</ele>
        <time>2018-05-18T09:25:45Z</time>
      </trkpt>
      <trkpt lat="45.70107" lon="6.64869">
        <ele>1622</ele>
        <time>2018-05-18T09:26:45Z</time>
      </trkpt>
      <trkpt lat="45.70103" lon="6.64855">
        <ele>1622</ele>
        <time>2018-05-18T09:27:45Z</time>
      </trkpt>
      <trkpt lat="45.70097" lon="6.64841">
        <ele>1619</ele>
        <time>2018-05-18T09:28:45Z</time>
      </trkpt>
      <trkpt lat="45.70088" lon="6.64824">
        <ele>1622</ele>
        <time>2018-05-18T09:29:45Z</time>
      </trkpt>
      <trkpt lat="45.70073" lon="6.64804">
        <ele>1608</ele>
        <time>2018-05-18T09:30:45Z</time>
      </trkpt>
      <trkpt lat="45.70053" lon="6.64778">
        <ele>1608</ele>
        <time>2018-05-18T09:31:45Z</time>
      </trkpt>
      <trkpt lat="45.70046" lon="6.64767">
        <ele>1607</ele>
        <time>2018-05-18T09:32:45Z</time>
      </trkpt>
      <trkpt lat="45.7004" lon="6.64756">
        <ele>1606</ele>
        <time>2018-05-18T09:33:45Z</time>
      </trkpt>
      <trkpt lat="45.70033" lon="6.64742">
        <ele>1612</ele>
        <time>2018-05-18T09:34:45Z</time>
      </trkpt>
      <trkpt lat="45.69986" lon="6.64628">
        <ele>1595</ele>
        <time>2018-05-18T09:35:45Z</time>
      </trkpt>
      <trkpt lat="45.69977" lon="6.64601">
        <ele>1595</ele>
        <time>2018-05-18T09:36:45Z</time>
      </trkpt>
      <trkpt lat="45.69975" lon="6.64587">
        <ele>1595</ele>
        <time>2018-05-18T09:37:45Z</time>
      </trkpt>
      <trkpt lat="45.69976" lon="6.64573">
        <ele>1593</ele>
        <time>2018-05-18T09:38:45Z</time>
      </trkpt>
      <trkpt lat="45.6998" lon="6.64558">
        <ele>1592</ele>
        <time>2018-05-18T09:39:45Z</time>
      </trkpt>
      <trkpt lat="45.69989" lon="6.64543">
        <ele>1592</ele>
        <time>2018-05-18T09:40:45Z</time>
      </trkpt>
      <trkpt lat="45.70003" lon="6.6453">
        <ele>1607</ele>
        <time>2018-05-18T09:41:45Z</time>
      </trkpt>
      <trkpt lat="45.70044" lon="6.64498">
        <ele>1605</ele>
        <time>2018-05-18T09:42:45Z</time>
      </trkpt>
      <trkpt lat="45.70051" lon="6.64491">
        <ele>1606</ele>
        <time>2018-05-18T09:43:45Z</time>
      </trkpt>
      <trkpt lat="45.70057" lon="6.6448">
        <ele>1607</ele>
        <time>2018-05-18T09:44:45Z</time>
      </trkpt>
      <trkpt lat="45.70064" lon="6.64467">
        <ele>1607</ele>
        <time>2018-05-18T09:45:45Z</time>
      </trkpt>
      <trkpt lat="45.7007" lon="6.64449">
        <ele>1607</ele>
        <time>2018-05-18T09:46:45Z</time>
      </trkpt>
      <trkpt lat="45.70074" lon="6.64431">
        <ele>1608</ele>
        <time>2018-05-18T09:47:45Z</time>
      </trkpt>
      <trkpt lat="45.70073" lon="6.64414">
        <ele>1609</ele>
        <time>2018-05-18T09:48:45Z</time>
      </trkpt>
      <trkpt lat="45.70072" lon="6.64398">
        <ele>1607</ele>
        <time>2018-05-18T09:49:45Z</time>
      </trkpt>
      <trkpt lat="45.70068" lon="6.64383">
        <ele>1606</ele>
        <time>2018-05-18T09:50:45Z</time>
      </trkpt>
      <trkpt lat="45.70064" lon="6.64374">
        <ele>1606</ele>
        <time>2018-05-18T09:51:45Z</time>
      </trkpt>
      <trkpt lat="45.70058" lon="6.6436">
        <ele>1606</ele>
        <time>2018-05-18T09:52:45Z</time>
      </trkpt>
      <trkpt lat="45.7005" lon="6.64346">
        <ele>1605</ele>
        <time>2018-05-18T09:53:45Z</time>
      </trkpt>
      <trkpt lat="45.70042" lon="6.64327">
        <ele>1608</ele>
        <time>2018-05-18T09:54:45Z</time>
      </trkpt>
      <trkpt lat="45.70039" lon="6.64311">
        <ele>1607</ele>
        <time>2018-05-18T09:55:45Z</time>
      </trkpt>
      <trkpt lat="45.70029" lon="6.64244">
        <ele>1616</ele>
        <time>2018-05-18T09:56:45Z</time>
      </trkpt>
      <trkpt lat="45.70023" lon="6.64226">
        <ele>1617</ele>
        <time>2018-05-18T09:57:45Z</time>
      </trkpt>
      <trkpt lat="45.69995" lon="6.64154">
        <ele>1608</ele>
        <time>2018-05-18T09:58:45Z</time>
      </trkpt>
      <trkpt lat="45.69969" lon="6.64093">
        <ele>1611</ele>
        <time>2018-05-18T09:59:45Z</time>
      </trkpt>
      <trkpt lat="45.69957" lon="6.64072">
        <ele>1626</ele>
        <time>2018-05-18T10:00:45Z</time>
      </trkpt>
      <trkpt lat="45.69928" lon="6.64026">
        <ele>1626</ele>
        <time>2018-05-18T10:01:45Z</time>
      </trkpt>
      <trkpt lat="45.69819" lon="6.63878">
        <ele>1614</ele>
        <time>2018-05-18T10:02:45Z</time>
      </trkpt>
      <trkpt lat="45.69804" lon="6.63857">
        <ele>1617</ele>
        <time>2018-05-18T10:03:45Z</time>
      </trkpt>
      <trkpt lat="45.69792" lon="6.63843">
        <ele>1615</ele>
        <time>2018-05-18T10:04:45Z</time>
      </trkpt>
      <trkpt lat="45.69785" lon="6.63839">
        <ele>1614</ele>
        <time>2018-05-18T10:05:45Z</time>
      </trkpt>
      <trkpt lat="45.69724" lon="6.638">
        <ele>1609</ele>
        <time>2018-05-18T10:06:45Z</time>
      </trkpt>
      <trkpt lat="45.69696" lon="6.63776">
        <ele>1608</ele>
        <time>2018-05-18T10:07:45Z</time>
      </trkpt>
      <trkpt lat="45.6969" lon="6.63771">
        <ele>1607</ele>
        <time>2018-05-18T10:08:45Z</time>
      </trkpt>
      <trkpt lat="45.69675" lon="6.63749">
        <ele>1615</ele>
        <time>2018-05-18T10:09:45Z</time>
      </trkpt>
      <trkpt lat="45.69673" lon="6.63745">
        <ele>1615</ele>
        <time>2018-05-18T10:10:45Z</time>
      </trkpt>
      <trkpt lat="45.69655" lon="6.63708">
        <ele>1605</ele>
        <time>2018-05-18T10:11:45Z</time>
      </trkpt>
      <trkpt lat="45.69654" lon="6.63706">
        <ele>1606</ele>
        <time>2018-05-18T10:12:45Z</time>
      </trkpt>
      <trkpt lat="45.69648" lon="6.63695">
        <ele>1608</ele>
        <time>2018-05-18T10:13:45Z</time>
      </trkpt>
      <trkpt lat="45.6963" lon="6.63665">
        <ele>1626</ele>
        <time>2018-05-18T10:14:45Z</time>
      </trkpt>
      <trkpt lat="45.69587" lon="6.63623">
        <ele>1622</ele>
        <time>2018-05-18T10:15:45Z</time>
      </trkpt>
      <trkpt lat="45.69572" lon="6.63602">
        <ele>1604</ele>
        <time>2018-05-18T10:16:45Z</time>
      </trkpt>
      <trkpt lat="45.69566" lon="6.63592">
        <ele>1606</ele>
        <time>2018-05-18T10:17:45Z</time>
      </trkpt>
      <trkpt lat="45.69528" lon="6.63523">
        <ele>1617</ele>
        <time>2018-05-18T10:18:45Z</time>
      </trkpt>
      <trkpt lat="45.69518" lon="6.63502">
        <ele>1616</ele>
        <time>2018-05-18T10:19:45Z</time>
      </trkpt>
      <trkpt lat="45.69512" lon="6.6349">
        <ele>1619</ele>
        <time>2018-05-18T10:20:45Z</time>
      </trkpt>
      <trkpt lat="45.69504" lon="6.63466">
        <ele>1622</ele>
        <time>2018-05-18T10:21:45Z</time>
      </trkpt>
      <trkpt lat="45.69499" lon="6.63446">
        <ele>1608</ele>
        <time>2018-05-18T10:22:45Z</time>
      </trkpt>
      <trkpt lat="45.69495" lon="6.63408">
        <ele>1614</ele>
        <time>2018-05-18T10:23:45Z</time>
      </trkpt>
      <trkpt lat="45.69492" lon="6.63381">
        <ele>1611</ele>
        <time>2018-05-18T10:24:45Z</time>
      </trkpt>
      <trkpt lat="45.69491" lon="6.63352">
        <ele>1611</ele>
        <time>2018-05-18T10:25:45Z</time>
      </trkpt>
      <trkpt lat="45.69493" lon="6.63341">
        <ele>1613</ele>
        <time>2018-05-18T10:26:45Z</time>
      </trkpt>
      <trkpt lat="45.69496" lon="6.63332">
        <ele>1614</ele>
        <time>2018-05-18T10:27:45Z</time>
      </trkpt>
      <trkpt lat="45.69497" lon="6.63328">
        <ele>1614</ele>
        <time>2018-05-18T10:28:45Z</time>
      </trkpt>
      <trkpt lat="45.69499" lon="6.63323">
        <ele>1614</ele>
        <time>2018-05-18T10:29:45Z</time>
      </trkpt>
      <trkpt lat="45.69501" lon="6.63318">
        <ele>1615</ele>
        <time>2018-05-18T10:30:45Z</time>
      </trkpt>
      <trkpt lat="45.69504" lon="6.63313">
        <ele>1616</ele>
        <time>2018-05-18T10:31:45Z</time>
      </trkpt>
      <trkpt lat="45.69509" lon="6.63308">
        <ele>1616</ele>
        <time>2018-05-18T10:32:45Z</time>
      </trkpt>
      <trkpt lat="45.69511" lon="6.63305">
        <ele>1616</ele>
        <time>2018-05-18T10:33:45Z</time>
      </trkpt>
      <trkpt lat="45.69514" lon="6.63302">
        <ele>1616</ele>
        <time>2018-05-18T10:34:45Z</time>
      </trkpt>
      <trkpt lat="45.69519" lon="6.633">
        <ele>1616</ele>
        <time>2018-05-18T10:35:45Z</time>
      </trkpt>
      <trkpt lat="45.69523" lon="6.63297">
        <ele>1616</ele>
        <time>2018-05-18T10:36:45Z</time>
      </trkpt>
      <trkpt lat="45.69527" lon="6.63296">
        <ele>1616</ele>
        <time>2018-05-18T10:37:45Z</time>
      </trkpt>
      <trkpt lat="45.69533" lon="6.63295">
        <ele>1616</ele>
        <time>2018-05-18T10:38:45Z</time>
      </trkpt>
      <trkpt lat="45.69537" lon="6.63295">
        <ele>1616</ele>
        <time>2018-05-18T10:39:45Z</time>
      </trkpt>
      <trkpt lat="45.69541" lon="6.63296">
        <ele>1616</ele>
        <time>2018-05-18T10:40:45Z</time>
      </trkpt>
      <trkpt lat="45.69549" lon="6.63298">
        <ele>1616</ele>
        <time>2018-05-18T10:41:45Z</time>
      </trkpt>
      <trkpt lat="45.69557" lon="6.63301">
        <ele>1616</ele>
        <time>2018-05-18T10:42:45Z</time>
      </trkpt>
      <trkpt lat="45.69564" lon="6.63305">
        <ele>1616</ele>
        <time>2018-05-18T10:43:45Z</time>
      </trkpt>
      <trkpt lat="45.69574" lon="6.63312">
        <ele>1616</ele>
        <time>2018-05-18T10:44:45Z</time>
      </trkpt>
      <trkpt lat="45.69587" lon="6.63324">
        <ele>1613</ele>
        <time>2018-05-18T10:45:45Z</time>
      </trkpt>
      <trkpt lat="45.69593" lon="6.63328">
        <ele>1613</ele>
        <time>2018-05-18T10:46:45Z</time>
      </trkpt>
      <trkpt lat="45.69603" lon="6.63335">
        <ele>1616</ele>
        <time>2018-05-18T10:47:45Z</time>
      </trkpt>
      <trkpt lat="45.69619" lon="6.63343">
        <ele>1616</ele>
        <time>2018-05-18T10:48:45Z</time>
      </trkpt>
      <trkpt lat="45.69638" lon="6.6335">
        <ele>1614</ele>
        <time>2018-05-18T10:49:45Z</time>
      </trkpt>
      <trkpt lat="45.69651" lon="6.63357">
        <ele>1613</ele>
        <time>2018-05-18T10:50:45Z</time>
      </trkpt>
      <trkpt lat="45.69668" lon="6.63363">
        <ele>1606</ele>
        <time>2018-05-18T10:51:45Z</time>
      </trkpt>
      <trkpt lat="45.69681" lon="6.63371">
        <ele>1606</ele>
        <time>2018-05-18T10:52:45Z</time>
      </trkpt>
      <trkpt lat="45.69694" lon="6.63376">
        <ele>1606</ele>
        <time>2018-05-18T10:53:45Z</time>
      </trkpt>
      <trkpt lat="45.69716" lon="6.63384">
        <ele>1605</ele>
        <time>2018-05-18T10:54:45Z</time>
      </trkpt>
      <trkpt lat="45.69729" lon="6.63388">
        <ele>1605</ele>
        <time>2018-05-18T10:55:45Z</time>
      </trkpt>
      <trkpt lat="45.69735" lon="6.63388">
        <ele>1605</ele>
        <time>2018-05-18T10:56:45Z</time>
      </trkpt>
      <trkpt lat="45.6974" lon="6.63388">
        <ele>1605</ele>
        <time>2018-05-18T10:57:45Z</time>
      </trkpt>
      <trkpt lat="45.69768" lon="6.63382">
        <ele>1593</ele>
        <time>2018-05-18T10:58:45Z</time>
      </trkpt>
      <trkpt lat="45.69783" lon="6.6338">
        <ele>1591</ele>
        <time>2018-05-18T10:59:45Z</time>
      </trkpt>
      <trkpt lat="45.69801" lon="6.63385">
        <ele>1590</ele>
        <time>2018-05-18T11:00:45Z</time>
      </trkpt>
      <trkpt lat="45.69812" lon="6.63393">
        <ele>1591</ele>
        <time>2018-05-18T11:01:45Z</time>
      </trkpt>
      <trkpt lat="45.69826" lon="6.63406">
        <ele>1592</ele>
        <time>2018-05-18T11:02:45Z</time>
      </trkpt>
      <trkpt lat="45.69835" lon="6.63412">
        <ele>1591</ele>
        <time>2018-05-18T11:03:45Z</time>
      </trkpt>
      <trkpt lat="45.6985" lon="6.63418">
        <ele>1599</ele>
        <time>2018-05-18T11:04:45Z</time>
      </trkpt>
      <trkpt lat="45.69868" lon="6.63419">
        <ele>1600</ele>
        <time>2018-05-18T11:05:45Z</time>
      </trkpt>
      <trkpt lat="45.69894" lon="6.63418">
        <ele>1597</ele>
        <time>2018-05-18T11:06:45Z</time>
      </trkpt>
      <trkpt lat="45.69905" lon="6.63416">
        <ele>1585</ele>
        <time>2018-05-18T11:07:45Z</time>
      </trkpt>
      <trkpt lat="45.69914" lon="6.63412">
        <ele>1586</ele>
        <time>2018-05-18T11:08:45Z</time>
      </trkpt>
      <trkpt lat="45.69937" lon="6.63398">
        <ele>1579</ele>
        <time>2018-05-18T11:09:45Z</time>
      </trkpt>
      <trkpt lat="45.69947" lon="6.63388">
        <ele>1577</ele>
        <time>2018-05-18T11:10:45Z</time>
      </trkpt>
      <trkpt lat="45.69955" lon="6.63383">
        <ele>1576</ele>
        <time>2018-05-18T11:11:45Z</time>
      </trkpt>
      <trkpt lat="45.69966" lon="6.63381">
        <ele>1576</ele>
        <time>2018-05-18T11:12:45Z</time>
      </trkpt>
      <trkpt lat="45.69985" lon="6.63381">
        <ele>1576</ele>
        <time>2018-05-18T11:13:45Z</time>
      </trkpt>
      <trkpt lat="45.69997" lon="6.63384">
        <ele>1576</ele>
        <time>2018-05-18T11:14:45Z</time>
      </trkpt>
      <trkpt lat="45.70013" lon="6.63386">
        <ele>1573</ele>
        <time>2018-05-18T11:15:45Z</time>
      </trkpt>
      <trkpt lat="45.70036" lon="6.63385">
        <ele>1571</ele>
        <time>2018-05-18T11:16:45Z</time>
      </trkpt>
      <trkpt lat="45.7006" lon="6.63384">
        <ele>1570</ele>
        <time>2018-05-18T11:17:45Z</time>
      </trkpt>
      <trkpt lat="45.70087" lon="6.63384">
        <ele>1565</ele>
        <time>2018-05-18T11:18:45Z</time>
      </trkpt>
      <trkpt lat="45.70114" lon="6.63381">
        <ele>1563</ele>
        <time>2018-05-18T11:19:45Z</time>
      </trkpt>
      <trkpt lat="45.70144" lon="6.63378">
        <ele>1561</ele>
        <time>2018-05-18T11:20:45Z</time>
      </trkpt>
      <trkpt lat="45.70176" lon="6.63375">
        <ele>1555</ele>
        <time>2018-05-18T11:21:45Z</time>
      </trkpt>
      <trkpt lat="45.70221" lon="6.63367">
        <ele>1552</ele>
        <time>2018-05-18T11:22:45Z</time>
      </trkpt>
      <trkpt lat="45.70254" lon="6.63361">
        <ele>1546</ele>
        <time>2018-05-18T11:23:45Z</time>
      </trkpt>
      <trkpt lat="45.70307" lon="6.63344">
        <ele>1544</ele>
        <time>2018-05-18T11:24:45Z</time>
      </trkpt>
      <trkpt lat="45.70315" lon="6.63342">
        <ele>1543</ele>
        <time>2018-05-18T11:25:45Z</time>
      </trkpt>
      <trkpt lat="45.7033" lon="6.63344">
        <ele>1540</ele>
        <time>2018-05-18T11:26:45Z</time>
      </trkpt>
      <trkpt lat="45.70341" lon="6.63347">
        <ele>1540</ele>
        <time>2018-05-18T11:27:45Z</time>
      </trkpt>
      <trkpt lat="45.7036" lon="6.63353">
        <ele>1542</ele>
        <time>2018-05-18T11:28:45Z</time>
      </trkpt>
      <trkpt lat="45.70374" lon="6.63357">
        <ele>1543</ele>
        <time>2018-05-18T11:29:45Z</time>
      </trkpt>
      <trkpt lat="45.70391" lon="6.63356">
        <ele>1541</ele>
        <time>2018-05-18T11:30:45Z</time>
      </trkpt>
      <trkpt lat="45.70409" lon="6.63348">
        <ele>1536</ele>
        <time>2018-05-18T11:31:45Z</time>
      </trkpt>
      <trkpt lat="45.70417" lon="6.63345">
        <ele>1532</ele>
        <time>2018-05-18T11:32:45Z</time>
      </trkpt>
      <trkpt lat="45.70427" lon="6.63346">
        <ele>1533</ele>
        <time>2018-05-18T11:33:45Z</time>
      </trkpt>
      <trkpt lat="45.70434" lon="6.63348">
        <ele>1534</ele>
        <time>2018-05-18T11:34:45Z</time>
      </trkpt>
      <trkpt lat="45.70449" lon="6.63354">
        <ele>1535</ele>
        <time>2018-05-18T11:35:45Z</time>
      </trkpt>
      <trkpt lat="45.70464" lon="6.63357">
        <ele>1535</ele>
        <time>2018-05-18T11:36:45Z</time>
      </trkpt>
      <trkpt lat="45.70488" lon="6.63357">
        <ele>1532</ele>
        <time>2018-05-18T11:37:45Z</time>
      </trkpt>
      <trkpt lat="45.70506" lon="6.63356">
        <ele>1527</ele>
        <time>2018-05-18T11:38:45Z</time>
      </trkpt>
      <trkpt lat="45.70546" lon="6.63352">
        <ele>1527</ele>
        <time>2018-05-18T11:39:45Z</time>
      </trkpt>
      <trkpt lat="45.70584" lon="6.63343">
        <ele>1516</ele>
        <time>2018-05-18T11:40:45Z</time>
      </trkpt>
      <trkpt lat="45.70594" lon="6.6334">
        <ele>1517</ele>
        <time>2018-05-18T11:41:45Z</time>
      </trkpt>
      <trkpt lat="45.70623" lon="6.63336">
        <ele>1523</ele>
        <time>2018-05-18T11:42:45Z</time>
      </trkpt>
      <trkpt lat="45.7064" lon="6.6333">
        <ele>1501</ele>
        <time>2018-05-18T11:43:45Z</time>
      </trkpt>
      <trkpt lat="45.70658" lon="6.63319">
        <ele>1503</ele>
        <time>2018-05-18T11:44:45Z</time>
      </trkpt>
      <trkpt lat="45.70673" lon="6.63315">
        <ele>1497</ele>
        <time>2018-05-18T11:45:45Z</time>
      </trkpt>
      <trkpt lat="45.70697" lon="6.63312">
        <ele>1490</ele>
        <time>2018-05-18T11:46:45Z</time>
      </trkpt>
      <trkpt lat="45.70701" lon="6.63308">
        <ele>1488</ele>
        <time>2018-05-18T11:47:45Z</time>
      </trkpt>
      <trkpt lat="45.70702" lon="6.63303">
        <ele>1487</ele>
        <time>2018-05-18T11:48:45Z</time>
      </trkpt>
      <trkpt lat="45.70702" lon="6.63298">
        <ele>1485</ele>
        <time>2018-05-18T11:49:45Z</time>
      </trkpt>
      <trkpt lat="45.707" lon="6.63293">
        <ele>1484</ele>
        <time>2018-05-18T11:50:45Z</time>
      </trkpt>
      <trkpt lat="45.70697" lon="6.6329">
        <ele>1484</ele>
        <time>2018-05-18T11:51:45Z</time>
      </trkpt>
      <trkpt lat="45.70692" lon="6.63288">
        <ele>1484</ele>
        <time>2018-05-18T11:52:45Z</time>
      </trkpt>
      <trkpt lat="45.70684" lon="6.63289">
        <ele>1485</ele>
        <time>2018-05-18T11:53:45Z</time>
      </trkpt>
      <trkpt lat="45.70675" lon="6.63294">
        <ele>1488</ele>
        <time>2018-05-18T11:54:45Z</time>
      </trkpt>
      <trkpt lat="45.70656" lon="6.63303">
        <ele>1497</ele>
        <time>2018-05-18T11:55:45Z</time>
      </trkpt>
      <trkpt lat="45.70638" lon="6.63308">
        <ele>1497</ele>
        <time>2018-05-18T11:56:45Z</time>
      </trkpt>
      <trkpt lat="45.70631" lon="6.63311">
        <ele>1497</ele>
        <time>2018-05-18T11:57:45Z</time>
      </trkpt>
      <trkpt lat="45.70624" lon="6.63312">
        <ele>1496</ele>
        <time>2018-05-18T11:58:45Z</time>
      </trkpt>
      <trkpt lat="45.70612" lon="6.63313">
        <ele>1497</ele>
        <time>2018-05-18T11:59:45Z</time>
      </trkpt>
      <trkpt lat="45.70597" lon="6.6331">
        <ele>1497</ele>
        <time>2018-05-18T12:00:45Z</time>
      </trkpt>
      <trkpt lat="45.70554" lon="6.63303">
        <ele>1496</ele>
        <time>2018-05-18T12:01:45Z</time>
      </trkpt>
      <trkpt lat="45.7054" lon="6.633">
        <ele>1496</ele>
        <time>2018-05-18T12:02:45Z</time>
      </trkpt>
      <trkpt lat="45.70523" lon="6.63295">
        <ele>1495</ele>
        <time>2018-05-18T12:03:45Z</time>
      </trkpt>
      <trkpt lat="45.70512" lon="6.6329">
        <ele>1494</ele>
        <time>2018-05-18T12:04:45Z</time>
      </trkpt>
      <trkpt lat="45.70493" lon="6.63277">
        <ele>1496</ele>
        <time>2018-05-18T12:05:45Z</time>
      </trkpt>
      <trkpt lat="45.70486" lon="6.63271">
        <ele>1495</ele>
        <time>2018-05-18T12:06:45Z</time>
      </trkpt>
      <trkpt lat="45.70477" lon="6.6326">
        <ele>1494</ele>
        <time>2018-05-18T12:07:45Z</time>
      </trkpt>
      <trkpt lat="45.70469" lon="6.63255">
        <ele>1495</ele>
        <time>2018-05-18T12:08:45Z</time>
      </trkpt>
      <trkpt lat="45.70462" lon="6.63249">
        <ele>1472</ele>
        <time>2018-05-18T12:09:45Z</time>
      </trkpt>
      <trkpt lat="45.70452" lon="6.63243">
        <ele>1473</ele>
        <time>2018-05-18T12:10:45Z</time>
      </trkpt>
      <trkpt lat="45.70431" lon="6.6324">
        <ele>1477</ele>
        <time>2018-05-18T12:11:45Z</time>
      </trkpt>
      <trkpt lat="45.70416" lon="6.63239">
        <ele>1482</ele>
        <time>2018-05-18T12:12:45Z</time>
      </trkpt>
      <trkpt lat="45.70414" lon="6.63238">
        <ele>1482</ele>
        <time>2018-05-18T12:13:45Z</time>
      </trkpt>
      <trkpt lat="45.70407" lon="6.63234">
        <ele>1479</ele>
        <time>2018-05-18T12:14:45Z</time>
      </trkpt>
      <trkpt lat="45.70388" lon="6.63217">
        <ele>1473</ele>
        <time>2018-05-18T12:15:45Z</time>
      </trkpt>
      <trkpt lat="45.70376" lon="6.63212">
        <ele>1471</ele>
        <time>2018-05-18T12:16:45Z</time>
      </trkpt>
      <trkpt lat="45.70368" lon="6.6321">
        <ele>1471</ele>
        <time>2018-05-18T12:17:45Z</time>
      </trkpt>
      <trkpt lat="45.70358" lon="6.63209">
        <ele>1471</ele>
        <time>2018-05-18T12:18:45Z</time>
      </trkpt>
      <trkpt lat="45.70302" lon="6.63222">
        <ele>1474</ele>
        <time>2018-05-18T12:19:45Z</time>
      </trkpt>
      <trkpt lat="45.70295" lon="6.63222">
        <ele>1474</ele>
        <time>2018-05-18T12:20:45Z</time>
      </trkpt>
      <trkpt lat="45.70269" lon="6.63217">
        <ele>1473</ele>
        <time>2018-05-18T12:21:45Z</time>
      </trkpt>
      <trkpt lat="45.70237" lon="6.63208">
        <ele>1471</ele>
        <time>2018-05-18T12:22:45Z</time>
      </trkpt>
      <trkpt lat="45.70224" lon="6.63206">
        <ele>1470</ele>
        <time>2018-05-18T12:23:45Z</time>
      </trkpt>
      <trkpt lat="45.70192" lon="6.63203">
        <ele>1471</ele>
        <time>2018-05-18T12:24:45Z</time>
      </trkpt>
      <trkpt lat="45.70165" lon="6.63197">
        <ele>1474</ele>
        <time>2018-05-18T12:25:45Z</time>
      </trkpt>
      <trkpt lat="45.70151" lon="6.63192">
        <ele>1474</ele>
        <time>2018-05-18T12:26:45Z</time>
      </trkpt>
      <trkpt lat="45.70118" lon="6.63173">
        <ele>1475</ele>
        <time>2018-05-18T12:27:45Z</time>
      </trkpt>
      <trkpt lat="45.70093" lon="6.63157">
        <ele>1458</ele>
        <time>2018-05-18T12:28:45Z</time>
      </trkpt>
      <trkpt lat="45.70067" lon="6.6313">
        <ele>1463</ele>
        <time>2018-05-18T12:29:45Z</time>
      </trkpt>
      <trkpt lat="45.70055" lon="6.6312">
        <ele>1462</ele>
        <time>2018-05-18T12:30:45Z</time>
      </trkpt>
      <trkpt lat="45.70041" lon="6.63108">
        <ele>1462</ele>
        <time>2018-05-18T12:31:45Z</time>
      </trkpt>
      <trkpt lat="45.70031" lon="6.63101">
        <ele>1463</ele>
        <time>2018-05-18T12:32:45Z</time>
      </trkpt>
      <trkpt lat="45.70024" lon="6.63092">
        <ele>1463</ele>
        <time>2018-05-18T12:33:45Z</time>
      </trkpt>
      <trkpt lat="45.70019" lon="6.63078">
        <ele>1449</ele>
        <time>2018-05-18T12:34:45Z</time>
      </trkpt>
      <trkpt lat="45.7002" lon="6.63071">
        <ele>1447</ele>
        <time>2018-05-18T12:35:45Z</time>
      </trkpt>
      <trkpt lat="45.70022" lon="6.63067">
        <ele>1445</ele>
        <time>2018-05-18T12:36:45Z</time>
      </trkpt>
      <trkpt lat="45.70025" lon="6.63065">
        <ele>1444</ele>
        <time>2018-05-18T12:37:45Z</time>
      </trkpt>
      <trkpt lat="45.7003" lon="6.63062">
        <ele>1442</ele>
        <time>2018-05-18T12:38:45Z</time>
      </trkpt>
      <trkpt lat="45.70035" lon="6.63066">
        <ele>1441</ele>
        <time>2018-05-18T12:39:45Z</time>
      </trkpt>
      <trkpt lat="45.70041" lon="6.63071">
        <ele>1441</ele>
        <time>2018-05-18T12:40:45Z</time>
      </trkpt>
      <trkpt lat="45.7005" lon="6.63079">
        <ele>1440</ele>
        <time>2018-05-18T12:41:45Z</time>
      </trkpt>
      <trkpt lat="45.70058" lon="6.63086">
        <ele>1455</ele>
        <time>2018-05-18T12:42:45Z</time>
      </trkpt>
      <trkpt lat="45.70071" lon="6.63091">
        <ele>1449</ele>
        <time>2018-05-18T12:43:45Z</time>
      </trkpt>
      <trkpt lat="45.70087" lon="6.63099">
        <ele>1441</ele>
        <time>2018-05-18T12:44:45Z</time>
      </trkpt>
      <trkpt lat="45.70106" lon="6.63104">
        <ele>1441</ele>
        <time>2018-05-18T12:45:45Z</time>
      </trkpt>
      <trkpt lat="45.70135" lon="6.63115">
        <ele>1440</ele>
        <time>2018-05-18T12:46:45Z</time>
      </trkpt>
      <trkpt lat="45.70148" lon="6.63121">
        <ele>1440</ele>
        <time>2018-05-18T12:47:45Z</time>
      </trkpt>
      <trkpt lat="45.70161" lon="6.6313">
        <ele>1442</ele>
        <time>2018-05-18T12:48:45Z</time>
      </trkpt>
      <trkpt lat="45.7017" lon="6.63135">
        <ele>1435</ele>
        <time>2018-05-18T12:49:45Z</time>
      </trkpt>
      <trkpt lat="45.70191" lon="6.63141">
        <ele>1435</ele>
        <time>2018-05-18T12:50:45Z</time>
      </trkpt>
      <trkpt lat="45.702" lon="6.63141">
        <ele>1434</ele>
        <time>2018-05-18T12:51:45Z</time>
      </trkpt>
      <trkpt lat="45.70211" lon="6.63138">
        <ele>1433</ele>
        <time>2018-05-18T12:52:45Z</time>
      </trkpt>
      <trkpt lat="45.70225" lon="6.63132">
        <ele>1431</ele>
        <time>2018-05-18T12:53:45Z</time>
      </trkpt>
      <trkpt lat="45.70236" lon="6.63129">
        <ele>1430</ele>
        <time>2018-05-18T12:54:45Z</time>
      </trkpt>
      <trkpt lat="45.70251" lon="6.63126">
        <ele>1426</ele>
        <time>2018-05-18T12:55:45Z</time>
      </trkpt>
      <trkpt lat="45.70291" lon="6.63128">
        <ele>1427</ele>
        <time>2018-05-18T12:56:45Z</time>
      </trkpt>
      <trkpt lat="45.70297" lon="6.63125">
        <ele>1426</ele>
        <time>2018-05-18T12:57:45Z</time>
      </trkpt>
      <trkpt lat="45.70353" lon="6.63102">
        <ele>1419</ele>
        <time>2018-05-18T12:58:45Z</time>
      </trkpt>
      <trkpt lat="45.70377" lon="6.63096">
        <ele>1420</ele>
        <time>2018-05-18T12:59:45Z</time>
      </trkpt>
      <trkpt lat="45.70404" lon="6.6309">
        <ele>1415</ele>
        <time>2018-05-18T13:00:45Z</time>
      </trkpt>
      <trkpt lat="45.70412" lon="6.63089">
        <ele>1411</ele>
        <time>2018-05-18T13:01:45Z</time>
      </trkpt>
      <trkpt lat="45.70447" lon="6.63087">
        <ele>1416</ele>
        <time>2018-05-18T13:02:45Z</time>
      </trkpt>
      <trkpt lat="45.70459" lon="6.63086">
        <ele>1416</ele>
        <time>2018-05-18T13:03:45Z</time>
      </trkpt>
      <trkpt lat="45.70477" lon="6.63078">
        <ele>1390</ele>
        <time>2018-05-18T13:04:45Z</time>
      </trkpt>
      <trkpt lat="45.7049" lon="6.6307">
        <ele>1390</ele>
        <time>2018-05-18T13:05:45Z</time>
      </trkpt>
      <trkpt lat="45.705" lon="6.63066">
        <ele>1390</ele>
        <time>2018-05-18T13:06:45Z</time>
      </trkpt>
      <trkpt lat="45.70507" lon="6.63065">
        <ele>1386</ele>
        <time>2018-05-18T13:07:45Z</time>
      </trkpt>
      <trkpt lat="45.70514" lon="6.63065">
        <ele>1385</ele>
        <time>2018-05-18T13:08:45Z</time>
      </trkpt>
      <trkpt lat="45.7052" lon="6.63068">
        <ele>1385</ele>
        <time>2018-05-18T13:09:45Z</time>
      </trkpt>
      <trkpt lat="45.70528" lon="6.63072">
        <ele>1384</ele>
        <time>2018-05-18T13:10:45Z</time>
      </trkpt>
      <trkpt lat="45.70538" lon="6.63083">
        <ele>1384</ele>
        <time>2018-05-18T13:11:45Z</time>
      </trkpt>
      <trkpt lat="45.70547" lon="6.63089">
        <ele>1408</ele>
        <time>2018-05-18T13:12:45Z</time>
      </trkpt>
      <trkpt lat="45.70558" lon="6.63092">
        <ele>1407</ele>
        <time>2018-05-18T13:13:45Z</time>
      </trkpt>
      <trkpt lat="45.70564" lon="6.63092">
        <ele>1405</ele>
        <time>2018-05-18T13:14:45Z</time>
      </trkpt>
      <trkpt lat="45.70575" lon="6.63092">
        <ele>1401</ele>
        <time>2018-05-18T13:15:45Z</time>
      </trkpt>
      <trkpt lat="45.70582" lon="6.63091">
        <ele>1398</ele>
        <time>2018-05-18T13:16:45Z</time>
      </trkpt>
      <trkpt lat="45.70592" lon="6.63086">
        <ele>1397</ele>
        <time>2018-05-18T13:17:45Z</time>
      </trkpt>
      <trkpt lat="45.70602" lon="6.63084">
        <ele>1400</ele>
        <time>2018-05-18T13:18:45Z</time>
      </trkpt>
      <trkpt lat="45.70614" lon="6.63084">
        <ele>1401</ele>
        <time>2018-05-18T13:19:45Z</time>
      </trkpt>
      <trkpt lat="45.70627" lon="6.63087">
        <ele>1401</ele>
        <time>2018-05-18T13:20:45Z</time>
      </trkpt>
      <trkpt lat="45.70647" lon="6.63092">
        <ele>1398</ele>
        <time>2018-05-18T13:21:45Z</time>
      </trkpt>
      <trkpt lat="45.70739" lon="6.63114">
        <ele>1389</ele>
        <time>2018-05-18T13:22:45Z</time>
      </trkpt>
      <trkpt lat="45.70743" lon="6.63113">
        <ele>1388</ele>
        <time>2018-05-18T13:23:45Z</time>
      </trkpt>
      <trkpt lat="45.70746" lon="6.63112">
        <ele>1387</ele>
        <time>2018-05-18T13:24:45Z</time>
      </trkpt>
      <trkpt lat="45.70749" lon="6.63111">
        <ele>1387</ele>
        <time>2018-05-18T13:25:45Z</time>
      </trkpt>
      <trkpt lat="45.7075" lon="6.63108">
        <ele>1370</ele>
        <time>2018-05-18T13:26:45Z</time>
      </trkpt>
      <trkpt lat="45.70751" lon="6.63105">
        <ele>1369</ele>
        <time>2018-05-18T13:27:45Z</time>
      </trkpt>
      <trkpt lat="45.70752" lon="6.63101">
        <ele>1369</ele>
        <time>2018-05-18T13:28:45Z</time>
      </trkpt>
      <trkpt lat="45.70753" lon="6.63099">
        <ele>1369</ele>
        <time>2018-05-18T13:29:45Z</time>
      </trkpt>
      <trkpt lat="45.70753" lon="6.63092">
        <ele>1369</ele>
        <time>2018-05-18T13:30:45Z</time>
      </trkpt>
      <trkpt lat="45.7075" lon="6.63086">
        <ele>1370</ele>
        <time>2018-05-18T13:31:45Z</time>
      </trkpt>
      <trkpt lat="45.70745" lon="6.63081">
        <ele>1368</ele>
        <time>2018-05-18T13:32:45Z</time>
      </trkpt>
      <trkpt lat="45.70735" lon="6.63079">
        <ele>1366</ele>
        <time>2018-05-18T13:33:45Z</time>
      </trkpt>
      <trkpt lat="45.70715" lon="6.63078">
        <ele>1366</ele>
        <time>2018-05-18T13:34:45Z</time>
      </trkpt>
      <trkpt lat="45.70701" lon="6.63075">
        <ele>1367</ele>
        <time>2018-05-18T13:35:45Z</time>
      </trkpt>
      <trkpt lat="45.70684" lon="6.63069">
        <ele>1370</ele>
        <time>2018-05-18T13:36:45Z</time>
      </trkpt>
      <trkpt lat="45.70675" lon="6.63064">
        <ele>1370</ele>
        <time>2018-05-18T13:37:45Z</time>
      </trkpt>
      <trkpt lat="45.70645" lon="6.63046">
        <ele>1370</ele>
        <time>2018-05-18T13:38:45Z</time>
      </trkpt>
      <trkpt lat="45.70617" lon="6.63032">
        <ele>1368</ele>
        <time>2018-05-18T13:39:45Z</time>
      </trkpt>
      <trkpt lat="45.70587" lon="6.63015">
        <ele>1364</ele>
        <time>2018-05-18T13:40:45Z</time>
      </trkpt>
      <trkpt lat="45.70556" lon="6.62998">
        <ele>1352</ele>
        <time>2018-05-18T13:41:45Z</time>
      </trkpt>
      <trkpt lat="45.70552" lon="6.62995">
        <ele>1352</ele>
        <time>2018-05-18T13:42:45Z</time>
      </trkpt>
      <trkpt lat="45.70543" lon="6.62987">
        <ele>1351</ele>
        <time>2018-05-18T13:43:45Z</time>
      </trkpt>
      <trkpt lat="45.70535" lon="6.62978">
        <ele>1351</ele>
        <time>2018-05-18T13:44:45Z</time>
      </trkpt>
      <trkpt lat="45.70528" lon="6.62967">
        <ele>1349</ele>
        <time>2018-05-18T13:45:45Z</time>
      </trkpt>
      <trkpt lat="45.70522" lon="6.62958">
        <ele>1348</ele>
        <time>2018-05-18T13:46:45Z</time>
      </trkpt>
      <trkpt lat="45.70513" lon="6.62951">
        <ele>1347</ele>
        <time>2018-05-18T13:47:45Z</time>
      </trkpt>
      <trkpt lat="45.70506" lon="6.62948">
        <ele>1346</ele>
        <time>2018-05-18T13:48:45Z</time>
      </trkpt>
      <trkpt lat="45.70496" lon="6.62946">
        <ele>1349</ele>
        <time>2018-05-18T13:49:45Z</time>
      </trkpt>
      <trkpt lat="45.70438" lon="6.6294">
        <ele>1348</ele>
        <time>2018-05-18T13:50:45Z</time>
      </trkpt>
      <trkpt lat="45.70418" lon="6.62939">
        <ele>1347</ele>
        <time>2018-05-18T13:51:45Z</time>
      </trkpt>
      <trkpt lat="45.70402" lon="6.62941">
        <ele>1346</ele>
        <time>2018-05-18T13:52:45Z</time>
      </trkpt>
      <trkpt lat="45.70391" lon="6.62945">
        <ele>1347</ele>
        <time>2018-05-18T13:53:45Z</time>
      </trkpt>
      <trkpt lat="45.70386" lon="6.62946">
        <ele>1347</ele>
        <time>2018-05-18T13:54:45Z</time>
      </trkpt>
      <trkpt lat="45.70375" lon="6.62949">
        <ele>1347</ele>
        <time>2018-05-18T13:55:45Z</time>
      </trkpt>
      <trkpt lat="45.70358" lon="6.6295">
        <ele>1346</ele>
        <time>2018-05-18T13:56:45Z</time>
      </trkpt>
      <trkpt lat="45.70338" lon="6.62951">
        <ele>1346</ele>
        <time>2018-05-18T13:57:45Z</time>
      </trkpt>
      <trkpt lat="45.70313" lon="6.62951">
        <ele>1349</ele>
        <time>2018-05-18T13:58:45Z</time>
      </trkpt>
      <trkpt lat="45.70301" lon="6.6295">
        <ele>1350</ele>
        <time>2018-05-18T13:59:45Z</time>
      </trkpt>
      <trkpt lat="45.70296" lon="6.62949">
        <ele>1350</ele>
        <time>2018-05-18T14:00:45Z</time>
      </trkpt>
      <trkpt lat="45.70283" lon="6.62943">
        <ele>1350</ele>
        <time>2018-05-18T14:01:45Z</time>
      </trkpt>
      <trkpt lat="45.70268" lon="6.62934">
        <ele>1349</ele>
        <time>2018-05-18T14:02:45Z</time>
      </trkpt>
      <trkpt lat="45.70242" lon="6.62913">
        <ele>1342</ele>
        <time>2018-05-18T14:03:45Z</time>
      </trkpt>
      <trkpt lat="45.7022" lon="6.62893">
        <ele>1336</ele>
        <time>2018-05-18T14:04:45Z</time>
      </trkpt>
      <trkpt lat="45.70194" lon="6.62875">
        <ele>1334</ele>
        <time>2018-05-18T14:05:45Z</time>
      </trkpt>
      <trkpt lat="45.70184" lon="6.62867">
        <ele>1332</ele>
        <time>2018-05-18T14:06:45Z</time>
      </trkpt>
      <trkpt lat="45.7017" lon="6.6285">
        <ele>1327</ele>
        <time>2018-05-18T14:07:45Z</time>
      </trkpt>
      <trkpt lat="45.7016" lon="6.62842">
        <ele>1331</ele>
        <time>2018-05-18T14:08:45Z</time>
      </trkpt>
      <trkpt lat="45.70151" lon="6.62839">
        <ele>1334</ele>
        <time>2018-05-18T14:09:45Z</time>
      </trkpt>
      <trkpt lat="45.70136" lon="6.62835">
        <ele>1340</ele>
        <time>2018-05-18T14:10:45Z</time>
      </trkpt>
      <trkpt lat="45.70125" lon="6.62834">
        <ele>1343</ele>
        <time>2018-05-18T14:11:45Z</time>
      </trkpt>
      <trkpt lat="45.70117" lon="6.6283">
        <ele>1324</ele>
        <time>2018-05-18T14:12:45Z</time>
      </trkpt>
      <trkpt lat="45.7011" lon="6.62824">
        <ele>1325</ele>
        <time>2018-05-18T14:13:45Z</time>
      </trkpt>
      <trkpt lat="45.70104" lon="6.62818">
        <ele>1326</ele>
        <time>2018-05-18T14:14:45Z</time>
      </trkpt>
      <trkpt lat="45.70081" lon="6.62774">
        <ele>1332</ele>
        <time>2018-05-18T14:15:45Z</time>
      </trkpt>
      <trkpt lat="45.70075" lon="6.62762">
        <ele>1327</ele>
        <time>2018-05-18T14:16:45Z</time>
      </trkpt>
      <trkpt lat="45.70067" lon="6.62751">
        <ele>1328</ele>
        <time>2018-05-18T14:17:45Z</time>
      </trkpt>
      <trkpt lat="45.70036" lon="6.62716">
        <ele>1314</ele>
        <time>2018-05-18T14:18:45Z</time>
      </trkpt>
      <trkpt lat="45.69984" lon="6.62661">
        <ele>1315</ele>
        <time>2018-05-18T14:19:45Z</time>
      </trkpt>
      <trkpt lat="45.69967" lon="6.62639">
        <ele>1320</ele>
        <time>2018-05-18T14:20:45Z</time>
      </trkpt>
      <trkpt lat="45.69955" lon="6.62618">
        <ele>1321</ele>
        <time>2018-05-18T14:21:45Z</time>
      </trkpt>
      <trkpt lat="45.69947" lon="6.62604">
        <ele>1324</ele>
        <time>2018-05-18T14:22:45Z</time>
      </trkpt>
      <trkpt lat="45.69934" lon="6.62555">
        <ele>1308</ele>
        <time>2018-05-18T14:23:45Z</time>
      </trkpt>
      <trkpt lat="45.69923" lon="6.62496">
        <ele>1307</ele>
        <time>2018-05-18T14:24:45Z</time>
      </trkpt>
      <trkpt lat="45.69911" lon="6.6244">
        <ele>1325</ele>
        <time>2018-05-18T14:25:45Z</time>
      </trkpt>
      <trkpt lat="45.69906" lon="6.62402">
        <ele>1308</ele>
        <time>2018-05-18T14:26:45Z</time>
      </trkpt>
      <trkpt lat="45.69902" lon="6.62354">
        <ele>1300</ele>
        <time>2018-05-18T14:27:45Z</time>
      </trkpt>
      <trkpt lat="45.69898" lon="6.62339">
        <ele>1295</ele>
        <time>2018-05-18T14:28:45Z</time>
      </trkpt>
      <trkpt lat="45.69858" lon="6.62232">
        <ele>1286</ele>
        <time>2018-05-18T14:29:45Z</time>
      </trkpt>
      <trkpt lat="45.69851" lon="6.62206">
        <ele>1281</ele>
        <time>2018-05-18T14:30:45Z</time>
      </trkpt>
      <trkpt lat="45.69849" lon="6.62188">
        <ele>1280</ele>
        <time>2018-05-18T14:31:45Z</time>
      </trkpt>
      <trkpt lat="45.69843" lon="6.62158">
        <ele>1273</ele>
        <time>2018-05-18T14:32:45Z</time>
      </trkpt>
      <trkpt lat="45.69847" lon="6.62129">
        <ele>1258</ele>
        <time>2018-05-18T14:33:45Z</time>
      </trkpt>
      <trkpt lat="45.69848" lon="6.62119">
        <ele>1256</ele>
        <time>2018-05-18T14:34:45Z</time>
      </trkpt>
      <trkpt lat="45.69848" lon="6.6211">
        <ele>1255</ele>
        <time>2018-05-18T14:35:45Z</time>
      </trkpt>
      <trkpt lat="45.69844" lon="6.62096">
        <ele>1257</ele>
        <time>2018-05-18T14:36:45Z</time>
      </trkpt>
      <trkpt lat="45.69838" lon="6.62087">
        <ele>1261</ele>
        <time>2018-05-18T14:37:45Z</time>
      </trkpt>
      <trkpt lat="45.6983" lon="6.6208">
        <ele>1266</ele>
        <time>2018-05-18T14:38:45Z</time>
      </trkpt>
      <trkpt lat="45.69822" lon="6.62073">
        <ele>1270</ele>
        <time>2018-05-18T14:39:45Z</time>
      </trkpt>
      <trkpt lat="45.69812" lon="6.62061">
        <ele>1272</ele>
        <time>2018-05-18T14:40:45Z</time>
      </trkpt>
      <trkpt lat="45.69798" lon="6.62037">
        <ele>1273</ele>
        <time>2018-05-18T14:41:45Z</time>
      </trkpt>
      <trkpt lat="45.69783" lon="6.62007">
        <ele>1274</ele>
        <time>2018-05-18T14:42:45Z</time>
      </trkpt>
      <trkpt lat="45.69777" lon="6.61988">
        <ele>1258</ele>
        <time>2018-05-18T14:43:45Z</time>
      </trkpt>
      <trkpt lat="45.6975" lon="6.61932">
        <ele>1275</ele>
        <time>2018-05-18T14:44:45Z</time>
      </trkpt>
      <trkpt lat="45.69742" lon="6.61917">
        <ele>1269</ele>
        <time>2018-05-18T14:45:45Z</time>
      </trkpt>
      <trkpt lat="45.69736" lon="6.61906">
        <ele>1268</ele>
        <time>2018-05-18T14:46:45Z</time>
      </trkpt>
      <trkpt lat="45.6973" lon="6.61895">
        <ele>1272</ele>
        <time>2018-05-18T14:47:45Z</time>
      </trkpt>
      <trkpt lat="45.69726" lon="6.61879">
        <ele>1273</ele>
        <time>2018-05-18T14:48:45Z</time>
      </trkpt>
      <trkpt lat="45.69722" lon="6.61867">
        <ele>1273</ele>
        <time>2018-05-18T14:49:45Z</time>
      </trkpt>
      <trkpt lat="45.69711" lon="6.61817">
        <ele>1266</ele>
        <time>2018-05-18T14:50:45Z</time>
      </trkpt>
      <trkpt lat="45.69698" lon="6.61749">
        <ele>1263</ele>
        <time>2018-05-18T14:51:45Z</time>
      </trkpt>
      <trkpt lat="45.69686" lon="6.61701">
        <ele>1263</ele>
        <time>2018-05-18T14:52:45Z</time>
      </trkpt>
      <trkpt lat="45.69685" lon="6.61683">
        <ele>1264</ele>
        <time>2018-05-18T14:53:45Z</time>
      </trkpt>
      <trkpt lat="45.69686" lon="6.61672">
        <ele>1265</ele>
        <time>2018-05-18T14:54:45Z</time>
      </trkpt>
      <trkpt lat="45.69686" lon="6.61669">
        <ele>1265</ele>
        <time>2018-05-18T14:55:45Z</time>
      </trkpt>
      <trkpt lat="45.69691" lon="6.61665">
        <ele>1258</ele>
        <time>2018-05-18T14:56:45Z</time>
      </trkpt>
      <trkpt lat="45.69699" lon="6.61666">
        <ele>1254</ele>
        <time>2018-05-18T14:57:45Z</time>
      </trkpt>
      <trkpt lat="45.69704" lon="6.61671">
        <ele>1258</ele>
        <time>2018-05-18T14:58:45Z</time>
      </trkpt>
      <trkpt lat="45.69709" lon="6.61683">
        <ele>1256</ele>
        <time>2018-05-18T14:59:45Z</time>
      </trkpt>
      <trkpt lat="45.69732" lon="6.61746">
        <ele>1248</ele>
        <time>2018-05-18T15:00:45Z</time>
      </trkpt>
      <trkpt lat="45.69742" lon="6.61769">
        <ele>1252</ele>
        <time>2018-05-18T15:01:45Z</time>
      </trkpt>
      <trkpt lat="45.69755" lon="6.61808">
        <ele>1229</ele>
        <time>2018-05-18T15:02:45Z</time>
      </trkpt>
      <trkpt lat="45.69767" lon="6.61856">
        <ele>1234</ele>
        <time>2018-05-18T15:03:45Z</time>
      </trkpt>
      <trkpt lat="45.69771" lon="6.61868">
        <ele>1234</ele>
        <time>2018-05-18T15:04:45Z</time>
      </trkpt>
      <trkpt lat="45.69773" lon="6.61877">
        <ele>1234</ele>
        <time>2018-05-18T15:05:45Z</time>
      </trkpt>
      <trkpt lat="45.69777" lon="6.61887">
        <ele>1235</ele>
        <time>2018-05-18T15:06:45Z</time>
      </trkpt>
      <trkpt lat="45.69782" lon="6.61894">
        <ele>1234</ele>
        <time>2018-05-18T15:07:45Z</time>
      </trkpt>
      <trkpt lat="45.69803" lon="6.61926">
        <ele>1239</ele>
        <time>2018-05-18T15:08:45Z</time>
      </trkpt>
      <trkpt lat="45.69815" lon="6.61941">
        <ele>1238</ele>
        <time>2018-05-18T15:09:45Z</time>
      </trkpt>
      <trkpt lat="45.69824" lon="6.61955">
        <ele>1240</ele>
        <time>2018-05-18T15:10:45Z</time>
      </trkpt>
      <trkpt lat="45.69831" lon="6.61971">
        <ele>1241</ele>
        <time>2018-05-18T15:11:45Z</time>
      </trkpt>
      <trkpt lat="45.69848" lon="6.62004">
        <ele>1230</ele>
        <time>2018-05-18T15:12:45Z</time>
      </trkpt>
      <trkpt lat="45.69854" lon="6.62009">
        <ele>1229</ele>
        <time>2018-05-18T15:13:45Z</time>
      </trkpt>
      <trkpt lat="45.69858" lon="6.62008">
        <ele>1227</ele>
        <time>2018-05-18T15:14:45Z</time>
      </trkpt>
      <trkpt lat="45.69862" lon="6.61996">
        <ele>1214</ele>
        <time>2018-05-18T15:15:45Z</time>
      </trkpt>
      <trkpt lat="45.69859" lon="6.61987">
        <ele>1214</ele>
        <time>2018-05-18T15:16:45Z</time>
      </trkpt>
      <trkpt lat="45.69848" lon="6.61968">
        <ele>1213</ele>
        <time>2018-05-18T15:17:45Z</time>
      </trkpt>
      <trkpt lat="45.6983" lon="6.61941">
        <ele>1234</ele>
        <time>2018-05-18T15:18:45Z</time>
      </trkpt>
      <trkpt lat="45.69818" lon="6.61917">
        <ele>1229</ele>
        <time>2018-05-18T15:19:45Z</time>
      </trkpt>
      <trkpt lat="45.69812" lon="6.61899">
        <ele>1225</ele>
        <time>2018-05-18T15:20:45Z</time>
      </trkpt>
      <trkpt lat="45.69807" lon="6.61886">
        <ele>1227</ele>
        <time>2018-05-18T15:21:45Z</time>
      </trkpt>
      <trkpt lat="45.69805" lon="6.61872">
        <ele>1226</ele>
        <time>2018-05-18T15:22:45Z</time>
      </trkpt>
      <trkpt lat="45.69803" lon="6.61861">
        <ele>1226</ele>
        <time>2018-05-18T15:23:45Z</time>
      </trkpt>
      <trkpt lat="45.69798" lon="6.61798">
        <ele>1219</ele>
        <time>2018-05-18T15:24:45Z</time>
      </trkpt>
      <trkpt lat="45.69794" lon="6.61748">
        <ele>1214</ele>
        <time>2018-05-18T15:25:45Z</time>
      </trkpt>
      <trkpt lat="45.69793" lon="6.61715">
        <ele>1214</ele>
        <time>2018-05-18T15:26:45Z</time>
      </trkpt>
      <trkpt lat="45.69802" lon="6.61672">
        <ele>1209</ele>
        <time>2018-05-18T15:27:45Z</time>
      </trkpt>
      <trkpt lat="45.69804" lon="6.61661">
        <ele>1204</ele>
        <time>2018-05-18T15:28:45Z</time>
      </trkpt>
      <trkpt lat="45.69806" lon="6.61646">
        <ele>1203</ele>
        <time>2018-05-18T15:29:45Z</time>
      </trkpt>
      <trkpt lat="45.69807" lon="6.61632">
        <ele>1203</ele>
        <time>2018-05-18T15:30:45Z</time>
      </trkpt>
      <trkpt lat="45.69806" lon="6.61619">
        <ele>1202</ele>
        <time>2018-05-18T15:31:45Z</time>
      </trkpt>
      <trkpt lat="45.69802" lon="6.61604">
        <ele>1202</ele>
        <time>2018-05-18T15:32:45Z</time>
      </trkpt>
      <trkpt lat="45.69796" lon="6.61589">
        <ele>1203</ele>
        <time>2018-05-18T15:33:45Z</time>
      </trkpt>
      <trkpt lat="45.69781" lon="6.6156">
        <ele>1195</ele>
        <time>2018-05-18T15:34:45Z</time>
      </trkpt>
      <trkpt lat="45.69772" lon="6.61542">
        <ele>1193</ele>
        <time>2018-05-18T15:35:45Z</time>
      </trkpt>
      <trkpt lat="45.69764" lon="6.6153">
        <ele>1192</ele>
        <time>2018-05-18T15:36:45Z</time>
      </trkpt>
      <trkpt lat="45.69752" lon="6.61515">
        <ele>1190</ele>
        <time>2018-05-18T15:37:45Z</time>
      </trkpt>
      <trkpt lat="45.69741" lon="6.61502">
        <ele>1199</ele>
        <time>2018-05-18T15:38:45Z</time>
      </trkpt>
      <trkpt lat="45.69719" lon="6.61479">
        <ele>1194</ele>
        <time>2018-05-18T15:39:45Z</time>
      </trkpt>
      <trkpt lat="45.69704" lon="6.61465">
        <ele>1195</ele>
        <time>2018-05-18T15:40:45Z</time>
      </trkpt>
      <trkpt lat="45.69695" lon="6.61455">
        <ele>1194</ele>
        <time>2018-05-18T15:41:45Z</time>
      </trkpt>
      <trkpt lat="45.69692" lon="6.61451">
        <ele>1194</ele>
        <time>2018-05-18T15:42:45Z</time>
      </trkpt>
      <trkpt lat="45.6969" lon="6.61448">
        <ele>1194</ele>
        <time>2018-05-18T15:43:45Z</time>
      </trkpt>
      <trkpt lat="45.69688" lon="6.61444">
        <ele>1193</ele>
        <time>2018-05-18T15:44:45Z</time>
      </trkpt>
      <trkpt lat="45.69687" lon="6.61438">
        <ele>1193</ele>
        <time>2018-05-18T15:45:45Z</time>
      </trkpt>
      <trkpt lat="45.69687" lon="6.61433">
        <ele>1192</ele>
        <time>2018-05-18T15:46:45Z</time>
      </trkpt>
      <trkpt lat="45.69688" lon="6.61429">
        <ele>1192</ele>
        <time>2018-05-18T15:47:45Z</time>
      </trkpt>
      <trkpt lat="45.69689" lon="6.61426">
        <ele>1192</ele>
        <time>2018-05-18T15:48:45Z</time>
      </trkpt>
      <trkpt lat="45.69689" lon="6.61423">
        <ele>1191</ele>
        <time>2018-05-18T15:49:45Z</time>
      </trkpt>
      <trkpt lat="45.69692" lon="6.61421">
        <ele>1191</ele>
        <time>2018-05-18T15:50:45Z</time>
      </trkpt>
      <trkpt lat="45.69695" lon="6.61418">
        <ele>1191</ele>
        <time>2018-05-18T15:51:45Z</time>
      </trkpt>
      <trkpt lat="45.69698" lon="6.61418">
        <ele>1190</ele>
        <time>2018-05-18T15:52:45Z</time>
      </trkpt>
      <trkpt lat="45.69701" lon="6.61418">
        <ele>1190</ele>
        <time>2018-05-18T15:53:45Z</time>
      </trkpt>
      <trkpt lat="45.69705" lon="6.61421">
        <ele>1190</ele>
        <time>2018-05-18T15:54:45Z</time>
      </trkpt>
      <trkpt lat="45.69711" lon="6.61426">
        <ele>1189</ele>
        <time>2018-05-18T15:55:45Z</time>
      </trkpt>
      <trkpt lat="45.69718" lon="6.61434">
        <ele>1188</ele>
        <time>2018-05-18T15:56:45Z</time>
      </trkpt>
      <trkpt lat="45.69727" lon="6.61444">
        <ele>1188</ele>
        <time>2018-05-18T15:57:45Z</time>
      </trkpt>
      <trkpt lat="45.69738" lon="6.61451">
        <ele>1188</ele>
        <time>2018-05-18T15:58:45Z</time>
      </trkpt>
      <trkpt lat="45.69752" lon="6.61457">
        <ele>1177</ele>
        <time>2018-05-18T15:59:45Z</time>
      </trkpt>
      <trkpt lat="45.69772" lon="6.61461">
        <ele>1176</ele>
        <time>2018-05-18T16:00:45Z</time>
      </trkpt>
      <trkpt lat="45.69787" lon="6.61464">
        <ele>1175</ele>
        <time>2018-05-18T16:01:45Z</time>
      </trkpt>
      <trkpt lat="45.69811" lon="6.61469">
        <ele>1173</ele>
        <time>2018-05-18T16:02:45Z</time>
      </trkpt>
      <trkpt lat="45.6982" lon="6.61475">
        <ele>1172</ele>
        <time>2018-05-18T16:03:45Z</time>
      </trkpt>
      <trkpt lat="45.69833" lon="6.61489">
        <ele>1170</ele>
        <time>2018-05-18T16:04:45Z</time>
      </trkpt>
      <trkpt lat="45.69842" lon="6.61504">
        <ele>1167</ele>
        <time>2018-05-18T16:05:45Z</time>
      </trkpt>
      <trkpt lat="45.6985" lon="6.61524">
        <ele>1167</ele>
        <time>2018-05-18T16:06:45Z</time>
      </trkpt>
      <trkpt lat="45.69856" lon="6.6154">
        <ele>1168</ele>
        <time>2018-05-18T16:07:45Z</time>
      </trkpt>
      <trkpt lat="45.69864" lon="6.61572">
        <ele>1169</ele>
        <time>2018-05-18T16:08:45Z</time>
      </trkpt>
      <trkpt lat="45.69872" lon="6.61597">
        <ele>1170</ele>
        <time>2018-05-18T16:09:45Z</time>
      </trkpt>
      <trkpt lat="45.6988" lon="6.6163">
        <ele>1169</ele>
        <time>2018-05-18T16:10:45Z</time>
      </trkpt>
      <trkpt lat="45.69889" lon="6.61661">
        <ele>1167</ele>
        <time>2018-05-18T16:11:45Z</time>
      </trkpt>
      <trkpt lat="45.69898" lon="6.61697">
        <ele>1170</ele>
        <time>2018-05-18T16:12:45Z</time>
      </trkpt>
      <trkpt lat="45.69906" lon="6.61724">
        <ele>1169</ele>
        <time>2018-05-18T16:13:45Z</time>
      </trkpt>
      <trkpt lat="45.69917" lon="6.61757">
        <ele>1158</ele>
        <time>2018-05-18T16:14:45Z</time>
      </trkpt>
      <trkpt lat="45.69927" lon="6.61779">
        <ele>1156</ele>
        <time>2018-05-18T16:15:45Z</time>
      </trkpt>
      <trkpt lat="45.69938" lon="6.61797">
        <ele>1156</ele>
        <time>2018-05-18T16:16:45Z</time>
      </trkpt>
      <trkpt lat="45.69959" lon="6.61828">
        <ele>1154</ele>
        <time>2018-05-18T16:17:45Z</time>
      </trkpt>
      <trkpt lat="45.6998" lon="6.61851">
        <ele>1158</ele>
        <time>2018-05-18T16:18:45Z</time>
      </trkpt>
      <trkpt lat="45.70005" lon="6.61863">
        <ele>1143</ele>
        <time>2018-05-18T16:19:45Z</time>
      </trkpt>
      <trkpt lat="45.7006" lon="6.61896">
        <ele>1138</ele>
        <time>2018-05-18T16:20:45Z</time>
      </trkpt>
      <trkpt lat="45.70066" lon="6.61901">
        <ele>1137</ele>
        <time>2018-05-18T16:21:45Z</time>
      </trkpt>
      <trkpt lat="45.70071" lon="6.61905">
        <ele>1136</ele>
        <time>2018-05-18T16:22:45Z</time>
      </trkpt>
      <trkpt lat="45.70075" lon="6.61912">
        <ele>1136</ele>
        <time>2018-05-18T16:23:45Z</time>
      </trkpt>
      <trkpt lat="45.70079" lon="6.6192">
        <ele>1137</ele>
        <time>2018-05-18T16:24:45Z</time>
      </trkpt>
      <trkpt lat="45.70085" lon="6.61934">
        <ele>1128</ele>
        <time>2018-05-18T16:25:45Z</time>
      </trkpt>
      <trkpt lat="45.70087" lon="6.61942">
        <ele>1127</ele>
        <time>2018-05-18T16:26:45Z</time>
      </trkpt>
      <trkpt lat="45.70089" lon="6.61953">
        <ele>1126</ele>
        <time>2018-05-18T16:27:45Z</time>
      </trkpt>
      <trkpt lat="45.7009" lon="6.61982">
        <ele>1131</ele>
        <time>2018-05-18T16:28:45Z</time>
      </trkpt>
      <trkpt lat="45.70091" lon="6.62016">
        <ele>1134</ele>
        <time>2018-05-18T16:29:45Z</time>
      </trkpt>
      <trkpt lat="45.70093" lon="6.62026">
        <ele>1132</ele>
        <time>2018-05-18T16:30:45Z</time>
      </trkpt>
      <trkpt lat="45.70112" lon="6.62083">
        <ele>1130</ele>
        <time>2018-05-18T16:31:45Z</time>
      </trkpt>
      <trkpt lat="45.70113" lon="6.6209">
        <ele>1132</ele>
        <time>2018-05-18T16:32:45Z</time>
      </trkpt>
      <trkpt lat="45.70118" lon="6.62125">
        <ele>1131</ele>
        <time>2018-05-18T16:33:45Z</time>
      </trkpt>
      <trkpt lat="45.70125" lon="6.62151">
        <ele>1130</ele>
        <time>2018-05-18T16:34:45Z</time>
      </trkpt>
      <trkpt lat="45.70133" lon="6.6217">
        <ele>1130</ele>
        <time>2018-05-18T16:35:45Z</time>
      </trkpt>
      <trkpt lat="45.70155" lon="6.62212">
        <ele>1128</ele>
        <time>2018-05-18T16:36:45Z</time>
      </trkpt>
      <trkpt lat="45.70184" lon="6.62262">
        <ele>1111</ele>
        <time>2018-05-18T16:37:45Z</time>
      </trkpt>
      <trkpt lat="45.70212" lon="6.6231">
        <ele>1109</ele>
        <time>2018-05-18T16:38:45Z</time>
      </trkpt>
      <trkpt lat="45.70221" lon="6.62323">
        <ele>1107</ele>
        <time>2018-05-18T16:39:45Z</time>
      </trkpt>
      <trkpt lat="45.7023" lon="6.62336">
        <ele>1114</ele>
        <time>2018-05-18T16:40:45Z</time>
      </trkpt>
      <trkpt lat="45.70246" lon="6.62349">
        <ele>1112</ele>
        <time>2018-05-18T16:41:45Z</time>
      </trkpt>
      <trkpt lat="45.70275" lon="6.62366">
        <ele>1101</ele>
        <time>2018-05-18T16:42:45Z</time>
      </trkpt>
      <trkpt lat="45.70319" lon="6.62394">
        <ele>1099</ele>
        <time>2018-05-18T16:43:45Z</time>
      </trkpt>
      <trkpt lat="45.70364" lon="6.6242">
        <ele>1098</ele>
        <time>2018-05-18T16:44:45Z</time>
      </trkpt>
      <trkpt lat="45.70379" lon="6.62428">
        <ele>1097</ele>
        <time>2018-05-18T16:45:45Z</time>
      </trkpt>
      <trkpt lat="45.70406" lon="6.62438">
        <ele>1093</ele>
        <time>2018-05-18T16:46:45Z</time>
      </trkpt>
      <trkpt lat="45.70434" lon="6.62445">
        <ele>1085</ele>
        <time>2018-05-18T16:47:45Z</time>
      </trkpt>
      <trkpt lat="45.70469" lon="6.6245">
        <ele>1084</ele>
        <time>2018-05-18T16:48:45Z</time>
      </trkpt>
      <trkpt lat="45.70483" lon="6.62453">
        <ele>1084</ele>
        <time>2018-05-18T16:49:45Z</time>
      </trkpt>
      <trkpt lat="45.70518" lon="6.62458">
        <ele>1082</ele>
        <time>2018-05-18T16:50:45Z</time>
      </trkpt>
      <trkpt lat="45.70521" lon="6.62456">
        <ele>1082</ele>
        <time>2018-05-18T16:51:45Z</time>
      </trkpt>
      <trkpt lat="45.70523" lon="6.62454">
        <ele>1081</ele>
        <time>2018-05-18T16:52:45Z</time>
      </trkpt>
      <trkpt lat="45.70525" lon="6.62448">
        <ele>1080</ele>
        <time>2018-05-18T16:53:45Z</time>
      </trkpt>
      <trkpt lat="45.70525" lon="6.62445">
        <ele>1079</ele>
        <time>2018-05-18T16:54:45Z</time>
      </trkpt>
      <trkpt lat="45.70524" lon="6.62441">
        <ele>1078</ele>
        <time>2018-05-18T16:55:45Z</time>
      </trkpt>
      <trkpt lat="45.70523" lon="6.62438">
        <ele>1077</ele>
        <time>2018-05-18T16:56:45Z</time>
      </trkpt>
      <trkpt lat="45.70521" lon="6.62435">
        <ele>1076</ele>
        <time>2018-05-18T16:57:45Z</time>
      </trkpt>
      <trkpt lat="45.70515" lon="6.62433">
        <ele>1075</ele>
        <time>2018-05-18T16:58:45Z</time>
      </trkpt>
      <trkpt lat="45.70507" lon="6.6243">
        <ele>1072</ele>
        <time>2018-05-18T16:59:45Z</time>
      </trkpt>
      <trkpt lat="45.70496" lon="6.6243">
        <ele>1073</ele>
        <time>2018-05-18T17:00:45Z</time>
      </trkpt>
      <trkpt lat="45.70478" lon="6.62428">
        <ele>1078</ele>
        <time>2018-05-18T17:01:45Z</time>
      </trkpt>
      <trkpt lat="45.7046" lon="6.62422">
        <ele>1081</ele>
        <time>2018-05-18T17:02:45Z</time>
      </trkpt>
      <trkpt lat="45.70444" lon="6.62413">
        <ele>1066</ele>
        <time>2018-05-18T17:03:45Z</time>
      </trkpt>
      <trkpt lat="45.70428" lon="6.62402">
        <ele>1068</ele>
        <time>2018-05-18T17:04:45Z</time>
      </trkpt>
      <trkpt lat="45.70404" lon="6.6238">
        <ele>1074</ele>
        <time>2018-05-18T17:05:45Z</time>
      </trkpt>
      <trkpt lat="45.70393" lon="6.62366">
        <ele>1073</ele>
        <time>2018-05-18T17:06:45Z</time>
      </trkpt>
      <trkpt lat="45.70382" lon="6.62348">
        <ele>1072</ele>
        <time>2018-05-18T17:07:45Z</time>
      </trkpt>
      <trkpt lat="45.70373" lon="6.6233">
        <ele>1063</ele>
        <time>2018-05-18T17:08:45Z</time>
      </trkpt>
      <trkpt lat="45.70367" lon="6.62314">
        <ele>1064</ele>
        <time>2018-05-18T17:09:45Z</time>
      </trkpt>
      <trkpt lat="45.70362" lon="6.62292">
        <ele>1063</ele>
        <time>2018-05-18T17:10:45Z</time>
      </trkpt>
      <trkpt lat="45.70361" lon="6.62278">
        <ele>1062</ele>
        <time>2018-05-18T17:11:45Z</time>
      </trkpt>
      <trkpt lat="45.7036" lon="6.62274">
        <ele>1062</ele>
        <time>2018-05-18T17:12:45Z</time>
      </trkpt>
      <trkpt lat="45.70371" lon="6.62195">
        <ele>1052</ele>
        <time>2018-05-18T17:13:45Z</time>
      </trkpt>
      <trkpt lat="45.70372" lon="6.62188">
        <ele>1052</ele>
        <time>2018-05-18T17:14:45Z</time>
      </trkpt>
      <trkpt lat="45.70373" lon="6.6218">
        <ele>1052</ele>
        <time>2018-05-18T17:15:45Z</time>
      </trkpt>
      <trkpt lat="45.70372" lon="6.62172">
        <ele>1051</ele>
        <time>2018-05-18T17:16:45Z</time>
      </trkpt>
      <trkpt lat="45.70371" lon="6.62165">
        <ele>1047</ele>
        <time>2018-05-18T17:17:45Z</time>
      </trkpt>
      <trkpt lat="45.7037" lon="6.62159">
        <ele>1047</ele>
        <time>2018-05-18T17:18:45Z</time>
      </trkpt>
      <trkpt lat="45.70368" lon="6.62151">
        <ele>1047</ele>
        <time>2018-05-18T17:19:45Z</time>
      </trkpt>
      <trkpt lat="45.70365" lon="6.62143">
        <ele>1047</ele>
        <time>2018-05-18T17:20:45Z</time>
      </trkpt>
      <trkpt lat="45.70363" lon="6.62135">
        <ele>1046</ele>
        <time>2018-05-18T17:21:45Z</time>
      </trkpt>
      <trkpt lat="45.70356" lon="6.62125">
        <ele>1046</ele>
        <time>2018-05-18T17:22:45Z</time>
      </trkpt>
      <trkpt lat="45.70351" lon="6.62115">
        <ele>1046</ele>
        <time>2018-05-18T17:23:45Z</time>
      </trkpt>
      <trkpt lat="45.70347" lon="6.62108">
        <ele>1046</ele>
        <time>2018-05-18T17:24:45Z</time>
      </trkpt>
      <trkpt lat="45.70346" lon="6.62099">
        <ele>1046</ele>
        <time>2018-05-18T17:25:45Z</time>
      </trkpt>
      <trkpt lat="45.70347" lon="6.62086">
        <ele>1046</ele>
        <time>2018-05-18T17:26:45Z</time>
      </trkpt>
      <trkpt lat="45.70347" lon="6.62081">
        <ele>1049</ele>
        <time>2018-05-18T17:27:45Z</time>
      </trkpt>
      <trkpt lat="45.70348" lon="6.62076">
        <ele>1050</ele>
        <time>2018-05-18T17:28:45Z</time>
      </trkpt>
      <trkpt lat="45.7035" lon="6.62072">
        <ele>1050</ele>
        <time>2018-05-18T17:29:45Z</time>
      </trkpt>
      <trkpt lat="45.70352" lon="6.62067">
        <ele>1051</ele>
        <time>2018-05-18T17:30:45Z</time>
      </trkpt>
      <trkpt lat="45.70359" lon="6.62059">
        <ele>1052</ele>
        <time>2018-05-18T17:31:45Z</time>
      </trkpt>
      <trkpt lat="45.70368" lon="6.62054">
        <ele>1052</ele>
        <time>2018-05-18T17:32:45Z</time>
      </trkpt>
      <trkpt lat="45.70377" lon="6.62049">
        <ele>1052</ele>
        <time>2018-05-18T17:33:45Z</time>
      </trkpt>
      <trkpt lat="45.70387" lon="6.62045">
        <ele>1052</ele>
        <time>2018-05-18T17:34:45Z</time>
      </trkpt>
      <trkpt lat="45.70398" lon="6.62041">
        <ele>1053</ele>
        <time>2018-05-18T17:35:45Z</time>
      </trkpt>
      <trkpt lat="45.70437" lon="6.62022">
        <ele>1052</ele>
        <time>2018-05-18T17:36:45Z</time>
      </trkpt>
      <trkpt lat="45.70454" lon="6.62013">
        <ele>1052</ele>
        <time>2018-05-18T17:37:45Z</time>
      </trkpt>
      <trkpt lat="45.70465" lon="6.62008">
        <ele>1051</ele>
        <time>2018-05-18T17:38:45Z</time>
      </trkpt>
      <trkpt lat="45.70486" lon="6.62003">
        <ele>1053</ele>
        <time>2018-05-18T17:39:45Z</time>
      </trkpt>
      <trkpt lat="45.70514" lon="6.61993">
        <ele>1058</ele>
        <time>2018-05-18T17:40:45Z</time>
      </trkpt>
      <trkpt lat="45.70524" lon="6.61991">
        <ele>1058</ele>
        <time>2018-05-18T17:41:45Z</time>
      </trkpt>
      <trkpt lat="45.70532" lon="6.61985">
        <ele>1058</ele>
        <time>2018-05-18T17:42:45Z</time>
      </trkpt>
      <trkpt lat="45.70539" lon="6.61979">
        <ele>1057</ele>
        <time>2018-05-18T17:43:45Z</time>
      </trkpt>
      <trkpt lat="45.70553" lon="6.61966">
        <ele>1057</ele>
        <time>2018-05-18T17:44:45Z</time>
      </trkpt>
      <trkpt lat="45.70575" lon="6.61945">
        <ele>1056</ele>
        <time>2018-05-18T17:45:45Z</time>
      </trkpt>
      <trkpt lat="45.70586" lon="6.61934">
        <ele>1043</ele>
        <time>2018-05-18T17:46:45Z</time>
      </trkpt>
      <trkpt lat="45.7059" lon="6.61929">
        <ele>1044</ele>
        <time>2018-05-18T17:47:45Z</time>
      </trkpt>
      <trkpt lat="45.70599" lon="6.61914">
        <ele>1048</ele>
        <time>2018-05-18T17:48:45Z</time>
      </trkpt>
      <trkpt lat="45.70608" lon="6.6189">
        <ele>1047</ele>
        <time>2018-05-18T17:49:45Z</time>
      </trkpt>
      <trkpt lat="45.70612" lon="6.61874">
        <ele>1048</ele>
        <time>2018-05-18T17:50:45Z</time>
      </trkpt>
      <trkpt lat="45.7062" lon="6.61841">
        <ele>1049</ele>
        <time>2018-05-18T17:51:45Z</time>
      </trkpt>
      <trkpt lat="45.70625" lon="6.61811">
        <ele>1055</ele>
        <time>2018-05-18T17:52:45Z</time>
      </trkpt>
      <trkpt lat="45.70628" lon="6.61788">
        <ele>1056</ele>
        <time>2018-05-18T17:53:45Z</time>
      </trkpt>
      <trkpt lat="45.70632" lon="6.61727">
        <ele>1058</ele>
        <time>2018-05-18T17:54:45Z</time>
      </trkpt>
      <trkpt lat="45.70638" lon="6.6165">
        <ele>1050</ele>
        <time>2018-05-18T17:55:45Z</time>
      </trkpt>
      <trkpt lat="45.70639" lon="6.61637">
        <ele>1050</ele>
        <time>2018-05-18T17:56:45Z</time>
      </trkpt>
      <trkpt lat="45.7064" lon="6.61616">
        <ele>1050</ele>
        <time>2018-05-18T17:57:45Z</time>
      </trkpt>
      <trkpt lat="45.70637" lon="6.61566">
        <ele>1048</ele>
        <time>2018-05-18T17:58:45Z</time>
      </trkpt>
      <trkpt lat="45.70637" lon="6.61545">
        <ele>1049</ele>
        <time>2018-05-18T17:59:45Z</time>
      </trkpt>
      <trkpt lat="45.70639" lon="6.61487">
        <ele>1046</ele>
        <time>2018-05-18T18:00:45Z</time>
      </trkpt>
      <trkpt lat="45.70639" lon="6.61475">
        <ele>1047</ele>
        <time>2018-05-18T18:01:45Z</time>
      </trkpt>
      <trkpt lat="45.7064" lon="6.61474">
        <ele>1046</ele>
        <time>2018-05-18T18:02:45Z</time>
      </trkpt>
      <trkpt lat="45.70644" lon="6.61459">
        <ele>1045</ele>
        <time>2018-05-18T18:03:45Z</time>
      </trkpt>
      <trkpt lat="45.70651" lon="6.61434">
        <ele>1040</ele>
        <time>2018-05-18T18:04:45Z</time>
      </trkpt>
      <trkpt lat="45.70667" lon="6.6139">
        <ele>1029</ele>
        <time>2018-05-18T18:05:45Z</time>
      </trkpt>
      <trkpt lat="45.70674" lon="6.61373">
        <ele>1030</ele>
        <time>2018-05-18T18:06:45Z</time>
      </trkpt>
      <trkpt lat="45.70679" lon="6.6136">
        <ele>1030</ele>
        <time>2018-05-18T18:07:45Z</time>
      </trkpt>
      <trkpt lat="45.70684" lon="6.61347">
        <ele>1031</ele>
        <time>2018-05-18T18:08:45Z</time>
      </trkpt>
      <trkpt lat="45.70688" lon="6.6134">
        <ele>1031</ele>
        <time>2018-05-18T18:09:45Z</time>
      </trkpt>
      <trkpt lat="45.70694" lon="6.6133">
        <ele>1030</ele>
        <time>2018-05-18T18:10:45Z</time>
      </trkpt>
      <trkpt lat="45.70699" lon="6.61322">
        <ele>1030</ele>
        <time>2018-05-18T18:11:45Z</time>
      </trkpt>
      <trkpt lat="45.70705" lon="6.61311">
        <ele>1029</ele>
        <time>2018-05-18T18:12:45Z</time>
      </trkpt>
      <trkpt lat="45.70707" lon="6.61306">
        <ele>1029</ele>
        <time>2018-05-18T18:13:45Z</time>
      </trkpt>
      <trkpt lat="45.70708" lon="6.61302">
        <ele>1029</ele>
        <time>2018-05-18T18:14:45Z</time>
      </trkpt>
      <trkpt lat="45.70708" lon="6.61296">
        <ele>1029</ele>
        <time>2018-05-18T18:15:45Z</time>
      </trkpt>
      <trkpt lat="45.70708" lon="6.6129">
        <ele>1029</ele>
        <time>2018-05-18T18:16:45Z</time>
      </trkpt>
      <trkpt lat="45.70707" lon="6.61283">
        <ele>1029</ele>
        <time>2018-05-18T18:17:45Z</time>
      </trkpt>
      <trkpt lat="45.70706" lon="6.61276">
        <ele>1029</ele>
        <time>2018-05-18T18:18:45Z</time>
      </trkpt>
      <trkpt lat="45.70704" lon="6.6127">
        <ele>1028</ele>
        <time>2018-05-18T18:19:45Z</time>
      </trkpt>
      <trkpt lat="45.70703" lon="6.61262">
        <ele>1028</ele>
        <time>2018-05-18T18:20:45Z</time>
      </trkpt>
      <trkpt lat="45.70702" lon="6.61255">
        <ele>1028</ele>
        <time>2018-05-18T18:21:45Z</time>
      </trkpt>
      <trkpt lat="45.70703" lon="6.61246">
        <ele>1027</ele>
        <time>2018-05-18T18:22:45Z</time>
      </trkpt>
      <trkpt lat="45.70705" lon="6.61239">
        <ele>1026</ele>
        <time>2018-05-18T18:23:45Z</time>
      </trkpt>
      <trkpt lat="45.70709" lon="6.6123">
        <ele>1026</ele>
        <time>2018-05-18T18:24:45Z</time>
      </trkpt>
      <trkpt lat="45.7071" lon="6.61228">
        <ele>1026</ele>
        <time>2018-05-18T18:25:45Z</time>
      </trkpt>
      <trkpt lat="45.70711" lon="6.61213">
        <ele>1026</ele>
        <time>2018-05-18T18:26:45Z</time>
      </trkpt>
      <trkpt lat="45.70711" lon="6.61198">
        <ele>1025</ele>
        <time>2018-05-18T18:27:45Z</time>
      </trkpt>
      <trkpt lat="45.7071" lon="6.61189">
        <ele>1025</ele>
        <time>2018-05-18T18:28:45Z</time>
      </trkpt>
      <trkpt lat="45.70708" lon="6.6118">
        <ele>1025</ele>
        <time>2018-05-18T18:29:45Z</time>
      </trkpt>
      <trkpt lat="45.70703" lon="6.6117">
        <ele>1026</ele>
        <time>2018-05-18T18:30:45Z</time>
      </trkpt>
      <trkpt lat="45.70699" lon="6.61161">
        <ele>1024</ele>
        <time>2018-05-18T18:31:45Z</time>
      </trkpt>
      <trkpt lat="45.70692" lon="6.61151">
        <ele>1025</ele>
        <time>2018-05-18T18:32:45Z</time>
      </trkpt>
      <trkpt lat="45.70688" lon="6.61146">
        <ele>1025</ele>
        <time>2018-05-18T18:33:45Z</time>
      </trkpt>
      <trkpt lat="45.70685" lon="6.61141">
        <ele>1025</ele>
        <time>2018-05-18T18:34:45Z</time>
      </trkpt>
      <trkpt lat="45.70681" lon="6.61133">
        <ele>1025</ele>
        <time>2018-05-18T18:35:45Z</time>
      </trkpt>
      <trkpt lat="45.70677" lon="6.61124">
        <ele>1025</ele>
        <time>2018-05-18T18:36:45Z</time>
      </trkpt>
      <trkpt lat="45.70675" lon="6.61116">
        <ele>1024</ele>
        <time>2018-05-18T18:37:45Z</time>
      </trkpt>
      <trkpt lat="45.70673" lon="6.61107">
        <ele>1025</ele>
        <time>2018-05-18T18:38:45Z</time>
      </trkpt>
      <trkpt lat="45.70674" lon="6.61088">
        <ele>1026</ele>
        <time>2018-05-18T18:39:45Z</time>
      </trkpt>
      <trkpt lat="45.70676" lon="6.61079">
        <ele>1024</ele>
        <time>2018-05-18T18:40:45Z</time>
      </trkpt>
      <trkpt lat="45.70677" lon="6.61074">
        <ele>1023</ele>
        <time>2018-05-18T18:41:45Z</time>
      </trkpt>
      <trkpt lat="45.70691" lon="6.61007">
        <ele>1017</ele>
        <time>2018-05-18T18:42:45Z</time>
      </trkpt>
      <trkpt lat="45.707" lon="6.6096">
        <ele>1014</ele>
        <time>2018-05-18T18:43:45Z</time>
      </trkpt>
      <trkpt lat="45.70703" lon="6.6095">
        <ele>1014</ele>
        <time>2018-05-18T18:44:45Z</time>
      </trkpt>
      <trkpt lat="45.70707" lon="6.60939">
        <ele>1013</ele>
        <time>2018-05-18T18:45:45Z</time>
      </trkpt>
      <trkpt lat="45.7071" lon="6.60931">
        <ele>1013</ele>
        <time>2018-05-18T18:46:45Z</time>
      </trkpt>
      <trkpt lat="45.70722" lon="6.60911">
        <ele>1012</ele>
        <time>2018-05-18T18:47:45Z</time>
      </trkpt>
      <trkpt lat="45.70727" lon="6.60902">
        <ele>1011</ele>
        <time>2018-05-18T18:48:45Z</time>
      </trkpt>
      <trkpt lat="45.70731" lon="6.60892">
        <ele>1011</ele>
        <time>2018-05-18T18:49:45Z</time>
      </trkpt>
      <trkpt lat="45.70734" lon="6.60885">
        <ele>1012</ele>
        <time>2018-05-18T18:50:45Z</time>
      </trkpt>
      <trkpt lat="45.70735" lon="6.60879">
        <ele>1012</ele>
        <time>2018-05-18T18:51:45Z</time>
      </trkpt>
      <trkpt lat="45.70736" lon="6.60873">
        <ele>1013</ele>
        <time>2018-05-18T18:52:45Z</time>
      </trkpt>
      <trkpt lat="45.70736" lon="6.60866">
        <ele>1013</ele>
        <time>2018-05-18T18:53:45Z</time>
      </trkpt>
      <trkpt lat="45.70736" lon="6.6086">
        <ele>1013</ele>
        <time>2018-05-18T18:54:45Z</time>
      </trkpt>
      <trkpt lat="45.70735" lon="6.60853">
        <ele>1012</ele>
        <time>2018-05-18T18:55:45Z</time>
      </trkpt>
      <trkpt lat="45.70734" lon="6.60846">
        <ele>1012</ele>
        <time>2018-05-18T18:56:45Z</time>
      </trkpt>
      <trkpt lat="45.70731" lon="6.60834">
        <ele>1012</ele>
        <time>2018-05-18T18:57:45Z</time>
      </trkpt>
      <trkpt lat="45.70723" lon="6.60809">
        <ele>1021</ele>
        <time>2018-05-18T18:58:45Z</time>
      </trkpt>
      <trkpt lat="45.70714" lon="6.60781">
        <ele>1025</ele>
        <time>2018-05-18T18:59:45Z</time>
      </trkpt>
      <trkpt lat="45.70706" lon="6.60751">
        <ele>1029</ele>
        <time>2018-05-18T19:00:45Z</time>
      </trkpt>
      <trkpt lat="45.70703" lon="6.60736">
        <ele>1034</ele>
        <time>2018-05-18T19:01:45Z</time>
      </trkpt>
      <trkpt lat="45.70701" lon="6.60727">
        <ele>1035</ele>
        <time>2018-05-18T19:02:45Z</time>
      </trkpt>
      <trkpt lat="45.707" lon="6.60713">
        <ele>1035</ele>
        <time>2018-05-18T19:03:45Z</time>
      </trkpt>
      <trkpt lat="45.707" lon="6.60697">
        <ele>1036</ele>
        <time>2018-05-18T19:04:45Z</time>
      </trkpt>
      <trkpt lat="45.70701" lon="6.60683">
        <ele>1037</ele>
        <time>2018-05-18T19:05:45Z</time>
      </trkpt>
      <trkpt lat="45.70702" lon="6.60671">
        <ele>1037</ele>
        <time>2018-05-18T19:06:45Z</time>
      </trkpt>
      <trkpt lat="45.70704" lon="6.60661">
        <ele>1034</ele>
        <time>2018-05-18T19:07:45Z</time>
      </trkpt>
      <trkpt lat="45.70709" lon="6.60644">
        <ele>1030</ele>
        <time>2018-05-18T19:08:45Z</time>
      </trkpt>
      <trkpt lat="45.70714" lon="6.60631">
        <ele>1026</ele>
        <time>2018-05-18T19:09:45Z</time>
      </trkpt>
      <trkpt lat="45.70728" lon="6.60602">
        <ele>1011</ele>
        <time>2018-05-18T19:10:45Z</time>
      </trkpt>
      <trkpt lat="45.7073" lon="6.60594">
        <ele>1006</ele>
        <time>2018-05-18T19:11:45Z</time>
      </trkpt>
      <trkpt lat="45.70731" lon="6.60588">
        <ele>1003</ele>
        <time>2018-05-18T19:12:45Z</time>
      </trkpt>
      <trkpt lat="45.70732" lon="6.6058">
        <ele>1000</ele>
        <time>2018-05-18T19:13:45Z</time>
      </trkpt>
      <trkpt lat="45.70732" lon="6.60573">
        <ele>1002</ele>
        <time>2018-05-18T19:14:45Z</time>
      </trkpt>
      <trkpt lat="45.70732" lon="6.60565">
        <ele>1006</ele>
        <time>2018-05-18T19:15:45Z</time>
      </trkpt>
      <trkpt lat="45.70732" lon="6.60557">
        <ele>1010</ele>
        <time>2018-05-18T19:16:45Z</time>
      </trkpt>
      <trkpt lat="45.70731" lon="6.6055">
        <ele>1012</ele>
        <time>2018-05-18T19:17:45Z</time>
      </trkpt>
      <trkpt lat="45.70731" lon="6.60543">
        <ele>1013</ele>
        <time>2018-05-18T19:18:45Z</time>
      </trkpt>
      <trkpt lat="45.70731" lon="6.60536">
        <ele>1013</ele>
        <time>2018-05-18T19:19:45Z</time>
      </trkpt>
      <trkpt lat="45.70732" lon="6.6053">
        <ele>1011</ele>
        <time>2018-05-18T19:20:45Z</time>
      </trkpt>
      <trkpt lat="45.70734" lon="6.60525">
        <ele>1009</ele>
        <time>2018-05-18T19:21:45Z</time>
      </trkpt>
      <trkpt lat="45.70737" lon="6.60521">
        <ele>1005</ele>
        <time>2018-05-18T19:22:45Z</time>
      </trkpt>
      <trkpt lat="45.70746" lon="6.60511">
        <ele>991</ele>
        <time>2018-05-18T19:23:45Z</time>
      </trkpt>
      <trkpt lat="45.70748" lon="6.60508">
        <ele>986</ele>
        <time>2018-05-18T19:24:45Z</time>
      </trkpt>
      <trkpt lat="45.7075" lon="6.60504">
        <ele>971</ele>
        <time>2018-05-18T19:25:45Z</time>
      </trkpt>
      <trkpt lat="45.70752" lon="6.605">
        <ele>971</ele>
        <time>2018-05-18T19:26:45Z</time>
      </trkpt>
      <trkpt lat="45.70753" lon="6.60494">
        <ele>968</ele>
        <time>2018-05-18T19:27:45Z</time>
      </trkpt>
      <trkpt lat="45.70754" lon="6.60489">
        <ele>967</ele>
        <time>2018-05-18T19:28:45Z</time>
      </trkpt>
      <trkpt lat="45.70754" lon="6.60482">
        <ele>965</ele>
        <time>2018-05-18T19:29:45Z</time>
      </trkpt>
      <trkpt lat="45.70752" lon="6.60467">
        <ele>962</ele>
        <time>2018-05-18T19:30:45Z</time>
      </trkpt>
      <trkpt lat="45.70745" lon="6.60416">
        <ele>965</ele>
        <time>2018-05-18T19:31:45Z</time>
      </trkpt>
      <trkpt lat="45.70735" lon="6.60358">
        <ele>976</ele>
        <time>2018-05-18T19:32:45Z</time>
      </trkpt>
      <trkpt lat="45.70732" lon="6.60344">
        <ele>972</ele>
        <time>2018-05-18T19:33:45Z</time>
      </trkpt>
      <trkpt lat="45.70728" lon="6.60325">
        <ele>960</ele>
        <time>2018-05-18T19:34:45Z</time>
      </trkpt>
      <trkpt lat="45.70725" lon="6.60314">
        <ele>961</ele>
        <time>2018-05-18T19:35:45Z</time>
      </trkpt>
      <trkpt lat="45.70722" lon="6.60304">
        <ele>962</ele>
        <time>2018-05-18T19:36:45Z</time>
      </trkpt>
      <trkpt lat="45.70718" lon="6.60294">
        <ele>962</ele>
        <time>2018-05-18T19:37:45Z</time>
      </trkpt>
      <trkpt lat="45.70714" lon="6.60284">
        <ele>962</ele>
        <time>2018-05-18T19:38:45Z</time>
      </trkpt>
      <trkpt lat="45.70691" lon="6.60231">
        <ele>950</ele>
        <time>2018-05-18T19:39:45Z</time>
      </trkpt>
      <trkpt lat="45.70683" lon="6.60209">
        <ele>947</ele>
        <time>2018-05-18T19:40:45Z</time>
      </trkpt>
      <trkpt lat="45.7067" lon="6.6016">
        <ele>944</ele>
        <time>2018-05-18T19:41:45Z</time>
      </trkpt>
      <trkpt lat="45.70664" lon="6.60136">
        <ele>965</ele>
        <time>2018-05-18T19:42:45Z</time>
      </trkpt>
      <trkpt lat="45.70661" lon="6.60124">
        <ele>965</ele>
        <time>2018-05-18T19:43:45Z</time>
      </trkpt>
      <trkpt lat="45.70659" lon="6.60112">
        <ele>963</ele>
        <time>2018-05-18T19:44:45Z</time>
      </trkpt>
      <trkpt lat="45.70657" lon="6.601">
        <ele>959</ele>
        <time>2018-05-18T19:45:45Z</time>
      </trkpt>
      <trkpt lat="45.70656" lon="6.60087">
        <ele>953</ele>
        <time>2018-05-18T19:46:45Z</time>
      </trkpt>
      <trkpt lat="45.70656" lon="6.60075">
        <ele>950</ele>
        <time>2018-05-18T19:47:45Z</time>
      </trkpt>
      <trkpt lat="45.70657" lon="6.60063">
        <ele>953</ele>
        <time>2018-05-18T19:48:45Z</time>
      </trkpt>
      <trkpt lat="45.70658" lon="6.60051">
        <ele>955</ele>
        <time>2018-05-18T19:49:45Z</time>
      </trkpt>
      <trkpt lat="45.7066" lon="6.60027">
        <ele>953</ele>
        <time>2018-05-18T19:50:45Z</time>
      </trkpt>
      <trkpt lat="45.70667" lon="6.59963">
        <ele>922</ele>
        <time>2018-05-18T19:51:45Z</time>
      </trkpt>
      <trkpt lat="45.70671" lon="6.59937">
        <ele>924</ele>
        <time>2018-05-18T19:52:45Z</time>
      </trkpt>
      <trkpt lat="45.70675" lon="6.59913">
        <ele>928</ele>
        <time>2018-05-18T19:53:45Z</time>
      </trkpt>
      <trkpt lat="45.70683" lon="6.59878">
        <ele>920</ele>
        <time>2018-05-18T19:54:45Z</time>
      </trkpt>
      <trkpt lat="45.70693" lon="6.59832">
        <ele>918</ele>
        <time>2018-05-18T19:55:45Z</time>
      </trkpt>
      <trkpt lat="45.70699" lon="6.59797">
        <ele>914</ele>
        <time>2018-05-18T19:56:45Z</time>
      </trkpt>
      <trkpt lat="45.70702" lon="6.59774">
        <ele>913</ele>
        <time>2018-05-18T19:57:45Z</time>
      </trkpt>
      <trkpt lat="45.70703" lon="6.5976">
        <ele>913</ele>
        <time>2018-05-18T19:58:45Z</time>
      </trkpt>
      <trkpt lat="45.70705" lon="6.59736">
        <ele>910</ele>
        <time>2018-05-18T19:59:45Z</time>
      </trkpt>
      <trkpt lat="45.70706" lon="6.59713">
        <ele>909</ele>
        <time>2018-05-18T20:00:45Z</time>
      </trkpt>
      <trkpt lat="45.70704" lon="6.59634">
        <ele>907</ele>
        <time>2018-05-18T20:01:45Z</time>
      </trkpt>
      <trkpt lat="45.70702" lon="6.59581">
        <ele>904</ele>
        <time>2018-05-18T20:02:45Z</time>
      </trkpt>
      <trkpt lat="45.70702" lon="6.59561">
        <ele>903</ele>
        <time>2018-05-18T20:03:45Z</time>
      </trkpt>
      <trkpt lat="45.70704" lon="6.59513">
        <ele>902</ele>
        <time>2018-05-18T20:04:45Z</time>
      </trkpt>
      <trkpt lat="45.70713" lon="6.59389">
        <ele>895</ele>
        <time>2018-05-18T20:05:45Z</time>
      </trkpt>
      <trkpt lat="45.70713" lon="6.59387">
        <ele>895</ele>
        <time>2018-05-18T20:06:45Z</time>
      </trkpt>
      <trkpt lat="45.70716" lon="6.59374">
        <ele>894</ele>
        <time>2018-05-18T20:07:45Z</time>
      </trkpt>
      <trkpt lat="45.70718" lon="6.59365">
        <ele>894</ele>
        <time>2018-05-18T20:08:45Z</time>
      </trkpt>
      <trkpt lat="45.70724" lon="6.59352">
        <ele>892</ele>
        <time>2018-05-18T20:09:45Z</time>
      </trkpt>
      <trkpt lat="45.7074" lon="6.59322">
        <ele>889</ele>
        <time>2018-05-18T20:10:45Z</time>
      </trkpt>
      <trkpt lat="45.70746" lon="6.5931">
        <ele>891</ele>
        <time>2018-05-18T20:11:45Z</time>
      </trkpt>
      <trkpt lat="45.70758" lon="6.59286">
        <ele>876</ele>
        <time>2018-05-18T20:12:45Z</time>
      </trkpt>
      <trkpt lat="45.70763" lon="6.59273">
        <ele>877</ele>
        <time>2018-05-18T20:13:45Z</time>
      </trkpt>
      <trkpt lat="45.70767" lon="6.59256">
        <ele>878</ele>
        <time>2018-05-18T20:14:45Z</time>
      </trkpt>
      <trkpt lat="45.70768" lon="6.59254">
        <ele>878</ele>
        <time>2018-05-18T20:15:45Z</time>
      </trkpt>
      <trkpt lat="45.70771" lon="6.59235">
        <ele>880</ele>
        <time>2018-05-18T20:16:45Z</time>
      </trkpt>
      <trkpt lat="45.70774" lon="6.59223">
        <ele>879</ele>
        <time>2018-05-18T20:17:45Z</time>
      </trkpt>
      <trkpt lat="45.70777" lon="6.59214">
        <ele>879</ele>
        <time>2018-05-18T20:18:45Z</time>
      </trkpt>
      <trkpt lat="45.70782" lon="6.59202">
        <ele>879</ele>
        <time>2018-05-18T20:19:45Z</time>
      </trkpt>
      <trkpt lat="45.70785" lon="6.59196">
        <ele>879</ele>
        <time>2018-05-18T20:20:45Z</time>
      </trkpt>
      <trkpt lat="45.70789" lon="6.59191">
        <ele>878</ele>
        <time>2018-05-18T20:21:45Z</time>
      </trkpt>
      <trkpt lat="45.70793" lon="6.59186">
        <ele>878</ele>
        <time>2018-05-18T20:22:45Z</time>
      </trkpt>
      <trkpt lat="45.70798" lon="6.59182">
        <ele>877</ele>
        <time>2018-05-18T20:23:45Z</time>
      </trkpt>
      <trkpt lat="45.70803" lon="6.59178">
        <ele>876</ele>
        <time>2018-05-18T20:24:45Z</time>
      </trkpt>
      <trkpt lat="45.70809" lon="6.59175">
        <ele>875</ele>
        <time>2018-05-18T20:25:45Z</time>
      </trkpt>
      <trkpt lat="45.70818" lon="6.59172">
        <ele>873</ele>
        <time>2018-05-18T20:26:45Z</time>
      </trkpt>
      <trkpt lat="45.70826" lon="6.5917">
        <ele>871</ele>
        <time>2018-05-18T20:27:45Z</time>
      </trkpt>
      <trkpt lat="45.70847" lon="6.59166">
        <ele>869</ele>
        <time>2018-05-18T20:28:45Z</time>
      </trkpt>
      <trkpt lat="45.70853" lon="6.59162">
        <ele>869</ele>
        <time>2018-05-18T20:29:45Z</time>
      </trkpt>
      <trkpt lat="45.70858" lon="6.59159">
        <ele>869</ele>
        <time>2018-05-18T20:30:45Z</time>
      </trkpt>
      <trkpt lat="45.70862" lon="6.59154">
        <ele>870</ele>
        <time>2018-05-18T20:31:45Z</time>
      </trkpt>
      <trkpt lat="45.70867" lon="6.59148">
        <ele>870</ele>
        <time>2018-05-18T20:32:45Z</time>
      </trkpt>
      <trkpt lat="45.70871" lon="6.59142">
        <ele>870</ele>
        <time>2018-05-18T20:33:45Z</time>
      </trkpt>
      <trkpt lat="45.70877" lon="6.5913">
        <ele>871</ele>
        <time>2018-05-18T20:34:45Z</time>
      </trkpt>
      <trkpt lat="45.70911" lon="6.59076">
        <ele>879</ele>
        <time>2018-05-18T20:35:45Z</time>
      </trkpt>
      <trkpt lat="45.70947" lon="6.59015">
        <ele>880</ele>
        <time>2018-05-18T20:36:45Z</time>
      </trkpt>
      <trkpt lat="45.70954" lon="6.59005">
        <ele>878</ele>
        <time>2018-05-18T20:37:45Z</time>
      </trkpt>
      <trkpt lat="45.70962" lon="6.58994">
        <ele>891</ele>
        <time>2018-05-18T20:38:45Z</time>
      </trkpt>
      <trkpt lat="45.70967" lon="6.58988">
        <ele>889</ele>
        <time>2018-05-18T20:39:45Z</time>
      </trkpt>
      <trkpt lat="45.70977" lon="6.58977">
        <ele>886</ele>
        <time>2018-05-18T20:40:45Z</time>
      </trkpt>
      <trkpt lat="45.7099" lon="6.58964">
        <ele>886</ele>
        <time>2018-05-18T20:41:45Z</time>
      </trkpt>
      <trkpt lat="45.70998" lon="6.58955">
        <ele>886</ele>
        <time>2018-05-18T20:42:45Z</time>
      </trkpt>
      <trkpt lat="45.71005" lon="6.58945">
        <ele>865</ele>
        <time>2018-05-18T20:43:45Z</time>
      </trkpt>
      <trkpt lat="45.71014" lon="6.58934">
        <ele>866</ele>
        <time>2018-05-18T20:44:45Z</time>
      </trkpt>
      <trkpt lat="45.71017" lon="6.58932">
        <ele>866</ele>
        <time>2018-05-18T20:45:45Z</time>
      </trkpt>
      <trkpt lat="45.7102" lon="6.58932">
        <ele>865</ele>
        <time>2018-05-18T20:46:45Z</time>
      </trkpt>
      <trkpt lat="45.71023" lon="6.58932">
        <ele>865</ele>
        <time>2018-05-18T20:47:45Z</time>
      </trkpt>
      <trkpt lat="45.71025" lon="6.58934">
        <ele>864</ele>
        <time>2018-05-18T20:48:45Z</time>
      </trkpt>
      <trkpt lat="45.71027" lon="6.58938">
        <ele>864</ele>
        <time>2018-05-18T20:49:45Z</time>
      </trkpt>
      <trkpt lat="45.71027" lon="6.58942">
        <ele>863</ele>
        <time>2018-05-18T20:50:45Z</time>
      </trkpt>
      <trkpt lat="45.71027" lon="6.58949">
        <ele>863</ele>
        <time>2018-05-18T20:51:45Z</time>
      </trkpt>
      <trkpt lat="45.71026" lon="6.58956">
        <ele>862</ele>
        <time>2018-05-18T20:52:45Z</time>
      </trkpt>
      <trkpt lat="45.71024" lon="6.58962">
        <ele>862</ele>
        <time>2018-05-18T20:53:45Z</time>
      </trkpt>
      <trkpt lat="45.71021" lon="6.58969">
        <ele>861</ele>
        <time>2018-05-18T20:54:45Z</time>
      </trkpt>
      <trkpt lat="45.71018" lon="6.58975">
        <ele>861</ele>
        <time>2018-05-18T20:55:45Z</time>
      </trkpt>
      <trkpt lat="45.71015" lon="6.58979">
        <ele>860</ele>
        <time>2018-05-18T20:56:45Z</time>
      </trkpt>
      <trkpt lat="45.71" lon="6.5899">
        <ele>859</ele>
        <time>2018-05-18T20:57:45Z</time>
      </trkpt>
      <trkpt lat="45.70994" lon="6.58995">
        <ele>868</ele>
        <time>2018-05-18T20:58:45Z</time>
      </trkpt>
      <trkpt lat="45.7099" lon="6.58997">
        <ele>871</ele>
        <time>2018-05-18T20:59:45Z</time>
      </trkpt>
      <trkpt lat="45.70988" lon="6.59001">
        <ele>864</ele>
        <time>2018-05-18T21:00:45Z</time>
      </trkpt>
      <trkpt lat="45.70987" lon="6.59005">
        <ele>865</ele>
        <time>2018-05-18T21:01:45Z</time>
      </trkpt>
      <trkpt lat="45.70987" lon="6.5901">
        <ele>866</ele>
        <time>2018-05-18T21:02:45Z</time>
      </trkpt>
      <trkpt lat="45.70989" lon="6.59015">
        <ele>866</ele>
        <time>2018-05-18T21:03:45Z</time>
      </trkpt>
      <trkpt lat="45.70991" lon="6.59018">
        <ele>866</ele>
        <time>2018-05-18T21:04:45Z</time>
      </trkpt>
      <trkpt lat="45.70995" lon="6.59019">
        <ele>865</ele>
        <time>2018-05-18T21:05:45Z</time>
      </trkpt>
      <trkpt lat="45.71001" lon="6.59019">
        <ele>858</ele>
        <time>2018-05-18T21:06:45Z</time>
      </trkpt>
      <trkpt lat="45.71008" lon="6.59016">
        <ele>858</ele>
        <time>2018-05-18T21:07:45Z</time>
      </trkpt>
      <trkpt lat="45.7103" lon="6.59002">
        <ele>859</ele>
        <time>2018-05-18T21:08:45Z</time>
      </trkpt>
      <trkpt lat="45.7105" lon="6.58986">
        <ele>860</ele>
        <time>2018-05-18T21:09:45Z</time>
      </trkpt>
      <trkpt lat="45.71069" lon="6.58968">
        <ele>860</ele>
        <time>2018-05-18T21:10:45Z</time>
      </trkpt>
      <trkpt lat="45.71091" lon="6.58949">
        <ele>870</ele>
        <time>2018-05-18T21:11:45Z</time>
      </trkpt>
      <trkpt lat="45.711" lon="6.58938">
        <ele>870</ele>
        <time>2018-05-18T21:12:45Z</time>
      </trkpt>
      <trkpt lat="45.71103" lon="6.58931">
        <ele>869</ele>
        <time>2018-05-18T21:13:45Z</time>
      </trkpt>
      <trkpt lat="45.71108" lon="6.58919">
        <ele>870</ele>
        <time>2018-05-18T21:14:45Z</time>
      </trkpt>
      <trkpt lat="45.71112" lon="6.58904">
        <ele>862</ele>
        <time>2018-05-18T21:15:45Z</time>
      </trkpt>
      <trkpt lat="45.7112" lon="6.58871">
        <ele>861</ele>
        <time>2018-05-18T21:16:45Z</time>
      </trkpt>
      <trkpt lat="45.7114" lon="6.58761">
        <ele>847</ele>
        <time>2018-05-18T21:17:45Z</time>
      </trkpt>
      <trkpt lat="45.71142" lon="6.58752">
        <ele>846</ele>
        <time>2018-05-18T21:18:45Z</time>
      </trkpt>
      <trkpt lat="45.71144" lon="6.58744">
        <ele>848</ele>
        <time>2018-05-18T21:19:45Z</time>
      </trkpt>
      <trkpt lat="45.71147" lon="6.58737">
        <ele>848</ele>
        <time>2018-05-18T21:20:45Z</time>
      </trkpt>
      <trkpt lat="45.71168" lon="6.5868">
        <ele>843</ele>
        <time>2018-05-18T21:21:45Z</time>
      </trkpt>
      <trkpt lat="45.7117" lon="6.58671">
        <ele>841</ele>
        <time>2018-05-18T21:22:45Z</time>
      </trkpt>
      <trkpt lat="45.71173" lon="6.58661">
        <ele>854</ele>
        <time>2018-05-18T21:23:45Z</time>
      </trkpt>
      <trkpt lat="45.71175" lon="6.58651">
        <ele>866</ele>
        <time>2018-05-18T21:24:45Z</time>
      </trkpt>
      <trkpt lat="45.71177" lon="6.5864">
        <ele>877</ele>
        <time>2018-05-18T21:25:45Z</time>
      </trkpt>
      <trkpt lat="45.71178" lon="6.5863">
        <ele>887</ele>
        <time>2018-05-18T21:26:45Z</time>
      </trkpt>
      <trkpt lat="45.71182" lon="6.58573">
        <ele>962</ele>
        <time>2018-05-18T21:27:45Z</time>
      </trkpt>
      <trkpt lat="45.71187" lon="6.58489">
        <ele>994</ele>
        <time>2018-05-18T21:28:45Z</time>
      </trkpt>
      <trkpt lat="45.71189" lon="6.58463">
        <ele>982</ele>
        <time>2018-05-18T21:29:45Z</time>
      </trkpt>
      <trkpt lat="45.7119" lon="6.5845">
        <ele>977</ele>
        <time>2018-05-18T21:30:45Z</time>
      </trkpt>
      <trkpt lat="45.71191" lon="6.58441">
        <ele>974</ele>
        <time>2018-05-18T21:31:45Z</time>
      </trkpt>
      <trkpt lat="45.71193" lon="6.58431">
        <ele>971</ele>
        <time>2018-05-18T21:32:45Z</time>
      </trkpt>
      <trkpt lat="45.71196" lon="6.58421">
        <ele>969</ele>
        <time>2018-05-18T21:33:45Z</time>
      </trkpt>
      <trkpt lat="45.71199" lon="6.58412">
        <ele>930</ele>
        <time>2018-05-18T21:34:45Z</time>
      </trkpt>
      <trkpt lat="45.7122" lon="6.58371">
        <ele>909</ele>
        <time>2018-05-18T21:35:45Z</time>
      </trkpt>
      <trkpt lat="45.71252" lon="6.58315">
        <ele>856</ele>
        <time>2018-05-18T21:36:45Z</time>
      </trkpt>
      <trkpt lat="45.71258" lon="6.58303">
        <ele>858</ele>
        <time>2018-05-18T21:37:45Z</time>
      </trkpt>
      <trkpt lat="45.71288" lon="6.58231">
        <ele>835</ele>
        <time>2018-05-18T21:38:45Z</time>
      </trkpt>
      <trkpt lat="45.71291" lon="6.58222">
        <ele>835</ele>
        <time>2018-05-18T21:39:45Z</time>
      </trkpt>
      <trkpt lat="45.71294" lon="6.58213">
        <ele>835</ele>
        <time>2018-05-18T21:40:45Z</time>
      </trkpt>
      <trkpt lat="45.71296" lon="6.58203">
        <ele>834</ele>
        <time>2018-05-18T21:41:45Z</time>
      </trkpt>
      <trkpt lat="45.71298" lon="6.58193">
        <ele>833</ele>
        <time>2018-05-18T21:42:45Z</time>
      </trkpt>
      <trkpt lat="45.71299" lon="6.58183">
        <ele>832</ele>
        <time>2018-05-18T21:43:45Z</time>
      </trkpt>
      <trkpt lat="45.713" lon="6.58165">
        <ele>831</ele>
        <time>2018-05-18T21:44:45Z</time>
      </trkpt>
      <trkpt lat="45.71301" lon="6.58149">
        <ele>832</ele>
        <time>2018-05-18T21:45:45Z</time>
      </trkpt>
      <trkpt lat="45.71302" lon="6.58136">
        <ele>832</ele>
        <time>2018-05-18T21:46:45Z</time>
      </trkpt>
      <trkpt lat="45.71304" lon="6.58124">
        <ele>833</ele>
        <time>2018-05-18T21:47:45Z</time>
      </trkpt>
      <trkpt lat="45.71307" lon="6.58112">
        <ele>832</ele>
        <time>2018-05-18T21:48:45Z</time>
      </trkpt>
      <trkpt lat="45.71311" lon="6.58099">
        <ele>830</ele>
        <time>2018-05-18T21:49:45Z</time>
      </trkpt>
      <trkpt lat="45.71314" lon="6.58088">
        <ele>827</ele>
        <time>2018-05-18T21:50:45Z</time>
      </trkpt>
      <trkpt lat="45.71319" lon="6.58056">
        <ele>832</ele>
        <time>2018-05-18T21:51:45Z</time>
      </trkpt>
      <trkpt lat="45.7132" lon="6.58044">
        <ele>832</ele>
        <time>2018-05-18T21:52:45Z</time>
      </trkpt>
      <trkpt lat="45.7132" lon="6.58004">
        <ele>818</ele>
        <time>2018-05-18T21:53:45Z</time>
      </trkpt>
      <trkpt lat="45.7132" lon="6.57994">
        <ele>820</ele>
        <time>2018-05-18T21:54:45Z</time>
      </trkpt>
      <trkpt lat="45.7132" lon="6.57986">
        <ele>824</ele>
        <time>2018-05-18T21:55:45Z</time>
      </trkpt>
      <trkpt lat="45.71321" lon="6.57973">
        <ele>830</ele>
        <time>2018-05-18T21:56:45Z</time>
      </trkpt>
      <trkpt lat="45.71323" lon="6.57964">
        <ele>832</ele>
        <time>2018-05-18T21:57:45Z</time>
      </trkpt>
      <trkpt lat="45.71325" lon="6.57958">
        <ele>832</ele>
        <time>2018-05-18T21:58:45Z</time>
      </trkpt>
      <trkpt lat="45.71328" lon="6.57953">
        <ele>831</ele>
        <time>2018-05-18T21:59:45Z</time>
      </trkpt>
      <trkpt lat="45.71331" lon="6.57948">
        <ele>829</ele>
        <time>2018-05-18T22:00:45Z</time>
      </trkpt>
      <trkpt lat="45.71339" lon="6.57934">
        <ele>802</ele>
        <time>2018-05-18T22:01:45Z</time>
      </trkpt>
      <trkpt lat="45.71367" lon="6.57897">
        <ele>799</ele>
        <time>2018-05-18T22:02:45Z</time>
      </trkpt>
      <trkpt lat="45.71395" lon="6.57864">
        <ele>796</ele>
        <time>2018-05-18T22:03:45Z</time>
      </trkpt>
      <trkpt lat="45.714" lon="6.57857">
        <ele>795</ele>
        <time>2018-05-18T22:04:45Z</time>
      </trkpt>
      <trkpt lat="45.71405" lon="6.57849">
        <ele>793</ele>
        <time>2018-05-18T22:05:45Z</time>
      </trkpt>
      <trkpt lat="45.7141" lon="6.57841">
        <ele>789</ele>
        <time>2018-05-18T22:06:45Z</time>
      </trkpt>
      <trkpt lat="45.71413" lon="6.57834">
        <ele>786</ele>
        <time>2018-05-18T22:07:45Z</time>
      </trkpt>
      <trkpt lat="45.71416" lon="6.57827">
        <ele>787</ele>
        <time>2018-05-18T22:08:45Z</time>
      </trkpt>
      <trkpt lat="45.71419" lon="6.57818">
        <ele>787</ele>
        <time>2018-05-18T22:09:45Z</time>
      </trkpt>
      <trkpt lat="45.71422" lon="6.57809">
        <ele>787</ele>
        <time>2018-05-18T22:10:45Z</time>
      </trkpt>
      <trkpt lat="45.71425" lon="6.5779">
        <ele>786</ele>
        <time>2018-05-18T22:11:45Z</time>
      </trkpt>
      <trkpt lat="45.71425" lon="6.5779">
        <ele>786</ele>
        <time>2018-05-18T22:12:45Z</time>
      </trkpt>
      <trkpt lat="45.71431" lon="6.57785">
        <ele>786</ele>
        <time>2018-05-18T22:13:45Z</time>
      </trkpt>
      <trkpt lat="45.71433" lon="6.57783">
        <ele>786</ele>
        <time>2018-05-18T22:14:45Z</time>
      </trkpt>
      <trkpt lat="45.71435" lon="6.57779">
        <ele>786</ele>
        <time>2018-05-18T22:15:45Z</time>
      </trkpt>
      <trkpt lat="45.71439" lon="6.57764">
        <ele>785</ele>
        <time>2018-05-18T22:16:45Z</time>
      </trkpt>
      <trkpt lat="45.71443" lon="6.57746">
        <ele>776</ele>
        <time>2018-05-18T22:17:45Z</time>
      </trkpt>
      <trkpt lat="45.71448" lon="6.57719">
        <ele>776</ele>
        <time>2018-05-18T22:18:45Z</time>
      </trkpt>
      <trkpt lat="45.7145" lon="6.57714">
        <ele>775</ele>
        <time>2018-05-18T22:19:45Z</time>
      </trkpt>
      <trkpt lat="45.71452" lon="6.57708">
        <ele>775</ele>
        <time>2018-05-18T22:20:45Z</time>
      </trkpt>
      <trkpt lat="45.71454" lon="6.57704">
        <ele>775</ele>
        <time>2018-05-18T22:21:45Z</time>
      </trkpt>
      <trkpt lat="45.71458" lon="6.57701">
        <ele>775</ele>
        <time>2018-05-18T22:22:45Z</time>
      </trkpt>
      <trkpt lat="45.7146" lon="6.577">
        <ele>775</ele>
        <time>2018-05-18T22:23:45Z</time>
      </trkpt>
      <trkpt lat="45.71462" lon="6.577">
        <ele>775</ele>
        <time>2018-05-18T22:24:45Z</time>
      </trkpt>
      <trkpt lat="45.71465" lon="6.577">
        <ele>775</ele>
        <time>2018-05-18T22:25:45Z</time>
      </trkpt>
      <trkpt lat="45.71469" lon="6.57701">
        <ele>775</ele>
        <time>2018-05-18T22:26:45Z</time>
      </trkpt>
      <trkpt lat="45.71494" lon="6.5771">
        <ele>777</ele>
        <time>2018-05-18T22:27:45Z</time>
      </trkpt>
      <trkpt lat="45.71512" lon="6.57717">
        <ele>780</ele>
        <time>2018-05-18T22:28:45Z</time>
      </trkpt>
      <trkpt lat="45.71522" lon="6.57723">
        <ele>780</ele>
        <time>2018-05-18T22:29:45Z</time>
      </trkpt>
      <trkpt lat="45.71531" lon="6.57724">
        <ele>780</ele>
        <time>2018-05-18T22:30:45Z</time>
      </trkpt>
      <trkpt lat="45.71537" lon="6.57723">
        <ele>780</ele>
        <time>2018-05-18T22:31:45Z</time>
      </trkpt>
      <trkpt lat="45.71543" lon="6.57721">
        <ele>780</ele>
        <time>2018-05-18T22:32:45Z</time>
      </trkpt>
      <trkpt lat="45.71553" lon="6.57716">
        <ele>779</ele>
        <time>2018-05-18T22:33:45Z</time>
      </trkpt>
      <trkpt lat="45.71569" lon="6.57708">
        <ele>778</ele>
        <time>2018-05-18T22:34:45Z</time>
      </trkpt>
      <trkpt lat="45.71576" lon="6.57704">
        <ele>777</ele>
        <time>2018-05-18T22:35:45Z</time>
      </trkpt>
      <trkpt lat="45.71582" lon="6.57702">
        <ele>777</ele>
        <time>2018-05-18T22:36:45Z</time>
      </trkpt>
      <trkpt lat="45.71587" lon="6.577">
        <ele>776</ele>
        <time>2018-05-18T22:37:45Z</time>
      </trkpt>
      <trkpt lat="45.71595" lon="6.57699">
        <ele>776</ele>
        <time>2018-05-18T22:38:45Z</time>
      </trkpt>
      <trkpt lat="45.71607" lon="6.57698">
        <ele>776</ele>
        <time>2018-05-18T22:39:45Z</time>
      </trkpt>
      <trkpt lat="45.7162" lon="6.577">
        <ele>776</ele>
        <time>2018-05-18T22:40:45Z</time>
      </trkpt>
      <trkpt lat="45.71626" lon="6.57702">
        <ele>776</ele>
        <time>2018-05-18T22:41:45Z</time>
      </trkpt>
      <trkpt lat="45.71632" lon="6.57705">
        <ele>777</ele>
        <time>2018-05-18T22:42:45Z</time>
      </trkpt>
      <trkpt lat="45.71638" lon="6.57709">
        <ele>777</ele>
        <time>2018-05-18T22:43:45Z</time>
      </trkpt>
      <trkpt lat="45.71642" lon="6.57712">
        <ele>778</ele>
        <time>2018-05-18T22:44:45Z</time>
      </trkpt>
      <trkpt lat="45.71648" lon="6.57717">
        <ele>779</ele>
        <time>2018-05-18T22:45:45Z</time>
      </trkpt>
      <trkpt lat="45.71651" lon="6.57721">
        <ele>780</ele>
        <time>2018-05-18T22:46:45Z</time>
      </trkpt>
      <trkpt lat="45.71658" lon="6.57729">
        <ele>782</ele>
        <time>2018-05-18T22:47:45Z</time>
      </trkpt>
      <trkpt lat="45.71672" lon="6.57745">
        <ele>787</ele>
        <time>2018-05-18T22:48:45Z</time>
      </trkpt>
      <trkpt lat="45.71681" lon="6.57754">
        <ele>797</ele>
        <time>2018-05-18T22:49:45Z</time>
      </trkpt>
      <trkpt lat="45.71688" lon="6.5776">
        <ele>799</ele>
        <time>2018-05-18T22:50:45Z</time>
      </trkpt>
      <trkpt lat="45.71693" lon="6.57764">
        <ele>800</ele>
        <time>2018-05-18T22:51:45Z</time>
      </trkpt>
      <trkpt lat="45.71695" lon="6.57768">
        <ele>801</ele>
        <time>2018-05-18T22:52:45Z</time>
      </trkpt>
      <trkpt lat="45.71697" lon="6.57773">
        <ele>802</ele>
        <time>2018-05-18T22:53:45Z</time>
      </trkpt>
      <trkpt lat="45.71698" lon="6.5778">
        <ele>803</ele>
        <time>2018-05-18T22:54:45Z</time>
      </trkpt>
      <trkpt lat="45.71697" lon="6.57785">
        <ele>804</ele>
        <time>2018-05-18T22:55:45Z</time>
      </trkpt>
      <trkpt lat="45.71696" lon="6.57789">
        <ele>805</ele>
        <time>2018-05-18T22:56:45Z</time>
      </trkpt>
      <trkpt lat="45.71692" lon="6.57792">
        <ele>806</ele>
        <time>2018-05-18T22:57:45Z</time>
      </trkpt>
      <trkpt lat="45.71689" lon="6.57792">
        <ele>806</ele>
        <time>2018-05-18T22:58:45Z</time>
      </trkpt>
      <trkpt lat="45.71684" lon="6.57792">
        <ele>806</ele>
        <time>2018-05-18T22:59:45Z</time>
      </trkpt>
      <trkpt lat="45.71678" lon="6.57788">
        <ele>805</ele>
        <time>2018-05-18T23:00:45Z</time>
      </trkpt>
      <trkpt lat="45.71668" lon="6.57781">
        <ele>803</ele>
        <time>2018-05-18T23:01:45Z</time>
      </trkpt>
      <trkpt lat="45.71656" lon="6.57771">
        <ele>799</ele>
        <time>2018-05-18T23:02:45Z</time>
      </trkpt>
      <trkpt lat="45.71649" lon="6.57767">
        <ele>799</ele>
        <time>2018-05-18T23:03:45Z</time>
      </trkpt>
      <trkpt lat="45.71644" lon="6.57766">
        <ele>799</ele>
        <time>2018-05-18T23:04:45Z</time>
      </trkpt>
      <trkpt lat="45.71638" lon="6.57766">
        <ele>800</ele>
        <time>2018-05-18T23:05:45Z</time>
      </trkpt>
      <trkpt lat="45.71634" lon="6.57767">
        <ele>800</ele>
        <time>2018-05-18T23:06:45Z</time>
      </trkpt>
      <trkpt lat="45.71629" lon="6.57769">
        <ele>801</ele>
        <time>2018-05-18T23:07:45Z</time>
      </trkpt>
      <trkpt lat="45.71625" lon="6.5777">
        <ele>801</ele>
        <time>2018-05-18T23:08:45Z</time>
      </trkpt>
      <trkpt lat="45.71621" lon="6.57773">
        <ele>801</ele>
        <time>2018-05-18T23:09:45Z</time>
      </trkpt>
      <trkpt lat="45.71618" lon="6.57776">
        <ele>801</ele>
        <time>2018-05-18T23:10:45Z</time>
      </trkpt>
      <trkpt lat="45.71612" lon="6.57783">
        <ele>802</ele>
        <time>2018-05-18T23:11:45Z</time>
      </trkpt>
      <trkpt lat="45.71605" lon="6.57792">
        <ele>804</ele>
        <time>2018-05-18T23:12:45Z</time>
      </trkpt>
      <trkpt lat="45.71599" lon="6.57804">
        <ele>806</ele>
        <time>2018-05-18T23:13:45Z</time>
      </trkpt>
      <trkpt lat="45.71591" lon="6.57819">
        <ele>810</ele>
        <time>2018-05-18T23:14:45Z</time>
      </trkpt>
      <trkpt lat="45.71586" lon="6.57828">
        <ele>813</ele>
        <time>2018-05-18T23:15:45Z</time>
      </trkpt>
      <trkpt lat="45.71581" lon="6.57834">
        <ele>815</ele>
        <time>2018-05-18T23:16:45Z</time>
      </trkpt>
      <trkpt lat="45.71572" lon="6.57844">
        <ele>817</ele>
        <time>2018-05-18T23:17:45Z</time>
      </trkpt>
      <trkpt lat="45.71561" lon="6.5785">
        <ele>818</ele>
        <time>2018-05-18T23:18:45Z</time>
      </trkpt>
      <trkpt lat="45.71551" lon="6.57853">
        <ele>818</ele>
        <time>2018-05-18T23:19:45Z</time>
      </trkpt>
      <trkpt lat="45.71543" lon="6.57855">
        <ele>818</ele>
        <time>2018-05-18T23:20:45Z</time>
      </trkpt>
      <trkpt lat="45.71533" lon="6.57856">
        <ele>818</ele>
        <time>2018-05-18T23:21:45Z</time>
      </trkpt>
      <trkpt lat="45.71522" lon="6.57856">
        <ele>818</ele>
        <time>2018-05-18T23:22:45Z</time>
      </trkpt>
      <trkpt lat="45.71509" lon="6.57856">
        <ele>817</ele>
        <time>2018-05-18T23:23:45Z</time>
      </trkpt>
      <trkpt lat="45.71502" lon="6.57856">
        <ele>817</ele>
        <time>2018-05-18T23:24:45Z</time>
      </trkpt>
      <trkpt lat="45.71497" lon="6.57858">
        <ele>808</ele>
        <time>2018-05-18T23:25:45Z</time>
      </trkpt>
      <trkpt lat="45.71494" lon="6.5786">
        <ele>808</ele>
        <time>2018-05-18T23:26:45Z</time>
      </trkpt>
      <trkpt lat="45.71491" lon="6.57863">
        <ele>808</ele>
        <time>2018-05-18T23:27:45Z</time>
      </trkpt>
      <trkpt lat="45.71489" lon="6.57867">
        <ele>808</ele>
        <time>2018-05-18T23:28:45Z</time>
      </trkpt>
      <trkpt lat="45.71489" lon="6.57872">
        <ele>809</ele>
        <time>2018-05-18T23:29:45Z</time>
      </trkpt>
      <trkpt lat="45.71489" lon="6.57877">
        <ele>809</ele>
        <time>2018-05-18T23:30:45Z</time>
      </trkpt>
      <trkpt lat="45.71491" lon="6.57882">
        <ele>810</ele>
        <time>2018-05-18T23:31:45Z</time>
      </trkpt>
      <trkpt lat="45.71492" lon="6.57884">
        <ele>811</ele>
        <time>2018-05-18T23:32:45Z</time>
      </trkpt>
      <trkpt lat="45.71494" lon="6.57886">
        <ele>811</ele>
        <time>2018-05-18T23:33:45Z</time>
      </trkpt>
      <trkpt lat="45.71498" lon="6.57888">
        <ele>812</ele>
        <time>2018-05-18T23:34:45Z</time>
      </trkpt>
      <trkpt lat="45.71503" lon="6.57891">
        <ele>822</ele>
        <time>2018-05-18T23:35:45Z</time>
      </trkpt>
      <trkpt lat="45.71511" lon="6.57893">
        <ele>822</ele>
        <time>2018-05-18T23:36:45Z</time>
      </trkpt>
      <trkpt lat="45.71523" lon="6.57897">
        <ele>822</ele>
        <time>2018-05-18T23:37:45Z</time>
      </trkpt>
      <trkpt lat="45.71536" lon="6.57903">
        <ele>822</ele>
        <time>2018-05-18T23:38:45Z</time>
      </trkpt>
      <trkpt lat="45.71544" lon="6.57906">
        <ele>822</ele>
        <time>2018-05-18T23:39:45Z</time>
      </trkpt>
      <trkpt lat="45.71554" lon="6.57909">
        <ele>823</ele>
        <time>2018-05-18T23:40:45Z</time>
      </trkpt>
      <trkpt lat="45.7156" lon="6.5791">
        <ele>823</ele>
        <time>2018-05-18T23:41:45Z</time>
      </trkpt>
      <trkpt lat="45.71564" lon="6.57909">
        <ele>824</ele>
        <time>2018-05-18T23:42:45Z</time>
      </trkpt>
      <trkpt lat="45.71574" lon="6.57907">
        <ele>825</ele>
        <time>2018-05-18T23:43:45Z</time>
      </trkpt>
      <trkpt lat="45.71581" lon="6.57905">
        <ele>825</ele>
        <time>2018-05-18T23:44:45Z</time>
      </trkpt>
      <trkpt lat="45.71587" lon="6.57902">
        <ele>827</ele>
        <time>2018-05-18T23:45:45Z</time>
      </trkpt>
      <trkpt lat="45.71594" lon="6.57898">
        <ele>827</ele>
        <time>2018-05-18T23:46:45Z</time>
      </trkpt>
      <trkpt lat="45.716" lon="6.57893">
        <ele>827</ele>
        <time>2018-05-18T23:47:45Z</time>
      </trkpt>
      <trkpt lat="45.71606" lon="6.57887">
        <ele>826</ele>
        <time>2018-05-18T23:48:45Z</time>
      </trkpt>
      <trkpt lat="45.71612" lon="6.57879">
        <ele>826</ele>
        <time>2018-05-18T23:49:45Z</time>
      </trkpt>
      <trkpt lat="45.71621" lon="6.57865">
        <ele>825</ele>
        <time>2018-05-18T23:50:45Z</time>
      </trkpt>
      <trkpt lat="45.71627" lon="6.57856">
        <ele>825</ele>
        <time>2018-05-18T23:51:45Z</time>
      </trkpt>
      <trkpt lat="45.71632" lon="6.57848">
        <ele>825</ele>
        <time>2018-05-18T23:52:45Z</time>
      </trkpt>
      <trkpt lat="45.71635" lon="6.57844">
        <ele>825</ele>
        <time>2018-05-18T23:53:45Z</time>
      </trkpt>
      <trkpt lat="45.71639" lon="6.57841">
        <ele>825</ele>
        <time>2018-05-18T23:54:45Z</time>
      </trkpt>
      <trkpt lat="45.71641" lon="6.5784">
        <ele>825</ele>
        <time>2018-05-18T23:55:45Z</time>
      </trkpt>
      <trkpt lat="45.71646" lon="6.5784">
        <ele>825</ele>
        <time>2018-05-18T23:56:45Z</time>
      </trkpt>
      <trkpt lat="45.71651" lon="6.57841">
        <ele>825</ele>
        <time>2018-05-18T23:57:45Z</time>
      </trkpt>
      <trkpt lat="45.71656" lon="6.57844">
        <ele>825</ele>
        <time>2018-05-18T23:58:45Z</time>
      </trkpt>
      <trkpt lat="45.71661" lon="6.5785">
        <ele>825</ele>
        <time>2018-05-18T23:59:45Z</time>
      </trkpt>
      <trkpt lat="45.71682" lon="6.57873">
        <ele>829</ele>
        <time>2018-05-19T00:00:45Z</time>
      </trkpt>
      <trkpt lat="45.71697" lon="6.57892">
        <ele>830</ele>
        <time>2018-05-19T00:01:45Z</time>
      </trkpt>
      <trkpt lat="45.71701" lon="6.57899">
        <ele>831</ele>
        <time>2018-05-19T00:02:45Z</time>
      </trkpt>
      <trkpt lat="45.71706" lon="6.57907">
        <ele>831</ele>
        <time>2018-05-19T00:03:45Z</time>
      </trkpt>
      <trkpt lat="45.71712" lon="6.57918">
        <ele>839</ele>
        <time>2018-05-19T00:04:45Z</time>
      </trkpt>
      <trkpt lat="45.71725" lon="6.57946">
        <ele>839</ele>
        <time>2018-05-19T00:05:45Z</time>
      </trkpt>
      <trkpt lat="45.71739" lon="6.57974">
        <ele>841</ele>
        <time>2018-05-19T00:06:45Z</time>
      </trkpt>
      <trkpt lat="45.71745" lon="6.57986">
        <ele>842</ele>
        <time>2018-05-19T00:07:45Z</time>
      </trkpt>
      <trkpt lat="45.7175" lon="6.57997">
        <ele>844</ele>
        <time>2018-05-19T00:08:45Z</time>
      </trkpt>
      <trkpt lat="45.71753" lon="6.58004">
        <ele>846</ele>
        <time>2018-05-19T00:09:45Z</time>
      </trkpt>
      <trkpt lat="45.71757" lon="6.58009">
        <ele>848</ele>
        <time>2018-05-19T00:10:45Z</time>
      </trkpt>
      <trkpt lat="45.71759" lon="6.58012">
        <ele>849</ele>
        <time>2018-05-19T00:11:45Z</time>
      </trkpt>
      <trkpt lat="45.71762" lon="6.58014">
        <ele>849</ele>
        <time>2018-05-19T00:12:45Z</time>
      </trkpt>
      <trkpt lat="45.71764" lon="6.58016">
        <ele>850</ele>
        <time>2018-05-19T00:13:45Z</time>
      </trkpt>
      <trkpt lat="45.71769" lon="6.58018">
        <ele>851</ele>
        <time>2018-05-19T00:14:45Z</time>
      </trkpt>
      <trkpt lat="45.71772" lon="6.58019">
        <ele>851</ele>
        <time>2018-05-19T00:15:45Z</time>
      </trkpt>
      <trkpt lat="45.71777" lon="6.58019">
        <ele>851</ele>
        <time>2018-05-19T00:16:45Z</time>
      </trkpt>
      <trkpt lat="45.71783" lon="6.58018">
        <ele>852</ele>
        <time>2018-05-19T00:17:45Z</time>
      </trkpt>
      <trkpt lat="45.71789" lon="6.58017">
        <ele>852</ele>
        <time>2018-05-19T00:18:45Z</time>
      </trkpt>
      <trkpt lat="45.71796" lon="6.58015">
        <ele>852</ele>
        <time>2018-05-19T00:19:45Z</time>
      </trkpt>
      <trkpt lat="45.71804" lon="6.58013">
        <ele>852</ele>
        <time>2018-05-19T00:20:45Z</time>
      </trkpt>
      <trkpt lat="45.71814" lon="6.5801">
        <ele>852</ele>
        <time>2018-05-19T00:21:45Z</time>
      </trkpt>
      <trkpt lat="45.71825" lon="6.58008">
        <ele>852</ele>
        <time>2018-05-19T00:22:45Z</time>
      </trkpt>
      <trkpt lat="45.71833" lon="6.58007">
        <ele>852</ele>
        <time>2018-05-19T00:23:45Z</time>
      </trkpt>
      <trkpt lat="45.71843" lon="6.58006">
        <ele>853</ele>
        <time>2018-05-19T00:24:45Z</time>
      </trkpt>
      <trkpt lat="45.71855" lon="6.58005">
        <ele>854</ele>
        <time>2018-05-19T00:25:45Z</time>
      </trkpt>
      <trkpt lat="45.71866" lon="6.58005">
        <ele>855</ele>
        <time>2018-05-19T00:26:45Z</time>
      </trkpt>
      <trkpt lat="45.71882" lon="6.58007">
        <ele>855</ele>
        <time>2018-05-19T00:27:45Z</time>
      </trkpt>
      <trkpt lat="45.71918" lon="6.58013">
        <ele>858</ele>
        <time>2018-05-19T00:28:45Z</time>
      </trkpt>
      <trkpt lat="45.71939" lon="6.58016">
        <ele>860</ele>
        <time>2018-05-19T00:29:45Z</time>
      </trkpt>
      <trkpt lat="45.71957" lon="6.58019">
        <ele>861</ele>
        <time>2018-05-19T00:30:45Z</time>
      </trkpt>
      <trkpt lat="45.71978" lon="6.58023">
        <ele>863</ele>
        <time>2018-05-19T00:31:45Z</time>
      </trkpt>
      <trkpt lat="45.71988" lon="6.58024">
        <ele>863</ele>
        <time>2018-05-19T00:32:45Z</time>
      </trkpt>
      <trkpt lat="45.71998" lon="6.58025">
        <ele>863</ele>
        <time>2018-05-19T00:33:45Z</time>
      </trkpt>
      <trkpt lat="45.72005" lon="6.58023">
        <ele>869</ele>
        <time>2018-05-19T00:34:45Z</time>
      </trkpt>
      <trkpt lat="45.72012" lon="6.5802">
        <ele>870</ele>
        <time>2018-05-19T00:35:45Z</time>
      </trkpt>
      <trkpt lat="45.72017" lon="6.58016">
        <ele>870</ele>
        <time>2018-05-19T00:36:45Z</time>
      </trkpt>
      <trkpt lat="45.72021" lon="6.58013">
        <ele>870</ele>
        <time>2018-05-19T00:37:45Z</time>
      </trkpt>
      <trkpt lat="45.72024" lon="6.58012">
        <ele>870</ele>
        <time>2018-05-19T00:38:45Z</time>
      </trkpt>
      <trkpt lat="45.72028" lon="6.58008">
        <ele>871</ele>
        <time>2018-05-19T00:39:45Z</time>
      </trkpt>
      <trkpt lat="45.72032" lon="6.58005">
        <ele>871</ele>
        <time>2018-05-19T00:40:45Z</time>
      </trkpt>
      <trkpt lat="45.72037" lon="6.58002">
        <ele>872</ele>
        <time>2018-05-19T00:41:45Z</time>
      </trkpt>
      <trkpt lat="45.72044" lon="6.57998">
        <ele>867</ele>
        <time>2018-05-19T00:42:45Z</time>
      </trkpt>
      <trkpt lat="45.7205" lon="6.57996">
        <ele>867</ele>
        <time>2018-05-19T00:43:45Z</time>
      </trkpt>
      <trkpt lat="45.72064" lon="6.57993">
        <ele>869</ele>
        <time>2018-05-19T00:44:45Z</time>
      </trkpt>
      <trkpt lat="45.72077" lon="6.5799">
        <ele>872</ele>
        <time>2018-05-19T00:45:45Z</time>
      </trkpt>
      <trkpt lat="45.72089" lon="6.57989">
        <ele>876</ele>
        <time>2018-05-19T00:46:45Z</time>
      </trkpt>
      <trkpt lat="45.72097" lon="6.57989">
        <ele>877</ele>
        <time>2018-05-19T00:47:45Z</time>
      </trkpt>
      <trkpt lat="45.72101" lon="6.57989">
        <ele>877</ele>
        <time>2018-05-19T00:48:45Z</time>
      </trkpt>
      <trkpt lat="45.72107" lon="6.5799">
        <ele>877</ele>
        <time>2018-05-19T00:49:45Z</time>
      </trkpt>
      <trkpt lat="45.72111" lon="6.5799">
        <ele>878</ele>
        <time>2018-05-19T00:50:45Z</time>
      </trkpt>
      <trkpt lat="45.72115" lon="6.57992">
        <ele>878</ele>
        <time>2018-05-19T00:51:45Z</time>
      </trkpt>
      <trkpt lat="45.72119" lon="6.57994">
        <ele>878</ele>
        <time>2018-05-19T00:52:45Z</time>
      </trkpt>
      <trkpt lat="45.72123" lon="6.57996">
        <ele>879</ele>
        <time>2018-05-19T00:53:45Z</time>
      </trkpt>
      <trkpt lat="45.72125" lon="6.57996">
        <ele>879</ele>
        <time>2018-05-19T00:54:45Z</time>
      </trkpt>
      <trkpt lat="45.72127" lon="6.57997">
        <ele>879</ele>
        <time>2018-05-19T00:55:45Z</time>
      </trkpt>
      <trkpt lat="45.72131" lon="6.57996">
        <ele>880</ele>
        <time>2018-05-19T00:56:45Z</time>
      </trkpt>
      <trkpt lat="45.72134" lon="6.57995">
        <ele>880</ele>
        <time>2018-05-19T00:57:45Z</time>
      </trkpt>
      <trkpt lat="45.72137" lon="6.57992">
        <ele>881</ele>
        <time>2018-05-19T00:58:45Z</time>
      </trkpt>
      <trkpt lat="45.72141" lon="6.57987">
        <ele>881</ele>
        <time>2018-05-19T00:59:45Z</time>
      </trkpt>
      <trkpt lat="45.72145" lon="6.57978">
        <ele>881</ele>
        <time>2018-05-19T01:00:45Z</time>
      </trkpt>
      <trkpt lat="45.7215" lon="6.57968">
        <ele>880</ele>
        <time>2018-05-19T01:01:45Z</time>
      </trkpt>
      <trkpt lat="45.72154" lon="6.5796">
        <ele>879</ele>
        <time>2018-05-19T01:02:45Z</time>
      </trkpt>
      <trkpt lat="45.72156" lon="6.57956">
        <ele>879</ele>
        <time>2018-05-19T01:03:45Z</time>
      </trkpt>
      <trkpt lat="45.72159" lon="6.57952">
        <ele>879</ele>
        <time>2018-05-19T01:04:45Z</time>
      </trkpt>
      <trkpt lat="45.72161" lon="6.5795">
        <ele>879</ele>
        <time>2018-05-19T01:05:45Z</time>
      </trkpt>
      <trkpt lat="45.72165" lon="6.57946">
        <ele>879</ele>
        <time>2018-05-19T01:06:45Z</time>
      </trkpt>
      <trkpt lat="45.72169" lon="6.57943">
        <ele>888</ele>
        <time>2018-05-19T01:07:45Z</time>
      </trkpt>
      <trkpt lat="45.72179" lon="6.57938">
        <ele>888</ele>
        <time>2018-05-19T01:08:45Z</time>
      </trkpt>
      <trkpt lat="45.72186" lon="6.57933">
        <ele>888</ele>
        <time>2018-05-19T01:09:45Z</time>
      </trkpt>
      <trkpt lat="45.72192" lon="6.57929">
        <ele>888</ele>
        <time>2018-05-19T01:10:45Z</time>
      </trkpt>
      <trkpt lat="45.72198" lon="6.57925">
        <ele>889</ele>
        <time>2018-05-19T01:11:45Z</time>
      </trkpt>
      <trkpt lat="45.72203" lon="6.57922">
        <ele>890</ele>
        <time>2018-05-19T01:12:45Z</time>
      </trkpt>
      <trkpt lat="45.72212" lon="6.57916">
        <ele>882</ele>
        <time>2018-05-19T01:13:45Z</time>
      </trkpt>
      <trkpt lat="45.7222" lon="6.57911">
        <ele>883</ele>
        <time>2018-05-19T01:14:45Z</time>
      </trkpt>
      <trkpt lat="45.72226" lon="6.57908">
        <ele>884</ele>
        <time>2018-05-19T01:15:45Z</time>
      </trkpt>
      <trkpt lat="45.72232" lon="6.57906">
        <ele>886</ele>
        <time>2018-05-19T01:16:45Z</time>
      </trkpt>
      <trkpt lat="45.72237" lon="6.57904">
        <ele>886</ele>
        <time>2018-05-19T01:17:45Z</time>
      </trkpt>
      <trkpt lat="45.72242" lon="6.57903">
        <ele>887</ele>
        <time>2018-05-19T01:18:45Z</time>
      </trkpt>
      <trkpt lat="45.72251" lon="6.57903">
        <ele>894</ele>
        <time>2018-05-19T01:19:45Z</time>
      </trkpt>
      <trkpt lat="45.7226" lon="6.57903">
        <ele>894</ele>
        <time>2018-05-19T01:20:45Z</time>
      </trkpt>
      <trkpt lat="45.72265" lon="6.57903">
        <ele>894</ele>
        <time>2018-05-19T01:21:45Z</time>
      </trkpt>
      <trkpt lat="45.72269" lon="6.57903">
        <ele>894</ele>
        <time>2018-05-19T01:22:45Z</time>
      </trkpt>
      <trkpt lat="45.72278" lon="6.57901">
        <ele>894</ele>
        <time>2018-05-19T01:23:45Z</time>
      </trkpt>
      <trkpt lat="45.7229" lon="6.57896">
        <ele>895</ele>
        <time>2018-05-19T01:24:45Z</time>
      </trkpt>
      <trkpt lat="45.72295" lon="6.57894">
        <ele>895</ele>
        <time>2018-05-19T01:25:45Z</time>
      </trkpt>
      <trkpt lat="45.723" lon="6.57891">
        <ele>895</ele>
        <time>2018-05-19T01:26:45Z</time>
      </trkpt>
      <trkpt lat="45.7231" lon="6.57886">
        <ele>895</ele>
        <time>2018-05-19T01:27:45Z</time>
      </trkpt>
      <trkpt lat="45.72319" lon="6.57883">
        <ele>896</ele>
        <time>2018-05-19T01:28:45Z</time>
      </trkpt>
      <trkpt lat="45.7233" lon="6.57879">
        <ele>896</ele>
        <time>2018-05-19T01:29:45Z</time>
      </trkpt>
      <trkpt lat="45.72338" lon="6.57876">
        <ele>902</ele>
        <time>2018-05-19T01:30:45Z</time>
      </trkpt>
      <trkpt lat="45.72347" lon="6.57874">
        <ele>902</ele>
        <time>2018-05-19T01:31:45Z</time>
      </trkpt>
      <trkpt lat="45.72354" lon="6.57872">
        <ele>902</ele>
        <time>2018-05-19T01:32:45Z</time>
      </trkpt>
      <trkpt lat="45.72361" lon="6.57869">
        <ele>902</ele>
        <time>2018-05-19T01:33:45Z</time>
      </trkpt>
      <trkpt lat="45.72367" lon="6.57865">
        <ele>902</ele>
        <time>2018-05-19T01:34:45Z</time>
      </trkpt>
      <trkpt lat="45.72372" lon="6.57861">
        <ele>902</ele>
        <time>2018-05-19T01:35:45Z</time>
      </trkpt>
      <trkpt lat="45.72379" lon="6.57857">
        <ele>902</ele>
        <time>2018-05-19T01:36:45Z</time>
      </trkpt>
      <trkpt lat="45.72384" lon="6.57855">
        <ele>902</ele>
        <time>2018-05-19T01:37:45Z</time>
      </trkpt>
      <trkpt lat="45.72388" lon="6.57854">
        <ele>902</ele>
        <time>2018-05-19T01:38:45Z</time>
      </trkpt>
      <trkpt lat="45.72393" lon="6.57854">
        <ele>902</ele>
        <time>2018-05-19T01:39:45Z</time>
      </trkpt>
      <trkpt lat="45.72398" lon="6.57854">
        <ele>902</ele>
        <time>2018-05-19T01:40:45Z</time>
      </trkpt>
      <trkpt lat="45.72409" lon="6.57858">
        <ele>902</ele>
        <time>2018-05-19T01:41:45Z</time>
      </trkpt>
      <trkpt lat="45.72422" lon="6.57864">
        <ele>908</ele>
        <time>2018-05-19T01:42:45Z</time>
      </trkpt>
      <trkpt lat="45.72438" lon="6.57872">
        <ele>911</ele>
        <time>2018-05-19T01:43:45Z</time>
      </trkpt>
      <trkpt lat="45.72449" lon="6.57878">
        <ele>912</ele>
        <time>2018-05-19T01:44:45Z</time>
      </trkpt>
      <trkpt lat="45.72454" lon="6.57882">
        <ele>912</ele>
        <time>2018-05-19T01:45:45Z</time>
      </trkpt>
      <trkpt lat="45.72457" lon="6.57886">
        <ele>913</ele>
        <time>2018-05-19T01:46:45Z</time>
      </trkpt>
      <trkpt lat="45.7246" lon="6.57891">
        <ele>913</ele>
        <time>2018-05-19T01:47:45Z</time>
      </trkpt>
      <trkpt lat="45.72462" lon="6.57895">
        <ele>914</ele>
        <time>2018-05-19T01:48:45Z</time>
      </trkpt>
      <trkpt lat="45.72465" lon="6.57901">
        <ele>915</ele>
        <time>2018-05-19T01:49:45Z</time>
      </trkpt>
      <trkpt lat="45.72467" lon="6.57908">
        <ele>915</ele>
        <time>2018-05-19T01:50:45Z</time>
      </trkpt>
      <trkpt lat="45.72469" lon="6.57914">
        <ele>916</ele>
        <time>2018-05-19T01:51:45Z</time>
      </trkpt>
      <trkpt lat="45.72472" lon="6.57925">
        <ele>925</ele>
        <time>2018-05-19T01:52:45Z</time>
      </trkpt>
      <trkpt lat="45.72474" lon="6.57929">
        <ele>925</ele>
        <time>2018-05-19T01:53:45Z</time>
      </trkpt>
      <trkpt lat="45.72476" lon="6.57933">
        <ele>925</ele>
        <time>2018-05-19T01:54:45Z</time>
      </trkpt>
      <trkpt lat="45.7248" lon="6.57937">
        <ele>926</ele>
        <time>2018-05-19T01:55:45Z</time>
      </trkpt>
      <trkpt lat="45.72483" lon="6.5794">
        <ele>926</ele>
        <time>2018-05-19T01:56:45Z</time>
      </trkpt>
      <trkpt lat="45.72486" lon="6.57943">
        <ele>926</ele>
        <time>2018-05-19T01:57:45Z</time>
      </trkpt>
      <trkpt lat="45.7249" lon="6.57945">
        <ele>927</ele>
        <time>2018-05-19T01:58:45Z</time>
      </trkpt>
      <trkpt lat="45.72494" lon="6.57947">
        <ele>927</ele>
        <time>2018-05-19T01:59:45Z</time>
      </trkpt>
      <trkpt lat="45.72502" lon="6.57948">
        <ele>935</ele>
        <time>2018-05-19T02:00:45Z</time>
      </trkpt>
      <trkpt lat="45.72512" lon="6.57945">
        <ele>935</ele>
        <time>2018-05-19T02:01:45Z</time>
      </trkpt>
      <trkpt lat="45.72525" lon="6.57939">
        <ele>936</ele>
        <time>2018-05-19T02:02:45Z</time>
      </trkpt>
      <trkpt lat="45.72535" lon="6.57932">
        <ele>937</ele>
        <time>2018-05-19T02:03:45Z</time>
      </trkpt>
      <trkpt lat="45.72547" lon="6.57926">
        <ele>938</ele>
        <time>2018-05-19T02:04:45Z</time>
      </trkpt>
      <trkpt lat="45.7256" lon="6.57918">
        <ele>938</ele>
        <time>2018-05-19T02:05:45Z</time>
      </trkpt>
      <trkpt lat="45.72567" lon="6.57911">
        <ele>932</ele>
        <time>2018-05-19T02:06:45Z</time>
      </trkpt>
      <trkpt lat="45.72571" lon="6.57906">
        <ele>932</ele>
        <time>2018-05-19T02:07:45Z</time>
      </trkpt>
      <trkpt lat="45.72575" lon="6.579">
        <ele>932</ele>
        <time>2018-05-19T02:08:45Z</time>
      </trkpt>
      <trkpt lat="45.72577" lon="6.57893">
        <ele>931</ele>
        <time>2018-05-19T02:09:45Z</time>
      </trkpt>
      <trkpt lat="45.72578" lon="6.57887">
        <ele>930</ele>
        <time>2018-05-19T02:10:45Z</time>
      </trkpt>
      <trkpt lat="45.72578" lon="6.57881">
        <ele>930</ele>
        <time>2018-05-19T02:11:45Z</time>
      </trkpt>
      <trkpt lat="45.72578" lon="6.57874">
        <ele>929</ele>
        <time>2018-05-19T02:12:45Z</time>
      </trkpt>
      <trkpt lat="45.72578" lon="6.57864">
        <ele>929</ele>
        <time>2018-05-19T02:13:45Z</time>
      </trkpt>
      <trkpt lat="45.72577" lon="6.57854">
        <ele>929</ele>
        <time>2018-05-19T02:14:45Z</time>
      </trkpt>
      <trkpt lat="45.72576" lon="6.57845">
        <ele>930</ele>
        <time>2018-05-19T02:15:45Z</time>
      </trkpt>
      <trkpt lat="45.72576" lon="6.57836">
        <ele>931</ele>
        <time>2018-05-19T02:16:45Z</time>
      </trkpt>
      <trkpt lat="45.72577" lon="6.57827">
        <ele>929</ele>
        <time>2018-05-19T02:17:45Z</time>
      </trkpt>
      <trkpt lat="45.72578" lon="6.5782">
        <ele>928</ele>
        <time>2018-05-19T02:18:45Z</time>
      </trkpt>
      <trkpt lat="45.7258" lon="6.5781">
        <ele>926</ele>
        <time>2018-05-19T02:19:45Z</time>
      </trkpt>
      <trkpt lat="45.72583" lon="6.57797">
        <ele>926</ele>
        <time>2018-05-19T02:20:45Z</time>
      </trkpt>
      <trkpt lat="45.72587" lon="6.57779">
        <ele>942</ele>
        <time>2018-05-19T02:21:45Z</time>
      </trkpt>
      <trkpt lat="45.72596" lon="6.57743">
        <ele>939</ele>
        <time>2018-05-19T02:22:45Z</time>
      </trkpt>
      <trkpt lat="45.72606" lon="6.57703">
        <ele>944</ele>
        <time>2018-05-19T02:23:45Z</time>
      </trkpt>
      <trkpt lat="45.72612" lon="6.57681">
        <ele>944</ele>
        <time>2018-05-19T02:24:45Z</time>
      </trkpt>
      <trkpt lat="45.72616" lon="6.57662">
        <ele>945</ele>
        <time>2018-05-19T02:25:45Z</time>
      </trkpt>
      <trkpt lat="45.72618" lon="6.57652">
        <ele>945</ele>
        <time>2018-05-19T02:26:45Z</time>
      </trkpt>
      <trkpt lat="45.72619" lon="6.57641">
        <ele>946</ele>
        <time>2018-05-19T02:27:45Z</time>
      </trkpt>
      <trkpt lat="45.7262" lon="6.57636">
        <ele>946</ele>
        <time>2018-05-19T02:28:45Z</time>
      </trkpt>
      <trkpt lat="45.7262" lon="6.57629">
        <ele>946</ele>
        <time>2018-05-19T02:29:45Z</time>
      </trkpt>
      <trkpt lat="45.72619" lon="6.57615">
        <ele>946</ele>
        <time>2018-05-19T02:30:45Z</time>
      </trkpt>
      <trkpt lat="45.72619" lon="6.57606">
        <ele>945</ele>
        <time>2018-05-19T02:31:45Z</time>
      </trkpt>
      <trkpt lat="45.72618" lon="6.57597">
        <ele>945</ele>
        <time>2018-05-19T02:32:45Z</time>
      </trkpt>
      <trkpt lat="45.72618" lon="6.57591">
        <ele>945</ele>
        <time>2018-05-19T02:33:45Z</time>
      </trkpt>
      <trkpt lat="45.72617" lon="6.57583">
        <ele>945</ele>
        <time>2018-05-19T02:34:45Z</time>
      </trkpt>
      <trkpt lat="45.72616" lon="6.57577">
        <ele>945</ele>
        <time>2018-05-19T02:35:45Z</time>
      </trkpt>
      <trkpt lat="45.72616" lon="6.57568">
        <ele>946</ele>
        <time>2018-05-19T02:36:45Z</time>
      </trkpt>
      <trkpt lat="45.72615" lon="6.5756">
        <ele>946</ele>
        <time>2018-05-19T02:37:45Z</time>
      </trkpt>
      <trkpt lat="45.72614" lon="6.5755">
        <ele>946</ele>
        <time>2018-05-19T02:38:45Z</time>
      </trkpt>
      <trkpt lat="45.72613" lon="6.57542">
        <ele>946</ele>
        <time>2018-05-19T02:39:45Z</time>
      </trkpt>
      <trkpt lat="45.72612" lon="6.57535">
        <ele>946</ele>
        <time>2018-05-19T02:40:45Z</time>
      </trkpt>
      <trkpt lat="45.7261" lon="6.57528">
        <ele>946</ele>
        <time>2018-05-19T02:41:45Z</time>
      </trkpt>
      <trkpt lat="45.72609" lon="6.57522">
        <ele>946</ele>
        <time>2018-05-19T02:42:45Z</time>
      </trkpt>
      <trkpt lat="45.72608" lon="6.57517">
        <ele>945</ele>
        <time>2018-05-19T02:43:45Z</time>
      </trkpt>
      <trkpt lat="45.72607" lon="6.57511">
        <ele>945</ele>
        <time>2018-05-19T02:44:45Z</time>
      </trkpt>
      <trkpt lat="45.72607" lon="6.57505">
        <ele>945</ele>
        <time>2018-05-19T02:45:45Z</time>
      </trkpt>
      <trkpt lat="45.72607" lon="6.575">
        <ele>945</ele>
        <time>2018-05-19T02:46:45Z</time>
      </trkpt>
      <trkpt lat="45.72607" lon="6.57495">
        <ele>943</ele>
        <time>2018-05-19T02:47:45Z</time>
      </trkpt>
      <trkpt lat="45.72607" lon="6.57491">
        <ele>944</ele>
        <time>2018-05-19T02:48:45Z</time>
      </trkpt>
      <trkpt lat="45.72608" lon="6.57485">
        <ele>944</ele>
        <time>2018-05-19T02:49:45Z</time>
      </trkpt>
      <trkpt lat="45.72609" lon="6.5748">
        <ele>944</ele>
        <time>2018-05-19T02:50:45Z</time>
      </trkpt>
      <trkpt lat="45.72609" lon="6.57474">
        <ele>944</ele>
        <time>2018-05-19T02:51:45Z</time>
      </trkpt>
      <trkpt lat="45.7261" lon="6.5747">
        <ele>944</ele>
        <time>2018-05-19T02:52:45Z</time>
      </trkpt>
      <trkpt lat="45.7261" lon="6.57466">
        <ele>944</ele>
        <time>2018-05-19T02:53:45Z</time>
      </trkpt>
      <trkpt lat="45.72611" lon="6.57459">
        <ele>944</ele>
        <time>2018-05-19T02:54:45Z</time>
      </trkpt>
      <trkpt lat="45.72612" lon="6.57452">
        <ele>944</ele>
        <time>2018-05-19T02:55:45Z</time>
      </trkpt>
      <trkpt lat="45.72612" lon="6.57447">
        <ele>943</ele>
        <time>2018-05-19T02:56:45Z</time>
      </trkpt>
      <trkpt lat="45.72613" lon="6.5744">
        <ele>943</ele>
        <time>2018-05-19T02:57:45Z</time>
      </trkpt>
      <trkpt lat="45.72614" lon="6.57434">
        <ele>943</ele>
        <time>2018-05-19T02:58:45Z</time>
      </trkpt>
      <trkpt lat="45.72616" lon="6.57429">
        <ele>943</ele>
        <time>2018-05-19T02:59:45Z</time>
      </trkpt>
      <trkpt lat="45.72618" lon="6.57425">
        <ele>943</ele>
        <time>2018-05-19T03:00:45Z</time>
      </trkpt>
      <trkpt lat="45.7262" lon="6.57422">
        <ele>943</ele>
        <time>2018-05-19T03:01:45Z</time>
      </trkpt>
      <trkpt lat="45.72622" lon="6.57419">
        <ele>943</ele>
        <time>2018-05-19T03:02:45Z</time>
      </trkpt>
      <trkpt lat="45.72626" lon="6.57416">
        <ele>934</ele>
        <time>2018-05-19T03:03:45Z</time>
      </trkpt>
      <trkpt lat="45.72633" lon="6.57414">
        <ele>934</ele>
        <time>2018-05-19T03:04:45Z</time>
      </trkpt>
      <trkpt lat="45.72641" lon="6.57411">
        <ele>936</ele>
        <time>2018-05-19T03:05:45Z</time>
      </trkpt>
      <trkpt lat="45.72648" lon="6.57408">
        <ele>937</ele>
        <time>2018-05-19T03:06:45Z</time>
      </trkpt>
      <trkpt lat="45.72657" lon="6.57404">
        <ele>938</ele>
        <time>2018-05-19T03:07:45Z</time>
      </trkpt>
      <trkpt lat="45.72665" lon="6.57402">
        <ele>939</ele>
        <time>2018-05-19T03:08:45Z</time>
      </trkpt>
      <trkpt lat="45.72674" lon="6.57398">
        <ele>941</ele>
        <time>2018-05-19T03:09:45Z</time>
      </trkpt>
      <trkpt lat="45.72681" lon="6.57395">
        <ele>941</ele>
        <time>2018-05-19T03:10:45Z</time>
      </trkpt>
      <trkpt lat="45.72687" lon="6.57392">
        <ele>940</ele>
        <time>2018-05-19T03:11:45Z</time>
      </trkpt>
      <trkpt lat="45.72693" lon="6.5739">
        <ele>940</ele>
        <time>2018-05-19T03:12:45Z</time>
      </trkpt>
      <trkpt lat="45.72698" lon="6.57389">
        <ele>939</ele>
        <time>2018-05-19T03:13:45Z</time>
      </trkpt>
      <trkpt lat="45.72702" lon="6.57388">
        <ele>939</ele>
        <time>2018-05-19T03:14:45Z</time>
      </trkpt>
      <trkpt lat="45.72706" lon="6.57388">
        <ele>940</ele>
        <time>2018-05-19T03:15:45Z</time>
      </trkpt>
      <trkpt lat="45.7271" lon="6.57388">
        <ele>940</ele>
        <time>2018-05-19T03:16:45Z</time>
      </trkpt>
      <trkpt lat="45.72713" lon="6.57389">
        <ele>940</ele>
        <time>2018-05-19T03:17:45Z</time>
      </trkpt>
      <trkpt lat="45.72717" lon="6.57389">
        <ele>940</ele>
        <time>2018-05-19T03:18:45Z</time>
      </trkpt>
      <trkpt lat="45.72722" lon="6.5739">
        <ele>941</ele>
        <time>2018-05-19T03:19:45Z</time>
      </trkpt>
      <trkpt lat="45.72728" lon="6.57391">
        <ele>942</ele>
        <time>2018-05-19T03:20:45Z</time>
      </trkpt>
      <trkpt lat="45.72736" lon="6.57392">
        <ele>943</ele>
        <time>2018-05-19T03:21:45Z</time>
      </trkpt>
      <trkpt lat="45.72743" lon="6.57393">
        <ele>944</ele>
        <time>2018-05-19T03:22:45Z</time>
      </trkpt>
      <trkpt lat="45.72751" lon="6.57395">
        <ele>948</ele>
        <time>2018-05-19T03:23:45Z</time>
      </trkpt>
      <trkpt lat="45.72757" lon="6.57395">
        <ele>948</ele>
        <time>2018-05-19T03:24:45Z</time>
      </trkpt>
      <trkpt lat="45.72764" lon="6.57396">
        <ele>948</ele>
        <time>2018-05-19T03:25:45Z</time>
      </trkpt>
      <trkpt lat="45.72772" lon="6.57397">
        <ele>948</ele>
        <time>2018-05-19T03:26:45Z</time>
      </trkpt>
      <trkpt lat="45.72779" lon="6.57396">
        <ele>948</ele>
        <time>2018-05-19T03:27:45Z</time>
      </trkpt>
      <trkpt lat="45.72785" lon="6.57395">
        <ele>948</ele>
        <time>2018-05-19T03:28:45Z</time>
      </trkpt>
      <trkpt lat="45.72789" lon="6.57394">
        <ele>948</ele>
        <time>2018-05-19T03:29:45Z</time>
      </trkpt>
      <trkpt lat="45.72794" lon="6.57392">
        <ele>948</ele>
        <time>2018-05-19T03:30:45Z</time>
      </trkpt>
      <trkpt lat="45.72797" lon="6.57391">
        <ele>948</ele>
        <time>2018-05-19T03:31:45Z</time>
      </trkpt>
      <trkpt lat="45.72801" lon="6.57388">
        <ele>947</ele>
        <time>2018-05-19T03:32:45Z</time>
      </trkpt>
      <trkpt lat="45.72808" lon="6.57385">
        <ele>947</ele>
        <time>2018-05-19T03:33:45Z</time>
      </trkpt>
      <trkpt lat="45.72814" lon="6.57382">
        <ele>947</ele>
        <time>2018-05-19T03:34:45Z</time>
      </trkpt>
      <trkpt lat="45.72821" lon="6.57378">
        <ele>947</ele>
        <time>2018-05-19T03:35:45Z</time>
      </trkpt>
      <trkpt lat="45.72826" lon="6.57374">
        <ele>946</ele>
        <time>2018-05-19T03:36:45Z</time>
      </trkpt>
      <trkpt lat="45.72833" lon="6.57371">
        <ele>945</ele>
        <time>2018-05-19T03:37:45Z</time>
      </trkpt>
      <trkpt lat="45.72842" lon="6.57369">
        <ele>947</ele>
        <time>2018-05-19T03:38:45Z</time>
      </trkpt>
      <trkpt lat="45.72846" lon="6.57368">
        <ele>947</ele>
        <time>2018-05-19T03:39:45Z</time>
      </trkpt>
      <trkpt lat="45.72852" lon="6.57368">
        <ele>947</ele>
        <time>2018-05-19T03:40:45Z</time>
      </trkpt>
      <trkpt lat="45.72863" lon="6.5737">
        <ele>947</ele>
        <time>2018-05-19T03:41:45Z</time>
      </trkpt>
      <trkpt lat="45.72873" lon="6.57371">
        <ele>947</ele>
        <time>2018-05-19T03:42:45Z</time>
      </trkpt>
      <trkpt lat="45.72882" lon="6.57372">
        <ele>948</ele>
        <time>2018-05-19T03:43:45Z</time>
      </trkpt>
      <trkpt lat="45.72891" lon="6.57374">
        <ele>948</ele>
        <time>2018-05-19T03:44:45Z</time>
      </trkpt>
      <trkpt lat="45.72901" lon="6.57376">
        <ele>948</ele>
        <time>2018-05-19T03:45:45Z</time>
      </trkpt>
      <trkpt lat="45.72907" lon="6.57378">
        <ele>949</ele>
        <time>2018-05-19T03:46:45Z</time>
      </trkpt>
      <trkpt lat="45.72911" lon="6.57379">
        <ele>949</ele>
        <time>2018-05-19T03:47:45Z</time>
      </trkpt>
      <trkpt lat="45.72916" lon="6.57382">
        <ele>950</ele>
        <time>2018-05-19T03:48:45Z</time>
      </trkpt>
      <trkpt lat="45.72931" lon="6.57386">
        <ele>955</ele>
        <time>2018-05-19T03:49:45Z</time>
      </trkpt>
      <trkpt lat="45.72944" lon="6.57388">
        <ele>956</ele>
        <time>2018-05-19T03:50:45Z</time>
      </trkpt>
      <trkpt lat="45.7295" lon="6.57388">
        <ele>957</ele>
        <time>2018-05-19T03:51:45Z</time>
      </trkpt>
      <trkpt lat="45.72957" lon="6.57387">
        <ele>957</ele>
        <time>2018-05-19T03:52:45Z</time>
      </trkpt>
      <trkpt lat="45.72965" lon="6.57385">
        <ele>958</ele>
        <time>2018-05-19T03:53:45Z</time>
      </trkpt>
      <trkpt lat="45.72976" lon="6.57381">
        <ele>958</ele>
        <time>2018-05-19T03:54:45Z</time>
      </trkpt>
      <trkpt lat="45.72987" lon="6.57377">
        <ele>958</ele>
        <time>2018-05-19T03:55:45Z</time>
      </trkpt>
      <trkpt lat="45.73007" lon="6.57368">
        <ele>968</ele>
        <time>2018-05-19T03:56:45Z</time>
      </trkpt>
      <trkpt lat="45.73022" lon="6.5736">
        <ele>968</ele>
        <time>2018-05-19T03:57:45Z</time>
      </trkpt>
      <trkpt lat="45.7303" lon="6.57355">
        <ele>968</ele>
        <time>2018-05-19T03:58:45Z</time>
      </trkpt>
      <trkpt lat="45.73038" lon="6.5735">
        <ele>969</ele>
        <time>2018-05-19T03:59:45Z</time>
      </trkpt>
      <trkpt lat="45.73046" lon="6.57345">
        <ele>969</ele>
        <time>2018-05-19T04:00:45Z</time>
      </trkpt>
      <trkpt lat="45.73058" lon="6.57338">
        <ele>970</ele>
        <time>2018-05-19T04:01:45Z</time>
      </trkpt>
      <trkpt lat="45.73068" lon="6.57333">
        <ele>957</ele>
        <time>2018-05-19T04:02:45Z</time>
      </trkpt>
      <trkpt lat="45.73078" lon="6.57329">
        <ele>961</ele>
        <time>2018-05-19T04:03:45Z</time>
      </trkpt>
      <trkpt lat="45.73089" lon="6.57324">
        <ele>964</ele>
        <time>2018-05-19T04:04:45Z</time>
      </trkpt>
      <trkpt lat="45.73112" lon="6.57315">
        <ele>962</ele>
        <time>2018-05-19T04:05:45Z</time>
      </trkpt>
      <trkpt lat="45.73136" lon="6.57305">
        <ele>962</ele>
        <time>2018-05-19T04:06:45Z</time>
      </trkpt>
      <trkpt lat="45.73163" lon="6.57297">
        <ele>962</ele>
        <time>2018-05-19T04:07:45Z</time>
      </trkpt>
      <trkpt lat="45.7318" lon="6.57293">
        <ele>966</ele>
        <time>2018-05-19T04:08:45Z</time>
      </trkpt>
      <trkpt lat="45.732" lon="6.57292">
        <ele>966</ele>
        <time>2018-05-19T04:09:45Z</time>
      </trkpt>
      <trkpt lat="45.73216" lon="6.57293">
        <ele>966</ele>
        <time>2018-05-19T04:10:45Z</time>
      </trkpt>
      <trkpt lat="45.73224" lon="6.57295">
        <ele>967</ele>
        <time>2018-05-19T04:11:45Z</time>
      </trkpt>
      <trkpt lat="45.73234" lon="6.57296">
        <ele>967</ele>
        <time>2018-05-19T04:12:45Z</time>
      </trkpt>
      <trkpt lat="45.73247" lon="6.573">
        <ele>969</ele>
        <time>2018-05-19T04:13:45Z</time>
      </trkpt>
      <trkpt lat="45.73255" lon="6.57303">
        <ele>965</ele>
        <time>2018-05-19T04:14:45Z</time>
      </trkpt>
      <trkpt lat="45.73264" lon="6.57308">
        <ele>966</ele>
        <time>2018-05-19T04:15:45Z</time>
      </trkpt>
      <trkpt lat="45.73274" lon="6.57313">
        <ele>965</ele>
        <time>2018-05-19T04:16:45Z</time>
      </trkpt>
      <trkpt lat="45.73284" lon="6.5732">
        <ele>964</ele>
        <time>2018-05-19T04:17:45Z</time>
      </trkpt>
      <trkpt lat="45.73293" lon="6.57326">
        <ele>963</ele>
        <time>2018-05-19T04:18:45Z</time>
      </trkpt>
      <trkpt lat="45.73311" lon="6.5734">
        <ele>979</ele>
        <time>2018-05-19T04:19:45Z</time>
      </trkpt>
      <trkpt lat="45.73322" lon="6.57349">
        <ele>977</ele>
        <time>2018-05-19T04:20:45Z</time>
      </trkpt>
      <trkpt lat="45.73328" lon="6.57357">
        <ele>980</ele>
        <time>2018-05-19T04:21:45Z</time>
      </trkpt>
      <trkpt lat="45.73333" lon="6.57363">
        <ele>982</ele>
        <time>2018-05-19T04:22:45Z</time>
      </trkpt>
      <trkpt lat="45.73339" lon="6.57371">
        <ele>967</ele>
        <time>2018-05-19T04:23:45Z</time>
      </trkpt>
      <trkpt lat="45.73344" lon="6.57379">
        <ele>969</ele>
        <time>2018-05-19T04:24:45Z</time>
      </trkpt>
      <trkpt lat="45.7335" lon="6.57389">
        <ele>972</ele>
        <time>2018-05-19T04:25:45Z</time>
      </trkpt>
      <trkpt lat="45.7336" lon="6.57404">
        <ele>973</ele>
        <time>2018-05-19T04:26:45Z</time>
      </trkpt>
      <trkpt lat="45.73371" lon="6.57422">
        <ele>986</ele>
        <time>2018-05-19T04:27:45Z</time>
      </trkpt>
      <trkpt lat="45.73384" lon="6.57442">
        <ele>983</ele>
        <time>2018-05-19T04:28:45Z</time>
      </trkpt>
      <trkpt lat="45.73394" lon="6.57455">
        <ele>983</ele>
        <time>2018-05-19T04:29:45Z</time>
      </trkpt>
      <trkpt lat="45.73401" lon="6.57464">
        <ele>982</ele>
        <time>2018-05-19T04:30:45Z</time>
      </trkpt>
      <trkpt lat="45.73409" lon="6.57473">
        <ele>982</ele>
        <time>2018-05-19T04:31:45Z</time>
      </trkpt>
      <trkpt lat="45.73419" lon="6.57484">
        <ele>963</ele>
        <time>2018-05-19T04:32:45Z</time>
      </trkpt>
      <trkpt lat="45.73425" lon="6.57491">
        <ele>964</ele>
        <time>2018-05-19T04:33:45Z</time>
      </trkpt>
      <trkpt lat="45.73429" lon="6.57495">
        <ele>964</ele>
        <time>2018-05-19T04:34:45Z</time>
      </trkpt>
      <trkpt lat="45.73442" lon="6.5751">
        <ele>972</ele>
        <time>2018-05-19T04:35:45Z</time>
      </trkpt>
      <trkpt lat="45.73453" lon="6.57525">
        <ele>972</ele>
        <time>2018-05-19T04:36:45Z</time>
      </trkpt>
      <trkpt lat="45.73462" lon="6.57541">
        <ele>972</ele>
        <time>2018-05-19T04:37:45Z</time>
      </trkpt>
      <trkpt lat="45.7347" lon="6.57556">
        <ele>973</ele>
        <time>2018-05-19T04:38:45Z</time>
      </trkpt>
      <trkpt lat="45.7348" lon="6.57575">
        <ele>973</ele>
        <time>2018-05-19T04:39:45Z</time>
      </trkpt>
      <trkpt lat="45.73486" lon="6.57586">
        <ele>981</ele>
        <time>2018-05-19T04:40:45Z</time>
      </trkpt>
      <trkpt lat="45.73491" lon="6.57593">
        <ele>981</ele>
        <time>2018-05-19T04:41:45Z</time>
      </trkpt>
      <trkpt lat="45.73497" lon="6.57602">
        <ele>984</ele>
        <time>2018-05-19T04:42:45Z</time>
      </trkpt>
      <trkpt lat="45.73508" lon="6.57616">
        <ele>974</ele>
        <time>2018-05-19T04:43:45Z</time>
      </trkpt>
      <trkpt lat="45.73527" lon="6.57639">
        <ele>977</ele>
        <time>2018-05-19T04:44:45Z</time>
      </trkpt>
      <trkpt lat="45.73535" lon="6.57647">
        <ele>977</ele>
        <time>2018-05-19T04:45:45Z</time>
      </trkpt>
      <trkpt lat="45.73552" lon="6.57672">
        <ele>993</ele>
        <time>2018-05-19T04:46:45Z</time>
      </trkpt>
      <trkpt lat="45.73564" lon="6.57686">
        <ele>992</ele>
        <time>2018-05-19T04:47:45Z</time>
      </trkpt>
      <trkpt lat="45.73571" lon="6.57694">
        <ele>993</ele>
        <time>2018-05-19T04:48:45Z</time>
      </trkpt>
      <trkpt lat="45.73579" lon="6.57699">
        <ele>994</ele>
        <time>2018-05-19T04:49:45Z</time>
      </trkpt>
      <trkpt lat="45.73583" lon="6.57702">
        <ele>995</ele>
        <time>2018-05-19T04:50:45Z</time>
      </trkpt>
      <trkpt lat="45.73591" lon="6.57706">
        <ele>987</ele>
        <time>2018-05-19T04:51:45Z</time>
      </trkpt>
      <trkpt lat="45.73596" lon="6.57709">
        <ele>988</ele>
        <time>2018-05-19T04:52:45Z</time>
      </trkpt>
      <trkpt lat="45.73604" lon="6.57711">
        <ele>988</ele>
        <time>2018-05-19T04:53:45Z</time>
      </trkpt>
      <trkpt lat="45.73611" lon="6.57712">
        <ele>988</ele>
        <time>2018-05-19T04:54:45Z</time>
      </trkpt>
      <trkpt lat="45.73619" lon="6.57714">
        <ele>988</ele>
        <time>2018-05-19T04:55:45Z</time>
      </trkpt>
      <trkpt lat="45.73632" lon="6.57717">
        <ele>988</ele>
        <time>2018-05-19T04:56:45Z</time>
      </trkpt>
      <trkpt lat="45.73645" lon="6.57722">
        <ele>989</ele>
        <time>2018-05-19T04:57:45Z</time>
      </trkpt>
      <trkpt lat="45.73659" lon="6.57727">
        <ele>991</ele>
        <time>2018-05-19T04:58:45Z</time>
      </trkpt>
      <trkpt lat="45.7367" lon="6.57731">
        <ele>987</ele>
        <time>2018-05-19T04:59:45Z</time>
      </trkpt>
      <trkpt lat="45.73687" lon="6.57736">
        <ele>985</ele>
        <time>2018-05-19T05:00:45Z</time>
      </trkpt>
      <trkpt lat="45.73703" lon="6.57741">
        <ele>982</ele>
        <time>2018-05-19T05:01:45Z</time>
      </trkpt>
      <trkpt lat="45.73715" lon="6.57746">
        <ele>981</ele>
        <time>2018-05-19T05:02:45Z</time>
      </trkpt>
      <trkpt lat="45.73726" lon="6.57753">
        <ele>1001</ele>
        <time>2018-05-19T05:03:45Z</time>
      </trkpt>
      <trkpt lat="45.73749" lon="6.57769">
        <ele>1000</ele>
        <time>2018-05-19T05:04:45Z</time>
      </trkpt>
      <trkpt lat="45.73767" lon="6.57782">
        <ele>992</ele>
        <time>2018-05-19T05:05:45Z</time>
      </trkpt>
      <trkpt lat="45.7378" lon="6.57794">
        <ele>993</ele>
        <time>2018-05-19T05:06:45Z</time>
      </trkpt>
      <trkpt lat="45.73795" lon="6.57812">
        <ele>993</ele>
        <time>2018-05-19T05:07:45Z</time>
      </trkpt>
      <trkpt lat="45.73809" lon="6.57827">
        <ele>993</ele>
        <time>2018-05-19T05:08:45Z</time>
      </trkpt>
      <trkpt lat="45.73819" lon="6.57841">
        <ele>1005</ele>
        <time>2018-05-19T05:09:45Z</time>
      </trkpt>
      <trkpt lat="45.73832" lon="6.5786">
        <ele>1009</ele>
        <time>2018-05-19T05:10:45Z</time>
      </trkpt>
      <trkpt lat="45.73845" lon="6.57877">
        <ele>992</ele>
        <time>2018-05-19T05:11:45Z</time>
      </trkpt>
      <trkpt lat="45.73858" lon="6.57893">
        <ele>993</ele>
        <time>2018-05-19T05:12:45Z</time>
      </trkpt>
      <trkpt lat="45.73867" lon="6.57906">
        <ele>993</ele>
        <time>2018-05-19T05:13:45Z</time>
      </trkpt>
      <trkpt lat="45.73877" lon="6.57923">
        <ele>1006</ele>
        <time>2018-05-19T05:14:45Z</time>
      </trkpt>
      <trkpt lat="45.73885" lon="6.5794">
        <ele>1006</ele>
        <time>2018-05-19T05:15:45Z</time>
      </trkpt>
      <trkpt lat="45.73891" lon="6.57957">
        <ele>1007</ele>
        <time>2018-05-19T05:16:45Z</time>
      </trkpt>
      <trkpt lat="45.73894" lon="6.57971">
        <ele>1009</ele>
        <time>2018-05-19T05:17:45Z</time>
      </trkpt>
      <trkpt lat="45.73895" lon="6.57985">
        <ele>1009</ele>
        <time>2018-05-19T05:18:45Z</time>
      </trkpt>
      <trkpt lat="45.73895" lon="6.58">
        <ele>1014</ele>
        <time>2018-05-19T05:19:45Z</time>
      </trkpt>
      <trkpt lat="45.73897" lon="6.58012">
        <ele>1020</ele>
        <time>2018-05-19T05:20:45Z</time>
      </trkpt>
      <trkpt lat="45.73901" lon="6.58024">
        <ele>1022</ele>
        <time>2018-05-19T05:21:45Z</time>
      </trkpt>
      <trkpt lat="45.73906" lon="6.58037">
        <ele>1024</ele>
        <time>2018-05-19T05:22:45Z</time>
      </trkpt>
      <trkpt lat="45.73912" lon="6.58044">
        <ele>1024</ele>
        <time>2018-05-19T05:23:45Z</time>
      </trkpt>
      <trkpt lat="45.73922" lon="6.58052">
        <ele>1007</ele>
        <time>2018-05-19T05:24:45Z</time>
      </trkpt>
      <trkpt lat="45.73928" lon="6.58055">
        <ele>1007</ele>
        <time>2018-05-19T05:25:45Z</time>
      </trkpt>
      <trkpt lat="45.73935" lon="6.58059">
        <ele>1006</ele>
        <time>2018-05-19T05:26:45Z</time>
      </trkpt>
      <trkpt lat="45.73947" lon="6.58065">
        <ele>1004</ele>
        <time>2018-05-19T05:27:45Z</time>
      </trkpt>
      <trkpt lat="45.7396" lon="6.58073">
        <ele>1002</ele>
        <time>2018-05-19T05:28:45Z</time>
      </trkpt>
      <trkpt lat="45.73966" lon="6.5808">
        <ele>1001</ele>
        <time>2018-05-19T05:29:45Z</time>
      </trkpt>
      <trkpt lat="45.7397" lon="6.58086">
        <ele>1013</ele>
        <time>2018-05-19T05:30:45Z</time>
      </trkpt>
      <trkpt lat="45.73973" lon="6.58093">
        <ele>1013</ele>
        <time>2018-05-19T05:31:45Z</time>
      </trkpt>
      <trkpt lat="45.73976" lon="6.58101">
        <ele>1013</ele>
        <time>2018-05-19T05:32:45Z</time>
      </trkpt>
      <trkpt lat="45.73977" lon="6.58109">
        <ele>1014</ele>
        <time>2018-05-19T05:33:45Z</time>
      </trkpt>
      <trkpt lat="45.73978" lon="6.58117">
        <ele>1015</ele>
        <time>2018-05-19T05:34:45Z</time>
      </trkpt>
      <trkpt lat="45.73979" lon="6.58124">
        <ele>1016</ele>
        <time>2018-05-19T05:35:45Z</time>
      </trkpt>
      <trkpt lat="45.73979" lon="6.58133">
        <ele>1017</ele>
        <time>2018-05-19T05:36:45Z</time>
      </trkpt>
      <trkpt lat="45.73979" lon="6.58142">
        <ele>1017</ele>
        <time>2018-05-19T05:37:45Z</time>
      </trkpt>
      <trkpt lat="45.73979" lon="6.58151">
        <ele>1017</ele>
        <time>2018-05-19T05:38:45Z</time>
      </trkpt>
      <trkpt lat="45.73979" lon="6.58158">
        <ele>1017</ele>
        <time>2018-05-19T05:39:45Z</time>
      </trkpt>
      <trkpt lat="45.73978" lon="6.58165">
        <ele>1018</ele>
        <time>2018-05-19T05:40:45Z</time>
      </trkpt>
      <trkpt lat="45.73978" lon="6.58172">
        <ele>1028</ele>
        <time>2018-05-19T05:41:45Z</time>
      </trkpt>
      <trkpt lat="45.73979" lon="6.58179">
        <ele>1029</ele>
        <time>2018-05-19T05:42:45Z</time>
      </trkpt>
      <trkpt lat="45.73981" lon="6.58185">
        <ele>1029</ele>
        <time>2018-05-19T05:43:45Z</time>
      </trkpt>
      <trkpt lat="45.73983" lon="6.58191">
        <ele>1030</ele>
        <time>2018-05-19T05:44:45Z</time>
      </trkpt>
      <trkpt lat="45.73986" lon="6.58197">
        <ele>1031</ele>
        <time>2018-05-19T05:45:45Z</time>
      </trkpt>
      <trkpt lat="45.73991" lon="6.58205">
        <ele>1032</ele>
        <time>2018-05-19T05:46:45Z</time>
      </trkpt>
      <trkpt lat="45.73996" lon="6.58211">
        <ele>1033</ele>
        <time>2018-05-19T05:47:45Z</time>
      </trkpt>
      <trkpt lat="45.74004" lon="6.58225">
        <ele>1017</ele>
        <time>2018-05-19T05:48:45Z</time>
      </trkpt>
      <trkpt lat="45.74007" lon="6.58231">
        <ele>1019</ele>
        <time>2018-05-19T05:49:45Z</time>
      </trkpt>
      <trkpt lat="45.74012" lon="6.5824">
        <ele>1021</ele>
        <time>2018-05-19T05:50:45Z</time>
      </trkpt>
      <trkpt lat="45.74017" lon="6.58251">
        <ele>1031</ele>
        <time>2018-05-19T05:51:45Z</time>
      </trkpt>
      <trkpt lat="45.74023" lon="6.5826">
        <ele>1031</ele>
        <time>2018-05-19T05:52:45Z</time>
      </trkpt>
      <trkpt lat="45.74028" lon="6.58268">
        <ele>1031</ele>
        <time>2018-05-19T05:53:45Z</time>
      </trkpt>
      <trkpt lat="45.74033" lon="6.58275">
        <ele>1031</ele>
        <time>2018-05-19T05:54:45Z</time>
      </trkpt>
      <trkpt lat="45.7404" lon="6.58281">
        <ele>1031</ele>
        <time>2018-05-19T05:55:45Z</time>
      </trkpt>
      <trkpt lat="45.74047" lon="6.58286">
        <ele>1031</ele>
        <time>2018-05-19T05:56:45Z</time>
      </trkpt>
      <trkpt lat="45.74053" lon="6.58287">
        <ele>1030</ele>
        <time>2018-05-19T05:57:45Z</time>
      </trkpt>
      <trkpt lat="45.74058" lon="6.58287">
        <ele>1030</ele>
        <time>2018-05-19T05:58:45Z</time>
      </trkpt>
      <trkpt lat="45.74063" lon="6.58287">
        <ele>1029</ele>
        <time>2018-05-19T05:59:45Z</time>
      </trkpt>
      <trkpt lat="45.74068" lon="6.58286">
        <ele>1028</ele>
        <time>2018-05-19T06:00:45Z</time>
      </trkpt>
      <trkpt lat="45.74076" lon="6.58287">
        <ele>1028</ele>
        <time>2018-05-19T06:01:45Z</time>
      </trkpt>
      <trkpt lat="45.74083" lon="6.58289">
        <ele>1028</ele>
        <time>2018-05-19T06:02:45Z</time>
      </trkpt>
      <trkpt lat="45.7409" lon="6.58291">
        <ele>1016</ele>
        <time>2018-05-19T06:03:45Z</time>
      </trkpt>
      <trkpt lat="45.74097" lon="6.58293">
        <ele>1017</ele>
        <time>2018-05-19T06:04:45Z</time>
      </trkpt>
      <trkpt lat="45.74108" lon="6.58297">
        <ele>1016</ele>
        <time>2018-05-19T06:05:45Z</time>
      </trkpt>
      <trkpt lat="45.74117" lon="6.583">
        <ele>1016</ele>
        <time>2018-05-19T06:06:45Z</time>
      </trkpt>
      <trkpt lat="45.74128" lon="6.58303">
        <ele>1015</ele>
        <time>2018-05-19T06:07:45Z</time>
      </trkpt>
      <trkpt lat="45.74135" lon="6.58304">
        <ele>1015</ele>
        <time>2018-05-19T06:08:45Z</time>
      </trkpt>
      <trkpt lat="45.74143" lon="6.58304">
        <ele>1015</ele>
        <time>2018-05-19T06:09:45Z</time>
      </trkpt>
      <trkpt lat="45.74149" lon="6.58303">
        <ele>1014</ele>
        <time>2018-05-19T06:10:45Z</time>
      </trkpt>
      <trkpt lat="45.74154" lon="6.58302">
        <ele>1014</ele>
        <time>2018-05-19T06:11:45Z</time>
      </trkpt>
      <trkpt lat="45.74161" lon="6.58301">
        <ele>1013</ele>
        <time>2018-05-19T06:12:45Z</time>
      </trkpt>
      <trkpt lat="45.74166" lon="6.58301">
        <ele>1013</ele>
        <time>2018-05-19T06:13:45Z</time>
      </trkpt>
      <trkpt lat="45.74172" lon="6.58302">
        <ele>1005</ele>
        <time>2018-05-19T06:14:45Z</time>
      </trkpt>
      <trkpt lat="45.74177" lon="6.58303">
        <ele>1005</ele>
        <time>2018-05-19T06:15:45Z</time>
      </trkpt>
      <trkpt lat="45.74183" lon="6.58306">
        <ele>1006</ele>
        <time>2018-05-19T06:16:45Z</time>
      </trkpt>
      <trkpt lat="45.74188" lon="6.5831">
        <ele>1006</ele>
        <time>2018-05-19T06:17:45Z</time>
      </trkpt>
      <trkpt lat="45.74193" lon="6.58315">
        <ele>1007</ele>
        <time>2018-05-19T06:18:45Z</time>
      </trkpt>
      <trkpt lat="45.74198" lon="6.58319">
        <ele>1007</ele>
        <time>2018-05-19T06:19:45Z</time>
      </trkpt>
      <trkpt lat="45.74204" lon="6.58324">
        <ele>1007</ele>
        <time>2018-05-19T06:20:45Z</time>
      </trkpt>
      <trkpt lat="45.74213" lon="6.5833">
        <ele>1006</ele>
        <time>2018-05-19T06:21:45Z</time>
      </trkpt>
      <trkpt lat="45.74223" lon="6.58335">
        <ele>1024</ele>
        <time>2018-05-19T06:22:45Z</time>
      </trkpt>
      <trkpt lat="45.7423" lon="6.58338">
        <ele>1022</ele>
        <time>2018-05-19T06:23:45Z</time>
      </trkpt>
      <trkpt lat="45.74237" lon="6.5834">
        <ele>1021</ele>
        <time>2018-05-19T06:24:45Z</time>
      </trkpt>
      <trkpt lat="45.74244" lon="6.58344">
        <ele>1020</ele>
        <time>2018-05-19T06:25:45Z</time>
      </trkpt>
      <trkpt lat="45.7425" lon="6.58348">
        <ele>1021</ele>
        <time>2018-05-19T06:26:45Z</time>
      </trkpt>
      <trkpt lat="45.74256" lon="6.58352">
        <ele>1014</ele>
        <time>2018-05-19T06:27:45Z</time>
      </trkpt>
      <trkpt lat="45.7426" lon="6.58356">
        <ele>1014</ele>
        <time>2018-05-19T06:28:45Z</time>
      </trkpt>
      <trkpt lat="45.74263" lon="6.58362">
        <ele>1014</ele>
        <time>2018-05-19T06:29:45Z</time>
      </trkpt>
      <trkpt lat="45.74266" lon="6.58368">
        <ele>1015</ele>
        <time>2018-05-19T06:30:45Z</time>
      </trkpt>
      <trkpt lat="45.74267" lon="6.58375">
        <ele>1016</ele>
        <time>2018-05-19T06:31:45Z</time>
      </trkpt>
      <trkpt lat="45.74269" lon="6.58381">
        <ele>1017</ele>
        <time>2018-05-19T06:32:45Z</time>
      </trkpt>
      <trkpt lat="45.74269" lon="6.58389">
        <ele>1018</ele>
        <time>2018-05-19T06:33:45Z</time>
      </trkpt>
      <trkpt lat="45.74269" lon="6.58398">
        <ele>1020</ele>
        <time>2018-05-19T06:34:45Z</time>
      </trkpt>
      <trkpt lat="45.74269" lon="6.58405">
        <ele>1022</ele>
        <time>2018-05-19T06:35:45Z</time>
      </trkpt>
      <trkpt lat="45.74269" lon="6.58413">
        <ele>1023</ele>
        <time>2018-05-19T06:36:45Z</time>
      </trkpt>
      <trkpt lat="45.74268" lon="6.58423">
        <ele>1034</ele>
        <time>2018-05-19T06:37:45Z</time>
      </trkpt>
      <trkpt lat="45.74267" lon="6.58431">
        <ele>1034</ele>
        <time>2018-05-19T06:38:45Z</time>
      </trkpt>
      <trkpt lat="45.74265" lon="6.5844">
        <ele>1035</ele>
        <time>2018-05-19T06:39:45Z</time>
      </trkpt>
      <trkpt lat="45.74263" lon="6.58449">
        <ele>1036</ele>
        <time>2018-05-19T06:40:45Z</time>
      </trkpt>
      <trkpt lat="45.74261" lon="6.58458">
        <ele>1037</ele>
        <time>2018-05-19T06:41:45Z</time>
      </trkpt>
      <trkpt lat="45.74259" lon="6.58467">
        <ele>1039</ele>
        <time>2018-05-19T06:42:45Z</time>
      </trkpt>
      <trkpt lat="45.74258" lon="6.58475">
        <ele>1041</ele>
        <time>2018-05-19T06:43:45Z</time>
      </trkpt>
      <trkpt lat="45.74255" lon="6.58485">
        <ele>1045</ele>
        <time>2018-05-19T06:44:45Z</time>
      </trkpt>
      <trkpt lat="45.74254" lon="6.58494">
        <ele>1049</ele>
        <time>2018-05-19T06:45:45Z</time>
      </trkpt>
      <trkpt lat="45.74253" lon="6.58501">
        <ele>1054</ele>
        <time>2018-05-19T06:46:45Z</time>
      </trkpt>
      <trkpt lat="45.74251" lon="6.58509">
        <ele>1055</ele>
        <time>2018-05-19T06:47:45Z</time>
      </trkpt>
      <trkpt lat="45.74251" lon="6.58515">
        <ele>1055</ele>
        <time>2018-05-19T06:48:45Z</time>
      </trkpt>
      <trkpt lat="45.74251" lon="6.58522">
        <ele>1056</ele>
        <time>2018-05-19T06:49:45Z</time>
      </trkpt>
      <trkpt lat="45.74253" lon="6.58528">
        <ele>1057</ele>
        <time>2018-05-19T06:50:45Z</time>
      </trkpt>
      <trkpt lat="45.74254" lon="6.58532">
        <ele>1058</ele>
        <time>2018-05-19T06:51:45Z</time>
      </trkpt>
      <trkpt lat="45.74257" lon="6.58536">
        <ele>1058</ele>
        <time>2018-05-19T06:52:45Z</time>
      </trkpt>
      <trkpt lat="45.74262" lon="6.5854">
        <ele>1059</ele>
        <time>2018-05-19T06:53:45Z</time>
      </trkpt>
      <trkpt lat="45.74265" lon="6.58541">
        <ele>1059</ele>
        <time>2018-05-19T06:54:45Z</time>
      </trkpt>
      <trkpt lat="45.7427" lon="6.58542">
        <ele>1058</ele>
        <time>2018-05-19T06:55:45Z</time>
      </trkpt>
      <trkpt lat="45.74274" lon="6.5854">
        <ele>1058</ele>
        <time>2018-05-19T06:56:45Z</time>
      </trkpt>
      <trkpt lat="45.74278" lon="6.58537">
        <ele>1057</ele>
        <time>2018-05-19T06:57:45Z</time>
      </trkpt>
      <trkpt lat="45.74281" lon="6.58534">
        <ele>1056</ele>
        <time>2018-05-19T06:58:45Z</time>
      </trkpt>
      <trkpt lat="45.74285" lon="6.5853">
        <ele>1055</ele>
        <time>2018-05-19T06:59:45Z</time>
      </trkpt>
      <trkpt lat="45.74288" lon="6.58524">
        <ele>1054</ele>
        <time>2018-05-19T07:00:45Z</time>
      </trkpt>
      <trkpt lat="45.74292" lon="6.5852">
        <ele>1053</ele>
        <time>2018-05-19T07:01:45Z</time>
      </trkpt>
      <trkpt lat="45.74295" lon="6.58514">
        <ele>1052</ele>
        <time>2018-05-19T07:02:45Z</time>
      </trkpt>
      <trkpt lat="45.74298" lon="6.58508">
        <ele>1051</ele>
        <time>2018-05-19T07:03:45Z</time>
      </trkpt>
      <trkpt lat="45.74302" lon="6.58502">
        <ele>1050</ele>
        <time>2018-05-19T07:04:45Z</time>
      </trkpt>
      <trkpt lat="45.74305" lon="6.58498">
        <ele>1036</ele>
        <time>2018-05-19T07:05:45Z</time>
      </trkpt>
      <trkpt lat="45.74309" lon="6.58494">
        <ele>1036</ele>
        <time>2018-05-19T07:06:45Z</time>
      </trkpt>
      <trkpt lat="45.74313" lon="6.58491">
        <ele>1035</ele>
        <time>2018-05-19T07:07:45Z</time>
      </trkpt>
      <trkpt lat="45.74318" lon="6.58488">
        <ele>1035</ele>
        <time>2018-05-19T07:08:45Z</time>
      </trkpt>
      <trkpt lat="45.74322" lon="6.58486">
        <ele>1034</ele>
        <time>2018-05-19T07:09:45Z</time>
      </trkpt>
      <trkpt lat="45.74328" lon="6.58484">
        <ele>1034</ele>
        <time>2018-05-19T07:10:45Z</time>
      </trkpt>
      <trkpt lat="45.74333" lon="6.58484">
        <ele>1034</ele>
        <time>2018-05-19T07:11:45Z</time>
      </trkpt>
      <trkpt lat="45.74339" lon="6.58484">
        <ele>1027</ele>
        <time>2018-05-19T07:12:45Z</time>
      </trkpt>
      <trkpt lat="45.74343" lon="6.58485">
        <ele>1027</ele>
        <time>2018-05-19T07:13:45Z</time>
      </trkpt>
      <trkpt lat="45.7435" lon="6.58486">
        <ele>1025</ele>
        <time>2018-05-19T07:14:45Z</time>
      </trkpt>
      <trkpt lat="45.74357" lon="6.58488">
        <ele>1024</ele>
        <time>2018-05-19T07:15:45Z</time>
      </trkpt>
      <trkpt lat="45.74365" lon="6.5849">
        <ele>1023</ele>
        <time>2018-05-19T07:16:45Z</time>
      </trkpt>
      <trkpt lat="45.74373" lon="6.58491">
        <ele>1022</ele>
        <time>2018-05-19T07:17:45Z</time>
      </trkpt>
      <trkpt lat="45.74384" lon="6.58493">
        <ele>1022</ele>
        <time>2018-05-19T07:18:45Z</time>
      </trkpt>
      <trkpt lat="45.74392" lon="6.58495">
        <ele>1022</ele>
        <time>2018-05-19T07:19:45Z</time>
      </trkpt>
      <trkpt lat="45.744" lon="6.58497">
        <ele>1022</ele>
        <time>2018-05-19T07:20:45Z</time>
      </trkpt>
      <trkpt lat="45.74402" lon="6.58498">
        <ele>1022</ele>
        <time>2018-05-19T07:21:45Z</time>
      </trkpt>
      <trkpt lat="45.74404" lon="6.585">
        <ele>1022</ele>
        <time>2018-05-19T07:22:45Z</time>
      </trkpt>
      <trkpt lat="45.74407" lon="6.58503">
        <ele>1029</ele>
        <time>2018-05-19T07:23:45Z</time>
      </trkpt>
      <trkpt lat="45.74409" lon="6.58507">
        <ele>1029</ele>
        <time>2018-05-19T07:24:45Z</time>
      </trkpt>
      <trkpt lat="45.74411" lon="6.58511">
        <ele>1030</ele>
        <time>2018-05-19T07:25:45Z</time>
      </trkpt>
      <trkpt lat="45.74412" lon="6.58516">
        <ele>1032</ele>
        <time>2018-05-19T07:26:45Z</time>
      </trkpt>
      <trkpt lat="45.74414" lon="6.58524">
        <ele>1034</ele>
        <time>2018-05-19T07:27:45Z</time>
      </trkpt>
      <trkpt lat="45.74415" lon="6.58531">
        <ele>1035</ele>
        <time>2018-05-19T07:28:45Z</time>
      </trkpt>
      <trkpt lat="45.74415" lon="6.58544">
        <ele>1037</ele>
        <time>2018-05-19T07:29:45Z</time>
      </trkpt>
      <trkpt lat="45.74417" lon="6.58551">
        <ele>1026</ele>
        <time>2018-05-19T07:30:45Z</time>
      </trkpt>
      <trkpt lat="45.74418" lon="6.58558">
        <ele>1028</ele>
        <time>2018-05-19T07:31:45Z</time>
      </trkpt>
      <trkpt lat="45.7442" lon="6.58564">
        <ele>1030</ele>
        <time>2018-05-19T07:32:45Z</time>
      </trkpt>
      <trkpt lat="45.74422" lon="6.58569">
        <ele>1031</ele>
        <time>2018-05-19T07:33:45Z</time>
      </trkpt>
      <trkpt lat="45.74423" lon="6.58573">
        <ele>1033</ele>
        <time>2018-05-19T07:34:45Z</time>
      </trkpt>
      <trkpt lat="45.74426" lon="6.58576">
        <ele>1033</ele>
        <time>2018-05-19T07:35:45Z</time>
      </trkpt>
      <trkpt lat="45.7443" lon="6.5858">
        <ele>1032</ele>
        <time>2018-05-19T07:36:45Z</time>
      </trkpt>
      <trkpt lat="45.74435" lon="6.58583">
        <ele>1030</ele>
        <time>2018-05-19T07:37:45Z</time>
      </trkpt>
      <trkpt lat="45.7444" lon="6.58585">
        <ele>1037</ele>
        <time>2018-05-19T07:38:45Z</time>
      </trkpt>
      <trkpt lat="45.74444" lon="6.58586">
        <ele>1037</ele>
        <time>2018-05-19T07:39:45Z</time>
      </trkpt>
      <trkpt lat="45.74449" lon="6.58585">
        <ele>1036</ele>
        <time>2018-05-19T07:40:45Z</time>
      </trkpt>
      <trkpt lat="45.74455" lon="6.58586">
        <ele>1035</ele>
        <time>2018-05-19T07:41:45Z</time>
      </trkpt>
      <trkpt lat="45.7446" lon="6.58586">
        <ele>1034</ele>
        <time>2018-05-19T07:42:45Z</time>
      </trkpt>
      <trkpt lat="45.74464" lon="6.58587">
        <ele>1033</ele>
        <time>2018-05-19T07:43:45Z</time>
      </trkpt>
      <trkpt lat="45.74469" lon="6.58589">
        <ele>1032</ele>
        <time>2018-05-19T07:44:45Z</time>
      </trkpt>
      <trkpt lat="45.74472" lon="6.58592">
        <ele>1032</ele>
        <time>2018-05-19T07:45:45Z</time>
      </trkpt>
      <trkpt lat="45.74476" lon="6.58596">
        <ele>1031</ele>
        <time>2018-05-19T07:46:45Z</time>
      </trkpt>
      <trkpt lat="45.74478" lon="6.58601">
        <ele>1031</ele>
        <time>2018-05-19T07:47:45Z</time>
      </trkpt>
      <trkpt lat="45.7448" lon="6.58606">
        <ele>1032</ele>
        <time>2018-05-19T07:48:45Z</time>
      </trkpt>
      <trkpt lat="45.74482" lon="6.58611">
        <ele>1032</ele>
        <time>2018-05-19T07:49:45Z</time>
      </trkpt>
      <trkpt lat="45.74483" lon="6.58618">
        <ele>1033</ele>
        <time>2018-05-19T07:50:45Z</time>
      </trkpt>
      <trkpt lat="45.74483" lon="6.58626">
        <ele>1034</ele>
        <time>2018-05-19T07:51:45Z</time>
      </trkpt>
      <trkpt lat="45.74484" lon="6.58634">
        <ele>1034</ele>
        <time>2018-05-19T07:52:45Z</time>
      </trkpt>
      <trkpt lat="45.74485" lon="6.58642">
        <ele>1035</ele>
        <time>2018-05-19T07:53:45Z</time>
      </trkpt>
      <trkpt lat="45.74485" lon="6.5865">
        <ele>1034</ele>
        <time>2018-05-19T07:54:45Z</time>
      </trkpt>
      <trkpt lat="45.74486" lon="6.58659">
        <ele>1034</ele>
        <time>2018-05-19T07:55:45Z</time>
      </trkpt>
      <trkpt lat="45.74486" lon="6.58668">
        <ele>1040</ele>
        <time>2018-05-19T07:56:45Z</time>
      </trkpt>
      <trkpt lat="45.74486" lon="6.58676">
        <ele>1041</ele>
        <time>2018-05-19T07:57:45Z</time>
      </trkpt>
      <trkpt lat="45.74485" lon="6.58686">
        <ele>1044</ele>
        <time>2018-05-19T07:58:45Z</time>
      </trkpt>
      <trkpt lat="45.74484" lon="6.58695">
        <ele>1046</ele>
        <time>2018-05-19T07:59:45Z</time>
      </trkpt>
      <trkpt lat="45.74483" lon="6.58706">
        <ele>1048</ele>
        <time>2018-05-19T08:00:45Z</time>
      </trkpt>
      <trkpt lat="45.74481" lon="6.58715">
        <ele>1049</ele>
        <time>2018-05-19T08:01:45Z</time>
      </trkpt>
      <trkpt lat="45.7448" lon="6.58725">
        <ele>1049</ele>
        <time>2018-05-19T08:02:45Z</time>
      </trkpt>
      <trkpt lat="45.74479" lon="6.58734">
        <ele>1049</ele>
        <time>2018-05-19T08:03:45Z</time>
      </trkpt>
      <trkpt lat="45.74478" lon="6.58745">
        <ele>1049</ele>
        <time>2018-05-19T08:04:45Z</time>
      </trkpt>
      <trkpt lat="45.74477" lon="6.58754">
        <ele>1056</ele>
        <time>2018-05-19T08:05:45Z</time>
      </trkpt>
      <trkpt lat="45.74475" lon="6.58762">
        <ele>1058</ele>
        <time>2018-05-19T08:06:45Z</time>
      </trkpt>
      <trkpt lat="45.74474" lon="6.58771">
        <ele>1060</ele>
        <time>2018-05-19T08:07:45Z</time>
      </trkpt>
      <trkpt lat="45.74472" lon="6.58778">
        <ele>1062</ele>
        <time>2018-05-19T08:08:45Z</time>
      </trkpt>
      <trkpt lat="45.7447" lon="6.58784">
        <ele>1063</ele>
        <time>2018-05-19T08:09:45Z</time>
      </trkpt>
      <trkpt lat="45.74468" lon="6.5879">
        <ele>1064</ele>
        <time>2018-05-19T08:10:45Z</time>
      </trkpt>
      <trkpt lat="45.74467" lon="6.58797">
        <ele>1065</ele>
        <time>2018-05-19T08:11:45Z</time>
      </trkpt>
      <trkpt lat="45.74467" lon="6.58803">
        <ele>1065</ele>
        <time>2018-05-19T08:12:45Z</time>
      </trkpt>
      <trkpt lat="45.74468" lon="6.5881">
        <ele>1065</ele>
        <time>2018-05-19T08:13:45Z</time>
      </trkpt>
      <trkpt lat="45.74469" lon="6.58815">
        <ele>1065</ele>
        <time>2018-05-19T08:14:45Z</time>
      </trkpt>
      <trkpt lat="45.7447" lon="6.58819">
        <ele>1065</ele>
        <time>2018-05-19T08:15:45Z</time>
      </trkpt>
      <trkpt lat="45.74475" lon="6.58824">
        <ele>1064</ele>
        <time>2018-05-19T08:16:45Z</time>
      </trkpt>
      <trkpt lat="45.74478" lon="6.58827">
        <ele>1063</ele>
        <time>2018-05-19T08:17:45Z</time>
      </trkpt>
      <trkpt lat="45.74483" lon="6.58829">
        <ele>1062</ele>
        <time>2018-05-19T08:18:45Z</time>
      </trkpt>
      <trkpt lat="45.74488" lon="6.58829">
        <ele>1060</ele>
        <time>2018-05-19T08:19:45Z</time>
      </trkpt>
      <trkpt lat="45.74493" lon="6.58828">
        <ele>1059</ele>
        <time>2018-05-19T08:20:45Z</time>
      </trkpt>
      <trkpt lat="45.74499" lon="6.58825">
        <ele>1059</ele>
        <time>2018-05-19T08:21:45Z</time>
      </trkpt>
      <trkpt lat="45.74504" lon="6.58821">
        <ele>1049</ele>
        <time>2018-05-19T08:22:45Z</time>
      </trkpt>
      <trkpt lat="45.74509" lon="6.58817">
        <ele>1047</ele>
        <time>2018-05-19T08:23:45Z</time>
      </trkpt>
      <trkpt lat="45.74518" lon="6.58808">
        <ele>1043</ele>
        <time>2018-05-19T08:24:45Z</time>
      </trkpt>
      <trkpt lat="45.74523" lon="6.58803">
        <ele>1042</ele>
        <time>2018-05-19T08:25:45Z</time>
      </trkpt>
      <trkpt lat="45.74528" lon="6.58798">
        <ele>1041</ele>
        <time>2018-05-19T08:26:45Z</time>
      </trkpt>
      <trkpt lat="45.74534" lon="6.58791">
        <ele>1039</ele>
        <time>2018-05-19T08:27:45Z</time>
      </trkpt>
      <trkpt lat="45.7454" lon="6.58786">
        <ele>1038</ele>
        <time>2018-05-19T08:28:45Z</time>
      </trkpt>
      <trkpt lat="45.74543" lon="6.58785">
        <ele>1038</ele>
        <time>2018-05-19T08:29:45Z</time>
      </trkpt>
      <trkpt lat="45.74549" lon="6.58785">
        <ele>1037</ele>
        <time>2018-05-19T08:30:45Z</time>
      </trkpt>
      <trkpt lat="45.74555" lon="6.58787">
        <ele>1037</ele>
        <time>2018-05-19T08:31:45Z</time>
      </trkpt>
      <trkpt lat="45.74561" lon="6.58791">
        <ele>1037</ele>
        <time>2018-05-19T08:32:45Z</time>
      </trkpt>
      <trkpt lat="45.74566" lon="6.58795">
        <ele>1037</ele>
        <time>2018-05-19T08:33:45Z</time>
      </trkpt>
      <trkpt lat="45.74571" lon="6.588">
        <ele>1037</ele>
        <time>2018-05-19T08:34:45Z</time>
      </trkpt>
      <trkpt lat="45.74576" lon="6.58804">
        <ele>1037</ele>
        <time>2018-05-19T08:35:45Z</time>
      </trkpt>
      <trkpt lat="45.74582" lon="6.58808">
        <ele>1037</ele>
        <time>2018-05-19T08:36:45Z</time>
      </trkpt>
      <trkpt lat="45.74594" lon="6.58816">
        <ele>1031</ele>
        <time>2018-05-19T08:37:45Z</time>
      </trkpt>
      <trkpt lat="45.74616" lon="6.58831">
        <ele>1030</ele>
        <time>2018-05-19T08:38:45Z</time>
      </trkpt>
      <trkpt lat="45.74639" lon="6.58847">
        <ele>1040</ele>
        <time>2018-05-19T08:39:45Z</time>
      </trkpt>
      <trkpt lat="45.74661" lon="6.58864">
        <ele>1040</ele>
        <time>2018-05-19T08:40:45Z</time>
      </trkpt>
      <trkpt lat="45.74666" lon="6.58869">
        <ele>1041</ele>
        <time>2018-05-19T08:41:45Z</time>
      </trkpt>
      <trkpt lat="45.74671" lon="6.58874">
        <ele>1032</ele>
        <time>2018-05-19T08:42:45Z</time>
      </trkpt>
      <trkpt lat="45.74675" lon="6.5888">
        <ele>1032</ele>
        <time>2018-05-19T08:43:45Z</time>
      </trkpt>
      <trkpt lat="45.74678" lon="6.58885">
        <ele>1033</ele>
        <time>2018-05-19T08:44:45Z</time>
      </trkpt>
      <trkpt lat="45.7468" lon="6.58889">
        <ele>1033</ele>
        <time>2018-05-19T08:45:45Z</time>
      </trkpt>
      <trkpt lat="45.74682" lon="6.58894">
        <ele>1034</ele>
        <time>2018-05-19T08:46:45Z</time>
      </trkpt>
      <trkpt lat="45.74683" lon="6.58901">
        <ele>1035</ele>
        <time>2018-05-19T08:47:45Z</time>
      </trkpt>
      <trkpt lat="45.74684" lon="6.58909">
        <ele>1036</ele>
        <time>2018-05-19T08:48:45Z</time>
      </trkpt>
      <trkpt lat="45.74684" lon="6.58916">
        <ele>1036</ele>
        <time>2018-05-19T08:49:45Z</time>
      </trkpt>
      <trkpt lat="45.74683" lon="6.58924">
        <ele>1041</ele>
        <time>2018-05-19T08:50:45Z</time>
      </trkpt>
      <trkpt lat="45.74681" lon="6.58934">
        <ele>1042</ele>
        <time>2018-05-19T08:51:45Z</time>
      </trkpt>
      <trkpt lat="45.74679" lon="6.58946">
        <ele>1042</ele>
        <time>2018-05-19T08:52:45Z</time>
      </trkpt>
      <trkpt lat="45.74678" lon="6.58957">
        <ele>1043</ele>
        <time>2018-05-19T08:53:45Z</time>
      </trkpt>
      <trkpt lat="45.74678" lon="6.58965">
        <ele>1045</ele>
        <time>2018-05-19T08:54:45Z</time>
      </trkpt>
      <trkpt lat="45.74679" lon="6.58971">
        <ele>1046</ele>
        <time>2018-05-19T08:55:45Z</time>
      </trkpt>
      <trkpt lat="45.74681" lon="6.5898">
        <ele>1048</ele>
        <time>2018-05-19T08:56:45Z</time>
      </trkpt>
      <trkpt lat="45.74684" lon="6.58988">
        <ele>1049</ele>
        <time>2018-05-19T08:57:45Z</time>
      </trkpt>
      <trkpt lat="45.74687" lon="6.58993">
        <ele>1049</ele>
        <time>2018-05-19T08:58:45Z</time>
      </trkpt>
      <trkpt lat="45.74692" lon="6.58997">
        <ele>1047</ele>
        <time>2018-05-19T08:59:45Z</time>
      </trkpt>
      <trkpt lat="45.74695" lon="6.58999">
        <ele>1046</ele>
        <time>2018-05-19T09:00:45Z</time>
      </trkpt>
      <trkpt lat="45.747" lon="6.59001">
        <ele>1054</ele>
        <time>2018-05-19T09:01:45Z</time>
      </trkpt>
      <trkpt lat="45.74704" lon="6.59003">
        <ele>1053</ele>
        <time>2018-05-19T09:02:45Z</time>
      </trkpt>
      <trkpt lat="45.7471" lon="6.59008">
        <ele>1052</ele>
        <time>2018-05-19T09:03:45Z</time>
      </trkpt>
      <trkpt lat="45.74714" lon="6.59012">
        <ele>1051</ele>
        <time>2018-05-19T09:04:45Z</time>
      </trkpt>
      <trkpt lat="45.74718" lon="6.59019">
        <ele>1051</ele>
        <time>2018-05-19T09:05:45Z</time>
      </trkpt>
      <trkpt lat="45.74722" lon="6.59027">
        <ele>1051</ele>
        <time>2018-05-19T09:06:45Z</time>
      </trkpt>
      <trkpt lat="45.74728" lon="6.59039">
        <ele>1051</ele>
        <time>2018-05-19T09:07:45Z</time>
      </trkpt>
      <trkpt lat="45.74731" lon="6.59045">
        <ele>1052</ele>
        <time>2018-05-19T09:08:45Z</time>
      </trkpt>
      <trkpt lat="45.74735" lon="6.59053">
        <ele>1052</ele>
        <time>2018-05-19T09:09:45Z</time>
      </trkpt>
      <trkpt lat="45.74738" lon="6.59061">
        <ele>1052</ele>
        <time>2018-05-19T09:10:45Z</time>
      </trkpt>
      <trkpt lat="45.74743" lon="6.59069">
        <ele>1051</ele>
        <time>2018-05-19T09:11:45Z</time>
      </trkpt>
      <trkpt lat="45.74746" lon="6.59076">
        <ele>1050</ele>
        <time>2018-05-19T09:12:45Z</time>
      </trkpt>
      <trkpt lat="45.74751" lon="6.59082">
        <ele>1047</ele>
        <time>2018-05-19T09:13:45Z</time>
      </trkpt>
      <trkpt lat="45.74754" lon="6.59087">
        <ele>1048</ele>
        <time>2018-05-19T09:14:45Z</time>
      </trkpt>
      <trkpt lat="45.74757" lon="6.5909">
        <ele>1048</ele>
        <time>2018-05-19T09:15:45Z</time>
      </trkpt>
      <trkpt lat="45.7476" lon="6.59094">
        <ele>1048</ele>
        <time>2018-05-19T09:16:45Z</time>
      </trkpt>
      <trkpt lat="45.74764" lon="6.59098">
        <ele>1048</ele>
        <time>2018-05-19T09:17:45Z</time>
      </trkpt>
      <trkpt lat="45.74767" lon="6.59102">
        <ele>1048</ele>
        <time>2018-05-19T09:18:45Z</time>
      </trkpt>
      <trkpt lat="45.7477" lon="6.59106">
        <ele>1048</ele>
        <time>2018-05-19T09:19:45Z</time>
      </trkpt>
      <trkpt lat="45.74773" lon="6.5911">
        <ele>1048</ele>
        <time>2018-05-19T09:20:45Z</time>
      </trkpt>
      <trkpt lat="45.74775" lon="6.59114">
        <ele>1048</ele>
        <time>2018-05-19T09:21:45Z</time>
      </trkpt>
      <trkpt lat="45.7478" lon="6.59123">
        <ele>1049</ele>
        <time>2018-05-19T09:22:45Z</time>
      </trkpt>
      <trkpt lat="45.74782" lon="6.59128">
        <ele>1049</ele>
        <time>2018-05-19T09:23:45Z</time>
      </trkpt>
      <trkpt lat="45.74784" lon="6.59134">
        <ele>1050</ele>
        <time>2018-05-19T09:24:45Z</time>
      </trkpt>
      <trkpt lat="45.74786" lon="6.59144">
        <ele>1050</ele>
        <time>2018-05-19T09:25:45Z</time>
      </trkpt>
      <trkpt lat="45.74787" lon="6.5915">
        <ele>1051</ele>
        <time>2018-05-19T09:26:45Z</time>
      </trkpt>
      <trkpt lat="45.74788" lon="6.59156">
        <ele>1051</ele>
        <time>2018-05-19T09:27:45Z</time>
      </trkpt>
      <trkpt lat="45.74788" lon="6.59164">
        <ele>1051</ele>
        <time>2018-05-19T09:28:45Z</time>
      </trkpt>
      <trkpt lat="45.74789" lon="6.59171">
        <ele>1060</ele>
        <time>2018-05-19T09:29:45Z</time>
      </trkpt>
      <trkpt lat="45.7479" lon="6.59177">
        <ele>1061</ele>
        <time>2018-05-19T09:30:45Z</time>
      </trkpt>
      <trkpt lat="45.7479" lon="6.59183">
        <ele>1061</ele>
        <time>2018-05-19T09:31:45Z</time>
      </trkpt>
      <trkpt lat="45.74793" lon="6.5919">
        <ele>1061</ele>
        <time>2018-05-19T09:32:45Z</time>
      </trkpt>
      <trkpt lat="45.74795" lon="6.59194">
        <ele>1062</ele>
        <time>2018-05-19T09:33:45Z</time>
      </trkpt>
      <trkpt lat="45.74798" lon="6.59198">
        <ele>1062</ele>
        <time>2018-05-19T09:34:45Z</time>
      </trkpt>
      <trkpt lat="45.74802" lon="6.59202">
        <ele>1062</ele>
        <time>2018-05-19T09:35:45Z</time>
      </trkpt>
      <trkpt lat="45.74808" lon="6.59204">
        <ele>1062</ele>
        <time>2018-05-19T09:36:45Z</time>
      </trkpt>
      <trkpt lat="45.74812" lon="6.59203">
        <ele>1061</ele>
        <time>2018-05-19T09:37:45Z</time>
      </trkpt>
      <trkpt lat="45.74819" lon="6.592">
        <ele>1061</ele>
        <time>2018-05-19T09:38:45Z</time>
      </trkpt>
      <trkpt lat="45.74822" lon="6.59197">
        <ele>1060</ele>
        <time>2018-05-19T09:39:45Z</time>
      </trkpt>
      <trkpt lat="45.74826" lon="6.59192">
        <ele>1059</ele>
        <time>2018-05-19T09:40:45Z</time>
      </trkpt>
      <trkpt lat="45.74832" lon="6.59183">
        <ele>1056</ele>
        <time>2018-05-19T09:41:45Z</time>
      </trkpt>
      <trkpt lat="45.74836" lon="6.59172">
        <ele>1051</ele>
        <time>2018-05-19T09:42:45Z</time>
      </trkpt>
      <trkpt lat="45.74841" lon="6.59163">
        <ele>1048</ele>
        <time>2018-05-19T09:43:45Z</time>
      </trkpt>
      <trkpt lat="45.74845" lon="6.59154">
        <ele>1046</ele>
        <time>2018-05-19T09:44:45Z</time>
      </trkpt>
      <trkpt lat="45.74849" lon="6.59145">
        <ele>1045</ele>
        <time>2018-05-19T09:45:45Z</time>
      </trkpt>
      <trkpt lat="45.74854" lon="6.5914">
        <ele>1044</ele>
        <time>2018-05-19T09:46:45Z</time>
      </trkpt>
      <trkpt lat="45.74858" lon="6.59136">
        <ele>1044</ele>
        <time>2018-05-19T09:47:45Z</time>
      </trkpt>
      <trkpt lat="45.74863" lon="6.59133">
        <ele>1044</ele>
        <time>2018-05-19T09:48:45Z</time>
      </trkpt>
      <trkpt lat="45.7487" lon="6.59131">
        <ele>1043</ele>
        <time>2018-05-19T09:49:45Z</time>
      </trkpt>
      <trkpt lat="45.74899" lon="6.59125">
        <ele>1043</ele>
        <time>2018-05-19T09:50:45Z</time>
      </trkpt>
      <trkpt lat="45.74946" lon="6.59116">
        <ele>1042</ele>
        <time>2018-05-19T09:51:45Z</time>
      </trkpt>
      <trkpt lat="45.74954" lon="6.59115">
        <ele>1041</ele>
        <time>2018-05-19T09:52:45Z</time>
      </trkpt>
      <trkpt lat="45.7496" lon="6.59114">
        <ele>1041</ele>
        <time>2018-05-19T09:53:45Z</time>
      </trkpt>
      <trkpt lat="45.74965" lon="6.59115">
        <ele>1041</ele>
        <time>2018-05-19T09:54:45Z</time>
      </trkpt>
      <trkpt lat="45.74973" lon="6.59117">
        <ele>1041</ele>
        <time>2018-05-19T09:55:45Z</time>
      </trkpt>
      <trkpt lat="45.74978" lon="6.59119">
        <ele>1041</ele>
        <time>2018-05-19T09:56:45Z</time>
      </trkpt>
      <trkpt lat="45.74982" lon="6.59122">
        <ele>1041</ele>
        <time>2018-05-19T09:57:45Z</time>
      </trkpt>
      <trkpt lat="45.74986" lon="6.59124">
        <ele>1041</ele>
        <time>2018-05-19T09:58:45Z</time>
      </trkpt>
      <trkpt lat="45.74991" lon="6.59128">
        <ele>1041</ele>
        <time>2018-05-19T09:59:45Z</time>
      </trkpt>
      <trkpt lat="45.74999" lon="6.59136">
        <ele>1041</ele>
        <time>2018-05-19T10:00:45Z</time>
      </trkpt>
      <trkpt lat="45.75005" lon="6.59141">
        <ele>1040</ele>
        <time>2018-05-19T10:01:45Z</time>
      </trkpt>
      <trkpt lat="45.7501" lon="6.59144">
        <ele>1040</ele>
        <time>2018-05-19T10:02:45Z</time>
      </trkpt>
      <trkpt lat="45.75017" lon="6.59147">
        <ele>1040</ele>
        <time>2018-05-19T10:03:45Z</time>
      </trkpt>
      <trkpt lat="45.75022" lon="6.59148">
        <ele>1040</ele>
        <time>2018-05-19T10:04:45Z</time>
      </trkpt>
      <trkpt lat="45.75028" lon="6.59147">
        <ele>1039</ele>
        <time>2018-05-19T10:05:45Z</time>
      </trkpt>
      <trkpt lat="45.75034" lon="6.59146">
        <ele>1039</ele>
        <time>2018-05-19T10:06:45Z</time>
      </trkpt>
      <trkpt lat="45.75039" lon="6.59144">
        <ele>1039</ele>
        <time>2018-05-19T10:07:45Z</time>
      </trkpt>
      <trkpt lat="45.75044" lon="6.59142">
        <ele>1039</ele>
        <time>2018-05-19T10:08:45Z</time>
      </trkpt>
      <trkpt lat="45.7505" lon="6.59141">
        <ele>1038</ele>
        <time>2018-05-19T10:09:45Z</time>
      </trkpt>
      <trkpt lat="45.75056" lon="6.5914">
        <ele>1038</ele>
        <time>2018-05-19T10:10:45Z</time>
      </trkpt>
      <trkpt lat="45.75062" lon="6.5914">
        <ele>1038</ele>
        <time>2018-05-19T10:11:45Z</time>
      </trkpt>
      <trkpt lat="45.75069" lon="6.5914">
        <ele>1038</ele>
        <time>2018-05-19T10:12:45Z</time>
      </trkpt>
      <trkpt lat="45.75077" lon="6.59142">
        <ele>1037</ele>
        <time>2018-05-19T10:13:45Z</time>
      </trkpt>
      <trkpt lat="45.75085" lon="6.59143">
        <ele>1041</ele>
        <time>2018-05-19T10:14:45Z</time>
      </trkpt>
      <trkpt lat="45.75094" lon="6.59145">
        <ele>1041</ele>
        <time>2018-05-19T10:15:45Z</time>
      </trkpt>
      <trkpt lat="45.75103" lon="6.59147">
        <ele>1042</ele>
        <time>2018-05-19T10:16:45Z</time>
      </trkpt>
      <trkpt lat="45.7511" lon="6.5915">
        <ele>1043</ele>
        <time>2018-05-19T10:17:45Z</time>
      </trkpt>
      <trkpt lat="45.75116" lon="6.59154">
        <ele>1043</ele>
        <time>2018-05-19T10:18:45Z</time>
      </trkpt>
      <trkpt lat="45.75124" lon="6.5916">
        <ele>1044</ele>
        <time>2018-05-19T10:19:45Z</time>
      </trkpt>
      <trkpt lat="45.75134" lon="6.59169">
        <ele>1042</ele>
        <time>2018-05-19T10:20:45Z</time>
      </trkpt>
      <trkpt lat="45.75148" lon="6.59183">
        <ele>1043</ele>
        <time>2018-05-19T10:21:45Z</time>
      </trkpt>
      <trkpt lat="45.75157" lon="6.59193">
        <ele>1043</ele>
        <time>2018-05-19T10:22:45Z</time>
      </trkpt>
      <trkpt lat="45.75162" lon="6.592">
        <ele>1043</ele>
        <time>2018-05-19T10:23:45Z</time>
      </trkpt>
      <trkpt lat="45.75166" lon="6.59206">
        <ele>1043</ele>
        <time>2018-05-19T10:24:45Z</time>
      </trkpt>
      <trkpt lat="45.75169" lon="6.59212">
        <ele>1052</ele>
        <time>2018-05-19T10:25:45Z</time>
      </trkpt>
      <trkpt lat="45.75173" lon="6.5922">
        <ele>1052</ele>
        <time>2018-05-19T10:26:45Z</time>
      </trkpt>
      <trkpt lat="45.75177" lon="6.5923">
        <ele>1051</ele>
        <time>2018-05-19T10:27:45Z</time>
      </trkpt>
      <trkpt lat="45.75181" lon="6.59238">
        <ele>1050</ele>
        <time>2018-05-19T10:28:45Z</time>
      </trkpt>
      <trkpt lat="45.75183" lon="6.59243">
        <ele>1050</ele>
        <time>2018-05-19T10:29:45Z</time>
      </trkpt>
      <trkpt lat="45.75186" lon="6.59246">
        <ele>1051</ele>
        <time>2018-05-19T10:30:45Z</time>
      </trkpt>
      <trkpt lat="45.75191" lon="6.59248">
        <ele>1051</ele>
        <time>2018-05-19T10:31:45Z</time>
      </trkpt>
      <trkpt lat="45.75196" lon="6.59249">
        <ele>1052</ele>
        <time>2018-05-19T10:32:45Z</time>
      </trkpt>
      <trkpt lat="45.752" lon="6.59247">
        <ele>1053</ele>
        <time>2018-05-19T10:33:45Z</time>
      </trkpt>
      <trkpt lat="45.75203" lon="6.59244">
        <ele>1053</ele>
        <time>2018-05-19T10:34:45Z</time>
      </trkpt>
      <trkpt lat="45.75204" lon="6.59239">
        <ele>1054</ele>
        <time>2018-05-19T10:35:45Z</time>
      </trkpt>
      <trkpt lat="45.75205" lon="6.59233">
        <ele>1054</ele>
        <time>2018-05-19T10:36:45Z</time>
      </trkpt>
      <trkpt lat="45.75205" lon="6.59229">
        <ele>1054</ele>
        <time>2018-05-19T10:37:45Z</time>
      </trkpt>
      <trkpt lat="45.75203" lon="6.59223">
        <ele>1054</ele>
        <time>2018-05-19T10:38:45Z</time>
      </trkpt>
      <trkpt lat="45.75202" lon="6.59219">
        <ele>1054</ele>
        <time>2018-05-19T10:39:45Z</time>
      </trkpt>
      <trkpt lat="45.75199" lon="6.59213">
        <ele>1054</ele>
        <time>2018-05-19T10:40:45Z</time>
      </trkpt>
      <trkpt lat="45.75196" lon="6.59208">
        <ele>1054</ele>
        <time>2018-05-19T10:41:45Z</time>
      </trkpt>
      <trkpt lat="45.75193" lon="6.59202">
        <ele>1054</ele>
        <time>2018-05-19T10:42:45Z</time>
      </trkpt>
      <trkpt lat="45.7519" lon="6.59192">
        <ele>1054</ele>
        <time>2018-05-19T10:43:45Z</time>
      </trkpt>
      <trkpt lat="45.75188" lon="6.59183">
        <ele>1054</ele>
        <time>2018-05-19T10:44:45Z</time>
      </trkpt>
      <trkpt lat="45.75185" lon="6.59171">
        <ele>1053</ele>
        <time>2018-05-19T10:45:45Z</time>
      </trkpt>
      <trkpt lat="45.75182" lon="6.59156">
        <ele>1058</ele>
        <time>2018-05-19T10:46:45Z</time>
      </trkpt>
      <trkpt lat="45.7518" lon="6.59146">
        <ele>1059</ele>
        <time>2018-05-19T10:47:45Z</time>
      </trkpt>
      <trkpt lat="45.75178" lon="6.59128">
        <ele>1062</ele>
        <time>2018-05-19T10:48:45Z</time>
      </trkpt>
      <trkpt lat="45.75177" lon="6.59115">
        <ele>1062</ele>
        <time>2018-05-19T10:49:45Z</time>
      </trkpt>
      <trkpt lat="45.75176" lon="6.59107">
        <ele>1062</ele>
        <time>2018-05-19T10:50:45Z</time>
      </trkpt>
      <trkpt lat="45.75175" lon="6.59099">
        <ele>1062</ele>
        <time>2018-05-19T10:51:45Z</time>
      </trkpt>
      <trkpt lat="45.75173" lon="6.59091">
        <ele>1061</ele>
        <time>2018-05-19T10:52:45Z</time>
      </trkpt>
      <trkpt lat="45.75168" lon="6.59076">
        <ele>1065</ele>
        <time>2018-05-19T10:53:45Z</time>
      </trkpt>
      <trkpt lat="45.75163" lon="6.59059">
        <ele>1061</ele>
        <time>2018-05-19T10:54:45Z</time>
      </trkpt>
      <trkpt lat="45.75155" lon="6.59042">
        <ele>1063</ele>
        <time>2018-05-19T10:55:45Z</time>
      </trkpt>
      <trkpt lat="45.7515" lon="6.59031">
        <ele>1065</ele>
        <time>2018-05-19T10:56:45Z</time>
      </trkpt>
      <trkpt lat="45.75144" lon="6.59022">
        <ele>1066</ele>
        <time>2018-05-19T10:57:45Z</time>
      </trkpt>
      <trkpt lat="45.75139" lon="6.59015">
        <ele>1066</ele>
        <time>2018-05-19T10:58:45Z</time>
      </trkpt>
      <trkpt lat="45.75132" lon="6.59007">
        <ele>1065</ele>
        <time>2018-05-19T10:59:45Z</time>
      </trkpt>
      <trkpt lat="45.75129" lon="6.59004">
        <ele>1065</ele>
        <time>2018-05-19T11:00:45Z</time>
      </trkpt>
      <trkpt lat="45.75125" lon="6.58999">
        <ele>1076</ele>
        <time>2018-05-19T11:01:45Z</time>
      </trkpt>
      <trkpt lat="45.75123" lon="6.58997">
        <ele>1075</ele>
        <time>2018-05-19T11:02:45Z</time>
      </trkpt>
      <trkpt lat="45.75122" lon="6.58994">
        <ele>1075</ele>
        <time>2018-05-19T11:03:45Z</time>
      </trkpt>
      <trkpt lat="45.75121" lon="6.5899">
        <ele>1075</ele>
        <time>2018-05-19T11:04:45Z</time>
      </trkpt>
      <trkpt lat="45.75121" lon="6.58987">
        <ele>1075</ele>
        <time>2018-05-19T11:05:45Z</time>
      </trkpt>
      <trkpt lat="45.75121" lon="6.58984">
        <ele>1076</ele>
        <time>2018-05-19T11:06:45Z</time>
      </trkpt>
      <trkpt lat="45.75123" lon="6.58981">
        <ele>1076</ele>
        <time>2018-05-19T11:07:45Z</time>
      </trkpt>
      <trkpt lat="45.75126" lon="6.5898">
        <ele>1077</ele>
        <time>2018-05-19T11:08:45Z</time>
      </trkpt>
      <trkpt lat="45.75126" lon="6.5898">
        <ele>1077</ele>
        <time>2018-05-19T11:09:45Z</time>
      </trkpt>
      <trkpt lat="45.75128" lon="6.5898">
        <ele>1077</ele>
        <time>2018-05-19T11:10:45Z</time>
      </trkpt>
      <trkpt lat="45.7513" lon="6.5898">
        <ele>1078</ele>
        <time>2018-05-19T11:11:45Z</time>
      </trkpt>
      <trkpt lat="45.75134" lon="6.58983">
        <ele>1078</ele>
        <time>2018-05-19T11:12:45Z</time>
      </trkpt>
      <trkpt lat="45.75142" lon="6.58991">
        <ele>1079</ele>
        <time>2018-05-19T11:13:45Z</time>
      </trkpt>
      <trkpt lat="45.75157" lon="6.59006">
        <ele>1074</ele>
        <time>2018-05-19T11:14:45Z</time>
      </trkpt>
      <trkpt lat="45.7517" lon="6.59019">
        <ele>1082</ele>
        <time>2018-05-19T11:15:45Z</time>
      </trkpt>
      <trkpt lat="45.75183" lon="6.5903">
        <ele>1082</ele>
        <time>2018-05-19T11:16:45Z</time>
      </trkpt>
      <trkpt lat="45.75191" lon="6.59037">
        <ele>1082</ele>
        <time>2018-05-19T11:17:45Z</time>
      </trkpt>
      <trkpt lat="45.75202" lon="6.59046">
        <ele>1082</ele>
        <time>2018-05-19T11:18:45Z</time>
      </trkpt>
      <trkpt lat="45.75211" lon="6.59054">
        <ele>1083</ele>
        <time>2018-05-19T11:19:45Z</time>
      </trkpt>
      <trkpt lat="45.75223" lon="6.59067">
        <ele>1083</ele>
        <time>2018-05-19T11:20:45Z</time>
      </trkpt>
      <trkpt lat="45.75233" lon="6.59079">
        <ele>1084</ele>
        <time>2018-05-19T11:21:45Z</time>
      </trkpt>
      <trkpt lat="45.75247" lon="6.59092">
        <ele>1079</ele>
        <time>2018-05-19T11:22:45Z</time>
      </trkpt>
      <trkpt lat="45.75259" lon="6.59103">
        <ele>1086</ele>
        <time>2018-05-19T11:23:45Z</time>
      </trkpt>
      <trkpt lat="45.75272" lon="6.59113">
        <ele>1087</ele>
        <time>2018-05-19T11:24:45Z</time>
      </trkpt>
      <trkpt lat="45.75287" lon="6.59124">
        <ele>1087</ele>
        <time>2018-05-19T11:25:45Z</time>
      </trkpt>
      <trkpt lat="45.75301" lon="6.59134">
        <ele>1088</ele>
        <time>2018-05-19T11:26:45Z</time>
      </trkpt>
      <trkpt lat="45.75317" lon="6.59143">
        <ele>1089</ele>
        <time>2018-05-19T11:27:45Z</time>
      </trkpt>
      <trkpt lat="45.75334" lon="6.59151">
        <ele>1099</ele>
        <time>2018-05-19T11:28:45Z</time>
      </trkpt>
      <trkpt lat="45.7535" lon="6.59158">
        <ele>1100</ele>
        <time>2018-05-19T11:29:45Z</time>
      </trkpt>
      <trkpt lat="45.75361" lon="6.59163">
        <ele>1102</ele>
        <time>2018-05-19T11:30:45Z</time>
      </trkpt>
      <trkpt lat="45.75368" lon="6.59167">
        <ele>1095</ele>
        <time>2018-05-19T11:31:45Z</time>
      </trkpt>
      <trkpt lat="45.75375" lon="6.59172">
        <ele>1096</ele>
        <time>2018-05-19T11:32:45Z</time>
      </trkpt>
      <trkpt lat="45.75383" lon="6.59179">
        <ele>1097</ele>
        <time>2018-05-19T11:33:45Z</time>
      </trkpt>
      <trkpt lat="45.75392" lon="6.59188">
        <ele>1097</ele>
        <time>2018-05-19T11:34:45Z</time>
      </trkpt>
      <trkpt lat="45.75402" lon="6.592">
        <ele>1097</ele>
        <time>2018-05-19T11:35:45Z</time>
      </trkpt>
      <trkpt lat="45.75411" lon="6.59211">
        <ele>1096</ele>
        <time>2018-05-19T11:36:45Z</time>
      </trkpt>
      <trkpt lat="45.75419" lon="6.59222">
        <ele>1107</ele>
        <time>2018-05-19T11:37:45Z</time>
      </trkpt>
      <trkpt lat="45.75426" lon="6.59235">
        <ele>1104</ele>
        <time>2018-05-19T11:38:45Z</time>
      </trkpt>
      <trkpt lat="45.7543" lon="6.59241">
        <ele>1104</ele>
        <time>2018-05-19T11:39:45Z</time>
      </trkpt>
      <trkpt lat="45.75435" lon="6.59242">
        <ele>1105</ele>
        <time>2018-05-19T11:40:45Z</time>
      </trkpt>
      <trkpt lat="45.7544" lon="6.59241">
        <ele>1106</ele>
        <time>2018-05-19T11:41:45Z</time>
      </trkpt>
      <trkpt lat="45.75444" lon="6.59234">
        <ele>1108</ele>
        <time>2018-05-19T11:42:45Z</time>
      </trkpt>
      <trkpt lat="45.75444" lon="6.59234">
        <ele>1108</ele>
        <time>2018-05-19T11:43:45Z</time>
      </trkpt>
      <trkpt lat="45.75444" lon="6.59227">
        <ele>1109</ele>
        <time>2018-05-19T11:44:45Z</time>
      </trkpt>
      <trkpt lat="45.75441" lon="6.59222">
        <ele>1109</ele>
        <time>2018-05-19T11:45:45Z</time>
      </trkpt>
      <trkpt lat="45.75436" lon="6.59216">
        <ele>1109</ele>
        <time>2018-05-19T11:46:45Z</time>
      </trkpt>
      <trkpt lat="45.7543" lon="6.59209">
        <ele>1109</ele>
        <time>2018-05-19T11:47:45Z</time>
      </trkpt>
      <trkpt lat="45.75426" lon="6.59203">
        <ele>1110</ele>
        <time>2018-05-19T11:48:45Z</time>
      </trkpt>
      <trkpt lat="45.75417" lon="6.59185">
        <ele>1110</ele>
        <time>2018-05-19T11:49:45Z</time>
      </trkpt>
      <trkpt lat="45.75407" lon="6.59167">
        <ele>1104</ele>
        <time>2018-05-19T11:50:45Z</time>
      </trkpt>
      <trkpt lat="45.75404" lon="6.59159">
        <ele>1108</ele>
        <time>2018-05-19T11:51:45Z</time>
      </trkpt>
      <trkpt lat="45.754" lon="6.59148">
        <ele>1108</ele>
        <time>2018-05-19T11:52:45Z</time>
      </trkpt>
      <trkpt lat="45.75396" lon="6.59137">
        <ele>1109</ele>
        <time>2018-05-19T11:53:45Z</time>
      </trkpt>
      <trkpt lat="45.75394" lon="6.59124">
        <ele>1110</ele>
        <time>2018-05-19T11:54:45Z</time>
      </trkpt>
      <trkpt lat="45.75392" lon="6.59117">
        <ele>1110</ele>
        <time>2018-05-19T11:55:45Z</time>
      </trkpt>
      <trkpt lat="45.7539" lon="6.5911">
        <ele>1111</ele>
        <time>2018-05-19T11:56:45Z</time>
      </trkpt>
      <trkpt lat="45.75388" lon="6.59104">
        <ele>1111</ele>
        <time>2018-05-19T11:57:45Z</time>
      </trkpt>
      <trkpt lat="45.75384" lon="6.59098">
        <ele>1111</ele>
        <time>2018-05-19T11:58:45Z</time>
      </trkpt>
      <trkpt lat="45.75378" lon="6.59091">
        <ele>1111</ele>
        <time>2018-05-19T11:59:45Z</time>
      </trkpt>
      <trkpt lat="45.75373" lon="6.59085">
        <ele>1110</ele>
        <time>2018-05-19T12:00:45Z</time>
      </trkpt>
      <trkpt lat="45.75358" lon="6.5907">
        <ele>1121</ele>
        <time>2018-05-19T12:01:45Z</time>
      </trkpt>
      <trkpt lat="45.75348" lon="6.59059">
        <ele>1121</ele>
        <time>2018-05-19T12:02:45Z</time>
      </trkpt>
      <trkpt lat="45.75339" lon="6.59049">
        <ele>1123</ele>
        <time>2018-05-19T12:03:45Z</time>
      </trkpt>
      <trkpt lat="45.75334" lon="6.59041">
        <ele>1124</ele>
        <time>2018-05-19T12:04:45Z</time>
      </trkpt>
      <trkpt lat="45.75327" lon="6.5903">
        <ele>1114</ele>
        <time>2018-05-19T12:05:45Z</time>
      </trkpt>
      <trkpt lat="45.75318" lon="6.59011">
        <ele>1118</ele>
        <time>2018-05-19T12:06:45Z</time>
      </trkpt>
      <trkpt lat="45.753" lon="6.58978">
        <ele>1128</ele>
        <time>2018-05-19T12:07:45Z</time>
      </trkpt>
      <trkpt lat="45.7528" lon="6.58938">
        <ele>1130</ele>
        <time>2018-05-19T12:08:45Z</time>
      </trkpt>
      <trkpt lat="45.75255" lon="6.58896">
        <ele>1139</ele>
        <time>2018-05-19T12:09:45Z</time>
      </trkpt>
      <trkpt lat="45.75253" lon="6.58892">
        <ele>1140</ele>
        <time>2018-05-19T12:10:45Z</time>
      </trkpt>
      <trkpt lat="45.75247" lon="6.5888">
        <ele>1128</ele>
        <time>2018-05-19T12:11:45Z</time>
      </trkpt>
      <trkpt lat="45.75236" lon="6.58858">
        <ele>1129</ele>
        <time>2018-05-19T12:12:45Z</time>
      </trkpt>
      <trkpt lat="45.75229" lon="6.58846">
        <ele>1130</ele>
        <time>2018-05-19T12:13:45Z</time>
      </trkpt>
      <trkpt lat="45.75225" lon="6.58842">
        <ele>1130</ele>
        <time>2018-05-19T12:14:45Z</time>
      </trkpt>
      <trkpt lat="45.75222" lon="6.58839">
        <ele>1129</ele>
        <time>2018-05-19T12:15:45Z</time>
      </trkpt>
      <trkpt lat="45.7522" lon="6.58837">
        <ele>1129</ele>
        <time>2018-05-19T12:16:45Z</time>
      </trkpt>
      <trkpt lat="45.75217" lon="6.58837">
        <ele>1128</ele>
        <time>2018-05-19T12:17:45Z</time>
      </trkpt>
      <trkpt lat="45.75214" lon="6.58837">
        <ele>1128</ele>
        <time>2018-05-19T12:18:45Z</time>
      </trkpt>
      <trkpt lat="45.75211" lon="6.58835">
        <ele>1127</ele>
        <time>2018-05-19T12:19:45Z</time>
      </trkpt>
      <trkpt lat="45.75207" lon="6.58832">
        <ele>1136</ele>
        <time>2018-05-19T12:20:45Z</time>
      </trkpt>
      <trkpt lat="45.75202" lon="6.58827">
        <ele>1135</ele>
        <time>2018-05-19T12:21:45Z</time>
      </trkpt>
      <trkpt lat="45.75196" lon="6.5882">
        <ele>1134</ele>
        <time>2018-05-19T12:22:45Z</time>
      </trkpt>
      <trkpt lat="45.7519" lon="6.58814">
        <ele>1134</ele>
        <time>2018-05-19T12:23:45Z</time>
      </trkpt>
      <trkpt lat="45.75182" lon="6.58806">
        <ele>1134</ele>
        <time>2018-05-19T12:24:45Z</time>
      </trkpt>
      <trkpt lat="45.75176" lon="6.58802">
        <ele>1134</ele>
        <time>2018-05-19T12:25:45Z</time>
      </trkpt>
      <trkpt lat="45.75169" lon="6.58795">
        <ele>1135</ele>
        <time>2018-05-19T12:26:45Z</time>
      </trkpt>
      <trkpt lat="45.75161" lon="6.58787">
        <ele>1122</ele>
        <time>2018-05-19T12:27:45Z</time>
      </trkpt>
      <trkpt lat="45.75155" lon="6.58781">
        <ele>1123</ele>
        <time>2018-05-19T12:28:45Z</time>
      </trkpt>
      <trkpt lat="45.75147" lon="6.58773">
        <ele>1123</ele>
        <time>2018-05-19T12:29:45Z</time>
      </trkpt>
      <trkpt lat="45.75139" lon="6.58763">
        <ele>1123</ele>
        <time>2018-05-19T12:30:45Z</time>
      </trkpt>
      <trkpt lat="45.75132" lon="6.58754">
        <ele>1122</ele>
        <time>2018-05-19T12:31:45Z</time>
      </trkpt>
      <trkpt lat="45.75123" lon="6.58744">
        <ele>1130</ele>
        <time>2018-05-19T12:32:45Z</time>
      </trkpt>
      <trkpt lat="45.75115" lon="6.58736">
        <ele>1129</ele>
        <time>2018-05-19T12:33:45Z</time>
      </trkpt>
      <trkpt lat="45.75107" lon="6.58727">
        <ele>1128</ele>
        <time>2018-05-19T12:34:45Z</time>
      </trkpt>
      <trkpt lat="45.75084" lon="6.58703">
        <ele>1130</ele>
        <time>2018-05-19T12:35:45Z</time>
      </trkpt>
      <trkpt lat="45.75074" lon="6.58692">
        <ele>1117</ele>
        <time>2018-05-19T12:36:45Z</time>
      </trkpt>
      <trkpt lat="45.75067" lon="6.58686">
        <ele>1117</ele>
        <time>2018-05-19T12:37:45Z</time>
      </trkpt>
      <trkpt lat="45.7506" lon="6.58678">
        <ele>1116</ele>
        <time>2018-05-19T12:38:45Z</time>
      </trkpt>
      <trkpt lat="45.75054" lon="6.58669">
        <ele>1115</ele>
        <time>2018-05-19T12:39:45Z</time>
      </trkpt>
      <trkpt lat="45.75048" lon="6.5866">
        <ele>1124</ele>
        <time>2018-05-19T12:40:45Z</time>
      </trkpt>
      <trkpt lat="45.75042" lon="6.5865">
        <ele>1124</ele>
        <time>2018-05-19T12:41:45Z</time>
      </trkpt>
      <trkpt lat="45.75035" lon="6.5864">
        <ele>1123</ele>
        <time>2018-05-19T12:42:45Z</time>
      </trkpt>
      <trkpt lat="45.7503" lon="6.58631">
        <ele>1123</ele>
        <time>2018-05-19T12:43:45Z</time>
      </trkpt>
      <trkpt lat="45.75024" lon="6.5862">
        <ele>1124</ele>
        <time>2018-05-19T12:44:45Z</time>
      </trkpt>
      <trkpt lat="45.75017" lon="6.58609">
        <ele>1124</ele>
        <time>2018-05-19T12:45:45Z</time>
      </trkpt>
      <trkpt lat="45.75012" lon="6.586">
        <ele>1124</ele>
        <time>2018-05-19T12:46:45Z</time>
      </trkpt>
      <trkpt lat="45.75005" lon="6.5859">
        <ele>1124</ele>
        <time>2018-05-19T12:47:45Z</time>
      </trkpt>
      <trkpt lat="45.74997" lon="6.58578">
        <ele>1121</ele>
        <time>2018-05-19T12:48:45Z</time>
      </trkpt>
      <trkpt lat="45.74988" lon="6.58563">
        <ele>1118</ele>
        <time>2018-05-19T12:49:45Z</time>
      </trkpt>
      <trkpt lat="45.74981" lon="6.58552">
        <ele>1118</ele>
        <time>2018-05-19T12:50:45Z</time>
      </trkpt>
      <trkpt lat="45.74973" lon="6.58539">
        <ele>1118</ele>
        <time>2018-05-19T12:51:45Z</time>
      </trkpt>
      <trkpt lat="45.74963" lon="6.5852">
        <ele>1118</ele>
        <time>2018-05-19T12:52:45Z</time>
      </trkpt>
      <trkpt lat="45.74953" lon="6.58499">
        <ele>1126</ele>
        <time>2018-05-19T12:53:45Z</time>
      </trkpt>
      <trkpt lat="45.74952" lon="6.58497">
        <ele>1126</ele>
        <time>2018-05-19T12:54:45Z</time>
      </trkpt>
      <trkpt lat="45.74943" lon="6.58478">
        <ele>1125</ele>
        <time>2018-05-19T12:55:45Z</time>
      </trkpt>
      <trkpt lat="45.74933" lon="6.58454">
        <ele>1127</ele>
        <time>2018-05-19T12:56:45Z</time>
      </trkpt>
      <trkpt lat="45.74924" lon="6.58431">
        <ele>1127</ele>
        <time>2018-05-19T12:57:45Z</time>
      </trkpt>
      <trkpt lat="45.74913" lon="6.58408">
        <ele>1124</ele>
        <time>2018-05-19T12:58:45Z</time>
      </trkpt>
      <trkpt lat="45.74901" lon="6.58388">
        <ele>1122</ele>
        <time>2018-05-19T12:59:45Z</time>
      </trkpt>
      <trkpt lat="45.7489" lon="6.58369">
        <ele>1122</ele>
        <time>2018-05-19T13:00:45Z</time>
      </trkpt>
      <trkpt lat="45.74878" lon="6.58351">
        <ele>1121</ele>
        <time>2018-05-19T13:01:45Z</time>
      </trkpt>
      <trkpt lat="45.74866" lon="6.58332">
        <ele>1127</ele>
        <time>2018-05-19T13:02:45Z</time>
      </trkpt>
      <trkpt lat="45.74858" lon="6.58319">
        <ele>1126</ele>
        <time>2018-05-19T13:03:45Z</time>
      </trkpt>
      <trkpt lat="45.74852" lon="6.58309">
        <ele>1126</ele>
        <time>2018-05-19T13:04:45Z</time>
      </trkpt>
      <trkpt lat="45.74848" lon="6.58302">
        <ele>1127</ele>
        <time>2018-05-19T13:05:45Z</time>
      </trkpt>
      <trkpt lat="45.74847" lon="6.58295">
        <ele>1128</ele>
        <time>2018-05-19T13:06:45Z</time>
      </trkpt>
      <trkpt lat="45.74847" lon="6.5829">
        <ele>1129</ele>
        <time>2018-05-19T13:07:45Z</time>
      </trkpt>
      <trkpt lat="45.74848" lon="6.58286">
        <ele>1129</ele>
        <time>2018-05-19T13:08:45Z</time>
      </trkpt>
      <trkpt lat="45.7485" lon="6.58283">
        <ele>1130</ele>
        <time>2018-05-19T13:09:45Z</time>
      </trkpt>
      <trkpt lat="45.74852" lon="6.58281">
        <ele>1130</ele>
        <time>2018-05-19T13:10:45Z</time>
      </trkpt>
      <trkpt lat="45.74855" lon="6.58279">
        <ele>1131</ele>
        <time>2018-05-19T13:11:45Z</time>
      </trkpt>
      <trkpt lat="45.74857" lon="6.5828">
        <ele>1131</ele>
        <time>2018-05-19T13:12:45Z</time>
      </trkpt>
      <trkpt lat="45.74862" lon="6.58283">
        <ele>1131</ele>
        <time>2018-05-19T13:13:45Z</time>
      </trkpt>
      <trkpt lat="45.74866" lon="6.58287">
        <ele>1131</ele>
        <time>2018-05-19T13:14:45Z</time>
      </trkpt>
      <trkpt lat="45.74883" lon="6.58311">
        <ele>1132</ele>
        <time>2018-05-19T13:15:45Z</time>
      </trkpt>
      <trkpt lat="45.74901" lon="6.58336">
        <ele>1129</ele>
        <time>2018-05-19T13:16:45Z</time>
      </trkpt>
      <trkpt lat="45.74912" lon="6.58352">
        <ele>1128</ele>
        <time>2018-05-19T13:17:45Z</time>
      </trkpt>
      <trkpt lat="45.74921" lon="6.58363">
        <ele>1139</ele>
        <time>2018-05-19T13:18:45Z</time>
      </trkpt>
      <trkpt lat="45.74928" lon="6.58372">
        <ele>1139</ele>
        <time>2018-05-19T13:19:45Z</time>
      </trkpt>
      <trkpt lat="45.74953" lon="6.58401">
        <ele>1140</ele>
        <time>2018-05-19T13:20:45Z</time>
      </trkpt>
      <trkpt lat="45.74962" lon="6.5841">
        <ele>1141</ele>
        <time>2018-05-19T13:21:45Z</time>
      </trkpt>
      <trkpt lat="45.74966" lon="6.58413">
        <ele>1141</ele>
        <time>2018-05-19T13:22:45Z</time>
      </trkpt>
      <trkpt lat="45.74969" lon="6.58413">
        <ele>1142</ele>
        <time>2018-05-19T13:23:45Z</time>
      </trkpt>
      <trkpt lat="45.74971" lon="6.58411">
        <ele>1142</ele>
        <time>2018-05-19T13:24:45Z</time>
      </trkpt>
      <trkpt lat="45.74972" lon="6.5841">
        <ele>1142</ele>
        <time>2018-05-19T13:25:45Z</time>
      </trkpt>
      <trkpt lat="45.74972" lon="6.5841">
        <ele>1142</ele>
        <time>2018-05-19T13:26:45Z</time>
      </trkpt>
      <trkpt lat="45.74974" lon="6.58407">
        <ele>1143</ele>
        <time>2018-05-19T13:27:45Z</time>
      </trkpt>
      <trkpt lat="45.74974" lon="6.58404">
        <ele>1143</ele>
        <time>2018-05-19T13:28:45Z</time>
      </trkpt>
      <trkpt lat="45.74974" lon="6.58401">
        <ele>1143</ele>
        <time>2018-05-19T13:29:45Z</time>
      </trkpt>
      <trkpt lat="45.74973" lon="6.58397">
        <ele>1143</ele>
        <time>2018-05-19T13:30:45Z</time>
      </trkpt>
      <trkpt lat="45.74971" lon="6.58393">
        <ele>1143</ele>
        <time>2018-05-19T13:31:45Z</time>
      </trkpt>
      <trkpt lat="45.74968" lon="6.5839">
        <ele>1142</ele>
        <time>2018-05-19T13:32:45Z</time>
      </trkpt>
      <trkpt lat="45.74962" lon="6.58385">
        <ele>1142</ele>
        <time>2018-05-19T13:33:45Z</time>
      </trkpt>
      <trkpt lat="45.74958" lon="6.58381">
        <ele>1142</ele>
        <time>2018-05-19T13:34:45Z</time>
      </trkpt>
      <trkpt lat="45.74954" lon="6.58377">
        <ele>1142</ele>
        <time>2018-05-19T13:35:45Z</time>
      </trkpt>
      <trkpt lat="45.74948" lon="6.58372">
        <ele>1141</ele>
        <time>2018-05-19T13:36:45Z</time>
      </trkpt>
      <trkpt lat="45.74943" lon="6.58365">
        <ele>1141</ele>
        <time>2018-05-19T13:37:45Z</time>
      </trkpt>
      <trkpt lat="45.74936" lon="6.58354">
        <ele>1141</ele>
        <time>2018-05-19T13:38:45Z</time>
      </trkpt>
      <trkpt lat="45.74925" lon="6.58336">
        <ele>1139</ele>
        <time>2018-05-19T13:39:45Z</time>
      </trkpt>
      <trkpt lat="45.74919" lon="6.58324">
        <ele>1143</ele>
        <time>2018-05-19T13:40:45Z</time>
      </trkpt>
      <trkpt lat="45.74913" lon="6.5831">
        <ele>1135</ele>
        <time>2018-05-19T13:41:45Z</time>
      </trkpt>
      <trkpt lat="45.74909" lon="6.58297">
        <ele>1135</ele>
        <time>2018-05-19T13:42:45Z</time>
      </trkpt>
      <trkpt lat="45.74906" lon="6.58285">
        <ele>1136</ele>
        <time>2018-05-19T13:43:45Z</time>
      </trkpt>
      <trkpt lat="45.749" lon="6.58262">
        <ele>1139</ele>
        <time>2018-05-19T13:44:45Z</time>
      </trkpt>
      <trkpt lat="45.74895" lon="6.58239">
        <ele>1144</ele>
        <time>2018-05-19T13:45:45Z</time>
      </trkpt>
      <trkpt lat="45.74893" lon="6.58228">
        <ele>1143</ele>
        <time>2018-05-19T13:46:45Z</time>
      </trkpt>
      <trkpt lat="45.74892" lon="6.58221">
        <ele>1143</ele>
        <time>2018-05-19T13:47:45Z</time>
      </trkpt>
      <trkpt lat="45.7489" lon="6.58209">
        <ele>1143</ele>
        <time>2018-05-19T13:48:45Z</time>
      </trkpt>
      <trkpt lat="45.74888" lon="6.58199">
        <ele>1143</ele>
        <time>2018-05-19T13:49:45Z</time>
      </trkpt>
      <trkpt lat="45.74887" lon="6.58192">
        <ele>1144</ele>
        <time>2018-05-19T13:50:45Z</time>
      </trkpt>
      <trkpt lat="45.74887" lon="6.58184">
        <ele>1144</ele>
        <time>2018-05-19T13:51:45Z</time>
      </trkpt>
      <trkpt lat="45.74886" lon="6.5817">
        <ele>1145</ele>
        <time>2018-05-19T13:52:45Z</time>
      </trkpt>
      <trkpt lat="45.74885" lon="6.58153">
        <ele>1149</ele>
        <time>2018-05-19T13:53:45Z</time>
      </trkpt>
      <trkpt lat="45.74883" lon="6.58134">
        <ele>1149</ele>
        <time>2018-05-19T13:54:45Z</time>
      </trkpt>
      <trkpt lat="45.74881" lon="6.5812">
        <ele>1149</ele>
        <time>2018-05-19T13:55:45Z</time>
      </trkpt>
      <trkpt lat="45.74879" lon="6.58105">
        <ele>1150</ele>
        <time>2018-05-19T13:56:45Z</time>
      </trkpt>
      <trkpt lat="45.74877" lon="6.58093">
        <ele>1150</ele>
        <time>2018-05-19T13:57:45Z</time>
      </trkpt>
      <trkpt lat="45.74873" lon="6.58079">
        <ele>1154</ele>
        <time>2018-05-19T13:58:45Z</time>
      </trkpt>
      <trkpt lat="45.74869" lon="6.58067">
        <ele>1153</ele>
        <time>2018-05-19T13:59:45Z</time>
      </trkpt>
      <trkpt lat="45.74864" lon="6.58052">
        <ele>1153</ele>
        <time>2018-05-19T14:00:45Z</time>
      </trkpt>
      <trkpt lat="45.74859" lon="6.58034">
        <ele>1153</ele>
        <time>2018-05-19T14:01:45Z</time>
      </trkpt>
      <trkpt lat="45.74857" lon="6.58029">
        <ele>1153</ele>
        <time>2018-05-19T14:02:45Z</time>
      </trkpt>
      <trkpt lat="45.74856" lon="6.58024">
        <ele>1153</ele>
        <time>2018-05-19T14:03:45Z</time>
      </trkpt>
      <trkpt lat="45.74855" lon="6.58019">
        <ele>1153</ele>
        <time>2018-05-19T14:04:45Z</time>
      </trkpt>
      <trkpt lat="45.74854" lon="6.58013">
        <ele>1153</ele>
        <time>2018-05-19T14:05:45Z</time>
      </trkpt>
      <trkpt lat="45.74854" lon="6.58006">
        <ele>1152</ele>
        <time>2018-05-19T14:06:45Z</time>
      </trkpt>
      <trkpt lat="45.74853" lon="6.57999">
        <ele>1154</ele>
        <time>2018-05-19T14:07:45Z</time>
      </trkpt>
      <trkpt lat="45.74853" lon="6.57992">
        <ele>1154</ele>
        <time>2018-05-19T14:08:45Z</time>
      </trkpt>
      <trkpt lat="45.74853" lon="6.57986">
        <ele>1154</ele>
        <time>2018-05-19T14:09:45Z</time>
      </trkpt>
      <trkpt lat="45.74853" lon="6.5798">
        <ele>1155</ele>
        <time>2018-05-19T14:10:45Z</time>
      </trkpt>
      <trkpt lat="45.74854" lon="6.57975">
        <ele>1155</ele>
        <time>2018-05-19T14:11:45Z</time>
      </trkpt>
      <trkpt lat="45.74854" lon="6.5797">
        <ele>1156</ele>
        <time>2018-05-19T14:12:45Z</time>
      </trkpt>
      <trkpt lat="45.74856" lon="6.57964">
        <ele>1156</ele>
        <time>2018-05-19T14:13:45Z</time>
      </trkpt>
      <trkpt lat="45.74857" lon="6.57959">
        <ele>1156</ele>
        <time>2018-05-19T14:14:45Z</time>
      </trkpt>
      <trkpt lat="45.7486" lon="6.57955">
        <ele>1157</ele>
        <time>2018-05-19T14:15:45Z</time>
      </trkpt>
      <trkpt lat="45.74862" lon="6.57952">
        <ele>1157</ele>
        <time>2018-05-19T14:16:45Z</time>
      </trkpt>
      <trkpt lat="45.74864" lon="6.57947">
        <ele>1157</ele>
        <time>2018-05-19T14:17:45Z</time>
      </trkpt>
      <trkpt lat="45.74869" lon="6.57943">
        <ele>1158</ele>
        <time>2018-05-19T14:18:45Z</time>
      </trkpt>
      <trkpt lat="45.74874" lon="6.57939">
        <ele>1158</ele>
        <time>2018-05-19T14:19:45Z</time>
      </trkpt>
      <trkpt lat="45.7488" lon="6.57938">
        <ele>1159</ele>
        <time>2018-05-19T14:20:45Z</time>
      </trkpt>
      <trkpt lat="45.74884" lon="6.57937">
        <ele>1159</ele>
        <time>2018-05-19T14:21:45Z</time>
      </trkpt>
      <trkpt lat="45.74888" lon="6.57935">
        <ele>1160</ele>
        <time>2018-05-19T14:22:45Z</time>
      </trkpt>
      <trkpt lat="45.74892" lon="6.57934">
        <ele>1160</ele>
        <time>2018-05-19T14:23:45Z</time>
      </trkpt>
      <trkpt lat="45.74895" lon="6.57933">
        <ele>1160</ele>
        <time>2018-05-19T14:24:45Z</time>
      </trkpt>
      <trkpt lat="45.74899" lon="6.57931">
        <ele>1161</ele>
        <time>2018-05-19T14:25:45Z</time>
      </trkpt>
      <trkpt lat="45.74901" lon="6.57929">
        <ele>1161</ele>
        <time>2018-05-19T14:26:45Z</time>
      </trkpt>
      <trkpt lat="45.74905" lon="6.57926">
        <ele>1162</ele>
        <time>2018-05-19T14:27:45Z</time>
      </trkpt>
      <trkpt lat="45.74907" lon="6.57922">
        <ele>1163</ele>
        <time>2018-05-19T14:28:45Z</time>
      </trkpt>
      <trkpt lat="45.74908" lon="6.57917">
        <ele>1163</ele>
        <time>2018-05-19T14:29:45Z</time>
      </trkpt>
      <trkpt lat="45.74908" lon="6.57911">
        <ele>1165</ele>
        <time>2018-05-19T14:30:45Z</time>
      </trkpt>
      <trkpt lat="45.74907" lon="6.57907">
        <ele>1165</ele>
        <time>2018-05-19T14:31:45Z</time>
      </trkpt>
      <trkpt lat="45.74905" lon="6.57904">
        <ele>1164</ele>
        <time>2018-05-19T14:32:45Z</time>
      </trkpt>
      <trkpt lat="45.74903" lon="6.579">
        <ele>1164</ele>
        <time>2018-05-19T14:33:45Z</time>
      </trkpt>
      <trkpt lat="45.74898" lon="6.57896">
        <ele>1164</ele>
        <time>2018-05-19T14:34:45Z</time>
      </trkpt>
      <trkpt lat="45.74893" lon="6.57892">
        <ele>1164</ele>
        <time>2018-05-19T14:35:45Z</time>
      </trkpt>
      <trkpt lat="45.74885" lon="6.57888">
        <ele>1164</ele>
        <time>2018-05-19T14:36:45Z</time>
      </trkpt>
      <trkpt lat="45.74879" lon="6.57884">
        <ele>1164</ele>
        <time>2018-05-19T14:37:45Z</time>
      </trkpt>
      <trkpt lat="45.74872" lon="6.57881">
        <ele>1163</ele>
        <time>2018-05-19T14:38:45Z</time>
      </trkpt>
      <trkpt lat="45.74866" lon="6.57878">
        <ele>1163</ele>
        <time>2018-05-19T14:39:45Z</time>
      </trkpt>
      <trkpt lat="45.7486" lon="6.57876">
        <ele>1163</ele>
        <time>2018-05-19T14:40:45Z</time>
      </trkpt>
      <trkpt lat="45.74854" lon="6.57873">
        <ele>1163</ele>
        <time>2018-05-19T14:41:45Z</time>
      </trkpt>
      <trkpt lat="45.74849" lon="6.57871">
        <ele>1163</ele>
        <time>2018-05-19T14:42:45Z</time>
      </trkpt>
      <trkpt lat="45.7484" lon="6.57869">
        <ele>1163</ele>
        <time>2018-05-19T14:43:45Z</time>
      </trkpt>
      <trkpt lat="45.74833" lon="6.57869">
        <ele>1157</ele>
        <time>2018-05-19T14:44:45Z</time>
      </trkpt>
      <trkpt lat="45.74825" lon="6.57869">
        <ele>1157</ele>
        <time>2018-05-19T14:45:45Z</time>
      </trkpt>
      <trkpt lat="45.74819" lon="6.57869">
        <ele>1157</ele>
        <time>2018-05-19T14:46:45Z</time>
      </trkpt>
      <trkpt lat="45.74815" lon="6.57867">
        <ele>1157</ele>
        <time>2018-05-19T14:47:45Z</time>
      </trkpt>
      <trkpt lat="45.74809" lon="6.57865">
        <ele>1157</ele>
        <time>2018-05-19T14:48:45Z</time>
      </trkpt>
      <trkpt lat="45.74805" lon="6.57862">
        <ele>1157</ele>
        <time>2018-05-19T14:49:45Z</time>
      </trkpt>
      <trkpt lat="45.74801" lon="6.57859">
        <ele>1157</ele>
        <time>2018-05-19T14:50:45Z</time>
      </trkpt>
      <trkpt lat="45.74797" lon="6.57855">
        <ele>1156</ele>
        <time>2018-05-19T14:51:45Z</time>
      </trkpt>
      <trkpt lat="45.74793" lon="6.57851">
        <ele>1156</ele>
        <time>2018-05-19T14:52:45Z</time>
      </trkpt>
      <trkpt lat="45.7479" lon="6.57847">
        <ele>1156</ele>
        <time>2018-05-19T14:53:45Z</time>
      </trkpt>
      <trkpt lat="45.74786" lon="6.57841">
        <ele>1156</ele>
        <time>2018-05-19T14:54:45Z</time>
      </trkpt>
      <trkpt lat="45.74783" lon="6.57834">
        <ele>1156</ele>
        <time>2018-05-19T14:55:45Z</time>
      </trkpt>
      <trkpt lat="45.7478" lon="6.57827">
        <ele>1162</ele>
        <time>2018-05-19T14:56:45Z</time>
      </trkpt>
      <trkpt lat="45.74777" lon="6.57819">
        <ele>1162</ele>
        <time>2018-05-19T14:57:45Z</time>
      </trkpt>
      <trkpt lat="45.74775" lon="6.5781">
        <ele>1163</ele>
        <time>2018-05-19T14:58:45Z</time>
      </trkpt>
      <trkpt lat="45.74774" lon="6.57803">
        <ele>1163</ele>
        <time>2018-05-19T14:59:45Z</time>
      </trkpt>
      <trkpt lat="45.74773" lon="6.57793">
        <ele>1164</ele>
        <time>2018-05-19T15:00:45Z</time>
      </trkpt>
      <trkpt lat="45.74771" lon="6.57781">
        <ele>1164</ele>
        <time>2018-05-19T15:01:45Z</time>
      </trkpt>
      <trkpt lat="45.7477" lon="6.57765">
        <ele>1165</ele>
        <time>2018-05-19T15:02:45Z</time>
      </trkpt>
      <trkpt lat="45.74768" lon="6.57754">
        <ele>1165</ele>
        <time>2018-05-19T15:03:45Z</time>
      </trkpt>
      <trkpt lat="45.74767" lon="6.57747">
        <ele>1170</ele>
        <time>2018-05-19T15:04:45Z</time>
      </trkpt>
      <trkpt lat="45.74765" lon="6.5774">
        <ele>1170</ele>
        <time>2018-05-19T15:05:45Z</time>
      </trkpt>
      <trkpt lat="45.74763" lon="6.57734">
        <ele>1171</ele>
        <time>2018-05-19T15:06:45Z</time>
      </trkpt>
      <trkpt lat="45.7476" lon="6.57726">
        <ele>1172</ele>
        <time>2018-05-19T15:07:45Z</time>
      </trkpt>
      <trkpt lat="45.74753" lon="6.5771">
        <ele>1174</ele>
        <time>2018-05-19T15:08:45Z</time>
      </trkpt>
      <trkpt lat="45.74744" lon="6.57693">
        <ele>1166</ele>
        <time>2018-05-19T15:09:45Z</time>
      </trkpt>
      <trkpt lat="45.74734" lon="6.57673">
        <ele>1168</ele>
        <time>2018-05-19T15:10:45Z</time>
      </trkpt>
      <trkpt lat="45.74723" lon="6.57651">
        <ele>1174</ele>
        <time>2018-05-19T15:11:45Z</time>
      </trkpt>
      <trkpt lat="45.74713" lon="6.57631">
        <ele>1175</ele>
        <time>2018-05-19T15:12:45Z</time>
      </trkpt>
      <trkpt lat="45.74708" lon="6.57621">
        <ele>1175</ele>
        <time>2018-05-19T15:13:45Z</time>
      </trkpt>
      <trkpt lat="45.74685" lon="6.57574">
        <ele>1184</ele>
        <time>2018-05-19T15:14:45Z</time>
      </trkpt>
      <trkpt lat="45.74668" lon="6.5754">
        <ele>1189</ele>
        <time>2018-05-19T15:15:45Z</time>
      </trkpt>
      <trkpt lat="45.74653" lon="6.57507">
        <ele>1182</ele>
        <time>2018-05-19T15:16:45Z</time>
      </trkpt>
      <trkpt lat="45.74642" lon="6.57478">
        <ele>1189</ele>
        <time>2018-05-19T15:17:45Z</time>
      </trkpt>
      <trkpt lat="45.74633" lon="6.57453">
        <ele>1190</ele>
        <time>2018-05-19T15:18:45Z</time>
      </trkpt>
      <trkpt lat="45.74627" lon="6.57438">
        <ele>1191</ele>
        <time>2018-05-19T15:19:45Z</time>
      </trkpt>
      <trkpt lat="45.74623" lon="6.57433">
        <ele>1191</ele>
        <time>2018-05-19T15:20:45Z</time>
      </trkpt>
      <trkpt lat="45.74623" lon="6.57433">
        <ele>1191</ele>
        <time>2018-05-19T15:21:45Z</time>
      </trkpt>
      <trkpt lat="45.74626" lon="6.57429">
        <ele>1192</ele>
        <time>2018-05-19T15:22:45Z</time>
      </trkpt>
      <trkpt lat="45.7463" lon="6.57426">
        <ele>1193</ele>
        <time>2018-05-19T15:23:45Z</time>
      </trkpt>
      <trkpt lat="45.74632" lon="6.57425">
        <ele>1193</ele>
        <time>2018-05-19T15:24:45Z</time>
      </trkpt>
      <trkpt lat="45.74635" lon="6.57426">
        <ele>1194</ele>
        <time>2018-05-19T15:25:45Z</time>
      </trkpt>
      <trkpt lat="45.74639" lon="6.57429">
        <ele>1194</ele>
        <time>2018-05-19T15:26:45Z</time>
      </trkpt>
      <trkpt lat="45.74642" lon="6.57433">
        <ele>1194</ele>
        <time>2018-05-19T15:27:45Z</time>
      </trkpt>
      <trkpt lat="45.74646" lon="6.57438">
        <ele>1194</ele>
        <time>2018-05-19T15:28:45Z</time>
      </trkpt>
      <trkpt lat="45.74649" lon="6.57445">
        <ele>1193</ele>
        <time>2018-05-19T15:29:45Z</time>
      </trkpt>
      <trkpt lat="45.74653" lon="6.57454">
        <ele>1192</ele>
        <time>2018-05-19T15:30:45Z</time>
      </trkpt>
      <trkpt lat="45.74657" lon="6.57463">
        <ele>1191</ele>
        <time>2018-05-19T15:31:45Z</time>
      </trkpt>
      <trkpt lat="45.74662" lon="6.57472">
        <ele>1190</ele>
        <time>2018-05-19T15:32:45Z</time>
      </trkpt>
      <trkpt lat="45.74667" lon="6.5748">
        <ele>1201</ele>
        <time>2018-05-19T15:33:45Z</time>
      </trkpt>
      <trkpt lat="45.74672" lon="6.57485">
        <ele>1200</ele>
        <time>2018-05-19T15:34:45Z</time>
      </trkpt>
      <trkpt lat="45.74677" lon="6.5749">
        <ele>1199</ele>
        <time>2018-05-19T15:35:45Z</time>
      </trkpt>
      <trkpt lat="45.74683" lon="6.57495">
        <ele>1200</ele>
        <time>2018-05-19T15:36:45Z</time>
      </trkpt>
      <trkpt lat="45.7469" lon="6.57501">
        <ele>1192</ele>
        <time>2018-05-19T15:37:45Z</time>
      </trkpt>
      <trkpt lat="45.74702" lon="6.57508">
        <ele>1194</ele>
        <time>2018-05-19T15:38:45Z</time>
      </trkpt>
      <trkpt lat="45.74724" lon="6.57522">
        <ele>1197</ele>
        <time>2018-05-19T15:39:45Z</time>
      </trkpt>
      <trkpt lat="45.74743" lon="6.57533">
        <ele>1198</ele>
        <time>2018-05-19T15:40:45Z</time>
      </trkpt>
      <trkpt lat="45.74756" lon="6.57539">
        <ele>1211</ele>
        <time>2018-05-19T15:41:45Z</time>
      </trkpt>
      <trkpt lat="45.74766" lon="6.57544">
        <ele>1211</ele>
        <time>2018-05-19T15:42:45Z</time>
      </trkpt>
      <trkpt lat="45.74773" lon="6.57547">
        <ele>1211</ele>
        <time>2018-05-19T15:43:45Z</time>
      </trkpt>
      <trkpt lat="45.74784" lon="6.57551">
        <ele>1212</ele>
        <time>2018-05-19T15:44:45Z</time>
      </trkpt>
      <trkpt lat="45.74805" lon="6.57558">
        <ele>1214</ele>
        <time>2018-05-19T15:45:45Z</time>
      </trkpt>
      <trkpt lat="45.74824" lon="6.57565">
        <ele>1214</ele>
        <time>2018-05-19T15:46:45Z</time>
      </trkpt>
      <trkpt lat="45.74838" lon="6.5757">
        <ele>1222</ele>
        <time>2018-05-19T15:47:45Z</time>
      </trkpt>
      <trkpt lat="45.74847" lon="6.57575">
        <ele>1223</ele>
        <time>2018-05-19T15:48:45Z</time>
      </trkpt>
      <trkpt lat="45.74852" lon="6.5758">
        <ele>1224</ele>
        <time>2018-05-19T15:49:45Z</time>
      </trkpt>
      <trkpt lat="45.74858" lon="6.57586">
        <ele>1213</ele>
        <time>2018-05-19T15:50:45Z</time>
      </trkpt>
      <trkpt lat="45.74864" lon="6.57592">
        <ele>1213</ele>
        <time>2018-05-19T15:51:45Z</time>
      </trkpt>
      <trkpt lat="45.74877" lon="6.57605">
        <ele>1214</ele>
        <time>2018-05-19T15:52:45Z</time>
      </trkpt>
      <trkpt lat="45.74881" lon="6.5761">
        <ele>1214</ele>
        <time>2018-05-19T15:53:45Z</time>
      </trkpt>
      <trkpt lat="45.74888" lon="6.57615">
        <ele>1214</ele>
        <time>2018-05-19T15:54:45Z</time>
      </trkpt>
      <trkpt lat="45.74895" lon="6.57619">
        <ele>1215</ele>
        <time>2018-05-19T15:55:45Z</time>
      </trkpt>
      <trkpt lat="45.74913" lon="6.57627">
        <ele>1214</ele>
        <time>2018-05-19T15:56:45Z</time>
      </trkpt>
      <trkpt lat="45.74928" lon="6.57633">
        <ele>1224</ele>
        <time>2018-05-19T15:57:45Z</time>
      </trkpt>
      <trkpt lat="45.74938" lon="6.57636">
        <ele>1225</ele>
        <time>2018-05-19T15:58:45Z</time>
      </trkpt>
      <trkpt lat="45.74949" lon="6.57639">
        <ele>1226</ele>
        <time>2018-05-19T15:59:45Z</time>
      </trkpt>
      <trkpt lat="45.74963" lon="6.57642">
        <ele>1227</ele>
        <time>2018-05-19T16:00:45Z</time>
      </trkpt>
      <trkpt lat="45.7497" lon="6.57644">
        <ele>1227</ele>
        <time>2018-05-19T16:01:45Z</time>
      </trkpt>
      <trkpt lat="45.7498" lon="6.57648">
        <ele>1227</ele>
        <time>2018-05-19T16:02:45Z</time>
      </trkpt>
      <trkpt lat="45.74997" lon="6.57657">
        <ele>1226</ele>
        <time>2018-05-19T16:03:45Z</time>
      </trkpt>
      <trkpt lat="45.75004" lon="6.57661">
        <ele>1230</ele>
        <time>2018-05-19T16:04:45Z</time>
      </trkpt>
      <trkpt lat="45.75012" lon="6.57665">
        <ele>1233</ele>
        <time>2018-05-19T16:05:45Z</time>
      </trkpt>
      <trkpt lat="45.75028" lon="6.57672">
        <ele>1225</ele>
        <time>2018-05-19T16:06:45Z</time>
      </trkpt>
      <trkpt lat="45.75042" lon="6.57676">
        <ele>1226</ele>
        <time>2018-05-19T16:07:45Z</time>
      </trkpt>
      <trkpt lat="45.75048" lon="6.57677">
        <ele>1227</ele>
        <time>2018-05-19T16:08:45Z</time>
      </trkpt>
      <trkpt lat="45.75054" lon="6.57678">
        <ele>1228</ele>
        <time>2018-05-19T16:09:45Z</time>
      </trkpt>
      <trkpt lat="45.75057" lon="6.57679">
        <ele>1229</ele>
        <time>2018-05-19T16:10:45Z</time>
      </trkpt>
      <trkpt lat="45.75062" lon="6.57678">
        <ele>1230</ele>
        <time>2018-05-19T16:11:45Z</time>
      </trkpt>
      <trkpt lat="45.75067" lon="6.57678">
        <ele>1232</ele>
        <time>2018-05-19T16:12:45Z</time>
      </trkpt>
      <trkpt lat="45.75072" lon="6.57677">
        <ele>1233</ele>
        <time>2018-05-19T16:13:45Z</time>
      </trkpt>
      <trkpt lat="45.75078" lon="6.57676">
        <ele>1235</ele>
        <time>2018-05-19T16:14:45Z</time>
      </trkpt>
      <trkpt lat="45.75084" lon="6.57676">
        <ele>1242</ele>
        <time>2018-05-19T16:15:45Z</time>
      </trkpt>
      <trkpt lat="45.7509" lon="6.57676">
        <ele>1243</ele>
        <time>2018-05-19T16:16:45Z</time>
      </trkpt>
      <trkpt lat="45.75096" lon="6.57678">
        <ele>1243</ele>
        <time>2018-05-19T16:17:45Z</time>
      </trkpt>
      <trkpt lat="45.75102" lon="6.57682">
        <ele>1243</ele>
        <time>2018-05-19T16:18:45Z</time>
      </trkpt>
      <trkpt lat="45.75108" lon="6.57687">
        <ele>1244</ele>
        <time>2018-05-19T16:19:45Z</time>
      </trkpt>
      <trkpt lat="45.75114" lon="6.57693">
        <ele>1244</ele>
        <time>2018-05-19T16:20:45Z</time>
      </trkpt>
      <trkpt lat="45.75119" lon="6.57699">
        <ele>1244</ele>
        <time>2018-05-19T16:21:45Z</time>
      </trkpt>
      <trkpt lat="45.75123" lon="6.57704">
        <ele>1244</ele>
        <time>2018-05-19T16:22:45Z</time>
      </trkpt>
      <trkpt lat="45.75126" lon="6.57708">
        <ele>1244</ele>
        <time>2018-05-19T16:23:45Z</time>
      </trkpt>
      <trkpt lat="45.75129" lon="6.57713">
        <ele>1244</ele>
        <time>2018-05-19T16:24:45Z</time>
      </trkpt>
      <trkpt lat="45.75132" lon="6.57721">
        <ele>1244</ele>
        <time>2018-05-19T16:25:45Z</time>
      </trkpt>
      <trkpt lat="45.75135" lon="6.57728">
        <ele>1244</ele>
        <time>2018-05-19T16:26:45Z</time>
      </trkpt>
      <trkpt lat="45.75139" lon="6.5774">
        <ele>1244</ele>
        <time>2018-05-19T16:27:45Z</time>
      </trkpt>
      <trkpt lat="45.75141" lon="6.57748">
        <ele>1244</ele>
        <time>2018-05-19T16:28:45Z</time>
      </trkpt>
      <trkpt lat="45.75144" lon="6.57756">
        <ele>1236</ele>
        <time>2018-05-19T16:29:45Z</time>
      </trkpt>
      <trkpt lat="45.75147" lon="6.57762">
        <ele>1236</ele>
        <time>2018-05-19T16:30:45Z</time>
      </trkpt>
      <trkpt lat="45.75152" lon="6.57768">
        <ele>1236</ele>
        <time>2018-05-19T16:31:45Z</time>
      </trkpt>
      <trkpt lat="45.75156" lon="6.57773">
        <ele>1236</ele>
        <time>2018-05-19T16:32:45Z</time>
      </trkpt>
      <trkpt lat="45.7516" lon="6.57776">
        <ele>1236</ele>
        <time>2018-05-19T16:33:45Z</time>
      </trkpt>
      <trkpt lat="45.75165" lon="6.57779">
        <ele>1235</ele>
        <time>2018-05-19T16:34:45Z</time>
      </trkpt>
      <trkpt lat="45.75171" lon="6.57782">
        <ele>1250</ele>
        <time>2018-05-19T16:35:45Z</time>
      </trkpt>
      <trkpt lat="45.75176" lon="6.57785">
        <ele>1251</ele>
        <time>2018-05-19T16:36:45Z</time>
      </trkpt>
      <trkpt lat="45.75181" lon="6.57786">
        <ele>1251</ele>
        <time>2018-05-19T16:37:45Z</time>
      </trkpt>
      <trkpt lat="45.75185" lon="6.57785">
        <ele>1251</ele>
        <time>2018-05-19T16:38:45Z</time>
      </trkpt>
      <trkpt lat="45.75188" lon="6.57783">
        <ele>1252</ele>
        <time>2018-05-19T16:39:45Z</time>
      </trkpt>
      <trkpt lat="45.75189" lon="6.57781">
        <ele>1252</ele>
        <time>2018-05-19T16:40:45Z</time>
      </trkpt>
      <trkpt lat="45.75191" lon="6.57778">
        <ele>1253</ele>
        <time>2018-05-19T16:41:45Z</time>
      </trkpt>
      <trkpt lat="45.75191" lon="6.57778">
        <ele>1253</ele>
        <time>2018-05-19T16:42:45Z</time>
      </trkpt>
      <trkpt lat="45.7519" lon="6.57774">
        <ele>1253</ele>
        <time>2018-05-19T16:43:45Z</time>
      </trkpt>
      <trkpt lat="45.7519" lon="6.57772">
        <ele>1253</ele>
        <time>2018-05-19T16:44:45Z</time>
      </trkpt>
      <trkpt lat="45.75189" lon="6.5777">
        <ele>1253</ele>
        <time>2018-05-19T16:45:45Z</time>
      </trkpt>
      <trkpt lat="45.75187" lon="6.57768">
        <ele>1253</ele>
        <time>2018-05-19T16:46:45Z</time>
      </trkpt>
      <trkpt lat="45.75186" lon="6.57767">
        <ele>1252</ele>
        <time>2018-05-19T16:47:45Z</time>
      </trkpt>
      <trkpt lat="45.75185" lon="6.57766">
        <ele>1252</ele>
        <time>2018-05-19T16:48:45Z</time>
      </trkpt>
      <trkpt lat="45.75181" lon="6.57764">
        <ele>1252</ele>
        <time>2018-05-19T16:49:45Z</time>
      </trkpt>
      <trkpt lat="45.75178" lon="6.57764">
        <ele>1251</ele>
        <time>2018-05-19T16:50:45Z</time>
      </trkpt>
      <trkpt lat="45.75174" lon="6.57763">
        <ele>1251</ele>
        <time>2018-05-19T16:51:45Z</time>
      </trkpt>
      <trkpt lat="45.75171" lon="6.57762">
        <ele>1250</ele>
        <time>2018-05-19T16:52:45Z</time>
      </trkpt>
      <trkpt lat="45.75168" lon="6.57758">
        <ele>1250</ele>
        <time>2018-05-19T16:53:45Z</time>
      </trkpt>
      <trkpt lat="45.75165" lon="6.57754">
        <ele>1245</ele>
        <time>2018-05-19T16:54:45Z</time>
      </trkpt>
      <trkpt lat="45.75164" lon="6.57751">
        <ele>1246</ele>
        <time>2018-05-19T16:55:45Z</time>
      </trkpt>
      <trkpt lat="45.75162" lon="6.57747">
        <ele>1247</ele>
        <time>2018-05-19T16:56:45Z</time>
      </trkpt>
      <trkpt lat="45.75161" lon="6.57742">
        <ele>1247</ele>
        <time>2018-05-19T16:57:45Z</time>
      </trkpt>
      <trkpt lat="45.75161" lon="6.57739">
        <ele>1247</ele>
        <time>2018-05-19T16:58:45Z</time>
      </trkpt>
      <trkpt lat="45.7516" lon="6.57734">
        <ele>1246</ele>
        <time>2018-05-19T16:59:45Z</time>
      </trkpt>
      <trkpt lat="45.7516" lon="6.57729">
        <ele>1246</ele>
        <time>2018-05-19T17:00:45Z</time>
      </trkpt>
      <trkpt lat="45.7516" lon="6.57725">
        <ele>1247</ele>
        <time>2018-05-19T17:01:45Z</time>
      </trkpt>
      <trkpt lat="45.7516" lon="6.5772">
        <ele>1247</ele>
        <time>2018-05-19T17:02:45Z</time>
      </trkpt>
      <trkpt lat="45.7516" lon="6.57714">
        <ele>1248</ele>
        <time>2018-05-19T17:03:45Z</time>
      </trkpt>
      <trkpt lat="45.7516" lon="6.57707">
        <ele>1249</ele>
        <time>2018-05-19T17:04:45Z</time>
      </trkpt>
      <trkpt lat="45.75159" lon="6.57701">
        <ele>1250</ele>
        <time>2018-05-19T17:05:45Z</time>
      </trkpt>
      <trkpt lat="45.75159" lon="6.57695">
        <ele>1251</ele>
        <time>2018-05-19T17:06:45Z</time>
      </trkpt>
      <trkpt lat="45.75158" lon="6.57691">
        <ele>1252</ele>
        <time>2018-05-19T17:07:45Z</time>
      </trkpt>
      <trkpt lat="45.75156" lon="6.57685">
        <ele>1253</ele>
        <time>2018-05-19T17:08:45Z</time>
      </trkpt>
      <trkpt lat="45.75154" lon="6.5768">
        <ele>1254</ele>
        <time>2018-05-19T17:09:45Z</time>
      </trkpt>
      <trkpt lat="45.75151" lon="6.57674">
        <ele>1255</ele>
        <time>2018-05-19T17:10:45Z</time>
      </trkpt>
      <trkpt lat="45.75146" lon="6.57667">
        <ele>1253</ele>
        <time>2018-05-19T17:11:45Z</time>
      </trkpt>
      <trkpt lat="45.75143" lon="6.5766">
        <ele>1264</ele>
        <time>2018-05-19T17:12:45Z</time>
      </trkpt>
      <trkpt lat="45.75131" lon="6.57644">
        <ele>1264</ele>
        <time>2018-05-19T17:13:45Z</time>
      </trkpt>
      <trkpt lat="45.75116" lon="6.57622">
        <ele>1265</ele>
        <time>2018-05-19T17:14:45Z</time>
      </trkpt>
      <trkpt lat="45.75107" lon="6.57613">
        <ele>1266</ele>
        <time>2018-05-19T17:15:45Z</time>
      </trkpt>
      <trkpt lat="45.75104" lon="6.5761">
        <ele>1266</ele>
        <time>2018-05-19T17:16:45Z</time>
      </trkpt>
      <trkpt lat="45.751" lon="6.57607">
        <ele>1266</ele>
        <time>2018-05-19T17:17:45Z</time>
      </trkpt>
      <trkpt lat="45.75093" lon="6.57604">
        <ele>1266</ele>
        <time>2018-05-19T17:18:45Z</time>
      </trkpt>
      <trkpt lat="45.75088" lon="6.57603">
        <ele>1266</ele>
        <time>2018-05-19T17:19:45Z</time>
      </trkpt>
      <trkpt lat="45.75082" lon="6.57601">
        <ele>1257</ele>
        <time>2018-05-19T17:20:45Z</time>
      </trkpt>
      <trkpt lat="45.75076" lon="6.57599">
        <ele>1257</ele>
        <time>2018-05-19T17:21:45Z</time>
      </trkpt>
      <trkpt lat="45.7507" lon="6.57595">
        <ele>1257</ele>
        <time>2018-05-19T17:22:45Z</time>
      </trkpt>
      <trkpt lat="45.75065" lon="6.57592">
        <ele>1256</ele>
        <time>2018-05-19T17:23:45Z</time>
      </trkpt>
      <trkpt lat="45.7506" lon="6.57587">
        <ele>1255</ele>
        <time>2018-05-19T17:24:45Z</time>
      </trkpt>
      <trkpt lat="45.75052" lon="6.57579">
        <ele>1270</ele>
        <time>2018-05-19T17:25:45Z</time>
      </trkpt>
      <trkpt lat="45.7504" lon="6.57563">
        <ele>1270</ele>
        <time>2018-05-19T17:26:45Z</time>
      </trkpt>
      <trkpt lat="45.75036" lon="6.57559">
        <ele>1270</ele>
        <time>2018-05-19T17:27:45Z</time>
      </trkpt>
      <trkpt lat="45.75032" lon="6.57551">
        <ele>1270</ele>
        <time>2018-05-19T17:28:45Z</time>
      </trkpt>
      <trkpt lat="45.75029" lon="6.57546">
        <ele>1271</ele>
        <time>2018-05-19T17:29:45Z</time>
      </trkpt>
      <trkpt lat="45.75024" lon="6.57534">
        <ele>1273</ele>
        <time>2018-05-19T17:30:45Z</time>
      </trkpt>
      <trkpt lat="45.75019" lon="6.57525">
        <ele>1274</ele>
        <time>2018-05-19T17:31:45Z</time>
      </trkpt>
      <trkpt lat="45.75015" lon="6.57518">
        <ele>1275</ele>
        <time>2018-05-19T17:32:45Z</time>
      </trkpt>
      <trkpt lat="45.7501" lon="6.57511">
        <ele>1275</ele>
        <time>2018-05-19T17:33:45Z</time>
      </trkpt>
      <trkpt lat="45.75004" lon="6.57506">
        <ele>1276</ele>
        <time>2018-05-19T17:34:45Z</time>
      </trkpt>
      <trkpt lat="45.74999" lon="6.57502">
        <ele>1275</ele>
        <time>2018-05-19T17:35:45Z</time>
      </trkpt>
      <trkpt lat="45.7499" lon="6.57497">
        <ele>1281</ele>
        <time>2018-05-19T17:36:45Z</time>
      </trkpt>
      <trkpt lat="45.7498" lon="6.57492">
        <ele>1282</ele>
        <time>2018-05-19T17:37:45Z</time>
      </trkpt>
      <trkpt lat="45.74974" lon="6.57488">
        <ele>1283</ele>
        <time>2018-05-19T17:38:45Z</time>
      </trkpt>
      <trkpt lat="45.74968" lon="6.57483">
        <ele>1284</ele>
        <time>2018-05-19T17:39:45Z</time>
      </trkpt>
      <trkpt lat="45.74962" lon="6.57476">
        <ele>1284</ele>
        <time>2018-05-19T17:40:45Z</time>
      </trkpt>
      <trkpt lat="45.74958" lon="6.5747">
        <ele>1285</ele>
        <time>2018-05-19T17:41:45Z</time>
      </trkpt>
      <trkpt lat="45.74952" lon="6.57461">
        <ele>1287</ele>
        <time>2018-05-19T17:42:45Z</time>
      </trkpt>
      <trkpt lat="45.7495" lon="6.57457">
        <ele>1287</ele>
        <time>2018-05-19T17:43:45Z</time>
      </trkpt>
      <trkpt lat="45.74945" lon="6.57453">
        <ele>1288</ele>
        <time>2018-05-19T17:44:45Z</time>
      </trkpt>
      <trkpt lat="45.74939" lon="6.57445">
        <ele>1289</ele>
        <time>2018-05-19T17:45:45Z</time>
      </trkpt>
      <trkpt lat="45.74927" lon="6.57429">
        <ele>1293</ele>
        <time>2018-05-19T17:46:45Z</time>
      </trkpt>
      <trkpt lat="45.74914" lon="6.57415">
        <ele>1297</ele>
        <time>2018-05-19T17:47:45Z</time>
      </trkpt>
      <trkpt lat="45.74899" lon="6.574">
        <ele>1299</ele>
        <time>2018-05-19T17:48:45Z</time>
      </trkpt>
      <trkpt lat="45.74884" lon="6.57385">
        <ele>1300</ele>
        <time>2018-05-19T17:49:45Z</time>
      </trkpt>
      <trkpt lat="45.74871" lon="6.5737">
        <ele>1301</ele>
        <time>2018-05-19T17:50:45Z</time>
      </trkpt>
      <trkpt lat="45.74857" lon="6.57355">
        <ele>1301</ele>
        <time>2018-05-19T17:51:45Z</time>
      </trkpt>
      <trkpt lat="45.74836" lon="6.57331">
        <ele>1304</ele>
        <time>2018-05-19T17:52:45Z</time>
      </trkpt>
      <trkpt lat="45.74823" lon="6.57314">
        <ele>1301</ele>
        <time>2018-05-19T17:53:45Z</time>
      </trkpt>
      <trkpt lat="45.74816" lon="6.57306">
        <ele>1302</ele>
        <time>2018-05-19T17:54:45Z</time>
      </trkpt>
      <trkpt lat="45.74809" lon="6.57298">
        <ele>1303</ele>
        <time>2018-05-19T17:55:45Z</time>
      </trkpt>
      <trkpt lat="45.74796" lon="6.57282">
        <ele>1304</ele>
        <time>2018-05-19T17:56:45Z</time>
      </trkpt>
      <trkpt lat="45.74785" lon="6.57265">
        <ele>1304</ele>
        <time>2018-05-19T17:57:45Z</time>
      </trkpt>
      <trkpt lat="45.7478" lon="6.57257">
        <ele>1304</ele>
        <time>2018-05-19T17:58:45Z</time>
      </trkpt>
      <trkpt lat="45.74776" lon="6.57248">
        <ele>1322</ele>
        <time>2018-05-19T17:59:45Z</time>
      </trkpt>
      <trkpt lat="45.74772" lon="6.5724">
        <ele>1321</ele>
        <time>2018-05-19T18:00:45Z</time>
      </trkpt>
      <trkpt lat="45.74768" lon="6.57232">
        <ele>1322</ele>
        <time>2018-05-19T18:01:45Z</time>
      </trkpt>
      <trkpt lat="45.74765" lon="6.57224">
        <ele>1324</ele>
        <time>2018-05-19T18:02:45Z</time>
      </trkpt>
      <trkpt lat="45.74761" lon="6.57215">
        <ele>1327</ele>
        <time>2018-05-19T18:03:45Z</time>
      </trkpt>
      <trkpt lat="45.74757" lon="6.57208">
        <ele>1329</ele>
        <time>2018-05-19T18:04:45Z</time>
      </trkpt>
      <trkpt lat="45.74753" lon="6.57201">
        <ele>1331</ele>
        <time>2018-05-19T18:05:45Z</time>
      </trkpt>
      <trkpt lat="45.74748" lon="6.57195">
        <ele>1315</ele>
        <time>2018-05-19T18:06:45Z</time>
      </trkpt>
      <trkpt lat="45.74742" lon="6.57191">
        <ele>1316</ele>
        <time>2018-05-19T18:07:45Z</time>
      </trkpt>
      <trkpt lat="45.7473" lon="6.57184">
        <ele>1316</ele>
        <time>2018-05-19T18:08:45Z</time>
      </trkpt>
      <trkpt lat="45.74707" lon="6.57168">
        <ele>1312</ele>
        <time>2018-05-19T18:09:45Z</time>
      </trkpt>
      <trkpt lat="45.74683" lon="6.57149">
        <ele>1329</ele>
        <time>2018-05-19T18:10:45Z</time>
      </trkpt>
      <trkpt lat="45.74657" lon="6.57129">
        <ele>1320</ele>
        <time>2018-05-19T18:11:45Z</time>
      </trkpt>
      <trkpt lat="45.74621" lon="6.571">
        <ele>1321</ele>
        <time>2018-05-19T18:12:45Z</time>
      </trkpt>
      <trkpt lat="45.74586" lon="6.57074">
        <ele>1329</ele>
        <time>2018-05-19T18:13:45Z</time>
      </trkpt>
      <trkpt lat="45.74552" lon="6.57051">
        <ele>1324</ele>
        <time>2018-05-19T18:14:45Z</time>
      </trkpt>
      <trkpt lat="45.74527" lon="6.57036">
        <ele>1324</ele>
        <time>2018-05-19T18:15:45Z</time>
      </trkpt>
      <trkpt lat="45.74507" lon="6.57016">
        <ele>1325</ele>
        <time>2018-05-19T18:16:45Z</time>
      </trkpt>
      <trkpt lat="45.7449" lon="6.56992">
        <ele>1326</ele>
        <time>2018-05-19T18:17:45Z</time>
      </trkpt>
      <trkpt lat="45.74475" lon="6.56967">
        <ele>1325</ele>
        <time>2018-05-19T18:18:45Z</time>
      </trkpt>
      <trkpt lat="45.74466" lon="6.56951">
        <ele>1325</ele>
        <time>2018-05-19T18:19:45Z</time>
      </trkpt>
      <trkpt lat="45.74459" lon="6.56934">
        <ele>1326</ele>
        <time>2018-05-19T18:20:45Z</time>
      </trkpt>
      <trkpt lat="45.74457" lon="6.56925">
        <ele>1326</ele>
        <time>2018-05-19T18:21:45Z</time>
      </trkpt>
      <trkpt lat="45.74456" lon="6.56918">
        <ele>1326</ele>
        <time>2018-05-19T18:22:45Z</time>
      </trkpt>
      <trkpt lat="45.74455" lon="6.56908">
        <ele>1334</ele>
        <time>2018-05-19T18:23:45Z</time>
      </trkpt>
      <trkpt lat="45.74455" lon="6.569">
        <ele>1335</ele>
        <time>2018-05-19T18:24:45Z</time>
      </trkpt>
      <trkpt lat="45.74457" lon="6.56892">
        <ele>1335</ele>
        <time>2018-05-19T18:25:45Z</time>
      </trkpt>
      <trkpt lat="45.74459" lon="6.56882">
        <ele>1336</ele>
        <time>2018-05-19T18:26:45Z</time>
      </trkpt>
      <trkpt lat="45.7446" lon="6.56873">
        <ele>1337</ele>
        <time>2018-05-19T18:27:45Z</time>
      </trkpt>
      <trkpt lat="45.74462" lon="6.56863">
        <ele>1338</ele>
        <time>2018-05-19T18:28:45Z</time>
      </trkpt>
      <trkpt lat="45.74464" lon="6.56853">
        <ele>1339</ele>
        <time>2018-05-19T18:29:45Z</time>
      </trkpt>
      <trkpt lat="45.74465" lon="6.56842">
        <ele>1340</ele>
        <time>2018-05-19T18:30:45Z</time>
      </trkpt>
      <trkpt lat="45.74465" lon="6.56832">
        <ele>1345</ele>
        <time>2018-05-19T18:31:45Z</time>
      </trkpt>
      <trkpt lat="45.74465" lon="6.56823">
        <ele>1345</ele>
        <time>2018-05-19T18:32:45Z</time>
      </trkpt>
      <trkpt lat="45.74464" lon="6.56815">
        <ele>1345</ele>
        <time>2018-05-19T18:33:45Z</time>
      </trkpt>
      <trkpt lat="45.74462" lon="6.56804">
        <ele>1345</ele>
        <time>2018-05-19T18:34:45Z</time>
      </trkpt>
      <trkpt lat="45.74456" lon="6.56787">
        <ele>1346</ele>
        <time>2018-05-19T18:35:45Z</time>
      </trkpt>
      <trkpt lat="45.7445" lon="6.56775">
        <ele>1346</ele>
        <time>2018-05-19T18:36:45Z</time>
      </trkpt>
      <trkpt lat="45.74445" lon="6.56765">
        <ele>1346</ele>
        <time>2018-05-19T18:37:45Z</time>
      </trkpt>
      <trkpt lat="45.74439" lon="6.56754">
        <ele>1346</ele>
        <time>2018-05-19T18:38:45Z</time>
      </trkpt>
      <trkpt lat="45.7443" lon="6.56738">
        <ele>1349</ele>
        <time>2018-05-19T18:39:45Z</time>
      </trkpt>
      <trkpt lat="45.74425" lon="6.5673">
        <ele>1350</ele>
        <time>2018-05-19T18:40:45Z</time>
      </trkpt>
      <trkpt lat="45.74414" lon="6.56713">
        <ele>1344</ele>
        <time>2018-05-19T18:41:45Z</time>
      </trkpt>
      <trkpt lat="45.74403" lon="6.56699">
        <ele>1345</ele>
        <time>2018-05-19T18:42:45Z</time>
      </trkpt>
      <trkpt lat="45.74391" lon="6.56683">
        <ele>1345</ele>
        <time>2018-05-19T18:43:45Z</time>
      </trkpt>
      <trkpt lat="45.74379" lon="6.56667">
        <ele>1344</ele>
        <time>2018-05-19T18:44:45Z</time>
      </trkpt>
      <trkpt lat="45.74369" lon="6.56647">
        <ele>1350</ele>
        <time>2018-05-19T18:45:45Z</time>
      </trkpt>
      <trkpt lat="45.7436" lon="6.56623">
        <ele>1352</ele>
        <time>2018-05-19T18:46:45Z</time>
      </trkpt>
      <trkpt lat="45.74353" lon="6.56605">
        <ele>1352</ele>
        <time>2018-05-19T18:47:45Z</time>
      </trkpt>
      <trkpt lat="45.74345" lon="6.56586">
        <ele>1353</ele>
        <time>2018-05-19T18:48:45Z</time>
      </trkpt>
      <trkpt lat="45.74335" lon="6.56564">
        <ele>1358</ele>
        <time>2018-05-19T18:49:45Z</time>
      </trkpt>
      <trkpt lat="45.74319" lon="6.56534">
        <ele>1357</ele>
        <time>2018-05-19T18:50:45Z</time>
      </trkpt>
      <trkpt lat="45.74295" lon="6.56485">
        <ele>1364</ele>
        <time>2018-05-19T18:51:45Z</time>
      </trkpt>
      <trkpt lat="45.74274" lon="6.56439">
        <ele>1365</ele>
        <time>2018-05-19T18:52:45Z</time>
      </trkpt>
      <trkpt lat="45.74267" lon="6.56416">
        <ele>1369</ele>
        <time>2018-05-19T18:53:45Z</time>
      </trkpt>
      <trkpt lat="45.74266" lon="6.56406">
        <ele>1369</ele>
        <time>2018-05-19T18:54:45Z</time>
      </trkpt>
      <trkpt lat="45.74266" lon="6.56398">
        <ele>1369</ele>
        <time>2018-05-19T18:55:45Z</time>
      </trkpt>
      <trkpt lat="45.74267" lon="6.56387">
        <ele>1370</ele>
        <time>2018-05-19T18:56:45Z</time>
      </trkpt>
      <trkpt lat="45.7427" lon="6.56377">
        <ele>1370</ele>
        <time>2018-05-19T18:57:45Z</time>
      </trkpt>
      <trkpt lat="45.74274" lon="6.5637">
        <ele>1370</ele>
        <time>2018-05-19T18:58:45Z</time>
      </trkpt>
      <trkpt lat="45.74278" lon="6.56366">
        <ele>1370</ele>
        <time>2018-05-19T18:59:45Z</time>
      </trkpt>
      <trkpt lat="45.74284" lon="6.56359">
        <ele>1371</ele>
        <time>2018-05-19T19:00:45Z</time>
      </trkpt>
      <trkpt lat="45.74294" lon="6.56351">
        <ele>1371</ele>
        <time>2018-05-19T19:01:45Z</time>
      </trkpt>
      <trkpt lat="45.74318" lon="6.56334">
        <ele>1373</ele>
        <time>2018-05-19T19:02:45Z</time>
      </trkpt>
      <trkpt lat="45.74325" lon="6.56327">
        <ele>1375</ele>
        <time>2018-05-19T19:03:45Z</time>
      </trkpt>
      <trkpt lat="45.74334" lon="6.56314">
        <ele>1384</ele>
        <time>2018-05-19T19:04:45Z</time>
      </trkpt>
      <trkpt lat="45.74337" lon="6.56305">
        <ele>1386</ele>
        <time>2018-05-19T19:05:45Z</time>
      </trkpt>
      <trkpt lat="45.74339" lon="6.56289">
        <ele>1388</ele>
        <time>2018-05-19T19:06:45Z</time>
      </trkpt>
      <trkpt lat="45.74337" lon="6.56266">
        <ele>1388</ele>
        <time>2018-05-19T19:07:45Z</time>
      </trkpt>
      <trkpt lat="45.74332" lon="6.56248">
        <ele>1384</ele>
        <time>2018-05-19T19:08:45Z</time>
      </trkpt>
      <trkpt lat="45.74325" lon="6.56221">
        <ele>1382</ele>
        <time>2018-05-19T19:09:45Z</time>
      </trkpt>
      <trkpt lat="45.74318" lon="6.562">
        <ele>1382</ele>
        <time>2018-05-19T19:10:45Z</time>
      </trkpt>
      <trkpt lat="45.74312" lon="6.56179">
        <ele>1383</ele>
        <time>2018-05-19T19:11:45Z</time>
      </trkpt>
      <trkpt lat="45.74306" lon="6.56154">
        <ele>1387</ele>
        <time>2018-05-19T19:12:45Z</time>
      </trkpt>
      <trkpt lat="45.74303" lon="6.56131">
        <ele>1387</ele>
        <time>2018-05-19T19:13:45Z</time>
      </trkpt>
      <trkpt lat="45.74301" lon="6.56108">
        <ele>1388</ele>
        <time>2018-05-19T19:14:45Z</time>
      </trkpt>
      <trkpt lat="45.74297" lon="6.56087">
        <ele>1389</ele>
        <time>2018-05-19T19:15:45Z</time>
      </trkpt>
      <trkpt lat="45.74294" lon="6.56076">
        <ele>1395</ele>
        <time>2018-05-19T19:16:45Z</time>
      </trkpt>
      <trkpt lat="45.7429" lon="6.56066">
        <ele>1395</ele>
        <time>2018-05-19T19:17:45Z</time>
      </trkpt>
      <trkpt lat="45.74285" lon="6.56057">
        <ele>1395</ele>
        <time>2018-05-19T19:18:45Z</time>
      </trkpt>
      <trkpt lat="45.74275" lon="6.5604">
        <ele>1395</ele>
        <time>2018-05-19T19:19:45Z</time>
      </trkpt>
      <trkpt lat="45.74263" lon="6.56025">
        <ele>1395</ele>
        <time>2018-05-19T19:20:45Z</time>
      </trkpt>
      <trkpt lat="45.74246" lon="6.56004">
        <ele>1392</ele>
        <time>2018-05-19T19:21:45Z</time>
      </trkpt>
      <trkpt lat="45.74235" lon="6.55986">
        <ele>1395</ele>
        <time>2018-05-19T19:22:45Z</time>
      </trkpt>
      <trkpt lat="45.74228" lon="6.55974">
        <ele>1395</ele>
        <time>2018-05-19T19:23:45Z</time>
      </trkpt>
      <trkpt lat="45.74223" lon="6.55963">
        <ele>1396</ele>
        <time>2018-05-19T19:24:45Z</time>
      </trkpt>
      <trkpt lat="45.74216" lon="6.55949">
        <ele>1397</ele>
        <time>2018-05-19T19:25:45Z</time>
      </trkpt>
      <trkpt lat="45.74213" lon="6.55937">
        <ele>1397</ele>
        <time>2018-05-19T19:26:45Z</time>
      </trkpt>
      <trkpt lat="45.74212" lon="6.55924">
        <ele>1398</ele>
        <time>2018-05-19T19:27:45Z</time>
      </trkpt>
      <trkpt lat="45.74213" lon="6.55911">
        <ele>1404</ele>
        <time>2018-05-19T19:28:45Z</time>
      </trkpt>
      <trkpt lat="45.74212" lon="6.55898">
        <ele>1404</ele>
        <time>2018-05-19T19:29:45Z</time>
      </trkpt>
      <trkpt lat="45.74209" lon="6.55883">
        <ele>1405</ele>
        <time>2018-05-19T19:30:45Z</time>
      </trkpt>
      <trkpt lat="45.74207" lon="6.55867">
        <ele>1406</ele>
        <time>2018-05-19T19:31:45Z</time>
      </trkpt>
      <trkpt lat="45.74205" lon="6.55852">
        <ele>1406</ele>
        <time>2018-05-19T19:32:45Z</time>
      </trkpt>
      <trkpt lat="45.74202" lon="6.55836">
        <ele>1406</ele>
        <time>2018-05-19T19:33:45Z</time>
      </trkpt>
      <trkpt lat="45.74197" lon="6.55822">
        <ele>1411</ele>
        <time>2018-05-19T19:34:45Z</time>
      </trkpt>
      <trkpt lat="45.74191" lon="6.55809">
        <ele>1411</ele>
        <time>2018-05-19T19:35:45Z</time>
      </trkpt>
      <trkpt lat="45.74183" lon="6.55793">
        <ele>1411</ele>
        <time>2018-05-19T19:36:45Z</time>
      </trkpt>
      <trkpt lat="45.74176" lon="6.55775">
        <ele>1411</ele>
        <time>2018-05-19T19:37:45Z</time>
      </trkpt>
      <trkpt lat="45.74173" lon="6.55756">
        <ele>1410</ele>
        <time>2018-05-19T19:38:45Z</time>
      </trkpt>
      <trkpt lat="45.7417" lon="6.55724">
        <ele>1418</ele>
        <time>2018-05-19T19:39:45Z</time>
      </trkpt>
      <trkpt lat="45.74169" lon="6.55706">
        <ele>1420</ele>
        <time>2018-05-19T19:40:45Z</time>
      </trkpt>
      <trkpt lat="45.74167" lon="6.55692">
        <ele>1421</ele>
        <time>2018-05-19T19:41:45Z</time>
      </trkpt>
      <trkpt lat="45.74166" lon="6.55684">
        <ele>1414</ele>
        <time>2018-05-19T19:42:45Z</time>
      </trkpt>
      <trkpt lat="45.74165" lon="6.55676">
        <ele>1415</ele>
        <time>2018-05-19T19:43:45Z</time>
      </trkpt>
      <trkpt lat="45.74163" lon="6.55669">
        <ele>1417</ele>
        <time>2018-05-19T19:44:45Z</time>
      </trkpt>
      <trkpt lat="45.74161" lon="6.55663">
        <ele>1418</ele>
        <time>2018-05-19T19:45:45Z</time>
      </trkpt>
      <trkpt lat="45.74159" lon="6.55658">
        <ele>1417</ele>
        <time>2018-05-19T19:46:45Z</time>
      </trkpt>
      <trkpt lat="45.74157" lon="6.55652">
        <ele>1417</ele>
        <time>2018-05-19T19:47:45Z</time>
      </trkpt>
      <trkpt lat="45.74157" lon="6.55647">
        <ele>1417</ele>
        <time>2018-05-19T19:48:45Z</time>
      </trkpt>
      <trkpt lat="45.74157" lon="6.55643">
        <ele>1417</ele>
        <time>2018-05-19T19:49:45Z</time>
      </trkpt>
      <trkpt lat="45.74159" lon="6.55639">
        <ele>1418</ele>
        <time>2018-05-19T19:50:45Z</time>
      </trkpt>
      <trkpt lat="45.74161" lon="6.55636">
        <ele>1418</ele>
        <time>2018-05-19T19:51:45Z</time>
      </trkpt>
      <trkpt lat="45.74164" lon="6.55635">
        <ele>1418</ele>
        <time>2018-05-19T19:52:45Z</time>
      </trkpt>
      <trkpt lat="45.74167" lon="6.55635">
        <ele>1429</ele>
        <time>2018-05-19T19:53:45Z</time>
      </trkpt>
      <trkpt lat="45.7417" lon="6.55636">
        <ele>1429</ele>
        <time>2018-05-19T19:54:45Z</time>
      </trkpt>
      <trkpt lat="45.74173" lon="6.55639">
        <ele>1428</ele>
        <time>2018-05-19T19:55:45Z</time>
      </trkpt>
      <trkpt lat="45.74176" lon="6.55643">
        <ele>1428</ele>
        <time>2018-05-19T19:56:45Z</time>
      </trkpt>
      <trkpt lat="45.74178" lon="6.55649">
        <ele>1427</ele>
        <time>2018-05-19T19:57:45Z</time>
      </trkpt>
      <trkpt lat="45.74186" lon="6.55677">
        <ele>1422</ele>
        <time>2018-05-19T19:58:45Z</time>
      </trkpt>
      <trkpt lat="45.7419" lon="6.5569">
        <ele>1423</ele>
        <time>2018-05-19T19:59:45Z</time>
      </trkpt>
      <trkpt lat="45.74194" lon="6.55702">
        <ele>1423</ele>
        <time>2018-05-19T20:00:45Z</time>
      </trkpt>
      <trkpt lat="45.74198" lon="6.55711">
        <ele>1423</ele>
        <time>2018-05-19T20:01:45Z</time>
      </trkpt>
      <trkpt lat="45.74207" lon="6.55728">
        <ele>1423</ele>
        <time>2018-05-19T20:02:45Z</time>
      </trkpt>
      <trkpt lat="45.74212" lon="6.55735">
        <ele>1423</ele>
        <time>2018-05-19T20:03:45Z</time>
      </trkpt>
      <trkpt lat="45.74217" lon="6.55743">
        <ele>1424</ele>
        <time>2018-05-19T20:04:45Z</time>
      </trkpt>
      <trkpt lat="45.74223" lon="6.55749">
        <ele>1424</ele>
        <time>2018-05-19T20:05:45Z</time>
      </trkpt>
      <trkpt lat="45.74229" lon="6.55754">
        <ele>1420</ele>
        <time>2018-05-19T20:06:45Z</time>
      </trkpt>
      <trkpt lat="45.74234" lon="6.55758">
        <ele>1421</ele>
        <time>2018-05-19T20:07:45Z</time>
      </trkpt>
      <trkpt lat="45.74241" lon="6.55762">
        <ele>1422</ele>
        <time>2018-05-19T20:08:45Z</time>
      </trkpt>
      <trkpt lat="45.74248" lon="6.55766">
        <ele>1421</ele>
        <time>2018-05-19T20:09:45Z</time>
      </trkpt>
      <trkpt lat="45.74254" lon="6.55769">
        <ele>1430</ele>
        <time>2018-05-19T20:10:45Z</time>
      </trkpt>
      <trkpt lat="45.7426" lon="6.55774">
        <ele>1430</ele>
        <time>2018-05-19T20:11:45Z</time>
      </trkpt>
      <trkpt lat="45.74265" lon="6.5578">
        <ele>1430</ele>
        <time>2018-05-19T20:12:45Z</time>
      </trkpt>
      <trkpt lat="45.7427" lon="6.55785">
        <ele>1430</ele>
        <time>2018-05-19T20:13:45Z</time>
      </trkpt>
      <trkpt lat="45.74281" lon="6.55796">
        <ele>1431</ele>
        <time>2018-05-19T20:14:45Z</time>
      </trkpt>
      <trkpt lat="45.74293" lon="6.55803">
        <ele>1432</ele>
        <time>2018-05-19T20:15:45Z</time>
      </trkpt>
      <trkpt lat="45.74299" lon="6.55805">
        <ele>1432</ele>
        <time>2018-05-19T20:16:45Z</time>
      </trkpt>
      <trkpt lat="45.74326" lon="6.5581">
        <ele>1434</ele>
        <time>2018-05-19T20:17:45Z</time>
      </trkpt>
      <trkpt lat="45.7434" lon="6.55812">
        <ele>1445</ele>
        <time>2018-05-19T20:18:45Z</time>
      </trkpt>
      <trkpt lat="45.74347" lon="6.55814">
        <ele>1445</ele>
        <time>2018-05-19T20:19:45Z</time>
      </trkpt>
      <trkpt lat="45.74359" lon="6.55819">
        <ele>1447</ele>
        <time>2018-05-19T20:20:45Z</time>
      </trkpt>
      <trkpt lat="45.74365" lon="6.55823">
        <ele>1448</ele>
        <time>2018-05-19T20:21:45Z</time>
      </trkpt>
      <trkpt lat="45.74369" lon="6.55828">
        <ele>1448</ele>
        <time>2018-05-19T20:22:45Z</time>
      </trkpt>
      <trkpt lat="45.74374" lon="6.55834">
        <ele>1441</ele>
        <time>2018-05-19T20:23:45Z</time>
      </trkpt>
      <trkpt lat="45.74381" lon="6.55849">
        <ele>1442</ele>
        <time>2018-05-19T20:24:45Z</time>
      </trkpt>
      <trkpt lat="45.74392" lon="6.55887">
        <ele>1440</ele>
        <time>2018-05-19T20:25:45Z</time>
      </trkpt>
      <trkpt lat="45.74403" lon="6.55921">
        <ele>1436</ele>
        <time>2018-05-19T20:26:45Z</time>
      </trkpt>
      <trkpt lat="45.74408" lon="6.5593">
        <ele>1436</ele>
        <time>2018-05-19T20:27:45Z</time>
      </trkpt>
      <trkpt lat="45.74411" lon="6.55933">
        <ele>1436</ele>
        <time>2018-05-19T20:28:45Z</time>
      </trkpt>
      <trkpt lat="45.74413" lon="6.55935">
        <ele>1435</ele>
        <time>2018-05-19T20:29:45Z</time>
      </trkpt>
      <trkpt lat="45.74416" lon="6.55936">
        <ele>1435</ele>
        <time>2018-05-19T20:30:45Z</time>
      </trkpt>
      <trkpt lat="45.74418" lon="6.55935">
        <ele>1443</ele>
        <time>2018-05-19T20:31:45Z</time>
      </trkpt>
      <trkpt lat="45.74418" lon="6.55935">
        <ele>1443</ele>
        <time>2018-05-19T20:32:45Z</time>
      </trkpt>
      <trkpt lat="45.7442" lon="6.55933">
        <ele>1444</ele>
        <time>2018-05-19T20:33:45Z</time>
      </trkpt>
      <trkpt lat="45.74422" lon="6.55929">
        <ele>1444</ele>
        <time>2018-05-19T20:34:45Z</time>
      </trkpt>
      <trkpt lat="45.74422" lon="6.55926">
        <ele>1444</ele>
        <time>2018-05-19T20:35:45Z</time>
      </trkpt>
      <trkpt lat="45.74422" lon="6.55923">
        <ele>1443</ele>
        <time>2018-05-19T20:36:45Z</time>
      </trkpt>
      <trkpt lat="45.74421" lon="6.5592">
        <ele>1443</ele>
        <time>2018-05-19T20:37:45Z</time>
      </trkpt>
      <trkpt lat="45.7442" lon="6.55916">
        <ele>1445</ele>
        <time>2018-05-19T20:38:45Z</time>
      </trkpt>
      <trkpt lat="45.74417" lon="6.55912">
        <ele>1445</ele>
        <time>2018-05-19T20:39:45Z</time>
      </trkpt>
      <trkpt lat="45.74411" lon="6.55905">
        <ele>1442</ele>
        <time>2018-05-19T20:40:45Z</time>
      </trkpt>
      <trkpt lat="45.74405" lon="6.55894">
        <ele>1441</ele>
        <time>2018-05-19T20:41:45Z</time>
      </trkpt>
      <trkpt lat="45.74403" lon="6.55887">
        <ele>1441</ele>
        <time>2018-05-19T20:42:45Z</time>
      </trkpt>
      <trkpt lat="45.74401" lon="6.55879">
        <ele>1442</ele>
        <time>2018-05-19T20:43:45Z</time>
      </trkpt>
      <trkpt lat="45.744" lon="6.55871">
        <ele>1442</ele>
        <time>2018-05-19T20:44:45Z</time>
      </trkpt>
      <trkpt lat="45.744" lon="6.55854">
        <ele>1445</ele>
        <time>2018-05-19T20:45:45Z</time>
      </trkpt>
      <trkpt lat="45.74401" lon="6.55838">
        <ele>1447</ele>
        <time>2018-05-19T20:46:45Z</time>
      </trkpt>
      <trkpt lat="45.74402" lon="6.55829">
        <ele>1453</ele>
        <time>2018-05-19T20:47:45Z</time>
      </trkpt>
      <trkpt lat="45.74402" lon="6.55821">
        <ele>1453</ele>
        <time>2018-05-19T20:48:45Z</time>
      </trkpt>
      <trkpt lat="45.74401" lon="6.55813">
        <ele>1453</ele>
        <time>2018-05-19T20:49:45Z</time>
      </trkpt>
      <trkpt lat="45.744" lon="6.55805">
        <ele>1453</ele>
        <time>2018-05-19T20:50:45Z</time>
      </trkpt>
      <trkpt lat="45.74397" lon="6.55797">
        <ele>1454</ele>
        <time>2018-05-19T20:51:45Z</time>
      </trkpt>
      <trkpt lat="45.74394" lon="6.5579">
        <ele>1454</ele>
        <time>2018-05-19T20:52:45Z</time>
      </trkpt>
      <trkpt lat="45.74391" lon="6.55782">
        <ele>1455</ele>
        <time>2018-05-19T20:53:45Z</time>
      </trkpt>
      <trkpt lat="45.74383" lon="6.55768">
        <ele>1455</ele>
        <time>2018-05-19T20:54:45Z</time>
      </trkpt>
      <trkpt lat="45.74378" lon="6.55761">
        <ele>1454</ele>
        <time>2018-05-19T20:55:45Z</time>
      </trkpt>
      <trkpt lat="45.74374" lon="6.55753">
        <ele>1454</ele>
        <time>2018-05-19T20:56:45Z</time>
      </trkpt>
      <trkpt lat="45.74371" lon="6.55744">
        <ele>1462</ele>
        <time>2018-05-19T20:57:45Z</time>
      </trkpt>
      <trkpt lat="45.74368" lon="6.55736">
        <ele>1462</ele>
        <time>2018-05-19T20:58:45Z</time>
      </trkpt>
      <trkpt lat="45.74365" lon="6.55728">
        <ele>1462</ele>
        <time>2018-05-19T20:59:45Z</time>
      </trkpt>
      <trkpt lat="45.74363" lon="6.55718">
        <ele>1463</ele>
        <time>2018-05-19T21:00:45Z</time>
      </trkpt>
      <trkpt lat="45.7436" lon="6.55709">
        <ele>1464</ele>
        <time>2018-05-19T21:01:45Z</time>
      </trkpt>
      <trkpt lat="45.74357" lon="6.557">
        <ele>1464</ele>
        <time>2018-05-19T21:02:45Z</time>
      </trkpt>
      <trkpt lat="45.74353" lon="6.55693">
        <ele>1464</ele>
        <time>2018-05-19T21:03:45Z</time>
      </trkpt>
      <trkpt lat="45.74349" lon="6.55686">
        <ele>1464</ele>
        <time>2018-05-19T21:04:45Z</time>
      </trkpt>
      <trkpt lat="45.74346" lon="6.55681">
        <ele>1464</ele>
        <time>2018-05-19T21:05:45Z</time>
      </trkpt>
      <trkpt lat="45.74341" lon="6.55674">
        <ele>1464</ele>
        <time>2018-05-19T21:06:45Z</time>
      </trkpt>
      <trkpt lat="45.74335" lon="6.55665">
        <ele>1464</ele>
        <time>2018-05-19T21:07:45Z</time>
      </trkpt>
      <trkpt lat="45.74329" lon="6.55654">
        <ele>1461</ele>
        <time>2018-05-19T21:08:45Z</time>
      </trkpt>
      <trkpt lat="45.74326" lon="6.55647">
        <ele>1461</ele>
        <time>2018-05-19T21:09:45Z</time>
      </trkpt>
      <trkpt lat="45.74323" lon="6.5564">
        <ele>1460</ele>
        <time>2018-05-19T21:10:45Z</time>
      </trkpt>
      <trkpt lat="45.74321" lon="6.55632">
        <ele>1460</ele>
        <time>2018-05-19T21:11:45Z</time>
      </trkpt>
      <trkpt lat="45.7432" lon="6.55623">
        <ele>1461</ele>
        <time>2018-05-19T21:12:45Z</time>
      </trkpt>
      <trkpt lat="45.74319" lon="6.55615">
        <ele>1462</ele>
        <time>2018-05-19T21:13:45Z</time>
      </trkpt>
      <trkpt lat="45.74318" lon="6.55596">
        <ele>1465</ele>
        <time>2018-05-19T21:14:45Z</time>
      </trkpt>
      <trkpt lat="45.74317" lon="6.55586">
        <ele>1466</ele>
        <time>2018-05-19T21:15:45Z</time>
      </trkpt>
      <trkpt lat="45.74316" lon="6.55565">
        <ele>1468</ele>
        <time>2018-05-19T21:16:45Z</time>
      </trkpt>
      <trkpt lat="45.74314" lon="6.55555">
        <ele>1468</ele>
        <time>2018-05-19T21:17:45Z</time>
      </trkpt>
      <trkpt lat="45.74313" lon="6.55545">
        <ele>1468</ele>
        <time>2018-05-19T21:18:45Z</time>
      </trkpt>
      <trkpt lat="45.74311" lon="6.55535">
        <ele>1468</ele>
        <time>2018-05-19T21:19:45Z</time>
      </trkpt>
      <trkpt lat="45.74307" lon="6.55521">
        <ele>1469</ele>
        <time>2018-05-19T21:20:45Z</time>
      </trkpt>
      <trkpt lat="45.743" lon="6.55495">
        <ele>1472</ele>
        <time>2018-05-19T21:21:45Z</time>
      </trkpt>
      <trkpt lat="45.74299" lon="6.55486">
        <ele>1472</ele>
        <time>2018-05-19T21:22:45Z</time>
      </trkpt>
      <trkpt lat="45.74297" lon="6.55474">
        <ele>1472</ele>
        <time>2018-05-19T21:23:45Z</time>
      </trkpt>
      <trkpt lat="45.74296" lon="6.55464">
        <ele>1472</ele>
        <time>2018-05-19T21:24:45Z</time>
      </trkpt>
      <trkpt lat="45.74296" lon="6.55454">
        <ele>1472</ele>
        <time>2018-05-19T21:25:45Z</time>
      </trkpt>
      <trkpt lat="45.74297" lon="6.5544">
        <ele>1472</ele>
        <time>2018-05-19T21:26:45Z</time>
      </trkpt>
      <trkpt lat="45.743" lon="6.55425">
        <ele>1473</ele>
        <time>2018-05-19T21:27:45Z</time>
      </trkpt>
      <trkpt lat="45.74304" lon="6.55397">
        <ele>1476</ele>
        <time>2018-05-19T21:28:45Z</time>
      </trkpt>
      <trkpt lat="45.74307" lon="6.55383">
        <ele>1477</ele>
        <time>2018-05-19T21:29:45Z</time>
      </trkpt>
      <trkpt lat="45.74313" lon="6.55354">
        <ele>1478</ele>
        <time>2018-05-19T21:30:45Z</time>
      </trkpt>
      <trkpt lat="45.74315" lon="6.55344">
        <ele>1479</ele>
        <time>2018-05-19T21:31:45Z</time>
      </trkpt>
      <trkpt lat="45.74316" lon="6.55333">
        <ele>1483</ele>
        <time>2018-05-19T21:32:45Z</time>
      </trkpt>
      <trkpt lat="45.74317" lon="6.55322">
        <ele>1483</ele>
        <time>2018-05-19T21:33:45Z</time>
      </trkpt>
      <trkpt lat="45.74317" lon="6.55313">
        <ele>1483</ele>
        <time>2018-05-19T21:34:45Z</time>
      </trkpt>
      <trkpt lat="45.74316" lon="6.55302">
        <ele>1483</ele>
        <time>2018-05-19T21:35:45Z</time>
      </trkpt>
      <trkpt lat="45.74315" lon="6.55292">
        <ele>1483</ele>
        <time>2018-05-19T21:36:45Z</time>
      </trkpt>
      <trkpt lat="45.74311" lon="6.55273">
        <ele>1484</ele>
        <time>2018-05-19T21:37:45Z</time>
      </trkpt>
      <trkpt lat="45.74302" lon="6.55233">
        <ele>1487</ele>
        <time>2018-05-19T21:38:45Z</time>
      </trkpt>
      <trkpt lat="45.74298" lon="6.55213">
        <ele>1487</ele>
        <time>2018-05-19T21:39:45Z</time>
      </trkpt>
      <trkpt lat="45.74294" lon="6.55193">
        <ele>1487</ele>
        <time>2018-05-19T21:40:45Z</time>
      </trkpt>
      <trkpt lat="45.74293" lon="6.55184">
        <ele>1487</ele>
        <time>2018-05-19T21:41:45Z</time>
      </trkpt>
      <trkpt lat="45.74294" lon="6.55175">
        <ele>1488</ele>
        <time>2018-05-19T21:42:45Z</time>
      </trkpt>
      <trkpt lat="45.74294" lon="6.55166">
        <ele>1490</ele>
        <time>2018-05-19T21:43:45Z</time>
      </trkpt>
      <trkpt lat="45.74297" lon="6.5515">
        <ele>1490</ele>
        <time>2018-05-19T21:44:45Z</time>
      </trkpt>
      <trkpt lat="45.74303" lon="6.5512">
        <ele>1491</ele>
        <time>2018-05-19T21:45:45Z</time>
      </trkpt>
      <trkpt lat="45.74308" lon="6.55102">
        <ele>1491</ele>
        <time>2018-05-19T21:46:45Z</time>
      </trkpt>
      <trkpt lat="45.74315" lon="6.55086">
        <ele>1493</ele>
        <time>2018-05-19T21:47:45Z</time>
      </trkpt>
      <trkpt lat="45.74322" lon="6.55075">
        <ele>1495</ele>
        <time>2018-05-19T21:48:45Z</time>
      </trkpt>
      <trkpt lat="45.74328" lon="6.55067">
        <ele>1495</ele>
        <time>2018-05-19T21:49:45Z</time>
      </trkpt>
      <trkpt lat="45.74344" lon="6.55047">
        <ele>1503</ele>
        <time>2018-05-19T21:50:45Z</time>
      </trkpt>
      <trkpt lat="45.74372" lon="6.55012">
        <ele>1506</ele>
        <time>2018-05-19T21:51:45Z</time>
      </trkpt>
      <trkpt lat="45.74402" lon="6.54976">
        <ele>1511</ele>
        <time>2018-05-19T21:52:45Z</time>
      </trkpt>
      <trkpt lat="45.74426" lon="6.54946">
        <ele>1515</ele>
        <time>2018-05-19T21:53:45Z</time>
      </trkpt>
      <trkpt lat="45.74439" lon="6.54932">
        <ele>1515</ele>
        <time>2018-05-19T21:54:45Z</time>
      </trkpt>
      <trkpt lat="45.74443" lon="6.54929">
        <ele>1515</ele>
        <time>2018-05-19T21:55:45Z</time>
      </trkpt>
      <trkpt lat="45.74451" lon="6.54925">
        <ele>1516</ele>
        <time>2018-05-19T21:56:45Z</time>
      </trkpt>
      <trkpt lat="45.74456" lon="6.54924">
        <ele>1516</ele>
        <time>2018-05-19T21:57:45Z</time>
      </trkpt>
      <trkpt lat="45.74465" lon="6.54922">
        <ele>1516</ele>
        <time>2018-05-19T21:58:45Z</time>
      </trkpt>
      <trkpt lat="45.74474" lon="6.54923">
        <ele>1516</ele>
        <time>2018-05-19T21:59:45Z</time>
      </trkpt>
      <trkpt lat="45.74484" lon="6.54926">
        <ele>1516</ele>
        <time>2018-05-19T22:00:45Z</time>
      </trkpt>
      <trkpt lat="45.74495" lon="6.54933">
        <ele>1516</ele>
        <time>2018-05-19T22:01:45Z</time>
      </trkpt>
      <trkpt lat="45.74502" lon="6.54937">
        <ele>1519</ele>
        <time>2018-05-19T22:02:45Z</time>
      </trkpt>
      <trkpt lat="45.74509" lon="6.54945">
        <ele>1519</ele>
        <time>2018-05-19T22:03:45Z</time>
      </trkpt>
      <trkpt lat="45.74514" lon="6.5495">
        <ele>1520</ele>
        <time>2018-05-19T22:04:45Z</time>
      </trkpt>
      <trkpt lat="45.7452" lon="6.54954">
        <ele>1520</ele>
        <time>2018-05-19T22:05:45Z</time>
      </trkpt>
      <trkpt lat="45.74525" lon="6.54956">
        <ele>1520</ele>
        <time>2018-05-19T22:06:45Z</time>
      </trkpt>
      <trkpt lat="45.74531" lon="6.54957">
        <ele>1520</ele>
        <time>2018-05-19T22:07:45Z</time>
      </trkpt>
      <trkpt lat="45.74537" lon="6.54956">
        <ele>1521</ele>
        <time>2018-05-19T22:08:45Z</time>
      </trkpt>
      <trkpt lat="45.74556" lon="6.54949">
        <ele>1521</ele>
        <time>2018-05-19T22:09:45Z</time>
      </trkpt>
      <trkpt lat="45.74577" lon="6.54938">
        <ele>1522</ele>
        <time>2018-05-19T22:10:45Z</time>
      </trkpt>
      <trkpt lat="45.74601" lon="6.54925">
        <ele>1525</ele>
        <time>2018-05-19T22:11:45Z</time>
      </trkpt>
      <trkpt lat="45.74624" lon="6.54915">
        <ele>1525</ele>
        <time>2018-05-19T22:12:45Z</time>
      </trkpt>
      <trkpt lat="45.74641" lon="6.54911">
        <ele>1526</ele>
        <time>2018-05-19T22:13:45Z</time>
      </trkpt>
      <trkpt lat="45.74649" lon="6.54909">
        <ele>1526</ele>
        <time>2018-05-19T22:14:45Z</time>
      </trkpt>
      <trkpt lat="45.74667" lon="6.54907">
        <ele>1530</ele>
        <time>2018-05-19T22:15:45Z</time>
      </trkpt>
      <trkpt lat="45.74684" lon="6.54904">
        <ele>1531</ele>
        <time>2018-05-19T22:16:45Z</time>
      </trkpt>
      <trkpt lat="45.74699" lon="6.549">
        <ele>1533</ele>
        <time>2018-05-19T22:17:45Z</time>
      </trkpt>
      <trkpt lat="45.74711" lon="6.54891">
        <ele>1534</ele>
        <time>2018-05-19T22:18:45Z</time>
      </trkpt>
      <trkpt lat="45.74717" lon="6.54886">
        <ele>1534</ele>
        <time>2018-05-19T22:19:45Z</time>
      </trkpt>
      <trkpt lat="45.74722" lon="6.54879">
        <ele>1534</ele>
        <time>2018-05-19T22:20:45Z</time>
      </trkpt>
      <trkpt lat="45.74727" lon="6.54872">
        <ele>1535</ele>
        <time>2018-05-19T22:21:45Z</time>
      </trkpt>
      <trkpt lat="45.74731" lon="6.54864">
        <ele>1535</ele>
        <time>2018-05-19T22:22:45Z</time>
      </trkpt>
      <trkpt lat="45.74735" lon="6.54856">
        <ele>1536</ele>
        <time>2018-05-19T22:23:45Z</time>
      </trkpt>
      <trkpt lat="45.74738" lon="6.54848">
        <ele>1537</ele>
        <time>2018-05-19T22:24:45Z</time>
      </trkpt>
      <trkpt lat="45.7474" lon="6.54839">
        <ele>1538</ele>
        <time>2018-05-19T22:25:45Z</time>
      </trkpt>
      <trkpt lat="45.74742" lon="6.5483">
        <ele>1538</ele>
        <time>2018-05-19T22:26:45Z</time>
      </trkpt>
      <trkpt lat="45.74743" lon="6.54821">
        <ele>1537</ele>
        <time>2018-05-19T22:27:45Z</time>
      </trkpt>
      <trkpt lat="45.74744" lon="6.54812">
        <ele>1536</ele>
        <time>2018-05-19T22:28:45Z</time>
      </trkpt>
      <trkpt lat="45.74746" lon="6.54803">
        <ele>1536</ele>
        <time>2018-05-19T22:29:45Z</time>
      </trkpt>
      <trkpt lat="45.74748" lon="6.54795">
        <ele>1535</ele>
        <time>2018-05-19T22:30:45Z</time>
      </trkpt>
      <trkpt lat="45.74751" lon="6.54787">
        <ele>1543</ele>
        <time>2018-05-19T22:31:45Z</time>
      </trkpt>
      <trkpt lat="45.74754" lon="6.5478">
        <ele>1543</ele>
        <time>2018-05-19T22:32:45Z</time>
      </trkpt>
      <trkpt lat="45.74763" lon="6.54769">
        <ele>1542</ele>
        <time>2018-05-19T22:33:45Z</time>
      </trkpt>
      <trkpt lat="45.74773" lon="6.5476">
        <ele>1543</ele>
        <time>2018-05-19T22:34:45Z</time>
      </trkpt>
      <trkpt lat="45.74779" lon="6.54756">
        <ele>1543</ele>
        <time>2018-05-19T22:35:45Z</time>
      </trkpt>
      <trkpt lat="45.74785" lon="6.54753">
        <ele>1544</ele>
        <time>2018-05-19T22:36:45Z</time>
      </trkpt>
      <trkpt lat="45.74797" lon="6.54749">
        <ele>1543</ele>
        <time>2018-05-19T22:37:45Z</time>
      </trkpt>
      <trkpt lat="45.74806" lon="6.54747">
        <ele>1544</ele>
        <time>2018-05-19T22:38:45Z</time>
      </trkpt>
      <trkpt lat="45.74809" lon="6.54747">
        <ele>1544</ele>
        <time>2018-05-19T22:39:45Z</time>
      </trkpt>
      <trkpt lat="45.74817" lon="6.54749">
        <ele>1545</ele>
        <time>2018-05-19T22:40:45Z</time>
      </trkpt>
      <trkpt lat="45.74822" lon="6.54751">
        <ele>1547</ele>
        <time>2018-05-19T22:41:45Z</time>
      </trkpt>
      <trkpt lat="45.74829" lon="6.54755">
        <ele>1548</ele>
        <time>2018-05-19T22:42:45Z</time>
      </trkpt>
      <trkpt lat="45.74834" lon="6.54757">
        <ele>1550</ele>
        <time>2018-05-19T22:43:45Z</time>
      </trkpt>
      <trkpt lat="45.74839" lon="6.5476">
        <ele>1551</ele>
        <time>2018-05-19T22:44:45Z</time>
      </trkpt>
      <trkpt lat="45.7485" lon="6.54766">
        <ele>1552</ele>
        <time>2018-05-19T22:45:45Z</time>
      </trkpt>
      <trkpt lat="45.7486" lon="6.54769">
        <ele>1552</ele>
        <time>2018-05-19T22:46:45Z</time>
      </trkpt>
      <trkpt lat="45.7487" lon="6.54771">
        <ele>1553</ele>
        <time>2018-05-19T22:47:45Z</time>
      </trkpt>
      <trkpt lat="45.74885" lon="6.54768">
        <ele>1553</ele>
        <time>2018-05-19T22:48:45Z</time>
      </trkpt>
      <trkpt lat="45.74898" lon="6.54765">
        <ele>1554</ele>
        <time>2018-05-19T22:49:45Z</time>
      </trkpt>
      <trkpt lat="45.74904" lon="6.54766">
        <ele>1554</ele>
        <time>2018-05-19T22:50:45Z</time>
      </trkpt>
      <trkpt lat="45.74912" lon="6.54766">
        <ele>1554</ele>
        <time>2018-05-19T22:51:45Z</time>
      </trkpt>
      <trkpt lat="45.7494" lon="6.54761">
        <ele>1558</ele>
        <time>2018-05-19T22:52:45Z</time>
      </trkpt>
      <trkpt lat="45.74955" lon="6.54757">
        <ele>1559</ele>
        <time>2018-05-19T22:53:45Z</time>
      </trkpt>
      <trkpt lat="45.74962" lon="6.54755">
        <ele>1560</ele>
        <time>2018-05-19T22:54:45Z</time>
      </trkpt>
      <trkpt lat="45.74991" lon="6.54748">
        <ele>1561</ele>
        <time>2018-05-19T22:55:45Z</time>
      </trkpt>
      <trkpt lat="45.7501" lon="6.54743">
        <ele>1563</ele>
        <time>2018-05-19T22:56:45Z</time>
      </trkpt>
      <trkpt lat="45.75019" lon="6.54737">
        <ele>1564</ele>
        <time>2018-05-19T22:57:45Z</time>
      </trkpt>
      <trkpt lat="45.75047" lon="6.54732">
        <ele>1565</ele>
        <time>2018-05-19T22:58:45Z</time>
      </trkpt>
      <trkpt lat="45.75064" lon="6.54727">
        <ele>1566</ele>
        <time>2018-05-19T22:59:45Z</time>
      </trkpt>
      <trkpt lat="45.75097" lon="6.54715">
        <ele>1571</ele>
        <time>2018-05-19T23:00:45Z</time>
      </trkpt>
      <trkpt lat="45.75133" lon="6.54701">
        <ele>1572</ele>
        <time>2018-05-19T23:01:45Z</time>
      </trkpt>
      <trkpt lat="45.75169" lon="6.54687">
        <ele>1576</ele>
        <time>2018-05-19T23:02:45Z</time>
      </trkpt>
      <trkpt lat="45.75204" lon="6.54672">
        <ele>1578</ele>
        <time>2018-05-19T23:03:45Z</time>
      </trkpt>
      <trkpt lat="45.75231" lon="6.54658">
        <ele>1576</ele>
        <time>2018-05-19T23:04:45Z</time>
      </trkpt>
      <trkpt lat="45.75257" lon="6.54646">
        <ele>1581</ele>
        <time>2018-05-19T23:05:45Z</time>
      </trkpt>
      <trkpt lat="45.75271" lon="6.54641">
        <ele>1582</ele>
        <time>2018-05-19T23:06:45Z</time>
      </trkpt>
      <trkpt lat="45.75283" lon="6.54639">
        <ele>1582</ele>
        <time>2018-05-19T23:07:45Z</time>
      </trkpt>
      <trkpt lat="45.75288" lon="6.54639">
        <ele>1583</ele>
        <time>2018-05-19T23:08:45Z</time>
      </trkpt>
      <trkpt lat="45.75297" lon="6.54639">
        <ele>1583</ele>
        <time>2018-05-19T23:09:45Z</time>
      </trkpt>
      <trkpt lat="45.75304" lon="6.54637">
        <ele>1584</ele>
        <time>2018-05-19T23:10:45Z</time>
      </trkpt>
      <trkpt lat="45.75311" lon="6.54635">
        <ele>1584</ele>
        <time>2018-05-19T23:11:45Z</time>
      </trkpt>
      <trkpt lat="45.75315" lon="6.54633">
        <ele>1584</ele>
        <time>2018-05-19T23:12:45Z</time>
      </trkpt>
      <trkpt lat="45.75324" lon="6.54627">
        <ele>1584</ele>
        <time>2018-05-19T23:13:45Z</time>
      </trkpt>
      <trkpt lat="45.75333" lon="6.54621">
        <ele>1584</ele>
        <time>2018-05-19T23:14:45Z</time>
      </trkpt>
      <trkpt lat="45.75348" lon="6.54612">
        <ele>1590</ele>
        <time>2018-05-19T23:15:45Z</time>
      </trkpt>
      <trkpt lat="45.75359" lon="6.54605">
        <ele>1590</ele>
        <time>2018-05-19T23:16:45Z</time>
      </trkpt>
      <trkpt lat="45.75369" lon="6.54599">
        <ele>1591</ele>
        <time>2018-05-19T23:17:45Z</time>
      </trkpt>
      <trkpt lat="45.75376" lon="6.54596">
        <ele>1591</ele>
        <time>2018-05-19T23:18:45Z</time>
      </trkpt>
      <trkpt lat="45.75385" lon="6.54592">
        <ele>1591</ele>
        <time>2018-05-19T23:19:45Z</time>
      </trkpt>
      <trkpt lat="45.75392" lon="6.54591">
        <ele>1591</ele>
        <time>2018-05-19T23:20:45Z</time>
      </trkpt>
      <trkpt lat="45.75398" lon="6.5459">
        <ele>1591</ele>
        <time>2018-05-19T23:21:45Z</time>
      </trkpt>
      <trkpt lat="45.75411" lon="6.54591">
        <ele>1591</ele>
        <time>2018-05-19T23:22:45Z</time>
      </trkpt>
      <trkpt lat="45.75417" lon="6.54592">
        <ele>1595</ele>
        <time>2018-05-19T23:23:45Z</time>
      </trkpt>
      <trkpt lat="45.75423" lon="6.54592">
        <ele>1596</ele>
        <time>2018-05-19T23:24:45Z</time>
      </trkpt>
      <trkpt lat="45.75431" lon="6.54592">
        <ele>1599</ele>
        <time>2018-05-19T23:25:45Z</time>
      </trkpt>
      <trkpt lat="45.75437" lon="6.5459">
        <ele>1601</ele>
        <time>2018-05-19T23:26:45Z</time>
      </trkpt>
      <trkpt lat="45.75444" lon="6.54587">
        <ele>1602</ele>
        <time>2018-05-19T23:27:45Z</time>
      </trkpt>
      <trkpt lat="45.75451" lon="6.54584">
        <ele>1604</ele>
        <time>2018-05-19T23:28:45Z</time>
      </trkpt>
      <trkpt lat="45.75457" lon="6.5458">
        <ele>1597</ele>
        <time>2018-05-19T23:29:45Z</time>
      </trkpt>
      <trkpt lat="45.75464" lon="6.54575">
        <ele>1599</ele>
        <time>2018-05-19T23:30:45Z</time>
      </trkpt>
      <trkpt lat="45.7547" lon="6.5457">
        <ele>1599</ele>
        <time>2018-05-19T23:31:45Z</time>
      </trkpt>
      <trkpt lat="45.7548" lon="6.54559">
        <ele>1600</ele>
        <time>2018-05-19T23:32:45Z</time>
      </trkpt>
      <trkpt lat="45.75489" lon="6.5455">
        <ele>1600</ele>
        <time>2018-05-19T23:33:45Z</time>
      </trkpt>
      <trkpt lat="45.75492" lon="6.54546">
        <ele>1600</ele>
        <time>2018-05-19T23:34:45Z</time>
      </trkpt>
      <trkpt lat="45.75495" lon="6.54542">
        <ele>1599</ele>
        <time>2018-05-19T23:35:45Z</time>
      </trkpt>
      <trkpt lat="45.75499" lon="6.54536">
        <ele>1599</ele>
        <time>2018-05-19T23:36:45Z</time>
      </trkpt>
      <trkpt lat="45.75502" lon="6.54532">
        <ele>1611</ele>
        <time>2018-05-19T23:37:45Z</time>
      </trkpt>
      <trkpt lat="45.75506" lon="6.54527">
        <ele>1611</ele>
        <time>2018-05-19T23:38:45Z</time>
      </trkpt>
      <trkpt lat="45.7551" lon="6.54521">
        <ele>1610</ele>
        <time>2018-05-19T23:39:45Z</time>
      </trkpt>
      <trkpt lat="45.75513" lon="6.54515">
        <ele>1609</ele>
        <time>2018-05-19T23:40:45Z</time>
      </trkpt>
      <trkpt lat="45.75516" lon="6.54509">
        <ele>1609</ele>
        <time>2018-05-19T23:41:45Z</time>
      </trkpt>
      <trkpt lat="45.75519" lon="6.54503">
        <ele>1609</ele>
        <time>2018-05-19T23:42:45Z</time>
      </trkpt>
      <trkpt lat="45.75521" lon="6.54498">
        <ele>1606</ele>
        <time>2018-05-19T23:43:45Z</time>
      </trkpt>
      <trkpt lat="45.75524" lon="6.54491">
        <ele>1606</ele>
        <time>2018-05-19T23:44:45Z</time>
      </trkpt>
      <trkpt lat="45.75526" lon="6.54485">
        <ele>1607</ele>
        <time>2018-05-19T23:45:45Z</time>
      </trkpt>
      <trkpt lat="45.75527" lon="6.54483">
        <ele>1607</ele>
        <time>2018-05-19T23:46:45Z</time>
      </trkpt>
      <trkpt lat="45.75529" lon="6.54476">
        <ele>1607</ele>
        <time>2018-05-19T23:47:45Z</time>
      </trkpt>
      <trkpt lat="45.75533" lon="6.54466">
        <ele>1608</ele>
        <time>2018-05-19T23:48:45Z</time>
      </trkpt>
      <trkpt lat="45.75539" lon="6.54447">
        <ele>1608</ele>
        <time>2018-05-19T23:49:45Z</time>
      </trkpt>
      <trkpt lat="45.75552" lon="6.54405">
        <ele>1607</ele>
        <time>2018-05-19T23:50:45Z</time>
      </trkpt>
      <trkpt lat="45.75564" lon="6.54371">
        <ele>1607</ele>
        <time>2018-05-19T23:51:45Z</time>
      </trkpt>
      <trkpt lat="45.75592" lon="6.54296">
        <ele>1620</ele>
        <time>2018-05-19T23:52:45Z</time>
      </trkpt>
      <trkpt lat="45.75608" lon="6.54251">
        <ele>1620</ele>
        <time>2018-05-19T23:53:45Z</time>
      </trkpt>
      <trkpt lat="45.75617" lon="6.54217">
        <ele>1621</ele>
        <time>2018-05-19T23:54:45Z</time>
      </trkpt>
      <trkpt lat="45.75623" lon="6.54186">
        <ele>1622</ele>
        <time>2018-05-19T23:55:45Z</time>
      </trkpt>
      <trkpt lat="45.75624" lon="6.54179">
        <ele>1622</ele>
        <time>2018-05-19T23:56:45Z</time>
      </trkpt>
      <trkpt lat="45.75629" lon="6.54146">
        <ele>1622</ele>
        <time>2018-05-19T23:57:45Z</time>
      </trkpt>
      <trkpt lat="45.75635" lon="6.54124">
        <ele>1623</ele>
        <time>2018-05-19T23:58:45Z</time>
      </trkpt>
      <trkpt lat="45.75637" lon="6.54118">
        <ele>1623</ele>
        <time>2018-05-19T23:59:45Z</time>
      </trkpt>
    </trkseg>
  </trk>
</gpx>